<?xml version='1.0' encoding='UTF-8'?><gpx version="1.1" creator="JPX - https://github.com/jenetics/jpx" xmlns="http://www.topografix.com/GPX/1/1"><trk><trkseg><trkpt lat="46.39945247686207" lon="6.595703968437976"><ele>415.00000000000006</ele><time>2026-05-01T10:32:01.998Z</time></trkpt><trkpt lat="46.39943510242055" lon="6.595578869814417"><ele>415.0</ele><time>2026-05-01T10:32:02.998Z</time></trkpt><trkpt lat="46.39942454048027" lon="6.595453345497115"><ele>415.0</ele><time>2026-05-01T10:32:03.998Z</time></trkpt><trkpt lat="46.399412711526814" lon="6.595333426760484"><ele>415.0</ele><time>2026-05-01T10:32:04.999Z</time></trkpt><trkpt lat="46.399402484309974" lon="6.595218993017397"><ele>415.00000000000006</ele><time>2026-05-01T10:32:05.999Z</time></trkpt><trkpt lat="46.39940299504431" lon="6.59509243649299"><ele>415.0</ele><time>2026-05-01T10:32:06.999Z</time></trkpt><trkpt lat="46.39941382527661" lon="6.5949532297489135"><ele>415.1666666666667</ele><time>2026-05-01T10:32:07.999Z</time></trkpt><trkpt lat="46.399402910039086" lon="6.594810073868718"><ele>415.33333333333337</ele><time>2026-05-01T10:32:08.999Z</time></trkpt><trkpt lat="46.39940050084557" lon="6.594681211876796"><ele>415.5</ele><time>2026-05-01T10:32:09.999Z</time></trkpt><trkpt lat="46.399404173779175" lon="6.594569774597695"><ele>415.66666666666663</ele><time>2026-05-01T10:32:10.999Z</time></trkpt><trkpt lat="46.39940549851837" lon="6.59446281519739"><ele>415.8333333333333</ele><time>2026-05-01T10:32:11.999Z</time></trkpt><trkpt lat="46.39940538104712" lon="6.5943557138556566"><ele>416.0</ele><time>2026-05-01T10:32:12.999Z</time></trkpt><trkpt lat="46.399405085561476" lon="6.594261635849655"><ele>416.0</ele><time>2026-05-01T10:32:13.999Z</time></trkpt><trkpt lat="46.39940283862757" lon="6.594074693165722"><ele>416.0</ele><time>2026-05-01T10:32:15.999Z</time></trkpt><trkpt lat="46.39940400935301" lon="6.593974640695165"><ele>416.0</ele><time>2026-05-01T10:32:16.999Z</time></trkpt><trkpt lat="46.39940231676903" lon="6.593846678562685"><ele>416.0</ele><time>2026-05-01T10:32:17.999Z</time></trkpt><trkpt lat="46.399402720556026" lon="6.5936968886269405"><ele>416.0</ele><time>2026-05-01T10:32:18.999Z</time></trkpt><trkpt lat="46.39940246885308" lon="6.593523697236043"><ele>415.6</ele><time>2026-05-01T10:32:19.999Z</time></trkpt><trkpt lat="46.39940405083965" lon="6.593344866969527"><ele>415.20000000000005</ele><time>2026-05-01T10:32:20.999Z</time></trkpt><trkpt lat="46.39940743050089" lon="6.5931999124902925"><ele>414.79999999999995</ele><time>2026-05-01T10:32:21.999Z</time></trkpt><trkpt lat="46.39941710925534" lon="6.593062590261692"><ele>414.4</ele><time>2026-05-01T10:32:22.999Z</time></trkpt><trkpt lat="46.39942411100561" lon="6.592938965885263"><ele>414.0</ele><time>2026-05-01T10:32:23.999Z</time></trkpt><trkpt lat="46.39943990170294" lon="6.592817809525788"><ele>413.8333333333333</ele><time>2026-05-01T10:32:24.999Z</time></trkpt><trkpt lat="46.39944991755888" lon="6.592711143552761"><ele>413.66666666666663</ele><time>2026-05-01T10:32:25.999Z</time></trkpt><trkpt lat="46.39945767760823" lon="6.592601973445814"><ele>413.5</ele><time>2026-05-01T10:32:26.999Z</time></trkpt><trkpt lat="46.399470669451134" lon="6.592500606421726"><ele>413.3333333333333</ele><time>2026-05-01T10:32:27.999Z</time></trkpt><trkpt lat="46.39947916648015" lon="6.592384505311968"><ele>413.16666666666663</ele><time>2026-05-01T10:32:28.999Z</time></trkpt><trkpt lat="46.399487270897204" lon="6.592276138429415"><ele>413.0</ele><time>2026-05-01T10:32:29.999Z</time></trkpt><trkpt lat="46.39949449582525" lon="6.592171037555658"><ele>413.0</ele><time>2026-05-01T10:32:30.999Z</time></trkpt><trkpt lat="46.39949654318812" lon="6.592063053643844"><ele>413.0</ele><time>2026-05-01T10:32:31.999Z</time></trkpt><trkpt lat="46.39948842125991" lon="6.591935572148126"><ele>413.0</ele><time>2026-05-01T10:32:32.999Z</time></trkpt><trkpt lat="46.39947812010279" lon="6.591772698634299"><ele>413.0</ele><time>2026-05-01T10:32:33.999Z</time></trkpt><trkpt lat="46.399432638156256" lon="6.591578635709682"><ele>413.0</ele><time>2026-05-01T10:32:34.999Z</time></trkpt><trkpt lat="46.39936650639967" lon="6.591382421515268"><ele>412.66666666666663</ele><time>2026-05-01T10:32:35.999Z</time></trkpt><trkpt lat="46.39929479688778" lon="6.591172542210313"><ele>412.33333333333337</ele><time>2026-05-01T10:32:36.999Z</time></trkpt><trkpt lat="46.39921435019179" lon="6.590933881496647"><ele>412.0</ele><time>2026-05-01T10:32:37.999Z</time></trkpt><trkpt lat="46.39913444301055" lon="6.5907160085402"><ele>412.0</ele><time>2026-05-01T10:32:38.999Z</time></trkpt><trkpt lat="46.39911428148148" lon="6.59050369781496"><ele>412.0</ele><time>2026-05-01T10:32:39.999Z</time></trkpt><trkpt lat="46.399109684948264" lon="6.590319200897261"><ele>412.0</ele><time>2026-05-01T10:32:40.999Z</time></trkpt><trkpt lat="46.399104955367974" lon="6.590135660771024"><ele>412.0</ele><time>2026-05-01T10:32:41.999Z</time></trkpt><trkpt lat="46.39912645175632" lon="6.589956065574831"><ele>411.8</ele><time>2026-05-01T10:32:42.999Z</time></trkpt><trkpt lat="46.399148258513975" lon="6.5897952514494795"><ele>411.6</ele><time>2026-05-01T10:32:43.999Z</time></trkpt><trkpt lat="46.399160594576706" lon="6.589653769160383"><ele>411.40000000000003</ele><time>2026-05-01T10:32:44.999Z</time></trkpt><trkpt lat="46.39917591387359" lon="6.589503253017912"><ele>411.20000000000005</ele><time>2026-05-01T10:32:45.999Z</time></trkpt><trkpt lat="46.39919225706237" lon="6.58932553139477"><ele>411.0</ele><time>2026-05-01T10:32:46.999Z</time></trkpt><trkpt lat="46.399206242461815" lon="6.589158370976335"><ele>410.25</ele><time>2026-05-01T10:32:47.999Z</time></trkpt><trkpt lat="46.399229508756854" lon="6.589004848267745"><ele>409.5</ele><time>2026-05-01T10:32:48.999Z</time></trkpt><trkpt lat="46.39922305080342" lon="6.588836616054142"><ele>408.75</ele><time>2026-05-01T10:32:49.999Z</time></trkpt><trkpt lat="46.39921308617887" lon="6.588635065176968"><ele>408.0</ele><time>2026-05-01T10:32:50.999Z</time></trkpt><trkpt lat="46.39920212025867" lon="6.588418853423129"><ele>407.25</ele><time>2026-05-01T10:32:51.999Z</time></trkpt><trkpt lat="46.399194783797014" lon="6.588201282491983"><ele>406.5</ele><time>2026-05-01T10:32:52.999Z</time></trkpt><trkpt lat="46.39919215424852" lon="6.587996931991965"><ele>405.75</ele><time>2026-05-01T10:32:53.999Z</time></trkpt><trkpt lat="46.399196734445475" lon="6.587797584093553"><ele>405.0</ele><time>2026-05-01T10:32:54.999Z</time></trkpt><trkpt lat="46.399216441053994" lon="6.587600026352888"><ele>405.0</ele><time>2026-05-01T10:32:55.999Z</time></trkpt><trkpt lat="46.39924393348593" lon="6.587384075570803"><ele>405.0</ele><time>2026-05-01T10:32:56.999Z</time></trkpt><trkpt lat="46.39927134585449" lon="6.587149595296133"><ele>405.0</ele><time>2026-05-01T10:32:57.999Z</time></trkpt><trkpt lat="46.399296597547945" lon="6.586891858843081"><ele>405.0</ele><time>2026-05-01T10:32:58.999Z</time></trkpt><trkpt lat="46.39931771273695" lon="6.5866321868521895"><ele>405.0</ele><time>2026-05-01T10:32:59.999Z</time></trkpt><trkpt lat="46.39933694636436" lon="6.586403106641754"><ele>405.0</ele><time>2026-05-01T10:33:00.999Z</time></trkpt><trkpt lat="46.39933170576295" lon="6.586189245354044"><ele>404.6</ele><time>2026-05-01T10:33:01.999Z</time></trkpt><trkpt lat="46.39933061319004" lon="6.585993867972436"><ele>404.2</ele><time>2026-05-01T10:33:02.999Z</time></trkpt><trkpt lat="46.399330497091526" lon="6.585820069637001"><ele>403.79999999999995</ele><time>2026-05-01T10:33:03.999Z</time></trkpt><trkpt lat="46.39933199453471" lon="6.585672976750456"><ele>403.4</ele><time>2026-05-01T10:33:04.999Z</time></trkpt><trkpt lat="46.39933552867742" lon="6.585573625242849"><ele>403.0</ele><time>2026-05-01T10:33:05.999Z</time></trkpt><trkpt lat="46.39934036735429" lon="6.5854342112547215"><ele>403.0</ele><time>2026-05-01T10:33:06.999Z</time></trkpt><trkpt lat="46.39934297509873" lon="6.58526458984536"><ele>403.0</ele><time>2026-05-01T10:33:07.999Z</time></trkpt><trkpt lat="46.39932531255094" lon="6.585071284370234"><ele>403.0</ele><time>2026-05-01T10:33:08.999Z</time></trkpt><trkpt lat="46.399297772001596" lon="6.584853250577907"><ele>403.0</ele><time>2026-05-01T10:33:09.999Z</time></trkpt><trkpt lat="46.39927010044733" lon="6.584615248787199"><ele>402.6666666666667</ele><time>2026-05-01T10:33:10.999Z</time></trkpt><trkpt lat="46.39924556018554" lon="6.584363106196932"><ele>402.33333333333337</ele><time>2026-05-01T10:33:11.999Z</time></trkpt><trkpt lat="46.39921901663034" lon="6.584125611802872"><ele>402.0</ele><time>2026-05-01T10:33:12.999Z</time></trkpt><trkpt lat="46.39919760093517" lon="6.583916200765585"><ele>402.0</ele><time>2026-05-01T10:33:13.999Z</time></trkpt><trkpt lat="46.39917761634634" lon="6.583720337646386"><ele>402.0</ele><time>2026-05-01T10:33:14.999Z</time></trkpt><trkpt lat="46.399164911141106" lon="6.583537858064868"><ele>402.0</ele><time>2026-05-01T10:33:15.999Z</time></trkpt><trkpt lat="46.399159582346414" lon="6.5833446482088425"><ele>402.0</ele><time>2026-05-01T10:33:16.999Z</time></trkpt><trkpt lat="46.39916198962939" lon="6.583164494392816"><ele>401.40000000000003</ele><time>2026-05-01T10:33:17.999Z</time></trkpt><trkpt lat="46.399171031331946" lon="6.582994791919264"><ele>400.8</ele><time>2026-05-01T10:33:18.999Z</time></trkpt><trkpt lat="46.39918498496018" lon="6.5828387799044"><ele>400.2</ele><time>2026-05-01T10:33:19.999Z</time></trkpt><trkpt lat="46.39919902962995" lon="6.58269238238163"><ele>399.6</ele><time>2026-05-01T10:33:20.999Z</time></trkpt><trkpt lat="46.39921844527608" lon="6.582552683233094"><ele>399.0</ele><time>2026-05-01T10:33:21.999Z</time></trkpt><trkpt lat="46.39924145906884" lon="6.582376866043498"><ele>398.4</ele><time>2026-05-01T10:33:22.999Z</time></trkpt><trkpt lat="46.399257177061685" lon="6.582195476495521"><ele>397.79999999999995</ele><time>2026-05-01T10:33:23.999Z</time></trkpt><trkpt lat="46.3992660874018" lon="6.5820404383532995"><ele>397.20000000000005</ele><time>2026-05-01T10:33:24.999Z</time></trkpt><trkpt lat="46.39927927539483" lon="6.581897424371055"><ele>396.6</ele><time>2026-05-01T10:33:25.999Z</time></trkpt><trkpt lat="46.39929141886934" lon="6.581767796340769"><ele>396.0</ele><time>2026-05-01T10:33:26.999Z</time></trkpt><trkpt lat="46.39930280612851" lon="6.581639214393303"><ele>395.6666666666667</ele><time>2026-05-01T10:33:27.999Z</time></trkpt><trkpt lat="46.39931706356862" lon="6.581535144085458"><ele>395.33333333333337</ele><time>2026-05-01T10:33:28.999Z</time></trkpt><trkpt lat="46.39934386200356" lon="6.581434582466252"><ele>395.0</ele><time>2026-05-01T10:33:29.999Z</time></trkpt><trkpt lat="46.39939061503443" lon="6.581351217731453"><ele>394.6666666666667</ele><time>2026-05-01T10:33:30.999Z</time></trkpt><trkpt lat="46.399428786078104" lon="6.581274433383131"><ele>394.33333333333337</ele><time>2026-05-01T10:33:31.999Z</time></trkpt><trkpt lat="46.39942764275563" lon="6.5810687336188405"><ele>394.0</ele><time>2026-05-01T10:33:33.999Z</time></trkpt><trkpt lat="46.39937874697363" lon="6.580914480380179"><ele>394.0</ele><time>2026-05-01T10:33:34.999Z</time></trkpt><trkpt lat="46.399335586991505" lon="6.580749734164955"><ele>394.0</ele><time>2026-05-01T10:33:35.998Z</time></trkpt><trkpt lat="46.39929517973087" lon="6.58053125552267"><ele>394.0</ele><time>2026-05-01T10:33:36.998Z</time></trkpt><trkpt lat="46.399263403035704" lon="6.5802801876957515"><ele>394.33333333333337</ele><time>2026-05-01T10:33:37.998Z</time></trkpt><trkpt lat="46.3992323986339" lon="6.5800349283469455"><ele>394.66666666666663</ele><time>2026-05-01T10:33:38.998Z</time></trkpt><trkpt lat="46.39919403705755" lon="6.579762888144292"><ele>395.0</ele><time>2026-05-01T10:33:39.998Z</time></trkpt><trkpt lat="46.39915345045919" lon="6.579475122538719"><ele>395.0</ele><time>2026-05-01T10:33:40.998Z</time></trkpt><trkpt lat="46.39911765719615" lon="6.579210227759761"><ele>395.0</ele><time>2026-05-01T10:33:41.998Z</time></trkpt><trkpt lat="46.399082508496164" lon="6.578963364324823"><ele>395.0</ele><time>2026-05-01T10:33:42.998Z</time></trkpt><trkpt lat="46.39904456638707" lon="6.578695658300269"><ele>394.66666666666663</ele><time>2026-05-01T10:33:43.998Z</time></trkpt><trkpt lat="46.399006514227445" lon="6.578425469139883"><ele>394.33333333333337</ele><time>2026-05-01T10:33:44.998Z</time></trkpt><trkpt lat="46.39897622194189" lon="6.578195068653089"><ele>394.0</ele><time>2026-05-01T10:33:45.998Z</time></trkpt><trkpt lat="46.39894675603752" lon="6.578021134416266"><ele>394.0</ele><time>2026-05-01T10:33:46.998Z</time></trkpt><trkpt lat="46.398926262917534" lon="6.577866517480789"><ele>394.0</ele><time>2026-05-01T10:33:47.998Z</time></trkpt><trkpt lat="46.39890550180548" lon="6.577711703597669"><ele>394.0</ele><time>2026-05-01T10:33:48.998Z</time></trkpt><trkpt lat="46.398884708677805" lon="6.577552554901979"><ele>394.0</ele><time>2026-05-01T10:33:49.998Z</time></trkpt><trkpt lat="46.398873508012805" lon="6.577414394711609"><ele>394.0</ele><time>2026-05-01T10:33:50.998Z</time></trkpt><trkpt lat="46.39888250645706" lon="6.577302220868108"><ele>394.0</ele><time>2026-05-01T10:33:51.998Z</time></trkpt><trkpt lat="46.398910003291725" lon="6.577189867902103"><ele>394.0</ele><time>2026-05-01T10:33:52.998Z</time></trkpt><trkpt lat="46.398881699847685" lon="6.577027051816018"><ele>394.0</ele><time>2026-05-01T10:33:54.998Z</time></trkpt><trkpt lat="46.398847265038505" lon="6.576942801217094"><ele>394.0</ele><time>2026-05-01T10:33:55.998Z</time></trkpt><trkpt lat="46.39874132362386" lon="6.576990714321896"><ele>394.0</ele><time>2026-05-01T10:33:56.998Z</time></trkpt><trkpt lat="46.39865538140407" lon="6.576987976021368"><ele>396.4</ele><time>2026-05-01T10:33:57.998Z</time></trkpt><trkpt lat="46.39859652053243" lon="6.5769288997021595"><ele>398.79999999999995</ele><time>2026-05-01T10:33:58.998Z</time></trkpt><trkpt lat="46.398595374804444" lon="6.57678416461368"><ele>401.20000000000005</ele><time>2026-05-01T10:33:59.998Z</time></trkpt><trkpt lat="46.39853510707121" lon="6.576643327312301"><ele>403.6</ele><time>2026-05-01T10:34:00.998Z</time></trkpt><trkpt lat="46.39845137192499" lon="6.576472113852402"><ele>406.0</ele><time>2026-05-01T10:34:01.999Z</time></trkpt><trkpt lat="46.39835025979446" lon="6.576256151017932"><ele>406.0</ele><time>2026-05-01T10:34:02.999Z</time></trkpt><trkpt lat="46.3982381114724" lon="6.576009637003426"><ele>406.0</ele><time>2026-05-01T10:34:03.999Z</time></trkpt><trkpt lat="46.398156465741444" lon="6.575754743818564"><ele>406.0</ele><time>2026-05-01T10:34:04.999Z</time></trkpt><trkpt lat="46.39809644912495" lon="6.575496495484065"><ele>404.0</ele><time>2026-05-01T10:34:05.999Z</time></trkpt><trkpt lat="46.39804176578188" lon="6.575236187366888"><ele>402.0</ele><time>2026-05-01T10:34:06.999Z</time></trkpt><trkpt lat="46.39799594465856" lon="6.575016224461052"><ele>400.0</ele><time>2026-05-01T10:34:07.999Z</time></trkpt><trkpt lat="46.397952874682524" lon="6.574810743329955"><ele>402.5</ele><time>2026-05-01T10:34:08.999Z</time></trkpt><trkpt lat="46.397906301463216" lon="6.574609831136536"><ele>405.0</ele><time>2026-05-01T10:34:09.999Z</time></trkpt><trkpt lat="46.39783692069255" lon="6.574411463404351"><ele>407.5</ele><time>2026-05-01T10:34:10.999Z</time></trkpt><trkpt lat="46.3977841294092" lon="6.574218002508049"><ele>410.0</ele><time>2026-05-01T10:34:11.999Z</time></trkpt><trkpt lat="46.397724303656176" lon="6.574012830101362"><ele>410.0</ele><time>2026-05-01T10:34:12.999Z</time></trkpt><trkpt lat="46.397659321593245" lon="6.573787628417174"><ele>410.0</ele><time>2026-05-01T10:34:13.999Z</time></trkpt><trkpt lat="46.3976083800963" lon="6.57353315132989"><ele>410.0</ele><time>2026-05-01T10:34:14.999Z</time></trkpt><trkpt lat="46.397532709305274" lon="6.573251595841057"><ele>409.66666666666663</ele><time>2026-05-01T10:34:15.999Z</time></trkpt><trkpt lat="46.39744860521848" lon="6.572950533457983"><ele>409.33333333333337</ele><time>2026-05-01T10:34:16.999Z</time></trkpt><trkpt lat="46.39736424125372" lon="6.572670853157534"><ele>409.0</ele><time>2026-05-01T10:34:17.999Z</time></trkpt><trkpt lat="46.39729857373106" lon="6.572431252503357"><ele>408.0</ele><time>2026-05-01T10:34:18.999Z</time></trkpt><trkpt lat="46.397233321339854" lon="6.572232333553363"><ele>407.0</ele><time>2026-05-01T10:34:19.999Z</time></trkpt><trkpt lat="46.39716165767945" lon="6.572088787603937"><ele>406.0</ele><time>2026-05-01T10:34:20.999Z</time></trkpt><trkpt lat="46.39706635423555" lon="6.571972985018937"><ele>405.0</ele><time>2026-05-01T10:34:21.999Z</time></trkpt><trkpt lat="46.39694620924334" lon="6.5718791662356235"><ele>408.66666666666663</ele><time>2026-05-01T10:34:22.999Z</time></trkpt><trkpt lat="46.396805285131784" lon="6.571788265413211"><ele>412.3333333333333</ele><time>2026-05-01T10:34:23.999Z</time></trkpt><trkpt lat="46.39668534912365" lon="6.571647210836201"><ele>416.0</ele><time>2026-05-01T10:34:24.999Z</time></trkpt><trkpt lat="46.39658649350317" lon="6.571487421097341"><ele>416.0</ele><time>2026-05-01T10:34:25.999Z</time></trkpt><trkpt lat="46.39651515863822" lon="6.57128091301032"><ele>416.0</ele><time>2026-05-01T10:34:26.999Z</time></trkpt><trkpt lat="46.39642532088459" lon="6.571045390368974"><ele>416.0</ele><time>2026-05-01T10:34:27.999Z</time></trkpt><trkpt lat="46.39631578190947" lon="6.570802640970339"><ele>421.66666666666663</ele><time>2026-05-01T10:34:28.999Z</time></trkpt><trkpt lat="46.39621529887298" lon="6.570532877842438"><ele>427.33333333333337</ele><time>2026-05-01T10:34:29.999Z</time></trkpt><trkpt lat="46.39609574580756" lon="6.570284821053453"><ele>433.0</ele><time>2026-05-01T10:34:30.999Z</time></trkpt><trkpt lat="46.395956376729394" lon="6.570040314196182"><ele>433.0</ele><time>2026-05-01T10:34:31.999Z</time></trkpt><trkpt lat="46.39584712872104" lon="6.569853862004291"><ele>433.0</ele><time>2026-05-01T10:34:32.999Z</time></trkpt><trkpt lat="46.39577405271944" lon="6.569713707948183"><ele>433.0</ele><time>2026-05-01T10:34:33.999Z</time></trkpt><trkpt lat="46.39567847885904" lon="6.569551325453248"><ele>433.0</ele><time>2026-05-01T10:34:34.999Z</time></trkpt><trkpt lat="46.39556335029889" lon="6.569355351789766"><ele>438.33333333333337</ele><time>2026-05-01T10:34:35.999Z</time></trkpt><trkpt lat="46.3954790811789" lon="6.569132468866047"><ele>443.66666666666663</ele><time>2026-05-01T10:34:36.999Z</time></trkpt><trkpt lat="46.39542463303943" lon="6.568871927302859"><ele>449.0</ele><time>2026-05-01T10:34:37.999Z</time></trkpt><trkpt lat="46.39535776718951" lon="6.568583031471262"><ele>449.0</ele><time>2026-05-01T10:34:38.999Z</time></trkpt><trkpt lat="46.39529372015996" lon="6.568256101878647"><ele>449.0</ele><time>2026-05-01T10:34:39.999Z</time></trkpt><trkpt lat="46.395215245799754" lon="6.56790385400552"><ele>445.5</ele><time>2026-05-01T10:34:40.999Z</time></trkpt><trkpt lat="46.395135702063925" lon="6.567546530252206"><ele>442.0</ele><time>2026-05-01T10:34:41.999Z</time></trkpt><trkpt lat="46.39506286614666" lon="6.567204081169195"><ele>441.33333333333337</ele><time>2026-05-01T10:34:42.999Z</time></trkpt><trkpt lat="46.39499468946372" lon="6.56690162520162"><ele>440.66666666666663</ele><time>2026-05-01T10:34:43.999Z</time></trkpt><trkpt lat="46.39493447750694" lon="6.566617973749418"><ele>440.0</ele><time>2026-05-01T10:34:44.999Z</time></trkpt><trkpt lat="46.39488317742393" lon="6.566317869154443"><ele>439.66666666666663</ele><time>2026-05-01T10:34:45.999Z</time></trkpt><trkpt lat="46.39484433046825" lon="6.565992595751274"><ele>439.33333333333337</ele><time>2026-05-01T10:34:46.999Z</time></trkpt><trkpt lat="46.394820471882234" lon="6.565694295083437"><ele>439.0</ele><time>2026-05-01T10:34:47.999Z</time></trkpt><trkpt lat="46.39478718990383" lon="6.565433904155444"><ele>438.0</ele><time>2026-05-01T10:34:48.999Z</time></trkpt><trkpt lat="46.39473449002368" lon="6.565181479564716"><ele>437.0</ele><time>2026-05-01T10:34:49.999Z</time></trkpt><trkpt lat="46.3946416038734" lon="6.564943402913611"><ele>436.0</ele><time>2026-05-01T10:34:50.999Z</time></trkpt><trkpt lat="46.39454876643228" lon="6.564749478311318"><ele>442.0</ele><time>2026-05-01T10:34:51.999Z</time></trkpt><trkpt lat="46.39445797872004" lon="6.564587809936265"><ele>448.0</ele><time>2026-05-01T10:34:52.999Z</time></trkpt><trkpt lat="46.39435133938975" lon="6.564431794380652"><ele>454.0</ele><time>2026-05-01T10:34:53.999Z</time></trkpt><trkpt lat="46.39426895023751" lon="6.56423596997194"><ele>454.0</ele><time>2026-05-01T10:34:54.999Z</time></trkpt><trkpt lat="46.39421178426774" lon="6.563986325614709"><ele>454.0</ele><time>2026-05-01T10:34:55.999Z</time></trkpt><trkpt lat="46.39416902632779" lon="6.563702659102934"><ele>454.0</ele><time>2026-05-01T10:34:56.999Z</time></trkpt><trkpt lat="46.39412967476808" lon="6.563406819789912"><ele>454.0</ele><time>2026-05-01T10:34:57.999Z</time></trkpt><trkpt lat="46.39409254331306" lon="6.563164383633493"><ele>454.0</ele><time>2026-05-01T10:34:58.999Z</time></trkpt><trkpt lat="46.39405214378423" lon="6.56293658964841"><ele>454.0</ele><time>2026-05-01T10:34:59.999Z</time></trkpt><trkpt lat="46.394037506711705" lon="6.56266218012334"><ele>453.6666666666667</ele><time>2026-05-01T10:35:00.999Z</time></trkpt><trkpt lat="46.39403417623593" lon="6.562405721679405"><ele>453.33333333333337</ele><time>2026-05-01T10:35:01.999Z</time></trkpt><trkpt lat="46.39402476329335" lon="6.562113692248499"><ele>453.0</ele><time>2026-05-01T10:35:02.999Z</time></trkpt><trkpt lat="46.39403190840692" lon="6.561808254855129"><ele>453.0</ele><time>2026-05-01T10:35:03.999Z</time></trkpt><trkpt lat="46.394021943927946" lon="6.561501488401442"><ele>453.0</ele><time>2026-05-01T10:35:04.999Z</time></trkpt><trkpt lat="46.39399164153476" lon="6.5612096459233715"><ele>453.0</ele><time>2026-05-01T10:35:05.999Z</time></trkpt><trkpt lat="46.39395808937846" lon="6.560940048916899"><ele>452.66666666666663</ele><time>2026-05-01T10:35:06.999Z</time></trkpt><trkpt lat="46.393922415609985" lon="6.560699580257668"><ele>452.3333333333333</ele><time>2026-05-01T10:35:07.999Z</time></trkpt><trkpt lat="46.3938811494725" lon="6.560457847026789"><ele>452.0</ele><time>2026-05-01T10:35:08.999Z</time></trkpt><trkpt lat="46.393832857972406" lon="6.560209005643137"><ele>454.66666666666663</ele><time>2026-05-01T10:35:09.999Z</time></trkpt><trkpt lat="46.39377287158365" lon="6.559968680027971"><ele>457.33333333333337</ele><time>2026-05-01T10:35:10.999Z</time></trkpt><trkpt lat="46.393704133270575" lon="6.559717034555064"><ele>460.0</ele><time>2026-05-01T10:35:11.999Z</time></trkpt><trkpt lat="46.3936387955793" lon="6.559482119671602"><ele>460.0</ele><time>2026-05-01T10:35:12.999Z</time></trkpt><trkpt lat="46.39357413512299" lon="6.5592653622939645"><ele>460.0</ele><time>2026-05-01T10:35:13.999Z</time></trkpt><trkpt lat="46.39350953466592" lon="6.559053344474521"><ele>460.0</ele><time>2026-05-01T10:35:14.999Z</time></trkpt><trkpt lat="46.39344394016392" lon="6.558846353588817"><ele>459.75</ele><time>2026-05-01T10:35:15.999Z</time></trkpt><trkpt lat="46.39338867973265" lon="6.558670020009299"><ele>459.5</ele><time>2026-05-01T10:35:16.999Z</time></trkpt><trkpt lat="46.393341421817" lon="6.558524316429357"><ele>459.25</ele><time>2026-05-01T10:35:17.999Z</time></trkpt><trkpt lat="46.393297790581514" lon="6.55837883087551"><ele>459.0</ele><time>2026-05-01T10:35:18.999Z</time></trkpt><trkpt lat="46.39325721720453" lon="6.558236403710806"><ele>459.0</ele><time>2026-05-01T10:35:19.999Z</time></trkpt><trkpt lat="46.39321373463924" lon="6.558087227353222"><ele>459.0</ele><time>2026-05-01T10:35:20.999Z</time></trkpt><trkpt lat="46.39316000828171" lon="6.557919077327279"><ele>459.0</ele><time>2026-05-01T10:35:21.999Z</time></trkpt><trkpt lat="46.39309680233533" lon="6.557725346720912"><ele>459.0</ele><time>2026-05-01T10:35:22.999Z</time></trkpt><trkpt lat="46.39304380571434" lon="6.557521617020862"><ele>462.33333333333337</ele><time>2026-05-01T10:35:23.999Z</time></trkpt><trkpt lat="46.39297120971766" lon="6.557289302030906"><ele>465.6666666666667</ele><time>2026-05-01T10:35:24.999Z</time></trkpt><trkpt lat="46.392889961524084" lon="6.557049705063016"><ele>469.0</ele><time>2026-05-01T10:35:25.999Z</time></trkpt><trkpt lat="46.39279984410822" lon="6.556787338969241"><ele>469.33333333333337</ele><time>2026-05-01T10:35:26.999Z</time></trkpt><trkpt lat="46.39270049455727" lon="6.556529508655845"><ele>469.66666666666663</ele><time>2026-05-01T10:35:27.999Z</time></trkpt><trkpt lat="46.392579322723996" lon="6.556278245679051"><ele>470.0</ele><time>2026-05-01T10:35:28.999Z</time></trkpt><trkpt lat="46.392439134912486" lon="6.556053050225613"><ele>469.0</ele><time>2026-05-01T10:35:29.999Z</time></trkpt><trkpt lat="46.39227806211636" lon="6.555826910273707"><ele>468.0</ele><time>2026-05-01T10:35:30.999Z</time></trkpt><trkpt lat="46.392098830577886" lon="6.555600478292883"><ele>472.0</ele><time>2026-05-01T10:35:31.999Z</time></trkpt><trkpt lat="46.39190387195124" lon="6.555350411586535"><ele>476.0</ele><time>2026-05-01T10:35:32.999Z</time></trkpt><trkpt lat="46.39169861194018" lon="6.555075779298168"><ele>476.0</ele><time>2026-05-01T10:35:33.999Z</time></trkpt><trkpt lat="46.391493515543985" lon="6.554789468613618"><ele>476.0</ele><time>2026-05-01T10:35:34.999Z</time></trkpt><trkpt lat="46.39131307254563" lon="6.5545479641934055"><ele>477.0</ele><time>2026-05-01T10:35:35.999Z</time></trkpt><trkpt lat="46.39115073944245" lon="6.554347251188157"><ele>478.0</ele><time>2026-05-01T10:35:36.999Z</time></trkpt><trkpt lat="46.391003805040356" lon="6.554154891696766"><ele>479.0</ele><time>2026-05-01T10:35:37.999Z</time></trkpt><trkpt lat="46.39087492443575" lon="6.553984194020092"><ele>479.0</ele><time>2026-05-01T10:35:38.999Z</time></trkpt><trkpt lat="46.39076726446049" lon="6.553795270692042"><ele>479.0</ele><time>2026-05-01T10:35:39.999Z</time></trkpt><trkpt lat="46.390650860984465" lon="6.5536210103924315"><ele>479.0</ele><time>2026-05-01T10:35:40.999Z</time></trkpt><trkpt lat="46.39058500960729" lon="6.553374642457977"><ele>481.0</ele><time>2026-05-01T10:35:41.999Z</time></trkpt><trkpt lat="46.390492885573835" lon="6.553134765738782"><ele>483.0</ele><time>2026-05-01T10:35:42.999Z</time></trkpt><trkpt lat="46.39041957408693" lon="6.552873669893138"><ele>485.0</ele><time>2026-05-01T10:35:43.999Z</time></trkpt><trkpt lat="46.390337592110185" lon="6.552602899809049"><ele>485.0</ele><time>2026-05-01T10:35:44.999Z</time></trkpt><trkpt lat="46.39025204922708" lon="6.552331255103826"><ele>485.0</ele><time>2026-05-01T10:35:45.999Z</time></trkpt><trkpt lat="46.390169516258304" lon="6.552043144397341"><ele>485.0</ele><time>2026-05-01T10:35:46.999Z</time></trkpt><trkpt lat="46.39009109991956" lon="6.551780886608423"><ele>483.3333333333333</ele><time>2026-05-01T10:35:47.999Z</time></trkpt><trkpt lat="46.390016424027294" lon="6.551536254625406"><ele>481.66666666666663</ele><time>2026-05-01T10:35:48.999Z</time></trkpt><trkpt lat="46.38995022027879" lon="6.551297821569147"><ele>480.0</ele><time>2026-05-01T10:35:49.999Z</time></trkpt><trkpt lat="46.3898847942601" lon="6.551088259029452"><ele>480.0</ele><time>2026-05-01T10:35:50.999Z</time></trkpt><trkpt lat="46.389833381539525" lon="6.550883215429783"><ele>480.0</ele><time>2026-05-01T10:35:51.999Z</time></trkpt><trkpt lat="46.389792682346744" lon="6.55068161697189"><ele>480.0</ele><time>2026-05-01T10:35:52.999Z</time></trkpt><trkpt lat="46.38974813574325" lon="6.550478232997095"><ele>480.0</ele><time>2026-05-01T10:35:53.999Z</time></trkpt><trkpt lat="46.38969118057494" lon="6.550271825916241"><ele>483.0</ele><time>2026-05-01T10:35:54.999Z</time></trkpt><trkpt lat="46.389637189339744" lon="6.5500559522286705"><ele>486.0</ele><time>2026-05-01T10:35:55.999Z</time></trkpt><trkpt lat="46.38959209039477" lon="6.549877436446482"><ele>489.0</ele><time>2026-05-01T10:35:56.999Z</time></trkpt><trkpt lat="46.389535833391264" lon="6.549710739569195"><ele>492.0</ele><time>2026-05-01T10:35:57.999Z</time></trkpt><trkpt lat="46.389496550386134" lon="6.549555638085708"><ele>491.0</ele><time>2026-05-01T10:35:58.999Z</time></trkpt><trkpt lat="46.38945454468968" lon="6.54940054047662"><ele>490.0</ele><time>2026-05-01T10:35:59.999Z</time></trkpt><trkpt lat="46.38940468882764" lon="6.549243660280365"><ele>489.0</ele><time>2026-05-01T10:36:00.999Z</time></trkpt><trkpt lat="46.38933649960852" lon="6.549062219920272"><ele>488.0</ele><time>2026-05-01T10:36:01.999Z</time></trkpt><trkpt lat="46.389263839310495" lon="6.548850413447047"><ele>487.3333333333333</ele><time>2026-05-01T10:36:02.999Z</time></trkpt><trkpt lat="46.38918599821777" lon="6.548604229840785"><ele>486.66666666666663</ele><time>2026-05-01T10:36:03.999Z</time></trkpt><trkpt lat="46.38910429340022" lon="6.548333236123734"><ele>486.0</ele><time>2026-05-01T10:36:04.999Z</time></trkpt><trkpt lat="46.38901705542398" lon="6.548038663312656"><ele>487.0</ele><time>2026-05-01T10:36:05.999Z</time></trkpt><trkpt lat="46.38892165923585" lon="6.547718720823383"><ele>488.0</ele><time>2026-05-01T10:36:06.999Z</time></trkpt><trkpt lat="46.38881930006469" lon="6.547379047106406"><ele>493.5</ele><time>2026-05-01T10:36:07.999Z</time></trkpt><trkpt lat="46.38870782498384" lon="6.5470161039988675"><ele>499.0</ele><time>2026-05-01T10:36:08.999Z</time></trkpt><trkpt lat="46.3886017773198" lon="6.546691784050345"><ele>499.0</ele><time>2026-05-01T10:36:09.999Z</time></trkpt><trkpt lat="46.38850592770108" lon="6.546407619301147"><ele>499.0</ele><time>2026-05-01T10:36:10.999Z</time></trkpt><trkpt lat="46.388418594779644" lon="6.546155609043448"><ele>499.0</ele><time>2026-05-01T10:36:11.999Z</time></trkpt><trkpt lat="46.388342006905475" lon="6.545905310169235"><ele>498.0</ele><time>2026-05-01T10:36:12.999Z</time></trkpt><trkpt lat="46.38827148948854" lon="6.545682684747821"><ele>497.0</ele><time>2026-05-01T10:36:13.999Z</time></trkpt><trkpt lat="46.38820131975131" lon="6.545477011803164"><ele>496.0</ele><time>2026-05-01T10:36:14.999Z</time></trkpt><trkpt lat="46.38813657305472" lon="6.545286867994869"><ele>495.0</ele><time>2026-05-01T10:36:15.999Z</time></trkpt><trkpt lat="46.388075874656" lon="6.545104078247737"><ele>494.0</ele><time>2026-05-01T10:36:16.999Z</time></trkpt><trkpt lat="46.388020152364405" lon="6.54492504422229"><ele>493.0</ele><time>2026-05-01T10:36:17.999Z</time></trkpt><trkpt lat="46.38796031761886" lon="6.544757908082743"><ele>492.0</ele><time>2026-05-01T10:36:18.999Z</time></trkpt><trkpt lat="46.38791001579009" lon="6.54462088338695"><ele>494.6</ele><time>2026-05-01T10:36:19.999Z</time></trkpt><trkpt lat="46.38786831196795" lon="6.544502341348448"><ele>497.20000000000005</ele><time>2026-05-01T10:36:20.999Z</time></trkpt><trkpt lat="46.38783728012722" lon="6.544408184013339"><ele>499.8</ele><time>2026-05-01T10:36:21.999Z</time></trkpt><trkpt lat="46.387803886544894" lon="6.544277857759973"><ele>502.4</ele><time>2026-05-01T10:36:23.999Z</time></trkpt><trkpt lat="46.387796063982506" lon="6.544168461834126"><ele>505.0</ele><time>2026-05-01T10:36:30.999Z</time></trkpt><trkpt lat="46.38772291209049" lon="6.544024726741945"><ele>505.00000000000006</ele><time>2026-05-01T10:36:32.999Z</time></trkpt><trkpt lat="46.38764302832277" lon="6.5439445162628225"><ele>505.0</ele><time>2026-05-01T10:36:34.999Z</time></trkpt><trkpt lat="46.3875889551336" lon="6.543868093201669"><ele>505.0</ele><time>2026-05-01T10:36:36.999Z</time></trkpt><trkpt lat="46.38751927102124" lon="6.543747170700473"><ele>505.0</ele><time>2026-05-01T10:36:38.999Z</time></trkpt><trkpt lat="46.387479355868344" lon="6.5436588169624645"><ele>505.00000000000006</ele><time>2026-05-01T10:36:39.999Z</time></trkpt><trkpt lat="46.38743959333747" lon="6.543564143338346"><ele>505.0</ele><time>2026-05-01T10:36:40.999Z</time></trkpt><trkpt lat="46.38741108010502" lon="6.543442816432424"><ele>504.50000000000006</ele><time>2026-05-01T10:36:41.999Z</time></trkpt><trkpt lat="46.38739402043033" lon="6.5433085816264045"><ele>504.0</ele><time>2026-05-01T10:36:42.999Z</time></trkpt><trkpt lat="46.38737752322183" lon="6.543184464178687"><ele>503.5</ele><time>2026-05-01T10:36:43.999Z</time></trkpt><trkpt lat="46.38736688606417" lon="6.543064077049885"><ele>503.0</ele><time>2026-05-01T10:36:44.999Z</time></trkpt><trkpt lat="46.38736082503016" lon="6.542948064062103"><ele>502.50000000000006</ele><time>2026-05-01T10:36:45.999Z</time></trkpt><trkpt lat="46.38735980438217" lon="6.542842483497154"><ele>502.0</ele><time>2026-05-01T10:36:46.999Z</time></trkpt><trkpt lat="46.387361705263785" lon="6.542738987778323"><ele>501.83333333333337</ele><time>2026-05-01T10:36:47.999Z</time></trkpt><trkpt lat="46.38736207414752" lon="6.542643293713089"><ele>501.6666666666667</ele><time>2026-05-01T10:36:48.999Z</time></trkpt><trkpt lat="46.387362580112374" lon="6.542466250451574"><ele>501.5</ele><time>2026-05-01T10:36:50.999Z</time></trkpt><trkpt lat="46.387359973393245" lon="6.542370688188809"><ele>501.33333333333337</ele><time>2026-05-01T10:36:51.999Z</time></trkpt><trkpt lat="46.38735259121539" lon="6.542261407039989"><ele>501.1666666666667</ele><time>2026-05-01T10:36:52.999Z</time></trkpt><trkpt lat="46.38734940571131" lon="6.5421525138304295"><ele>501.0</ele><time>2026-05-01T10:36:53.999Z</time></trkpt><trkpt lat="46.38734911957563" lon="6.542050776055839"><ele>500.3333333333333</ele><time>2026-05-01T10:36:54.999Z</time></trkpt><trkpt lat="46.38735352798962" lon="6.5419465000510355"><ele>499.66666666666663</ele><time>2026-05-01T10:36:55.999Z</time></trkpt><trkpt lat="46.387353102728646" lon="6.541837446816922"><ele>499.0</ele><time>2026-05-01T10:36:56.999Z</time></trkpt><trkpt lat="46.387351307822435" lon="6.54171452693474"><ele>498.3333333333333</ele><time>2026-05-01T10:36:57.999Z</time></trkpt><trkpt lat="46.38735229284593" lon="6.541588911597801"><ele>497.66666666666663</ele><time>2026-05-01T10:36:58.999Z</time></trkpt><trkpt lat="46.38735195334775" lon="6.541463090818817"><ele>497.0</ele><time>2026-05-01T10:36:59.999Z</time></trkpt><trkpt lat="46.387349841680084" lon="6.541322787115812"><ele>495.75</ele><time>2026-05-01T10:37:00.999Z</time></trkpt><trkpt lat="46.38734972389393" lon="6.541177345919241"><ele>494.5</ele><time>2026-05-01T10:37:01.999Z</time></trkpt><trkpt lat="46.38735172781464" lon="6.541026895193514"><ele>493.25</ele><time>2026-05-01T10:37:02.999Z</time></trkpt><trkpt lat="46.387352441936386" lon="6.540850800264453"><ele>492.0</ele><time>2026-05-01T10:37:03.999Z</time></trkpt><trkpt lat="46.38735277265652" lon="6.540667597613742"><ele>492.0</ele><time>2026-05-01T10:37:04.999Z</time></trkpt><trkpt lat="46.38734921650774" lon="6.540468245535835"><ele>492.0</ele><time>2026-05-01T10:37:05.999Z</time></trkpt><trkpt lat="46.38734111080885" lon="6.540281452750496"><ele>492.0</ele><time>2026-05-01T10:37:06.999Z</time></trkpt><trkpt lat="46.38733294739775" lon="6.540073514035782"><ele>492.0</ele><time>2026-05-01T10:37:07.999Z</time></trkpt><trkpt lat="46.387322360096704" lon="6.539860528614029"><ele>491.75</ele><time>2026-05-01T10:37:08.999Z</time></trkpt><trkpt lat="46.3873107567129" lon="6.539663847166902"><ele>491.5</ele><time>2026-05-01T10:37:09.999Z</time></trkpt><trkpt lat="46.38730036979797" lon="6.539460030604437"><ele>491.25</ele><time>2026-05-01T10:37:10.999Z</time></trkpt><trkpt lat="46.38728878210998" lon="6.53922913408339"><ele>491.0</ele><time>2026-05-01T10:37:11.999Z</time></trkpt><trkpt lat="46.38727561097219" lon="6.538979041801095"><ele>492.3333333333333</ele><time>2026-05-01T10:37:12.999Z</time></trkpt><trkpt lat="46.38725074514204" lon="6.538703675925261"><ele>493.66666666666663</ele><time>2026-05-01T10:37:13.999Z</time></trkpt><trkpt lat="46.38720653100104" lon="6.538433708845713"><ele>495.0</ele><time>2026-05-01T10:37:14.999Z</time></trkpt><trkpt lat="46.38714479955269" lon="6.538175341607427"><ele>495.66666666666663</ele><time>2026-05-01T10:37:15.999Z</time></trkpt><trkpt lat="46.387083117991224" lon="6.537938184811887"><ele>496.3333333333333</ele><time>2026-05-01T10:37:16.999Z</time></trkpt><trkpt lat="46.38702818792041" lon="6.537714831286255"><ele>497.0</ele><time>2026-05-01T10:37:17.999Z</time></trkpt><trkpt lat="46.386984101397395" lon="6.537490363832152"><ele>497.0</ele><time>2026-05-01T10:37:18.999Z</time></trkpt><trkpt lat="46.386949407017966" lon="6.537245029634783"><ele>497.0</ele><time>2026-05-01T10:37:19.999Z</time></trkpt><trkpt lat="46.38692390627435" lon="6.536972430873929"><ele>497.0</ele><time>2026-05-01T10:37:20.999Z</time></trkpt><trkpt lat="46.386901428167974" lon="6.536702994313098"><ele>495.3333333333333</ele><time>2026-05-01T10:37:21.999Z</time></trkpt><trkpt lat="46.38687708140499" lon="6.536458398042646"><ele>493.66666666666663</ele><time>2026-05-01T10:37:22.999Z</time></trkpt><trkpt lat="46.386852084450695" lon="6.536230351946896"><ele>492.0</ele><time>2026-05-01T10:37:23.999Z</time></trkpt><trkpt lat="46.38682707273345" lon="6.536004131347569"><ele>491.66666666666663</ele><time>2026-05-01T10:37:24.999Z</time></trkpt><trkpt lat="46.386793690065176" lon="6.535750963593624"><ele>491.3333333333333</ele><time>2026-05-01T10:37:25.999Z</time></trkpt><trkpt lat="46.386758292958454" lon="6.535501268890021"><ele>491.0</ele><time>2026-05-01T10:37:26.999Z</time></trkpt><trkpt lat="46.38671592252932" lon="6.53527594508645"><ele>490.0</ele><time>2026-05-01T10:37:27.999Z</time></trkpt><trkpt lat="46.386660517821234" lon="6.535042014523196"><ele>489.0</ele><time>2026-05-01T10:37:28.999Z</time></trkpt><trkpt lat="46.38660565444797" lon="6.534802995966627"><ele>488.0</ele><time>2026-05-01T10:37:29.999Z</time></trkpt><trkpt lat="46.38655513478649" lon="6.53458523993613"><ele>487.25</ele><time>2026-05-01T10:37:30.999Z</time></trkpt><trkpt lat="46.386504460625815" lon="6.5343769886642455"><ele>486.5</ele><time>2026-05-01T10:37:31.999Z</time></trkpt><trkpt lat="46.38646061657467" lon="6.534185907496777"><ele>485.75</ele><time>2026-05-01T10:37:32.999Z</time></trkpt><trkpt lat="46.386428459347584" lon="6.534035547505726"><ele>485.0</ele><time>2026-05-01T10:37:33.999Z</time></trkpt><trkpt lat="46.386398762141965" lon="6.5338923079722715"><ele>485.0</ele><time>2026-05-01T10:37:34.999Z</time></trkpt><trkpt lat="46.3863650826745" lon="6.533744846544539"><ele>485.0</ele><time>2026-05-01T10:37:35.999Z</time></trkpt><trkpt lat="46.38633222988961" lon="6.533607247461488"><ele>485.0</ele><time>2026-05-01T10:37:36.999Z</time></trkpt><trkpt lat="46.386297862129425" lon="6.533472720716546"><ele>485.0</ele><time>2026-05-01T10:37:37.999Z</time></trkpt><trkpt lat="46.386251866336885" lon="6.533352316862974"><ele>485.0</ele><time>2026-05-01T10:37:38.999Z</time></trkpt><trkpt lat="46.386203263330486" lon="6.5332169816194465"><ele>485.75</ele><time>2026-05-01T10:37:39.999Z</time></trkpt><trkpt lat="46.38616341368322" lon="6.533055709952908"><ele>486.5</ele><time>2026-05-01T10:37:40.999Z</time></trkpt><trkpt lat="46.38613018206587" lon="6.532879159665962"><ele>487.25</ele><time>2026-05-01T10:37:41.999Z</time></trkpt><trkpt lat="46.386095410813645" lon="6.5326974932061015"><ele>488.0</ele><time>2026-05-01T10:37:42.999Z</time></trkpt><trkpt lat="46.38607886228512" lon="6.532522884237332"><ele>488.0</ele><time>2026-05-01T10:37:43.999Z</time></trkpt><trkpt lat="46.386040034354146" lon="6.5323649004964555"><ele>487.99999999999994</ele><time>2026-05-01T10:37:44.999Z</time></trkpt><trkpt lat="46.38600087713309" lon="6.532223613455212"><ele>487.99999999999994</ele><time>2026-05-01T10:37:45.999Z</time></trkpt><trkpt lat="46.38596270592156" lon="6.532092228366726"><ele>488.0</ele><time>2026-05-01T10:37:46.999Z</time></trkpt><trkpt lat="46.38592357425477" lon="6.531944525258303"><ele>488.0</ele><time>2026-05-01T10:37:47.999Z</time></trkpt><trkpt lat="46.38588303281253" lon="6.5317877417842976"><ele>487.25</ele><time>2026-05-01T10:37:48.999Z</time></trkpt><trkpt lat="46.38584047199308" lon="6.531620557464053"><ele>486.5</ele><time>2026-05-01T10:37:49.999Z</time></trkpt><trkpt lat="46.38579583735815" lon="6.531450887197205"><ele>485.75</ele><time>2026-05-01T10:37:50.999Z</time></trkpt><trkpt lat="46.385748487215025" lon="6.531280932782665"><ele>485.0</ele><time>2026-05-01T10:37:51.999Z</time></trkpt><trkpt lat="46.385697858056666" lon="6.531096688088394"><ele>483.66666666666663</ele><time>2026-05-01T10:37:52.999Z</time></trkpt><trkpt lat="46.385638245481246" lon="6.530890788991964"><ele>482.33333333333337</ele><time>2026-05-01T10:37:53.999Z</time></trkpt><trkpt lat="46.38558316814777" lon="6.530633682464625"><ele>481.0</ele><time>2026-05-01T10:37:54.999Z</time></trkpt><trkpt lat="46.38551628583376" lon="6.53038970384871"><ele>482.0</ele><time>2026-05-01T10:37:55.999Z</time></trkpt><trkpt lat="46.385459178989635" lon="6.5301716763100615"><ele>483.0</ele><time>2026-05-01T10:37:56.999Z</time></trkpt><trkpt lat="46.38540374204429" lon="6.530009292804882"><ele>484.0</ele><time>2026-05-01T10:37:58Z</time></trkpt><trkpt lat="46.38536414517699" lon="6.529844239050561"><ele>485.0</ele><time>2026-05-01T10:37:59Z</time></trkpt><trkpt lat="46.3853304886083" lon="6.529621382136008"><ele>484.0</ele><time>2026-05-01T10:38:00Z</time></trkpt><trkpt lat="46.38526981010945" lon="6.529360411780246"><ele>483.0</ele><time>2026-05-01T10:38:01Z</time></trkpt><trkpt lat="46.38522418529538" lon="6.529049719202477"><ele>482.0</ele><time>2026-05-01T10:38:02Z</time></trkpt><trkpt lat="46.38517680179521" lon="6.528763463185998"><ele>481.3333333333333</ele><time>2026-05-01T10:38:03Z</time></trkpt><trkpt lat="46.3851334879954" lon="6.52850793390935"><ele>480.66666666666663</ele><time>2026-05-01T10:38:04Z</time></trkpt><trkpt lat="46.3850881783169" lon="6.528282209539495"><ele>480.0</ele><time>2026-05-01T10:38:05Z</time></trkpt><trkpt lat="46.38502752623488" lon="6.528067196192013"><ele>479.0</ele><time>2026-05-01T10:38:06Z</time></trkpt><trkpt lat="46.38496391991127" lon="6.527862497845726"><ele>478.0</ele><time>2026-05-01T10:38:07Z</time></trkpt><trkpt lat="46.384897941444834" lon="6.527668459533175"><ele>477.0</ele><time>2026-05-01T10:38:08Z</time></trkpt><trkpt lat="46.38482327252752" lon="6.527475325722711"><ele>477.0</ele><time>2026-05-01T10:38:09Z</time></trkpt><trkpt lat="46.38472916628828" lon="6.527293684919509"><ele>477.0</ele><time>2026-05-01T10:38:10Z</time></trkpt><trkpt lat="46.38464142554585" lon="6.527117868848691"><ele>477.0</ele><time>2026-05-01T10:38:11Z</time></trkpt><trkpt lat="46.38455305093318" lon="6.526955657803831"><ele>477.0</ele><time>2026-05-01T10:38:12Z</time></trkpt><trkpt lat="46.38446755510001" lon="6.526806383027707"><ele>478.0</ele><time>2026-05-01T10:38:13Z</time></trkpt><trkpt lat="46.38438581726444" lon="6.526658759059905"><ele>479.0</ele><time>2026-05-01T10:38:14Z</time></trkpt><trkpt lat="46.384309302019886" lon="6.526522300019472"><ele>480.0</ele><time>2026-05-01T10:38:15Z</time></trkpt><trkpt lat="46.38423374521929" lon="6.526381965361678"><ele>481.0</ele><time>2026-05-01T10:38:16Z</time></trkpt><trkpt lat="46.38415855533161" lon="6.526237033560954"><ele>480.0</ele><time>2026-05-01T10:38:17Z</time></trkpt><trkpt lat="46.384084987976074" lon="6.52609138950659"><ele>479.0</ele><time>2026-05-01T10:38:18Z</time></trkpt><trkpt lat="46.384028518292624" lon="6.525935607263957"><ele>478.0</ele><time>2026-05-01T10:38:19Z</time></trkpt><trkpt lat="46.38400283580371" lon="6.525765200324212"><ele>477.0</ele><time>2026-05-01T10:38:20Z</time></trkpt><trkpt lat="46.38398874577411" lon="6.525569129579869"><ele>477.25</ele><time>2026-05-01T10:38:21Z</time></trkpt><trkpt lat="46.38395441430011" lon="6.525361931297198"><ele>477.5</ele><time>2026-05-01T10:38:22Z</time></trkpt><trkpt lat="46.383911010722855" lon="6.525172358374052"><ele>477.75</ele><time>2026-05-01T10:38:23Z</time></trkpt><trkpt lat="46.38386939109244" lon="6.524981450603125"><ele>478.0</ele><time>2026-05-01T10:38:24Z</time></trkpt><trkpt lat="46.383828520542" lon="6.524794109754217"><ele>478.0</ele><time>2026-05-01T10:38:25Z</time></trkpt><trkpt lat="46.38378611519345" lon="6.52461488641899"><ele>478.0</ele><time>2026-05-01T10:38:26Z</time></trkpt><trkpt lat="46.38373419108439" lon="6.524424687783883"><ele>478.0</ele><time>2026-05-01T10:38:27Z</time></trkpt><trkpt lat="46.383669812887454" lon="6.524235987140136"><ele>478.0</ele><time>2026-05-01T10:38:28Z</time></trkpt><trkpt lat="46.38359788933553" lon="6.524063375631867"><ele>477.0</ele><time>2026-05-01T10:38:29Z</time></trkpt><trkpt lat="46.38352080057717" lon="6.523902483302359"><ele>476.0</ele><time>2026-05-01T10:38:30Z</time></trkpt><trkpt lat="46.38344036235092" lon="6.5237489118261625"><ele>475.0</ele><time>2026-05-01T10:38:31Z</time></trkpt><trkpt lat="46.38335960737811" lon="6.523599594630103"><ele>474.0</ele><time>2026-05-01T10:38:32Z</time></trkpt><trkpt lat="46.383288650445756" lon="6.523451256185347"><ele>472.25</ele><time>2026-05-01T10:38:33Z</time></trkpt><trkpt lat="46.38322509890507" lon="6.523304941568862"><ele>470.5</ele><time>2026-05-01T10:38:34Z</time></trkpt><trkpt lat="46.38316615557552" lon="6.5231513791236635"><ele>468.75</ele><time>2026-05-01T10:38:35Z</time></trkpt><trkpt lat="46.38312621069386" lon="6.523003390325069"><ele>467.0</ele><time>2026-05-01T10:38:36Z</time></trkpt><trkpt lat="46.38309902301447" lon="6.522839467300651"><ele>465.25</ele><time>2026-05-01T10:38:37Z</time></trkpt><trkpt lat="46.38308808911521" lon="6.52267816177972"><ele>463.5</ele><time>2026-05-01T10:38:38Z</time></trkpt><trkpt lat="46.38309770286033" lon="6.522510097332608"><ele>461.75</ele><time>2026-05-01T10:38:39Z</time></trkpt><trkpt lat="46.383119233733765" lon="6.522314062919513"><ele>460.0</ele><time>2026-05-01T10:38:40Z</time></trkpt><trkpt lat="46.38314916929351" lon="6.522122088270175"><ele>458.75</ele><time>2026-05-01T10:38:41Z</time></trkpt><trkpt lat="46.38318219291333" lon="6.521937657962791"><ele>457.5</ele><time>2026-05-01T10:38:42Z</time></trkpt><trkpt lat="46.383211946127034" lon="6.521756154249698"><ele>456.25</ele><time>2026-05-01T10:38:43Z</time></trkpt><trkpt lat="46.38324548976642" lon="6.521576599446501"><ele>455.0</ele><time>2026-05-01T10:38:44Z</time></trkpt><trkpt lat="46.38328299983234" lon="6.521393876418929"><ele>455.0</ele><time>2026-05-01T10:38:45Z</time></trkpt><trkpt lat="46.38331520837441" lon="6.521201160819209"><ele>455.0</ele><time>2026-05-01T10:38:46Z</time></trkpt><trkpt lat="46.38333561812706" lon="6.521013209853466"><ele>455.0</ele><time>2026-05-01T10:38:47Z</time></trkpt><trkpt lat="46.383340263022404" lon="6.520825721690542"><ele>455.0</ele><time>2026-05-01T10:38:48Z</time></trkpt><trkpt lat="46.3833220693654" lon="6.520631823681721"><ele>455.0</ele><time>2026-05-01T10:38:49Z</time></trkpt><trkpt lat="46.38327000695548" lon="6.520415702610433"><ele>455.0</ele><time>2026-05-01T10:38:50Z</time></trkpt><trkpt lat="46.38320285266328" lon="6.520155376675412"><ele>455.0</ele><time>2026-05-01T10:38:51Z</time></trkpt><trkpt lat="46.383105184402496" lon="6.519873560161245"><ele>455.66666666666663</ele><time>2026-05-01T10:38:52Z</time></trkpt><trkpt lat="46.38300243450626" lon="6.519582554460675"><ele>456.33333333333337</ele><time>2026-05-01T10:38:53Z</time></trkpt><trkpt lat="46.38290826231238" lon="6.519315842220444"><ele>457.0</ele><time>2026-05-01T10:38:54Z</time></trkpt><trkpt lat="46.38281954280888" lon="6.519064572987585"><ele>457.0</ele><time>2026-05-01T10:38:55Z</time></trkpt><trkpt lat="46.382733432814454" lon="6.518816895168401"><ele>457.0</ele><time>2026-05-01T10:38:56Z</time></trkpt><trkpt lat="46.382640538308756" lon="6.518599319818536"><ele>457.0</ele><time>2026-05-01T10:38:57Z</time></trkpt><trkpt lat="46.382580390930876" lon="6.518399379256458"><ele>454.5</ele><time>2026-05-01T10:38:58Z</time></trkpt><trkpt lat="46.38252013876341" lon="6.5182065556727995"><ele>452.0</ele><time>2026-05-01T10:38:59Z</time></trkpt><trkpt lat="46.382479442915745" lon="6.51800117409886"><ele>449.5</ele><time>2026-05-01T10:39:00Z</time></trkpt><trkpt lat="46.382415616809126" lon="6.517798106007225"><ele>447.0</ele><time>2026-05-01T10:39:01Z</time></trkpt><trkpt lat="46.38235900285648" lon="6.517580772508095"><ele>445.25</ele><time>2026-05-01T10:39:02Z</time></trkpt><trkpt lat="46.38232221027881" lon="6.517359951695586"><ele>443.5</ele><time>2026-05-01T10:39:03Z</time></trkpt><trkpt lat="46.382278423015926" lon="6.517146314173028"><ele>441.75</ele><time>2026-05-01T10:39:04Z</time></trkpt><trkpt lat="46.38223334310653" lon="6.516957492914614"><ele>440.0</ele><time>2026-05-01T10:39:05Z</time></trkpt><trkpt lat="46.38219579199618" lon="6.516755752070388"><ele>439.66666666666663</ele><time>2026-05-01T10:39:06Z</time></trkpt><trkpt lat="46.38215929547907" lon="6.516531075461814"><ele>439.33333333333337</ele><time>2026-05-01T10:39:07Z</time></trkpt><trkpt lat="46.382122307748226" lon="6.516293622671188"><ele>439.0</ele><time>2026-05-01T10:39:08Z</time></trkpt><trkpt lat="46.38209010898829" lon="6.5160201406549945"><ele>439.0</ele><time>2026-05-01T10:39:09Z</time></trkpt><trkpt lat="46.382045100623024" lon="6.5157389136875015"><ele>439.0</ele><time>2026-05-01T10:39:10Z</time></trkpt><trkpt lat="46.38198186602686" lon="6.515459698730892"><ele>439.0</ele><time>2026-05-01T10:39:11Z</time></trkpt><trkpt lat="46.381905033934146" lon="6.515202596808048"><ele>437.33333333333337</ele><time>2026-05-01T10:39:12Z</time></trkpt><trkpt lat="46.38182734532771" lon="6.514948170055889"><ele>435.66666666666663</ele><time>2026-05-01T10:39:13Z</time></trkpt><trkpt lat="46.38175743483254" lon="6.514689388025593"><ele>434.0</ele><time>2026-05-01T10:39:14Z</time></trkpt><trkpt lat="46.38169558203632" lon="6.514451015880952"><ele>432.66666666666663</ele><time>2026-05-01T10:39:15Z</time></trkpt><trkpt lat="46.38163757543601" lon="6.514232425655064"><ele>431.33333333333337</ele><time>2026-05-01T10:39:16Z</time></trkpt><trkpt lat="46.381582027326964" lon="6.514019719760234"><ele>430.0</ele><time>2026-05-01T10:39:17Z</time></trkpt><trkpt lat="46.381529401638744" lon="6.513808252428416"><ele>431.0</ele><time>2026-05-01T10:39:18Z</time></trkpt><trkpt lat="46.381474840332224" lon="6.513590744054383"><ele>432.0</ele><time>2026-05-01T10:39:19Z</time></trkpt><trkpt lat="46.38141092563267" lon="6.513355238749092"><ele>433.0</ele><time>2026-05-01T10:39:20Z</time></trkpt><trkpt lat="46.3813480664498" lon="6.5131305149724446"><ele>433.0</ele><time>2026-05-01T10:39:21Z</time></trkpt><trkpt lat="46.38129165624548" lon="6.512910498508753"><ele>433.0</ele><time>2026-05-01T10:39:22Z</time></trkpt><trkpt lat="46.38123852199988" lon="6.512696279414486"><ele>433.0</ele><time>2026-05-01T10:39:23Z</time></trkpt><trkpt lat="46.38117491519377" lon="6.512490772655714"><ele>430.6666666666667</ele><time>2026-05-01T10:39:24Z</time></trkpt><trkpt lat="46.38109456198878" lon="6.51230793291251"><ele>428.33333333333337</ele><time>2026-05-01T10:39:25Z</time></trkpt><trkpt lat="46.380979098959436" lon="6.512137960055237"><ele>426.0</ele><time>2026-05-01T10:39:26Z</time></trkpt><trkpt lat="46.38083058017179" lon="6.511987734258752"><ele>424.66666666666663</ele><time>2026-05-01T10:39:27Z</time></trkpt><trkpt lat="46.380655284868084" lon="6.511840873336626"><ele>423.3333333333333</ele><time>2026-05-01T10:39:28Z</time></trkpt><trkpt lat="46.380482329999715" lon="6.511693648571733"><ele>422.0</ele><time>2026-05-01T10:39:29Z</time></trkpt><trkpt lat="46.380322792331164" lon="6.511556878245284"><ele>422.0</ele><time>2026-05-01T10:39:30Z</time></trkpt><trkpt lat="46.38016848043798" lon="6.511433458709147"><ele>422.0</ele><time>2026-05-01T10:39:31Z</time></trkpt><trkpt lat="46.38001844526461" lon="6.51132659642811"><ele>422.0</ele><time>2026-05-01T10:39:32Z</time></trkpt><trkpt lat="46.37986787727969" lon="6.511231207964922"><ele>418.66666666666663</ele><time>2026-05-01T10:39:33Z</time></trkpt><trkpt lat="46.37971972940569" lon="6.51115409009923"><ele>415.33333333333337</ele><time>2026-05-01T10:39:34Z</time></trkpt><trkpt lat="46.3795722879095" lon="6.511091135836114"><ele>412.0</ele><time>2026-05-01T10:39:35Z</time></trkpt><trkpt lat="46.3794439242291" lon="6.51101404742343"><ele>412.0</ele><time>2026-05-01T10:39:36Z</time></trkpt><trkpt lat="46.37931290633495" lon="6.510941150613695"><ele>412.0</ele><time>2026-05-01T10:39:37Z</time></trkpt><trkpt lat="46.379188545774845" lon="6.510841201493932"><ele>412.0</ele><time>2026-05-01T10:39:38Z</time></trkpt><trkpt lat="46.379063190422876" lon="6.510710677581665"><ele>412.0</ele><time>2026-05-01T10:39:39Z</time></trkpt><trkpt lat="46.378957174154685" lon="6.51055473625326"><ele>409.75</ele><time>2026-05-01T10:39:40Z</time></trkpt><trkpt lat="46.37887641843597" lon="6.5103856628691945"><ele>407.5</ele><time>2026-05-01T10:39:41Z</time></trkpt><trkpt lat="46.378817814081" lon="6.510208863853196"><ele>405.25</ele><time>2026-05-01T10:39:42Z</time></trkpt><trkpt lat="46.37878728761449" lon="6.5100186536114295"><ele>403.0</ele><time>2026-05-01T10:39:43Z</time></trkpt><trkpt lat="46.37877358802668" lon="6.509825191672476"><ele>403.0</ele><time>2026-05-01T10:39:44Z</time></trkpt><trkpt lat="46.37878585327251" lon="6.509608773451984"><ele>403.0</ele><time>2026-05-01T10:39:45Z</time></trkpt><trkpt lat="46.3788135085517" lon="6.509415340184872"><ele>403.0</ele><time>2026-05-01T10:39:46Z</time></trkpt><trkpt lat="46.37886216601302" lon="6.509242180898332"><ele>403.0</ele><time>2026-05-01T10:39:47Z</time></trkpt><trkpt lat="46.37892153141757" lon="6.509083563013341"><ele>402.0</ele><time>2026-05-01T10:39:48Z</time></trkpt><trkpt lat="46.37899944005899" lon="6.508945602728811"><ele>401.0</ele><time>2026-05-01T10:39:49Z</time></trkpt><trkpt lat="46.37908624554259" lon="6.5088307329814"><ele>400.0</ele><time>2026-05-01T10:39:50Z</time></trkpt><trkpt lat="46.37917718065036" lon="6.508735310737307"><ele>399.0</ele><time>2026-05-01T10:39:51Z</time></trkpt><trkpt lat="46.379274731349305" lon="6.5086680567852095"><ele>399.0</ele><time>2026-05-01T10:39:52Z</time></trkpt><trkpt lat="46.379383987718356" lon="6.508611502088176"><ele>399.0</ele><time>2026-05-01T10:39:53Z</time></trkpt><trkpt lat="46.37950740015416" lon="6.508562248324295"><ele>399.0</ele><time>2026-05-01T10:39:54Z</time></trkpt><trkpt lat="46.379621293332576" lon="6.50853476876855"><ele>399.0</ele><time>2026-05-01T10:39:55Z</time></trkpt><trkpt lat="46.3797093268532" lon="6.508527401903667"><ele>399.0</ele><time>2026-05-01T10:39:56Z</time></trkpt><trkpt lat="46.379785289065545" lon="6.508529047472326"><ele>399.0</ele><time>2026-05-01T10:39:57Z</time></trkpt><trkpt lat="46.37984533974257" lon="6.508563064635927"><ele>399.0</ele><time>2026-05-01T10:39:58Z</time></trkpt><trkpt lat="46.379936795809016" lon="6.50869244967016"><ele>399.0</ele><time>2026-05-01T10:40:00Z</time></trkpt><trkpt lat="46.379979277425775" lon="6.508760067399461"><ele>399.0</ele><time>2026-05-01T10:40:01Z</time></trkpt><trkpt lat="46.38004051049599" lon="6.508791842758576"><ele>399.0</ele><time>2026-05-01T10:40:02Z</time></trkpt><trkpt lat="46.38010559382585" lon="6.5087823937590485"><ele>399.0</ele><time>2026-05-01T10:40:03Z</time></trkpt><trkpt lat="46.380168052232136" lon="6.508736866671347"><ele>399.0</ele><time>2026-05-01T10:40:04Z</time></trkpt><trkpt lat="46.3802250988298" lon="6.508652900325115"><ele>399.0</ele><time>2026-05-01T10:40:05Z</time></trkpt><trkpt lat="46.38028110025695" lon="6.508564014360872"><ele>399.0</ele><time>2026-05-01T10:40:06Z</time></trkpt><trkpt lat="46.38034561530345" lon="6.5085014177930836"><ele>399.0</ele><time>2026-05-01T10:40:07Z</time></trkpt><trkpt lat="46.380424193330484" lon="6.508477427180541"><ele>399.0</ele><time>2026-05-01T10:40:08Z</time></trkpt><trkpt lat="46.38050225611591" lon="6.508493783630968"><ele>399.0</ele><time>2026-05-01T10:40:09Z</time></trkpt><trkpt lat="46.38056848395312" lon="6.508497004044979"><ele>398.6</ele><time>2026-05-01T10:40:10Z</time></trkpt><trkpt lat="46.38066083451913" lon="6.508492311399313"><ele>398.2</ele><time>2026-05-01T10:40:12Z</time></trkpt><trkpt lat="46.38075356010177" lon="6.508500726349415"><ele>397.8</ele><time>2026-05-01T10:40:42Z</time></trkpt><trkpt lat="46.38084396575736" lon="6.508459314818278"><ele>397.40000000000003</ele><time>2026-05-01T10:40:43Z</time></trkpt><trkpt lat="46.38094966138369" lon="6.508446893247951"><ele>397.0</ele><time>2026-05-01T10:40:44Z</time></trkpt><trkpt lat="46.38107583446726" lon="6.508467927478507"><ele>397.0</ele><time>2026-05-01T10:40:45Z</time></trkpt><trkpt lat="46.38118011409988" lon="6.508442088835528"><ele>397.0</ele><time>2026-05-01T10:40:46Z</time></trkpt><trkpt lat="46.38127883290364" lon="6.508444748244419"><ele>397.0</ele><time>2026-05-01T10:40:47Z</time></trkpt><trkpt lat="46.381362440002626" lon="6.508478765691945"><ele>397.0</ele><time>2026-05-01T10:40:48Z</time></trkpt><trkpt lat="46.381425773649326" lon="6.508463823458148"><ele>397.0</ele><time>2026-05-01T10:40:49Z</time></trkpt><trkpt lat="46.381476728100274" lon="6.50870263658353"><ele>397.0</ele><time>2026-05-01T10:40:50Z</time></trkpt><trkpt lat="46.381516117926076" lon="6.5088774441881"><ele>397.0</ele><time>2026-05-01T10:40:51Z</time></trkpt><trkpt lat="46.381539586547085" lon="6.509054695826641"><ele>397.0</ele><time>2026-05-01T10:40:52Z</time></trkpt><trkpt lat="46.381531988269586" lon="6.509204489378884"><ele>397.0</ele><time>2026-05-01T10:40:53Z</time></trkpt><trkpt lat="46.381474077707885" lon="6.509326121463348"><ele>397.0</ele><time>2026-05-01T10:40:54Z</time></trkpt><trkpt lat="46.38138623060726" lon="6.5094203036068805"><ele>397.0</ele><time>2026-05-01T10:40:55Z</time></trkpt><trkpt lat="46.38127866910387" lon="6.509467626395245"><ele>397.0</ele><time>2026-05-01T10:40:56Z</time></trkpt><trkpt lat="46.38116587668035" lon="6.509446725585522"><ele>397.0</ele><time>2026-05-01T10:40:57Z</time></trkpt><trkpt lat="46.38105636916219" lon="6.509361137370219"><ele>397.6666666666667</ele><time>2026-05-01T10:40:58Z</time></trkpt><trkpt lat="46.38095476662447" lon="6.509217807114985"><ele>398.33333333333337</ele><time>2026-05-01T10:40:59Z</time></trkpt><trkpt lat="46.38082692991765" lon="6.509103520686469"><ele>399.0</ele><time>2026-05-01T10:41:00Z</time></trkpt><trkpt lat="46.38074782204153" lon="6.508792737211841"><ele>399.0</ele><time>2026-05-01T10:41:01Z</time></trkpt><trkpt lat="46.38060756446329" lon="6.508524933224996"><ele>399.0</ele><time>2026-05-01T10:41:02Z</time></trkpt><trkpt lat="46.38047891246023" lon="6.508238628530862"><ele>399.0</ele><time>2026-05-01T10:41:03Z</time></trkpt><trkpt lat="46.38034069221114" lon="6.507925171552724"><ele>399.0</ele><time>2026-05-01T10:41:04Z</time></trkpt><trkpt lat="46.38019626580548" lon="6.507577949075016"><ele>399.0</ele><time>2026-05-01T10:41:05Z</time></trkpt><trkpt lat="46.380061161736116" lon="6.5072367659204815"><ele>399.0</ele><time>2026-05-01T10:41:06Z</time></trkpt><trkpt lat="46.37994325481474" lon="6.506929168498625"><ele>399.0</ele><time>2026-05-01T10:41:07Z</time></trkpt><trkpt lat="46.3798460671829" lon="6.506655198056403"><ele>399.0</ele><time>2026-05-01T10:41:08Z</time></trkpt><trkpt lat="46.37975299659436" lon="6.506409483546116"><ele>399.0</ele><time>2026-05-01T10:41:09Z</time></trkpt><trkpt lat="46.379659976329286" lon="6.506174616961553"><ele>399.0</ele><time>2026-05-01T10:41:10Z</time></trkpt><trkpt lat="46.379570012402276" lon="6.505947404745693"><ele>399.0</ele><time>2026-05-01T10:41:11Z</time></trkpt><trkpt lat="46.37949258688971" lon="6.505752685369917"><ele>399.0</ele><time>2026-05-01T10:41:12Z</time></trkpt><trkpt lat="46.37943240983917" lon="6.505604259890208"><ele>399.0</ele><time>2026-05-01T10:41:13Z</time></trkpt><trkpt lat="46.37937521686559" lon="6.505480312408382"><ele>399.0</ele><time>2026-05-01T10:41:14Z</time></trkpt><trkpt lat="46.37932863843986" lon="6.505382819844279"><ele>399.0</ele><time>2026-05-01T10:41:15Z</time></trkpt><trkpt lat="46.37928505496891" lon="6.505306550356188"><ele>399.0</ele><time>2026-05-01T10:41:17Z</time></trkpt><trkpt lat="46.37923460964946" lon="6.505204645369832"><ele>399.0</ele><time>2026-05-01T10:41:20Z</time></trkpt><trkpt lat="46.37916725844063" lon="6.505087588702702"><ele>399.0</ele><time>2026-05-01T10:41:22Z</time></trkpt><trkpt lat="46.37910159753807" lon="6.504983033981937"><ele>399.0</ele><time>2026-05-01T10:41:24Z</time></trkpt><trkpt lat="46.37905108397725" lon="6.504909175646632"><ele>399.0</ele><time>2026-05-01T10:41:26Z</time></trkpt><trkpt lat="46.37902038727639" lon="6.504823619725782"><ele>399.0</ele><time>2026-05-01T10:41:34Z</time></trkpt><trkpt lat="46.37899469910256" lon="6.50473380561168"><ele>399.0</ele><time>2026-05-01T10:41:36Z</time></trkpt><trkpt lat="46.378978711039764" lon="6.504612797219695"><ele>399.0</ele><time>2026-05-01T10:41:39Z</time></trkpt><trkpt lat="46.37896915318903" lon="6.504418921215272"><ele>399.0</ele><time>2026-05-01T10:41:41Z</time></trkpt><trkpt lat="46.37894193580989" lon="6.504320178144601"><ele>399.0</ele><time>2026-05-01T10:41:42Z</time></trkpt><trkpt lat="46.37888950322611" lon="6.504233824191918"><ele>399.0</ele><time>2026-05-01T10:41:43Z</time></trkpt><trkpt lat="46.37883244867656" lon="6.504176037622957"><ele>399.0</ele><time>2026-05-01T10:41:44Z</time></trkpt><trkpt lat="46.378766840444456" lon="6.5041857871950155"><ele>399.0</ele><time>2026-05-01T10:41:45Z</time></trkpt><trkpt lat="46.37870123323926" lon="6.5041522560658445"><ele>399.0</ele><time>2026-05-01T10:41:46Z</time></trkpt><trkpt lat="46.37857972479123" lon="6.504285337477729"><ele>399.0</ele><time>2026-05-01T10:41:47Z</time></trkpt><trkpt lat="46.378453166708354" lon="6.504291680297889"><ele>399.66666666666663</ele><time>2026-05-01T10:41:48Z</time></trkpt><trkpt lat="46.37831073263717" lon="6.504221392156924"><ele>400.3333333333333</ele><time>2026-05-01T10:41:49Z</time></trkpt><trkpt lat="46.37816075020984" lon="6.504110170126147"><ele>401.0</ele><time>2026-05-01T10:41:50Z</time></trkpt><trkpt lat="46.378007246127815" lon="6.5039514628907"><ele>402.0</ele><time>2026-05-01T10:41:51Z</time></trkpt><trkpt lat="46.377846539230234" lon="6.503734538342733"><ele>403.0</ele><time>2026-05-01T10:41:52Z</time></trkpt><trkpt lat="46.37768776632337" lon="6.503490233434843"><ele>403.0</ele><time>2026-05-01T10:41:53Z</time></trkpt><trkpt lat="46.37752060243094" lon="6.503245105627514"><ele>403.0</ele><time>2026-05-01T10:41:54Z</time></trkpt><trkpt lat="46.37733579141656" lon="6.502989720022206"><ele>402.5</ele><time>2026-05-01T10:41:55Z</time></trkpt><trkpt lat="46.377101256199694" lon="6.502725318609807"><ele>402.0</ele><time>2026-05-01T10:41:56Z</time></trkpt><trkpt lat="46.37685235872242" lon="6.502478502255595"><ele>402.0</ele><time>2026-05-01T10:41:57Z</time></trkpt><trkpt lat="46.376600703664806" lon="6.502272048359324"><ele>402.0</ele><time>2026-05-01T10:41:58Z</time></trkpt><trkpt lat="46.3763306382859" lon="6.502107299659089"><ele>404.5</ele><time>2026-05-01T10:41:59Z</time></trkpt><trkpt lat="46.3760459124506" lon="6.501978835870555"><ele>407.0</ele><time>2026-05-01T10:42:00Z</time></trkpt><trkpt lat="46.3757553379875" lon="6.501866627182816"><ele>407.5</ele><time>2026-05-01T10:42:01Z</time></trkpt><trkpt lat="46.37546040855903" lon="6.50179522369926"><ele>408.0</ele><time>2026-05-01T10:42:02Z</time></trkpt><trkpt lat="46.375161401435285" lon="6.501755867169993"><ele>408.0</ele><time>2026-05-01T10:42:03Z</time></trkpt><trkpt lat="46.374865125680486" lon="6.5017540261690465"><ele>408.0</ele><time>2026-05-01T10:42:04Z</time></trkpt><trkpt lat="46.37455459096414" lon="6.501788484550127"><ele>411.0</ele><time>2026-05-01T10:42:05Z</time></trkpt><trkpt lat="46.374226663782366" lon="6.501839386774828"><ele>414.0</ele><time>2026-05-01T10:42:06Z</time></trkpt><trkpt lat="46.37388225170886" lon="6.501891253409632"><ele>418.0</ele><time>2026-05-01T10:42:07Z</time></trkpt><trkpt lat="46.37352462663031" lon="6.501929492829168"><ele>422.0</ele><time>2026-05-01T10:42:08Z</time></trkpt><trkpt lat="46.3731507118851" lon="6.501962206909224"><ele>424.5</ele><time>2026-05-01T10:42:09Z</time></trkpt><trkpt lat="46.37278976441689" lon="6.501993001617865"><ele>427.0</ele><time>2026-05-01T10:42:10Z</time></trkpt><trkpt lat="46.37241573923538" lon="6.502023556092537"><ele>429.0</ele><time>2026-05-01T10:42:11Z</time></trkpt><trkpt lat="46.37203479557889" lon="6.502062965677391"><ele>431.0</ele><time>2026-05-01T10:42:12Z</time></trkpt><trkpt lat="46.37163601979086" lon="6.502101015224644"><ele>426.5</ele><time>2026-05-01T10:42:13Z</time></trkpt><trkpt lat="46.37123659482234" lon="6.5021225098863304"><ele>422.0</ele><time>2026-05-01T10:42:14Z</time></trkpt><trkpt lat="46.3708239071945" lon="6.502158780431914"><ele>422.0</ele><time>2026-05-01T10:42:15Z</time></trkpt><trkpt lat="46.370417803402574" lon="6.502188313563781"><ele>422.0</ele><time>2026-05-01T10:42:16Z</time></trkpt><trkpt lat="46.370071922880896" lon="6.502204273358561"><ele>422.0</ele><time>2026-05-01T10:42:17Z</time></trkpt><trkpt lat="46.36974125242185" lon="6.502179852423079"><ele>422.0</ele><time>2026-05-01T10:42:18Z</time></trkpt><trkpt lat="46.3694164937859" lon="6.502111659353484"><ele>427.5</ele><time>2026-05-01T10:42:19Z</time></trkpt><trkpt lat="46.36908999203338" lon="6.502030556053391"><ele>433.0</ele><time>2026-05-01T10:42:20Z</time></trkpt><trkpt lat="46.36876492517677" lon="6.501914669735213"><ele>437.0</ele><time>2026-05-01T10:42:21Z</time></trkpt><trkpt lat="46.36844645893908" lon="6.501762302004132"><ele>441.0</ele><time>2026-05-01T10:42:22Z</time></trkpt><trkpt lat="46.368139436488384" lon="6.501585459216524"><ele>444.0</ele><time>2026-05-01T10:42:23Z</time></trkpt><trkpt lat="46.367843837288056" lon="6.501373441507055"><ele>447.0</ele><time>2026-05-01T10:42:24Z</time></trkpt><trkpt lat="46.367561879391054" lon="6.501127703648962"><ele>447.0</ele><time>2026-05-01T10:42:25Z</time></trkpt><trkpt lat="46.36728891448866" lon="6.500872818464521"><ele>447.0</ele><time>2026-05-01T10:42:26Z</time></trkpt><trkpt lat="46.36703993909853" lon="6.500600993410931"><ele>447.5</ele><time>2026-05-01T10:42:27Z</time></trkpt><trkpt lat="46.366814582844874" lon="6.500324410740108"><ele>448.0</ele><time>2026-05-01T10:42:28Z</time></trkpt><trkpt lat="46.366591731673026" lon="6.500027625749141"><ele>448.0</ele><time>2026-05-01T10:42:29Z</time></trkpt><trkpt lat="46.36637113300861" lon="6.499699935370145"><ele>448.0</ele><time>2026-05-01T10:42:30Z</time></trkpt><trkpt lat="46.366147408664624" lon="6.499366228201185"><ele>449.5</ele><time>2026-05-01T10:42:31Z</time></trkpt><trkpt lat="46.36593219433919" lon="6.499039255662073"><ele>451.0</ele><time>2026-05-01T10:42:32Z</time></trkpt><trkpt lat="46.36571528636391" lon="6.4987163092246725"><ele>461.0</ele><time>2026-05-01T10:42:33Z</time></trkpt><trkpt lat="46.36549835370047" lon="6.4984043548592405"><ele>471.0</ele><time>2026-05-01T10:42:34Z</time></trkpt><trkpt lat="46.36529393022298" lon="6.498105880463322"><ele>469.0</ele><time>2026-05-01T10:42:35Z</time></trkpt><trkpt lat="46.365105910861814" lon="6.497829282078201"><ele>467.0</ele><time>2026-05-01T10:42:36Z</time></trkpt><trkpt lat="46.36492807678418" lon="6.497569358671919"><ele>467.0</ele><time>2026-05-01T10:42:37Z</time></trkpt><trkpt lat="46.364747804614225" lon="6.497300293287608"><ele>467.0</ele><time>2026-05-01T10:42:38Z</time></trkpt><trkpt lat="46.36456813689146" lon="6.49702259595711"><ele>471.0</ele><time>2026-05-01T10:42:39Z</time></trkpt><trkpt lat="46.36438033061562" lon="6.496747705886075"><ele>475.0</ele><time>2026-05-01T10:42:40Z</time></trkpt><trkpt lat="46.36418363866285" lon="6.496461511227875"><ele>476.0</ele><time>2026-05-01T10:42:41Z</time></trkpt><trkpt lat="46.36399368597096" lon="6.496178621807381"><ele>477.0</ele><time>2026-05-01T10:42:42Z</time></trkpt><trkpt lat="46.3638152415181" lon="6.495907863816952"><ele>477.0</ele><time>2026-05-01T10:42:43Z</time></trkpt><trkpt lat="46.36365230284187" lon="6.495642803264558"><ele>477.0</ele><time>2026-05-01T10:42:44Z</time></trkpt><trkpt lat="46.363506783891026" lon="6.495368394750911"><ele>473.5</ele><time>2026-05-01T10:42:45Z</time></trkpt><trkpt lat="46.36337025459659" lon="6.495077581466235"><ele>470.0</ele><time>2026-05-01T10:42:46Z</time></trkpt><trkpt lat="46.36323138301809" lon="6.494766014523976"><ele>474.0</ele><time>2026-05-01T10:42:47Z</time></trkpt><trkpt lat="46.36309635219755" lon="6.494424181310773"><ele>478.0</ele><time>2026-05-01T10:42:48Z</time></trkpt><trkpt lat="46.362970527197476" lon="6.494061944783265"><ele>480.0</ele><time>2026-05-01T10:42:49Z</time></trkpt><trkpt lat="46.36286218936787" lon="6.4936881508531235"><ele>482.0</ele><time>2026-05-01T10:42:50Z</time></trkpt><trkpt lat="46.362766005487295" lon="6.493313753767496"><ele>482.0</ele><time>2026-05-01T10:42:51Z</time></trkpt><trkpt lat="46.36266914113703" lon="6.492945853043483"><ele>482.0</ele><time>2026-05-01T10:42:52Z</time></trkpt><trkpt lat="46.36255170062554" lon="6.492576131971422"><ele>482.5</ele><time>2026-05-01T10:42:53Z</time></trkpt><trkpt lat="46.3624107843511" lon="6.4922026615169015"><ele>483.0</ele><time>2026-05-01T10:42:54Z</time></trkpt><trkpt lat="46.36225525713443" lon="6.491817559290745"><ele>485.0</ele><time>2026-05-01T10:42:55Z</time></trkpt><trkpt lat="46.362085921348175" lon="6.491428919050907"><ele>487.0</ele><time>2026-05-01T10:42:56Z</time></trkpt><trkpt lat="46.36189294583071" lon="6.491036684812112"><ele>487.0</ele><time>2026-05-01T10:42:57Z</time></trkpt><trkpt lat="46.36168454138012" lon="6.490644868168231"><ele>487.0</ele><time>2026-05-01T10:42:58Z</time></trkpt><trkpt lat="46.36144562940873" lon="6.490255300621192"><ele>487.0</ele><time>2026-05-01T10:42:59Z</time></trkpt><trkpt lat="46.36118197771152" lon="6.489868263533884"><ele>487.0</ele><time>2026-05-01T10:43:00Z</time></trkpt><trkpt lat="46.360900813186866" lon="6.489487595155851"><ele>487.0</ele><time>2026-05-01T10:43:01Z</time></trkpt><trkpt lat="46.36059261816615" lon="6.489128309797963"><ele>487.0</ele><time>2026-05-01T10:43:02Z</time></trkpt><trkpt lat="46.360267757110925" lon="6.488791757023911"><ele>487.0</ele><time>2026-05-01T10:43:03Z</time></trkpt><trkpt lat="46.3599293366136" lon="6.488495768451053"><ele>487.0</ele><time>2026-05-01T10:43:04Z</time></trkpt><trkpt lat="46.35963123049432" lon="6.488214558694836"><ele>487.0</ele><time>2026-05-01T10:43:05Z</time></trkpt><trkpt lat="46.35934622848585" lon="6.487966568241032"><ele>487.0</ele><time>2026-05-01T10:43:06Z</time></trkpt><trkpt lat="46.359059529973635" lon="6.487707461772295"><ele>486.5</ele><time>2026-05-01T10:43:07Z</time></trkpt><trkpt lat="46.35877159653081" lon="6.487394836832345"><ele>486.0</ele><time>2026-05-01T10:43:08Z</time></trkpt><trkpt lat="46.358483841614266" lon="6.487042329806237"><ele>486.0</ele><time>2026-05-01T10:43:09Z</time></trkpt><trkpt lat="46.358199297242436" lon="6.486656309177946"><ele>486.0</ele><time>2026-05-01T10:43:10Z</time></trkpt><trkpt lat="46.35793975645276" lon="6.486259343428336"><ele>485.0</ele><time>2026-05-01T10:43:11Z</time></trkpt><trkpt lat="46.35771839564804" lon="6.485876309842613"><ele>484.0</ele><time>2026-05-01T10:43:12Z</time></trkpt><trkpt lat="46.35752619096723" lon="6.485501972909673"><ele>483.5</ele><time>2026-05-01T10:43:13Z</time></trkpt><trkpt lat="46.35733582851676" lon="6.485112638155324"><ele>483.0</ele><time>2026-05-01T10:43:14Z</time></trkpt><trkpt lat="46.35714510372772" lon="6.484715755818032"><ele>483.0</ele><time>2026-05-01T10:43:15Z</time></trkpt><trkpt lat="46.35694349886683" lon="6.484311341824049"><ele>483.0</ele><time>2026-05-01T10:43:16Z</time></trkpt><trkpt lat="46.35672813374105" lon="6.483893609864203"><ele>483.0</ele><time>2026-05-01T10:43:17Z</time></trkpt><trkpt lat="46.35650471492386" lon="6.48347113515073"><ele>483.0</ele><time>2026-05-01T10:43:18Z</time></trkpt><trkpt lat="46.35626974298196" lon="6.4830526263223165"><ele>482.0</ele><time>2026-05-01T10:43:19Z</time></trkpt><trkpt lat="46.3560362464949" lon="6.482669979551036"><ele>481.0</ele><time>2026-05-01T10:43:20Z</time></trkpt><trkpt lat="46.35580293322405" lon="6.48234457596164"><ele>480.5</ele><time>2026-05-01T10:43:21Z</time></trkpt><trkpt lat="46.355580653929096" lon="6.482036016153495"><ele>480.0</ele><time>2026-05-01T10:43:22Z</time></trkpt><trkpt lat="46.355367497063135" lon="6.481749472688535"><ele>480.0</ele><time>2026-05-01T10:43:23Z</time></trkpt><trkpt lat="46.35515933650806" lon="6.481479602225862"><ele>480.0</ele><time>2026-05-01T10:43:24Z</time></trkpt><trkpt lat="46.354951935377876" lon="6.481212813299103"><ele>481.0</ele><time>2026-05-01T10:43:25Z</time></trkpt><trkpt lat="46.35475006058537" lon="6.4809492181385595"><ele>482.0</ele><time>2026-05-01T10:43:26Z</time></trkpt><trkpt lat="46.35456637323544" lon="6.480695755158407"><ele>482.0</ele><time>2026-05-01T10:43:27Z</time></trkpt><trkpt lat="46.35440616531891" lon="6.4804604772985"><ele>482.0</ele><time>2026-05-01T10:43:28Z</time></trkpt><trkpt lat="46.354258880003954" lon="6.480240211223953"><ele>482.0</ele><time>2026-05-01T10:43:29Z</time></trkpt><trkpt lat="46.354115320829116" lon="6.480012331731075"><ele>481.66666666666663</ele><time>2026-05-01T10:43:30Z</time></trkpt><trkpt lat="46.353992388811605" lon="6.4797833793947985"><ele>481.33333333333337</ele><time>2026-05-01T10:43:31Z</time></trkpt><trkpt lat="46.35388527717117" lon="6.4795474137113755"><ele>481.0</ele><time>2026-05-01T10:43:32Z</time></trkpt><trkpt lat="46.3537926163684" lon="6.479305188041086"><ele>480.6666666666667</ele><time>2026-05-01T10:43:33Z</time></trkpt><trkpt lat="46.35370855416435" lon="6.479042126844955"><ele>480.33333333333337</ele><time>2026-05-01T10:43:34Z</time></trkpt><trkpt lat="46.35364022798379" lon="6.4787796353880625"><ele>480.0</ele><time>2026-05-01T10:43:35Z</time></trkpt><trkpt lat="46.35358141342472" lon="6.478531477362109"><ele>480.0</ele><time>2026-05-01T10:43:36Z</time></trkpt><trkpt lat="46.35353557861" lon="6.478311667175891"><ele>480.0</ele><time>2026-05-01T10:43:37Z</time></trkpt><trkpt lat="46.353499861124675" lon="6.47811198341899"><ele>480.0</ele><time>2026-05-01T10:43:38Z</time></trkpt><trkpt lat="46.35347076793271" lon="6.477948559932702"><ele>480.0</ele><time>2026-05-01T10:43:39Z</time></trkpt><trkpt lat="46.353443814747436" lon="6.477799152576412"><ele>480.0</ele><time>2026-05-01T10:43:40Z</time></trkpt><trkpt lat="46.353411966275445" lon="6.4776582378077485"><ele>480.0</ele><time>2026-05-01T10:43:41Z</time></trkpt><trkpt lat="46.35338371980032" lon="6.477527417618294"><ele>480.0</ele><time>2026-05-01T10:43:42Z</time></trkpt><trkpt lat="46.35335946227959" lon="6.477395981796546"><ele>480.0</ele><time>2026-05-01T10:43:43Z</time></trkpt><trkpt lat="46.35335380446436" lon="6.47728801066239"><ele>480.0</ele><time>2026-05-01T10:43:44Z</time></trkpt><trkpt lat="46.353398745838284" lon="6.477180769061828"><ele>480.0</ele><time>2026-05-01T10:43:46Z</time></trkpt><trkpt lat="46.35346640628531" lon="6.477121732918542"><ele>480.0</ele><time>2026-05-01T10:43:48Z</time></trkpt><trkpt lat="46.35356734113269" lon="6.477057525445352"><ele>480.0</ele><time>2026-05-01T10:43:50Z</time></trkpt><trkpt lat="46.353625708456605" lon="6.476910293326823"><ele>480.0</ele><time>2026-05-01T10:43:52Z</time></trkpt><trkpt lat="46.35363017334288" lon="6.476814521693094"><ele>480.0</ele><time>2026-05-01T10:43:53Z</time></trkpt><trkpt lat="46.353539927546215" lon="6.476695014930708"><ele>479.8</ele><time>2026-05-01T10:43:55Z</time></trkpt><trkpt lat="46.35348827790817" lon="6.476636421442507"><ele>479.6</ele><time>2026-05-01T10:43:56Z</time></trkpt><trkpt lat="46.353400245642355" lon="6.476721131616871"><ele>479.4</ele><time>2026-05-01T10:43:57Z</time></trkpt><trkpt lat="46.35332674542181" lon="6.476727832384014"><ele>479.2</ele><time>2026-05-01T10:43:58Z</time></trkpt><trkpt lat="46.353292780907196" lon="6.476919800481694"><ele>479.0</ele><time>2026-05-01T10:43:59Z</time></trkpt><trkpt lat="46.35322791570253" lon="6.477024107127344"><ele>479.0</ele><time>2026-05-01T10:44:00Z</time></trkpt><trkpt lat="46.35312216418187" lon="6.4770912015193165"><ele>479.0</ele><time>2026-05-01T10:44:01Z</time></trkpt><trkpt lat="46.35300303196406" lon="6.477134170750936"><ele>479.0</ele><time>2026-05-01T10:44:02Z</time></trkpt><trkpt lat="46.35291169300021" lon="6.477176655044119"><ele>479.0</ele><time>2026-05-01T10:44:03Z</time></trkpt><trkpt lat="46.35283210509649" lon="6.477174846402179"><ele>479.0</ele><time>2026-05-01T10:44:05Z</time></trkpt><trkpt lat="46.35276647818335" lon="6.4771368283528465"><ele>479.49999999999994</ele><time>2026-05-01T10:44:07Z</time></trkpt><trkpt lat="46.35269766058527" lon="6.477122202260855"><ele>480.0</ele><time>2026-05-01T10:44:08Z</time></trkpt><trkpt lat="46.352626703942605" lon="6.477134860793974"><ele>480.5</ele><time>2026-05-01T10:44:09Z</time></trkpt><trkpt lat="46.35256623690633" lon="6.4771698906816395"><ele>481.0</ele><time>2026-05-01T10:44:10Z</time></trkpt><trkpt lat="46.352534123426054" lon="6.477294768943315"><ele>481.49999999999994</ele><time>2026-05-01T10:44:11Z</time></trkpt><trkpt lat="46.3525081160494" lon="6.477434741080552"><ele>482.0</ele><time>2026-05-01T10:44:12Z</time></trkpt><trkpt lat="46.35247637183884" lon="6.477592739337851"><ele>482.0</ele><time>2026-05-01T10:44:13Z</time></trkpt><trkpt lat="46.352398423249596" lon="6.477735191198906"><ele>482.0</ele><time>2026-05-01T10:44:14Z</time></trkpt><trkpt lat="46.35226749016519" lon="6.477830798944688"><ele>482.0</ele><time>2026-05-01T10:44:15Z</time></trkpt><trkpt lat="46.35214514983805" lon="6.477955231368879"><ele>482.0</ele><time>2026-05-01T10:44:16Z</time></trkpt><trkpt lat="46.352020091411205" lon="6.4780780698255835"><ele>482.5</ele><time>2026-05-01T10:44:17Z</time></trkpt><trkpt lat="46.35190724416387" lon="6.478187031812594"><ele>483.0</ele><time>2026-05-01T10:44:18Z</time></trkpt><trkpt lat="46.351815775124926" lon="6.478292769328319"><ele>483.5</ele><time>2026-05-01T10:44:19Z</time></trkpt><trkpt lat="46.35172986763213" lon="6.478358272018159"><ele>484.0</ele><time>2026-05-01T10:44:20Z</time></trkpt><trkpt lat="46.351639139897486" lon="6.478419605508582"><ele>484.0</ele><time>2026-05-01T10:44:21Z</time></trkpt><trkpt lat="46.351532250223926" lon="6.478481160778398"><ele>484.0</ele><time>2026-05-01T10:44:22Z</time></trkpt><trkpt lat="46.35141406388105" lon="6.478552249503172"><ele>484.0</ele><time>2026-05-01T10:44:23Z</time></trkpt><trkpt lat="46.351292899810005" lon="6.478614284310957"><ele>484.0</ele><time>2026-05-01T10:44:24Z</time></trkpt><trkpt lat="46.35118476823225" lon="6.4786610412270536"><ele>484.33333333333337</ele><time>2026-05-01T10:44:25Z</time></trkpt><trkpt lat="46.35105992004655" lon="6.478710577477395"><ele>484.66666666666663</ele><time>2026-05-01T10:44:26Z</time></trkpt><trkpt lat="46.35090178279376" lon="6.478768684668838"><ele>485.0</ele><time>2026-05-01T10:44:27Z</time></trkpt><trkpt lat="46.35072011770289" lon="6.4788325707214725"><ele>489.0</ele><time>2026-05-01T10:44:28Z</time></trkpt><trkpt lat="46.35052221293553" lon="6.478899247222797"><ele>493.0</ele><time>2026-05-01T10:44:29Z</time></trkpt><trkpt lat="46.35033121832309" lon="6.478962928625505"><ele>497.0</ele><time>2026-05-01T10:44:30Z</time></trkpt><trkpt lat="46.35014054422346" lon="6.479028749682815"><ele>497.0</ele><time>2026-05-01T10:44:31Z</time></trkpt><trkpt lat="46.34994355295298" lon="6.47906046404925"><ele>497.0</ele><time>2026-05-01T10:44:32Z</time></trkpt><trkpt lat="46.34974801487705" lon="6.479107788858907"><ele>497.0</ele><time>2026-05-01T10:44:33Z</time></trkpt><trkpt lat="46.3495457971107" lon="6.479085959010714"><ele>501.66666666666663</ele><time>2026-05-01T10:44:34Z</time></trkpt><trkpt lat="46.34933889548115" lon="6.478983410639049"><ele>506.33333333333337</ele><time>2026-05-01T10:44:35Z</time></trkpt><trkpt lat="46.34911483630733" lon="6.478904415919824"><ele>511.0</ele><time>2026-05-01T10:44:36Z</time></trkpt><trkpt lat="46.34887713084283" lon="6.478812135703101"><ele>510.0</ele><time>2026-05-01T10:44:37Z</time></trkpt><trkpt lat="46.34866134312659" lon="6.478745755270465"><ele>509.0</ele><time>2026-05-01T10:44:38Z</time></trkpt><trkpt lat="46.34847175664642" lon="6.478671154433582"><ele>508.0</ele><time>2026-05-01T10:44:39Z</time></trkpt><trkpt lat="46.34830358440888" lon="6.47855165992495"><ele>508.0</ele><time>2026-05-01T10:44:40Z</time></trkpt><trkpt lat="46.34815886294416" lon="6.478416543474206"><ele>508.0</ele><time>2026-05-01T10:44:41Z</time></trkpt><trkpt lat="46.348024253153554" lon="6.478262007662363"><ele>508.0</ele><time>2026-05-01T10:44:42Z</time></trkpt><trkpt lat="46.34787294711637" lon="6.478099497755069"><ele>509.33333333333337</ele><time>2026-05-01T10:44:43Z</time></trkpt><trkpt lat="46.347714311517834" lon="6.477928610475842"><ele>510.66666666666663</ele><time>2026-05-01T10:44:44Z</time></trkpt><trkpt lat="46.34754636524189" lon="6.477773360810836"><ele>512.0</ele><time>2026-05-01T10:44:45Z</time></trkpt><trkpt lat="46.34734636255113" lon="6.477635885222658"><ele>521.0</ele><time>2026-05-01T10:44:46Z</time></trkpt><trkpt lat="46.34711638294351" lon="6.477516274526951"><ele>530.0</ele><time>2026-05-01T10:44:47Z</time></trkpt><trkpt lat="46.346889268096675" lon="6.477388420093239"><ele>530.0</ele><time>2026-05-01T10:44:48Z</time></trkpt><trkpt lat="46.34669997167703" lon="6.477256615524474"><ele>530.0</ele><time>2026-05-01T10:44:49Z</time></trkpt><trkpt lat="46.34653686653975" lon="6.477110934334829"><ele>530.0</ele><time>2026-05-01T10:44:50Z</time></trkpt><trkpt lat="46.3463990973449" lon="6.4769347907427"><ele>529.6666666666666</ele><time>2026-05-01T10:44:51Z</time></trkpt><trkpt lat="46.34627137309825" lon="6.4767278094491845"><ele>529.3333333333334</ele><time>2026-05-01T10:44:52Z</time></trkpt><trkpt lat="46.34615978352206" lon="6.476540451327082"><ele>529.0</ele><time>2026-05-01T10:44:53Z</time></trkpt><trkpt lat="46.34604427704621" lon="6.476396899524188"><ele>529.0</ele><time>2026-05-01T10:44:54Z</time></trkpt><trkpt lat="46.34591675619993" lon="6.476308391990994"><ele>529.0</ele><time>2026-05-01T10:44:55Z</time></trkpt><trkpt lat="46.34577345466851" lon="6.476241274721919"><ele>529.0</ele><time>2026-05-01T10:44:56Z</time></trkpt><trkpt lat="46.345641558901626" lon="6.476188795250814"><ele>529.0</ele><time>2026-05-01T10:44:57Z</time></trkpt><trkpt lat="46.345526424639445" lon="6.476128364892813"><ele>529.0</ele><time>2026-05-01T10:44:58Z</time></trkpt><trkpt lat="46.3454403153998" lon="6.476061004450369"><ele>529.0</ele><time>2026-05-01T10:44:59Z</time></trkpt><trkpt lat="46.34538221883443" lon="6.4760108248394666"><ele>529.0</ele><time>2026-05-01T10:45:00Z</time></trkpt><trkpt lat="46.34530827241833" lon="6.475959841263663"><ele>529.0</ele><time>2026-05-01T10:45:02Z</time></trkpt><trkpt lat="46.34535956980397" lon="6.476067212936546"><ele>529.0</ele><time>2026-05-01T10:45:10Z</time></trkpt><trkpt lat="46.34546470042867" lon="6.476152777948799"><ele>529.0</ele><time>2026-05-01T10:45:11Z</time></trkpt><trkpt lat="46.34556208299221" lon="6.476197233045208"><ele>529.0</ele><time>2026-05-01T10:45:12Z</time></trkpt><trkpt lat="46.34569537472755" lon="6.476261008419779"><ele>529.0</ele><time>2026-05-01T10:45:13Z</time></trkpt><trkpt lat="46.345842079956086" lon="6.476329903910337"><ele>529.0</ele><time>2026-05-01T10:45:14Z</time></trkpt><trkpt lat="46.3459727076396" lon="6.476397809867976"><ele>529.0</ele><time>2026-05-01T10:45:15Z</time></trkpt><trkpt lat="46.346096922309954" lon="6.476512052997837"><ele>529.0</ele><time>2026-05-01T10:45:16Z</time></trkpt><trkpt lat="46.34622624651298" lon="6.476675986167413"><ele>529.0</ele><time>2026-05-01T10:45:17Z</time></trkpt><trkpt lat="46.34635214609546" lon="6.476873395983345"><ele>529.3333333333334</ele><time>2026-05-01T10:45:18Z</time></trkpt><trkpt lat="46.346470230242" lon="6.477047409505091"><ele>529.6666666666666</ele><time>2026-05-01T10:45:19Z</time></trkpt><trkpt lat="46.3466041072432" lon="6.477231068767107"><ele>530.0</ele><time>2026-05-01T10:45:20Z</time></trkpt><trkpt lat="46.34678848733218" lon="6.4773634439046"><ele>530.0</ele><time>2026-05-01T10:45:21Z</time></trkpt><trkpt lat="46.34698912516808" lon="6.477478015121759"><ele>530.0</ele><time>2026-05-01T10:45:22Z</time></trkpt><trkpt lat="46.34718461019289" lon="6.477602248811486"><ele>530.0</ele><time>2026-05-01T10:45:23Z</time></trkpt><trkpt lat="46.34737307411062" lon="6.477713613181175"><ele>528.6666666666666</ele><time>2026-05-01T10:45:24Z</time></trkpt><trkpt lat="46.347548988049205" lon="6.47783517965445"><ele>527.3333333333334</ele><time>2026-05-01T10:45:25Z</time></trkpt><trkpt lat="46.34772454764855" lon="6.477995207587972"><ele>526.0</ele><time>2026-05-01T10:45:26Z</time></trkpt><trkpt lat="46.34789688675975" lon="6.47819089908038"><ele>520.0</ele><time>2026-05-01T10:45:27Z</time></trkpt><trkpt lat="46.34807439458324" lon="6.4783461769553465"><ele>514.0</ele><time>2026-05-01T10:45:28Z</time></trkpt><trkpt lat="46.34823384632263" lon="6.478525222591298"><ele>508.0</ele><time>2026-05-01T10:45:29Z</time></trkpt><trkpt lat="46.34842038822669" lon="6.478643721781706"><ele>508.0</ele><time>2026-05-01T10:45:30Z</time></trkpt><trkpt lat="46.348594279562654" lon="6.478751104194422"><ele>508.0</ele><time>2026-05-01T10:45:31Z</time></trkpt><trkpt lat="46.34878203412061" lon="6.478818629123936"><ele>508.0</ele><time>2026-05-01T10:45:32Z</time></trkpt><trkpt lat="46.348970280860684" lon="6.478868123204083"><ele>509.0</ele><time>2026-05-01T10:45:33Z</time></trkpt><trkpt lat="46.349160705382204" lon="6.478934637733654"><ele>510.0</ele><time>2026-05-01T10:45:34Z</time></trkpt><trkpt lat="46.34932324390543" lon="6.479026820278572"><ele>511.0</ele><time>2026-05-01T10:45:35Z</time></trkpt><trkpt lat="46.349480993581395" lon="6.479068078513302"><ele>511.0</ele><time>2026-05-01T10:45:36Z</time></trkpt><trkpt lat="46.34963163685907" lon="6.479112554589425"><ele>511.0</ele><time>2026-05-01T10:45:37Z</time></trkpt><trkpt lat="46.34978160900154" lon="6.479122637236109"><ele>511.0</ele><time>2026-05-01T10:45:38Z</time></trkpt><trkpt lat="46.34992694415042" lon="6.479108918484041"><ele>511.0</ele><time>2026-05-01T10:45:39Z</time></trkpt><trkpt lat="46.35006629548102" lon="6.479071720649291"><ele>506.33333333333337</ele><time>2026-05-01T10:45:40Z</time></trkpt><trkpt lat="46.35020799503703" lon="6.479028972661761"><ele>501.66666666666663</ele><time>2026-05-01T10:45:41Z</time></trkpt><trkpt lat="46.35035793154286" lon="6.478972864623981"><ele>497.0</ele><time>2026-05-01T10:45:42Z</time></trkpt><trkpt lat="46.35051336307374" lon="6.478912012938039"><ele>496.25</ele><time>2026-05-01T10:45:43Z</time></trkpt><trkpt lat="46.35066288715539" lon="6.478867493450529"><ele>495.5</ele><time>2026-05-01T10:45:44Z</time></trkpt><trkpt lat="46.35080284371784" lon="6.478819405958976"><ele>494.75</ele><time>2026-05-01T10:45:45Z</time></trkpt><trkpt lat="46.350941116777754" lon="6.478774273545636"><ele>494.0</ele><time>2026-05-01T10:45:46Z</time></trkpt><trkpt lat="46.35107352470873" lon="6.4787328224927885"><ele>492.2</ele><time>2026-05-01T10:45:47Z</time></trkpt><trkpt lat="46.351194977843576" lon="6.4786943178854335"><ele>490.4</ele><time>2026-05-01T10:45:48Z</time></trkpt><trkpt lat="46.35129664445089" lon="6.478662065863494"><ele>488.6</ele><time>2026-05-01T10:45:49Z</time></trkpt><trkpt lat="46.351405279810834" lon="6.478620602045372"><ele>486.8</ele><time>2026-05-01T10:45:50Z</time></trkpt><trkpt lat="46.35150256254689" lon="6.478575467403359"><ele>485.0</ele><time>2026-05-01T10:45:51Z</time></trkpt><trkpt lat="46.35159346653864" lon="6.47852358503898"><ele>484.8333333333333</ele><time>2026-05-01T10:45:52Z</time></trkpt><trkpt lat="46.35166979118005" lon="6.4784765757445095"><ele>484.66666666666663</ele><time>2026-05-01T10:45:53Z</time></trkpt><trkpt lat="46.351731330054655" lon="6.478438422435638"><ele>484.5</ele><time>2026-05-01T10:45:54Z</time></trkpt><trkpt lat="46.35182439334052" lon="6.478379108848487"><ele>484.33333333333337</ele><time>2026-05-01T10:45:56Z</time></trkpt><trkpt lat="46.35187946115215" lon="6.47832148936652"><ele>484.1666666666667</ele><time>2026-05-01T10:45:59Z</time></trkpt><trkpt lat="46.351931573137236" lon="6.47824449789239"><ele>484.0</ele><time>2026-05-01T10:46:10Z</time></trkpt><trkpt lat="46.352039236162824" lon="6.47812465738775"><ele>484.00000000000006</ele><time>2026-05-01T10:46:12Z</time></trkpt><trkpt lat="46.35209675903869" lon="6.478070475803998"><ele>484.0</ele><time>2026-05-01T10:46:13Z</time></trkpt><trkpt lat="46.352151514082756" lon="6.47801880773306"><ele>484.0</ele><time>2026-05-01T10:46:13.999Z</time></trkpt><trkpt lat="46.352209975588906" lon="6.477959970937626"><ele>484.0</ele><time>2026-05-01T10:46:14.999Z</time></trkpt><trkpt lat="46.35226432756132" lon="6.477900882561682"><ele>484.00000000000006</ele><time>2026-05-01T10:46:15.999Z</time></trkpt><trkpt lat="46.35231665442809" lon="6.477845090771854"><ele>484.0</ele><time>2026-05-01T10:46:16.999Z</time></trkpt><trkpt lat="46.35241308575891" lon="6.477750297627084"><ele>483.6</ele><time>2026-05-01T10:46:18.999Z</time></trkpt><trkpt lat="46.3524907492097" lon="6.477674222266271"><ele>483.2</ele><time>2026-05-01T10:46:21Z</time></trkpt><trkpt lat="46.35260475759425" lon="6.477580003711567"><ele>482.80000000000007</ele><time>2026-05-01T10:46:23Z</time></trkpt><trkpt lat="46.35269009306315" lon="6.477520681284876"><ele>482.40000000000003</ele><time>2026-05-01T10:46:24Z</time></trkpt><trkpt lat="46.35277182621285" lon="6.477451729713842"><ele>482.0</ele><time>2026-05-01T10:46:25Z</time></trkpt><trkpt lat="46.352837911803675" lon="6.477353524634859"><ele>482.0</ele><time>2026-05-01T10:46:26Z</time></trkpt><trkpt lat="46.352904311339316" lon="6.477247678562688"><ele>482.00000000000006</ele><time>2026-05-01T10:46:27Z</time></trkpt><trkpt lat="46.35299677209562" lon="6.477180285139525"><ele>482.00000000000006</ele><time>2026-05-01T10:46:28Z</time></trkpt><trkpt lat="46.35310236988187" lon="6.477144913457143"><ele>482.0</ele><time>2026-05-01T10:46:29Z</time></trkpt><trkpt lat="46.35320234042086" lon="6.4771150653003495"><ele>482.0</ele><time>2026-05-01T10:46:30Z</time></trkpt><trkpt lat="46.353299158779755" lon="6.4770880397735535"><ele>481.5714285714286</ele><time>2026-05-01T10:46:31Z</time></trkpt><trkpt lat="46.35332628863225" lon="6.477001457692934"><ele>481.1428571428572</ele><time>2026-05-01T10:46:32Z</time></trkpt><trkpt lat="46.35340147919176" lon="6.477021111369773"><ele>480.7142857142857</ele><time>2026-05-01T10:46:33Z</time></trkpt><trkpt lat="46.353468708114825" lon="6.477078784996721"><ele>480.28571428571433</ele><time>2026-05-01T10:46:34Z</time></trkpt><trkpt lat="46.353536566295496" lon="6.477101664300383"><ele>479.8571428571429</ele><time>2026-05-01T10:46:35Z</time></trkpt><trkpt lat="46.35360116957661" lon="6.477050266375931"><ele>479.42857142857144</ele><time>2026-05-01T10:46:36Z</time></trkpt><trkpt lat="46.35364310559738" lon="6.476961303553035"><ele>479.0</ele><time>2026-05-01T10:46:37Z</time></trkpt><trkpt lat="46.353651850145546" lon="6.476863931610178"><ele>478.99999999999994</ele><time>2026-05-01T10:46:38Z</time></trkpt><trkpt lat="46.353623479406224" lon="6.476772642065524"><ele>479.0</ele><time>2026-05-01T10:46:39Z</time></trkpt><trkpt lat="46.353569242700935" lon="6.476690789786997"><ele>479.0</ele><time>2026-05-01T10:46:40Z</time></trkpt><trkpt lat="46.35348820580142" lon="6.476652181541839"><ele>479.0</ele><time>2026-05-01T10:46:41Z</time></trkpt><trkpt lat="46.353392496555784" lon="6.47663930943842"><ele>478.99999999999994</ele><time>2026-05-01T10:46:42Z</time></trkpt><trkpt lat="46.35330012144019" lon="6.476579261686839"><ele>479.0</ele><time>2026-05-01T10:46:43Z</time></trkpt><trkpt lat="46.35325720363522" lon="6.476456891136281"><ele>479.0</ele><time>2026-05-01T10:46:44Z</time></trkpt><trkpt lat="46.35324398682234" lon="6.476277308929536"><ele>479.0</ele><time>2026-05-01T10:46:45Z</time></trkpt><trkpt lat="46.353253249259474" lon="6.476037267607051"><ele>479.0</ele><time>2026-05-01T10:46:46Z</time></trkpt><trkpt lat="46.35327845669412" lon="6.475747674182484"><ele>478.3333333333333</ele><time>2026-05-01T10:46:47Z</time></trkpt><trkpt lat="46.35330868354731" lon="6.475463075575359"><ele>477.66666666666663</ele><time>2026-05-01T10:46:48Z</time></trkpt><trkpt lat="46.353356319505046" lon="6.475169777488873"><ele>477.0</ele><time>2026-05-01T10:46:49Z</time></trkpt><trkpt lat="46.35341093375345" lon="6.474867621423346"><ele>476.0</ele><time>2026-05-01T10:46:50Z</time></trkpt><trkpt lat="46.35347384240925" lon="6.474569798026672"><ele>475.0</ele><time>2026-05-01T10:46:51Z</time></trkpt><trkpt lat="46.353529745040625" lon="6.474296854355932"><ele>474.0</ele><time>2026-05-01T10:46:52Z</time></trkpt><trkpt lat="46.35358757829293" lon="6.473998406290126"><ele>472.0</ele><time>2026-05-01T10:46:53Z</time></trkpt><trkpt lat="46.35365823749452" lon="6.473678494608968"><ele>470.0</ele><time>2026-05-01T10:46:54Z</time></trkpt><trkpt lat="46.3537354214216" lon="6.473367994112675"><ele>470.0</ele><time>2026-05-01T10:46:55Z</time></trkpt><trkpt lat="46.353827036164915" lon="6.473071211515893"><ele>470.0</ele><time>2026-05-01T10:46:56Z</time></trkpt><trkpt lat="46.353916727962634" lon="6.47278127904618"><ele>470.0</ele><time>2026-05-01T10:46:57Z</time></trkpt><trkpt lat="46.35400751344145" lon="6.472472717146618"><ele>469.0</ele><time>2026-05-01T10:46:58Z</time></trkpt><trkpt lat="46.35409740878712" lon="6.472148974510308"><ele>468.0</ele><time>2026-05-01T10:46:59Z</time></trkpt><trkpt lat="46.354190707225854" lon="6.471791585850905"><ele>465.0</ele><time>2026-05-01T10:47:00Z</time></trkpt><trkpt lat="46.35427854872869" lon="6.4714243772262305"><ele>462.0</ele><time>2026-05-01T10:47:01Z</time></trkpt><trkpt lat="46.35435806911838" lon="6.471041648084392"><ele>462.0</ele><time>2026-05-01T10:47:02Z</time></trkpt><trkpt lat="46.35443082394435" lon="6.470648891679383"><ele>462.0</ele><time>2026-05-01T10:47:03Z</time></trkpt><trkpt lat="46.354493805394775" lon="6.470278927762094"><ele>462.0</ele><time>2026-05-01T10:47:04Z</time></trkpt><trkpt lat="46.35454960370374" lon="6.469919886339067"><ele>462.0</ele><time>2026-05-01T10:47:05Z</time></trkpt><trkpt lat="46.354596122667246" lon="6.469550565181692"><ele>461.0</ele><time>2026-05-01T10:47:06Z</time></trkpt><trkpt lat="46.35463755240868" lon="6.469173740916952"><ele>460.0</ele><time>2026-05-01T10:47:07Z</time></trkpt><trkpt lat="46.35466685432482" lon="6.468793247440544"><ele>460.5</ele><time>2026-05-01T10:47:08Z</time></trkpt><trkpt lat="46.35468704017101" lon="6.468414701280315"><ele>461.0</ele><time>2026-05-01T10:47:09Z</time></trkpt><trkpt lat="46.35469958998351" lon="6.468049039622907"><ele>460.5</ele><time>2026-05-01T10:47:10Z</time></trkpt><trkpt lat="46.35470507232623" lon="6.467679671621964"><ele>460.0</ele><time>2026-05-01T10:47:11Z</time></trkpt><trkpt lat="46.35470408073932" lon="6.467312425280374"><ele>460.0</ele><time>2026-05-01T10:47:12Z</time></trkpt><trkpt lat="46.35469230510252" lon="6.46694744406587"><ele>460.0</ele><time>2026-05-01T10:47:13Z</time></trkpt><trkpt lat="46.35467479391327" lon="6.46657997524649"><ele>460.5</ele><time>2026-05-01T10:47:14Z</time></trkpt><trkpt lat="46.35464403118514" lon="6.466200980222987"><ele>461.0</ele><time>2026-05-01T10:47:15Z</time></trkpt><trkpt lat="46.354605062931086" lon="6.465821451516997"><ele>461.0</ele><time>2026-05-01T10:47:16Z</time></trkpt><trkpt lat="46.354556283052915" lon="6.465432021275403"><ele>461.0</ele><time>2026-05-01T10:47:17Z</time></trkpt><trkpt lat="46.35450393981487" lon="6.465044488282174"><ele>461.0</ele><time>2026-05-01T10:47:18Z</time></trkpt><trkpt lat="46.35444234301891" lon="6.464654423702571"><ele>461.0</ele><time>2026-05-01T10:47:19Z</time></trkpt><trkpt lat="46.35436842795322" lon="6.464265816154374"><ele>461.0</ele><time>2026-05-01T10:47:20Z</time></trkpt><trkpt lat="46.35428375068916" lon="6.463877995112389"><ele>461.0</ele><time>2026-05-01T10:47:21Z</time></trkpt><trkpt lat="46.35418928189389" lon="6.463493135168606"><ele>462.0</ele><time>2026-05-01T10:47:22Z</time></trkpt><trkpt lat="46.35408533179684" lon="6.46311828609965"><ele>463.0</ele><time>2026-05-01T10:47:23Z</time></trkpt><trkpt lat="46.35398168457245" lon="6.462769693979582"><ele>463.0</ele><time>2026-05-01T10:47:24Z</time></trkpt><trkpt lat="46.35387395442262" lon="6.462436540753173"><ele>463.0</ele><time>2026-05-01T10:47:25Z</time></trkpt><trkpt lat="46.353763577869266" lon="6.462121392777713"><ele>460.5</ele><time>2026-05-01T10:47:26Z</time></trkpt><trkpt lat="46.35364336783078" lon="6.461805745354774"><ele>458.0</ele><time>2026-05-01T10:47:27Z</time></trkpt><trkpt lat="46.353515555330375" lon="6.461496280741782"><ele>458.0</ele><time>2026-05-01T10:47:28Z</time></trkpt><trkpt lat="46.353379735734535" lon="6.461188665939157"><ele>458.0</ele><time>2026-05-01T10:47:29Z</time></trkpt><trkpt lat="46.35323859242961" lon="6.460883731883357"><ele>458.0</ele><time>2026-05-01T10:47:30Z</time></trkpt><trkpt lat="46.35309532750039" lon="6.46058526759897"><ele>458.0</ele><time>2026-05-01T10:47:31Z</time></trkpt><trkpt lat="46.35295085830068" lon="6.4603068656642035"><ele>457.5</ele><time>2026-05-01T10:47:32Z</time></trkpt><trkpt lat="46.3527951161386" lon="6.460039399860376"><ele>457.0</ele><time>2026-05-01T10:47:33Z</time></trkpt><trkpt lat="46.352629824540955" lon="6.459766123889262"><ele>458.0</ele><time>2026-05-01T10:47:34Z</time></trkpt><trkpt lat="46.352465910223216" lon="6.459509747861065"><ele>459.0</ele><time>2026-05-01T10:47:35Z</time></trkpt><trkpt lat="46.35230621339548" lon="6.459266606061752"><ele>459.0</ele><time>2026-05-01T10:47:36Z</time></trkpt><trkpt lat="46.35212903370972" lon="6.4590255657351925"><ele>459.0</ele><time>2026-05-01T10:47:37Z</time></trkpt><trkpt lat="46.35193687314839" lon="6.458779985695106"><ele>458.0</ele><time>2026-05-01T10:47:38Z</time></trkpt><trkpt lat="46.35173664035045" lon="6.458534822448373"><ele>457.0</ele><time>2026-05-01T10:47:39Z</time></trkpt><trkpt lat="46.351547811788215" lon="6.458316729314732"><ele>457.0</ele><time>2026-05-01T10:47:40Z</time></trkpt><trkpt lat="46.351364086974975" lon="6.4581122188414675"><ele>457.0</ele><time>2026-05-01T10:47:41Z</time></trkpt><trkpt lat="46.35117635356403" lon="6.4579164281211625"><ele>457.0</ele><time>2026-05-01T10:47:42Z</time></trkpt><trkpt lat="46.35097262419957" lon="6.457718706642217"><ele>457.0</ele><time>2026-05-01T10:47:43Z</time></trkpt><trkpt lat="46.3507518291653" lon="6.457527399309246"><ele>457.5</ele><time>2026-05-01T10:47:44Z</time></trkpt><trkpt lat="46.350527269820454" lon="6.457347288241109"><ele>458.0</ele><time>2026-05-01T10:47:45Z</time></trkpt><trkpt lat="46.350301651858906" lon="6.457168815106827"><ele>457.5</ele><time>2026-05-01T10:47:46Z</time></trkpt><trkpt lat="46.350074226977945" lon="6.456989618315422"><ele>457.0</ele><time>2026-05-01T10:47:47Z</time></trkpt><trkpt lat="46.34984575466647" lon="6.456802761368026"><ele>457.5</ele><time>2026-05-01T10:47:48Z</time></trkpt><trkpt lat="46.34962027460539" lon="6.456598415687556"><ele>458.0</ele><time>2026-05-01T10:47:49Z</time></trkpt><trkpt lat="46.349399882697085" lon="6.456379270079834"><ele>457.5</ele><time>2026-05-01T10:47:50Z</time></trkpt><trkpt lat="46.34919420384033" lon="6.456132693147836"><ele>457.0</ele><time>2026-05-01T10:47:51Z</time></trkpt><trkpt lat="46.34899302636658" lon="6.455864544438833"><ele>456.5</ele><time>2026-05-01T10:47:52Z</time></trkpt><trkpt lat="46.348798449371046" lon="6.455571412184026"><ele>456.0</ele><time>2026-05-01T10:47:53Z</time></trkpt><trkpt lat="46.34860875359919" lon="6.455270830798426"><ele>455.5</ele><time>2026-05-01T10:47:54Z</time></trkpt><trkpt lat="46.348422516565805" lon="6.454984050516684"><ele>455.0</ele><time>2026-05-01T10:47:55Z</time></trkpt><trkpt lat="46.348225668578" lon="6.454705013252554"><ele>449.0</ele><time>2026-05-01T10:47:56Z</time></trkpt><trkpt lat="46.34802101222348" lon="6.454414754322417"><ele>443.0</ele><time>2026-05-01T10:47:57Z</time></trkpt><trkpt lat="46.34780441485328" lon="6.45410123175433"><ele>443.0</ele><time>2026-05-01T10:47:58Z</time></trkpt><trkpt lat="46.34759446308377" lon="6.453789718702547"><ele>443.0</ele><time>2026-05-01T10:47:59Z</time></trkpt><trkpt lat="46.34740669416634" lon="6.453504279318642"><ele>446.5</ele><time>2026-05-01T10:47:59.999Z</time></trkpt><trkpt lat="46.347229867907295" lon="6.45323401433943"><ele>450.0</ele><time>2026-05-01T10:48:00.999Z</time></trkpt><trkpt lat="46.34706845124953" lon="6.452973343750167"><ele>453.5</ele><time>2026-05-01T10:48:01.999Z</time></trkpt><trkpt lat="46.346926132691536" lon="6.452711630361397"><ele>457.0</ele><time>2026-05-01T10:48:02.999Z</time></trkpt><trkpt lat="46.346810373839844" lon="6.452433857180456"><ele>457.0</ele><time>2026-05-01T10:48:03.999Z</time></trkpt><trkpt lat="46.34670612224511" lon="6.452141334411622"><ele>457.0</ele><time>2026-05-01T10:48:04.999Z</time></trkpt><trkpt lat="46.346618157165615" lon="6.451823903488987"><ele>456.0</ele><time>2026-05-01T10:48:05.999Z</time></trkpt><trkpt lat="46.34654313724818" lon="6.451499257445563"><ele>455.0</ele><time>2026-05-01T10:48:06.999Z</time></trkpt><trkpt lat="46.34648847586356" lon="6.451166983431291"><ele>454.5</ele><time>2026-05-01T10:48:07.999Z</time></trkpt><trkpt lat="46.34645174726179" lon="6.450822930376695"><ele>454.0</ele><time>2026-05-01T10:48:08.999Z</time></trkpt><trkpt lat="46.34643591860245" lon="6.450471483935127"><ele>456.5</ele><time>2026-05-01T10:48:09.999Z</time></trkpt><trkpt lat="46.34644512970685" lon="6.4501188093292985"><ele>459.0</ele><time>2026-05-01T10:48:10.999Z</time></trkpt><trkpt lat="46.346477871898415" lon="6.449768159552261"><ele>460.5</ele><time>2026-05-01T10:48:11.999Z</time></trkpt><trkpt lat="46.34652348453383" lon="6.449415046444395"><ele>462.0</ele><time>2026-05-01T10:48:12.999Z</time></trkpt><trkpt lat="46.34659749080252" lon="6.4490674394203"><ele>459.5</ele><time>2026-05-01T10:48:13.999Z</time></trkpt><trkpt lat="46.34669932642446" lon="6.448710505230771"><ele>457.0</ele><time>2026-05-01T10:48:14.999Z</time></trkpt><trkpt lat="46.3468189227573" lon="6.448350045963796"><ele>457.0</ele><time>2026-05-01T10:48:15.999Z</time></trkpt><trkpt lat="46.346961813395055" lon="6.447978292653365"><ele>457.0</ele><time>2026-05-01T10:48:16.999Z</time></trkpt><trkpt lat="46.34709832927837" lon="6.447616862100709"><ele>453.0</ele><time>2026-05-01T10:48:17.999Z</time></trkpt><trkpt lat="46.34723110393355" lon="6.447274689821303"><ele>449.0</ele><time>2026-05-01T10:48:18.999Z</time></trkpt><trkpt lat="46.34735263409906" lon="6.446946886521888"><ele>448.5</ele><time>2026-05-01T10:48:19.999Z</time></trkpt><trkpt lat="46.34747175389536" lon="6.4466289937164145"><ele>448.0</ele><time>2026-05-01T10:48:20.999Z</time></trkpt><trkpt lat="46.34758460863666" lon="6.446325802192615"><ele>449.0</ele><time>2026-05-01T10:48:21.999Z</time></trkpt><trkpt lat="46.34769252131133" lon="6.446040678923338"><ele>450.0</ele><time>2026-05-01T10:48:22.999Z</time></trkpt><trkpt lat="46.347800128699895" lon="6.445751270466265"><ele>449.0</ele><time>2026-05-01T10:48:23.999Z</time></trkpt><trkpt lat="46.347912806006605" lon="6.4454412568983015"><ele>448.0</ele><time>2026-05-01T10:48:24.999Z</time></trkpt><trkpt lat="46.348017121964624" lon="6.445130802589698"><ele>447.0</ele><time>2026-05-01T10:48:26Z</time></trkpt><trkpt lat="46.34811060210723" lon="6.444835107377152"><ele>446.0</ele><time>2026-05-01T10:48:27Z</time></trkpt><trkpt lat="46.3481905882959" lon="6.444525190981462"><ele>446.0</ele><time>2026-05-01T10:48:28Z</time></trkpt><trkpt lat="46.3482580107236" lon="6.4441764847681435"><ele>446.0</ele><time>2026-05-01T10:48:29Z</time></trkpt><trkpt lat="46.34831298387401" lon="6.443823453881314"><ele>446.0</ele><time>2026-05-01T10:48:30Z</time></trkpt><trkpt lat="46.34835129315065" lon="6.443495538992603"><ele>446.0</ele><time>2026-05-01T10:48:31Z</time></trkpt><trkpt lat="46.34836704756999" lon="6.443167266531011"><ele>445.0</ele><time>2026-05-01T10:48:32Z</time></trkpt><trkpt lat="46.3483649478064" lon="6.442825364811803"><ele>444.0</ele><time>2026-05-01T10:48:33Z</time></trkpt><trkpt lat="46.34835008634304" lon="6.4424913799440695"><ele>444.0</ele><time>2026-05-01T10:48:34Z</time></trkpt><trkpt lat="46.34832552568241" lon="6.442170395291444"><ele>444.0</ele><time>2026-05-01T10:48:35Z</time></trkpt><trkpt lat="46.34828629156672" lon="6.441826474011578"><ele>442.0</ele><time>2026-05-01T10:48:36Z</time></trkpt><trkpt lat="46.34823455528951" lon="6.441476531637088"><ele>440.0</ele><time>2026-05-01T10:48:37Z</time></trkpt><trkpt lat="46.34817097829384" lon="6.441115144568514"><ele>439.5</ele><time>2026-05-01T10:48:38Z</time></trkpt><trkpt lat="46.34810983833738" lon="6.440739615035298"><ele>439.0</ele><time>2026-05-01T10:48:39Z</time></trkpt><trkpt lat="46.34804518940613" lon="6.440328561446731"><ele>439.0</ele><time>2026-05-01T10:48:40Z</time></trkpt><trkpt lat="46.34798033571355" lon="6.439900373899228"><ele>439.0</ele><time>2026-05-01T10:48:41Z</time></trkpt><trkpt lat="46.3479222345993" lon="6.439443585249252"><ele>439.0</ele><time>2026-05-01T10:48:42Z</time></trkpt><trkpt lat="46.34786936381412" lon="6.439009682216028"><ele>439.0</ele><time>2026-05-01T10:48:43Z</time></trkpt><trkpt lat="46.34781149342104" lon="6.438606233536805"><ele>439.5</ele><time>2026-05-01T10:48:44Z</time></trkpt><trkpt lat="46.347756508304265" lon="6.438239719301746"><ele>440.0</ele><time>2026-05-01T10:48:45Z</time></trkpt><trkpt lat="46.347702515270946" lon="6.4378694728861445"><ele>440.5</ele><time>2026-05-01T10:48:46Z</time></trkpt><trkpt lat="46.34764435717321" lon="6.437482467104777"><ele>441.0</ele><time>2026-05-01T10:48:47Z</time></trkpt><trkpt lat="46.34759432783408" lon="6.437104612430239"><ele>441.0</ele><time>2026-05-01T10:48:48Z</time></trkpt><trkpt lat="46.34754679406673" lon="6.436756778628409"><ele>441.0</ele><time>2026-05-01T10:48:49Z</time></trkpt><trkpt lat="46.34750072724195" lon="6.436429338875372"><ele>441.0</ele><time>2026-05-01T10:48:50Z</time></trkpt><trkpt lat="46.34745479300396" lon="6.436119932471674"><ele>441.0</ele><time>2026-05-01T10:48:51Z</time></trkpt><trkpt lat="46.347408838503014" lon="6.4358133577344585"><ele>441.0</ele><time>2026-05-01T10:48:52Z</time></trkpt><trkpt lat="46.34736401949028" lon="6.435498940317086"><ele>442.5</ele><time>2026-05-01T10:48:53Z</time></trkpt><trkpt lat="46.34731945574268" lon="6.435182986038582"><ele>444.0</ele><time>2026-05-01T10:48:54Z</time></trkpt><trkpt lat="46.34727284196734" lon="6.4348610859240445"><ele>443.66666666666663</ele><time>2026-05-01T10:48:55Z</time></trkpt><trkpt lat="46.347227300393236" lon="6.4345561908731295"><ele>443.3333333333333</ele><time>2026-05-01T10:48:56Z</time></trkpt><trkpt lat="46.34718460969113" lon="6.4342757354557225"><ele>443.0</ele><time>2026-05-01T10:48:57Z</time></trkpt><trkpt lat="46.34714375057506" lon="6.434001850297402"><ele>444.66666666666663</ele><time>2026-05-01T10:48:58Z</time></trkpt><trkpt lat="46.34710499377853" lon="6.433728182158816"><ele>446.33333333333337</ele><time>2026-05-01T10:48:59Z</time></trkpt><trkpt lat="46.347060888635774" lon="6.433435704413039"><ele>448.0</ele><time>2026-05-01T10:49:00Z</time></trkpt><trkpt lat="46.347018532705356" lon="6.433135653858878"><ele>447.6666666666667</ele><time>2026-05-01T10:49:01Z</time></trkpt><trkpt lat="46.34697511804931" lon="6.432830411854966"><ele>447.33333333333337</ele><time>2026-05-01T10:49:02Z</time></trkpt><trkpt lat="46.346935314217376" lon="6.432528624424704"><ele>447.0</ele><time>2026-05-01T10:49:03Z</time></trkpt><trkpt lat="46.34688881332674" lon="6.432222837870143"><ele>446.33333333333337</ele><time>2026-05-01T10:49:04Z</time></trkpt><trkpt lat="46.34684612221326" lon="6.431938620732599"><ele>445.6666666666667</ele><time>2026-05-01T10:49:05Z</time></trkpt><trkpt lat="46.34681925879418" lon="6.431667233013733"><ele>445.0</ele><time>2026-05-01T10:49:06Z</time></trkpt><trkpt lat="46.34680933979225" lon="6.431398753408637"><ele>445.0</ele><time>2026-05-01T10:49:07Z</time></trkpt><trkpt lat="46.34682312446485" lon="6.431103735406692"><ele>445.0</ele><time>2026-05-01T10:49:08Z</time></trkpt><trkpt lat="46.34686045983849" lon="6.430798718109091"><ele>445.0</ele><time>2026-05-01T10:49:09Z</time></trkpt><trkpt lat="46.34691151754742" lon="6.430504218765707"><ele>445.33333333333337</ele><time>2026-05-01T10:49:10Z</time></trkpt><trkpt lat="46.34697363340799" lon="6.430243148470574"><ele>445.66666666666663</ele><time>2026-05-01T10:49:11Z</time></trkpt><trkpt lat="46.3470499696496" lon="6.430000966177935"><ele>446.0</ele><time>2026-05-01T10:49:12Z</time></trkpt><trkpt lat="46.347145527616114" lon="6.429772231803257"><ele>444.3333333333333</ele><time>2026-05-01T10:49:13Z</time></trkpt><trkpt lat="46.347251797071" lon="6.429544234339771"><ele>442.66666666666663</ele><time>2026-05-01T10:49:14Z</time></trkpt><trkpt lat="46.34736038673084" lon="6.429335953562062"><ele>441.0</ele><time>2026-05-01T10:49:15Z</time></trkpt><trkpt lat="46.347457937954516" lon="6.429136794722216"><ele>441.0</ele><time>2026-05-01T10:49:16Z</time></trkpt><trkpt lat="46.34755460238604" lon="6.428944885442159"><ele>441.0</ele><time>2026-05-01T10:49:17Z</time></trkpt><trkpt lat="46.3476414778092" lon="6.428766585977522"><ele>441.0</ele><time>2026-05-01T10:49:18Z</time></trkpt><trkpt lat="46.34771993070634" lon="6.428604352549789"><ele>440.4</ele><time>2026-05-01T10:49:19Z</time></trkpt><trkpt lat="46.34779154392286" lon="6.428453297043456"><ele>439.8</ele><time>2026-05-01T10:49:20Z</time></trkpt><trkpt lat="46.34786496942796" lon="6.428321791708114"><ele>439.19999999999993</ele><time>2026-05-01T10:49:21Z</time></trkpt><trkpt lat="46.347945320723554" lon="6.428234848867822"><ele>438.59999999999997</ele><time>2026-05-01T10:49:22.001Z</time></trkpt><trkpt lat="46.34803476566775" lon="6.428164900373603"><ele>438.0</ele><time>2026-05-01T10:49:23.001Z</time></trkpt><trkpt lat="46.3481278590432" lon="6.42813419515746"><ele>437.2</ele><time>2026-05-01T10:49:24.001Z</time></trkpt><trkpt lat="46.34820334053359" lon="6.428069776350307"><ele>436.4</ele><time>2026-05-01T10:49:25.001Z</time></trkpt><trkpt lat="46.34824855996587" lon="6.427986179712362"><ele>435.59999999999997</ele><time>2026-05-01T10:49:26.001Z</time></trkpt><trkpt lat="46.34827200839497" lon="6.427857334856481"><ele>434.79999999999995</ele><time>2026-05-01T10:49:27.001Z</time></trkpt><trkpt lat="46.34826776245696" lon="6.427717499534132"><ele>434.0</ele><time>2026-05-01T10:49:28.001Z</time></trkpt><trkpt lat="46.348227564685835" lon="6.427577396860772"><ele>434.0</ele><time>2026-05-01T10:49:29.001Z</time></trkpt><trkpt lat="46.34816780372938" lon="6.427414643224892"><ele>434.0</ele><time>2026-05-01T10:49:30.001Z</time></trkpt><trkpt lat="46.34811844751525" lon="6.427210200570062"><ele>434.0</ele><time>2026-05-01T10:49:31.001Z</time></trkpt><trkpt lat="46.3480749930582" lon="6.426970455239136"><ele>434.0</ele><time>2026-05-01T10:49:32.001Z</time></trkpt><trkpt lat="46.34799698245838" lon="6.426714670047117"><ele>434.0</ele><time>2026-05-01T10:49:33.001Z</time></trkpt><trkpt lat="46.34790177754829" lon="6.426441323991845"><ele>434.0</ele><time>2026-05-01T10:49:34.001Z</time></trkpt><trkpt lat="46.34781315764389" lon="6.4261439918262955"><ele>434.0</ele><time>2026-05-01T10:49:35Z</time></trkpt><trkpt lat="46.34768990552663" lon="6.425821254171536"><ele>433.0</ele><time>2026-05-01T10:49:36Z</time></trkpt><trkpt lat="46.34758104094981" lon="6.4254882457567595"><ele>432.0</ele><time>2026-05-01T10:49:37Z</time></trkpt><trkpt lat="46.34747055612757" lon="6.425148424518723"><ele>430.5</ele><time>2026-05-01T10:49:38Z</time></trkpt><trkpt lat="46.34735574498285" lon="6.424798941639748"><ele>429.0</ele><time>2026-05-01T10:49:39Z</time></trkpt><trkpt lat="46.347239385359295" lon="6.424455987750186"><ele>428.0</ele><time>2026-05-01T10:49:40Z</time></trkpt><trkpt lat="46.34713327020981" lon="6.424144683271265"><ele>427.0</ele><time>2026-05-01T10:49:41Z</time></trkpt><trkpt lat="46.34702711334693" lon="6.42385041015684"><ele>427.5</ele><time>2026-05-01T10:49:42Z</time></trkpt><trkpt lat="46.346918906303344" lon="6.423547322133927"><ele>428.0</ele><time>2026-05-01T10:49:43Z</time></trkpt><trkpt lat="46.346810403636844" lon="6.423243101493989"><ele>427.3333333333333</ele><time>2026-05-01T10:49:44Z</time></trkpt><trkpt lat="46.346710138762404" lon="6.422956726733529"><ele>426.66666666666663</ele><time>2026-05-01T10:49:45Z</time></trkpt><trkpt lat="46.34661096183764" lon="6.422664582611617"><ele>426.0</ele><time>2026-05-01T10:49:46Z</time></trkpt><trkpt lat="46.3465070440371" lon="6.4223704441877745"><ele>426.5</ele><time>2026-05-01T10:49:47Z</time></trkpt><trkpt lat="46.34639510058101" lon="6.422075265759015"><ele>427.0</ele><time>2026-05-01T10:49:48Z</time></trkpt><trkpt lat="46.346278869786104" lon="6.421772159847331"><ele>427.0</ele><time>2026-05-01T10:49:49Z</time></trkpt><trkpt lat="46.34616076131998" lon="6.421459841765353"><ele>427.0</ele><time>2026-05-01T10:49:50Z</time></trkpt><trkpt lat="46.34604092002874" lon="6.421143616637258"><ele>426.0</ele><time>2026-05-01T10:49:51Z</time></trkpt><trkpt lat="46.345922895345225" lon="6.4208284551125265"><ele>425.0</ele><time>2026-05-01T10:49:52Z</time></trkpt><trkpt lat="46.34581034789589" lon="6.420513987221979"><ele>424.0</ele><time>2026-05-01T10:49:53Z</time></trkpt><trkpt lat="46.34570199161648" lon="6.420200841340359"><ele>423.0</ele><time>2026-05-01T10:49:54Z</time></trkpt><trkpt lat="46.34559580016051" lon="6.419896664203697"><ele>423.0</ele><time>2026-05-01T10:49:55Z</time></trkpt><trkpt lat="46.34549251567785" lon="6.419585239284368"><ele>423.0</ele><time>2026-05-01T10:49:56Z</time></trkpt><trkpt lat="46.34538501672169" lon="6.419267495226856"><ele>423.0</ele><time>2026-05-01T10:49:57Z</time></trkpt><trkpt lat="46.345279406152656" lon="6.418936869348671"><ele>423.0</ele><time>2026-05-01T10:49:58Z</time></trkpt><trkpt lat="46.345183802095235" lon="6.418619783197421"><ele>422.66666666666663</ele><time>2026-05-01T10:49:59Z</time></trkpt><trkpt lat="46.345094017999635" lon="6.418315132966729"><ele>422.3333333333333</ele><time>2026-05-01T10:50:00Z</time></trkpt><trkpt lat="46.345012343908714" lon="6.418019402775398"><ele>422.0</ele><time>2026-05-01T10:50:01Z</time></trkpt><trkpt lat="46.34492288829776" lon="6.41770759445082"><ele>421.5</ele><time>2026-05-01T10:50:02Z</time></trkpt><trkpt lat="46.34482352138545" lon="6.417384953184651"><ele>421.0</ele><time>2026-05-01T10:50:03Z</time></trkpt><trkpt lat="46.344724063967405" lon="6.417079783827363"><ele>421.33333333333337</ele><time>2026-05-01T10:50:04Z</time></trkpt><trkpt lat="46.34462685716504" lon="6.416828810348706"><ele>421.66666666666663</ele><time>2026-05-01T10:50:05Z</time></trkpt><trkpt lat="46.34453726078273" lon="6.41656330133922"><ele>422.0</ele><time>2026-05-01T10:50:06Z</time></trkpt><trkpt lat="46.34445084951126" lon="6.416328472305085"><ele>421.66666666666663</ele><time>2026-05-01T10:50:07Z</time></trkpt><trkpt lat="46.34437317297373" lon="6.4161100315294535"><ele>421.33333333333337</ele><time>2026-05-01T10:50:08Z</time></trkpt><trkpt lat="46.34429767187517" lon="6.415898324523953"><ele>421.0</ele><time>2026-05-01T10:50:09Z</time></trkpt><trkpt lat="46.34422520240426" lon="6.415710380606282"><ele>421.0</ele><time>2026-05-01T10:50:10Z</time></trkpt><trkpt lat="46.34413777187479" lon="6.415522430049244"><ele>421.0</ele><time>2026-05-01T10:50:11Z</time></trkpt><trkpt lat="46.34405545330872" lon="6.415306140743215"><ele>421.0</ele><time>2026-05-01T10:50:12Z</time></trkpt><trkpt lat="46.3439745854349" lon="6.415138660049415"><ele>421.20000000000005</ele><time>2026-05-01T10:50:13Z</time></trkpt><trkpt lat="46.34391139159244" lon="6.414989404178087"><ele>421.40000000000003</ele><time>2026-05-01T10:50:14Z</time></trkpt><trkpt lat="46.34384865359726" lon="6.414857767319702"><ele>421.6</ele><time>2026-05-01T10:50:15Z</time></trkpt><trkpt lat="46.34379823094352" lon="6.414755324036383"><ele>421.8</ele><time>2026-05-01T10:50:16Z</time></trkpt><trkpt lat="46.34374831290441" lon="6.414660335938231"><ele>422.0</ele><time>2026-05-01T10:50:17Z</time></trkpt><trkpt lat="46.34371322062013" lon="6.414577568882254"><ele>421.8</ele><time>2026-05-01T10:50:18Z</time></trkpt><trkpt lat="46.34373599577021" lon="6.414420324033896"><ele>421.6</ele><time>2026-05-01T10:50:20Z</time></trkpt><trkpt lat="46.34379744821892" lon="6.414343112866042"><ele>421.40000000000003</ele><time>2026-05-01T10:50:21Z</time></trkpt><trkpt lat="46.34387822039734" lon="6.4142640949536345"><ele>421.20000000000005</ele><time>2026-05-01T10:50:22Z</time></trkpt><trkpt lat="46.34399480054444" lon="6.41417554747815"><ele>421.0</ele><time>2026-05-01T10:50:23Z</time></trkpt><trkpt lat="46.34411518195071" lon="6.414084075071631"><ele>421.0</ele><time>2026-05-01T10:50:24Z</time></trkpt><trkpt lat="46.34422290562915" lon="6.414017345146247"><ele>421.0</ele><time>2026-05-01T10:50:25Z</time></trkpt><trkpt lat="46.34433190358391" lon="6.413930744255004"><ele>421.0</ele><time>2026-05-01T10:50:26Z</time></trkpt><trkpt lat="46.344458140662034" lon="6.41382090183669"><ele>421.0</ele><time>2026-05-01T10:50:27Z</time></trkpt><trkpt lat="46.34458122608418" lon="6.413711747250468"><ele>421.0</ele><time>2026-05-01T10:50:28Z</time></trkpt><trkpt lat="46.34467704390196" lon="6.413603158115212"><ele>421.0</ele><time>2026-05-01T10:50:29Z</time></trkpt><trkpt lat="46.34475613660777" lon="6.413490324208703"><ele>421.0</ele><time>2026-05-01T10:50:30Z</time></trkpt><trkpt lat="46.34483254593801" lon="6.413369494919672"><ele>421.0</ele><time>2026-05-01T10:50:31.001Z</time></trkpt><trkpt lat="46.344911357714395" lon="6.413227416004852"><ele>421.0</ele><time>2026-05-01T10:50:32.001Z</time></trkpt><trkpt lat="46.344976305202685" lon="6.413098687520681"><ele>421.0</ele><time>2026-05-01T10:50:33.001Z</time></trkpt><trkpt lat="46.34502528406672" lon="6.412965811763546"><ele>421.0</ele><time>2026-05-01T10:50:34.001Z</time></trkpt><trkpt lat="46.34507108029671" lon="6.412832894346795"><ele>421.0</ele><time>2026-05-01T10:50:35.001Z</time></trkpt><trkpt lat="46.34510676703888" lon="6.412711420300838"><ele>421.0</ele><time>2026-05-01T10:50:36.001Z</time></trkpt><trkpt lat="46.34514434961481" lon="6.41258951493982"><ele>420.6</ele><time>2026-05-01T10:50:37.001Z</time></trkpt><trkpt lat="46.34518929049416" lon="6.412461522003402"><ele>420.20000000000005</ele><time>2026-05-01T10:50:38.001Z</time></trkpt><trkpt lat="46.34523456739204" lon="6.412343333052332"><ele>419.79999999999995</ele><time>2026-05-01T10:50:39.001Z</time></trkpt><trkpt lat="46.345278805804995" lon="6.412206956690202"><ele>419.4</ele><time>2026-05-01T10:50:40.001Z</time></trkpt><trkpt lat="46.345323780047956" lon="6.41206244218821"><ele>419.0</ele><time>2026-05-01T10:50:41.001Z</time></trkpt><trkpt lat="46.34537385734667" lon="6.411924080385975"><ele>418.79999999999995</ele><time>2026-05-01T10:50:42.001Z</time></trkpt><trkpt lat="46.34542798036225" lon="6.411778695295791"><ele>418.59999999999997</ele><time>2026-05-01T10:50:43.001Z</time></trkpt><trkpt lat="46.345477189012264" lon="6.411621955721458"><ele>418.4</ele><time>2026-05-01T10:50:44.001Z</time></trkpt><trkpt lat="46.34552408989519" lon="6.411487299506889"><ele>418.2</ele><time>2026-05-01T10:50:45.001Z</time></trkpt><trkpt lat="46.34559011447472" lon="6.41136930474545"><ele>418.0</ele><time>2026-05-01T10:50:46.001Z</time></trkpt><trkpt lat="46.345644318833514" lon="6.411246916878364"><ele>417.25</ele><time>2026-05-01T10:50:47.001Z</time></trkpt><trkpt lat="46.34568731768275" lon="6.41111159427285"><ele>416.5</ele><time>2026-05-01T10:50:48.001Z</time></trkpt><trkpt lat="46.345753170534735" lon="6.410970157585616"><ele>415.75</ele><time>2026-05-01T10:50:49.001Z</time></trkpt><trkpt lat="46.345825847179256" lon="6.41080264610452"><ele>415.0</ele><time>2026-05-01T10:50:50.001Z</time></trkpt><trkpt lat="46.345904504941096" lon="6.410635287869941"><ele>414.4</ele><time>2026-05-01T10:50:51.001Z</time></trkpt><trkpt lat="46.34598416441023" lon="6.41048646535816"><ele>413.8</ele><time>2026-05-01T10:50:52.001Z</time></trkpt><trkpt lat="46.34606302116351" lon="6.4103697397388"><ele>413.20000000000005</ele><time>2026-05-01T10:50:53.001Z</time></trkpt><trkpt lat="46.34614549258829" lon="6.4102750603488925"><ele>412.6</ele><time>2026-05-01T10:50:54.001Z</time></trkpt><trkpt lat="46.34622932921224" lon="6.410205575916561"><ele>412.0</ele><time>2026-05-01T10:50:55.001Z</time></trkpt><trkpt lat="46.34631032171396" lon="6.410139057339496"><ele>412.00000000000006</ele><time>2026-05-01T10:50:56.001Z</time></trkpt><trkpt lat="46.346374528489065" lon="6.410083961549466"><ele>412.0</ele><time>2026-05-01T10:50:57.001Z</time></trkpt><trkpt lat="46.3464374369336" lon="6.410035232638069"><ele>412.0</ele><time>2026-05-01T10:50:58.001Z</time></trkpt><trkpt lat="46.346497570798306" lon="6.409986892969645"><ele>412.0</ele><time>2026-05-01T10:50:59.001Z</time></trkpt><trkpt lat="46.34656109538574" lon="6.409943404802388"><ele>412.00000000000006</ele><time>2026-05-01T10:51:00.001Z</time></trkpt><trkpt lat="46.346666293057254" lon="6.409866727530595"><ele>412.0</ele><time>2026-05-01T10:51:02.001Z</time></trkpt><trkpt lat="46.34676885857477" lon="6.409829703209612"><ele>412.33333333333337</ele><time>2026-05-01T10:51:04.001Z</time></trkpt><trkpt lat="46.346836912644676" lon="6.4098219935460525"><ele>412.6666666666667</ele><time>2026-05-01T10:51:05.001Z</time></trkpt><trkpt lat="46.34691148549644" lon="6.409817752199938"><ele>413.0</ele><time>2026-05-01T10:51:06.001Z</time></trkpt><trkpt lat="46.34697872520311" lon="6.4098055762034845"><ele>413.33333333333337</ele><time>2026-05-01T10:51:07.001Z</time></trkpt><trkpt lat="46.34710570515887" lon="6.409778859630852"><ele>413.6666666666667</ele><time>2026-05-01T10:51:09.001Z</time></trkpt><trkpt lat="46.347168155384" lon="6.409757245205922"><ele>414.0</ele><time>2026-05-01T10:51:10.001Z</time></trkpt><trkpt lat="46.347240634522436" lon="6.409719134268429"><ele>414.0</ele><time>2026-05-01T10:51:11.001Z</time></trkpt><trkpt lat="46.347306772577284" lon="6.409678427272663"><ele>414.0</ele><time>2026-05-01T10:51:12.001Z</time></trkpt><trkpt lat="46.34738297323389" lon="6.409615164126729"><ele>414.0</ele><time>2026-05-01T10:51:13.001Z</time></trkpt><trkpt lat="46.34745952915194" lon="6.409548120185871"><ele>414.0</ele><time>2026-05-01T10:51:14.001Z</time></trkpt><trkpt lat="46.34752925191545" lon="6.4094872093330215"><ele>414.0</ele><time>2026-05-01T10:51:15.001Z</time></trkpt><trkpt lat="46.3475978552424" lon="6.409426700085838"><ele>414.0</ele><time>2026-05-01T10:51:16.001Z</time></trkpt><trkpt lat="46.347664858468825" lon="6.409362100386476"><ele>413.4</ele><time>2026-05-01T10:51:17.001Z</time></trkpt><trkpt lat="46.34773471550037" lon="6.409284094388526"><ele>412.79999999999995</ele><time>2026-05-01T10:51:18.001Z</time></trkpt><trkpt lat="46.347818493273934" lon="6.409199261785385"><ele>412.20000000000005</ele><time>2026-05-01T10:51:19.001Z</time></trkpt><trkpt lat="46.34789696597811" lon="6.409118494168478"><ele>411.6</ele><time>2026-05-01T10:51:20.001Z</time></trkpt><trkpt lat="46.34797227956569" lon="6.409050239180363"><ele>411.0</ele><time>2026-05-01T10:51:21Z</time></trkpt><trkpt lat="46.34805073313933" lon="6.4089655990786065"><ele>410.25</ele><time>2026-05-01T10:51:22Z</time></trkpt><trkpt lat="46.34813813523233" lon="6.408874114968472"><ele>409.5</ele><time>2026-05-01T10:51:23Z</time></trkpt><trkpt lat="46.34823258154559" lon="6.408773169730555"><ele>408.75</ele><time>2026-05-01T10:51:24Z</time></trkpt><trkpt lat="46.348319590287815" lon="6.408686938707003"><ele>408.0</ele><time>2026-05-01T10:51:25Z</time></trkpt><trkpt lat="46.3484283545399" lon="6.408577396293177"><ele>407.5</ele><time>2026-05-01T10:51:26Z</time></trkpt><trkpt lat="46.34854574321235" lon="6.408461751195977"><ele>407.0</ele><time>2026-05-01T10:51:27Z</time></trkpt><trkpt lat="46.34864939844216" lon="6.408386985185681"><ele>406.5</ele><time>2026-05-01T10:51:28Z</time></trkpt><trkpt lat="46.34873644991937" lon="6.40828734166072"><ele>406.0</ele><time>2026-05-01T10:51:29Z</time></trkpt><trkpt lat="46.348828393594694" lon="6.408197503435474"><ele>405.8</ele><time>2026-05-01T10:51:30Z</time></trkpt><trkpt lat="46.348912742148684" lon="6.4081151777872405"><ele>405.6</ele><time>2026-05-01T10:51:31Z</time></trkpt><trkpt lat="46.34900665395523" lon="6.408024219973982"><ele>405.4</ele><time>2026-05-01T10:51:32Z</time></trkpt><trkpt lat="46.34910709829042" lon="6.4079262745325325"><ele>405.2</ele><time>2026-05-01T10:51:33Z</time></trkpt><trkpt lat="46.349187948531835" lon="6.407836424230616"><ele>405.0</ele><time>2026-05-01T10:51:34Z</time></trkpt><trkpt lat="46.34926674023693" lon="6.407749151222466"><ele>404.8333333333333</ele><time>2026-05-01T10:51:35Z</time></trkpt><trkpt lat="46.349340198075865" lon="6.407670831189231"><ele>404.66666666666663</ele><time>2026-05-01T10:51:36Z</time></trkpt><trkpt lat="46.34939888965563" lon="6.4075947398137725"><ele>404.5</ele><time>2026-05-01T10:51:37Z</time></trkpt><trkpt lat="46.34946207346278" lon="6.407523121328158"><ele>404.3333333333333</ele><time>2026-05-01T10:51:38Z</time></trkpt><trkpt lat="46.34952719096753" lon="6.407453405560398"><ele>404.16666666666663</ele><time>2026-05-01T10:51:39Z</time></trkpt><trkpt lat="46.34958388674234" lon="6.4073910671775955"><ele>404.0</ele><time>2026-05-01T10:51:40Z</time></trkpt><trkpt lat="46.34965919172513" lon="6.407299456305657"><ele>403.6</ele><time>2026-05-01T10:51:41Z</time></trkpt><trkpt lat="46.34973864712188" lon="6.407204574424444"><ele>403.2</ele><time>2026-05-01T10:51:42Z</time></trkpt><trkpt lat="46.34981908688861" lon="6.407120942329635"><ele>402.8</ele><time>2026-05-01T10:51:43Z</time></trkpt><trkpt lat="46.349892513362086" lon="6.407036758535181"><ele>402.40000000000003</ele><time>2026-05-01T10:51:44Z</time></trkpt><trkpt lat="46.34996176325938" lon="6.406949291734154"><ele>402.0</ele><time>2026-05-01T10:51:45Z</time></trkpt><trkpt lat="46.35002468167405" lon="6.4068617240151635"><ele>401.6</ele><time>2026-05-01T10:51:46Z</time></trkpt><trkpt lat="46.35008718234563" lon="6.406780111593943"><ele>401.20000000000005</ele><time>2026-05-01T10:51:47Z</time></trkpt><trkpt lat="46.35015265643762" lon="6.406696504651394"><ele>400.8</ele><time>2026-05-01T10:51:48Z</time></trkpt><trkpt lat="46.35022381948677" lon="6.406608966593111"><ele>400.4</ele><time>2026-05-01T10:51:49Z</time></trkpt><trkpt lat="46.350295775910126" lon="6.4065200274533245"><ele>400.0</ele><time>2026-05-01T10:51:50Z</time></trkpt><trkpt lat="46.35037243543738" lon="6.4064248235068995"><ele>400.0</ele><time>2026-05-01T10:51:51Z</time></trkpt><trkpt lat="46.35045111899952" lon="6.406330010514028"><ele>400.0</ele><time>2026-05-01T10:51:52Z</time></trkpt><trkpt lat="46.35052780805069" lon="6.406229737303211"><ele>400.0</ele><time>2026-05-01T10:51:53Z</time></trkpt><trkpt lat="46.35060481909941" lon="6.406140048895827"><ele>400.0</ele><time>2026-05-01T10:51:54Z</time></trkpt><trkpt lat="46.35067040489663" lon="6.406046976771914"><ele>400.0</ele><time>2026-05-01T10:51:55Z</time></trkpt><trkpt lat="46.350729126571345" lon="6.405934647445108"><ele>397.6</ele><time>2026-05-01T10:51:56Z</time></trkpt><trkpt lat="46.35078142850017" lon="6.405807627718146"><ele>395.2</ele><time>2026-05-01T10:51:57Z</time></trkpt><trkpt lat="46.35082468038095" lon="6.4056822908510815"><ele>392.79999999999995</ele><time>2026-05-01T10:51:58Z</time></trkpt><trkpt lat="46.35086043003566" lon="6.405551304458417"><ele>390.4</ele><time>2026-05-01T10:51:59Z</time></trkpt><trkpt lat="46.35089471915404" lon="6.405422138750981"><ele>388.0</ele><time>2026-05-01T10:52:00Z</time></trkpt><trkpt lat="46.35093371211091" lon="6.405274215114967"><ele>386.50000000000006</ele><time>2026-05-01T10:52:01Z</time></trkpt><trkpt lat="46.35096926628776" lon="6.405150554152355"><ele>385.0</ele><time>2026-05-01T10:52:02Z</time></trkpt><trkpt lat="46.35100203321832" lon="6.405059700639263"><ele>383.5</ele><time>2026-05-01T10:52:03Z</time></trkpt><trkpt lat="46.3510541009809" lon="6.404939164898959"><ele>382.0</ele><time>2026-05-01T10:52:05Z</time></trkpt><trkpt lat="46.351088503959176" lon="6.404846850913148"><ele>380.5</ele><time>2026-05-01T10:52:07Z</time></trkpt><trkpt lat="46.351139353214755" lon="6.404743236525266"><ele>379.0</ele><time>2026-05-01T10:52:09Z</time></trkpt><trkpt lat="46.35117085293786" lon="6.404620616492487"><ele>378.2</ele><time>2026-05-01T10:52:11Z</time></trkpt><trkpt lat="46.3511189992692" lon="6.4045090176178245"><ele>377.4</ele><time>2026-05-01T10:52:13Z</time></trkpt><trkpt lat="46.35102279866782" lon="6.404377136718561"><ele>376.6</ele><time>2026-05-01T10:52:15Z</time></trkpt><trkpt lat="46.3509793855691" lon="6.404303535510845"><ele>375.8</ele><time>2026-05-01T10:52:16Z</time></trkpt><trkpt lat="46.35091212833528" lon="6.404184151227186"><ele>375.0</ele><time>2026-05-01T10:52:18Z</time></trkpt><trkpt lat="46.350852122254835" lon="6.404093006056312"><ele>375.0</ele><time>2026-05-01T10:52:20Z</time></trkpt><trkpt lat="46.350796180967755" lon="6.404008797502124"><ele>375.0</ele><time>2026-05-01T10:52:23Z</time></trkpt><trkpt lat="46.35074093838936" lon="6.403927713016891"><ele>375.0</ele><time>2026-05-01T10:52:26Z</time></trkpt><trkpt lat="46.350745672395206" lon="6.403819229618386"><ele>372.0</ele><time>2026-05-01T10:53:28Z</time></trkpt></trkseg><trkseg><trkpt lat="46.350653329116774" lon="6.403673055790835"><ele>372.0</ele><time>2026-05-01T11:58:27.704Z</time></trkpt><trkpt lat="46.35069189618409" lon="6.403913100772731"><ele>372.0</ele><time>2026-05-01T11:58:38.972Z</time></trkpt><trkpt lat="46.35069028782576" lon="6.403819456932313"><ele>372.0</ele><time>2026-05-01T11:59:11.997Z</time></trkpt><trkpt lat="46.3506484997559" lon="6.4037412272081315"><ele>372.0</ele><time>2026-05-01T11:59:13.998Z</time></trkpt><trkpt lat="46.350580202373116" lon="6.403694011989109"><ele>372.0</ele><time>2026-05-01T11:59:26.999Z</time></trkpt><trkpt lat="46.35056291122021" lon="6.403557081998709"><ele>373.6</ele><time>2026-05-01T12:00:49Z</time></trkpt><trkpt lat="46.35050568544049" lon="6.403410451037152"><ele>375.20000000000005</ele><time>2026-05-01T12:00:51Z</time></trkpt><trkpt lat="46.35048490854238" lon="6.40332147535307"><ele>376.8</ele><time>2026-05-01T12:00:52Z</time></trkpt><trkpt lat="46.3504516195613" lon="6.403230814889995"><ele>378.4</ele><time>2026-05-01T12:00:53Z</time></trkpt><trkpt lat="46.350362119277335" lon="6.403128881226772"><ele>380.0</ele><time>2026-05-01T12:00:55Z</time></trkpt><trkpt lat="46.350244609833325" lon="6.403134051301371"><ele>380.0</ele><time>2026-05-01T12:00:57Z</time></trkpt><trkpt lat="46.35015808109638" lon="6.403179055670582"><ele>380.0</ele><time>2026-05-01T12:00:58Z</time></trkpt><trkpt lat="46.350072098124386" lon="6.403222839762543"><ele>380.0</ele><time>2026-05-01T12:00:59Z</time></trkpt><trkpt lat="46.349991061096844" lon="6.4032475926396435"><ele>380.0</ele><time>2026-05-01T12:01:00Z</time></trkpt><trkpt lat="46.349913510084626" lon="6.403255923711044"><ele>380.0</ele><time>2026-05-01T12:01:01Z</time></trkpt><trkpt lat="46.34984391773183" lon="6.4032366930135005"><ele>380.0</ele><time>2026-05-01T12:01:02Z</time></trkpt><trkpt lat="46.3497507397231" lon="6.403144018253254"><ele>380.25</ele><time>2026-05-01T12:01:04Z</time></trkpt><trkpt lat="46.349665571014654" lon="6.403031471787387"><ele>380.5</ele><time>2026-05-01T12:01:06Z</time></trkpt><trkpt lat="46.34957578989294" lon="6.402946917919322"><ele>380.75</ele><time>2026-05-01T12:01:08Z</time></trkpt><trkpt lat="46.34947540960475" lon="6.4028431565490616"><ele>381.0</ele><time>2026-05-01T12:01:09.999Z</time></trkpt><trkpt lat="46.34936742471478" lon="6.40282992933369"><ele>381.0</ele><time>2026-05-01T12:01:11.999Z</time></trkpt><trkpt lat="46.349328171592255" lon="6.402942611817683"><ele>381.0</ele><time>2026-05-01T12:01:13.999Z</time></trkpt><trkpt lat="46.34933312472801" lon="6.4030342920067085"><ele>381.0</ele><time>2026-05-01T12:01:14.999Z</time></trkpt><trkpt lat="46.34933274504537" lon="6.403158522129019"><ele>381.0</ele><time>2026-05-01T12:01:15.999Z</time></trkpt><trkpt lat="46.349284301764115" lon="6.403270955819419"><ele>381.0</ele><time>2026-05-01T12:01:16.999Z</time></trkpt><trkpt lat="46.34922557466101" lon="6.403391840547916"><ele>381.0</ele><time>2026-05-01T12:01:17.999Z</time></trkpt><trkpt lat="46.349161712982315" lon="6.403561409988049"><ele>381.0</ele><time>2026-05-01T12:01:18.999Z</time></trkpt><trkpt lat="46.34908991674567" lon="6.403706693176826"><ele>381.0</ele><time>2026-05-01T12:01:19.999Z</time></trkpt><trkpt lat="46.34902606541109" lon="6.403843967918356"><ele>381.0</ele><time>2026-05-01T12:01:20.999Z</time></trkpt><trkpt lat="46.348964294945304" lon="6.403980383546106"><ele>381.0</ele><time>2026-05-01T12:01:21.999Z</time></trkpt><trkpt lat="46.34891700967125" lon="6.404075415343612"><ele>381.0</ele><time>2026-05-01T12:01:22.999Z</time></trkpt><trkpt lat="46.3488657693512" lon="6.404174061262343"><ele>381.4</ele><time>2026-05-01T12:01:23.999Z</time></trkpt><trkpt lat="46.34883164022093" lon="6.40425164081204"><ele>381.8</ele><time>2026-05-01T12:01:24.999Z</time></trkpt><trkpt lat="46.34878243154915" lon="6.404384525056959"><ele>382.2</ele><time>2026-05-01T12:01:26.999Z</time></trkpt><trkpt lat="46.34873631336966" lon="6.404499917325199"><ele>382.59999999999997</ele><time>2026-05-01T12:01:28.999Z</time></trkpt><trkpt lat="46.34868744164163" lon="6.404624758303248"><ele>383.0</ele><time>2026-05-01T12:01:30.999Z</time></trkpt><trkpt lat="46.34860334898884" lon="6.404840392425669"><ele>384.2</ele><time>2026-05-01T12:01:33.999Z</time></trkpt><trkpt lat="46.348550507900846" lon="6.404972515573906"><ele>385.4</ele><time>2026-05-01T12:01:35.999Z</time></trkpt><trkpt lat="46.34849808773305" lon="6.405101405962401"><ele>386.59999999999997</ele><time>2026-05-01T12:01:37.999Z</time></trkpt><trkpt lat="46.348441374212456" lon="6.405247462437801"><ele>387.79999999999995</ele><time>2026-05-01T12:01:39.999Z</time></trkpt><trkpt lat="46.34840451165113" lon="6.405346970419172"><ele>389.0</ele><time>2026-05-01T12:01:40.999Z</time></trkpt><trkpt lat="46.348355252716175" lon="6.405473676277332"><ele>390.2</ele><time>2026-05-01T12:01:41.999Z</time></trkpt><trkpt lat="46.348317045629315" lon="6.405600473827841"><ele>391.4</ele><time>2026-05-01T12:01:42.999Z</time></trkpt><trkpt lat="46.34831463810525" lon="6.405751454330225"><ele>392.6</ele><time>2026-05-01T12:01:43.999Z</time></trkpt><trkpt lat="46.348338068398256" lon="6.405882963985222"><ele>393.8</ele><time>2026-05-01T12:01:44.999Z</time></trkpt><trkpt lat="46.34838703390585" lon="6.4059858086516"><ele>395.0</ele><time>2026-05-01T12:01:45.999Z</time></trkpt><trkpt lat="46.348456127626065" lon="6.406072982292562"><ele>395.0</ele><time>2026-05-01T12:01:46.999Z</time></trkpt><trkpt lat="46.34853837526266" lon="6.406176529969443"><ele>395.0</ele><time>2026-05-01T12:01:47.999Z</time></trkpt><trkpt lat="46.348624168382585" lon="6.406297758487479"><ele>395.0</ele><time>2026-05-01T12:01:48.999Z</time></trkpt><trkpt lat="46.34871666408965" lon="6.406435746397375"><ele>395.0</ele><time>2026-05-01T12:01:49.999Z</time></trkpt><trkpt lat="46.348813213669295" lon="6.40658018885062"><ele>396.75</ele><time>2026-05-01T12:01:50.999Z</time></trkpt><trkpt lat="46.34890965191934" lon="6.406726349378827"><ele>398.5</ele><time>2026-05-01T12:01:51.999Z</time></trkpt><trkpt lat="46.34899170139089" lon="6.406850715218619"><ele>400.25</ele><time>2026-05-01T12:01:52.999Z</time></trkpt><trkpt lat="46.34907672008325" lon="6.406977717068851"><ele>402.0</ele><time>2026-05-01T12:01:53.999Z</time></trkpt><trkpt lat="46.34915942869887" lon="6.407107177119828"><ele>402.3333333333333</ele><time>2026-05-01T12:01:54.999Z</time></trkpt><trkpt lat="46.34922782355229" lon="6.407209945510536"><ele>402.66666666666663</ele><time>2026-05-01T12:01:55.999Z</time></trkpt><trkpt lat="46.34928205982287" lon="6.4072915807766915"><ele>403.0</ele><time>2026-05-01T12:01:56.999Z</time></trkpt><trkpt lat="46.34934460071345" lon="6.407396087105851"><ele>403.3333333333333</ele><time>2026-05-01T12:01:58.999Z</time></trkpt><trkpt lat="46.34938583160825" lon="6.40748521578102"><ele>403.66666666666663</ele><time>2026-05-01T12:02:01.999Z</time></trkpt><trkpt lat="46.349352648795474" lon="6.407611952789579"><ele>404.0</ele><time>2026-05-01T12:02:04.999Z</time></trkpt><trkpt lat="46.349302040375775" lon="6.407672381745673"><ele>404.0</ele><time>2026-05-01T12:02:05.999Z</time></trkpt><trkpt lat="46.34922927900363" lon="6.407756415332524"><ele>404.0</ele><time>2026-05-01T12:02:06.999Z</time></trkpt><trkpt lat="46.34913920751313" lon="6.407851822216998"><ele>404.0</ele><time>2026-05-01T12:02:07.999Z</time></trkpt><trkpt lat="46.3490437071251" lon="6.40794723648797"><ele>404.0</ele><time>2026-05-01T12:02:08.999Z</time></trkpt><trkpt lat="46.348928725136204" lon="6.408061369408191"><ele>404.66666666666663</ele><time>2026-05-01T12:02:09.999Z</time></trkpt><trkpt lat="46.34881266340782" lon="6.408199481505476"><ele>405.33333333333337</ele><time>2026-05-01T12:02:10.999Z</time></trkpt><trkpt lat="46.348669857763255" lon="6.408330507504004"><ele>406.0</ele><time>2026-05-01T12:02:11.999Z</time></trkpt><trkpt lat="46.34851701913384" lon="6.4084759187627895"><ele>406.0</ele><time>2026-05-01T12:02:12.999Z</time></trkpt><trkpt lat="46.34836706424762" lon="6.408617125675635"><ele>406.0</ele><time>2026-05-01T12:02:13.999Z</time></trkpt><trkpt lat="46.34823939869467" lon="6.408755481404561"><ele>406.0</ele><time>2026-05-01T12:02:14.999Z</time></trkpt><trkpt lat="46.348131751317595" lon="6.408866494402751"><ele>407.25</ele><time>2026-05-01T12:02:15.999Z</time></trkpt><trkpt lat="46.34803593465457" lon="6.408960365136095"><ele>408.5</ele><time>2026-05-01T12:02:16.999Z</time></trkpt><trkpt lat="46.34792835397597" lon="6.409065881981275"><ele>409.75</ele><time>2026-05-01T12:02:17.999Z</time></trkpt><trkpt lat="46.34781247009027" lon="6.409166289086688"><ele>411.0</ele><time>2026-05-01T12:02:18.999Z</time></trkpt><trkpt lat="46.34771454436676" lon="6.409291179103641"><ele>411.0</ele><time>2026-05-01T12:02:19.999Z</time></trkpt><trkpt lat="46.34761275780582" lon="6.409383169215235"><ele>411.0</ele><time>2026-05-01T12:02:20.999Z</time></trkpt><trkpt lat="46.34751669565106" lon="6.409479502089946"><ele>411.0</ele><time>2026-05-01T12:02:21.999Z</time></trkpt><trkpt lat="46.347431775725454" lon="6.409560078899187"><ele>411.0</ele><time>2026-05-01T12:02:22.999Z</time></trkpt><trkpt lat="46.34735196651365" lon="6.409626413469106"><ele>411.0</ele><time>2026-05-01T12:02:23.999Z</time></trkpt><trkpt lat="46.34727649659455" lon="6.409653644597566"><ele>411.6</ele><time>2026-05-01T12:02:24.999Z</time></trkpt><trkpt lat="46.347205209625685" lon="6.409721625563452"><ele>412.20000000000005</ele><time>2026-05-01T12:02:25.999Z</time></trkpt><trkpt lat="46.34707628072017" lon="6.409765573634562"><ele>412.79999999999995</ele><time>2026-05-01T12:02:27.999Z</time></trkpt><trkpt lat="46.34698349864323" lon="6.409774321713807"><ele>413.4</ele><time>2026-05-01T12:02:28.999Z</time></trkpt><trkpt lat="46.3468836628067" lon="6.40978499419011"><ele>414.0</ele><time>2026-05-01T12:02:29.999Z</time></trkpt><trkpt lat="46.34679229953257" lon="6.409801010416967"><ele>414.0</ele><time>2026-05-01T12:02:30.999Z</time></trkpt><trkpt lat="46.34670663798533" lon="6.409816027128078"><ele>414.0</ele><time>2026-05-01T12:02:31.999Z</time></trkpt><trkpt lat="46.34661641337765" lon="6.409855597361529"><ele>414.0</ele><time>2026-05-01T12:02:32.999Z</time></trkpt><trkpt lat="46.34653504196175" lon="6.409944502033718"><ele>414.0</ele><time>2026-05-01T12:02:33.999Z</time></trkpt><trkpt lat="46.34643619525431" lon="6.4100220543973485"><ele>414.0</ele><time>2026-05-01T12:02:34.999Z</time></trkpt><trkpt lat="46.346326061709526" lon="6.410110251379522"><ele>414.25</ele><time>2026-05-01T12:02:35.999Z</time></trkpt><trkpt lat="46.34621488882661" lon="6.4102003301452655"><ele>414.5</ele><time>2026-05-01T12:02:36.999Z</time></trkpt><trkpt lat="46.346106507045754" lon="6.410296830355454"><ele>414.75</ele><time>2026-05-01T12:02:37.999Z</time></trkpt><trkpt lat="46.3460134417255" lon="6.410408600453472"><ele>415.0</ele><time>2026-05-01T12:02:38.999Z</time></trkpt><trkpt lat="46.345927300228176" lon="6.410542755579632"><ele>415.0</ele><time>2026-05-01T12:02:39.999Z</time></trkpt><trkpt lat="46.34584029746557" lon="6.410710059765744"><ele>415.0</ele><time>2026-05-01T12:02:40.999Z</time></trkpt><trkpt lat="46.34576185513243" lon="6.410896231505814"><ele>415.0</ele><time>2026-05-01T12:02:41.999Z</time></trkpt><trkpt lat="46.345681475645684" lon="6.4110805893722995"><ele>415.0</ele><time>2026-05-01T12:02:42.999Z</time></trkpt><trkpt lat="46.34560876674929" lon="6.4112376353103"><ele>415.5</ele><time>2026-05-01T12:02:43.999Z</time></trkpt><trkpt lat="46.34555067544123" lon="6.4113811152838815"><ele>416.0</ele><time>2026-05-01T12:02:44.999Z</time></trkpt><trkpt lat="46.34548902445431" lon="6.4115204904188685"><ele>416.5</ele><time>2026-05-01T12:02:45.999Z</time></trkpt><trkpt lat="46.34542206365926" lon="6.4116940056292995"><ele>417.0</ele><time>2026-05-01T12:02:46.999Z</time></trkpt><trkpt lat="46.3453628228391" lon="6.411886560003024"><ele>417.33333333333337</ele><time>2026-05-01T12:02:47.999Z</time></trkpt><trkpt lat="46.34530440029655" lon="6.412078906327269"><ele>417.6666666666667</ele><time>2026-05-01T12:02:48.999Z</time></trkpt><trkpt lat="46.34523464974476" lon="6.412287266168426"><ele>418.0</ele><time>2026-05-01T12:02:49.999Z</time></trkpt><trkpt lat="46.345169976471496" lon="6.412479431214088"><ele>418.2</ele><time>2026-05-01T12:02:50.999Z</time></trkpt><trkpt lat="46.34511263756999" lon="6.412640565937011"><ele>418.4</ele><time>2026-05-01T12:02:51.999Z</time></trkpt><trkpt lat="46.34506646027793" lon="6.41278267178929"><ele>418.59999999999997</ele><time>2026-05-01T12:02:52.999Z</time></trkpt><trkpt lat="46.34501988081555" lon="6.4129075866007526"><ele>418.79999999999995</ele><time>2026-05-01T12:02:53.999Z</time></trkpt><trkpt lat="46.3449776705059" lon="6.413020009305236"><ele>419.0</ele><time>2026-05-01T12:02:54.999Z</time></trkpt><trkpt lat="46.34492493778319" lon="6.41315886457916"><ele>419.5</ele><time>2026-05-01T12:02:55.999Z</time></trkpt><trkpt lat="46.34479520053598" lon="6.413400723371495"><ele>420.0</ele><time>2026-05-01T12:02:57.999Z</time></trkpt><trkpt lat="46.34473401336005" lon="6.413488229801405"><ele>420.5</ele><time>2026-05-01T12:02:58.999Z</time></trkpt><trkpt lat="46.34467464003288" lon="6.413565229876279"><ele>421.0</ele><time>2026-05-01T12:02:59.999Z</time></trkpt><trkpt lat="46.34461596478534" lon="6.413632098971739"><ele>421.00000000000006</ele><time>2026-05-01T12:03:00.999Z</time></trkpt><trkpt lat="46.344556336488715" lon="6.4136932823080155"><ele>421.0</ele><time>2026-05-01T12:03:01.999Z</time></trkpt><trkpt lat="46.34450226750621" lon="6.413745802646719"><ele>421.0</ele><time>2026-05-01T12:03:02.999Z</time></trkpt><trkpt lat="46.34444762710819" lon="6.413796301968249"><ele>421.0</ele><time>2026-05-01T12:03:03.999Z</time></trkpt><trkpt lat="46.34436040370907" lon="6.413867939768404"><ele>421.00000000000006</ele><time>2026-05-01T12:03:05.999Z</time></trkpt><trkpt lat="46.344289169446384" lon="6.41392974082987"><ele>421.0</ele><time>2026-05-01T12:03:08.999Z</time></trkpt><trkpt lat="46.344227973075355" lon="6.413972762653838"><ele>421.0</ele><time>2026-05-01T12:03:10.999Z</time></trkpt><trkpt lat="46.34418433371792" lon="6.414085204233019"><ele>421.0</ele><time>2026-05-01T12:03:12.999Z</time></trkpt><trkpt lat="46.34423104239083" lon="6.414238826299794"><ele>421.0</ele><time>2026-05-01T12:03:14.999Z</time></trkpt><trkpt lat="46.344270357128295" lon="6.414337315954647"><ele>421.0</ele><time>2026-05-01T12:03:15.999Z</time></trkpt><trkpt lat="46.34431835256656" lon="6.4144603575976005"><ele>421.0</ele><time>2026-05-01T12:03:16.999Z</time></trkpt><trkpt lat="46.34435735534523" lon="6.414584985939927"><ele>421.20000000000005</ele><time>2026-05-01T12:03:17.999Z</time></trkpt><trkpt lat="46.34439267738439" lon="6.414711657462811"><ele>421.40000000000003</ele><time>2026-05-01T12:03:18.999Z</time></trkpt><trkpt lat="46.34440977238867" lon="6.41484298323012"><ele>421.6</ele><time>2026-05-01T12:03:19.999Z</time></trkpt><trkpt lat="46.3444168458187" lon="6.414973716315144"><ele>421.8</ele><time>2026-05-01T12:03:20.999Z</time></trkpt><trkpt lat="46.34443359773033" lon="6.41512291281899"><ele>422.0</ele><time>2026-05-01T12:03:21.999Z</time></trkpt><trkpt lat="46.34444573033827" lon="6.415258373185483"><ele>421.99999999999994</ele><time>2026-05-01T12:03:22.999Z</time></trkpt><trkpt lat="46.3444596605684" lon="6.415383773788924"><ele>422.0</ele><time>2026-05-01T12:03:23.999Z</time></trkpt><trkpt lat="46.34445729968034" lon="6.415507174977265"><ele>422.0</ele><time>2026-05-01T12:03:24.999Z</time></trkpt><trkpt lat="46.34443190684937" lon="6.415624243677486"><ele>422.0</ele><time>2026-05-01T12:03:25.999Z</time></trkpt><trkpt lat="46.34438427149105" lon="6.41574376939094"><ele>421.99999999999994</ele><time>2026-05-01T12:03:26.999Z</time></trkpt><trkpt lat="46.34432362738746" lon="6.415832236854776"><ele>422.0</ele><time>2026-05-01T12:03:27.999Z</time></trkpt><trkpt lat="46.34425500939604" lon="6.4159001261116195"><ele>422.0</ele><time>2026-05-01T12:03:28.999Z</time></trkpt><trkpt lat="46.34417832928221" lon="6.415960695796763"><ele>422.0</ele><time>2026-05-01T12:03:29.999Z</time></trkpt><trkpt lat="46.34408040989077" lon="6.416038129556533"><ele>422.0</ele><time>2026-05-01T12:03:30.999Z</time></trkpt><trkpt lat="46.344003490667774" lon="6.416093570699912"><ele>422.0</ele><time>2026-05-01T12:03:31.999Z</time></trkpt><trkpt lat="46.34392682336058" lon="6.416146117180784"><ele>422.0</ele><time>2026-05-01T12:03:32.999Z</time></trkpt><trkpt lat="46.34384187884088" lon="6.4161667460039595"><ele>422.0</ele><time>2026-05-01T12:03:33.999Z</time></trkpt><trkpt lat="46.343759762523504" lon="6.416142509942008"><ele>422.0</ele><time>2026-05-01T12:03:34.999Z</time></trkpt><trkpt lat="46.343685197037296" lon="6.416064964579972"><ele>422.0</ele><time>2026-05-01T12:03:35.999Z</time></trkpt><trkpt lat="46.343617254356914" lon="6.415940200047383"><ele>422.0</ele><time>2026-05-01T12:03:36.999Z</time></trkpt><trkpt lat="46.343545891142895" lon="6.41581792426109"><ele>422.0</ele><time>2026-05-01T12:03:38Z</time></trkpt><trkpt lat="46.34348356402126" lon="6.415746162921715"><ele>421.99999999999994</ele><time>2026-05-01T12:03:39Z</time></trkpt><trkpt lat="46.34342958635438" lon="6.415641256052944"><ele>422.0</ele><time>2026-05-01T12:03:40Z</time></trkpt><trkpt lat="46.34338046324057" lon="6.415550688486118"><ele>422.0</ele><time>2026-05-01T12:03:41Z</time></trkpt><trkpt lat="46.34333692205559" lon="6.415464098718597"><ele>422.0</ele><time>2026-05-01T12:03:42Z</time></trkpt><trkpt lat="46.343266469869306" lon="6.415324921103777"><ele>421.99999999999994</ele><time>2026-05-01T12:03:44Z</time></trkpt><trkpt lat="46.34322976007661" lon="6.41524268089303"><ele>422.0</ele><time>2026-05-01T12:03:46Z</time></trkpt><trkpt lat="46.343214294356535" lon="6.415115218880587"><ele>422.16666666666663</ele><time>2026-05-01T12:03:49Z</time></trkpt><trkpt lat="46.3432175453784" lon="6.414999028765158"><ele>422.3333333333333</ele><time>2026-05-01T12:03:51Z</time></trkpt><trkpt lat="46.34324793178374" lon="6.414918038905283"><ele>422.5</ele><time>2026-05-01T12:03:53Z</time></trkpt><trkpt lat="46.343351795999396" lon="6.414880872062862"><ele>422.66666666666663</ele><time>2026-05-01T12:03:54Z</time></trkpt><trkpt lat="46.34340746595764" lon="6.414814238966641"><ele>422.8333333333333</ele><time>2026-05-01T12:03:55Z</time></trkpt><trkpt lat="46.34346598012444" lon="6.414778486919446"><ele>423.0</ele><time>2026-05-01T12:03:56Z</time></trkpt><trkpt lat="46.34356137953191" lon="6.414724901795518"><ele>423.0</ele><time>2026-05-01T12:03:58Z</time></trkpt><trkpt lat="46.343641349547994" lon="6.414765948702951"><ele>423.0</ele><time>2026-05-01T12:04:00Z</time></trkpt><trkpt lat="46.3436973820368" lon="6.4148863473813025"><ele>423.0</ele><time>2026-05-01T12:04:01Z</time></trkpt><trkpt lat="46.34378215275169" lon="6.415052903013106"><ele>423.0</ele><time>2026-05-01T12:04:02Z</time></trkpt><trkpt lat="46.343873412993325" lon="6.415246944633099"><ele>422.66666666666663</ele><time>2026-05-01T12:04:03Z</time></trkpt><trkpt lat="46.343970388192936" lon="6.415467674070421"><ele>422.3333333333333</ele><time>2026-05-01T12:04:04Z</time></trkpt><trkpt lat="46.34408880952193" lon="6.415732487818361"><ele>422.0</ele><time>2026-05-01T12:04:05Z</time></trkpt><trkpt lat="46.34421167529435" lon="6.416024877829559"><ele>422.0</ele><time>2026-05-01T12:04:06Z</time></trkpt><trkpt lat="46.34432801294092" lon="6.416312827761458"><ele>422.0</ele><time>2026-05-01T12:04:07Z</time></trkpt><trkpt lat="46.34444552660882" lon="6.416600197459544"><ele>422.0</ele><time>2026-05-01T12:04:08Z</time></trkpt><trkpt lat="46.34455050236952" lon="6.4168775679690135"><ele>422.0</ele><time>2026-05-01T12:04:09Z</time></trkpt><trkpt lat="46.344655271400505" lon="6.417158466297993"><ele>422.0</ele><time>2026-05-01T12:04:10Z</time></trkpt><trkpt lat="46.344751788132534" lon="6.417441730957844"><ele>422.0</ele><time>2026-05-01T12:04:11Z</time></trkpt><trkpt lat="46.34484438406754" lon="6.417738910429217"><ele>422.0</ele><time>2026-05-01T12:04:12Z</time></trkpt><trkpt lat="46.34493739021804" lon="6.418047816999185"><ele>422.0</ele><time>2026-05-01T12:04:13Z</time></trkpt><trkpt lat="46.34503925021183" lon="6.418382873654166"><ele>422.0</ele><time>2026-05-01T12:04:14Z</time></trkpt><trkpt lat="46.34513496722098" lon="6.41872376053506"><ele>422.5</ele><time>2026-05-01T12:04:15Z</time></trkpt><trkpt lat="46.34524170123844" lon="6.419082824005976"><ele>423.0</ele><time>2026-05-01T12:04:16Z</time></trkpt><trkpt lat="46.345367110292116" lon="6.4194718857440485"><ele>423.0</ele><time>2026-05-01T12:04:17Z</time></trkpt><trkpt lat="46.345508071511304" lon="6.419899442302627"><ele>423.0</ele><time>2026-05-01T12:04:18.001Z</time></trkpt><trkpt lat="46.345647651081734" lon="6.4203139669129135"><ele>424.0</ele><time>2026-05-01T12:04:19.001Z</time></trkpt><trkpt lat="46.345781929730386" lon="6.420707723478408"><ele>425.0</ele><time>2026-05-01T12:04:20.001Z</time></trkpt><trkpt lat="46.34590359007291" lon="6.421054613558506"><ele>426.0</ele><time>2026-05-01T12:04:21.001Z</time></trkpt><trkpt lat="46.346025939170566" lon="6.421407447779744"><ele>427.0</ele><time>2026-05-01T12:04:22.001Z</time></trkpt><trkpt lat="46.346149575088255" lon="6.421758227782945"><ele>427.0</ele><time>2026-05-01T12:04:23.001Z</time></trkpt><trkpt lat="46.346268032299264" lon="6.422080248185109"><ele>427.0</ele><time>2026-05-01T12:04:24.001Z</time></trkpt><trkpt lat="46.346389984898806" lon="6.4224252778122555"><ele>426.5</ele><time>2026-05-01T12:04:25.001Z</time></trkpt><trkpt lat="46.34651013208566" lon="6.422758884080998"><ele>426.0</ele><time>2026-05-01T12:04:26.001Z</time></trkpt><trkpt lat="46.346633312215374" lon="6.423107572322194"><ele>427.0</ele><time>2026-05-01T12:04:27.001Z</time></trkpt><trkpt lat="46.34675993902928" lon="6.423456479628359"><ele>428.0</ele><time>2026-05-01T12:04:28.001Z</time></trkpt><trkpt lat="46.34688315271484" lon="6.423805646261678"><ele>427.5</ele><time>2026-05-01T12:04:29.001Z</time></trkpt><trkpt lat="46.34699989769905" lon="6.424140000578997"><ele>427.0</ele><time>2026-05-01T12:04:30.001Z</time></trkpt><trkpt lat="46.34710640617089" lon="6.424440787194655"><ele>427.6666666666667</ele><time>2026-05-01T12:04:31.001Z</time></trkpt><trkpt lat="46.34720591962352" lon="6.4247275013297696"><ele>428.33333333333337</ele><time>2026-05-01T12:04:32.001Z</time></trkpt><trkpt lat="46.34729594186291" lon="6.42499346742253"><ele>429.0</ele><time>2026-05-01T12:04:33.001Z</time></trkpt><trkpt lat="46.34738789722561" lon="6.425255600114641"><ele>430.0</ele><time>2026-05-01T12:04:34.001Z</time></trkpt><trkpt lat="46.34747605412023" lon="6.4255101394355805"><ele>431.0</ele><time>2026-05-01T12:04:35.001Z</time></trkpt><trkpt lat="46.347569880297556" lon="6.425778722312775"><ele>432.0</ele><time>2026-05-01T12:04:36.001Z</time></trkpt><trkpt lat="46.347653092439444" lon="6.426017684240639"><ele>432.0</ele><time>2026-05-01T12:04:37.001Z</time></trkpt><trkpt lat="46.34773683223626" lon="6.426258320540111"><ele>432.0</ele><time>2026-05-01T12:04:38.001Z</time></trkpt><trkpt lat="46.34781711816009" lon="6.426499463185424"><ele>432.0</ele><time>2026-05-01T12:04:39.001Z</time></trkpt><trkpt lat="46.34788934671562" lon="6.426707556848115"><ele>432.25</ele><time>2026-05-01T12:04:40.001Z</time></trkpt><trkpt lat="46.347953856172325" lon="6.4268883405954425"><ele>432.5</ele><time>2026-05-01T12:04:41.001Z</time></trkpt><trkpt lat="46.348008155274485" lon="6.427046211888496"><ele>432.75</ele><time>2026-05-01T12:04:42.001Z</time></trkpt><trkpt lat="46.34804444994833" lon="6.427187583992947"><ele>433.0</ele><time>2026-05-01T12:04:43.001Z</time></trkpt><trkpt lat="46.34805391339837" lon="6.4273216282229315"><ele>433.6666666666667</ele><time>2026-05-01T12:04:44.001Z</time></trkpt><trkpt lat="46.348031388454494" lon="6.427451330348952"><ele>434.33333333333337</ele><time>2026-05-01T12:04:45.001Z</time></trkpt><trkpt lat="46.347979689101" lon="6.427569076012263"><ele>435.0</ele><time>2026-05-01T12:04:46.001Z</time></trkpt><trkpt lat="46.347923191450846" lon="6.427689944472038"><ele>435.66666666666663</ele><time>2026-05-01T12:04:47.001Z</time></trkpt><trkpt lat="46.347889740873114" lon="6.427799457945512"><ele>436.3333333333333</ele><time>2026-05-01T12:04:48.001Z</time></trkpt><trkpt lat="46.34789735327384" lon="6.427910154117675"><ele>437.0</ele><time>2026-05-01T12:04:49.001Z</time></trkpt><trkpt lat="46.347934680357554" lon="6.428009824010816"><ele>437.20000000000005</ele><time>2026-05-01T12:04:50.001Z</time></trkpt><trkpt lat="46.347995355004315" lon="6.428086959343636"><ele>437.40000000000003</ele><time>2026-05-01T12:04:51.001Z</time></trkpt><trkpt lat="46.348067804110606" lon="6.428132858514748"><ele>437.59999999999997</ele><time>2026-05-01T12:04:52Z</time></trkpt><trkpt lat="46.348185572944324" lon="6.428186625459187"><ele>437.79999999999995</ele><time>2026-05-01T12:04:53Z</time></trkpt><trkpt lat="46.34831267821575" lon="6.428272380141708"><ele>438.0</ele><time>2026-05-01T12:04:54Z</time></trkpt><trkpt lat="46.34842451040937" lon="6.4284230990660935"><ele>437.66666666666663</ele><time>2026-05-01T12:04:55Z</time></trkpt><trkpt lat="46.34852076275812" lon="6.428626182214667"><ele>437.3333333333333</ele><time>2026-05-01T12:04:56Z</time></trkpt><trkpt lat="46.34861075109082" lon="6.428893197953281"><ele>437.0</ele><time>2026-05-01T12:04:57Z</time></trkpt><trkpt lat="46.34870045613341" lon="6.4292051121384075"><ele>437.0</ele><time>2026-05-01T12:04:58Z</time></trkpt><trkpt lat="46.34879996748907" lon="6.429522985211261"><ele>437.0</ele><time>2026-05-01T12:04:59Z</time></trkpt><trkpt lat="46.34888809491807" lon="6.429791179208806"><ele>437.0</ele><time>2026-05-01T12:05:00Z</time></trkpt><trkpt lat="46.34896159053505" lon="6.4300167788538465"><ele>436.6</ele><time>2026-05-01T12:05:01Z</time></trkpt><trkpt lat="46.34902043379744" lon="6.430200241097238"><ele>436.20000000000005</ele><time>2026-05-01T12:05:02Z</time></trkpt><trkpt lat="46.349061322464316" lon="6.4303492540000375"><ele>435.8</ele><time>2026-05-01T12:05:03Z</time></trkpt><trkpt lat="46.34908857052856" lon="6.430487851264044"><ele>435.4</ele><time>2026-05-01T12:05:04Z</time></trkpt><trkpt lat="46.34910390425109" lon="6.430623908979075"><ele>435.0</ele><time>2026-05-01T12:05:05Z</time></trkpt><trkpt lat="46.34910590126548" lon="6.4307628946363184"><ele>435.0</ele><time>2026-05-01T12:05:06Z</time></trkpt><trkpt lat="46.34909849251705" lon="6.430886262425313"><ele>435.0</ele><time>2026-05-01T12:05:07Z</time></trkpt><trkpt lat="46.34906822471755" lon="6.430997677129744"><ele>435.0</ele><time>2026-05-01T12:05:08Z</time></trkpt><trkpt lat="46.349010043823824" lon="6.4310861522711"><ele>435.0</ele><time>2026-05-01T12:05:09Z</time></trkpt><trkpt lat="46.34895805078361" lon="6.431165810935674"><ele>435.0</ele><time>2026-05-01T12:05:10Z</time></trkpt><trkpt lat="46.34892205610263" lon="6.43127971357036"><ele>435.0</ele><time>2026-05-01T12:05:11Z</time></trkpt><trkpt lat="46.34888362485955" lon="6.4313808990225825"><ele>435.8</ele><time>2026-05-01T12:05:12Z</time></trkpt><trkpt lat="46.34882505503964" lon="6.431452090731757"><ele>436.6</ele><time>2026-05-01T12:05:13Z</time></trkpt><trkpt lat="46.34877178314706" lon="6.431508319167687"><ele>437.4</ele><time>2026-05-01T12:05:14Z</time></trkpt><trkpt lat="46.34871571229322" lon="6.431681593963355"><ele>438.2</ele><time>2026-05-01T12:05:16Z</time></trkpt><trkpt lat="46.34866151247887" lon="6.431780963769914"><ele>439.0</ele><time>2026-05-01T12:05:17Z</time></trkpt><trkpt lat="46.3485872533134" lon="6.431854682820714"><ele>439.0</ele><time>2026-05-01T12:05:18Z</time></trkpt><trkpt lat="46.348505037014824" lon="6.431933164319767"><ele>439.0</ele><time>2026-05-01T12:05:19Z</time></trkpt><trkpt lat="46.34843886845463" lon="6.432024995504539"><ele>439.0</ele><time>2026-05-01T12:05:20Z</time></trkpt><trkpt lat="46.34838855046702" lon="6.432120799674053"><ele>439.0</ele><time>2026-05-01T12:05:21Z</time></trkpt><trkpt lat="46.348349210076" lon="6.432201035193767"><ele>439.0</ele><time>2026-05-01T12:05:22Z</time></trkpt><trkpt lat="46.34825545412432" lon="6.432300090830833"><ele>439.0</ele><time>2026-05-01T12:05:24Z</time></trkpt><trkpt lat="46.34819675037215" lon="6.432363743086845"><ele>439.0</ele><time>2026-05-01T12:05:26Z</time></trkpt><trkpt lat="46.34828635829047" lon="6.432487117894878"><ele>439.0</ele><time>2026-05-01T12:05:27Z</time></trkpt><trkpt lat="46.34836197562712" lon="6.43258027860917"><ele>439.0</ele><time>2026-05-01T12:05:29Z</time></trkpt><trkpt lat="46.348446866665775" lon="6.432636075596284"><ele>439.0</ele><time>2026-05-01T12:05:31Z</time></trkpt><trkpt lat="46.34852279889309" lon="6.432702438041417"><ele>439.0</ele><time>2026-05-01T12:05:33Z</time></trkpt><trkpt lat="46.34866084590763" lon="6.432659484164244"><ele>439.0</ele><time>2026-05-01T12:05:35Z</time></trkpt><trkpt lat="46.34875288516709" lon="6.43263606786386"><ele>439.0</ele><time>2026-05-01T12:05:37Z</time></trkpt><trkpt lat="46.34881171697254" lon="6.4325982501470484"><ele>439.0</ele><time>2026-05-01T12:05:39Z</time></trkpt><trkpt lat="46.348838168474806" lon="6.432486931952784"><ele>439.0</ele><time>2026-05-01T12:09:51.001Z</time></trkpt><trkpt lat="46.348864416767654" lon="6.432376266599422"><ele>439.0</ele><time>2026-05-01T12:09:54.001Z</time></trkpt><trkpt lat="46.34888957236126" lon="6.432269514894059"><ele>439.0</ele><time>2026-05-01T12:09:56.001Z</time></trkpt><trkpt lat="46.348892275261306" lon="6.432156859388552"><ele>439.0</ele><time>2026-05-01T12:09:58.001Z</time></trkpt><trkpt lat="46.34881988450162" lon="6.432025417527314"><ele>439.0</ele><time>2026-05-01T12:10:00.001Z</time></trkpt><trkpt lat="46.34871141070732" lon="6.431992597023145"><ele>439.0</ele><time>2026-05-01T12:10:02.001Z</time></trkpt><trkpt lat="46.34860596000407" lon="6.43208165316342"><ele>439.0</ele><time>2026-05-01T12:10:04.001Z</time></trkpt><trkpt lat="46.348563212141926" lon="6.432190818101996"><ele>439.0</ele><time>2026-05-01T12:10:05.001Z</time></trkpt><trkpt lat="46.34854170866489" lon="6.432306143632255"><ele>439.0</ele><time>2026-05-01T12:10:06.001Z</time></trkpt><trkpt lat="46.34849369599566" lon="6.432438761822609"><ele>439.0</ele><time>2026-05-01T12:10:08.001Z</time></trkpt><trkpt lat="46.348415834456716" lon="6.432487410094121"><ele>439.0</ele><time>2026-05-01T12:10:10.001Z</time></trkpt><trkpt lat="46.34827032179761" lon="6.432352529593649"><ele>439.0</ele><time>2026-05-01T12:10:24.001Z</time></trkpt><trkpt lat="46.34839803565813" lon="6.432172478286465"><ele>439.0</ele><time>2026-05-01T12:10:25.001Z</time></trkpt><trkpt lat="46.348472088070984" lon="6.432082856596263"><ele>439.0</ele><time>2026-05-01T12:10:26.001Z</time></trkpt><trkpt lat="46.3485260250969" lon="6.432004838976528"><ele>439.0</ele><time>2026-05-01T12:10:27.001Z</time></trkpt><trkpt lat="46.34858064820644" lon="6.431941510220479"><ele>439.0</ele><time>2026-05-01T12:10:28.001Z</time></trkpt><trkpt lat="46.34864381317989" lon="6.4318951856277335"><ele>439.00000000000006</ele><time>2026-05-01T12:10:29.001Z</time></trkpt><trkpt lat="46.348715975153276" lon="6.431851489002469"><ele>439.0</ele><time>2026-05-01T12:10:30.001Z</time></trkpt><trkpt lat="46.34878194956849" lon="6.431788495612951"><ele>439.0</ele><time>2026-05-01T12:10:31.001Z</time></trkpt><trkpt lat="46.34881637039751" lon="6.4317010855527945"><ele>439.0</ele><time>2026-05-01T12:10:32.001Z</time></trkpt><trkpt lat="46.34883157215326" lon="6.431606437914862"><ele>439.00000000000006</ele><time>2026-05-01T12:10:33.001Z</time></trkpt><trkpt lat="46.3489104525712" lon="6.43150459382804"><ele>439.0</ele><time>2026-05-01T12:10:35.001Z</time></trkpt><trkpt lat="46.34902125141416" lon="6.431539555211899"><ele>438.50000000000006</ele><time>2026-05-01T12:10:39.001Z</time></trkpt><trkpt lat="46.349096903982236" lon="6.431563663676863"><ele>438.0</ele><time>2026-05-01T12:10:40.001Z</time></trkpt><trkpt lat="46.3491853031223" lon="6.431566839428463"><ele>437.5</ele><time>2026-05-01T12:10:41.001Z</time></trkpt><trkpt lat="46.349267121145786" lon="6.431532430263384"><ele>437.0</ele><time>2026-05-01T12:10:42.001Z</time></trkpt><trkpt lat="46.34932657823944" lon="6.431454477637524"><ele>436.50000000000006</ele><time>2026-05-01T12:10:43.001Z</time></trkpt><trkpt lat="46.34936786263954" lon="6.431367787347737"><ele>436.0</ele><time>2026-05-01T12:10:44.001Z</time></trkpt><trkpt lat="46.34935238140423" lon="6.431215976085773"><ele>435.75</ele><time>2026-05-01T12:10:45.001Z</time></trkpt><trkpt lat="46.34931874797416" lon="6.431079449560649"><ele>435.5</ele><time>2026-05-01T12:10:46.001Z</time></trkpt><trkpt lat="46.34925492151848" lon="6.430939680931324"><ele>435.25</ele><time>2026-05-01T12:10:47.001Z</time></trkpt><trkpt lat="46.34920471707578" lon="6.430770256897239"><ele>435.0</ele><time>2026-05-01T12:10:48.001Z</time></trkpt><trkpt lat="46.34919387960674" lon="6.430564289196827"><ele>434.5</ele><time>2026-05-01T12:10:49.001Z</time></trkpt><trkpt lat="46.34918580729377" lon="6.430350491570429"><ele>434.0</ele><time>2026-05-01T12:10:50.001Z</time></trkpt><trkpt lat="46.349150928837865" lon="6.430159978233591"><ele>433.5</ele><time>2026-05-01T12:10:51.001Z</time></trkpt><trkpt lat="46.349090824876846" lon="6.429992911526466"><ele>433.0</ele><time>2026-05-01T12:10:52.001Z</time></trkpt><trkpt lat="46.349017230803696" lon="6.429809777006481"><ele>432.75</ele><time>2026-05-01T12:10:53.001Z</time></trkpt><trkpt lat="46.34895061851553" lon="6.429615615612235"><ele>432.5</ele><time>2026-05-01T12:10:54.001Z</time></trkpt><trkpt lat="46.348889071491435" lon="6.429409784743233"><ele>432.25</ele><time>2026-05-01T12:10:55.001Z</time></trkpt><trkpt lat="46.34883489827002" lon="6.429235137846229"><ele>432.0</ele><time>2026-05-01T12:10:56.001Z</time></trkpt><trkpt lat="46.348786461003016" lon="6.429081626362077"><ele>432.40000000000003</ele><time>2026-05-01T12:10:57.001Z</time></trkpt><trkpt lat="46.348741613012635" lon="6.428948383620608"><ele>432.80000000000007</ele><time>2026-05-01T12:10:58.001Z</time></trkpt><trkpt lat="46.34869938791646" lon="6.428827162793763"><ele>433.2</ele><time>2026-05-01T12:10:59.001Z</time></trkpt><trkpt lat="46.348657133570875" lon="6.4287119720442085"><ele>433.6</ele><time>2026-05-01T12:11:00.001Z</time></trkpt><trkpt lat="46.348616109853445" lon="6.428601446510663"><ele>434.0</ele><time>2026-05-01T12:11:01.001Z</time></trkpt><trkpt lat="46.34857511712265" lon="6.42848643171697"><ele>433.99999999999994</ele><time>2026-05-01T12:11:02.001Z</time></trkpt><trkpt lat="46.348530211506976" lon="6.428376720070569"><ele>434.0</ele><time>2026-05-01T12:11:03.001Z</time></trkpt><trkpt lat="46.348477739161375" lon="6.428280814641666"><ele>434.0</ele><time>2026-05-01T12:11:04.001Z</time></trkpt><trkpt lat="46.3484188379402" lon="6.428197946901236"><ele>434.0</ele><time>2026-05-01T12:11:05.001Z</time></trkpt><trkpt lat="46.34836228401901" lon="6.428120054560369"><ele>433.99999999999994</ele><time>2026-05-01T12:11:06.001Z</time></trkpt><trkpt lat="46.34831438723602" lon="6.428045786226984"><ele>434.0</ele><time>2026-05-01T12:11:07.001Z</time></trkpt><trkpt lat="46.34829050998432" lon="6.427953419764817"><ele>433.8333333333333</ele><time>2026-05-01T12:11:08.001Z</time></trkpt><trkpt lat="46.348279307566784" lon="6.427843251950689"><ele>433.66666666666663</ele><time>2026-05-01T12:11:09.001Z</time></trkpt><trkpt lat="46.34826102426173" lon="6.42771997962416"><ele>433.5</ele><time>2026-05-01T12:11:10.001Z</time></trkpt><trkpt lat="46.34820875378929" lon="6.427612904073252"><ele>433.33333333333337</ele><time>2026-05-01T12:11:11.001Z</time></trkpt><trkpt lat="46.34813549312926" lon="6.4275565279492035"><ele>433.1666666666667</ele><time>2026-05-01T12:11:12.001Z</time></trkpt><trkpt lat="46.34805400827866" lon="6.427536102887531"><ele>433.0</ele><time>2026-05-01T12:11:13.001Z</time></trkpt><trkpt lat="46.3479749624576" lon="6.42755623117579"><ele>433.79999999999995</ele><time>2026-05-01T12:11:14.001Z</time></trkpt><trkpt lat="46.34790818014838" lon="6.427634085203543"><ele>434.59999999999997</ele><time>2026-05-01T12:11:15.001Z</time></trkpt><trkpt lat="46.34786267324985" lon="6.427740841055119"><ele>435.40000000000003</ele><time>2026-05-01T12:11:16.001Z</time></trkpt><trkpt lat="46.34785156570587" lon="6.427866790898906"><ele>436.20000000000005</ele><time>2026-05-01T12:11:17.001Z</time></trkpt><trkpt lat="46.34785504641319" lon="6.428018412555581"><ele>437.0</ele><time>2026-05-01T12:11:18.001Z</time></trkpt><trkpt lat="46.347845197902664" lon="6.428200226562995"><ele>437.3333333333333</ele><time>2026-05-01T12:11:19.001Z</time></trkpt><trkpt lat="46.347786051217454" lon="6.428384722279498"><ele>437.66666666666663</ele><time>2026-05-01T12:11:20.001Z</time></trkpt><trkpt lat="46.34768510210018" lon="6.428586129764329"><ele>438.0</ele><time>2026-05-01T12:11:21.001Z</time></trkpt><trkpt lat="46.34756642456395" lon="6.428814746121415"><ele>439.0</ele><time>2026-05-01T12:11:22.001Z</time></trkpt><trkpt lat="46.3474404678975" lon="6.42905344615163"><ele>440.0</ele><time>2026-05-01T12:11:23.001Z</time></trkpt><trkpt lat="46.347308436839235" lon="6.429308111561779"><ele>441.0</ele><time>2026-05-01T12:11:24.001Z</time></trkpt><trkpt lat="46.347175679832745" lon="6.42957864440705"><ele>443.5</ele><time>2026-05-01T12:11:25.001Z</time></trkpt><trkpt lat="46.347048253082534" lon="6.429874371252654"><ele>446.0</ele><time>2026-05-01T12:11:26.001Z</time></trkpt><trkpt lat="46.34694164890198" lon="6.430166262723585"><ele>445.5</ele><time>2026-05-01T12:11:27.001Z</time></trkpt><trkpt lat="46.34686103532944" lon="6.430479433098498"><ele>445.0</ele><time>2026-05-01T12:11:28.001Z</time></trkpt><trkpt lat="46.34680277014501" lon="6.430810981208947"><ele>445.0</ele><time>2026-05-01T12:11:29.001Z</time></trkpt><trkpt lat="46.346769299719675" lon="6.431154582394511"><ele>445.0</ele><time>2026-05-01T12:11:30.001Z</time></trkpt><trkpt lat="46.346772261463215" lon="6.431505716841665"><ele>445.0</ele><time>2026-05-01T12:11:31.001Z</time></trkpt><trkpt lat="46.34678685616478" lon="6.431844661865123"><ele>445.0</ele><time>2026-05-01T12:11:32.001Z</time></trkpt><trkpt lat="46.34682718263352" lon="6.432181254471755"><ele>446.0</ele><time>2026-05-01T12:11:33.001Z</time></trkpt><trkpt lat="46.34688061347177" lon="6.432512676461391"><ele>447.0</ele><time>2026-05-01T12:11:34.001Z</time></trkpt><trkpt lat="46.346936958020414" lon="6.432841690331683"><ele>447.5</ele><time>2026-05-01T12:11:35.001Z</time></trkpt><trkpt lat="46.3469907914074" lon="6.4331715537323735"><ele>448.0</ele><time>2026-05-01T12:11:36.001Z</time></trkpt><trkpt lat="46.347039505933985" lon="6.433512528532753"><ele>449.0</ele><time>2026-05-01T12:11:37.001Z</time></trkpt><trkpt lat="46.347089746479696" lon="6.4338690410524935"><ele>450.0</ele><time>2026-05-01T12:11:38.001Z</time></trkpt><trkpt lat="46.34714403181328" lon="6.434250559960202"><ele>449.0</ele><time>2026-05-01T12:11:39.001Z</time></trkpt><trkpt lat="46.34719801984138" lon="6.434653091414847"><ele>448.0</ele><time>2026-05-01T12:11:40.001Z</time></trkpt><trkpt lat="46.34725637655037" lon="6.435076095995863"><ele>444.5</ele><time>2026-05-01T12:11:41.001Z</time></trkpt><trkpt lat="46.34732312625705" lon="6.435517990842988"><ele>441.0</ele><time>2026-05-01T12:11:42.001Z</time></trkpt><trkpt lat="46.347390706142995" lon="6.4359892898148034"><ele>441.0</ele><time>2026-05-01T12:11:43.001Z</time></trkpt><trkpt lat="46.34745224380525" lon="6.436440107260683"><ele>441.0</ele><time>2026-05-01T12:11:44.001Z</time></trkpt><trkpt lat="46.34751077890897" lon="6.436847203335694"><ele>441.0</ele><time>2026-05-01T12:11:45.001Z</time></trkpt><trkpt lat="46.34756493539501" lon="6.437226381225503"><ele>441.0</ele><time>2026-05-01T12:11:46.001Z</time></trkpt><trkpt lat="46.34762040645737" lon="6.437590561748048"><ele>441.0</ele><time>2026-05-01T12:11:47.001Z</time></trkpt><trkpt lat="46.34767335060463" lon="6.437952453435126"><ele>441.0</ele><time>2026-05-01T12:11:48.001Z</time></trkpt><trkpt lat="46.34773077496721" lon="6.4383239416708475"><ele>440.5</ele><time>2026-05-01T12:11:49.001Z</time></trkpt><trkpt lat="46.3477852080615" lon="6.438702405233702"><ele>440.0</ele><time>2026-05-01T12:11:50.001Z</time></trkpt><trkpt lat="46.347833930062" lon="6.439053492345829"><ele>440.0</ele><time>2026-05-01T12:11:51.001Z</time></trkpt><trkpt lat="46.34788169853816" lon="6.439391969769505"><ele>440.0</ele><time>2026-05-01T12:11:52.001Z</time></trkpt><trkpt lat="46.34793351987238" lon="6.439733615052574"><ele>440.0</ele><time>2026-05-01T12:11:53.001Z</time></trkpt><trkpt lat="46.34798401674766" lon="6.44009742817731"><ele>440.0</ele><time>2026-05-01T12:11:54.001Z</time></trkpt><trkpt lat="46.34803063963357" lon="6.440443998558247"><ele>440.0</ele><time>2026-05-01T12:11:55.001Z</time></trkpt><trkpt lat="46.34807855699979" lon="6.4407697102339005"><ele>440.0</ele><time>2026-05-01T12:11:56.001Z</time></trkpt><trkpt lat="46.348127629996874" lon="6.441070857306069"><ele>440.0</ele><time>2026-05-01T12:11:57.001Z</time></trkpt><trkpt lat="46.34817559442614" lon="6.44137811993998"><ele>440.0</ele><time>2026-05-01T12:11:58.001Z</time></trkpt><trkpt lat="46.34822077936108" lon="6.441706889573129"><ele>440.0</ele><time>2026-05-01T12:11:59.001Z</time></trkpt><trkpt lat="46.34826855790381" lon="6.442045881821387"><ele>441.3333333333333</ele><time>2026-05-01T12:12:00.001Z</time></trkpt><trkpt lat="46.34830135528029" lon="6.442356355621998"><ele>442.66666666666663</ele><time>2026-05-01T12:12:01.001Z</time></trkpt><trkpt lat="46.34832129078064" lon="6.442658202032167"><ele>444.0</ele><time>2026-05-01T12:12:02.001Z</time></trkpt><trkpt lat="46.34832395494838" lon="6.442967520798564"><ele>444.66666666666663</ele><time>2026-05-01T12:12:03.001Z</time></trkpt><trkpt lat="46.34831404178367" lon="6.443282263235388"><ele>445.3333333333333</ele><time>2026-05-01T12:12:04.001Z</time></trkpt><trkpt lat="46.34828957610866" lon="6.443603470344108"><ele>446.0</ele><time>2026-05-01T12:12:05.001Z</time></trkpt><trkpt lat="46.3482573875271" lon="6.443928903313147"><ele>446.0</ele><time>2026-05-01T12:12:06.001Z</time></trkpt><trkpt lat="46.348206644540234" lon="6.444257253199156"><ele>446.0</ele><time>2026-05-01T12:12:07.001Z</time></trkpt><trkpt lat="46.348135830065836" lon="6.444581046076345"><ele>447.0</ele><time>2026-05-01T12:12:08.001Z</time></trkpt><trkpt lat="46.34804895645311" lon="6.444902743175673"><ele>448.0</ele><time>2026-05-01T12:12:09.001Z</time></trkpt><trkpt lat="46.3479470146874" lon="6.445225117816071"><ele>449.0</ele><time>2026-05-01T12:12:10.001Z</time></trkpt><trkpt lat="46.347836293916764" lon="6.445528376472669"><ele>450.0</ele><time>2026-05-01T12:12:11.001Z</time></trkpt><trkpt lat="46.34772578447634" lon="6.445809011039892"><ele>450.0</ele><time>2026-05-01T12:12:12.001Z</time></trkpt><trkpt lat="46.34761955507377" lon="6.446090974943153"><ele>450.0</ele><time>2026-05-01T12:12:13.001Z</time></trkpt><trkpt lat="46.347512999041825" lon="6.446388095607979"><ele>449.0</ele><time>2026-05-01T12:12:14.001Z</time></trkpt><trkpt lat="46.347399184053074" lon="6.4466948030071896"><ele>448.0</ele><time>2026-05-01T12:12:15.001Z</time></trkpt><trkpt lat="46.34728235716655" lon="6.4469966887515575"><ele>450.33333333333337</ele><time>2026-05-01T12:12:16.001Z</time></trkpt><trkpt lat="46.34717511750631" lon="6.447280306567565"><ele>452.66666666666663</ele><time>2026-05-01T12:12:17.001Z</time></trkpt><trkpt lat="46.34707192229796" lon="6.447548139827965"><ele>455.0</ele><time>2026-05-01T12:12:18.001Z</time></trkpt><trkpt lat="46.346967030216284" lon="6.447835358479063"><ele>455.66666666666663</ele><time>2026-05-01T12:12:19.001Z</time></trkpt><trkpt lat="46.34685942024223" lon="6.448128075674136"><ele>456.33333333333337</ele><time>2026-05-01T12:12:20.001Z</time></trkpt><trkpt lat="46.34675874997393" lon="6.448396848357102"><ele>457.0</ele><time>2026-05-01T12:12:21.001Z</time></trkpt><trkpt lat="46.346664194956674" lon="6.448649174123407"><ele>458.6666666666667</ele><time>2026-05-01T12:12:22.001Z</time></trkpt><trkpt lat="46.3465742440532" lon="6.448926601589305"><ele>460.33333333333337</ele><time>2026-05-01T12:12:23.001Z</time></trkpt><trkpt lat="46.34650163539909" lon="6.449229945034101"><ele>462.0</ele><time>2026-05-01T12:12:24.001Z</time></trkpt><trkpt lat="46.34644997342922" lon="6.449555205643007"><ele>460.5</ele><time>2026-05-01T12:12:25.001Z</time></trkpt><trkpt lat="46.34641219963078" lon="6.449891457680658"><ele>459.0</ele><time>2026-05-01T12:12:26.001Z</time></trkpt><trkpt lat="46.34639013390957" lon="6.450229600262925"><ele>456.5</ele><time>2026-05-01T12:12:27.001Z</time></trkpt><trkpt lat="46.34638791887184" lon="6.450569200564109"><ele>454.0</ele><time>2026-05-01T12:12:28.001Z</time></trkpt><trkpt lat="46.346408168444924" lon="6.450914955180673"><ele>454.0</ele><time>2026-05-01T12:12:29.001Z</time></trkpt><trkpt lat="46.346449362315326" lon="6.451271162498372"><ele>454.0</ele><time>2026-05-01T12:12:30.001Z</time></trkpt><trkpt lat="46.34651175492211" lon="6.451620271700424"><ele>454.5</ele><time>2026-05-01T12:12:31.001Z</time></trkpt><trkpt lat="46.346594119371716" lon="6.451952909514843"><ele>455.0</ele><time>2026-05-01T12:12:32.001Z</time></trkpt><trkpt lat="46.346697009035104" lon="6.452273458171357"><ele>456.0</ele><time>2026-05-01T12:12:33.001Z</time></trkpt><trkpt lat="46.34682029994311" lon="6.45257929970544"><ele>457.0</ele><time>2026-05-01T12:12:34.001Z</time></trkpt><trkpt lat="46.34695672623804" lon="6.452864716810129"><ele>458.0</ele><time>2026-05-01T12:12:35.001Z</time></trkpt><trkpt lat="46.34710584191323" lon="6.453142670542496"><ele>459.0</ele><time>2026-05-01T12:12:36.001Z</time></trkpt><trkpt lat="46.34727188685773" lon="6.453413485849442"><ele>454.5</ele><time>2026-05-01T12:12:37.001Z</time></trkpt><trkpt lat="46.34745485528292" lon="6.453671501464956"><ele>450.0</ele><time>2026-05-01T12:12:38.001Z</time></trkpt><trkpt lat="46.34764917422128" lon="6.45394722858864"><ele>446.5</ele><time>2026-05-01T12:12:39.001Z</time></trkpt><trkpt lat="46.34784152755383" lon="6.454221887174216"><ele>443.0</ele><time>2026-05-01T12:12:40.001Z</time></trkpt><trkpt lat="46.348023330745704" lon="6.454487791214109"><ele>449.0</ele><time>2026-05-01T12:12:41.001Z</time></trkpt><trkpt lat="46.34821171222196" lon="6.4547681209362855"><ele>455.0</ele><time>2026-05-01T12:12:42.001Z</time></trkpt><trkpt lat="46.348405758806415" lon="6.455058027798385"><ele>455.0</ele><time>2026-05-01T12:12:43.001Z</time></trkpt><trkpt lat="46.348592295414264" lon="6.455330941461954"><ele>455.0</ele><time>2026-05-01T12:12:44.001Z</time></trkpt><trkpt lat="46.348756188731485" lon="6.455582147288271"><ele>455.66666666666663</ele><time>2026-05-01T12:12:45.001Z</time></trkpt><trkpt lat="46.34890830484009" lon="6.455811837071126"><ele>456.33333333333337</ele><time>2026-05-01T12:12:46.001Z</time></trkpt><trkpt lat="46.34906027688857" lon="6.45604155557347"><ele>457.0</ele><time>2026-05-01T12:12:47.001Z</time></trkpt><trkpt lat="46.34922318772017" lon="6.456276316534991"><ele>457.5</ele><time>2026-05-01T12:12:48.001Z</time></trkpt><trkpt lat="46.34940026456294" lon="6.456498951420089"><ele>458.0</ele><time>2026-05-01T12:12:49.001Z</time></trkpt><trkpt lat="46.34958831944375" lon="6.45670043175235"><ele>457.5</ele><time>2026-05-01T12:12:50.001Z</time></trkpt><trkpt lat="46.34978082160499" lon="6.456876825273698"><ele>457.0</ele><time>2026-05-01T12:12:51.001Z</time></trkpt><trkpt lat="46.34998645407265" lon="6.45704885956543"><ele>457.5</ele><time>2026-05-01T12:12:52.001Z</time></trkpt><trkpt lat="46.35019993930059" lon="6.4572196332242715"><ele>458.0</ele><time>2026-05-01T12:12:53.001Z</time></trkpt><trkpt lat="46.3504131262802" lon="6.457399227394532"><ele>457.5</ele><time>2026-05-01T12:12:54.001Z</time></trkpt><trkpt lat="46.350608537405314" lon="6.45756729755745"><ele>457.0</ele><time>2026-05-01T12:12:55.001Z</time></trkpt><trkpt lat="46.35080416765241" lon="6.457739035230007"><ele>457.0</ele><time>2026-05-01T12:12:56.001Z</time></trkpt><trkpt lat="46.35100855576378" lon="6.4579225315768225"><ele>457.0</ele><time>2026-05-01T12:12:57.001Z</time></trkpt><trkpt lat="46.351210624277996" lon="6.458121363578838"><ele>457.0</ele><time>2026-05-01T12:12:58.001Z</time></trkpt><trkpt lat="46.35139754594989" lon="6.4583279869082295"><ele>457.0</ele><time>2026-05-01T12:12:59.001Z</time></trkpt><trkpt lat="46.351571393689326" lon="6.458529885869805"><ele>457.0</ele><time>2026-05-01T12:13:00.001Z</time></trkpt><trkpt lat="46.3517469442897" lon="6.458741746772187"><ele>457.0</ele><time>2026-05-01T12:13:01.001Z</time></trkpt><trkpt lat="46.3519288123357" lon="6.45896335452855"><ele>458.0</ele><time>2026-05-01T12:13:02.001Z</time></trkpt><trkpt lat="46.35210619338006" lon="6.45920006688256"><ele>459.0</ele><time>2026-05-01T12:13:03.001Z</time></trkpt><trkpt lat="46.35227522218323" lon="6.4594406411825815"><ele>458.33333333333337</ele><time>2026-05-01T12:13:04.001Z</time></trkpt><trkpt lat="46.35243061060891" lon="6.459667226730638"><ele>457.6666666666667</ele><time>2026-05-01T12:13:05.001Z</time></trkpt><trkpt lat="46.35258013429703" lon="6.459909171301865"><ele>457.0</ele><time>2026-05-01T12:13:06.001Z</time></trkpt><trkpt lat="46.352727211004236" lon="6.460162946030557"><ele>457.0</ele><time>2026-05-01T12:13:07.001Z</time></trkpt><trkpt lat="46.3528705176465" lon="6.460419364179881"><ele>457.0</ele><time>2026-05-01T12:13:08.001Z</time></trkpt><trkpt lat="46.353010295299676" lon="6.460672542069471"><ele>457.5</ele><time>2026-05-01T12:13:09.001Z</time></trkpt><trkpt lat="46.353146074372525" lon="6.4609406520912716"><ele>458.0</ele><time>2026-05-01T12:13:10.001Z</time></trkpt><trkpt lat="46.35327733987218" lon="6.4612267061486"><ele>458.0</ele><time>2026-05-01T12:13:11.001Z</time></trkpt><trkpt lat="46.35340858975964" lon="6.461524030395079"><ele>458.0</ele><time>2026-05-01T12:13:12.001Z</time></trkpt><trkpt lat="46.35353617993957" lon="6.46183371946355"><ele>458.5</ele><time>2026-05-01T12:13:13.001Z</time></trkpt><trkpt lat="46.35365223503112" lon="6.462140597154957"><ele>459.0</ele><time>2026-05-01T12:13:14Z</time></trkpt><trkpt lat="46.3537547252083" lon="6.462440346970657"><ele>459.0</ele><time>2026-05-01T12:13:15Z</time></trkpt><trkpt lat="46.353850933971046" lon="6.462749426345309"><ele>459.0</ele><time>2026-05-01T12:13:16Z</time></trkpt><trkpt lat="46.353944243387616" lon="6.463062396214801"><ele>461.0</ele><time>2026-05-01T12:13:17Z</time></trkpt><trkpt lat="46.354031472428396" lon="6.46338286411894"><ele>463.0</ele><time>2026-05-01T12:13:18Z</time></trkpt><trkpt lat="46.354113188082906" lon="6.4637050627711305"><ele>462.33333333333337</ele><time>2026-05-01T12:13:19Z</time></trkpt><trkpt lat="46.354188232363505" lon="6.464013236941219"><ele>461.66666666666663</ele><time>2026-05-01T12:13:20Z</time></trkpt><trkpt lat="46.35425577382392" lon="6.464315329515865"><ele>461.0</ele><time>2026-05-01T12:13:21Z</time></trkpt><trkpt lat="46.354319011198825" lon="6.464630651434881"><ele>461.0</ele><time>2026-05-01T12:13:22Z</time></trkpt><trkpt lat="46.35437368473707" lon="6.464964050044051"><ele>461.0</ele><time>2026-05-01T12:13:23Z</time></trkpt><trkpt lat="46.35442120421562" lon="6.465310795055486"><ele>461.0</ele><time>2026-05-01T12:13:24Z</time></trkpt><trkpt lat="46.354463553036354" lon="6.465664334496656"><ele>461.0</ele><time>2026-05-01T12:13:25Z</time></trkpt><trkpt lat="46.354501399644874" lon="6.466016845617653"><ele>460.5</ele><time>2026-05-01T12:13:26Z</time></trkpt><trkpt lat="46.35453504976354" lon="6.4663788035347025"><ele>460.0</ele><time>2026-05-01T12:13:27Z</time></trkpt><trkpt lat="46.3545727031424" lon="6.466755960012788"><ele>460.0</ele><time>2026-05-01T12:13:28Z</time></trkpt><trkpt lat="46.35460359700964" lon="6.4671591172633525"><ele>460.0</ele><time>2026-05-01T12:13:29Z</time></trkpt><trkpt lat="46.354612629924475" lon="6.467582642421812"><ele>460.5</ele><time>2026-05-01T12:13:30Z</time></trkpt><trkpt lat="46.35460495386681" lon="6.46803159441814"><ele>461.0</ele><time>2026-05-01T12:13:31Z</time></trkpt><trkpt lat="46.3545916736508" lon="6.468487495142614"><ele>460.5</ele><time>2026-05-01T12:13:32Z</time></trkpt><trkpt lat="46.35456678934487" lon="6.468933024876245"><ele>460.0</ele><time>2026-05-01T12:13:33Z</time></trkpt><trkpt lat="46.35453611269803" lon="6.469340088593839"><ele>461.0</ele><time>2026-05-01T12:13:34Z</time></trkpt><trkpt lat="46.35449075609755" lon="6.469723819002417"><ele>462.0</ele><time>2026-05-01T12:13:35Z</time></trkpt><trkpt lat="46.3544343024423" lon="6.470090786830402"><ele>461.5</ele><time>2026-05-01T12:13:36Z</time></trkpt><trkpt lat="46.35437771840463" lon="6.470448087838361"><ele>461.0</ele><time>2026-05-01T12:13:37Z</time></trkpt><trkpt lat="46.35431223139698" lon="6.470790800397183"><ele>461.0</ele><time>2026-05-01T12:13:38Z</time></trkpt><trkpt lat="46.354232903834934" lon="6.4711250215764915"><ele>461.0</ele><time>2026-05-01T12:13:39Z</time></trkpt><trkpt lat="46.35413800768057" lon="6.471472554704339"><ele>461.5</ele><time>2026-05-01T12:13:40Z</time></trkpt><trkpt lat="46.35403736788457" lon="6.471825858218354"><ele>462.0</ele><time>2026-05-01T12:13:41Z</time></trkpt><trkpt lat="46.35393819596722" lon="6.47216188391602"><ele>465.5</ele><time>2026-05-01T12:13:42Z</time></trkpt><trkpt lat="46.35384481643451" lon="6.472474752652035"><ele>469.0</ele><time>2026-05-01T12:13:43Z</time></trkpt><trkpt lat="46.35374529308186" lon="6.472794073253988"><ele>469.5</ele><time>2026-05-01T12:13:44Z</time></trkpt><trkpt lat="46.35363534648036" lon="6.473117848334155"><ele>470.0</ele><time>2026-05-01T12:13:45Z</time></trkpt><trkpt lat="46.353525462788575" lon="6.473444002750854"><ele>472.0</ele><time>2026-05-01T12:13:46Z</time></trkpt><trkpt lat="46.35341420015361" lon="6.473781048726396"><ele>474.0</ele><time>2026-05-01T12:13:47Z</time></trkpt><trkpt lat="46.35330795492778" lon="6.474113173047141"><ele>474.0</ele><time>2026-05-01T12:13:48Z</time></trkpt><trkpt lat="46.353214631851166" lon="6.474443404147295"><ele>474.0</ele><time>2026-05-01T12:13:49Z</time></trkpt><trkpt lat="46.353139970723774" lon="6.474781817054974"><ele>475.5</ele><time>2026-05-01T12:13:50Z</time></trkpt><trkpt lat="46.35308413567061" lon="6.4751193382185175"><ele>477.0</ele><time>2026-05-01T12:13:51Z</time></trkpt><trkpt lat="46.35304377865725" lon="6.475458381742254"><ele>476.5</ele><time>2026-05-01T12:13:52Z</time></trkpt><trkpt lat="46.353014371367216" lon="6.475805872702419"><ele>476.0</ele><time>2026-05-01T12:13:53Z</time></trkpt><trkpt lat="46.35299609708412" lon="6.4761566833137865"><ele>478.0</ele><time>2026-05-01T12:13:54Z</time></trkpt><trkpt lat="46.35299508153827" lon="6.476505247119321"><ele>480.0</ele><time>2026-05-01T12:13:55Z</time></trkpt><trkpt lat="46.35301222350535" lon="6.476863828551554"><ele>480.0</ele><time>2026-05-01T12:13:56Z</time></trkpt><trkpt lat="46.353043922366844" lon="6.477220959744302"><ele>480.0</ele><time>2026-05-01T12:13:57Z</time></trkpt><trkpt lat="46.35308837342907" lon="6.477577262012491"><ele>480.0</ele><time>2026-05-01T12:13:58Z</time></trkpt><trkpt lat="46.3531441416033" lon="6.477924806820398"><ele>480.0</ele><time>2026-05-01T12:13:59Z</time></trkpt><trkpt lat="46.35321694516775" lon="6.478253175946073"><ele>480.0</ele><time>2026-05-01T12:14:00Z</time></trkpt><trkpt lat="46.35330489202852" lon="6.478558784038516"><ele>480.0</ele><time>2026-05-01T12:14:01Z</time></trkpt><trkpt lat="46.35340744480802" lon="6.478873236607687"><ele>480.0</ele><time>2026-05-01T12:14:02Z</time></trkpt><trkpt lat="46.35353211792015" lon="6.479194779673057"><ele>480.0</ele><time>2026-05-01T12:14:03Z</time></trkpt><trkpt lat="46.35367519154062" lon="6.479511425705476"><ele>480.5</ele><time>2026-05-01T12:14:04Z</time></trkpt><trkpt lat="46.35383542813532" lon="6.4798151145278196"><ele>481.0</ele><time>2026-05-01T12:14:05Z</time></trkpt><trkpt lat="46.35401584565489" lon="6.48010616913813"><ele>481.0</ele><time>2026-05-01T12:14:06Z</time></trkpt><trkpt lat="46.35420507278742" lon="6.480390983087196"><ele>481.0</ele><time>2026-05-01T12:14:07Z</time></trkpt><trkpt lat="46.35439270505743" lon="6.480641772062699"><ele>481.5</ele><time>2026-05-01T12:14:08Z</time></trkpt><trkpt lat="46.35457480837309" lon="6.480880868088626"><ele>482.0</ele><time>2026-05-01T12:14:09Z</time></trkpt><trkpt lat="46.35475256413523" lon="6.481108648740469"><ele>481.0</ele><time>2026-05-01T12:14:10Z</time></trkpt><trkpt lat="46.3549432083622" lon="6.481352901704585"><ele>480.0</ele><time>2026-05-01T12:14:11Z</time></trkpt><trkpt lat="46.35514910272718" lon="6.48161988219187"><ele>480.0</ele><time>2026-05-01T12:14:12Z</time></trkpt><trkpt lat="46.35535583585342" lon="6.481893044150025"><ele>480.0</ele><time>2026-05-01T12:14:13Z</time></trkpt><trkpt lat="46.355545706681475" lon="6.482142009726169"><ele>480.5</ele><time>2026-05-01T12:14:14Z</time></trkpt><trkpt lat="46.355734773992666" lon="6.482391819562679"><ele>481.0</ele><time>2026-05-01T12:14:15Z</time></trkpt><trkpt lat="46.35592973511146" lon="6.48264968415899"><ele>481.0</ele><time>2026-05-01T12:14:16Z</time></trkpt><trkpt lat="46.356126522019" lon="6.482925062206316"><ele>481.0</ele><time>2026-05-01T12:14:17Z</time></trkpt><trkpt lat="46.35631197195723" lon="6.483213647631839"><ele>482.0</ele><time>2026-05-01T12:14:18Z</time></trkpt><trkpt lat="46.35648879172684" lon="6.483515619285253"><ele>483.0</ele><time>2026-05-01T12:14:19Z</time></trkpt><trkpt lat="46.35664840304738" lon="6.483832508563885"><ele>483.0</ele><time>2026-05-01T12:14:20Z</time></trkpt><trkpt lat="46.3568066977491" lon="6.484146758043347"><ele>483.0</ele><time>2026-05-01T12:14:21Z</time></trkpt><trkpt lat="46.3569588606123" lon="6.484456451420309"><ele>483.0</ele><time>2026-05-01T12:14:22Z</time></trkpt><trkpt lat="46.35710565859473" lon="6.484752903425425"><ele>483.0</ele><time>2026-05-01T12:14:23.001Z</time></trkpt><trkpt lat="46.35725369042095" lon="6.485042212746922"><ele>483.0</ele><time>2026-05-01T12:14:24.001Z</time></trkpt><trkpt lat="46.357399800633345" lon="6.48533394991803"><ele>483.0</ele><time>2026-05-01T12:14:25.001Z</time></trkpt><trkpt lat="46.3575431355288" lon="6.485609146169646"><ele>483.5</ele><time>2026-05-01T12:14:26.001Z</time></trkpt><trkpt lat="46.357684469754155" lon="6.4858880411946025"><ele>484.0</ele><time>2026-05-01T12:14:27.001Z</time></trkpt><trkpt lat="46.357831646787034" lon="6.48617908414605"><ele>484.5</ele><time>2026-05-01T12:14:28.001Z</time></trkpt><trkpt lat="46.35799668628829" lon="6.486471714062782"><ele>485.0</ele><time>2026-05-01T12:14:29.001Z</time></trkpt><trkpt lat="46.3581737762713" lon="6.486758641894242"><ele>485.5</ele><time>2026-05-01T12:14:30.001Z</time></trkpt><trkpt lat="46.35835378293" lon="6.487019603173923"><ele>486.0</ele><time>2026-05-01T12:14:31.001Z</time></trkpt><trkpt lat="46.35853290875419" lon="6.487245603277116"><ele>486.0</ele><time>2026-05-01T12:14:32.001Z</time></trkpt><trkpt lat="46.35872103225886" lon="6.4874653435760266"><ele>486.0</ele><time>2026-05-01T12:14:33.001Z</time></trkpt><trkpt lat="46.358923116257614" lon="6.487681973470106"><ele>486.5</ele><time>2026-05-01T12:14:34.001Z</time></trkpt><trkpt lat="46.359121384028455" lon="6.487891979411302"><ele>487.0</ele><time>2026-05-01T12:14:35.001Z</time></trkpt><trkpt lat="46.35932463267089" lon="6.488076036051051"><ele>487.0</ele><time>2026-05-01T12:14:36.001Z</time></trkpt><trkpt lat="46.35954132589425" lon="6.488254763755624"><ele>487.0</ele><time>2026-05-01T12:14:37.001Z</time></trkpt><trkpt lat="46.35977248630163" lon="6.488421674323385"><ele>487.5</ele><time>2026-05-01T12:14:38.001Z</time></trkpt><trkpt lat="46.36000165696897" lon="6.488607040025322"><ele>488.0</ele><time>2026-05-01T12:14:39.001Z</time></trkpt><trkpt lat="46.36021869352678" lon="6.488811773748089"><ele>488.0</ele><time>2026-05-01T12:14:40.001Z</time></trkpt><trkpt lat="46.36043083848192" lon="6.489027710063241"><ele>488.0</ele><time>2026-05-01T12:14:41.001Z</time></trkpt><trkpt lat="46.36064450370677" lon="6.489264849468547"><ele>487.5</ele><time>2026-05-01T12:14:42.001Z</time></trkpt><trkpt lat="46.36086718251189" lon="6.48953275499181"><ele>487.0</ele><time>2026-05-01T12:14:43.001Z</time></trkpt><trkpt lat="46.361088080156705" lon="6.489816140771085"><ele>487.0</ele><time>2026-05-01T12:14:44.001Z</time></trkpt><trkpt lat="46.361303795052734" lon="6.490127413499172"><ele>487.0</ele><time>2026-05-01T12:14:45.001Z</time></trkpt><trkpt lat="46.36151070142621" lon="6.4904509480034"><ele>487.0</ele><time>2026-05-01T12:14:46.001Z</time></trkpt><trkpt lat="46.36169936137453" lon="6.4907667024358116"><ele>487.0</ele><time>2026-05-01T12:14:47.001Z</time></trkpt><trkpt lat="46.36186175521618" lon="6.491080727084407"><ele>487.5</ele><time>2026-05-01T12:14:48.001Z</time></trkpt><trkpt lat="46.36201560993424" lon="6.491399531533678"><ele>488.0</ele><time>2026-05-01T12:14:49.001Z</time></trkpt><trkpt lat="46.36216284604589" lon="6.491724189925821"><ele>485.5</ele><time>2026-05-01T12:14:50.001Z</time></trkpt><trkpt lat="46.36230192510552" lon="6.492059822431968"><ele>483.0</ele><time>2026-05-01T12:14:51.001Z</time></trkpt><trkpt lat="46.36243111639822" lon="6.492406605756099"><ele>483.0</ele><time>2026-05-01T12:14:52.001Z</time></trkpt><trkpt lat="46.36255000694741" lon="6.492743505445769"><ele>483.0</ele><time>2026-05-01T12:14:53.001Z</time></trkpt><trkpt lat="46.36265091548735" lon="6.493070073469222"><ele>482.5</ele><time>2026-05-01T12:14:54.001Z</time></trkpt><trkpt lat="46.3627389980665" lon="6.493396307431899"><ele>482.0</ele><time>2026-05-01T12:14:55.001Z</time></trkpt><trkpt lat="46.36282056974467" lon="6.493705797246636"><ele>482.5</ele><time>2026-05-01T12:14:56.001Z</time></trkpt><trkpt lat="46.36290126863023" lon="6.494018145901103"><ele>483.0</ele><time>2026-05-01T12:14:57.001Z</time></trkpt><trkpt lat="46.36300114399867" lon="6.4943407324578875"><ele>476.5</ele><time>2026-05-01T12:14:58.001Z</time></trkpt><trkpt lat="46.36312091886651" lon="6.494664782881433"><ele>470.0</ele><time>2026-05-01T12:14:59.001Z</time></trkpt><trkpt lat="46.3632638811831" lon="6.494997197176765"><ele>470.0</ele><time>2026-05-01T12:15:00.001Z</time></trkpt><trkpt lat="46.36341518545516" lon="6.495329964627583"><ele>470.0</ele><time>2026-05-01T12:15:01.001Z</time></trkpt><trkpt lat="46.36358457309063" lon="6.495649211068438"><ele>472.5</ele><time>2026-05-01T12:15:02.001Z</time></trkpt><trkpt lat="46.36376914060806" lon="6.495963774524238"><ele>475.0</ele><time>2026-05-01T12:15:03.001Z</time></trkpt><trkpt lat="46.363970646525075" lon="6.496277988470089"><ele>475.0</ele><time>2026-05-01T12:15:04.001Z</time></trkpt><trkpt lat="46.36416175886394" lon="6.496560904725117"><ele>475.0</ele><time>2026-05-01T12:15:05.001Z</time></trkpt><trkpt lat="46.36433875780335" lon="6.496829325565798"><ele>479.0</ele><time>2026-05-01T12:15:06.001Z</time></trkpt><trkpt lat="46.36449444569044" lon="6.497089082069033"><ele>483.0</ele><time>2026-05-01T12:15:07.001Z</time></trkpt><trkpt lat="46.36465010368458" lon="6.49735738957944"><ele>477.0</ele><time>2026-05-01T12:15:08.001Z</time></trkpt><trkpt lat="46.364826644178045" lon="6.497643598178388"><ele>471.0</ele><time>2026-05-01T12:15:09.001Z</time></trkpt><trkpt lat="46.36501532829674" lon="6.497921554345723"><ele>471.0</ele><time>2026-05-01T12:15:10.001Z</time></trkpt><trkpt lat="46.365188852880486" lon="6.498184876591017"><ele>471.0</ele><time>2026-05-01T12:15:11.001Z</time></trkpt><trkpt lat="46.36536578157739" lon="6.498442509664184"><ele>461.5</ele><time>2026-05-01T12:15:12.001Z</time></trkpt><trkpt lat="46.365545671852814" lon="6.498707281944724"><ele>452.0</ele><time>2026-05-01T12:15:13.001Z</time></trkpt><trkpt lat="46.36571547247153" lon="6.498952440753542"><ele>451.5</ele><time>2026-05-01T12:15:14.001Z</time></trkpt><trkpt lat="46.365878165904896" lon="6.49919509861312"><ele>451.0</ele><time>2026-05-01T12:15:15.001Z</time></trkpt><trkpt lat="46.366034799127426" lon="6.49943015496478"><ele>451.33333333333337</ele><time>2026-05-01T12:15:16.001Z</time></trkpt><trkpt lat="46.36619142827985" lon="6.499658070480579"><ele>451.66666666666663</ele><time>2026-05-01T12:15:17.001Z</time></trkpt><trkpt lat="46.36634395797882" lon="6.49987832468848"><ele>452.0</ele><time>2026-05-01T12:15:18.001Z</time></trkpt><trkpt lat="46.36651291108981" lon="6.500113194926267"><ele>450.5</ele><time>2026-05-01T12:15:19.001Z</time></trkpt><trkpt lat="46.366681939348524" lon="6.500352045013831"><ele>449.0</ele><time>2026-05-01T12:15:20.001Z</time></trkpt><trkpt lat="46.36682888932275" lon="6.500578674701742"><ele>449.0</ele><time>2026-05-01T12:15:21.001Z</time></trkpt><trkpt lat="46.36695498183562" lon="6.500776784217682"><ele>449.0</ele><time>2026-05-01T12:15:22.001Z</time></trkpt><trkpt lat="46.367070932731615" lon="6.500953199127977"><ele>449.0</ele><time>2026-05-01T12:15:23.001Z</time></trkpt><trkpt lat="46.3671832193343" lon="6.501133857199895"><ele>448.66666666666663</ele><time>2026-05-01T12:15:24.001Z</time></trkpt><trkpt lat="46.367279327228765" lon="6.501328549620123"><ele>448.33333333333337</ele><time>2026-05-01T12:15:25.001Z</time></trkpt><trkpt lat="46.367332306241735" lon="6.5015462896730085"><ele>448.0</ele><time>2026-05-01T12:15:26.001Z</time></trkpt><trkpt lat="46.36738373651767" lon="6.501753199625339"><ele>448.0</ele><time>2026-05-01T12:15:27.001Z</time></trkpt><trkpt lat="46.367410379339276" lon="6.501958276287098"><ele>448.0</ele><time>2026-05-01T12:15:28.001Z</time></trkpt><trkpt lat="46.36744233887531" lon="6.502132270283505"><ele>448.0</ele><time>2026-05-01T12:15:29.001Z</time></trkpt><trkpt lat="46.367478575077634" lon="6.502262186960836"><ele>448.0</ele><time>2026-05-01T12:15:30.001Z</time></trkpt><trkpt lat="46.3675252501938" lon="6.502371285336663"><ele>447.2</ele><time>2026-05-01T12:15:31.001Z</time></trkpt><trkpt lat="46.36757986158188" lon="6.502471560358925"><ele>446.4</ele><time>2026-05-01T12:15:32.001Z</time></trkpt><trkpt lat="46.367627353472486" lon="6.502599893914109"><ele>445.59999999999997</ele><time>2026-05-01T12:15:33.001Z</time></trkpt><trkpt lat="46.367685722897725" lon="6.50271637773655"><ele>444.79999999999995</ele><time>2026-05-01T12:15:34.001Z</time></trkpt><trkpt lat="46.36764900984182" lon="6.502915034607312"><ele>444.0</ele><time>2026-05-01T12:15:35.001Z</time></trkpt><trkpt lat="46.367604051581445" lon="6.503084102934823"><ele>442.0</ele><time>2026-05-01T12:15:36.001Z</time></trkpt><trkpt lat="46.367521336466964" lon="6.503262849769356"><ele>440.0</ele><time>2026-05-01T12:15:37.001Z</time></trkpt><trkpt lat="46.36740196883624" lon="6.503437702465136"><ele>438.0</ele><time>2026-05-01T12:15:38.001Z</time></trkpt><trkpt lat="46.36725539795861" lon="6.503604118732765"><ele>440.0</ele><time>2026-05-01T12:15:39.001Z</time></trkpt><trkpt lat="46.3671115691948" lon="6.503766570735304"><ele>442.0</ele><time>2026-05-01T12:15:40.001Z</time></trkpt><trkpt lat="46.366970546325255" lon="6.503928401779255"><ele>444.0</ele><time>2026-05-01T12:15:41.001Z</time></trkpt><trkpt lat="46.36683383238085" lon="6.504088787199313"><ele>444.0</ele><time>2026-05-01T12:15:42.001Z</time></trkpt><trkpt lat="46.36667659880535" lon="6.504280963644868"><ele>444.0</ele><time>2026-05-01T12:15:43.001Z</time></trkpt><trkpt lat="46.3665091884585" lon="6.504482180698174"><ele>444.0</ele><time>2026-05-01T12:15:44.001Z</time></trkpt><trkpt lat="46.366332244050795" lon="6.504695164399512"><ele>444.66666666666663</ele><time>2026-05-01T12:15:45.001Z</time></trkpt><trkpt lat="46.36614701268217" lon="6.504885331634666"><ele>445.3333333333333</ele><time>2026-05-01T12:15:46.001Z</time></trkpt><trkpt lat="46.365982985697855" lon="6.505024230000942"><ele>446.0</ele><time>2026-05-01T12:15:47.001Z</time></trkpt><trkpt lat="46.365822727968094" lon="6.5051691759617665"><ele>446.0</ele><time>2026-05-01T12:15:48.001Z</time></trkpt><trkpt lat="46.3656783984748" lon="6.505333335320563"><ele>446.0</ele><time>2026-05-01T12:15:49.001Z</time></trkpt><trkpt lat="46.365545302010176" lon="6.505539217349874"><ele>446.0</ele><time>2026-05-01T12:15:50.001Z</time></trkpt><trkpt lat="46.36543617751224" lon="6.5057896764011245"><ele>452.0</ele><time>2026-05-01T12:15:51.001Z</time></trkpt><trkpt lat="46.3653400456388" lon="6.5060751825565974"><ele>458.0</ele><time>2026-05-01T12:15:52.001Z</time></trkpt><trkpt lat="46.36525978867826" lon="6.506393457492927"><ele>458.0</ele><time>2026-05-01T12:15:53.001Z</time></trkpt><trkpt lat="46.365193057071494" lon="6.50673223805263"><ele>458.0</ele><time>2026-05-01T12:15:54.001Z</time></trkpt><trkpt lat="46.365146123613016" lon="6.50710020613202"><ele>451.5</ele><time>2026-05-01T12:15:55.001Z</time></trkpt><trkpt lat="46.36511485879782" lon="6.507481873675917"><ele>445.0</ele><time>2026-05-01T12:15:56.001Z</time></trkpt><trkpt lat="46.36509438214259" lon="6.507851690894906"><ele>444.0</ele><time>2026-05-01T12:15:57.001Z</time></trkpt><trkpt lat="46.3650697662513" lon="6.508189281825665"><ele>443.0</ele><time>2026-05-01T12:15:58.001Z</time></trkpt><trkpt lat="46.365042170243775" lon="6.508509075587387"><ele>440.3333333333333</ele><time>2026-05-01T12:15:59.001Z</time></trkpt><trkpt lat="46.36500687296343" lon="6.5088132730790935"><ele>437.66666666666663</ele><time>2026-05-01T12:16:00.001Z</time></trkpt><trkpt lat="46.364936028226154" lon="6.509111070800223"><ele>435.0</ele><time>2026-05-01T12:16:01.001Z</time></trkpt><trkpt lat="46.36483459624034" lon="6.509382412911192"><ele>431.33333333333337</ele><time>2026-05-01T12:16:02.001Z</time></trkpt><trkpt lat="46.3647223486353" lon="6.509645079634186"><ele>427.6666666666667</ele><time>2026-05-01T12:16:03.001Z</time></trkpt><trkpt lat="46.36463664731328" lon="6.509931704356882"><ele>424.0</ele><time>2026-05-01T12:16:04.001Z</time></trkpt><trkpt lat="46.364578990987354" lon="6.510248664423295"><ele>449.5</ele><time>2026-05-01T12:16:05.001Z</time></trkpt><trkpt lat="46.364559244336725" lon="6.510577586766929"><ele>475.0</ele><time>2026-05-01T12:16:06.001Z</time></trkpt><trkpt lat="46.364541457860916" lon="6.510911602747066"><ele>475.0</ele><time>2026-05-01T12:16:07.001Z</time></trkpt><trkpt lat="46.3644891344889" lon="6.511240540149238"><ele>475.0</ele><time>2026-05-01T12:16:08.001Z</time></trkpt><trkpt lat="46.36440228665102" lon="6.511580671170148"><ele>466.5</ele><time>2026-05-01T12:16:09.001Z</time></trkpt><trkpt lat="46.364323601553494" lon="6.511914931632217"><ele>458.0</ele><time>2026-05-01T12:16:10.001Z</time></trkpt><trkpt lat="46.36426947235268" lon="6.512231721545149"><ele>450.0</ele><time>2026-05-01T12:16:11.001Z</time></trkpt><trkpt lat="46.36424323170824" lon="6.512575041798256"><ele>442.0</ele><time>2026-05-01T12:16:12.001Z</time></trkpt><trkpt lat="46.364252219761916" lon="6.512934350954909"><ele>438.0</ele><time>2026-05-01T12:16:13.001Z</time></trkpt><trkpt lat="46.36427887100405" lon="6.513327229967213"><ele>434.0</ele><time>2026-05-01T12:16:14.001Z</time></trkpt><trkpt lat="46.3642998461653" lon="6.513684256212528"><ele>431.5</ele><time>2026-05-01T12:16:15.001Z</time></trkpt><trkpt lat="46.364304026743135" lon="6.51402261476546"><ele>429.0</ele><time>2026-05-01T12:16:16.001Z</time></trkpt><trkpt lat="46.364315598200236" lon="6.514361785788596"><ele>425.5</ele><time>2026-05-01T12:16:17.001Z</time></trkpt><trkpt lat="46.364330139454694" lon="6.51472477524286"><ele>422.0</ele><time>2026-05-01T12:16:18.001Z</time></trkpt><trkpt lat="46.36434303653467" lon="6.515084897613307"><ele>423.0</ele><time>2026-05-01T12:16:19.001Z</time></trkpt><trkpt lat="46.36435686427115" lon="6.515408775494306"><ele>424.0</ele><time>2026-05-01T12:16:20.001Z</time></trkpt><trkpt lat="46.36437115618896" lon="6.515709462040685"><ele>425.0</ele><time>2026-05-01T12:16:21.001Z</time></trkpt><trkpt lat="46.36437918140393" lon="6.515986301908332"><ele>427.3333333333333</ele><time>2026-05-01T12:16:22.001Z</time></trkpt><trkpt lat="46.3643838973296" lon="6.516242182217158"><ele>429.66666666666663</ele><time>2026-05-01T12:16:23.001Z</time></trkpt><trkpt lat="46.36436983129543" lon="6.516484384622827"><ele>432.0</ele><time>2026-05-01T12:16:24.001Z</time></trkpt><trkpt lat="46.36432360586556" lon="6.516722244359273"><ele>432.0</ele><time>2026-05-01T12:16:25.001Z</time></trkpt><trkpt lat="46.36425491157681" lon="6.516950592205809"><ele>432.0</ele><time>2026-05-01T12:16:26.001Z</time></trkpt><trkpt lat="46.36416417921644" lon="6.517189380398803"><ele>432.0</ele><time>2026-05-01T12:16:27.001Z</time></trkpt><trkpt lat="46.36404595576529" lon="6.517406977910364"><ele>431.66666666666663</ele><time>2026-05-01T12:16:28.001Z</time></trkpt><trkpt lat="46.36390997211928" lon="6.517602595388719"><ele>431.3333333333333</ele><time>2026-05-01T12:16:29.001Z</time></trkpt><trkpt lat="46.3637484738845" lon="6.517781016999661"><ele>431.0</ele><time>2026-05-01T12:16:30.001Z</time></trkpt><trkpt lat="46.363569327962075" lon="6.517959234326789"><ele>433.0</ele><time>2026-05-01T12:16:31.001Z</time></trkpt><trkpt lat="46.36336744535447" lon="6.518162614986588"><ele>435.0</ele><time>2026-05-01T12:16:32.001Z</time></trkpt><trkpt lat="46.36314829573556" lon="6.518383189980451"><ele>433.0</ele><time>2026-05-01T12:16:33.001Z</time></trkpt><trkpt lat="46.36290558233993" lon="6.518634024661883"><ele>431.0</ele><time>2026-05-01T12:16:34.001Z</time></trkpt><trkpt lat="46.36263935048815" lon="6.51888362964521"><ele>430.0</ele><time>2026-05-01T12:16:35.001Z</time></trkpt><trkpt lat="46.36236854887352" lon="6.51913198893136"><ele>429.0</ele><time>2026-05-01T12:16:36.001Z</time></trkpt><trkpt lat="46.362099287446874" lon="6.519402095282789"><ele>431.0</ele><time>2026-05-01T12:16:37.001Z</time></trkpt><trkpt lat="46.36185628503535" lon="6.519650767060721"><ele>433.0</ele><time>2026-05-01T12:16:38.001Z</time></trkpt><trkpt lat="46.36161250299329" lon="6.519863610080641"><ele>433.0</ele><time>2026-05-01T12:16:39.001Z</time></trkpt><trkpt lat="46.36138792466359" lon="6.520118405341388"><ele>433.0</ele><time>2026-05-01T12:16:40.001Z</time></trkpt><trkpt lat="46.3611464449142" lon="6.520361115955918"><ele>439.0</ele><time>2026-05-01T12:16:41.001Z</time></trkpt><trkpt lat="46.36090596298375" lon="6.520604337337081"><ele>445.0</ele><time>2026-05-01T12:16:42.001Z</time></trkpt><trkpt lat="46.36068619340991" lon="6.520826822430902"><ele>447.0</ele><time>2026-05-01T12:16:43.001Z</time></trkpt><trkpt lat="46.36048116920461" lon="6.521037456186062"><ele>449.0</ele><time>2026-05-01T12:16:44.001Z</time></trkpt><trkpt lat="46.360277873779054" lon="6.521248586709213"><ele>449.0</ele><time>2026-05-01T12:16:45.001Z</time></trkpt><trkpt lat="46.36006852479788" lon="6.5214628786438995"><ele>449.0</ele><time>2026-05-01T12:16:46.001Z</time></trkpt><trkpt lat="46.35985972409406" lon="6.521674676674207"><ele>442.0</ele><time>2026-05-01T12:16:47.001Z</time></trkpt><trkpt lat="46.35966320137855" lon="6.521867595110451"><ele>435.0</ele><time>2026-05-01T12:16:48.001Z</time></trkpt><trkpt lat="46.35948170359925" lon="6.522048646703664"><ele>441.0</ele><time>2026-05-01T12:16:49.001Z</time></trkpt><trkpt lat="46.359300312869664" lon="6.522234330496822"><ele>447.0</ele><time>2026-05-01T12:16:50.001Z</time></trkpt><trkpt lat="46.359115149445294" lon="6.522424193380364"><ele>453.0</ele><time>2026-05-01T12:16:51.001Z</time></trkpt><trkpt lat="46.35894268926246" lon="6.522605318844508"><ele>452.33333333333337</ele><time>2026-05-01T12:16:52.001Z</time></trkpt><trkpt lat="46.35878159646995" lon="6.522769250260251"><ele>451.6666666666667</ele><time>2026-05-01T12:16:53.001Z</time></trkpt><trkpt lat="46.35862327236275" lon="6.5229216924564595"><ele>451.0</ele><time>2026-05-01T12:16:54.001Z</time></trkpt><trkpt lat="46.35847486478615" lon="6.523066173497853"><ele>451.0</ele><time>2026-05-01T12:16:55.001Z</time></trkpt><trkpt lat="46.35833217242622" lon="6.523232496539405"><ele>451.0</ele><time>2026-05-01T12:16:56.001Z</time></trkpt><trkpt lat="46.35820462110402" lon="6.523434612054465"><ele>451.0</ele><time>2026-05-01T12:16:57.001Z</time></trkpt><trkpt lat="46.35809658798401" lon="6.523662666070101"><ele>446.6666666666667</ele><time>2026-05-01T12:16:58.001Z</time></trkpt><trkpt lat="46.35801711186507" lon="6.5239103886950325"><ele>442.33333333333337</ele><time>2026-05-01T12:16:59.001Z</time></trkpt><trkpt lat="46.357947605043634" lon="6.524167899774008"><ele>438.0</ele><time>2026-05-01T12:17:00.001Z</time></trkpt><trkpt lat="46.357885456439426" lon="6.5244103254113615"><ele>441.0</ele><time>2026-05-01T12:17:01.001Z</time></trkpt><trkpt lat="46.35780192374316" lon="6.524629936437833"><ele>444.0</ele><time>2026-05-01T12:17:02.001Z</time></trkpt><trkpt lat="46.357715036699325" lon="6.524855739179383"><ele>447.0</ele><time>2026-05-01T12:17:03.001Z</time></trkpt><trkpt lat="46.35759927555974" lon="6.525077581221482"><ele>447.0</ele><time>2026-05-01T12:17:04.001Z</time></trkpt><trkpt lat="46.35745325263823" lon="6.525292562792756"><ele>447.0</ele><time>2026-05-01T12:17:05.001Z</time></trkpt><trkpt lat="46.357269073780536" lon="6.525486557039398"><ele>447.0</ele><time>2026-05-01T12:17:06.001Z</time></trkpt><trkpt lat="46.35706924174521" lon="6.525686881542753"><ele>445.5</ele><time>2026-05-01T12:17:07.001Z</time></trkpt><trkpt lat="46.3568636549012" lon="6.525891334183213"><ele>444.0</ele><time>2026-05-01T12:17:08.001Z</time></trkpt><trkpt lat="46.35664589375504" lon="6.52607499180282"><ele>444.0</ele><time>2026-05-01T12:17:09.001Z</time></trkpt><trkpt lat="46.3564204204965" lon="6.526206234787938"><ele>444.0</ele><time>2026-05-01T12:17:10.001Z</time></trkpt><trkpt lat="46.35618061377927" lon="6.5263141185241125"><ele>445.5</ele><time>2026-05-01T12:17:11.001Z</time></trkpt><trkpt lat="46.355942953845286" lon="6.526412610026699"><ele>447.0</ele><time>2026-05-01T12:17:12.001Z</time></trkpt><trkpt lat="46.35572883124805" lon="6.526526979907522"><ele>445.33333333333337</ele><time>2026-05-01T12:17:13.001Z</time></trkpt><trkpt lat="46.35551664603462" lon="6.526614186618166"><ele>443.6666666666667</ele><time>2026-05-01T12:17:14.001Z</time></trkpt><trkpt lat="46.35531658006738" lon="6.526702769812898"><ele>442.0</ele><time>2026-05-01T12:17:15.001Z</time></trkpt><trkpt lat="46.35512415030585" lon="6.526794938959376"><ele>442.0</ele><time>2026-05-01T12:17:16.001Z</time></trkpt><trkpt lat="46.354921706383735" lon="6.526854740492734"><ele>442.0</ele><time>2026-05-01T12:17:17.001Z</time></trkpt><trkpt lat="46.3547339512008" lon="6.526960817683215"><ele>442.0</ele><time>2026-05-01T12:17:18.001Z</time></trkpt><trkpt lat="46.35453289133538" lon="6.527046322829335"><ele>444.0</ele><time>2026-05-01T12:17:19.001Z</time></trkpt><trkpt lat="46.35432300219594" lon="6.527144246907458"><ele>446.0</ele><time>2026-05-01T12:17:20.001Z</time></trkpt><trkpt lat="46.35414060514477" lon="6.527264823739196"><ele>448.0</ele><time>2026-05-01T12:17:21.001Z</time></trkpt><trkpt lat="46.35397228468345" lon="6.527404676334018"><ele>447.0</ele><time>2026-05-01T12:17:22.001Z</time></trkpt><trkpt lat="46.35380250605503" lon="6.527586334370647"><ele>446.0</ele><time>2026-05-01T12:17:23.001Z</time></trkpt><trkpt lat="46.35363563919925" lon="6.527818361629397"><ele>445.0</ele><time>2026-05-01T12:17:24.001Z</time></trkpt><trkpt lat="46.35347473361788" lon="6.5280755460134765"><ele>445.0</ele><time>2026-05-01T12:17:25.001Z</time></trkpt><trkpt lat="46.353325651160375" lon="6.52835850854162"><ele>445.0</ele><time>2026-05-01T12:17:26.001Z</time></trkpt><trkpt lat="46.35318235990568" lon="6.528631832873108"><ele>443.0</ele><time>2026-05-01T12:17:27.001Z</time></trkpt><trkpt lat="46.35305042943534" lon="6.52889462031616"><ele>441.0</ele><time>2026-05-01T12:17:28.001Z</time></trkpt><trkpt lat="46.35291181394556" lon="6.529159800622385"><ele>441.0</ele><time>2026-05-01T12:17:29.001Z</time></trkpt><trkpt lat="46.352771626187774" lon="6.5294291810743"><ele>441.0</ele><time>2026-05-01T12:17:30.001Z</time></trkpt><trkpt lat="46.352635791003095" lon="6.529696083434814"><ele>445.33333333333337</ele><time>2026-05-01T12:17:31.001Z</time></trkpt><trkpt lat="46.35248503295338" lon="6.529940367699691"><ele>449.6666666666667</ele><time>2026-05-01T12:17:32.001Z</time></trkpt><trkpt lat="46.35236348633079" lon="6.53020612148782"><ele>454.0</ele><time>2026-05-01T12:17:33.001Z</time></trkpt><trkpt lat="46.35223800463074" lon="6.530437640471178"><ele>452.33333333333337</ele><time>2026-05-01T12:17:34.001Z</time></trkpt><trkpt lat="46.35211143983415" lon="6.530663785833383"><ele>450.66666666666663</ele><time>2026-05-01T12:17:35.001Z</time></trkpt><trkpt lat="46.35198782310031" lon="6.530898368568982"><ele>449.0</ele><time>2026-05-01T12:17:36.001Z</time></trkpt><trkpt lat="46.35184985419829" lon="6.531138499031887"><ele>455.3333333333333</ele><time>2026-05-01T12:17:37.001Z</time></trkpt><trkpt lat="46.351719321743055" lon="6.531387598355202"><ele>461.66666666666663</ele><time>2026-05-01T12:17:38.001Z</time></trkpt><trkpt lat="46.351586865619964" lon="6.531608435056393"><ele>468.0</ele><time>2026-05-01T12:17:39.001Z</time></trkpt><trkpt lat="46.35144529045918" lon="6.531792082079227"><ele>465.66666666666663</ele><time>2026-05-01T12:17:40.001Z</time></trkpt><trkpt lat="46.35129480886823" lon="6.531961857571335"><ele>463.3333333333333</ele><time>2026-05-01T12:17:41.001Z</time></trkpt><trkpt lat="46.35112063500565" lon="6.532112469881939"><ele>461.0</ele><time>2026-05-01T12:17:42.001Z</time></trkpt><trkpt lat="46.35095335611446" lon="6.532288883796039"><ele>461.0</ele><time>2026-05-01T12:17:43.001Z</time></trkpt><trkpt lat="46.3507985212994" lon="6.532503636569508"><ele>461.0</ele><time>2026-05-01T12:17:44.001Z</time></trkpt><trkpt lat="46.35066773087597" lon="6.532782660172185"><ele>461.0</ele><time>2026-05-01T12:17:45.001Z</time></trkpt><trkpt lat="46.35055746321661" lon="6.533078266788307"><ele>456.5</ele><time>2026-05-01T12:17:46.001Z</time></trkpt><trkpt lat="46.3504656954958" lon="6.53338680482073"><ele>452.0</ele><time>2026-05-01T12:17:47.001Z</time></trkpt><trkpt lat="46.35037527881955" lon="6.533691252266698"><ele>456.0</ele><time>2026-05-01T12:17:48.001Z</time></trkpt><trkpt lat="46.35022198345789" lon="6.533948588904199"><ele>460.0</ele><time>2026-05-01T12:17:49.001Z</time></trkpt><trkpt lat="46.350051262176294" lon="6.534175927185144"><ele>460.0</ele><time>2026-05-01T12:17:50.001Z</time></trkpt><trkpt lat="46.34987648608758" lon="6.534413545507548"><ele>460.0</ele><time>2026-05-01T12:17:51.001Z</time></trkpt><trkpt lat="46.34969690595919" lon="6.5346173643169045"><ele>460.6666666666667</ele><time>2026-05-01T12:17:52.001Z</time></trkpt><trkpt lat="46.34953922579871" lon="6.534816728783948"><ele>461.33333333333337</ele><time>2026-05-01T12:17:53.001Z</time></trkpt><trkpt lat="46.34936693568405" lon="6.535004192231046"><ele>462.0</ele><time>2026-05-01T12:17:54.001Z</time></trkpt><trkpt lat="46.34917567529089" lon="6.535141900911901"><ele>462.0</ele><time>2026-05-01T12:17:55.001Z</time></trkpt><trkpt lat="46.348950971716945" lon="6.535239595985337"><ele>462.0</ele><time>2026-05-01T12:17:56.001Z</time></trkpt><trkpt lat="46.34871066727534" lon="6.535296133675309"><ele>464.5</ele><time>2026-05-01T12:17:57.001Z</time></trkpt><trkpt lat="46.34845834496122" lon="6.5353313145117236"><ele>467.0</ele><time>2026-05-01T12:17:58.001Z</time></trkpt><trkpt lat="46.34820343257517" lon="6.535359716430388"><ele>463.5</ele><time>2026-05-01T12:17:59.001Z</time></trkpt><trkpt lat="46.347943455213006" lon="6.535352423308696"><ele>460.0</ele><time>2026-05-01T12:18:00.001Z</time></trkpt><trkpt lat="46.34770314560559" lon="6.5353098373856"><ele>460.0</ele><time>2026-05-01T12:18:01.001Z</time></trkpt><trkpt lat="46.34748929295258" lon="6.535269842440596"><ele>460.0</ele><time>2026-05-01T12:18:02.001Z</time></trkpt><trkpt lat="46.34729325597701" lon="6.535285237692062"><ele>460.0</ele><time>2026-05-01T12:18:03.001Z</time></trkpt><trkpt lat="46.34709778737779" lon="6.535344272604545"><ele>463.33333333333337</ele><time>2026-05-01T12:18:04.001Z</time></trkpt><trkpt lat="46.34688901087851" lon="6.535424435349761"><ele>466.66666666666663</ele><time>2026-05-01T12:18:05.001Z</time></trkpt><trkpt lat="46.346680487791986" lon="6.535552995370174"><ele>470.0</ele><time>2026-05-01T12:18:06.001Z</time></trkpt><trkpt lat="46.346488605294816" lon="6.535635193900842"><ele>476.3333333333333</ele><time>2026-05-01T12:18:07.001Z</time></trkpt><trkpt lat="46.34633717312701" lon="6.535860941389436"><ele>482.66666666666663</ele><time>2026-05-01T12:18:08.001Z</time></trkpt><trkpt lat="46.34618522864589" lon="6.536024173735033"><ele>489.0</ele><time>2026-05-01T12:18:09.001Z</time></trkpt><trkpt lat="46.34604863059268" lon="6.5362449714717155"><ele>489.0</ele><time>2026-05-01T12:18:10.001Z</time></trkpt><trkpt lat="46.34594387912788" lon="6.53652203204177"><ele>489.0</ele><time>2026-05-01T12:18:11.001Z</time></trkpt><trkpt lat="46.34585058725854" lon="6.536811452410754"><ele>489.0</ele><time>2026-05-01T12:18:12.001Z</time></trkpt><trkpt lat="46.34575627707442" lon="6.537038555174805"><ele>491.0</ele><time>2026-05-01T12:18:13.001Z</time></trkpt><trkpt lat="46.34566019412726" lon="6.537238678544105"><ele>493.0</ele><time>2026-05-01T12:18:14.001Z</time></trkpt><trkpt lat="46.345604176180174" lon="6.537460612710983"><ele>495.0</ele><time>2026-05-01T12:18:15.001Z</time></trkpt><trkpt lat="46.34559048479496" lon="6.537716298338694"><ele>498.66666666666663</ele><time>2026-05-01T12:18:16.001Z</time></trkpt><trkpt lat="46.34560158999506" lon="6.537995478059155"><ele>502.3333333333333</ele><time>2026-05-01T12:18:17.001Z</time></trkpt><trkpt lat="46.345622409823314" lon="6.538310167315261"><ele>506.0</ele><time>2026-05-01T12:18:18.001Z</time></trkpt><trkpt lat="46.34561618745523" lon="6.538654537583244"><ele>504.5</ele><time>2026-05-01T12:18:19.001Z</time></trkpt><trkpt lat="46.34557629396664" lon="6.539017815763352"><ele>503.0</ele><time>2026-05-01T12:18:20.001Z</time></trkpt><trkpt lat="46.34552041801145" lon="6.539395628258325"><ele>499.5</ele><time>2026-05-01T12:18:21.001Z</time></trkpt><trkpt lat="46.3454653317594" lon="6.53980070879351"><ele>496.0</ele><time>2026-05-01T12:18:22.001Z</time></trkpt><trkpt lat="46.345405258266936" lon="6.540225547154599"><ele>493.0</ele><time>2026-05-01T12:18:23.001Z</time></trkpt><trkpt lat="46.34532175394149" lon="6.540667993766063"><ele>490.0</ele><time>2026-05-01T12:18:24.001Z</time></trkpt><trkpt lat="46.34521529857654" lon="6.541128313582091"><ele>487.5</ele><time>2026-05-01T12:18:25.001Z</time></trkpt><trkpt lat="46.34510065069556" lon="6.5415982330120475"><ele>485.0</ele><time>2026-05-01T12:18:26.001Z</time></trkpt><trkpt lat="46.34500164091586" lon="6.542036451980719"><ele>492.0</ele><time>2026-05-01T12:18:27.001Z</time></trkpt><trkpt lat="46.34490672148125" lon="6.542445441575767"><ele>499.0</ele><time>2026-05-01T12:18:28.001Z</time></trkpt><trkpt lat="46.34479912628595" lon="6.542854508418886"><ele>490.5</ele><time>2026-05-01T12:18:29.001Z</time></trkpt><trkpt lat="46.34466654380196" lon="6.543242465312846"><ele>482.0</ele><time>2026-05-01T12:18:30.001Z</time></trkpt><trkpt lat="46.34453448683953" lon="6.543598895473471"><ele>479.5</ele><time>2026-05-01T12:18:31.001Z</time></trkpt><trkpt lat="46.34441318587994" lon="6.5439267276652"><ele>477.0</ele><time>2026-05-01T12:18:32.001Z</time></trkpt><trkpt lat="46.344298984287114" lon="6.544248300718677"><ele>477.0</ele><time>2026-05-01T12:18:33.001Z</time></trkpt><trkpt lat="46.3441975948734" lon="6.544584310348328"><ele>477.0</ele><time>2026-05-01T12:18:34.001Z</time></trkpt><trkpt lat="46.344123671387976" lon="6.544907197809408"><ele>477.0</ele><time>2026-05-01T12:18:35.001Z</time></trkpt><trkpt lat="46.34408603704786" lon="6.54522103941224"><ele>477.0</ele><time>2026-05-01T12:18:36.001Z</time></trkpt><trkpt lat="46.34408010707825" lon="6.545514705097926"><ele>477.0</ele><time>2026-05-01T12:18:37.001Z</time></trkpt><trkpt lat="46.34408833521357" lon="6.5458047620053685"><ele>477.0</ele><time>2026-05-01T12:18:38.001Z</time></trkpt><trkpt lat="46.34412002766671" lon="6.54609119283693"><ele>477.0</ele><time>2026-05-01T12:18:39.001Z</time></trkpt><trkpt lat="46.34418323685396" lon="6.546370086877369"><ele>477.0</ele><time>2026-05-01T12:18:40.001Z</time></trkpt><trkpt lat="46.34428631823318" lon="6.54665663679149"><ele>477.0</ele><time>2026-05-01T12:18:41.001Z</time></trkpt><trkpt lat="46.344419684335264" lon="6.546922902031743"><ele>477.0</ele><time>2026-05-01T12:18:42.001Z</time></trkpt><trkpt lat="46.344545079621696" lon="6.5471528516505755"><ele>477.0</ele><time>2026-05-01T12:18:43.001Z</time></trkpt><trkpt lat="46.34464873881185" lon="6.5473751365932555"><ele>488.0</ele><time>2026-05-01T12:18:44.001Z</time></trkpt><trkpt lat="46.344727551505734" lon="6.547595148180171"><ele>499.0</ele><time>2026-05-01T12:18:45.001Z</time></trkpt><trkpt lat="46.34477510598502" lon="6.547821779019083"><ele>510.0</ele><time>2026-05-01T12:18:46.001Z</time></trkpt><trkpt lat="46.34478486809462" lon="6.548052658321537"><ele>510.0</ele><time>2026-05-01T12:18:47.001Z</time></trkpt><trkpt lat="46.344753471334556" lon="6.548282807355756"><ele>510.0</ele><time>2026-05-01T12:18:48.001Z</time></trkpt><trkpt lat="46.34468266722075" lon="6.548499366947002"><ele>510.0</ele><time>2026-05-01T12:18:49.001Z</time></trkpt><trkpt lat="46.34456885566892" lon="6.5487379316699"><ele>498.66666666666663</ele><time>2026-05-01T12:18:50.001Z</time></trkpt><trkpt lat="46.3444239387979" lon="6.5489612161750825"><ele>487.3333333333333</ele><time>2026-05-01T12:18:51.001Z</time></trkpt><trkpt lat="46.344249740475355" lon="6.5491545820858175"><ele>476.0</ele><time>2026-05-01T12:18:52.001Z</time></trkpt><trkpt lat="46.344047239770816" lon="6.54930591697165"><ele>479.3333333333333</ele><time>2026-05-01T12:18:53.001Z</time></trkpt><trkpt lat="46.34383931313405" lon="6.5494055600257175"><ele>482.66666666666663</ele><time>2026-05-01T12:18:54.001Z</time></trkpt><trkpt lat="46.343643761288746" lon="6.549482995524141"><ele>486.0</ele><time>2026-05-01T12:18:55.001Z</time></trkpt><trkpt lat="46.34346593666959" lon="6.549619610302963"><ele>486.0</ele><time>2026-05-01T12:18:56.001Z</time></trkpt><trkpt lat="46.343291097430736" lon="6.549826258183954"><ele>486.0</ele><time>2026-05-01T12:18:57.001Z</time></trkpt><trkpt lat="46.343141413825286" lon="6.550033512879444"><ele>486.0</ele><time>2026-05-01T12:18:58.001Z</time></trkpt><trkpt lat="46.34300384294899" lon="6.550256988017558"><ele>489.33333333333337</ele><time>2026-05-01T12:18:59.001Z</time></trkpt><trkpt lat="46.34288280035702" lon="6.550493428007405"><ele>492.6666666666667</ele><time>2026-05-01T12:19:00.001Z</time></trkpt><trkpt lat="46.34278614572576" lon="6.550761326350949"><ele>496.0</ele><time>2026-05-01T12:19:01.001Z</time></trkpt><trkpt lat="46.34271324491937" lon="6.551089452518446"><ele>492.0</ele><time>2026-05-01T12:19:02.001Z</time></trkpt><trkpt lat="46.34265173856852" lon="6.551446468487888"><ele>488.0</ele><time>2026-05-01T12:19:03.001Z</time></trkpt><trkpt lat="46.34258148012801" lon="6.551816636624358"><ele>492.0</ele><time>2026-05-01T12:19:04.001Z</time></trkpt><trkpt lat="46.34250564997247" lon="6.5521962737280255"><ele>496.0</ele><time>2026-05-01T12:19:05.001Z</time></trkpt><trkpt lat="46.34241627911277" lon="6.5525620588397775"><ele>501.0</ele><time>2026-05-01T12:19:06.001Z</time></trkpt><trkpt lat="46.342296588729084" lon="6.552907344266396"><ele>506.0</ele><time>2026-05-01T12:19:07.001Z</time></trkpt><trkpt lat="46.342143435446026" lon="6.5532449992071555"><ele>496.0</ele><time>2026-05-01T12:19:08.001Z</time></trkpt><trkpt lat="46.342003750505036" lon="6.553556118944216"><ele>486.0</ele><time>2026-05-01T12:19:09.001Z</time></trkpt><trkpt lat="46.34189808575053" lon="6.553852884326907"><ele>482.5</ele><time>2026-05-01T12:19:10.001Z</time></trkpt><trkpt lat="46.34181991010012" lon="6.5541718398724615"><ele>479.0</ele><time>2026-05-01T12:19:11.001Z</time></trkpt><trkpt lat="46.34176988004222" lon="6.5545449297619065"><ele>479.0</ele><time>2026-05-01T12:19:12.001Z</time></trkpt><trkpt lat="46.34170086446149" lon="6.554936307104371"><ele>479.0</ele><time>2026-05-01T12:19:13.001Z</time></trkpt><trkpt lat="46.34165944571525" lon="6.555309580324999"><ele>483.0</ele><time>2026-05-01T12:19:14.001Z</time></trkpt><trkpt lat="46.34164916205052" lon="6.555633506623511"><ele>487.0</ele><time>2026-05-01T12:19:15.001Z</time></trkpt><trkpt lat="46.34160014633013" lon="6.555898379828527"><ele>491.0</ele><time>2026-05-01T12:19:16.001Z</time></trkpt><trkpt lat="46.34152486308885" lon="6.556129155024197"><ele>488.3333333333333</ele><time>2026-05-01T12:19:17.001Z</time></trkpt><trkpt lat="46.34140387289099" lon="6.5563215899861955"><ele>485.66666666666663</ele><time>2026-05-01T12:19:18.001Z</time></trkpt><trkpt lat="46.3412410323442" lon="6.556511574600495"><ele>483.0</ele><time>2026-05-01T12:19:19.001Z</time></trkpt><trkpt lat="46.341076013461844" lon="6.556731105599936"><ele>483.0</ele><time>2026-05-01T12:19:20.001Z</time></trkpt><trkpt lat="46.34089962094891" lon="6.556977652327134"><ele>483.0</ele><time>2026-05-01T12:19:21.001Z</time></trkpt><trkpt lat="46.340735789246295" lon="6.557264704673638"><ele>481.0</ele><time>2026-05-01T12:19:22.001Z</time></trkpt><trkpt lat="46.34058692210494" lon="6.5575789966381866"><ele>479.0</ele><time>2026-05-01T12:19:23.001Z</time></trkpt><trkpt lat="46.34042768638054" lon="6.55785541639604"><ele>481.0</ele><time>2026-05-01T12:19:24.001Z</time></trkpt><trkpt lat="46.340278402420054" lon="6.558109770991367"><ele>483.0</ele><time>2026-05-01T12:19:25.001Z</time></trkpt><trkpt lat="46.34013183705188" lon="6.558372772745178"><ele>483.0</ele><time>2026-05-01T12:19:26.001Z</time></trkpt><trkpt lat="46.339999570959904" lon="6.558628459767717"><ele>483.0</ele><time>2026-05-01T12:19:27.001Z</time></trkpt><trkpt lat="46.33989807254977" lon="6.558892778542246"><ele>483.0</ele><time>2026-05-01T12:19:28.001Z</time></trkpt><trkpt lat="46.339806810727445" lon="6.559166374178333"><ele>485.66666666666663</ele><time>2026-05-01T12:19:29.001Z</time></trkpt><trkpt lat="46.33971100719263" lon="6.559463809607881"><ele>488.3333333333333</ele><time>2026-05-01T12:19:30.001Z</time></trkpt><trkpt lat="46.33962105281759" lon="6.559747141745316"><ele>491.0</ele><time>2026-05-01T12:19:31.001Z</time></trkpt><trkpt lat="46.33953239554888" lon="6.560016731521795"><ele>491.0</ele><time>2026-05-01T12:19:32.001Z</time></trkpt><trkpt lat="46.33946203120029" lon="6.560287132410116"><ele>491.0</ele><time>2026-05-01T12:19:33.001Z</time></trkpt><trkpt lat="46.33941271104524" lon="6.560596088330391"><ele>491.0</ele><time>2026-05-01T12:19:34.001Z</time></trkpt><trkpt lat="46.33938911390392" lon="6.560930482267152"><ele>492.0</ele><time>2026-05-01T12:19:35.001Z</time></trkpt><trkpt lat="46.33938298336498" lon="6.561286689944861"><ele>493.0</ele><time>2026-05-01T12:19:36.001Z</time></trkpt><trkpt lat="46.33934280976895" lon="6.561619798496315"><ele>493.0</ele><time>2026-05-01T12:19:37.001Z</time></trkpt><trkpt lat="46.33926861071244" lon="6.561930664396645"><ele>493.0</ele><time>2026-05-01T12:19:38.001Z</time></trkpt><trkpt lat="46.33916451442597" lon="6.562264802988209"><ele>495.5</ele><time>2026-05-01T12:19:39.001Z</time></trkpt><trkpt lat="46.33907661335135" lon="6.562607504566552"><ele>498.0</ele><time>2026-05-01T12:19:40.001Z</time></trkpt><trkpt lat="46.338994873201976" lon="6.562947156146728"><ele>505.0</ele><time>2026-05-01T12:19:41.001Z</time></trkpt><trkpt lat="46.338912647274604" lon="6.5632790723002"><ele>512.0</ele><time>2026-05-01T12:19:42.001Z</time></trkpt><trkpt lat="46.33880666142202" lon="6.563563323605358"><ele>504.5</ele><time>2026-05-01T12:19:43.001Z</time></trkpt><trkpt lat="46.338728502993106" lon="6.563863646722652"><ele>497.0</ele><time>2026-05-01T12:19:44.001Z</time></trkpt><trkpt lat="46.33865029030926" lon="6.564195410748627"><ele>497.5</ele><time>2026-05-01T12:19:45.001Z</time></trkpt><trkpt lat="46.338604097624625" lon="6.564556829456871"><ele>498.0</ele><time>2026-05-01T12:19:46.001Z</time></trkpt><trkpt lat="46.33855578566527" lon="6.564879935825883"><ele>498.0</ele><time>2026-05-01T12:19:47.001Z</time></trkpt><trkpt lat="46.33850601392248" lon="6.565175387080764"><ele>498.0</ele><time>2026-05-01T12:19:48.001Z</time></trkpt><trkpt lat="46.33843045378278" lon="6.56543151053854"><ele>498.0</ele><time>2026-05-01T12:19:49.001Z</time></trkpt><trkpt lat="46.33833772783085" lon="6.565700632369248"><ele>502.33333333333337</ele><time>2026-05-01T12:19:50.001Z</time></trkpt><trkpt lat="46.33818441089945" lon="6.565933164867927"><ele>506.6666666666667</ele><time>2026-05-01T12:19:51.001Z</time></trkpt><trkpt lat="46.338050305404906" lon="6.5661853719396674"><ele>511.0</ele><time>2026-05-01T12:19:52.001Z</time></trkpt><trkpt lat="46.33791452870436" lon="6.566403978531653"><ele>511.0</ele><time>2026-05-01T12:19:53.001Z</time></trkpt><trkpt lat="46.33779634184187" lon="6.566599848213956"><ele>511.0</ele><time>2026-05-01T12:19:54.001Z</time></trkpt><trkpt lat="46.33770012988117" lon="6.566786155071919"><ele>511.0</ele><time>2026-05-01T12:19:55.001Z</time></trkpt><trkpt lat="46.337637922987234" lon="6.566987662908623"><ele>513.0</ele><time>2026-05-01T12:19:56.001Z</time></trkpt><trkpt lat="46.33761412938165" lon="6.567201623616097"><ele>515.0</ele><time>2026-05-01T12:19:57.001Z</time></trkpt><trkpt lat="46.33762450023733" lon="6.567453607622806"><ele>517.0</ele><time>2026-05-01T12:19:58.001Z</time></trkpt><trkpt lat="46.33767050847286" lon="6.56773849280246"><ele>518.0</ele><time>2026-05-01T12:19:59.001Z</time></trkpt><trkpt lat="46.337725575387644" lon="6.5680528114688785"><ele>519.0</ele><time>2026-05-01T12:20:00.001Z</time></trkpt><trkpt lat="46.3377818880167" lon="6.568382756762085"><ele>519.0</ele><time>2026-05-01T12:20:01.001Z</time></trkpt><trkpt lat="46.33782732678784" lon="6.568691085917107"><ele>519.0</ele><time>2026-05-01T12:20:02.001Z</time></trkpt><trkpt lat="46.337855108723666" lon="6.568959679730463"><ele>519.0</ele><time>2026-05-01T12:20:03.001Z</time></trkpt><trkpt lat="46.33781126030445" lon="6.5692285931149135"><ele>519.3333333333334</ele><time>2026-05-01T12:20:04.001Z</time></trkpt><trkpt lat="46.33777744911799" lon="6.569511620515737"><ele>519.6666666666667</ele><time>2026-05-01T12:20:05.001Z</time></trkpt><trkpt lat="46.33778924873169" lon="6.5698004320728876"><ele>520.0</ele><time>2026-05-01T12:20:06.001Z</time></trkpt><trkpt lat="46.33783418440649" lon="6.570106302185555"><ele>531.0</ele><time>2026-05-01T12:20:07.001Z</time></trkpt><trkpt lat="46.33786408219051" lon="6.570450030907985"><ele>542.0</ele><time>2026-05-01T12:20:08.001Z</time></trkpt><trkpt lat="46.33793949709229" lon="6.570750753450176"><ele>542.0</ele><time>2026-05-01T12:20:09.001Z</time></trkpt><trkpt lat="46.337957091616886" lon="6.571046532940362"><ele>542.0</ele><time>2026-05-01T12:20:10.001Z</time></trkpt><trkpt lat="46.33798636919235" lon="6.571303633250388"><ele>542.0</ele><time>2026-05-01T12:20:11.001Z</time></trkpt><trkpt lat="46.33805752416125" lon="6.571524902367475"><ele>535.5</ele><time>2026-05-01T12:20:12.001Z</time></trkpt><trkpt lat="46.33812828329148" lon="6.571723171615744"><ele>529.0</ele><time>2026-05-01T12:20:13.001Z</time></trkpt><trkpt lat="46.338147885642194" lon="6.571917995337567"><ele>522.5</ele><time>2026-05-01T12:20:14.001Z</time></trkpt><trkpt lat="46.338100347498155" lon="6.572117771157107"><ele>516.0</ele><time>2026-05-01T12:20:15.001Z</time></trkpt><trkpt lat="46.338014370555825" lon="6.572300820403747"><ele>516.0</ele><time>2026-05-01T12:20:16.001Z</time></trkpt><trkpt lat="46.337882784958836" lon="6.57245912452747"><ele>516.0</ele><time>2026-05-01T12:20:17.001Z</time></trkpt><trkpt lat="46.33772396983538" lon="6.572612831892062"><ele>516.0</ele><time>2026-05-01T12:20:18.001Z</time></trkpt><trkpt lat="46.33754948887375" lon="6.572772894226414"><ele>515.5</ele><time>2026-05-01T12:20:19.001Z</time></trkpt><trkpt lat="46.33734774590312" lon="6.572920091328318"><ele>515.0</ele><time>2026-05-01T12:20:20.001Z</time></trkpt><trkpt lat="46.337122328020676" lon="6.573070761511793"><ele>515.0</ele><time>2026-05-01T12:20:21.001Z</time></trkpt><trkpt lat="46.33689941760438" lon="6.573257064033309"><ele>515.0</ele><time>2026-05-01T12:20:22.001Z</time></trkpt><trkpt lat="46.33667911355423" lon="6.573455831778628"><ele>515.0</ele><time>2026-05-01T12:20:23.001Z</time></trkpt><trkpt lat="46.33649199223849" lon="6.573639382449568"><ele>515.0</ele><time>2026-05-01T12:20:24.001Z</time></trkpt><trkpt lat="46.33633612749246" lon="6.573788355375344"><ele>515.0</ele><time>2026-05-01T12:20:25.001Z</time></trkpt><trkpt lat="46.336208472378445" lon="6.573954445419152"><ele>515.0</ele><time>2026-05-01T12:20:26.001Z</time></trkpt><trkpt lat="46.33610519331421" lon="6.574147363612421"><ele>515.0</ele><time>2026-05-01T12:20:27.001Z</time></trkpt><trkpt lat="46.33604522072276" lon="6.574351366578173"><ele>515.0</ele><time>2026-05-01T12:20:28.001Z</time></trkpt><trkpt lat="46.33601123229666" lon="6.574582280895121"><ele>523.6666666666666</ele><time>2026-05-01T12:20:29.001Z</time></trkpt><trkpt lat="46.33597659215643" lon="6.574792689392556"><ele>532.3333333333334</ele><time>2026-05-01T12:20:30.001Z</time></trkpt><trkpt lat="46.33589753034135" lon="6.574976733077598"><ele>541.0</ele><time>2026-05-01T12:20:31.001Z</time></trkpt><trkpt lat="46.33575684641177" lon="6.575139618162963"><ele>541.0</ele><time>2026-05-01T12:20:32.001Z</time></trkpt><trkpt lat="46.33557191298839" lon="6.575271634476138"><ele>541.0</ele><time>2026-05-01T12:20:33.001Z</time></trkpt><trkpt lat="46.33537596493872" lon="6.575406502719773"><ele>541.0</ele><time>2026-05-01T12:20:34.001Z</time></trkpt><trkpt lat="46.33519302328353" lon="6.575560827055316"><ele>536.3333333333334</ele><time>2026-05-01T12:20:35.001Z</time></trkpt><trkpt lat="46.33504417115808" lon="6.575713188237855"><ele>531.6666666666666</ele><time>2026-05-01T12:20:36.001Z</time></trkpt><trkpt lat="46.33491861295602" lon="6.57591456853306"><ele>527.0</ele><time>2026-05-01T12:20:37.001Z</time></trkpt><trkpt lat="46.33479442473443" lon="6.5761256370358065"><ele>529.3333333333333</ele><time>2026-05-01T12:20:38.001Z</time></trkpt><trkpt lat="46.334680622364466" lon="6.576357071942728"><ele>531.6666666666666</ele><time>2026-05-01T12:20:39.001Z</time></trkpt><trkpt lat="46.334589877913494" lon="6.576583766547213"><ele>534.0</ele><time>2026-05-01T12:20:40.001Z</time></trkpt><trkpt lat="46.334523100585145" lon="6.576800115239578"><ele>534.0</ele><time>2026-05-01T12:20:41.001Z</time></trkpt><trkpt lat="46.33444557061252" lon="6.5770067543868"><ele>534.0</ele><time>2026-05-01T12:20:42.001Z</time></trkpt><trkpt lat="46.33431598677328" lon="6.57719635361849"><ele>534.0</ele><time>2026-05-01T12:20:43.001Z</time></trkpt><trkpt lat="46.3341653803932" lon="6.577345211334309"><ele>531.6666666666666</ele><time>2026-05-01T12:20:44.001Z</time></trkpt><trkpt lat="46.33397615496576" lon="6.577489740255555"><ele>529.3333333333333</ele><time>2026-05-01T12:20:45.001Z</time></trkpt><trkpt lat="46.33377229821518" lon="6.577628739838831"><ele>527.0</ele><time>2026-05-01T12:20:46.001Z</time></trkpt><trkpt lat="46.33354823744052" lon="6.577785021209056"><ele>539.5</ele><time>2026-05-01T12:20:47.001Z</time></trkpt><trkpt lat="46.33333226253328" lon="6.577964458287576"><ele>552.0</ele><time>2026-05-01T12:20:48.001Z</time></trkpt><trkpt lat="46.33313876061299" lon="6.578137927456223"><ele>552.0</ele><time>2026-05-01T12:20:49.001Z</time></trkpt><trkpt lat="46.33295125509996" lon="6.5782993996821535"><ele>552.0</ele><time>2026-05-01T12:20:50.001Z</time></trkpt><trkpt lat="46.332761704285254" lon="6.578463598328864"><ele>552.0</ele><time>2026-05-01T12:20:51.001Z</time></trkpt><trkpt lat="46.332581342706085" lon="6.578628805996948"><ele>548.5</ele><time>2026-05-01T12:20:52.001Z</time></trkpt><trkpt lat="46.33237837312235" lon="6.578806037301081"><ele>545.0</ele><time>2026-05-01T12:20:53.079Z</time></trkpt><trkpt lat="46.33194689161568" lon="6.5787256466011765"><ele>545.0</ele><time>2026-05-01T12:20:55.001Z</time></trkpt><trkpt lat="46.33187797807818" lon="6.578830509397588"><ele>545.0</ele><time>2026-05-01T12:20:56.001Z</time></trkpt><trkpt lat="46.33178817689081" lon="6.578968544637411"><ele>545.0</ele><time>2026-05-01T12:20:57.001Z</time></trkpt><trkpt lat="46.331691276128375" lon="6.579146038991879"><ele>545.0</ele><time>2026-05-01T12:20:58.001Z</time></trkpt><trkpt lat="46.331621419294116" lon="6.5793790559979035"><ele>541.0</ele><time>2026-05-01T12:20:59.001Z</time></trkpt><trkpt lat="46.331565328522885" lon="6.579640906725148"><ele>537.0</ele><time>2026-05-01T12:21:00.001Z</time></trkpt><trkpt lat="46.33153640344157" lon="6.5799108147960625"><ele>533.0</ele><time>2026-05-01T12:21:01.001Z</time></trkpt><trkpt lat="46.33152925232601" lon="6.580150548173677"><ele>539.3333333333333</ele><time>2026-05-01T12:21:02.001Z</time></trkpt><trkpt lat="46.33154450452901" lon="6.580393305873551"><ele>545.6666666666666</ele><time>2026-05-01T12:21:03.001Z</time></trkpt><trkpt lat="46.33152563635311" lon="6.580600120599914"><ele>552.0</ele><time>2026-05-01T12:21:04.001Z</time></trkpt><trkpt lat="46.33146268058359" lon="6.580806928796316"><ele>549.5</ele><time>2026-05-01T12:21:05.001Z</time></trkpt><trkpt lat="46.33136592391013" lon="6.5809922172745035"><ele>547.0</ele><time>2026-05-01T12:21:06.001Z</time></trkpt><trkpt lat="46.33124011554876" lon="6.581109593222294"><ele>544.5</ele><time>2026-05-01T12:21:07.001Z</time></trkpt><trkpt lat="46.33111917425906" lon="6.5811761263291935"><ele>542.0</ele><time>2026-05-01T12:21:08.001Z</time></trkpt><trkpt lat="46.330993454048055" lon="6.58117322322533"><ele>542.0</ele><time>2026-05-01T12:21:09.001Z</time></trkpt><trkpt lat="46.33081523706646" lon="6.581130315206682"><ele>542.0</ele><time>2026-05-01T12:21:10.001Z</time></trkpt><trkpt lat="46.33067173004597" lon="6.581066960023328"><ele>542.0</ele><time>2026-05-01T12:21:11.001Z</time></trkpt><trkpt lat="46.33053547593499" lon="6.581047874998663"><ele>543.0</ele><time>2026-05-01T12:21:12.001Z</time></trkpt><trkpt lat="46.33040410231493" lon="6.581087093652327"><ele>544.0</ele><time>2026-05-01T12:21:13.001Z</time></trkpt><trkpt lat="46.33026555322611" lon="6.581175705071737"><ele>545.0</ele><time>2026-05-01T12:21:14.001Z</time></trkpt><trkpt lat="46.33014058009146" lon="6.581313460220206"><ele>546.0</ele><time>2026-05-01T12:21:15.001Z</time></trkpt><trkpt lat="46.33004089938654" lon="6.581488741162242"><ele>546.0</ele><time>2026-05-01T12:21:16.001Z</time></trkpt><trkpt lat="46.32996717538099" lon="6.5816513756557935"><ele>546.0</ele><time>2026-05-01T12:21:17.001Z</time></trkpt><trkpt lat="46.32986539161111" lon="6.581805310338245"><ele>546.0</ele><time>2026-05-01T12:21:18.001Z</time></trkpt><trkpt lat="46.329769188549335" lon="6.581931098239302"><ele>546.0</ele><time>2026-05-01T12:21:19.001Z</time></trkpt><trkpt lat="46.3296356719406" lon="6.581988444373646"><ele>550.0</ele><time>2026-05-01T12:21:20.001Z</time></trkpt><trkpt lat="46.329479869671125" lon="6.581987922918731"><ele>554.0</ele><time>2026-05-01T12:21:21.001Z</time></trkpt><trkpt lat="46.32930698622635" lon="6.581979877788164"><ele>558.0</ele><time>2026-05-01T12:21:22.001Z</time></trkpt><trkpt lat="46.32913537478813" lon="6.582027803995463"><ele>552.6666666666666</ele><time>2026-05-01T12:21:23.001Z</time></trkpt><trkpt lat="46.32896506489402" lon="6.582112302403107"><ele>547.3333333333333</ele><time>2026-05-01T12:21:24.001Z</time></trkpt><trkpt lat="46.328795232772094" lon="6.58227052832886"><ele>542.0</ele><time>2026-05-01T12:21:25.001Z</time></trkpt><trkpt lat="46.32862590507584" lon="6.582487017713189"><ele>542.0</ele><time>2026-05-01T12:21:26.001Z</time></trkpt><trkpt lat="46.32846211311696" lon="6.582756234936378"><ele>542.0</ele><time>2026-05-01T12:21:27.001Z</time></trkpt><trkpt lat="46.32828663739402" lon="6.5830517423949875"><ele>538.0</ele><time>2026-05-01T12:21:28.001Z</time></trkpt><trkpt lat="46.32809760014945" lon="6.5833155550671645"><ele>534.0</ele><time>2026-05-01T12:21:29.001Z</time></trkpt><trkpt lat="46.32794720021765" lon="6.583547381245486"><ele>537.6666666666666</ele><time>2026-05-01T12:21:30.001Z</time></trkpt><trkpt lat="46.32780690161107" lon="6.58373911065213"><ele>541.3333333333333</ele><time>2026-05-01T12:21:31.001Z</time></trkpt><trkpt lat="46.32764475279255" lon="6.583923062676528"><ele>545.0</ele><time>2026-05-01T12:21:32.001Z</time></trkpt><trkpt lat="46.32745621465922" lon="6.584085618049501"><ele>545.0</ele><time>2026-05-01T12:21:33.001Z</time></trkpt><trkpt lat="46.32728406134009" lon="6.584222794413232"><ele>545.0</ele><time>2026-05-01T12:21:34.001Z</time></trkpt><trkpt lat="46.32712332685002" lon="6.584332735815666"><ele>545.0</ele><time>2026-05-01T12:21:35.001Z</time></trkpt><trkpt lat="46.326962438763786" lon="6.584452633553322"><ele>552.0</ele><time>2026-05-01T12:21:36.001Z</time></trkpt><trkpt lat="46.32679456610255" lon="6.58457003462109"><ele>559.0</ele><time>2026-05-01T12:21:37.001Z</time></trkpt><trkpt lat="46.32663199167442" lon="6.584693899071638"><ele>566.0</ele><time>2026-05-01T12:21:38.001Z</time></trkpt><trkpt lat="46.32646278363284" lon="6.584821655699415"><ele>562.0</ele><time>2026-05-01T12:21:39.001Z</time></trkpt><trkpt lat="46.326338404568006" lon="6.585011183985043"><ele>558.0</ele><time>2026-05-01T12:21:40.001Z</time></trkpt><trkpt lat="46.326189214694644" lon="6.5852052657743005"><ele>554.0</ele><time>2026-05-01T12:21:41.076Z</time></trkpt><trkpt lat="46.3260384809531" lon="6.585371117214682"><ele>553.0</ele><time>2026-05-01T12:21:42.058Z</time></trkpt><trkpt lat="46.32555910939722" lon="6.585739041145906"><ele>553.0</ele><time>2026-05-01T12:21:45.001Z</time></trkpt><trkpt lat="46.32540028399685" lon="6.585807212338356"><ele>553.0</ele><time>2026-05-01T12:21:46.001Z</time></trkpt><trkpt lat="46.32528470837928" lon="6.585849919487738"><ele>553.0</ele><time>2026-05-01T12:21:47.001Z</time></trkpt><trkpt lat="46.32519155315271" lon="6.585929446342037"><ele>553.0</ele><time>2026-05-01T12:21:48.001Z</time></trkpt><trkpt lat="46.3250815476318" lon="6.58601674666602"><ele>553.0</ele><time>2026-05-01T12:21:49.001Z</time></trkpt><trkpt lat="46.32500093270862" lon="6.586144912474877"><ele>553.0</ele><time>2026-05-01T12:21:50.001Z</time></trkpt><trkpt lat="46.324957914375936" lon="6.586274985202604"><ele>553.0</ele><time>2026-05-01T12:21:51.001Z</time></trkpt><trkpt lat="46.32490577538446" lon="6.586414256647719"><ele>553.0</ele><time>2026-05-01T12:21:52.001Z</time></trkpt><trkpt lat="46.32483989624399" lon="6.586542112673147"><ele>553.0</ele><time>2026-05-01T12:21:53.001Z</time></trkpt><trkpt lat="46.32478721418212" lon="6.586663817011468"><ele>551.8333333333334</ele><time>2026-05-01T12:21:54.001Z</time></trkpt><trkpt lat="46.32474138460075" lon="6.586770980186893"><ele>550.6666666666667</ele><time>2026-05-01T12:21:55.001Z</time></trkpt><trkpt lat="46.32470020909834" lon="6.586865827558468"><ele>549.5</ele><time>2026-05-01T12:21:56.001Z</time></trkpt><trkpt lat="46.32466731440678" lon="6.586967250789935"><ele>548.3333333333334</ele><time>2026-05-01T12:21:57.001Z</time></trkpt><trkpt lat="46.324627026477756" lon="6.5870486051259105"><ele>547.1666666666666</ele><time>2026-05-01T12:21:58.001Z</time></trkpt><trkpt lat="46.32458271832499" lon="6.587125683456647"><ele>546.0</ele><time>2026-05-01T12:21:59.001Z</time></trkpt><trkpt lat="46.32451142628719" lon="6.587201779690532"><ele>546.0</ele><time>2026-05-01T12:22:00.001Z</time></trkpt><trkpt lat="46.324421834504776" lon="6.587267266458349"><ele>546.0</ele><time>2026-05-01T12:22:01.001Z</time></trkpt><trkpt lat="46.32434830924567" lon="6.587338609681417"><ele>546.0</ele><time>2026-05-01T12:22:02.001Z</time></trkpt><trkpt lat="46.324283603325455" lon="6.587430170448728"><ele>546.0</ele><time>2026-05-01T12:22:03.001Z</time></trkpt><trkpt lat="46.32427412637401" lon="6.587598604365669"><ele>546.0</ele><time>2026-05-01T12:22:04.001Z</time></trkpt><trkpt lat="46.32426939771344" lon="6.587783451203329"><ele>547.3333333333334</ele><time>2026-05-01T12:22:05.001Z</time></trkpt><trkpt lat="46.32422396730268" lon="6.587964934019937"><ele>548.6666666666667</ele><time>2026-05-01T12:22:06.001Z</time></trkpt><trkpt lat="46.324147549025476" lon="6.588153754303082"><ele>550.0</ele><time>2026-05-01T12:22:07.001Z</time></trkpt><trkpt lat="46.32409093175332" lon="6.588385963887157"><ele>550.0</ele><time>2026-05-01T12:22:08.001Z</time></trkpt><trkpt lat="46.3240385983415" lon="6.5886455888805"><ele>550.0</ele><time>2026-05-01T12:22:09.001Z</time></trkpt><trkpt lat="46.324017636775515" lon="6.5889255067192805"><ele>550.0</ele><time>2026-05-01T12:22:10.001Z</time></trkpt><trkpt lat="46.32402606682084" lon="6.589162394782318"><ele>551.3333333333334</ele><time>2026-05-01T12:22:11.001Z</time></trkpt><trkpt lat="46.32405195002871" lon="6.589384283686543"><ele>552.6666666666666</ele><time>2026-05-01T12:22:12.001Z</time></trkpt><trkpt lat="46.32409448089996" lon="6.589640928071703"><ele>554.0</ele><time>2026-05-01T12:22:13.001Z</time></trkpt><trkpt lat="46.32412771310026" lon="6.589917116656286"><ele>555.3333333333333</ele><time>2026-05-01T12:22:14.001Z</time></trkpt><trkpt lat="46.32417660012834" lon="6.590177793946714"><ele>556.6666666666666</ele><time>2026-05-01T12:22:15.001Z</time></trkpt><trkpt lat="46.32422001597119" lon="6.590407856937615"><ele>558.0</ele><time>2026-05-01T12:22:16.001Z</time></trkpt><trkpt lat="46.32425958176869" lon="6.590617518372382"><ele>558.0</ele><time>2026-05-01T12:22:17.001Z</time></trkpt><trkpt lat="46.32430516034961" lon="6.5908654382677785"><ele>558.0</ele><time>2026-05-01T12:22:18.001Z</time></trkpt><trkpt lat="46.32434211367181" lon="6.5910753080884845"><ele>558.0</ele><time>2026-05-01T12:22:19.001Z</time></trkpt><trkpt lat="46.324367562990716" lon="6.591277055737912"><ele>557.0</ele><time>2026-05-01T12:22:20.001Z</time></trkpt><trkpt lat="46.324376358413105" lon="6.591463254197134"><ele>556.0</ele><time>2026-05-01T12:22:21.001Z</time></trkpt><trkpt lat="46.32436729729446" lon="6.591665969294194"><ele>555.0</ele><time>2026-05-01T12:22:22.001Z</time></trkpt><trkpt lat="46.32433400533494" lon="6.591876816251035"><ele>554.0</ele><time>2026-05-01T12:22:23.001Z</time></trkpt><trkpt lat="46.324296605341324" lon="6.592085121288904"><ele>552.3333333333333</ele><time>2026-05-01T12:22:24.001Z</time></trkpt><trkpt lat="46.32425518996712" lon="6.5923075038266425"><ele>550.6666666666666</ele><time>2026-05-01T12:22:25.001Z</time></trkpt><trkpt lat="46.324221840637875" lon="6.592562622475001"><ele>549.0</ele><time>2026-05-01T12:22:26.001Z</time></trkpt><trkpt lat="46.324173096999914" lon="6.592821482343327"><ele>550.6666666666666</ele><time>2026-05-01T12:22:27.001Z</time></trkpt><trkpt lat="46.32413353788781" lon="6.593063024765273"><ele>552.3333333333333</ele><time>2026-05-01T12:22:28.001Z</time></trkpt><trkpt lat="46.32410863960704" lon="6.593311417232752"><ele>554.0</ele><time>2026-05-01T12:22:29.001Z</time></trkpt><trkpt lat="46.324082107662406" lon="6.593611675589613"><ele>556.0</ele><time>2026-05-01T12:22:30.001Z</time></trkpt><trkpt lat="46.32408494230056" lon="6.59397445785753"><ele>558.0</ele><time>2026-05-01T12:22:31.001Z</time></trkpt><trkpt lat="46.324095072517714" lon="6.594355276540463"><ele>558.5</ele><time>2026-05-01T12:22:32.001Z</time></trkpt><trkpt lat="46.324103021052665" lon="6.594744697782041"><ele>559.0</ele><time>2026-05-01T12:22:33.001Z</time></trkpt><trkpt lat="46.32410946541184" lon="6.595089544621981"><ele>560.3333333333334</ele><time>2026-05-01T12:22:34.001Z</time></trkpt><trkpt lat="46.32412786933893" lon="6.595404337252729"><ele>561.6666666666666</ele><time>2026-05-01T12:22:35.001Z</time></trkpt><trkpt lat="46.32412940973208" lon="6.595720313821593"><ele>563.0</ele><time>2026-05-01T12:22:36.001Z</time></trkpt><trkpt lat="46.32413499215785" lon="6.596041781799094"><ele>566.6666666666666</ele><time>2026-05-01T12:22:37.001Z</time></trkpt><trkpt lat="46.324137694845916" lon="6.596338987156422"><ele>570.3333333333334</ele><time>2026-05-01T12:22:38.001Z</time></trkpt><trkpt lat="46.324134380466646" lon="6.596614416050338"><ele>574.0</ele><time>2026-05-01T12:22:39.001Z</time></trkpt><trkpt lat="46.3241171789779" lon="6.596879595694251"><ele>574.0</ele><time>2026-05-01T12:22:40.001Z</time></trkpt><trkpt lat="46.32411060007536" lon="6.597161155091223"><ele>574.0</ele><time>2026-05-01T12:22:41.001Z</time></trkpt><trkpt lat="46.32411805800018" lon="6.597425854221973"><ele>574.0</ele><time>2026-05-01T12:22:42.001Z</time></trkpt><trkpt lat="46.324102825226774" lon="6.597662733421006"><ele>570.5</ele><time>2026-05-01T12:22:43.001Z</time></trkpt><trkpt lat="46.32407144489135" lon="6.597870509721612"><ele>567.0</ele><time>2026-05-01T12:22:44.001Z</time></trkpt><trkpt lat="46.324029760080265" lon="6.598071671713945"><ele>563.5</ele><time>2026-05-01T12:22:45.001Z</time></trkpt><trkpt lat="46.323962491702645" lon="6.598263597050803"><ele>560.0</ele><time>2026-05-01T12:22:46.001Z</time></trkpt><trkpt lat="46.32386744052563" lon="6.598410700143218"><ele>563.0</ele><time>2026-05-01T12:22:47.001Z</time></trkpt><trkpt lat="46.32375708376869" lon="6.598550809842064"><ele>566.0</ele><time>2026-05-01T12:22:48.001Z</time></trkpt><trkpt lat="46.32365465870502" lon="6.5987049466863335"><ele>569.0</ele><time>2026-05-01T12:22:49.001Z</time></trkpt><trkpt lat="46.32354010141444" lon="6.5988239156098505"><ele>572.0</ele><time>2026-05-01T12:22:50.001Z</time></trkpt><trkpt lat="46.32341157469227" lon="6.598912752360039"><ele>572.0</ele><time>2026-05-01T12:22:51.001Z</time></trkpt><trkpt lat="46.32326905271943" lon="6.598977103883981"><ele>572.0</ele><time>2026-05-01T12:22:52.001Z</time></trkpt><trkpt lat="46.323136891281614" lon="6.599055462527622"><ele>572.0</ele><time>2026-05-01T12:22:53.001Z</time></trkpt><trkpt lat="46.32301137737539" lon="6.599164265864665"><ele>572.0</ele><time>2026-05-01T12:22:54.001Z</time></trkpt><trkpt lat="46.32287051428441" lon="6.599228612265363"><ele>581.0</ele><time>2026-05-01T12:22:55.001Z</time></trkpt><trkpt lat="46.32274468191797" lon="6.599286462656088"><ele>590.0</ele><time>2026-05-01T12:22:56.001Z</time></trkpt><trkpt lat="46.32259338672568" lon="6.5993288999156166"><ele>599.0</ele><time>2026-05-01T12:22:57.001Z</time></trkpt><trkpt lat="46.32242418837679" lon="6.599342829934995"><ele>613.3333333333333</ele><time>2026-05-01T12:22:58.001Z</time></trkpt><trkpt lat="46.32222974414913" lon="6.599373781775164"><ele>627.6666666666666</ele><time>2026-05-01T12:22:59.001Z</time></trkpt><trkpt lat="46.322013497304376" lon="6.599395108290551"><ele>642.0</ele><time>2026-05-01T12:23:00.001Z</time></trkpt><trkpt lat="46.32178786775366" lon="6.5994885164076145"><ele>627.0</ele><time>2026-05-01T12:23:01.001Z</time></trkpt><trkpt lat="46.321582911697774" lon="6.599577126426717"><ele>612.0</ele><time>2026-05-01T12:23:02.001Z</time></trkpt><trkpt lat="46.32139440763789" lon="6.599648011923605"><ele>597.0</ele><time>2026-05-01T12:23:03.001Z</time></trkpt><trkpt lat="46.321204591652005" lon="6.599713367803393"><ele>596.6666666666666</ele><time>2026-05-01T12:23:04.001Z</time></trkpt><trkpt lat="46.32101942401961" lon="6.599774503638469"><ele>596.3333333333333</ele><time>2026-05-01T12:23:05.001Z</time></trkpt><trkpt lat="46.32085655424437" lon="6.599828279554942"><ele>596.0</ele><time>2026-05-01T12:23:06.001Z</time></trkpt><trkpt lat="46.3206945465919" lon="6.599881768757403"><ele>600.0</ele><time>2026-05-01T12:23:07.001Z</time></trkpt><trkpt lat="46.32052467406114" lon="6.599939372696306"><ele>604.0</ele><time>2026-05-01T12:23:08.001Z</time></trkpt><trkpt lat="46.320342861127514" lon="6.60000483491278"><ele>608.0</ele><time>2026-05-01T12:23:09.001Z</time></trkpt><trkpt lat="46.320161916940044" lon="6.600074190361594"><ele>608.0</ele><time>2026-05-01T12:23:10.001Z</time></trkpt><trkpt lat="46.31999813705257" lon="6.600137019735995"><ele>608.0</ele><time>2026-05-01T12:23:11.001Z</time></trkpt><trkpt lat="46.31985242254032" lon="6.600192918844865"><ele>608.0</ele><time>2026-05-01T12:23:12.001Z</time></trkpt><trkpt lat="46.31969611893867" lon="6.600249486898557"><ele>602.3333333333333</ele><time>2026-05-01T12:23:13.001Z</time></trkpt><trkpt lat="46.319520505239524" lon="6.600311564474649"><ele>596.6666666666666</ele><time>2026-05-01T12:23:14.001Z</time></trkpt><trkpt lat="46.319368747826864" lon="6.6003649383367"><ele>591.0</ele><time>2026-05-01T12:23:15.001Z</time></trkpt><trkpt lat="46.319239659081205" lon="6.60042828532584"><ele>591.0</ele><time>2026-05-01T12:23:16.001Z</time></trkpt><trkpt lat="46.31911750515876" lon="6.600464698999493"><ele>591.0</ele><time>2026-05-01T12:23:17.001Z</time></trkpt><trkpt lat="46.31900135011784" lon="6.600501839098917"><ele>591.0</ele><time>2026-05-01T12:23:18.001Z</time></trkpt><trkpt lat="46.318885262559576" lon="6.600543055456122"><ele>591.0</ele><time>2026-05-01T12:23:19.001Z</time></trkpt><trkpt lat="46.31876359749409" lon="6.600597871984143"><ele>592.25</ele><time>2026-05-01T12:23:20.001Z</time></trkpt><trkpt lat="46.318624266654524" lon="6.600675813377972"><ele>593.5</ele><time>2026-05-01T12:23:21.001Z</time></trkpt><trkpt lat="46.31853044296986" lon="6.600846042485641"><ele>594.75</ele><time>2026-05-01T12:23:22.001Z</time></trkpt><trkpt lat="46.31844339147199" lon="6.60101247224431"><ele>596.0</ele><time>2026-05-01T12:23:23.001Z</time></trkpt><trkpt lat="46.31838307776151" lon="6.601181875397704"><ele>596.0</ele><time>2026-05-01T12:23:24.001Z</time></trkpt><trkpt lat="46.31831341951372" lon="6.601332767745281"><ele>596.0</ele><time>2026-05-01T12:23:25.001Z</time></trkpt><trkpt lat="46.31821321064057" lon="6.60142346379826"><ele>596.0</ele><time>2026-05-01T12:23:26Z</time></trkpt><trkpt lat="46.318087206366734" lon="6.601478314381388"><ele>596.0</ele><time>2026-05-01T12:23:27Z</time></trkpt><trkpt lat="46.3179632935279" lon="6.601534193364005"><ele>603.0</ele><time>2026-05-01T12:23:28Z</time></trkpt><trkpt lat="46.317856370383225" lon="6.601631592698452"><ele>610.0</ele><time>2026-05-01T12:23:29Z</time></trkpt><trkpt lat="46.31781386696368" lon="6.601814613526201"><ele>617.0</ele><time>2026-05-01T12:23:30Z</time></trkpt><trkpt lat="46.31777866923939" lon="6.602009441244661"><ele>624.0</ele><time>2026-05-01T12:23:31Z</time></trkpt><trkpt lat="46.3177592051575" lon="6.602214418085277"><ele>624.0</ele><time>2026-05-01T12:23:32Z</time></trkpt><trkpt lat="46.31776495740086" lon="6.602350699367701"><ele>624.0</ele><time>2026-05-01T12:23:33Z</time></trkpt><trkpt lat="46.317766063702834" lon="6.602527938320412"><ele>624.0</ele><time>2026-05-01T12:23:34Z</time></trkpt><trkpt lat="46.31773049324462" lon="6.6026665272047795"><ele>624.0</ele><time>2026-05-01T12:23:35Z</time></trkpt><trkpt lat="46.31768441966598" lon="6.6027517982772785"><ele>624.0</ele><time>2026-05-01T12:23:36Z</time></trkpt><trkpt lat="46.31762514777175" lon="6.602801019345493"><ele>624.0</ele><time>2026-05-01T12:23:37Z</time></trkpt><trkpt lat="46.31754740776503" lon="6.602809589980432"><ele>624.0</ele><time>2026-05-01T12:23:38Z</time></trkpt><trkpt lat="46.31746397808448" lon="6.602790155282233"><ele>624.0</ele><time>2026-05-01T12:23:39Z</time></trkpt><trkpt lat="46.31735692862266" lon="6.602780996826862"><ele>624.0</ele><time>2026-05-01T12:23:40Z</time></trkpt><trkpt lat="46.31725954532447" lon="6.602796917469111"><ele>624.0</ele><time>2026-05-01T12:23:41Z</time></trkpt><trkpt lat="46.31717934101185" lon="6.602868413396238"><ele>630.0</ele><time>2026-05-01T12:23:42Z</time></trkpt><trkpt lat="46.317117535684595" lon="6.6029709545735455"><ele>636.0</ele><time>2026-05-01T12:23:43.001Z</time></trkpt><trkpt lat="46.31708545004081" lon="6.60310156040137"><ele>642.0</ele><time>2026-05-01T12:23:44.001Z</time></trkpt><trkpt lat="46.317090389104415" lon="6.603242599522257"><ele>648.0</ele><time>2026-05-01T12:23:45.001Z</time></trkpt><trkpt lat="46.317130861415926" lon="6.603383545689887"><ele>654.0</ele><time>2026-05-01T12:23:46.001Z</time></trkpt><trkpt lat="46.317190265685575" lon="6.603517591972461"><ele>654.0</ele><time>2026-05-01T12:23:47.001Z</time></trkpt><trkpt lat="46.31723420899545" lon="6.603638712927504"><ele>654.0</ele><time>2026-05-01T12:23:48.001Z</time></trkpt><trkpt lat="46.31723613312802" lon="6.603762925030524"><ele>654.0</ele><time>2026-05-01T12:23:49.001Z</time></trkpt><trkpt lat="46.31720084662995" lon="6.603875224796539"><ele>654.0</ele><time>2026-05-01T12:23:50.001Z</time></trkpt><trkpt lat="46.31712838757805" lon="6.603979774821938"><ele>654.0</ele><time>2026-05-01T12:23:51.001Z</time></trkpt><trkpt lat="46.31702824327874" lon="6.604104984558312"><ele>648.5</ele><time>2026-05-01T12:23:52.001Z</time></trkpt><trkpt lat="46.316915446352645" lon="6.60421694033497"><ele>643.0</ele><time>2026-05-01T12:23:53.001Z</time></trkpt><trkpt lat="46.316815687492145" lon="6.604321137853023"><ele>637.5</ele><time>2026-05-01T12:23:54.001Z</time></trkpt><trkpt lat="46.31672323912582" lon="6.604411454675223"><ele>632.0</ele><time>2026-05-01T12:23:55.001Z</time></trkpt><trkpt lat="46.31664397945885" lon="6.604494296311093"><ele>634.0</ele><time>2026-05-01T12:23:56.001Z</time></trkpt><trkpt lat="46.316555458691965" lon="6.6045351686919815"><ele>636.0</ele><time>2026-05-01T12:23:57.001Z</time></trkpt><trkpt lat="46.31645435270341" lon="6.604548966672959"><ele>638.0</ele><time>2026-05-01T12:23:58.001Z</time></trkpt><trkpt lat="46.31634601196324" lon="6.604542418628204"><ele>640.0</ele><time>2026-05-01T12:23:59.001Z</time></trkpt><trkpt lat="46.31624892535814" lon="6.604569040240971"><ele>642.0</ele><time>2026-05-01T12:24:00.001Z</time></trkpt><trkpt lat="46.316165236633374" lon="6.604647928274767"><ele>642.0</ele><time>2026-05-01T12:24:01.001Z</time></trkpt><trkpt lat="46.316110614397985" lon="6.604756789617866"><ele>642.0</ele><time>2026-05-01T12:24:02.001Z</time></trkpt><trkpt lat="46.316084263921795" lon="6.604885583009987"><ele>642.0</ele><time>2026-05-01T12:24:03.001Z</time></trkpt><trkpt lat="46.31606892320865" lon="6.604995123652776"><ele>642.0</ele><time>2026-05-01T12:24:04.001Z</time></trkpt><trkpt lat="46.31600155793427" lon="6.605080236862427"><ele>642.0</ele><time>2026-05-01T12:24:05.001Z</time></trkpt><trkpt lat="46.31593033254722" lon="6.605134175731905"><ele>642.0</ele><time>2026-05-01T12:24:06.001Z</time></trkpt><trkpt lat="46.315841524096356" lon="6.605148348404481"><ele>642.0</ele><time>2026-05-01T12:24:07.001Z</time></trkpt><trkpt lat="46.31574352506597" lon="6.6051368826147865"><ele>642.0</ele><time>2026-05-01T12:24:08.001Z</time></trkpt><trkpt lat="46.31563162196077" lon="6.605131883160629"><ele>642.0</ele><time>2026-05-01T12:24:09.001Z</time></trkpt><trkpt lat="46.315521813470596" lon="6.6051531422302805"><ele>642.0</ele><time>2026-05-01T12:24:10.001Z</time></trkpt><trkpt lat="46.31542998546556" lon="6.605197570718403"><ele>642.0</ele><time>2026-05-01T12:24:11.001Z</time></trkpt><trkpt lat="46.315339568262154" lon="6.605227256336712"><ele>648.1666666666666</ele><time>2026-05-01T12:24:12.001Z</time></trkpt><trkpt lat="46.315255732281976" lon="6.605266188514443"><ele>654.3333333333334</ele><time>2026-05-01T12:24:13.001Z</time></trkpt><trkpt lat="46.31519572925622" lon="6.605349023993439"><ele>660.5</ele><time>2026-05-01T12:24:14.001Z</time></trkpt><trkpt lat="46.31515139912767" lon="6.605464974880143"><ele>666.6666666666667</ele><time>2026-05-01T12:24:15.001Z</time></trkpt><trkpt lat="46.315138712233356" lon="6.605592160375075"><ele>672.8333333333334</ele><time>2026-05-01T12:24:16.001Z</time></trkpt><trkpt lat="46.3151755059963" lon="6.605710629393755"><ele>679.0</ele><time>2026-05-01T12:24:17.001Z</time></trkpt><trkpt lat="46.31522261954831" lon="6.605828481783616"><ele>679.0</ele><time>2026-05-01T12:24:18.001Z</time></trkpt><trkpt lat="46.315293012865105" lon="6.605919457844616"><ele>679.0</ele><time>2026-05-01T12:24:19.001Z</time></trkpt><trkpt lat="46.31536659068925" lon="6.606006936130971"><ele>679.0</ele><time>2026-05-01T12:24:20.001Z</time></trkpt><trkpt lat="46.31543549168328" lon="6.6060733969565755"><ele>679.0</ele><time>2026-05-01T12:24:21.001Z</time></trkpt><trkpt lat="46.31548143681692" lon="6.606181586736829"><ele>679.0</ele><time>2026-05-01T12:24:22.001Z</time></trkpt><trkpt lat="46.31547435859851" lon="6.606333090036451"><ele>680.5</ele><time>2026-05-01T12:24:23.001Z</time></trkpt><trkpt lat="46.31546968600735" lon="6.606536883041307"><ele>682.0</ele><time>2026-05-01T12:24:24.001Z</time></trkpt><trkpt lat="46.31547520826092" lon="6.606731804944359"><ele>683.5</ele><time>2026-05-01T12:24:25.001Z</time></trkpt><trkpt lat="46.315486492519206" lon="6.6068961753482665"><ele>685.0</ele><time>2026-05-01T12:24:26.001Z</time></trkpt><trkpt lat="46.31548925860359" lon="6.607059336902805"><ele>686.6666666666667</ele><time>2026-05-01T12:24:27.001Z</time></trkpt><trkpt lat="46.31545069816963" lon="6.607245709754672"><ele>688.3333333333334</ele><time>2026-05-01T12:24:28.001Z</time></trkpt><trkpt lat="46.31538738384616" lon="6.607500121375285"><ele>690.0</ele><time>2026-05-01T12:24:29.001Z</time></trkpt><trkpt lat="46.31532606643702" lon="6.607801087634805"><ele>687.3333333333334</ele><time>2026-05-01T12:24:30.001Z</time></trkpt><trkpt lat="46.315285414012806" lon="6.608145482877038"><ele>684.6666666666667</ele><time>2026-05-01T12:24:31.001Z</time></trkpt><trkpt lat="46.31527043314686" lon="6.608436752698115"><ele>682.0</ele><time>2026-05-01T12:24:32.001Z</time></trkpt><trkpt lat="46.31527126833018" lon="6.608681258766877"><ele>675.25</ele><time>2026-05-01T12:24:33.001Z</time></trkpt><trkpt lat="46.31525194725187" lon="6.60888340252087"><ele>668.5</ele><time>2026-05-01T12:24:34.001Z</time></trkpt><trkpt lat="46.31522698386483" lon="6.609062466172627"><ele>661.75</ele><time>2026-05-01T12:24:35.001Z</time></trkpt><trkpt lat="46.31511841299584" lon="6.609208760465663"><ele>655.0</ele><time>2026-05-01T12:24:36.001Z</time></trkpt><trkpt lat="46.31499183479359" lon="6.609372066194995"><ele>652.3333333333334</ele><time>2026-05-01T12:24:37.001Z</time></trkpt><trkpt lat="46.31486728495934" lon="6.609553439768253"><ele>649.6666666666666</ele><time>2026-05-01T12:24:38.001Z</time></trkpt><trkpt lat="46.31472878499219" lon="6.609694247262683"><ele>647.0</ele><time>2026-05-01T12:24:39.001Z</time></trkpt><trkpt lat="46.3146099409615" lon="6.6098281751446555"><ele>647.0</ele><time>2026-05-01T12:24:40.001Z</time></trkpt><trkpt lat="46.31450557178559" lon="6.609940117838225"><ele>647.0</ele><time>2026-05-01T12:24:41.001Z</time></trkpt><trkpt lat="46.31440179706814" lon="6.610041188415541"><ele>647.0</ele><time>2026-05-01T12:24:42.001Z</time></trkpt><trkpt lat="46.314314423522454" lon="6.610129227722506"><ele>647.0</ele><time>2026-05-01T12:24:43.001Z</time></trkpt><trkpt lat="46.314212960245165" lon="6.610149211497531"><ele>647.0</ele><time>2026-05-01T12:24:44.001Z</time></trkpt><trkpt lat="46.31411647408004" lon="6.610110995925464"><ele>647.0</ele><time>2026-05-01T12:24:45.001Z</time></trkpt><trkpt lat="46.31402609809155" lon="6.610029614699455"><ele>647.0</ele><time>2026-05-01T12:24:46.001Z</time></trkpt><trkpt lat="46.313947630269276" lon="6.609910642967802"><ele>647.0</ele><time>2026-05-01T12:24:47.001Z</time></trkpt><trkpt lat="46.31391521862589" lon="6.609731092280333"><ele>647.0</ele><time>2026-05-01T12:24:48Z</time></trkpt><trkpt lat="46.313890873730045" lon="6.609512643453141"><ele>648.2</ele><time>2026-05-01T12:24:49Z</time></trkpt><trkpt lat="46.31385048061332" lon="6.609326284245566"><ele>649.4000000000001</ele><time>2026-05-01T12:24:50Z</time></trkpt><trkpt lat="46.31379726883208" lon="6.609198570734618"><ele>650.5999999999999</ele><time>2026-05-01T12:24:51Z</time></trkpt><trkpt lat="46.313753137284266" lon="6.609076788251582"><ele>651.8</ele><time>2026-05-01T12:24:52Z</time></trkpt><trkpt lat="46.313697419279876" lon="6.608946396133412"><ele>653.0</ele><time>2026-05-01T12:24:53Z</time></trkpt><trkpt lat="46.313631806063064" lon="6.6088290179105895"><ele>653.0</ele><time>2026-05-01T12:24:54Z</time></trkpt><trkpt lat="46.31355657329716" lon="6.608756936195303"><ele>653.0</ele><time>2026-05-01T12:24:55Z</time></trkpt><trkpt lat="46.31346771355554" lon="6.608742471326962"><ele>653.0</ele><time>2026-05-01T12:24:56Z</time></trkpt><trkpt lat="46.3133748420688" lon="6.608760276124224"><ele>653.0</ele><time>2026-05-01T12:24:57Z</time></trkpt><trkpt lat="46.31329520421232" lon="6.608832055585354"><ele>653.0</ele><time>2026-05-01T12:24:58Z</time></trkpt><trkpt lat="46.31323155523125" lon="6.608936676169204"><ele>653.0</ele><time>2026-05-01T12:24:59Z</time></trkpt><trkpt lat="46.31314742170142" lon="6.609003840626741"><ele>653.0</ele><time>2026-05-01T12:25:00Z</time></trkpt><trkpt lat="46.31307307259199" lon="6.609064049647554"><ele>653.0</ele><time>2026-05-01T12:25:01Z</time></trkpt><trkpt lat="46.31299619271798" lon="6.609076900333903"><ele>653.0</ele><time>2026-05-01T12:25:02Z</time></trkpt><trkpt lat="46.312907297032844" lon="6.609047068704096"><ele>653.0</ele><time>2026-05-01T12:25:03Z</time></trkpt><trkpt lat="46.31280941314956" lon="6.608993155709371"><ele>653.8</ele><time>2026-05-01T12:25:04Z</time></trkpt><trkpt lat="46.312718297053415" lon="6.608900885086089"><ele>654.5999999999999</ele><time>2026-05-01T12:25:05Z</time></trkpt><trkpt lat="46.31262582326923" lon="6.6088311082459095"><ele>655.4000000000001</ele><time>2026-05-01T12:25:06Z</time></trkpt><trkpt lat="46.31253405355291" lon="6.608796539631857"><ele>656.2</ele><time>2026-05-01T12:25:07Z</time></trkpt><trkpt lat="46.312432083489476" lon="6.608804791803394"><ele>657.0</ele><time>2026-05-01T12:25:08Z</time></trkpt><trkpt lat="46.312322081698284" lon="6.608849694412628"><ele>662.8</ele><time>2026-05-01T12:25:09Z</time></trkpt><trkpt lat="46.312188038954766" lon="6.608881423616321"><ele>668.6</ele><time>2026-05-01T12:25:10Z</time></trkpt><trkpt lat="46.312097794119566" lon="6.608884131409338"><ele>674.4</ele><time>2026-05-01T12:25:11Z</time></trkpt><trkpt lat="46.312002241522805" lon="6.6088865236819565"><ele>680.1999999999999</ele><time>2026-05-01T12:25:12Z</time></trkpt><trkpt lat="46.311890292009615" lon="6.608902744735602"><ele>686.0</ele><time>2026-05-01T12:25:13Z</time></trkpt><trkpt lat="46.311774156711415" lon="6.60895154114562"><ele>686.0</ele><time>2026-05-01T12:25:14Z</time></trkpt><trkpt lat="46.31167271086073" lon="6.609032299535837"><ele>686.0</ele><time>2026-05-01T12:25:15Z</time></trkpt><trkpt lat="46.311608123152325" lon="6.609134302396478"><ele>686.0</ele><time>2026-05-01T12:25:16Z</time></trkpt><trkpt lat="46.31154793784257" lon="6.609223846573183"><ele>686.0</ele><time>2026-05-01T12:25:17Z</time></trkpt><trkpt lat="46.31147569437144" lon="6.609305125977697"><ele>686.0</ele><time>2026-05-01T12:25:18Z</time></trkpt><trkpt lat="46.31139021375806" lon="6.609357907291534"><ele>682.3333333333333</ele><time>2026-05-01T12:25:19Z</time></trkpt><trkpt lat="46.31128487443715" lon="6.6093777984931"><ele>678.6666666666666</ele><time>2026-05-01T12:25:20Z</time></trkpt><trkpt lat="46.31111795405227" lon="6.60940047271381"><ele>675.0</ele><time>2026-05-01T12:25:21Z</time></trkpt><trkpt lat="46.310949213080214" lon="6.609527003643577"><ele>675.0</ele><time>2026-05-01T12:25:22Z</time></trkpt><trkpt lat="46.31081503248424" lon="6.609650048514992"><ele>675.0</ele><time>2026-05-01T12:25:23Z</time></trkpt><trkpt lat="46.31068861159465" lon="6.609726605131447"><ele>675.0</ele><time>2026-05-01T12:25:24Z</time></trkpt><trkpt lat="46.310558564955336" lon="6.6097330162624255"><ele>675.0</ele><time>2026-05-01T12:25:25Z</time></trkpt><trkpt lat="46.310431879983746" lon="6.609674244613811"><ele>682.25</ele><time>2026-05-01T12:25:26Z</time></trkpt><trkpt lat="46.3103082674937" lon="6.609624742377711"><ele>689.5</ele><time>2026-05-01T12:25:27Z</time></trkpt><trkpt lat="46.31020220186759" lon="6.609615116680919"><ele>696.75</ele><time>2026-05-01T12:25:28Z</time></trkpt><trkpt lat="46.310098688539505" lon="6.609678426914917"><ele>704.0</ele><time>2026-05-01T12:25:29Z</time></trkpt><trkpt lat="46.310029923312484" lon="6.609833036425378"><ele>704.0</ele><time>2026-05-01T12:25:30Z</time></trkpt><trkpt lat="46.31000938405856" lon="6.610019934981844"><ele>704.0</ele><time>2026-05-01T12:25:31Z</time></trkpt><trkpt lat="46.31000016944117" lon="6.61019879442262"><ele>704.0</ele><time>2026-05-01T12:25:32Z</time></trkpt><trkpt lat="46.30995645245632" lon="6.610400909644799"><ele>704.0</ele><time>2026-05-01T12:25:33Z</time></trkpt><trkpt lat="46.309878269057" lon="6.610577900382639"><ele>706.6666666666666</ele><time>2026-05-01T12:25:34Z</time></trkpt><trkpt lat="46.30977394387412" lon="6.610745606020613"><ele>709.3333333333334</ele><time>2026-05-01T12:25:35Z</time></trkpt><trkpt lat="46.3096642684023" lon="6.610918167622227"><ele>712.0</ele><time>2026-05-01T12:25:36Z</time></trkpt><trkpt lat="46.309523873862766" lon="6.611045879722419"><ele>712.0</ele><time>2026-05-01T12:25:37Z</time></trkpt><trkpt lat="46.309352814511584" lon="6.611119535751056"><ele>712.0</ele><time>2026-05-01T12:25:38Z</time></trkpt><trkpt lat="46.30919508670439" lon="6.611214475389955"><ele>712.0</ele><time>2026-05-01T12:25:39Z</time></trkpt><trkpt lat="46.309060020425854" lon="6.611317401675041"><ele>709.6666666666667</ele><time>2026-05-01T12:25:40Z</time></trkpt><trkpt lat="46.30891089091498" lon="6.611351300614799"><ele>707.3333333333334</ele><time>2026-05-01T12:25:41Z</time></trkpt><trkpt lat="46.30874967121357" lon="6.611321739707032"><ele>705.0</ele><time>2026-05-01T12:25:42Z</time></trkpt><trkpt lat="46.30858904482611" lon="6.611360985862786"><ele>705.0</ele><time>2026-05-01T12:25:43Z</time></trkpt><trkpt lat="46.308436578025805" lon="6.611492214626978"><ele>705.0</ele><time>2026-05-01T12:25:44Z</time></trkpt><trkpt lat="46.30827374194794" lon="6.611670815391242"><ele>705.0</ele><time>2026-05-01T12:25:45Z</time></trkpt><trkpt lat="46.308086925298966" lon="6.611837879282723"><ele>706.0</ele><time>2026-05-01T12:25:46Z</time></trkpt><trkpt lat="46.30789634196366" lon="6.612032243140887"><ele>707.0</ele><time>2026-05-01T12:25:47Z</time></trkpt><trkpt lat="46.307709681381404" lon="6.612231760903978"><ele>707.0</ele><time>2026-05-01T12:25:48Z</time></trkpt><trkpt lat="46.3075776979614" lon="6.612465180575883"><ele>707.0</ele><time>2026-05-01T12:25:49.001Z</time></trkpt><trkpt lat="46.30745717701867" lon="6.612661169072809"><ele>707.0</ele><time>2026-05-01T12:25:50.001Z</time></trkpt><trkpt lat="46.30734382206225" lon="6.612835852262808"><ele>709.5</ele><time>2026-05-01T12:25:51.001Z</time></trkpt><trkpt lat="46.3072281556395" lon="6.612990733725353"><ele>712.0</ele><time>2026-05-01T12:25:52.001Z</time></trkpt><trkpt lat="46.30716686850142" lon="6.613157858180414"><ele>714.5</ele><time>2026-05-01T12:25:53.001Z</time></trkpt><trkpt lat="46.30709175126504" lon="6.613343251179782"><ele>717.0</ele><time>2026-05-01T12:25:54.001Z</time></trkpt><trkpt lat="46.30702080690894" lon="6.613473994035797"><ele>717.0</ele><time>2026-05-01T12:25:55.001Z</time></trkpt><trkpt lat="46.306928182040075" lon="6.613559552766652"><ele>717.0</ele><time>2026-05-01T12:25:56.001Z</time></trkpt><trkpt lat="46.30681745622139" lon="6.613621637948842"><ele>717.0</ele><time>2026-05-01T12:25:57.001Z</time></trkpt><trkpt lat="46.306679440282316" lon="6.6136411255076535"><ele>717.0</ele><time>2026-05-01T12:25:58.001Z</time></trkpt><trkpt lat="46.306525882401104" lon="6.613621383657803"><ele>719.25</ele><time>2026-05-01T12:25:59.001Z</time></trkpt><trkpt lat="46.30638539585912" lon="6.613601051227659"><ele>721.5</ele><time>2026-05-01T12:26:00.001Z</time></trkpt><trkpt lat="46.30626595605555" lon="6.613652672963717"><ele>723.75</ele><time>2026-05-01T12:26:01.001Z</time></trkpt><trkpt lat="46.3061619690825" lon="6.613756550334968"><ele>726.0</ele><time>2026-05-01T12:26:02.001Z</time></trkpt><trkpt lat="46.30607431694813" lon="6.6139133352418575"><ele>719.0</ele><time>2026-05-01T12:26:03.001Z</time></trkpt><trkpt lat="46.30599583825989" lon="6.614122461865731"><ele>712.0</ele><time>2026-05-01T12:26:04.001Z</time></trkpt><trkpt lat="46.30588574528244" lon="6.614321204153412"><ele>705.0</ele><time>2026-05-01T12:26:05.001Z</time></trkpt><trkpt lat="46.30576907489187" lon="6.614466056066236"><ele>705.2</ele><time>2026-05-01T12:26:06.001Z</time></trkpt><trkpt lat="46.305653472117626" lon="6.614580294748941"><ele>705.4</ele><time>2026-05-01T12:26:07.001Z</time></trkpt><trkpt lat="46.30556608613719" lon="6.614663522962061"><ele>705.5999999999999</ele><time>2026-05-01T12:26:08.001Z</time></trkpt><trkpt lat="46.30548877065669" lon="6.614698841665383"><ele>705.8</ele><time>2026-05-01T12:26:10.001Z</time></trkpt><trkpt lat="46.30540671902434" lon="6.61478769566405"><ele>706.0</ele><time>2026-05-01T12:26:31.001Z</time></trkpt><trkpt lat="46.30535506289697" lon="6.61484851884102"><ele>706.0</ele><time>2026-05-01T12:26:32.001Z</time></trkpt><trkpt lat="46.30528715345797" lon="6.614929317704084"><ele>706.0</ele><time>2026-05-01T12:26:33Z</time></trkpt><trkpt lat="46.30519993291852" lon="6.614983985380115"><ele>706.0</ele><time>2026-05-01T12:26:34Z</time></trkpt><trkpt lat="46.30511152308347" lon="6.615086154601845"><ele>706.0</ele><time>2026-05-01T12:26:35Z</time></trkpt><trkpt lat="46.30500202009944" lon="6.615179792948183"><ele>706.0</ele><time>2026-05-01T12:26:36Z</time></trkpt><trkpt lat="46.304880163863025" lon="6.6152649189049475"><ele>703.8</ele><time>2026-05-01T12:26:37Z</time></trkpt><trkpt lat="46.30477236256088" lon="6.6153623771045575"><ele>701.5999999999999</ele><time>2026-05-01T12:26:38Z</time></trkpt><trkpt lat="46.30467551454873" lon="6.615450401657748"><ele>699.4</ele><time>2026-05-01T12:26:39Z</time></trkpt><trkpt lat="46.304592814917314" lon="6.615528066577305"><ele>697.2</ele><time>2026-05-01T12:26:40Z</time></trkpt><trkpt lat="46.30451239706713" lon="6.615600198420542"><ele>695.0</ele><time>2026-05-01T12:26:41Z</time></trkpt><trkpt lat="46.30442998967475" lon="6.615658229634141"><ele>695.0</ele><time>2026-05-01T12:26:42Z</time></trkpt><trkpt lat="46.30434442757193" lon="6.615730846857621"><ele>695.0</ele><time>2026-05-01T12:26:43Z</time></trkpt><trkpt lat="46.3042318663813" lon="6.615783322347056"><ele>695.0</ele><time>2026-05-01T12:26:44Z</time></trkpt><trkpt lat="46.3041039356925" lon="6.615797806020088"><ele>695.0</ele><time>2026-05-01T12:26:45Z</time></trkpt><trkpt lat="46.30399984889193" lon="6.6158108713163655"><ele>694.5</ele><time>2026-05-01T12:26:46Z</time></trkpt><trkpt lat="46.30389709278602" lon="6.615840804336901"><ele>694.0</ele><time>2026-05-01T12:26:47Z</time></trkpt><trkpt lat="46.303788508531554" lon="6.615816798764826"><ele>693.5</ele><time>2026-05-01T12:26:48Z</time></trkpt><trkpt lat="46.303675215406315" lon="6.615767324929614"><ele>693.0</ele><time>2026-05-01T12:26:49Z</time></trkpt><trkpt lat="46.303570526731036" lon="6.61569012216214"><ele>693.0</ele><time>2026-05-01T12:26:50Z</time></trkpt><trkpt lat="46.30347572549241" lon="6.61555349062737"><ele>693.0</ele><time>2026-05-01T12:26:51Z</time></trkpt><trkpt lat="46.303352748710026" lon="6.615440893340717"><ele>693.0</ele><time>2026-05-01T12:26:52Z</time></trkpt><trkpt lat="46.303228786164354" lon="6.615321738855946"><ele>693.0</ele><time>2026-05-01T12:26:53Z</time></trkpt><trkpt lat="46.30311085962282" lon="6.61521530944874"><ele>693.25</ele><time>2026-05-01T12:26:54Z</time></trkpt><trkpt lat="46.302995844837895" lon="6.615109276517024"><ele>693.5</ele><time>2026-05-01T12:26:55Z</time></trkpt><trkpt lat="46.30286425911785" lon="6.614989575011633"><ele>693.75</ele><time>2026-05-01T12:26:56Z</time></trkpt><trkpt lat="46.302738224761214" lon="6.614875896963124"><ele>694.0</ele><time>2026-05-01T12:26:57Z</time></trkpt><trkpt lat="46.30262890370178" lon="6.614777293651056"><ele>694.0</ele><time>2026-05-01T12:26:58Z</time></trkpt><trkpt lat="46.30253255092047" lon="6.614690387225076"><ele>694.0</ele><time>2026-05-01T12:26:59Z</time></trkpt><trkpt lat="46.302447799267455" lon="6.614613944552505"><ele>694.0</ele><time>2026-05-01T12:27:00Z</time></trkpt><trkpt lat="46.30236418767284" lon="6.614538530174225"><ele>694.0</ele><time>2026-05-01T12:27:01Z</time></trkpt><trkpt lat="46.30227920112207" lon="6.614494808405588"><ele>694.0</ele><time>2026-05-01T12:27:02Z</time></trkpt><trkpt lat="46.30219421614412" lon="6.614421187776801"><ele>693.75</ele><time>2026-05-01T12:27:03Z</time></trkpt><trkpt lat="46.30208409821959" lon="6.614361876140143"><ele>693.5</ele><time>2026-05-01T12:27:04Z</time></trkpt><trkpt lat="46.30195305609155" lon="6.614337955285733"><ele>693.25</ele><time>2026-05-01T12:27:05Z</time></trkpt><trkpt lat="46.30179393111753" lon="6.614357646097871"><ele>693.0</ele><time>2026-05-01T12:27:06Z</time></trkpt><trkpt lat="46.301611050073696" lon="6.6144018651181185"><ele>693.0</ele><time>2026-05-01T12:27:07Z</time></trkpt><trkpt lat="46.30144412883172" lon="6.614439184145463"><ele>693.0</ele><time>2026-05-01T12:27:08Z</time></trkpt><trkpt lat="46.30129662423222" lon="6.61445655526499"><ele>693.0</ele><time>2026-05-01T12:27:09Z</time></trkpt><trkpt lat="46.30114442215531" lon="6.6144790154738535"><ele>692.25</ele><time>2026-05-01T12:27:10Z</time></trkpt><trkpt lat="46.300993646470914" lon="6.614505387140215"><ele>691.5</ele><time>2026-05-01T12:27:11Z</time></trkpt><trkpt lat="46.30086515998798" lon="6.614568564002233"><ele>690.75</ele><time>2026-05-01T12:27:12Z</time></trkpt><trkpt lat="46.30076525824971" lon="6.614653090951927"><ele>690.0</ele><time>2026-05-01T12:27:13Z</time></trkpt><trkpt lat="46.300677722386524" lon="6.614758915245028"><ele>685.25</ele><time>2026-05-01T12:27:14Z</time></trkpt><trkpt lat="46.30057407777988" lon="6.61488435736758"><ele>680.5</ele><time>2026-05-01T12:27:15Z</time></trkpt><trkpt lat="46.300492497291145" lon="6.615042166748189"><ele>675.75</ele><time>2026-05-01T12:27:16Z</time></trkpt><trkpt lat="46.3004114704765" lon="6.615197418856012"><ele>671.0</ele><time>2026-05-01T12:27:17Z</time></trkpt><trkpt lat="46.30032862542003" lon="6.615351246113856"><ele>671.0</ele><time>2026-05-01T12:27:18Z</time></trkpt><trkpt lat="46.30025189900614" lon="6.615488735369348"><ele>671.0</ele><time>2026-05-01T12:27:19Z</time></trkpt><trkpt lat="46.30017987723012" lon="6.615610561260502"><ele>671.0</ele><time>2026-05-01T12:27:20Z</time></trkpt><trkpt lat="46.300097309127" lon="6.615707755267222"><ele>671.0</ele><time>2026-05-01T12:27:21Z</time></trkpt><trkpt lat="46.29999950860074" lon="6.615783956910565"><ele>671.0</ele><time>2026-05-01T12:27:22Z</time></trkpt><trkpt lat="46.299878740410506" lon="6.615837654152343"><ele>671.0</ele><time>2026-05-01T12:27:23Z</time></trkpt><trkpt lat="46.299758730806225" lon="6.615872228668182"><ele>671.0</ele><time>2026-05-01T12:27:24Z</time></trkpt><trkpt lat="46.2996281620412" lon="6.615884796494504"><ele>671.0</ele><time>2026-05-01T12:27:25Z</time></trkpt><trkpt lat="46.29949521546825" lon="6.615878540029335"><ele>671.25</ele><time>2026-05-01T12:27:26Z</time></trkpt><trkpt lat="46.29938689524495" lon="6.615832221398572"><ele>671.5</ele><time>2026-05-01T12:27:27Z</time></trkpt><trkpt lat="46.299280792971025" lon="6.615759211472167"><ele>671.75</ele><time>2026-05-01T12:27:28Z</time></trkpt><trkpt lat="46.299172990136576" lon="6.615648071041426"><ele>672.0</ele><time>2026-05-01T12:27:29Z</time></trkpt><trkpt lat="46.29906654885408" lon="6.615537951928404"><ele>672.0</ele><time>2026-05-01T12:27:30Z</time></trkpt><trkpt lat="46.29897957191591" lon="6.615463295146786"><ele>672.0</ele><time>2026-05-01T12:27:31Z</time></trkpt><trkpt lat="46.298882643330465" lon="6.615420282546528"><ele>672.0</ele><time>2026-05-01T12:27:32Z</time></trkpt><trkpt lat="46.29876363683457" lon="6.615410461098216"><ele>672.0</ele><time>2026-05-01T12:27:33Z</time></trkpt><trkpt lat="46.29862226120458" lon="6.615435086016196"><ele>671.0</ele><time>2026-05-01T12:27:34Z</time></trkpt><trkpt lat="46.29847453303027" lon="6.615448290753622"><ele>670.0</ele><time>2026-05-01T12:27:35Z</time></trkpt><trkpt lat="46.29835400124853" lon="6.615439840946272"><ele>669.0</ele><time>2026-05-01T12:27:36Z</time></trkpt><trkpt lat="46.298231318177365" lon="6.615394366649354"><ele>668.0</ele><time>2026-05-01T12:27:37Z</time></trkpt><trkpt lat="46.298115135982535" lon="6.6153142705927594"><ele>673.75</ele><time>2026-05-01T12:27:38Z</time></trkpt><trkpt lat="46.29799835396529" lon="6.615221920273406"><ele>679.5</ele><time>2026-05-01T12:27:39Z</time></trkpt><trkpt lat="46.29786888606288" lon="6.6151408723603575"><ele>685.25</ele><time>2026-05-01T12:27:40Z</time></trkpt><trkpt lat="46.29773067541193" lon="6.615085872433131"><ele>691.0</ele><time>2026-05-01T12:27:41Z</time></trkpt><trkpt lat="46.297574037747445" lon="6.615065541230853"><ele>691.0</ele><time>2026-05-01T12:27:42Z</time></trkpt><trkpt lat="46.29740638588049" lon="6.615112389898375"><ele>691.0</ele><time>2026-05-01T12:27:43Z</time></trkpt><trkpt lat="46.29724415064966" lon="6.615122219690708"><ele>691.0</ele><time>2026-05-01T12:27:44Z</time></trkpt><trkpt lat="46.297105442564195" lon="6.615122102685489"><ele>689.3333333333334</ele><time>2026-05-01T12:27:45Z</time></trkpt><trkpt lat="46.296965380938666" lon="6.615103422951747"><ele>687.6666666666666</ele><time>2026-05-01T12:27:46Z</time></trkpt><trkpt lat="46.296799102156974" lon="6.615101610141254"><ele>686.0</ele><time>2026-05-01T12:27:47Z</time></trkpt><trkpt lat="46.296622013305935" lon="6.615119305822361"><ele>686.0</ele><time>2026-05-01T12:27:48Z</time></trkpt><trkpt lat="46.2964547694588" lon="6.615123202045625"><ele>686.0</ele><time>2026-05-01T12:27:49Z</time></trkpt><trkpt lat="46.29631026557136" lon="6.6150835392912875"><ele>686.0</ele><time>2026-05-01T12:27:50Z</time></trkpt><trkpt lat="46.296174098975484" lon="6.614992094567321"><ele>682.3333333333333</ele><time>2026-05-01T12:27:51Z</time></trkpt><trkpt lat="46.296030076061115" lon="6.614850811637695"><ele>678.6666666666666</ele><time>2026-05-01T12:27:52Z</time></trkpt><trkpt lat="46.295868481955885" lon="6.614691322553705"><ele>675.0</ele><time>2026-05-01T12:27:53Z</time></trkpt><trkpt lat="46.29569375551756" lon="6.614529339092697"><ele>677.6666666666666</ele><time>2026-05-01T12:27:54Z</time></trkpt><trkpt lat="46.29551225650076" lon="6.614406887981381"><ele>680.3333333333333</ele><time>2026-05-01T12:27:55.001Z</time></trkpt><trkpt lat="46.295308954186346" lon="6.614324420149379"><ele>683.0</ele><time>2026-05-01T12:27:56.001Z</time></trkpt><trkpt lat="46.295076249337235" lon="6.614247269852663"><ele>683.0</ele><time>2026-05-01T12:27:57.001Z</time></trkpt><trkpt lat="46.29484766401941" lon="6.614183515946893"><ele>683.0</ele><time>2026-05-01T12:27:58.001Z</time></trkpt><trkpt lat="46.29465691861834" lon="6.614122045765742"><ele>683.0</ele><time>2026-05-01T12:27:59.001Z</time></trkpt><trkpt lat="46.294493798091445" lon="6.6140738178620015"><ele>681.5</ele><time>2026-05-01T12:28:00.001Z</time></trkpt><trkpt lat="46.294354119323714" lon="6.614043684510393"><ele>680.0</ele><time>2026-05-01T12:28:01.001Z</time></trkpt><trkpt lat="46.29421794779501" lon="6.614050941284379"><ele>678.5</ele><time>2026-05-01T12:28:02.001Z</time></trkpt><trkpt lat="46.29408241455009" lon="6.61410879388798"><ele>677.0</ele><time>2026-05-01T12:28:03.001Z</time></trkpt><trkpt lat="46.293960575333884" lon="6.614208532156315"><ele>676.5</ele><time>2026-05-01T12:28:04.001Z</time></trkpt><trkpt lat="46.293855714631256" lon="6.61436495461622"><ele>676.0</ele><time>2026-05-01T12:28:05.001Z</time></trkpt><trkpt lat="46.29376835770582" lon="6.614543720476019"><ele>675.5</ele><time>2026-05-01T12:28:06.001Z</time></trkpt><trkpt lat="46.29368270743994" lon="6.614699279561866"><ele>675.0</ele><time>2026-05-01T12:28:07.001Z</time></trkpt><trkpt lat="46.293559741075" lon="6.6148188946259285"><ele>675.0</ele><time>2026-05-01T12:28:08.001Z</time></trkpt><trkpt lat="46.29339781960531" lon="6.614921853617251"><ele>675.0</ele><time>2026-05-01T12:28:09.001Z</time></trkpt><trkpt lat="46.293211961406655" lon="6.614962584622467"><ele>675.0</ele><time>2026-05-01T12:28:10.001Z</time></trkpt><trkpt lat="46.29301880617063" lon="6.6150380876525725"><ele>677.3333333333334</ele><time>2026-05-01T12:28:11.001Z</time></trkpt><trkpt lat="46.29281090761587" lon="6.6151169424447955"><ele>679.6666666666667</ele><time>2026-05-01T12:28:12.001Z</time></trkpt><trkpt lat="46.29260997438901" lon="6.615213998518631"><ele>682.0</ele><time>2026-05-01T12:28:13.001Z</time></trkpt><trkpt lat="46.29241977903337" lon="6.615273405013015"><ele>681.3333333333334</ele><time>2026-05-01T12:28:14.001Z</time></trkpt><trkpt lat="46.29220938343931" lon="6.615292585044994"><ele>680.6666666666666</ele><time>2026-05-01T12:28:15.001Z</time></trkpt><trkpt lat="46.291989787522866" lon="6.615300971812715"><ele>680.0</ele><time>2026-05-01T12:28:16.001Z</time></trkpt><trkpt lat="46.29175822029063" lon="6.615311756537311"><ele>676.6666666666666</ele><time>2026-05-01T12:28:17.001Z</time></trkpt><trkpt lat="46.29153117384645" lon="6.615324261094241"><ele>673.3333333333334</ele><time>2026-05-01T12:28:18.001Z</time></trkpt><trkpt lat="46.291339078830774" lon="6.615333723122656"><ele>670.0</ele><time>2026-05-01T12:28:19.001Z</time></trkpt><trkpt lat="46.29118114514608" lon="6.615332231544112"><ele>671.6666666666667</ele><time>2026-05-01T12:28:20.001Z</time></trkpt><trkpt lat="46.29101909675721" lon="6.615331376825268"><ele>673.3333333333334</ele><time>2026-05-01T12:28:21.001Z</time></trkpt><trkpt lat="46.290852131769554" lon="6.615328113720445"><ele>675.0</ele><time>2026-05-01T12:28:22Z</time></trkpt><trkpt lat="46.29069605878565" lon="6.615272806134198"><ele>673.0</ele><time>2026-05-01T12:28:23Z</time></trkpt><trkpt lat="46.290537972839616" lon="6.615189810087094"><ele>671.0</ele><time>2026-05-01T12:28:24Z</time></trkpt><trkpt lat="46.29036470486083" lon="6.615096781113223"><ele>669.0</ele><time>2026-05-01T12:28:25Z</time></trkpt><trkpt lat="46.2902166712568" lon="6.614940713450856"><ele>669.0</ele><time>2026-05-01T12:28:26Z</time></trkpt><trkpt lat="46.29008119889502" lon="6.614806262233844"><ele>669.0</ele><time>2026-05-01T12:28:27Z</time></trkpt><trkpt lat="46.28995708885302" lon="6.614636543069421"><ele>669.0</ele><time>2026-05-01T12:28:28Z</time></trkpt><trkpt lat="46.28981803210495" lon="6.614508940961757"><ele>674.0</ele><time>2026-05-01T12:28:29Z</time></trkpt><trkpt lat="46.28966413642141" lon="6.614431127817536"><ele>679.0</ele><time>2026-05-01T12:28:30Z</time></trkpt><trkpt lat="46.28948383210627" lon="6.6144020913164265"><ele>684.0</ele><time>2026-05-01T12:28:31Z</time></trkpt><trkpt lat="46.289298547429006" lon="6.61441102658094"><ele>684.0</ele><time>2026-05-01T12:28:32Z</time></trkpt><trkpt lat="46.28909586845466" lon="6.614426968894541"><ele>684.0</ele><time>2026-05-01T12:28:33Z</time></trkpt><trkpt lat="46.28888935348967" lon="6.614485582247617"><ele>684.0</ele><time>2026-05-01T12:28:34Z</time></trkpt><trkpt lat="46.28868621528716" lon="6.614591397303861"><ele>677.5</ele><time>2026-05-01T12:28:35Z</time></trkpt><trkpt lat="46.28847828104215" lon="6.614710452264587"><ele>671.0</ele><time>2026-05-01T12:28:36Z</time></trkpt><trkpt lat="46.28826030131594" lon="6.614851730323306"><ele>670.5</ele><time>2026-05-01T12:28:37Z</time></trkpt><trkpt lat="46.28802045618843" lon="6.614947358852745"><ele>670.0</ele><time>2026-05-01T12:28:38Z</time></trkpt><trkpt lat="46.287807702986015" lon="6.61502093434934"><ele>670.0</ele><time>2026-05-01T12:28:39Z</time></trkpt><trkpt lat="46.287608900805665" lon="6.615104824147963"><ele>670.0</ele><time>2026-05-01T12:28:40Z</time></trkpt><trkpt lat="46.287408050779455" lon="6.6151629394994345"><ele>670.0</ele><time>2026-05-01T12:28:41Z</time></trkpt><trkpt lat="46.28719842854057" lon="6.615206552349642"><ele>669.6666666666667</ele><time>2026-05-01T12:28:42Z</time></trkpt><trkpt lat="46.287000684716226" lon="6.615209124425883"><ele>669.3333333333334</ele><time>2026-05-01T12:28:43Z</time></trkpt><trkpt lat="46.286776892930746" lon="6.615189685136863"><ele>669.0</ele><time>2026-05-01T12:28:44Z</time></trkpt><trkpt lat="46.28653528707185" lon="6.615153891296029"><ele>672.5</ele><time>2026-05-01T12:28:45Z</time></trkpt><trkpt lat="46.286298623594746" lon="6.615109238592078"><ele>676.0</ele><time>2026-05-01T12:28:46Z</time></trkpt><trkpt lat="46.286081004713196" lon="6.615081718583328"><ele>676.0</ele><time>2026-05-01T12:28:47Z</time></trkpt><trkpt lat="46.28588323947678" lon="6.615074928426328"><ele>676.0</ele><time>2026-05-01T12:28:48Z</time></trkpt><trkpt lat="46.2856810795793" lon="6.61510424068138"><ele>676.0</ele><time>2026-05-01T12:28:49Z</time></trkpt><trkpt lat="46.28546044975826" lon="6.6151816352506865"><ele>673.6666666666667</ele><time>2026-05-01T12:28:50Z</time></trkpt><trkpt lat="46.285241515133556" lon="6.615280801139407"><ele>671.3333333333334</ele><time>2026-05-01T12:28:51Z</time></trkpt><trkpt lat="46.28504027358015" lon="6.615382246179758"><ele>669.0</ele><time>2026-05-01T12:28:52Z</time></trkpt><trkpt lat="46.28486234216879" lon="6.615509475477742"><ele>671.6666666666666</ele><time>2026-05-01T12:28:53Z</time></trkpt><trkpt lat="46.284692562076145" lon="6.6156565867901715"><ele>674.3333333333333</ele><time>2026-05-01T12:28:54Z</time></trkpt><trkpt lat="46.28452797106652" lon="6.615789711161281"><ele>677.0</ele><time>2026-05-01T12:28:55Z</time></trkpt><trkpt lat="46.28437058974063" lon="6.615924080308764"><ele>677.0</ele><time>2026-05-01T12:28:56Z</time></trkpt><trkpt lat="46.28418132261803" lon="6.615966826257874"><ele>677.0</ele><time>2026-05-01T12:28:57Z</time></trkpt><trkpt lat="46.28398965980974" lon="6.615990546421676"><ele>677.0</ele><time>2026-05-01T12:28:58Z</time></trkpt><trkpt lat="46.283816170084854" lon="6.616021508121981"><ele>677.6666666666666</ele><time>2026-05-01T12:28:59Z</time></trkpt><trkpt lat="46.28366198646049" lon="6.616037608696602"><ele>678.3333333333334</ele><time>2026-05-01T12:29:00Z</time></trkpt><trkpt lat="46.283524937788606" lon="6.616104650385887"><ele>679.0</ele><time>2026-05-01T12:29:01Z</time></trkpt><trkpt lat="46.283394944521866" lon="6.6162258776111855"><ele>675.3333333333334</ele><time>2026-05-01T12:29:02Z</time></trkpt><trkpt lat="46.28327163549118" lon="6.616391614522064"><ele>671.6666666666666</ele><time>2026-05-01T12:29:03Z</time></trkpt><trkpt lat="46.28313773909111" lon="6.616589062794505"><ele>668.0</ele><time>2026-05-01T12:29:04Z</time></trkpt><trkpt lat="46.282970171514734" lon="6.616758478905171"><ele>667.3333333333333</ele><time>2026-05-01T12:29:05Z</time></trkpt><trkpt lat="46.28277670656685" lon="6.616850846406595"><ele>666.6666666666666</ele><time>2026-05-01T12:29:06Z</time></trkpt><trkpt lat="46.28256630770719" lon="6.616900519416317"><ele>666.0</ele><time>2026-05-01T12:29:07Z</time></trkpt><trkpt lat="46.282340811436136" lon="6.616952286391775"><ele>670.5</ele><time>2026-05-01T12:29:08Z</time></trkpt><trkpt lat="46.28209370664272" lon="6.6170212959754595"><ele>675.0</ele><time>2026-05-01T12:29:09Z</time></trkpt><trkpt lat="46.281819141318074" lon="6.6170733927533325"><ele>675.0</ele><time>2026-05-01T12:29:10Z</time></trkpt><trkpt lat="46.28154485626685" lon="6.617139595840449"><ele>675.0</ele><time>2026-05-01T12:29:11Z</time></trkpt><trkpt lat="46.28129385008302" lon="6.617198283247843"><ele>674.5</ele><time>2026-05-01T12:29:12Z</time></trkpt><trkpt lat="46.281060662460455" lon="6.61724291326094"><ele>674.0</ele><time>2026-05-01T12:29:13Z</time></trkpt><trkpt lat="46.28083257390599" lon="6.617279370332398"><ele>674.0</ele><time>2026-05-01T12:29:14Z</time></trkpt><trkpt lat="46.28060054372085" lon="6.617322727412588"><ele>674.0</ele><time>2026-05-01T12:29:15Z</time></trkpt><trkpt lat="46.280372835087974" lon="6.617365300079851"><ele>674.3333333333333</ele><time>2026-05-01T12:29:16Z</time></trkpt><trkpt lat="46.28016103583002" lon="6.617402579169214"><ele>674.6666666666666</ele><time>2026-05-01T12:29:17Z</time></trkpt><trkpt lat="46.27995794053202" lon="6.617447704616375"><ele>675.0</ele><time>2026-05-01T12:29:18Z</time></trkpt><trkpt lat="46.27974961800342" lon="6.617504547545993"><ele>673.3333333333334</ele><time>2026-05-01T12:29:19Z</time></trkpt><trkpt lat="46.279530269576014" lon="6.617569649241187"><ele>671.6666666666667</ele><time>2026-05-01T12:29:20Z</time></trkpt><trkpt lat="46.279311386699376" lon="6.617641718026781"><ele>670.0</ele><time>2026-05-01T12:29:21Z</time></trkpt><trkpt lat="46.2790891964663" lon="6.617689778791575"><ele>669.6666666666667</ele><time>2026-05-01T12:29:22Z</time></trkpt><trkpt lat="46.278872640628784" lon="6.617754038554154"><ele>669.3333333333334</ele><time>2026-05-01T12:29:23Z</time></trkpt><trkpt lat="46.27866797321341" lon="6.617817698130073"><ele>669.0</ele><time>2026-05-01T12:29:24Z</time></trkpt><trkpt lat="46.278472137556065" lon="6.617948238363749"><ele>670.3333333333334</ele><time>2026-05-01T12:29:25Z</time></trkpt><trkpt lat="46.27826677042245" lon="6.618030548127144"><ele>671.6666666666667</ele><time>2026-05-01T12:29:26Z</time></trkpt><trkpt lat="46.27805992419712" lon="6.618115896965871"><ele>673.0</ele><time>2026-05-01T12:29:27Z</time></trkpt><trkpt lat="46.277853524654546" lon="6.618199602689071"><ele>673.0</ele><time>2026-05-01T12:29:28Z</time></trkpt><trkpt lat="46.27765709729668" lon="6.618275869018965"><ele>673.0</ele><time>2026-05-01T12:29:29Z</time></trkpt><trkpt lat="46.27745482570279" lon="6.618355821796466"><ele>673.0</ele><time>2026-05-01T12:29:30Z</time></trkpt><trkpt lat="46.27725144919525" lon="6.618439658334497"><ele>673.3333333333334</ele><time>2026-05-01T12:29:31Z</time></trkpt><trkpt lat="46.27703844276032" lon="6.618521805434875"><ele>673.6666666666666</ele><time>2026-05-01T12:29:32Z</time></trkpt><trkpt lat="46.27682065274627" lon="6.618606374288357"><ele>674.0</ele><time>2026-05-01T12:29:33Z</time></trkpt><trkpt lat="46.276606329436724" lon="6.618693243611464"><ele>674.0</ele><time>2026-05-01T12:29:34Z</time></trkpt><trkpt lat="46.27639038845576" lon="6.61878371502869"><ele>674.0</ele><time>2026-05-01T12:29:35Z</time></trkpt><trkpt lat="46.27617406973587" lon="6.618875723966864"><ele>674.0</ele><time>2026-05-01T12:29:36Z</time></trkpt><trkpt lat="46.27596375071633" lon="6.618962409617319"><ele>674.0</ele><time>2026-05-01T12:29:37Z</time></trkpt><trkpt lat="46.275751487186646" lon="6.619045624163322"><ele>674.0</ele><time>2026-05-01T12:29:38Z</time></trkpt><trkpt lat="46.27554188488363" lon="6.619130363534554"><ele>674.6666666666666</ele><time>2026-05-01T12:29:39Z</time></trkpt><trkpt lat="46.27533344475185" lon="6.619213623526811"><ele>675.3333333333334</ele><time>2026-05-01T12:29:40Z</time></trkpt><trkpt lat="46.275121131024854" lon="6.619297949927116"><ele>676.0</ele><time>2026-05-01T12:29:41Z</time></trkpt><trkpt lat="46.274908935078564" lon="6.619380152691184"><ele>676.3333333333334</ele><time>2026-05-01T12:29:42Z</time></trkpt><trkpt lat="46.27469504525778" lon="6.619465767347676"><ele>676.6666666666666</ele><time>2026-05-01T12:29:43Z</time></trkpt><trkpt lat="46.27448398306638" lon="6.6195497825757075"><ele>677.0</ele><time>2026-05-01T12:29:44Z</time></trkpt><trkpt lat="46.27428771668363" lon="6.619633420628065"><ele>678.0</ele><time>2026-05-01T12:29:45Z</time></trkpt><trkpt lat="46.274081129425305" lon="6.619715783014997"><ele>679.0</ele><time>2026-05-01T12:29:46Z</time></trkpt><trkpt lat="46.27387304499972" lon="6.619800353293487"><ele>680.0</ele><time>2026-05-01T12:29:47Z</time></trkpt><trkpt lat="46.273658935496435" lon="6.619887504347104"><ele>680.3333333333333</ele><time>2026-05-01T12:29:48Z</time></trkpt><trkpt lat="46.27345275944775" lon="6.619967936713888"><ele>680.6666666666666</ele><time>2026-05-01T12:29:49Z</time></trkpt><trkpt lat="46.273251610631824" lon="6.620046884285995"><ele>681.0</ele><time>2026-05-01T12:29:50Z</time></trkpt><trkpt lat="46.27304649314851" lon="6.620134122835495"><ele>681.0</ele><time>2026-05-01T12:29:51Z</time></trkpt><trkpt lat="46.27283476378748" lon="6.620221833375779"><ele>681.0</ele><time>2026-05-01T12:29:52Z</time></trkpt><trkpt lat="46.27261962123406" lon="6.620308507996813"><ele>681.0</ele><time>2026-05-01T12:29:53Z</time></trkpt><trkpt lat="46.27240202096642" lon="6.62040182710815"><ele>681.6666666666666</ele><time>2026-05-01T12:29:54Z</time></trkpt><trkpt lat="46.27219692665667" lon="6.620488999688499"><ele>682.3333333333333</ele><time>2026-05-01T12:29:55Z</time></trkpt><trkpt lat="46.2720081573584" lon="6.620565137548427"><ele>683.0</ele><time>2026-05-01T12:29:56Z</time></trkpt><trkpt lat="46.27182732392168" lon="6.62063638258599"><ele>683.0</ele><time>2026-05-01T12:29:57Z</time></trkpt><trkpt lat="46.27163680752862" lon="6.620711896643659"><ele>683.0</ele><time>2026-05-01T12:29:58Z</time></trkpt><trkpt lat="46.271433139527346" lon="6.6208007715938955"><ele>683.0</ele><time>2026-05-01T12:29:59Z</time></trkpt><trkpt lat="46.27121481499635" lon="6.620891877414116"><ele>683.0</ele><time>2026-05-01T12:30:00Z</time></trkpt><trkpt lat="46.271003283344086" lon="6.6209759092038984"><ele>683.0</ele><time>2026-05-01T12:30:01.001Z</time></trkpt><trkpt lat="46.27081244864969" lon="6.621050526341142"><ele>683.0</ele><time>2026-05-01T12:30:02.001Z</time></trkpt><trkpt lat="46.270634529796304" lon="6.621122719727525"><ele>683.3333333333333</ele><time>2026-05-01T12:30:03.001Z</time></trkpt><trkpt lat="46.270463957717006" lon="6.6211958078179425"><ele>683.6666666666666</ele><time>2026-05-01T12:30:04.001Z</time></trkpt><trkpt lat="46.27029666078481" lon="6.62126542211405"><ele>684.0</ele><time>2026-05-01T12:30:05.001Z</time></trkpt><trkpt lat="46.27011948736416" lon="6.621337840177844"><ele>684.0</ele><time>2026-05-01T12:30:06.001Z</time></trkpt><trkpt lat="46.26993334691314" lon="6.62141492106605"><ele>684.0</ele><time>2026-05-01T12:30:07.001Z</time></trkpt><trkpt lat="46.269745008412585" lon="6.621492934929394"><ele>684.0</ele><time>2026-05-01T12:30:08.001Z</time></trkpt><trkpt lat="46.269552904370315" lon="6.621574550916668"><ele>685.3333333333334</ele><time>2026-05-01T12:30:09.001Z</time></trkpt><trkpt lat="46.26935342036244" lon="6.6216556869370935"><ele>686.6666666666667</ele><time>2026-05-01T12:30:10.001Z</time></trkpt><trkpt lat="46.269160287131065" lon="6.6217284149683175"><ele>688.0</ele><time>2026-05-01T12:30:11.001Z</time></trkpt><trkpt lat="46.26895671762105" lon="6.621808162701047"><ele>687.6666666666667</ele><time>2026-05-01T12:30:12.001Z</time></trkpt><trkpt lat="46.26875452547936" lon="6.621897393299157"><ele>687.3333333333334</ele><time>2026-05-01T12:30:13.001Z</time></trkpt><trkpt lat="46.26853799451315" lon="6.621992511445545"><ele>687.0</ele><time>2026-05-01T12:30:14.001Z</time></trkpt><trkpt lat="46.26832180760452" lon="6.622085656187736"><ele>687.0</ele><time>2026-05-01T12:30:15Z</time></trkpt><trkpt lat="46.26811673761637" lon="6.622170037709664"><ele>687.0</ele><time>2026-05-01T12:30:16Z</time></trkpt><trkpt lat="46.26792368012517" lon="6.622229319922644"><ele>687.0</ele><time>2026-05-01T12:30:17Z</time></trkpt><trkpt lat="46.26772868315097" lon="6.622242061482311"><ele>690.0</ele><time>2026-05-01T12:30:18Z</time></trkpt><trkpt lat="46.2675141396683" lon="6.622209205424054"><ele>693.0</ele><time>2026-05-01T12:30:19Z</time></trkpt><trkpt lat="46.26730137386394" lon="6.62215758933639"><ele>696.0</ele><time>2026-05-01T12:30:20Z</time></trkpt><trkpt lat="46.26708159635532" lon="6.622079856702893"><ele>695.0</ele><time>2026-05-01T12:30:21Z</time></trkpt><trkpt lat="46.266868295985844" lon="6.6219777323754885"><ele>694.0</ele><time>2026-05-01T12:30:22Z</time></trkpt><trkpt lat="46.266662166819984" lon="6.621842104388159"><ele>694.0</ele><time>2026-05-01T12:30:23Z</time></trkpt><trkpt lat="46.26645427725452" lon="6.6216633996518315"><ele>694.0</ele><time>2026-05-01T12:30:24Z</time></trkpt><trkpt lat="46.2662550693831" lon="6.621468494292895"><ele>698.6666666666667</ele><time>2026-05-01T12:30:25Z</time></trkpt><trkpt lat="46.26607009203017" lon="6.621271101405197"><ele>703.3333333333334</ele><time>2026-05-01T12:30:26Z</time></trkpt><trkpt lat="46.26590400568617" lon="6.621096182717081"><ele>708.0</ele><time>2026-05-01T12:30:27Z</time></trkpt><trkpt lat="46.26574462259415" lon="6.620940031232407"><ele>713.6666666666666</ele><time>2026-05-01T12:30:28Z</time></trkpt><trkpt lat="46.26559535953335" lon="6.620809257798436"><ele>719.3333333333333</ele><time>2026-05-01T12:30:29Z</time></trkpt><trkpt lat="46.265437122034804" lon="6.620696669874064"><ele>725.0</ele><time>2026-05-01T12:30:30Z</time></trkpt><trkpt lat="46.26528329299566" lon="6.62061723420491"><ele>725.0</ele><time>2026-05-01T12:30:31Z</time></trkpt><trkpt lat="46.265131293151875" lon="6.620573890827174"><ele>725.0</ele><time>2026-05-01T12:30:32Z</time></trkpt><trkpt lat="46.26497182526929" lon="6.620511025219942"><ele>725.0</ele><time>2026-05-01T12:30:33Z</time></trkpt><trkpt lat="46.26478986417671" lon="6.620488532239782"><ele>721.0</ele><time>2026-05-01T12:30:34Z</time></trkpt><trkpt lat="46.264622686098214" lon="6.62049218489221"><ele>717.0</ele><time>2026-05-01T12:30:35Z</time></trkpt><trkpt lat="46.264470303164025" lon="6.620488786165591"><ele>713.0</ele><time>2026-05-01T12:30:36Z</time></trkpt><trkpt lat="46.26432451086239" lon="6.620520755810075"><ele>713.0</ele><time>2026-05-01T12:30:37Z</time></trkpt><trkpt lat="46.26418007322098" lon="6.62055672791678"><ele>713.0</ele><time>2026-05-01T12:30:38Z</time></trkpt><trkpt lat="46.26404694941501" lon="6.620711747510455"><ele>713.0</ele><time>2026-05-01T12:30:39Z</time></trkpt><trkpt lat="46.263976342388915" lon="6.620833728357366"><ele>713.0</ele><time>2026-05-01T12:30:40Z</time></trkpt><trkpt lat="46.263921241846134" lon="6.621013196175804"><ele>712.3333333333333</ele><time>2026-05-01T12:30:41Z</time></trkpt><trkpt lat="46.26388351303351" lon="6.621244586363062"><ele>711.6666666666666</ele><time>2026-05-01T12:30:42Z</time></trkpt><trkpt lat="46.2638391124819" lon="6.621486132526688"><ele>711.0</ele><time>2026-05-01T12:30:43Z</time></trkpt><trkpt lat="46.26375950387643" lon="6.621714630733373"><ele>707.0</ele><time>2026-05-01T12:30:44Z</time></trkpt><trkpt lat="46.26361937303829" lon="6.621982683839971"><ele>703.0</ele><time>2026-05-01T12:30:45Z</time></trkpt><trkpt lat="46.263475844230065" lon="6.622225945052234"><ele>703.0</ele><time>2026-05-01T12:30:46Z</time></trkpt><trkpt lat="46.26333576552578" lon="6.622450223556224"><ele>703.0</ele><time>2026-05-01T12:30:47Z</time></trkpt><trkpt lat="46.26319737845837" lon="6.622638035839007"><ele>703.0</ele><time>2026-05-01T12:30:48Z</time></trkpt><trkpt lat="46.26302815048279" lon="6.622782299142333"><ele>703.5</ele><time>2026-05-01T12:30:49Z</time></trkpt><trkpt lat="46.262826309806655" lon="6.622920136615388"><ele>704.0</ele><time>2026-05-01T12:30:50Z</time></trkpt><trkpt lat="46.262609190299976" lon="6.623097725263321"><ele>704.0</ele><time>2026-05-01T12:30:51Z</time></trkpt><trkpt lat="46.26241002568481" lon="6.623272435532603"><ele>704.0</ele><time>2026-05-01T12:30:52Z</time></trkpt><trkpt lat="46.26222596327298" lon="6.623405146309859"><ele>704.0</ele><time>2026-05-01T12:30:53Z</time></trkpt><trkpt lat="46.26203404099084" lon="6.6235004337889185"><ele>704.6666666666666</ele><time>2026-05-01T12:30:54Z</time></trkpt><trkpt lat="46.26181887475656" lon="6.623553161353477"><ele>705.3333333333334</ele><time>2026-05-01T12:30:55Z</time></trkpt><trkpt lat="46.2616213476291" lon="6.6236023167783165"><ele>706.0</ele><time>2026-05-01T12:30:56Z</time></trkpt><trkpt lat="46.26145510819764" lon="6.623646053972604"><ele>707.6666666666667</ele><time>2026-05-01T12:30:57Z</time></trkpt><trkpt lat="46.261306935645564" lon="6.623680400538679"><ele>709.3333333333334</ele><time>2026-05-01T12:30:58Z</time></trkpt><trkpt lat="46.261163694758594" lon="6.62361874157108"><ele>711.0</ele><time>2026-05-01T12:30:59Z</time></trkpt><trkpt lat="46.261019696142306" lon="6.623498583624255"><ele>711.0</ele><time>2026-05-01T12:31:00Z</time></trkpt><trkpt lat="46.26088061964846" lon="6.623338494639085"><ele>711.0</ele><time>2026-05-01T12:31:01Z</time></trkpt><trkpt lat="46.2607569636417" lon="6.623141383758608"><ele>711.0</ele><time>2026-05-01T12:31:02Z</time></trkpt><trkpt lat="46.26064898380064" lon="6.622953581966782"><ele>712.25</ele><time>2026-05-01T12:31:03Z</time></trkpt><trkpt lat="46.26055662383404" lon="6.622798764239669"><ele>713.5</ele><time>2026-05-01T12:31:04Z</time></trkpt><trkpt lat="46.260449329929" lon="6.622701056990117"><ele>714.75</ele><time>2026-05-01T12:31:05Z</time></trkpt><trkpt lat="46.26033794091296" lon="6.622663851386905"><ele>716.0</ele><time>2026-05-01T12:31:06Z</time></trkpt><trkpt lat="46.26021687128587" lon="6.622658245618761"><ele>716.0</ele><time>2026-05-01T12:31:07Z</time></trkpt><trkpt lat="46.26009613137686" lon="6.62271068469036"><ele>716.0</ele><time>2026-05-01T12:31:08Z</time></trkpt><trkpt lat="46.25996677144015" lon="6.622825896113334"><ele>716.0</ele><time>2026-05-01T12:31:09Z</time></trkpt><trkpt lat="46.259835474642216" lon="6.622977923179393"><ele>716.0</ele><time>2026-05-01T12:31:10Z</time></trkpt><trkpt lat="46.25969285234541" lon="6.623153631059976"><ele>717.0</ele><time>2026-05-01T12:31:11Z</time></trkpt><trkpt lat="46.25954017687416" lon="6.623355456537081"><ele>718.0</ele><time>2026-05-01T12:31:12Z</time></trkpt><trkpt lat="46.259382310948475" lon="6.623593502196256"><ele>719.0</ele><time>2026-05-01T12:31:13Z</time></trkpt><trkpt lat="46.25920339638871" lon="6.623834960717548"><ele>719.0</ele><time>2026-05-01T12:31:14Z</time></trkpt><trkpt lat="46.25902824605469" lon="6.624059059271873"><ele>719.0</ele><time>2026-05-01T12:31:15Z</time></trkpt><trkpt lat="46.25886302640231" lon="6.6242380036342"><ele>719.0</ele><time>2026-05-01T12:31:16Z</time></trkpt><trkpt lat="46.258703618710086" lon="6.624385703485538"><ele>718.6666666666666</ele><time>2026-05-01T12:31:17Z</time></trkpt><trkpt lat="46.25856032532909" lon="6.6245594054990935"><ele>718.3333333333334</ele><time>2026-05-01T12:31:18Z</time></trkpt><trkpt lat="46.258434101308666" lon="6.624752560276178"><ele>718.0</ele><time>2026-05-01T12:31:19Z</time></trkpt><trkpt lat="46.25830932381239" lon="6.624988152387435"><ele>718.0</ele><time>2026-05-01T12:31:20Z</time></trkpt><trkpt lat="46.258183363400356" lon="6.625189495268542"><ele>718.0</ele><time>2026-05-01T12:31:21Z</time></trkpt><trkpt lat="46.25809814495341" lon="6.625389807041193"><ele>718.0</ele><time>2026-05-01T12:31:22Z</time></trkpt><trkpt lat="46.25800237947056" lon="6.625541651947156"><ele>721.25</ele><time>2026-05-01T12:31:23Z</time></trkpt><trkpt lat="46.25787215723757" lon="6.625622961802459"><ele>724.5</ele><time>2026-05-01T12:31:24Z</time></trkpt><trkpt lat="46.25773614890108" lon="6.625715014552178"><ele>727.75</ele><time>2026-05-01T12:31:25Z</time></trkpt><trkpt lat="46.25758777345086" lon="6.625674453948662"><ele>731.0</ele><time>2026-05-01T12:31:26Z</time></trkpt><trkpt lat="46.25744954197556" lon="6.625621002270066"><ele>731.0</ele><time>2026-05-01T12:31:27Z</time></trkpt><trkpt lat="46.25730002700967" lon="6.625518986321766"><ele>731.0</ele><time>2026-05-01T12:31:28Z</time></trkpt><trkpt lat="46.25713261176286" lon="6.625432707890053"><ele>731.0</ele><time>2026-05-01T12:31:29Z</time></trkpt><trkpt lat="46.25697058783078" lon="6.625373728595505"><ele>732.0</ele><time>2026-05-01T12:31:30Z</time></trkpt><trkpt lat="46.2568105472979" lon="6.625357269561346"><ele>733.0</ele><time>2026-05-01T12:31:31Z</time></trkpt><trkpt lat="46.256640450789305" lon="6.625390397210805"><ele>734.0</ele><time>2026-05-01T12:31:32Z</time></trkpt><trkpt lat="46.25648623125648" lon="6.62544575928737"><ele>737.5</ele><time>2026-05-01T12:31:33Z</time></trkpt><trkpt lat="46.25634501443714" lon="6.625507303786342"><ele>741.0</ele><time>2026-05-01T12:31:34Z</time></trkpt><trkpt lat="46.25621971156214" lon="6.6255902995635365"><ele>744.5</ele><time>2026-05-01T12:31:35Z</time></trkpt><trkpt lat="46.256108481965306" lon="6.625691864833344"><ele>748.0</ele><time>2026-05-01T12:31:36Z</time></trkpt><trkpt lat="46.256028390986266" lon="6.625821253629535"><ele>748.0</ele><time>2026-05-01T12:31:37Z</time></trkpt><trkpt lat="46.2559759481105" lon="6.625999748374943"><ele>748.0</ele><time>2026-05-01T12:31:38Z</time></trkpt><trkpt lat="46.25597161064685" lon="6.62619097633378"><ele>748.0</ele><time>2026-05-01T12:31:39Z</time></trkpt><trkpt lat="46.25600280646551" lon="6.626382711445417"><ele>748.0</ele><time>2026-05-01T12:31:40Z</time></trkpt><trkpt lat="46.25604537288214" lon="6.626567114296827"><ele>744.8</ele><time>2026-05-01T12:31:41Z</time></trkpt><trkpt lat="46.25608633130121" lon="6.626724036202383"><ele>741.5999999999999</ele><time>2026-05-01T12:31:42Z</time></trkpt><trkpt lat="46.25611478804164" lon="6.626876029644223"><ele>738.4000000000001</ele><time>2026-05-01T12:31:43Z</time></trkpt><trkpt lat="46.25614800970654" lon="6.627017696147056"><ele>735.2</ele><time>2026-05-01T12:31:44Z</time></trkpt><trkpt lat="46.25616697809261" lon="6.627167680753297"><ele>732.0</ele><time>2026-05-01T12:31:45Z</time></trkpt><trkpt lat="46.25616201777262" lon="6.6273453195387155"><ele>729.5</ele><time>2026-05-01T12:31:46Z</time></trkpt><trkpt lat="46.256126639117085" lon="6.627490878268912"><ele>727.0</ele><time>2026-05-01T12:31:47Z</time></trkpt><trkpt lat="46.25606834362534" lon="6.627627912229757"><ele>724.5</ele><time>2026-05-01T12:31:48Z</time></trkpt><trkpt lat="46.25599164076201" lon="6.627784039994725"><ele>722.0</ele><time>2026-05-01T12:31:48.999Z</time></trkpt><trkpt lat="46.25589587767121" lon="6.62795123844401"><ele>722.0</ele><time>2026-05-01T12:31:49.999Z</time></trkpt><trkpt lat="46.25579467530629" lon="6.628128361093252"><ele>722.0</ele><time>2026-05-01T12:31:50.999Z</time></trkpt><trkpt lat="46.25570252721244" lon="6.628291202839208"><ele>722.0</ele><time>2026-05-01T12:31:51.999Z</time></trkpt><trkpt lat="46.255592902808154" lon="6.62849534494354"><ele>724.0</ele><time>2026-05-01T12:31:52.999Z</time></trkpt><trkpt lat="46.25548988147443" lon="6.6286956397995365"><ele>726.0</ele><time>2026-05-01T12:31:53.999Z</time></trkpt><trkpt lat="46.25537044669741" lon="6.628891464439001"><ele>728.0</ele><time>2026-05-01T12:31:54.999Z</time></trkpt><trkpt lat="46.255237613139016" lon="6.629053032175679"><ele>728.0</ele><time>2026-05-01T12:31:55.999Z</time></trkpt><trkpt lat="46.255096573503074" lon="6.62917290409244"><ele>728.0</ele><time>2026-05-01T12:31:56.999Z</time></trkpt><trkpt lat="46.254922728766495" lon="6.629258615892439"><ele>728.0</ele><time>2026-05-01T12:31:57.999Z</time></trkpt><trkpt lat="46.2547475048043" lon="6.629319614395556"><ele>728.6666666666666</ele><time>2026-05-01T12:31:58.999Z</time></trkpt><trkpt lat="46.25458665639031" lon="6.629359941269915"><ele>729.3333333333334</ele><time>2026-05-01T12:31:59.999Z</time></trkpt><trkpt lat="46.25441601342605" lon="6.629375075641999"><ele>730.0</ele><time>2026-05-01T12:32:00.999Z</time></trkpt><trkpt lat="46.25423389135308" lon="6.629378378203586"><ele>730.0</ele><time>2026-05-01T12:32:01.999Z</time></trkpt><trkpt lat="46.25405557079125" lon="6.629378575794615"><ele>730.0</ele><time>2026-05-01T12:32:02.999Z</time></trkpt><trkpt lat="46.25388189260061" lon="6.629392208404325"><ele>730.0</ele><time>2026-05-01T12:32:03.999Z</time></trkpt><trkpt lat="46.25372517354544" lon="6.629427098156872"><ele>731.6666666666667</ele><time>2026-05-01T12:32:04.999Z</time></trkpt><trkpt lat="46.253556452458554" lon="6.629482279177187"><ele>733.3333333333334</ele><time>2026-05-01T12:32:05.999Z</time></trkpt><trkpt lat="46.253378492593704" lon="6.629602432516185"><ele>735.0</ele><time>2026-05-01T12:32:07Z</time></trkpt><trkpt lat="46.25321152865696" lon="6.629783267921485"><ele>735.6666666666666</ele><time>2026-05-01T12:32:08Z</time></trkpt><trkpt lat="46.25304996394061" lon="6.629932600397099"><ele>736.3333333333333</ele><time>2026-05-01T12:32:09Z</time></trkpt><trkpt lat="46.25288859327852" lon="6.630040207079345"><ele>737.0</ele><time>2026-05-01T12:32:10Z</time></trkpt><trkpt lat="46.2527397309288" lon="6.630144866457957"><ele>737.0</ele><time>2026-05-01T12:32:11Z</time></trkpt><trkpt lat="46.252575579981816" lon="6.630249864533732"><ele>737.0</ele><time>2026-05-01T12:32:12Z</time></trkpt><trkpt lat="46.25240624659675" lon="6.630312396659444"><ele>737.0</ele><time>2026-05-01T12:32:13Z</time></trkpt><trkpt lat="46.252241284427434" lon="6.6303810950833935"><ele>739.0</ele><time>2026-05-01T12:32:14Z</time></trkpt><trkpt lat="46.252072609797" lon="6.630454193644899"><ele>741.0</ele><time>2026-05-01T12:32:15Z</time></trkpt><trkpt lat="46.25191591962421" lon="6.630570524800828"><ele>743.0</ele><time>2026-05-01T12:32:16Z</time></trkpt><trkpt lat="46.25175796341263" lon="6.630725214560184"><ele>743.0</ele><time>2026-05-01T12:32:17Z</time></trkpt><trkpt lat="46.25160458102289" lon="6.630898308238495"><ele>743.0</ele><time>2026-05-01T12:32:18Z</time></trkpt><trkpt lat="46.25146957952111" lon="6.631055800787118"><ele>743.0</ele><time>2026-05-01T12:32:19Z</time></trkpt><trkpt lat="46.2513360295779" lon="6.631208151681274"><ele>747.3333333333333</ele><time>2026-05-01T12:32:20Z</time></trkpt><trkpt lat="46.25119971738521" lon="6.63133882210626"><ele>751.6666666666666</ele><time>2026-05-01T12:32:21Z</time></trkpt><trkpt lat="46.25104286580668" lon="6.631439984393606"><ele>756.0</ele><time>2026-05-01T12:32:22Z</time></trkpt><trkpt lat="46.250866442667814" lon="6.631479249544481"><ele>756.0</ele><time>2026-05-01T12:32:23Z</time></trkpt><trkpt lat="46.25069081156748" lon="6.631504553899939"><ele>756.0</ele><time>2026-05-01T12:32:24Z</time></trkpt><trkpt lat="46.25051813773371" lon="6.631552550894741"><ele>756.0</ele><time>2026-05-01T12:32:25Z</time></trkpt><trkpt lat="46.25037368262455" lon="6.631612609402652"><ele>756.6666666666666</ele><time>2026-05-01T12:32:26Z</time></trkpt><trkpt lat="46.25021627879623" lon="6.63172897964723"><ele>757.3333333333333</ele><time>2026-05-01T12:32:27Z</time></trkpt><trkpt lat="46.25005233818298" lon="6.6318456934672225"><ele>758.0</ele><time>2026-05-01T12:32:28Z</time></trkpt><trkpt lat="46.249896697564935" lon="6.631974893923655"><ele>761.3333333333333</ele><time>2026-05-01T12:32:29Z</time></trkpt><trkpt lat="46.24974452227039" lon="6.6321303623976755"><ele>764.6666666666666</ele><time>2026-05-01T12:32:30Z</time></trkpt><trkpt lat="46.24960661825296" lon="6.632347464381293"><ele>768.0</ele><time>2026-05-01T12:32:31Z</time></trkpt><trkpt lat="46.24947598709552" lon="6.632619891178451"><ele>768.0</ele><time>2026-05-01T12:32:32Z</time></trkpt><trkpt lat="46.249349032902806" lon="6.632906017947868"><ele>768.0</ele><time>2026-05-01T12:32:33Z</time></trkpt><trkpt lat="46.249213192035825" lon="6.633222047169466"><ele>768.0</ele><time>2026-05-01T12:32:34Z</time></trkpt><trkpt lat="46.24908462122324" lon="6.63352213337456"><ele>768.0</ele><time>2026-05-01T12:32:35Z</time></trkpt><trkpt lat="46.24896386888406" lon="6.633792297197328"><ele>769.6666666666667</ele><time>2026-05-01T12:32:36Z</time></trkpt><trkpt lat="46.248828581320204" lon="6.63405778015112"><ele>771.3333333333334</ele><time>2026-05-01T12:32:37Z</time></trkpt><trkpt lat="46.24867225535041" lon="6.6342722500230895"><ele>773.0</ele><time>2026-05-01T12:32:38Z</time></trkpt><trkpt lat="46.24853856717723" lon="6.634527758714721"><ele>773.0</ele><time>2026-05-01T12:32:39Z</time></trkpt><trkpt lat="46.24841375506659" lon="6.634803857399914"><ele>773.0</ele><time>2026-05-01T12:32:40Z</time></trkpt><trkpt lat="46.24830191726934" lon="6.635079643711566"><ele>773.0</ele><time>2026-05-01T12:32:41Z</time></trkpt><trkpt lat="46.24822555815779" lon="6.635256866763635"><ele>774.6666666666667</ele><time>2026-05-01T12:32:42Z</time></trkpt><trkpt lat="46.24816565542902" lon="6.6354588319589425"><ele>776.3333333333333</ele><time>2026-05-01T12:32:43Z</time></trkpt><trkpt lat="46.24809210537541" lon="6.635656610953355"><ele>778.0</ele><time>2026-05-01T12:32:44Z</time></trkpt><trkpt lat="46.248024027963226" lon="6.635867012693671"><ele>779.5</ele><time>2026-05-01T12:32:45Z</time></trkpt><trkpt lat="46.24796104559256" lon="6.636047305172464"><ele>781.0</ele><time>2026-05-01T12:32:46Z</time></trkpt><trkpt lat="46.24786269061957" lon="6.636144704457272"><ele>782.5</ele><time>2026-05-01T12:32:47Z</time></trkpt><trkpt lat="46.24776812851385" lon="6.636206925626224"><ele>784.0</ele><time>2026-05-01T12:32:48Z</time></trkpt><trkpt lat="46.24766933730034" lon="6.636237820830671"><ele>784.0</ele><time>2026-05-01T12:32:49Z</time></trkpt><trkpt lat="46.247552481965265" lon="6.63627655506572"><ele>784.0</ele><time>2026-05-01T12:32:50Z</time></trkpt><trkpt lat="46.24741657269864" lon="6.636320460382812"><ele>784.0</ele><time>2026-05-01T12:32:51Z</time></trkpt><trkpt lat="46.247275288049586" lon="6.6363955490676725"><ele>784.0</ele><time>2026-05-01T12:32:52Z</time></trkpt><trkpt lat="46.24710495666864" lon="6.636501098013415"><ele>783.5</ele><time>2026-05-01T12:32:53Z</time></trkpt><trkpt lat="46.24698519443032" lon="6.636644362123736"><ele>783.0</ele><time>2026-05-01T12:32:54Z</time></trkpt><trkpt lat="46.24691133219242" lon="6.636794163220196"><ele>782.5</ele><time>2026-05-01T12:32:55Z</time></trkpt><trkpt lat="46.246866414767474" lon="6.63692867448537"><ele>782.0</ele><time>2026-05-01T12:32:56Z</time></trkpt><trkpt lat="46.246812707687276" lon="6.637219971988357"><ele>771.5</ele><time>2026-05-01T12:32:57Z</time></trkpt><trkpt lat="46.246773684310604" lon="6.637421889304742"><ele>761.0</ele><time>2026-05-01T12:32:59Z</time></trkpt><trkpt lat="46.24668776825419" lon="6.6378644224885965"><ele>757.0</ele><time>2026-05-01T12:33:00Z</time></trkpt><trkpt lat="46.246629757690954" lon="6.638222292713889"><ele>753.0</ele><time>2026-05-01T12:33:01Z</time></trkpt><trkpt lat="46.2465701775024" lon="6.638610508843562"><ele>756.5</ele><time>2026-05-01T12:33:02Z</time></trkpt><trkpt lat="46.2465206392238" lon="6.638958561101396"><ele>760.0</ele><time>2026-05-01T12:33:03Z</time></trkpt><trkpt lat="46.24647063717825" lon="6.639245536581758"><ele>757.6666666666667</ele><time>2026-05-01T12:33:04Z</time></trkpt><trkpt lat="46.24635367981226" lon="6.639454281364133"><ele>755.3333333333334</ele><time>2026-05-01T12:33:05Z</time></trkpt><trkpt lat="46.24621785008886" lon="6.6396609276084995"><ele>753.0</ele><time>2026-05-01T12:33:06Z</time></trkpt><trkpt lat="46.2460803222277" lon="6.639881954286488"><ele>753.0</ele><time>2026-05-01T12:33:07Z</time></trkpt><trkpt lat="46.24597865311357" lon="6.640122452499868"><ele>753.0</ele><time>2026-05-01T12:33:08Z</time></trkpt><trkpt lat="46.24589555887403" lon="6.640341890429325"><ele>753.0</ele><time>2026-05-01T12:33:09Z</time></trkpt><trkpt lat="46.245849249647314" lon="6.640569856686464"><ele>754.25</ele><time>2026-05-01T12:33:10Z</time></trkpt><trkpt lat="46.24583521804222" lon="6.640786613709761"><ele>755.5</ele><time>2026-05-01T12:33:11Z</time></trkpt><trkpt lat="46.24584775618681" lon="6.640983620559254"><ele>756.75</ele><time>2026-05-01T12:33:12Z</time></trkpt><trkpt lat="46.245857684211124" lon="6.6411701452987"><ele>758.0</ele><time>2026-05-01T12:33:13Z</time></trkpt><trkpt lat="46.245839010323145" lon="6.6413600897304885"><ele>758.75</ele><time>2026-05-01T12:33:14Z</time></trkpt><trkpt lat="46.245762960330374" lon="6.641540946089687"><ele>759.5</ele><time>2026-05-01T12:33:15Z</time></trkpt><trkpt lat="46.24568333181955" lon="6.641710121125267"><ele>760.25</ele><time>2026-05-01T12:33:16Z</time></trkpt><trkpt lat="46.2455870660755" lon="6.641839786951773"><ele>761.0</ele><time>2026-05-01T12:33:17Z</time></trkpt><trkpt lat="46.24545793144588" lon="6.641974409906462"><ele>763.3333333333333</ele><time>2026-05-01T12:33:18Z</time></trkpt><trkpt lat="46.245306245386466" lon="6.642062862368159"><ele>765.6666666666666</ele><time>2026-05-01T12:33:19Z</time></trkpt><trkpt lat="46.245151480264695" lon="6.642104378661879"><ele>768.0</ele><time>2026-05-01T12:33:20Z</time></trkpt><trkpt lat="46.24500565623909" lon="6.642101314557575"><ele>768.0</ele><time>2026-05-01T12:33:21Z</time></trkpt><trkpt lat="46.24484284151344" lon="6.6420739966078655"><ele>768.0</ele><time>2026-05-01T12:33:22Z</time></trkpt><trkpt lat="46.244686128604116" lon="6.642062423034538"><ele>768.0</ele><time>2026-05-01T12:33:23Z</time></trkpt><trkpt lat="46.244531050520905" lon="6.642036277192069"><ele>768.3333333333333</ele><time>2026-05-01T12:33:24Z</time></trkpt><trkpt lat="46.24436323306985" lon="6.642065868539829"><ele>768.6666666666666</ele><time>2026-05-01T12:33:25Z</time></trkpt><trkpt lat="46.24420072852704" lon="6.642126315832674"><ele>769.0</ele><time>2026-05-01T12:33:26Z</time></trkpt><trkpt lat="46.24404528738516" lon="6.6422080901692775"><ele>768.6666666666666</ele><time>2026-05-01T12:33:27Z</time></trkpt><trkpt lat="46.24390129356725" lon="6.642329414022727"><ele>768.3333333333333</ele><time>2026-05-01T12:33:28Z</time></trkpt><trkpt lat="46.24376177346694" lon="6.6424649003095455"><ele>768.0</ele><time>2026-05-01T12:33:29Z</time></trkpt><trkpt lat="46.24362589398572" lon="6.642638121000219"><ele>768.6666666666667</ele><time>2026-05-01T12:33:30Z</time></trkpt><trkpt lat="46.243495328012095" lon="6.642857768302011"><ele>769.3333333333334</ele><time>2026-05-01T12:33:31Z</time></trkpt><trkpt lat="46.24335524764974" lon="6.643126771607532"><ele>770.0</ele><time>2026-05-01T12:33:32Z</time></trkpt><trkpt lat="46.24321672669608" lon="6.6434133507475135"><ele>769.5</ele><time>2026-05-01T12:33:33Z</time></trkpt><trkpt lat="46.2430626274814" lon="6.643732158902689"><ele>769.0</ele><time>2026-05-01T12:33:34Z</time></trkpt><trkpt lat="46.2429192210344" lon="6.64402884552199"><ele>769.0</ele><time>2026-05-01T12:33:35Z</time></trkpt><trkpt lat="46.24278961993377" lon="6.644294562400656"><ele>769.0</ele><time>2026-05-01T12:33:36Z</time></trkpt><trkpt lat="46.24265820940191" lon="6.644547295176046"><ele>769.0</ele><time>2026-05-01T12:33:37Z</time></trkpt><trkpt lat="46.2425375761353" lon="6.644769782861007"><ele>771.6666666666666</ele><time>2026-05-01T12:33:37.999Z</time></trkpt><trkpt lat="46.24242193379646" lon="6.644971554756574"><ele>774.3333333333333</ele><time>2026-05-01T12:33:38.999Z</time></trkpt><trkpt lat="46.242302593893605" lon="6.645175899675439"><ele>777.0</ele><time>2026-05-01T12:33:39.999Z</time></trkpt><trkpt lat="46.24216358566519" lon="6.645413922487527"><ele>779.5</ele><time>2026-05-01T12:33:40.999Z</time></trkpt><trkpt lat="46.24200370903934" lon="6.645687446087847"><ele>782.0</ele><time>2026-05-01T12:33:41.999Z</time></trkpt><trkpt lat="46.24184794553797" lon="6.645953624858008"><ele>781.6666666666667</ele><time>2026-05-01T12:33:42.999Z</time></trkpt><trkpt lat="46.241709144944856" lon="6.646188183903956"><ele>781.3333333333333</ele><time>2026-05-01T12:33:43.999Z</time></trkpt><trkpt lat="46.24158116302735" lon="6.646405697608677"><ele>781.0</ele><time>2026-05-01T12:33:44.999Z</time></trkpt><trkpt lat="46.24145104787066" lon="6.646632157518013"><ele>781.0</ele><time>2026-05-01T12:33:45.999Z</time></trkpt><trkpt lat="46.24132885584214" lon="6.646878752737922"><ele>781.0</ele><time>2026-05-01T12:33:46.999Z</time></trkpt><trkpt lat="46.24119042988227" lon="6.647124300404388"><ele>781.0</ele><time>2026-05-01T12:33:47.999Z</time></trkpt><trkpt lat="46.24106094821767" lon="6.647386692792211"><ele>782.5</ele><time>2026-05-01T12:33:48.999Z</time></trkpt><trkpt lat="46.240911145590424" lon="6.6476691042381075"><ele>784.0</ele><time>2026-05-01T12:33:49.999Z</time></trkpt><trkpt lat="46.24076342292829" lon="6.647999701699759"><ele>781.5</ele><time>2026-05-01T12:33:50.999Z</time></trkpt><trkpt lat="46.24060967457383" lon="6.648358948292566"><ele>779.0</ele><time>2026-05-01T12:33:51.999Z</time></trkpt><trkpt lat="46.240478150046066" lon="6.648696782926705"><ele>779.0</ele><time>2026-05-01T12:33:52.999Z</time></trkpt><trkpt lat="46.24036838560469" lon="6.649012326567117"><ele>779.0</ele><time>2026-05-01T12:33:53.999Z</time></trkpt><trkpt lat="46.240248572298654" lon="6.649292538444386"><ele>781.6666666666667</ele><time>2026-05-01T12:33:54.999Z</time></trkpt><trkpt lat="46.240147174057086" lon="6.649539855065429"><ele>784.3333333333333</ele><time>2026-05-01T12:33:55.999Z</time></trkpt><trkpt lat="46.24005862141311" lon="6.6497397142112815"><ele>787.0</ele><time>2026-05-01T12:33:56.999Z</time></trkpt><trkpt lat="46.23995830459117" lon="6.649916699566026"><ele>787.0</ele><time>2026-05-01T12:33:57.999Z</time></trkpt><trkpt lat="46.239837178112325" lon="6.650061585865332"><ele>787.0</ele><time>2026-05-01T12:33:58.999Z</time></trkpt><trkpt lat="46.23970127079866" lon="6.650188018108215"><ele>787.0</ele><time>2026-05-01T12:33:59.999Z</time></trkpt><trkpt lat="46.23955472314243" lon="6.650289877325137"><ele>788.3333333333333</ele><time>2026-05-01T12:34:00.999Z</time></trkpt><trkpt lat="46.23941517740968" lon="6.650376675974254"><ele>789.6666666666667</ele><time>2026-05-01T12:34:01.999Z</time></trkpt><trkpt lat="46.239276395770226" lon="6.650461659949546"><ele>791.0</ele><time>2026-05-01T12:34:02.999Z</time></trkpt><trkpt lat="46.239116935060125" lon="6.6505577985128195"><ele>788.6666666666667</ele><time>2026-05-01T12:34:03.999Z</time></trkpt><trkpt lat="46.238952552873926" lon="6.650661637236109"><ele>786.3333333333333</ele><time>2026-05-01T12:34:04.999Z</time></trkpt><trkpt lat="46.23878415358578" lon="6.650768658835887"><ele>784.0</ele><time>2026-05-01T12:34:05.999Z</time></trkpt><trkpt lat="46.238622981980456" lon="6.6508704829149"><ele>784.0</ele><time>2026-05-01T12:34:06.999Z</time></trkpt><trkpt lat="46.23846590585424" lon="6.650966755990594"><ele>784.0</ele><time>2026-05-01T12:34:07.999Z</time></trkpt><trkpt lat="46.23829897851139" lon="6.651072618321458"><ele>784.0</ele><time>2026-05-01T12:34:08.999Z</time></trkpt><trkpt lat="46.23813406188884" lon="6.651175084654422"><ele>784.5</ele><time>2026-05-01T12:34:09.999Z</time></trkpt><trkpt lat="46.237990213153346" lon="6.6512648573161375"><ele>785.0</ele><time>2026-05-01T12:34:10.999Z</time></trkpt><trkpt lat="46.23784932877332" lon="6.651350008210775"><ele>785.5</ele><time>2026-05-01T12:34:11.999Z</time></trkpt><trkpt lat="46.2377274194813" lon="6.651436023166951"><ele>786.0</ele><time>2026-05-01T12:34:13Z</time></trkpt><trkpt lat="46.23762146708154" lon="6.651532015525568"><ele>786.0</ele><time>2026-05-01T12:34:14Z</time></trkpt><trkpt lat="46.23753953440847" lon="6.65165933545975"><ele>786.0</ele><time>2026-05-01T12:34:15Z</time></trkpt><trkpt lat="46.237468878343826" lon="6.651819785438117"><ele>786.0</ele><time>2026-05-01T12:34:16Z</time></trkpt><trkpt lat="46.237409780769674" lon="6.65200551044251"><ele>786.0</ele><time>2026-05-01T12:34:17Z</time></trkpt><trkpt lat="46.23737831610447" lon="6.6522020512624485"><ele>788.25</ele><time>2026-05-01T12:34:18Z</time></trkpt><trkpt lat="46.23737942487581" lon="6.652417542791635"><ele>790.5</ele><time>2026-05-01T12:34:19Z</time></trkpt><trkpt lat="46.23739409556965" lon="6.652627126569959"><ele>792.75</ele><time>2026-05-01T12:34:20Z</time></trkpt><trkpt lat="46.237402865212836" lon="6.652831916430747"><ele>795.0</ele><time>2026-05-01T12:34:21Z</time></trkpt><trkpt lat="46.237367609704506" lon="6.653010535483661"><ele>794.75</ele><time>2026-05-01T12:34:22Z</time></trkpt><trkpt lat="46.237338779911" lon="6.653164668351292"><ele>794.5</ele><time>2026-05-01T12:34:23Z</time></trkpt><trkpt lat="46.23724493108902" lon="6.653267088251754"><ele>794.25</ele><time>2026-05-01T12:34:24Z</time></trkpt><trkpt lat="46.237134394142295" lon="6.653344118637368"><ele>794.0</ele><time>2026-05-01T12:34:25Z</time></trkpt><trkpt lat="46.23699864392817" lon="6.653436649193387"><ele>794.0</ele><time>2026-05-01T12:34:26Z</time></trkpt><trkpt lat="46.236858173720115" lon="6.653560502040345"><ele>794.0</ele><time>2026-05-01T12:34:27Z</time></trkpt><trkpt lat="46.23672551222647" lon="6.653679238602546"><ele>794.0</ele><time>2026-05-01T12:34:28Z</time></trkpt><trkpt lat="46.236617872091855" lon="6.65380078463197"><ele>795.0</ele><time>2026-05-01T12:34:29Z</time></trkpt><trkpt lat="46.23651706759642" lon="6.6539065734328595"><ele>796.0</ele><time>2026-05-01T12:34:30Z</time></trkpt><trkpt lat="46.23641056071598" lon="6.653993378286386"><ele>797.0</ele><time>2026-05-01T12:34:31Z</time></trkpt><trkpt lat="46.23629869473199" lon="6.654029216858913"><ele>798.0</ele><time>2026-05-01T12:34:32Z</time></trkpt><trkpt lat="46.23619426882947" lon="6.654071446966423"><ele>798.0</ele><time>2026-05-01T12:34:33Z</time></trkpt><trkpt lat="46.23609773198262" lon="6.654125652103144"><ele>798.0</ele><time>2026-05-01T12:34:34Z</time></trkpt><trkpt lat="46.236010553561506" lon="6.65417971596004"><ele>798.0</ele><time>2026-05-01T12:34:35Z</time></trkpt><trkpt lat="46.235920208070915" lon="6.65424354441641"><ele>798.0</ele><time>2026-05-01T12:34:36Z</time></trkpt><trkpt lat="46.2358334895866" lon="6.654307838490246"><ele>798.0</ele><time>2026-05-01T12:34:37Z</time></trkpt><trkpt lat="46.23574945009879" lon="6.654378728555906"><ele>798.5</ele><time>2026-05-01T12:34:38Z</time></trkpt><trkpt lat="46.235660907721126" lon="6.654472247841779"><ele>799.0</ele><time>2026-05-01T12:34:39Z</time></trkpt><trkpt lat="46.235571858397456" lon="6.654607108703847"><ele>799.5</ele><time>2026-05-01T12:34:40Z</time></trkpt><trkpt lat="46.235502983992134" lon="6.654754956568344"><ele>800.0</ele><time>2026-05-01T12:34:41Z</time></trkpt><trkpt lat="46.235422354251774" lon="6.654891927454893"><ele>800.0</ele><time>2026-05-01T12:34:42Z</time></trkpt><trkpt lat="46.23534350052991" lon="6.65503546565582"><ele>800.0</ele><time>2026-05-01T12:34:43Z</time></trkpt><trkpt lat="46.23525103833388" lon="6.655132983111929"><ele>800.0</ele><time>2026-05-01T12:34:44Z</time></trkpt><trkpt lat="46.23517151335624" lon="6.655226250869328"><ele>800.0</ele><time>2026-05-01T12:34:45Z</time></trkpt><trkpt lat="46.23509291735516" lon="6.655307335593566"><ele>800.0</ele><time>2026-05-01T12:34:46Z</time></trkpt><trkpt lat="46.235019688597156" lon="6.655382794898446"><ele>800.5000000000001</ele><time>2026-05-01T12:34:47Z</time></trkpt><trkpt lat="46.2349542150859" lon="6.655450483586607"><ele>801.0</ele><time>2026-05-01T12:34:48Z</time></trkpt><trkpt lat="46.23490396963345" lon="6.65553125841359"><ele>801.5</ele><time>2026-05-01T12:34:49Z</time></trkpt><trkpt lat="46.23483833320736" lon="6.655574317287934"><ele>802.0</ele><time>2026-05-01T12:34:50Z</time></trkpt><trkpt lat="46.234773583064076" lon="6.6556050927965105"><ele>802.5000000000001</ele><time>2026-05-01T12:34:51Z</time></trkpt><trkpt lat="46.23470887054806" lon="6.655658202357701"><ele>803.0</ele><time>2026-05-01T12:34:52Z</time></trkpt><trkpt lat="46.23462656638061" lon="6.6557152181291395"><ele>803.0</ele><time>2026-05-01T12:34:53Z</time></trkpt><trkpt lat="46.234537014494606" lon="6.6557737345026515"><ele>803.0</ele><time>2026-05-01T12:34:54Z</time></trkpt><trkpt lat="46.2344514768481" lon="6.655823546148516"><ele>803.0</ele><time>2026-05-01T12:34:55Z</time></trkpt><trkpt lat="46.234361288381685" lon="6.655870164694639"><ele>803.0</ele><time>2026-05-01T12:34:56Z</time></trkpt><trkpt lat="46.234266880558636" lon="6.65591281868153"><ele>803.0</ele><time>2026-05-01T12:34:57Z</time></trkpt><trkpt lat="46.23415470000185" lon="6.655958381880701"><ele>803.0</ele><time>2026-05-01T12:34:58Z</time></trkpt><trkpt lat="46.23403537568601" lon="6.6559974949364"><ele>803.0</ele><time>2026-05-01T12:34:59Z</time></trkpt><trkpt lat="46.2339029485497" lon="6.656028158370311"><ele>803.0</ele><time>2026-05-01T12:35:00Z</time></trkpt><trkpt lat="46.23377147226668" lon="6.656051923359387"><ele>803.0</ele><time>2026-05-01T12:35:01Z</time></trkpt><trkpt lat="46.23363037268923" lon="6.656058440169247"><ele>803.0</ele><time>2026-05-01T12:35:02Z</time></trkpt><trkpt lat="46.23350488678686" lon="6.6560615360134054"><ele>803.0</ele><time>2026-05-01T12:35:03Z</time></trkpt><trkpt lat="46.233398035030646" lon="6.65608458343748"><ele>803.0</ele><time>2026-05-01T12:35:04Z</time></trkpt><trkpt lat="46.23328135774023" lon="6.656072268846613"><ele>803.0</ele><time>2026-05-01T12:35:05Z</time></trkpt><trkpt lat="46.23315840764652" lon="6.656066167619383"><ele>803.0</ele><time>2026-05-01T12:35:06Z</time></trkpt><trkpt lat="46.23302114742368" lon="6.656058404580019"><ele>803.0</ele><time>2026-05-01T12:35:07Z</time></trkpt><trkpt lat="46.23286268502303" lon="6.656066608438568"><ele>803.0</ele><time>2026-05-01T12:35:08Z</time></trkpt><trkpt lat="46.232733614739686" lon="6.656079946693028"><ele>803.0</ele><time>2026-05-01T12:35:09Z</time></trkpt><trkpt lat="46.232615318798416" lon="6.656113635539116"><ele>804.75</ele><time>2026-05-01T12:35:10Z</time></trkpt><trkpt lat="46.23250247230082" lon="6.656148306173069"><ele>806.5</ele><time>2026-05-01T12:35:11Z</time></trkpt><trkpt lat="46.23234962612847" lon="6.65620218792055"><ele>808.25</ele><time>2026-05-01T12:35:12Z</time></trkpt><trkpt lat="46.23219146163885" lon="6.6562604881555245"><ele>810.0</ele><time>2026-05-01T12:35:13Z</time></trkpt><trkpt lat="46.232043872378796" lon="6.656309978790406"><ele>810.25</ele><time>2026-05-01T12:35:14Z</time></trkpt><trkpt lat="46.23190840163419" lon="6.65635153046325"><ele>810.5</ele><time>2026-05-01T12:35:15Z</time></trkpt><trkpt lat="46.23179169773942" lon="6.656380245410968"><ele>810.75</ele><time>2026-05-01T12:35:16Z</time></trkpt><trkpt lat="46.23166351589766" lon="6.656424583880546"><ele>811.0</ele><time>2026-05-01T12:35:17Z</time></trkpt><trkpt lat="46.231520734276984" lon="6.656477399725759"><ele>810.0</ele><time>2026-05-01T12:35:18Z</time></trkpt><trkpt lat="46.23136692992121" lon="6.6565431506217925"><ele>809.0</ele><time>2026-05-01T12:35:19Z</time></trkpt><trkpt lat="46.23122386878166" lon="6.656608703342133"><ele>808.0</ele><time>2026-05-01T12:35:20Z</time></trkpt><trkpt lat="46.231095679159736" lon="6.656699849192017"><ele>808.0</ele><time>2026-05-01T12:35:21Z</time></trkpt><trkpt lat="46.23095453490852" lon="6.6568190834925"><ele>808.0</ele><time>2026-05-01T12:35:22Z</time></trkpt><trkpt lat="46.23081997541431" lon="6.656962212336695"><ele>808.0</ele><time>2026-05-01T12:35:23Z</time></trkpt><trkpt lat="46.230685994019105" lon="6.657140681589399"><ele>808.6666666666666</ele><time>2026-05-01T12:35:24Z</time></trkpt><trkpt lat="46.230558354450245" lon="6.657348361418096"><ele>809.3333333333333</ele><time>2026-05-01T12:35:25Z</time></trkpt><trkpt lat="46.23043065096296" lon="6.657580644558745"><ele>810.0</ele><time>2026-05-01T12:35:26Z</time></trkpt><trkpt lat="46.230300512139614" lon="6.657804904093079"><ele>810.6666666666667</ele><time>2026-05-01T12:35:27Z</time></trkpt><trkpt lat="46.230178020559116" lon="6.658008019560056"><ele>811.3333333333334</ele><time>2026-05-01T12:35:28Z</time></trkpt><trkpt lat="46.23005853856376" lon="6.658186564343665"><ele>812.0</ele><time>2026-05-01T12:35:28.999Z</time></trkpt><trkpt lat="46.229924383155875" lon="6.658348089598414"><ele>812.3333333333334</ele><time>2026-05-01T12:35:29.999Z</time></trkpt><trkpt lat="46.22978668679644" lon="6.658529323918902"><ele>812.6666666666667</ele><time>2026-05-01T12:35:30.999Z</time></trkpt><trkpt lat="46.229610976281876" lon="6.6586426250131305"><ele>813.0</ele><time>2026-05-01T12:35:31.999Z</time></trkpt><trkpt lat="46.229432453121596" lon="6.658749883326991"><ele>813.0</ele><time>2026-05-01T12:35:32.999Z</time></trkpt><trkpt lat="46.22926562935591" lon="6.658861209051884"><ele>813.0</ele><time>2026-05-01T12:35:33.999Z</time></trkpt><trkpt lat="46.22910515418906" lon="6.658936531163216"><ele>813.0</ele><time>2026-05-01T12:35:34.999Z</time></trkpt><trkpt lat="46.22893644815944" lon="6.65901322967597"><ele>813.6666666666667</ele><time>2026-05-01T12:35:35.999Z</time></trkpt><trkpt lat="46.228758608278234" lon="6.659088809133641"><ele>814.3333333333334</ele><time>2026-05-01T12:35:36.999Z</time></trkpt><trkpt lat="46.228572908099075" lon="6.659148347376583"><ele>815.0</ele><time>2026-05-01T12:35:37.999Z</time></trkpt><trkpt lat="46.22837081173067" lon="6.6591789160079635"><ele>815.0</ele><time>2026-05-01T12:35:38.999Z</time></trkpt><trkpt lat="46.2281552391654" lon="6.659170805526121"><ele>815.0</ele><time>2026-05-01T12:35:39.999Z</time></trkpt><trkpt lat="46.2279435846558" lon="6.659153977444394"><ele>815.0</ele><time>2026-05-01T12:35:40.999Z</time></trkpt><trkpt lat="46.22774961899005" lon="6.6591385574833755"><ele>814.3333333333334</ele><time>2026-05-01T12:35:41.999Z</time></trkpt><trkpt lat="46.227573798037746" lon="6.659164715834458"><ele>813.6666666666667</ele><time>2026-05-01T12:35:42.999Z</time></trkpt><trkpt lat="46.227406549964385" lon="6.659234344534017"><ele>813.0</ele><time>2026-05-01T12:35:43.999Z</time></trkpt><trkpt lat="46.22722716958016" lon="6.659328699858187"><ele>817.0</ele><time>2026-05-01T12:35:44.999Z</time></trkpt><trkpt lat="46.227020466308325" lon="6.659452936704598"><ele>821.0</ele><time>2026-05-01T12:35:45.999Z</time></trkpt><trkpt lat="46.22680936537916" lon="6.6595763480628545"><ele>821.0</ele><time>2026-05-01T12:35:46.999Z</time></trkpt><trkpt lat="46.22661383522891" lon="6.659663313411161"><ele>821.0</ele><time>2026-05-01T12:35:47.999Z</time></trkpt><trkpt lat="46.22643099510357" lon="6.659766523210323"><ele>821.0</ele><time>2026-05-01T12:35:48.999Z</time></trkpt><trkpt lat="46.22623177946706" lon="6.6598781828109"><ele>820.0</ele><time>2026-05-01T12:35:49.999Z</time></trkpt><trkpt lat="46.226029546931876" lon="6.6599930950424175"><ele>819.0</ele><time>2026-05-01T12:35:50.999Z</time></trkpt><trkpt lat="46.22582555676323" lon="6.660118688695971"><ele>818.0</ele><time>2026-05-01T12:35:51.999Z</time></trkpt><trkpt lat="46.225613530981086" lon="6.66027188399245"><ele>818.6666666666667</ele><time>2026-05-01T12:35:52.999Z</time></trkpt><trkpt lat="46.22541381638454" lon="6.6604409032804135"><ele>819.3333333333333</ele><time>2026-05-01T12:35:53.999Z</time></trkpt><trkpt lat="46.225232778760436" lon="6.66060432269291"><ele>820.0</ele><time>2026-05-01T12:35:54.999Z</time></trkpt><trkpt lat="46.22508165119736" lon="6.660805754153531"><ele>820.0</ele><time>2026-05-01T12:35:55.999Z</time></trkpt><trkpt lat="46.22493120892659" lon="6.661026285689259"><ele>820.0</ele><time>2026-05-01T12:35:56.999Z</time></trkpt><trkpt lat="46.22477944986092" lon="6.661281594603745"><ele>820.0</ele><time>2026-05-01T12:35:57.999Z</time></trkpt><trkpt lat="46.224600179439584" lon="6.661559144926146"><ele>822.0</ele><time>2026-05-01T12:35:58.999Z</time></trkpt><trkpt lat="46.22443380600203" lon="6.661849452685925"><ele>824.0</ele><time>2026-05-01T12:35:59.999Z</time></trkpt><trkpt lat="46.22426987779293" lon="6.662094222659801"><ele>828.0</ele><time>2026-05-01T12:36:00.999Z</time></trkpt><trkpt lat="46.22410586320814" lon="6.6623032318853905"><ele>832.0</ele><time>2026-05-01T12:36:01.999Z</time></trkpt><trkpt lat="46.223927133859" lon="6.662503403123959"><ele>836.0</ele><time>2026-05-01T12:36:02.999Z</time></trkpt><trkpt lat="46.22377949590438" lon="6.662724658445282"><ele>838.6666666666667</ele><time>2026-05-01T12:36:03.999Z</time></trkpt><trkpt lat="46.2236602855769" lon="6.662941025629396"><ele>841.3333333333333</ele><time>2026-05-01T12:36:04.999Z</time></trkpt><trkpt lat="46.22356291825279" lon="6.663153116144332"><ele>844.0</ele><time>2026-05-01T12:36:05.999Z</time></trkpt><trkpt lat="46.223429162250326" lon="6.6632888219012925"><ele>844.0</ele><time>2026-05-01T12:36:06.999Z</time></trkpt><trkpt lat="46.22328765606228" lon="6.6633758084106"><ele>844.0</ele><time>2026-05-01T12:36:07.999Z</time></trkpt><trkpt lat="46.22311371276262" lon="6.6634291802504775"><ele>844.0</ele><time>2026-05-01T12:36:08.999Z</time></trkpt><trkpt lat="46.22290475902074" lon="6.663466783682666"><ele>841.6666666666666</ele><time>2026-05-01T12:36:09.999Z</time></trkpt><trkpt lat="46.22270644710298" lon="6.663508974835666"><ele>839.3333333333333</ele><time>2026-05-01T12:36:10.999Z</time></trkpt><trkpt lat="46.22251863008115" lon="6.663546494440488"><ele>837.0</ele><time>2026-05-01T12:36:11.999Z</time></trkpt><trkpt lat="46.222357279350646" lon="6.663625045697052"><ele>838.6666666666667</ele><time>2026-05-01T12:36:12.999Z</time></trkpt><trkpt lat="46.22221696580959" lon="6.663752764766593"><ele>840.3333333333334</ele><time>2026-05-01T12:36:13.999Z</time></trkpt><trkpt lat="46.222069202740464" lon="6.663955427511083"><ele>842.0</ele><time>2026-05-01T12:36:14.999Z</time></trkpt><trkpt lat="46.221904385254824" lon="6.664161819457248"><ele>842.0</ele><time>2026-05-01T12:36:15.999Z</time></trkpt><trkpt lat="46.221734988220135" lon="6.664403429300667"><ele>842.0</ele><time>2026-05-01T12:36:16.999Z</time></trkpt><trkpt lat="46.2215737722199" lon="6.66463439385087"><ele>845.5</ele><time>2026-05-01T12:36:17.999Z</time></trkpt><trkpt lat="46.22138931338008" lon="6.664900232918373"><ele>849.0</ele><time>2026-05-01T12:36:19Z</time></trkpt><trkpt lat="46.22123315660499" lon="6.66514476732979"><ele>852.6666666666667</ele><time>2026-05-01T12:36:20Z</time></trkpt><trkpt lat="46.221071504290876" lon="6.665318770298599"><ele>856.3333333333334</ele><time>2026-05-01T12:36:21Z</time></trkpt><trkpt lat="46.22090306801097" lon="6.665428393577558"><ele>860.0</ele><time>2026-05-01T12:36:22Z</time></trkpt><trkpt lat="46.22071128788631" lon="6.665493960854053"><ele>861.0</ele><time>2026-05-01T12:36:23Z</time></trkpt><trkpt lat="46.22050002314907" lon="6.665544434066343"><ele>862.0</ele><time>2026-05-01T12:36:24Z</time></trkpt><trkpt lat="46.22026117438389" lon="6.665563544983088"><ele>862.0</ele><time>2026-05-01T12:36:25Z</time></trkpt><trkpt lat="46.220038205190036" lon="6.665587025384429"><ele>862.0</ele><time>2026-05-01T12:36:26Z</time></trkpt><trkpt lat="46.219841368591915" lon="6.665609665257928"><ele>862.0</ele><time>2026-05-01T12:36:27Z</time></trkpt><trkpt lat="46.219657401177834" lon="6.665637702112884"><ele>859.3333333333333</ele><time>2026-05-01T12:36:28Z</time></trkpt><trkpt lat="46.21947017527774" lon="6.66570270728903"><ele>856.6666666666667</ele><time>2026-05-01T12:36:29Z</time></trkpt><trkpt lat="46.21928114821535" lon="6.665812549231488"><ele>854.0</ele><time>2026-05-01T12:36:30Z</time></trkpt><trkpt lat="46.219082693940635" lon="6.665955087446927"><ele>855.6666666666667</ele><time>2026-05-01T12:36:31Z</time></trkpt><trkpt lat="46.218893646319835" lon="6.666086139297509"><ele>857.3333333333333</ele><time>2026-05-01T12:36:32Z</time></trkpt><trkpt lat="46.21871899267573" lon="6.66620226685505"><ele>859.0</ele><time>2026-05-01T12:36:33Z</time></trkpt><trkpt lat="46.21855270452617" lon="6.666279831450009"><ele>858.6666666666666</ele><time>2026-05-01T12:36:34Z</time></trkpt><trkpt lat="46.21838940678375" lon="6.666346025123667"><ele>858.3333333333333</ele><time>2026-05-01T12:36:35Z</time></trkpt><trkpt lat="46.21822727902738" lon="6.666413311721342"><ele>858.0</ele><time>2026-05-01T12:36:36Z</time></trkpt><trkpt lat="46.21807842241154" lon="6.666498461989777"><ele>858.0</ele><time>2026-05-01T12:36:37Z</time></trkpt><trkpt lat="46.21794506539134" lon="6.666596729118515"><ele>858.0</ele><time>2026-05-01T12:36:38Z</time></trkpt><trkpt lat="46.217802178024186" lon="6.666713562651098"><ele>858.0</ele><time>2026-05-01T12:36:39Z</time></trkpt><trkpt lat="46.2176662864578" lon="6.666828199967081"><ele>858.0</ele><time>2026-05-01T12:36:40Z</time></trkpt><trkpt lat="46.21754702204925" lon="6.666938419524367"><ele>858.0</ele><time>2026-05-01T12:36:41Z</time></trkpt><trkpt lat="46.217422476229736" lon="6.667053359373223"><ele>858.0</ele><time>2026-05-01T12:36:42Z</time></trkpt><trkpt lat="46.217285863191066" lon="6.667190060949513"><ele>858.0</ele><time>2026-05-01T12:36:43Z</time></trkpt><trkpt lat="46.21714019942488" lon="6.667348323481919"><ele>858.0</ele><time>2026-05-01T12:36:44Z</time></trkpt><trkpt lat="46.216998894307004" lon="6.667524222632346"><ele>858.0</ele><time>2026-05-01T12:36:45Z</time></trkpt><trkpt lat="46.21685636125932" lon="6.667716604055601"><ele>861.3333333333333</ele><time>2026-05-01T12:36:46Z</time></trkpt><trkpt lat="46.21672704709114" lon="6.667937320485938"><ele>864.6666666666666</ele><time>2026-05-01T12:36:47Z</time></trkpt><trkpt lat="46.216606943706736" lon="6.66816282853303"><ele>868.0</ele><time>2026-05-01T12:36:48Z</time></trkpt><trkpt lat="46.21648883938588" lon="6.668366262355244"><ele>869.6666666666666</ele><time>2026-05-01T12:36:49Z</time></trkpt><trkpt lat="46.21634958285985" lon="6.668535931043462"><ele>871.3333333333333</ele><time>2026-05-01T12:36:50Z</time></trkpt><trkpt lat="46.216188302630975" lon="6.668704141935607"><ele>873.0</ele><time>2026-05-01T12:36:51Z</time></trkpt><trkpt lat="46.216005497852926" lon="6.668872616216067"><ele>873.0</ele><time>2026-05-01T12:36:52Z</time></trkpt><trkpt lat="46.21582108201292" lon="6.669030460594725"><ele>873.0</ele><time>2026-05-01T12:36:53Z</time></trkpt><trkpt lat="46.21565500634453" lon="6.669173726037833"><ele>873.0</ele><time>2026-05-01T12:36:54Z</time></trkpt><trkpt lat="46.2154871484917" lon="6.669321132717563"><ele>874.3333333333333</ele><time>2026-05-01T12:36:55Z</time></trkpt><trkpt lat="46.215324563237246" lon="6.669462331482514"><ele>875.6666666666666</ele><time>2026-05-01T12:36:56Z</time></trkpt><trkpt lat="46.21517922277136" lon="6.669594769385982"><ele>877.0</ele><time>2026-05-01T12:36:57Z</time></trkpt><trkpt lat="46.21503600931603" lon="6.6697181255022535"><ele>877.0</ele><time>2026-05-01T12:36:58Z</time></trkpt><trkpt lat="46.214873858031346" lon="6.669832866484416"><ele>877.0</ele><time>2026-05-01T12:36:59Z</time></trkpt><trkpt lat="46.214693678899145" lon="6.669922207918868"><ele>877.0</ele><time>2026-05-01T12:37:00Z</time></trkpt><trkpt lat="46.21449352795971" lon="6.669987879458828"><ele>874.6666666666666</ele><time>2026-05-01T12:37:01Z</time></trkpt><trkpt lat="46.2142718325818" lon="6.670044967751749"><ele>872.3333333333333</ele><time>2026-05-01T12:37:02Z</time></trkpt><trkpt lat="46.21405345160574" lon="6.670114501017534"><ele>870.0</ele><time>2026-05-01T12:37:03Z</time></trkpt><trkpt lat="46.213850416315545" lon="6.6701947775653165"><ele>873.5</ele><time>2026-05-01T12:37:04Z</time></trkpt><trkpt lat="46.21363763577134" lon="6.670315177533669"><ele>877.0</ele><time>2026-05-01T12:37:05Z</time></trkpt><trkpt lat="46.21340058620747" lon="6.670469871492099"><ele>871.5</ele><time>2026-05-01T12:37:06Z</time></trkpt><trkpt lat="46.21313845381559" lon="6.670652267997183"><ele>866.0</ele><time>2026-05-01T12:37:07Z</time></trkpt><trkpt lat="46.21287296670705" lon="6.670806106363504"><ele>866.0</ele><time>2026-05-01T12:37:08Z</time></trkpt><trkpt lat="46.2126413335827" lon="6.670959636800696"><ele>866.0</ele><time>2026-05-01T12:37:09Z</time></trkpt><trkpt lat="46.21244395246216" lon="6.671092844283035"><ele>864.3333333333334</ele><time>2026-05-01T12:37:10Z</time></trkpt><trkpt lat="46.21225770464305" lon="6.671206767971116"><ele>862.6666666666667</ele><time>2026-05-01T12:37:11Z</time></trkpt><trkpt lat="46.21208728850821" lon="6.671323134705348"><ele>861.0</ele><time>2026-05-01T12:37:12Z</time></trkpt><trkpt lat="46.2119183005145" lon="6.671440009740691"><ele>861.0</ele><time>2026-05-01T12:37:13Z</time></trkpt><trkpt lat="46.21176710048637" lon="6.671544951208027"><ele>861.0</ele><time>2026-05-01T12:37:14Z</time></trkpt><trkpt lat="46.211604758910006" lon="6.67165083753"><ele>861.0</ele><time>2026-05-01T12:37:15Z</time></trkpt><trkpt lat="46.21143080679706" lon="6.671767514738322"><ele>860.6666666666667</ele><time>2026-05-01T12:37:16Z</time></trkpt><trkpt lat="46.21125679916756" lon="6.671880041097705"><ele>860.3333333333334</ele><time>2026-05-01T12:37:17Z</time></trkpt><trkpt lat="46.211092181842936" lon="6.67198789727798"><ele>860.0</ele><time>2026-05-01T12:37:18Z</time></trkpt><trkpt lat="46.2109457803399" lon="6.672083333400144"><ele>860.0</ele><time>2026-05-01T12:37:18.999Z</time></trkpt><trkpt lat="46.21080694729435" lon="6.6721691885125844"><ele>860.0</ele><time>2026-05-01T12:37:19.999Z</time></trkpt><trkpt lat="46.210677084092794" lon="6.672254999744596"><ele>860.0</ele><time>2026-05-01T12:37:20.999Z</time></trkpt><trkpt lat="46.21052531281057" lon="6.672342683265155"><ele>860.3333333333334</ele><time>2026-05-01T12:37:21.999Z</time></trkpt><trkpt lat="46.21037380873741" lon="6.672436194287194"><ele>860.6666666666667</ele><time>2026-05-01T12:37:22.999Z</time></trkpt><trkpt lat="46.210216249234236" lon="6.672535251146591"><ele>861.0</ele><time>2026-05-01T12:37:23.999Z</time></trkpt><trkpt lat="46.21005244641512" lon="6.6726483143668425"><ele>861.0</ele><time>2026-05-01T12:37:24.999Z</time></trkpt><trkpt lat="46.20987774929116" lon="6.672766081470049"><ele>861.0</ele><time>2026-05-01T12:37:25.999Z</time></trkpt><trkpt lat="46.2097043526165" lon="6.67288443898612"><ele>861.0</ele><time>2026-05-01T12:37:26.999Z</time></trkpt><trkpt lat="46.20953488564828" lon="6.67297561273359"><ele>861.6666666666667</ele><time>2026-05-01T12:37:27.999Z</time></trkpt><trkpt lat="46.20937159123315" lon="6.673062429320228"><ele>862.3333333333334</ele><time>2026-05-01T12:37:28.999Z</time></trkpt><trkpt lat="46.20919985450435" lon="6.673160729986335"><ele>863.0</ele><time>2026-05-01T12:37:29.999Z</time></trkpt><trkpt lat="46.209027363446985" lon="6.673271319310439"><ele>862.6666666666667</ele><time>2026-05-01T12:37:30.999Z</time></trkpt><trkpt lat="46.208850385339254" lon="6.673393325108328"><ele>862.3333333333333</ele><time>2026-05-01T12:37:31.999Z</time></trkpt><trkpt lat="46.20868218268401" lon="6.6735100158352"><ele>862.0</ele><time>2026-05-01T12:37:32.999Z</time></trkpt><trkpt lat="46.20853566553954" lon="6.673620715069677"><ele>863.0</ele><time>2026-05-01T12:37:33.999Z</time></trkpt><trkpt lat="46.20839638899054" lon="6.6737238020961565"><ele>864.0</ele><time>2026-05-01T12:37:34.999Z</time></trkpt><trkpt lat="46.20826462209823" lon="6.673820670050477"><ele>865.0</ele><time>2026-05-01T12:37:35.999Z</time></trkpt><trkpt lat="46.20814194707416" lon="6.673918809594707"><ele>866.0</ele><time>2026-05-01T12:37:36.999Z</time></trkpt><trkpt lat="46.208027141610636" lon="6.674010732860653"><ele>866.25</ele><time>2026-05-01T12:37:37.999Z</time></trkpt><trkpt lat="46.20791575580868" lon="6.674092188800658"><ele>866.5</ele><time>2026-05-01T12:37:38.999Z</time></trkpt><trkpt lat="46.20780663469238" lon="6.674163291047883"><ele>866.75</ele><time>2026-05-01T12:37:39.999Z</time></trkpt><trkpt lat="46.207701294845656" lon="6.674230425387652"><ele>867.0</ele><time>2026-05-01T12:37:40.999Z</time></trkpt><trkpt lat="46.20759919116164" lon="6.67430267391587"><ele>867.0</ele><time>2026-05-01T12:37:41.999Z</time></trkpt><trkpt lat="46.207499835832586" lon="6.674371169242176"><ele>867.0</ele><time>2026-05-01T12:37:42.999Z</time></trkpt><trkpt lat="46.20740537371038" lon="6.674421968109282"><ele>867.0</ele><time>2026-05-01T12:37:43.999Z</time></trkpt><trkpt lat="46.20730806146398" lon="6.674445395105191"><ele>867.0</ele><time>2026-05-01T12:37:44.999Z</time></trkpt><trkpt lat="46.207219254655776" lon="6.674447939541349"><ele>867.0</ele><time>2026-05-01T12:37:45.999Z</time></trkpt><trkpt lat="46.20713797026762" lon="6.674519276581566"><ele>868.25</ele><time>2026-05-01T12:37:46.999Z</time></trkpt><trkpt lat="46.20705863555311" lon="6.674621574618759"><ele>869.5</ele><time>2026-05-01T12:37:47.999Z</time></trkpt><trkpt lat="46.20695312275916" lon="6.674741630147068"><ele>870.75</ele><time>2026-05-01T12:37:48.999Z</time></trkpt><trkpt lat="46.20680262861372" lon="6.674821595148989"><ele>872.0</ele><time>2026-05-01T12:37:49.999Z</time></trkpt><trkpt lat="46.2066392203483" lon="6.674947101686526"><ele>873.3333333333334</ele><time>2026-05-01T12:37:50.999Z</time></trkpt><trkpt lat="46.206450904343136" lon="6.6750481302719225"><ele>874.6666666666667</ele><time>2026-05-01T12:37:51.999Z</time></trkpt><trkpt lat="46.20626959078618" lon="6.675193875469246"><ele>876.0</ele><time>2026-05-01T12:37:52.999Z</time></trkpt><trkpt lat="46.206063454875846" lon="6.675305999456331"><ele>877.5</ele><time>2026-05-01T12:37:53.999Z</time></trkpt><trkpt lat="46.20585934389423" lon="6.675441625113903"><ele>879.0</ele><time>2026-05-01T12:37:54.999Z</time></trkpt><trkpt lat="46.20564172744563" lon="6.675583210001627"><ele>879.0</ele><time>2026-05-01T12:37:55.999Z</time></trkpt><trkpt lat="46.205423617589794" lon="6.675729387831119"><ele>879.0</ele><time>2026-05-01T12:37:56.999Z</time></trkpt><trkpt lat="46.205230094615594" lon="6.6758580497033755"><ele>879.0</ele><time>2026-05-01T12:37:57.999Z</time></trkpt><trkpt lat="46.20504351929402" lon="6.675972358236323"><ele>879.0</ele><time>2026-05-01T12:37:58.999Z</time></trkpt><trkpt lat="46.20486482868519" lon="6.676081296131445"><ele>879.0</ele><time>2026-05-01T12:37:59.999Z</time></trkpt><trkpt lat="46.204684655028345" lon="6.676213119891008"><ele>881.6666666666667</ele><time>2026-05-01T12:38:00.999Z</time></trkpt><trkpt lat="46.204498965145895" lon="6.676315975603497"><ele>884.3333333333334</ele><time>2026-05-01T12:38:01.999Z</time></trkpt><trkpt lat="46.204328045917045" lon="6.676407475513166"><ele>887.0</ele><time>2026-05-01T12:38:02.999Z</time></trkpt><trkpt lat="46.2041678641583" lon="6.676500317461927"><ele>887.0</ele><time>2026-05-01T12:38:03.999Z</time></trkpt><trkpt lat="46.204030178684455" lon="6.67661961960812"><ele>887.0</ele><time>2026-05-01T12:38:04.999Z</time></trkpt><trkpt lat="46.20392205326075" lon="6.676759585344498"><ele>887.0</ele><time>2026-05-01T12:38:05.999Z</time></trkpt><trkpt lat="46.203810510226674" lon="6.67694901982633"><ele>886.0</ele><time>2026-05-01T12:38:06.999Z</time></trkpt><trkpt lat="46.203764789630135" lon="6.677114642763012"><ele>885.0</ele><time>2026-05-01T12:38:07.999Z</time></trkpt><trkpt lat="46.20375748091741" lon="6.677321100248978"><ele>884.0</ele><time>2026-05-01T12:38:08.999Z</time></trkpt><trkpt lat="46.20375831675563" lon="6.677562452059007"><ele>883.0</ele><time>2026-05-01T12:38:09.999Z</time></trkpt><trkpt lat="46.20373782212975" lon="6.677780100232232"><ele>886.3333333333333</ele><time>2026-05-01T12:38:10.999Z</time></trkpt><trkpt lat="46.203676275548546" lon="6.6779670330611385"><ele>889.6666666666667</ele><time>2026-05-01T12:38:11.999Z</time></trkpt><trkpt lat="46.20357276393037" lon="6.678132942255837"><ele>893.0</ele><time>2026-05-01T12:38:12.999Z</time></trkpt><trkpt lat="46.20343801692262" lon="6.678277034391076"><ele>893.0</ele><time>2026-05-01T12:38:13.999Z</time></trkpt><trkpt lat="46.203281399882215" lon="6.678434075496495"><ele>893.0</ele><time>2026-05-01T12:38:14.999Z</time></trkpt><trkpt lat="46.20315111676093" lon="6.67862309440481"><ele>893.0</ele><time>2026-05-01T12:38:15.999Z</time></trkpt><trkpt lat="46.203041121352555" lon="6.678778683522115"><ele>892.3333333333334</ele><time>2026-05-01T12:38:16.999Z</time></trkpt><trkpt lat="46.202954417030426" lon="6.678985405765733"><ele>891.6666666666667</ele><time>2026-05-01T12:38:17.999Z</time></trkpt><trkpt lat="46.202886699854766" lon="6.679242153417952"><ele>891.0</ele><time>2026-05-01T12:38:18.999Z</time></trkpt><trkpt lat="46.202828029723044" lon="6.679502621452931"><ele>891.0</ele><time>2026-05-01T12:38:19.999Z</time></trkpt><trkpt lat="46.20280115500834" lon="6.679761683380098"><ele>891.0</ele><time>2026-05-01T12:38:20.999Z</time></trkpt><trkpt lat="46.20280733340478" lon="6.680042074370287"><ele>891.0</ele><time>2026-05-01T12:38:21.999Z</time></trkpt><trkpt lat="46.20283247905678" lon="6.680337571938104"><ele>891.3333333333333</ele><time>2026-05-01T12:38:22.999Z</time></trkpt><trkpt lat="46.20280175716199" lon="6.680621488353721"><ele>891.6666666666666</ele><time>2026-05-01T12:38:24Z</time></trkpt><trkpt lat="46.20274452119608" lon="6.680927011696807"><ele>892.0</ele><time>2026-05-01T12:38:25Z</time></trkpt><trkpt lat="46.20268766438783" lon="6.6812301505790215"><ele>892.0</ele><time>2026-05-01T12:38:26Z</time></trkpt><trkpt lat="46.20263832544984" lon="6.681495902309452"><ele>892.0</ele><time>2026-05-01T12:38:27Z</time></trkpt><trkpt lat="46.20259933490247" lon="6.6817360644783985"><ele>892.0</ele><time>2026-05-01T12:38:27.999Z</time></trkpt><trkpt lat="46.20255502433265" lon="6.681992360961346"><ele>892.0</ele><time>2026-05-01T12:38:28.999Z</time></trkpt><trkpt lat="46.202504334819466" lon="6.68225996385968"><ele>892.0</ele><time>2026-05-01T12:38:29.999Z</time></trkpt><trkpt lat="46.20248250581448" lon="6.682492895647648"><ele>892.0</ele><time>2026-05-01T12:38:30.999Z</time></trkpt><trkpt lat="46.202461542032644" lon="6.682680771818626"><ele>891.6</ele><time>2026-05-01T12:38:31.999Z</time></trkpt><trkpt lat="46.20245106190126" lon="6.682847185719429"><ele>891.2</ele><time>2026-05-01T12:38:32.999Z</time></trkpt><trkpt lat="46.20238444418335" lon="6.682958237669242"><ele>890.8</ele><time>2026-05-01T12:38:33.999Z</time></trkpt><trkpt lat="46.20232304684045" lon="6.683047039158777"><ele>890.4</ele><time>2026-05-01T12:38:34.999Z</time></trkpt><trkpt lat="46.202270274854534" lon="6.683158814345041"><ele>890.0</ele><time>2026-05-01T12:38:35.999Z</time></trkpt><trkpt lat="46.20217197693244" lon="6.683170807954881"><ele>890.0000000000001</ele><time>2026-05-01T12:38:36.999Z</time></trkpt><trkpt lat="46.202083407676895" lon="6.683193003789075"><ele>890.0</ele><time>2026-05-01T12:38:37.999Z</time></trkpt><trkpt lat="46.20199588561476" lon="6.683120967282004"><ele>890.0</ele><time>2026-05-01T12:38:38.999Z</time></trkpt><trkpt lat="46.20192466918616" lon="6.683120967283566"><ele>890.0</ele><time>2026-05-01T12:38:40Z</time></trkpt><trkpt lat="46.2018689597171" lon="6.683228046754572"><ele>890.0000000000001</ele><time>2026-05-01T12:38:41Z</time></trkpt><trkpt lat="46.20186581846958" lon="6.683362148209524"><ele>890.0</ele><time>2026-05-01T12:38:42Z</time></trkpt><trkpt lat="46.201851278195605" lon="6.683503103078858"><ele>891.0</ele><time>2026-05-01T12:38:43Z</time></trkpt><trkpt lat="46.201799811376404" lon="6.683670318329469"><ele>892.0</ele><time>2026-05-01T12:38:44Z</time></trkpt><trkpt lat="46.20171062772021" lon="6.683813498800987"><ele>893.0</ele><time>2026-05-01T12:38:45Z</time></trkpt><trkpt lat="46.201592885642526" lon="6.683932645307602"><ele>894.0</ele><time>2026-05-01T12:38:46Z</time></trkpt><trkpt lat="46.20147502437834" lon="6.684036246930972"><ele>894.0</ele><time>2026-05-01T12:38:47Z</time></trkpt><trkpt lat="46.20138829529589" lon="6.6841511985768545"><ele>894.0</ele><time>2026-05-01T12:38:48Z</time></trkpt><trkpt lat="46.201316605512105" lon="6.6842984776981345"><ele>894.0</ele><time>2026-05-01T12:38:49Z</time></trkpt><trkpt lat="46.201257264582686" lon="6.684489292422636"><ele>894.0</ele><time>2026-05-01T12:38:50Z</time></trkpt><trkpt lat="46.20119818368288" lon="6.684687197250572"><ele>894.3333333333333</ele><time>2026-05-01T12:38:51Z</time></trkpt><trkpt lat="46.20113825503688" lon="6.684902514040573"><ele>894.6666666666666</ele><time>2026-05-01T12:38:52Z</time></trkpt><trkpt lat="46.20105806521076" lon="6.6851425637837005"><ele>895.0</ele><time>2026-05-01T12:38:53Z</time></trkpt><trkpt lat="46.201014986691796" lon="6.685381480310979"><ele>894.3333333333333</ele><time>2026-05-01T12:38:54Z</time></trkpt><trkpt lat="46.200975434496634" lon="6.685597030013162"><ele>893.6666666666667</ele><time>2026-05-01T12:38:55Z</time></trkpt><trkpt lat="46.20091733229017" lon="6.685809896440343"><ele>893.0</ele><time>2026-05-01T12:38:56Z</time></trkpt><trkpt lat="46.200881295043146" lon="6.686020650275521"><ele>893.25</ele><time>2026-05-01T12:38:57Z</time></trkpt><trkpt lat="46.20086120092697" lon="6.686218952875532"><ele>893.5</ele><time>2026-05-01T12:38:58Z</time></trkpt><trkpt lat="46.20082348391039" lon="6.686420887940786"><ele>893.75</ele><time>2026-05-01T12:38:59Z</time></trkpt><trkpt lat="46.20078848923886" lon="6.68663118458876"><ele>894.0</ele><time>2026-05-01T12:39:00Z</time></trkpt><trkpt lat="46.200751372540324" lon="6.686850399156425"><ele>894.0</ele><time>2026-05-01T12:39:01Z</time></trkpt><trkpt lat="46.20071193623065" lon="6.687068780474144"><ele>894.0</ele><time>2026-05-01T12:39:02Z</time></trkpt><trkpt lat="46.20065745046235" lon="6.68727244378871"><ele>894.0</ele><time>2026-05-01T12:39:03Z</time></trkpt><trkpt lat="46.20063559835198" lon="6.6874820333702"><ele>894.0</ele><time>2026-05-01T12:39:04Z</time></trkpt><trkpt lat="46.20059869403312" lon="6.687685976169143"><ele>894.0</ele><time>2026-05-01T12:39:05Z</time></trkpt><trkpt lat="46.20056448531218" lon="6.687878044688984"><ele>894.0</ele><time>2026-05-01T12:39:06Z</time></trkpt><trkpt lat="46.20052590142696" lon="6.688089562022102"><ele>894.0</ele><time>2026-05-01T12:39:07Z</time></trkpt><trkpt lat="46.20045819060921" lon="6.688295402704057"><ele>894.0</ele><time>2026-05-01T12:39:08Z</time></trkpt><trkpt lat="46.20039181823984" lon="6.6885015608200975"><ele>894.0</ele><time>2026-05-01T12:39:09Z</time></trkpt><trkpt lat="46.200339165248195" lon="6.688698383890592"><ele>894.0</ele><time>2026-05-01T12:39:10Z</time></trkpt><trkpt lat="46.2003109181115" lon="6.688885009348449"><ele>894.0</ele><time>2026-05-01T12:39:11Z</time></trkpt><trkpt lat="46.20029278461223" lon="6.689066711408801"><ele>894.6</ele><time>2026-05-01T12:39:12Z</time></trkpt><trkpt lat="46.20029457473861" lon="6.689235470223862"><ele>895.2</ele><time>2026-05-01T12:39:13Z</time></trkpt><trkpt lat="46.2002540124726" lon="6.6893652107320625"><ele>895.8000000000001</ele><time>2026-05-01T12:39:14Z</time></trkpt><trkpt lat="46.200208029823436" lon="6.689470604122848"><ele>896.4000000000001</ele><time>2026-05-01T12:39:15Z</time></trkpt><trkpt lat="46.20014234207552" lon="6.689543315447438"><ele>897.0</ele><time>2026-05-01T12:39:16Z</time></trkpt><trkpt lat="46.20004563360784" lon="6.689570514708778"><ele>897.25</ele><time>2026-05-01T12:39:17Z</time></trkpt><trkpt lat="46.199943238158006" lon="6.689547934632795"><ele>897.5</ele><time>2026-05-01T12:39:18Z</time></trkpt><trkpt lat="46.19984197022752" lon="6.689461306771405"><ele>897.75</ele><time>2026-05-01T12:39:19Z</time></trkpt><trkpt lat="46.19971381894417" lon="6.689406546279989"><ele>898.0</ele><time>2026-05-01T12:39:20Z</time></trkpt><trkpt lat="46.19960520846592" lon="6.689356347046807"><ele>898.0</ele><time>2026-05-01T12:39:21Z</time></trkpt><trkpt lat="46.19951184676583" lon="6.689343434865762"><ele>898.0</ele><time>2026-05-01T12:39:22Z</time></trkpt><trkpt lat="46.19941687999943" lon="6.689438989375586"><ele>898.0</ele><time>2026-05-01T12:39:22.999Z</time></trkpt><trkpt lat="46.19931555639314" lon="6.689577591766197"><ele>898.0</ele><time>2026-05-01T12:39:23.999Z</time></trkpt><trkpt lat="46.199197477539414" lon="6.689752949744629"><ele>898.6666666666666</ele><time>2026-05-01T12:39:24.999Z</time></trkpt><trkpt lat="46.19904604366904" lon="6.689922224327831"><ele>899.3333333333333</ele><time>2026-05-01T12:39:25.999Z</time></trkpt><trkpt lat="46.198923505168935" lon="6.690165065980296"><ele>900.0</ele><time>2026-05-01T12:39:26.999Z</time></trkpt><trkpt lat="46.19880310404148" lon="6.690453623174093"><ele>905.5</ele><time>2026-05-01T12:39:27.999Z</time></trkpt><trkpt lat="46.198664273756435" lon="6.690713404943626"><ele>911.0</ele><time>2026-05-01T12:39:28.999Z</time></trkpt><trkpt lat="46.19849400549951" lon="6.690977581220422"><ele>919.5</ele><time>2026-05-01T12:39:29.999Z</time></trkpt><trkpt lat="46.198348318372275" lon="6.691308438788178"><ele>928.0</ele><time>2026-05-01T12:39:30.999Z</time></trkpt><trkpt lat="46.19819814486571" lon="6.69162250185689"><ele>927.3333333333333</ele><time>2026-05-01T12:39:31.999Z</time></trkpt><trkpt lat="46.19806301300696" lon="6.691898284550768"><ele>926.6666666666667</ele><time>2026-05-01T12:39:32.999Z</time></trkpt><trkpt lat="46.197932648108704" lon="6.692143134013625"><ele>926.0</ele><time>2026-05-01T12:39:33.999Z</time></trkpt><trkpt lat="46.197806625016426" lon="6.692359681958843"><ele>926.0</ele><time>2026-05-01T12:39:34.999Z</time></trkpt><trkpt lat="46.19769093937412" lon="6.692560953997717"><ele>926.0</ele><time>2026-05-01T12:39:35.999Z</time></trkpt><trkpt lat="46.197602462904754" lon="6.692744710987383"><ele>926.0</ele><time>2026-05-01T12:39:36.999Z</time></trkpt><trkpt lat="46.19753545498486" lon="6.692902959518308"><ele>926.0</ele><time>2026-05-01T12:39:37.999Z</time></trkpt><trkpt lat="46.19747798005811" lon="6.693054845188829"><ele>926.0</ele><time>2026-05-01T12:39:38.999Z</time></trkpt><trkpt lat="46.19741026914416" lon="6.693215861007573"><ele>926.0</ele><time>2026-05-01T12:39:39.999Z</time></trkpt><trkpt lat="46.19733778432791" lon="6.693382983995241"><ele>926.0</ele><time>2026-05-01T12:39:40.999Z</time></trkpt><trkpt lat="46.197273931436634" lon="6.693526992754414"><ele>928.8333333333334</ele><time>2026-05-01T12:39:41.999Z</time></trkpt><trkpt lat="46.197224981938575" lon="6.693650816957637"><ele>931.6666666666667</ele><time>2026-05-01T12:39:42.999Z</time></trkpt><trkpt lat="46.19719079679369" lon="6.6937463671432385"><ele>934.5</ele><time>2026-05-01T12:39:43.999Z</time></trkpt><trkpt lat="46.19716855037444" lon="6.693834965798726"><ele>937.3333333333333</ele><time>2026-05-01T12:39:44.999Z</time></trkpt><trkpt lat="46.19711315666988" lon="6.693997352615206"><ele>940.1666666666666</ele><time>2026-05-01T12:39:46.999Z</time></trkpt><trkpt lat="46.19707092508072" lon="6.694076292419039"><ele>943.0</ele><time>2026-05-01T12:39:48.999Z</time></trkpt><trkpt lat="46.19722537165676" lon="6.694241794168279"><ele>943.0</ele><time>2026-05-01T12:39:53.999Z</time></trkpt><trkpt lat="46.19732692569629" lon="6.694248382749181"><ele>943.0</ele><time>2026-05-01T12:39:54.999Z</time></trkpt><trkpt lat="46.19743602278523" lon="6.694237538036541"><ele>943.0</ele><time>2026-05-01T12:39:55.999Z</time></trkpt><trkpt lat="46.19756789811605" lon="6.694231147547968"><ele>943.0</ele><time>2026-05-01T12:39:56.999Z</time></trkpt><trkpt lat="46.19769140094127" lon="6.694228196001761"><ele>943.2</ele><time>2026-05-01T12:39:57.999Z</time></trkpt><trkpt lat="46.19780154121773" lon="6.694221394554916"><ele>943.4</ele><time>2026-05-01T12:39:58.999Z</time></trkpt><trkpt lat="46.197904036701935" lon="6.6942123260313675"><ele>943.6000000000001</ele><time>2026-05-01T12:39:59.999Z</time></trkpt><trkpt lat="46.19799964704703" lon="6.694209716593088"><ele>943.8000000000001</ele><time>2026-05-01T12:40:00.999Z</time></trkpt><trkpt lat="46.198095712450524" lon="6.694203188609046"><ele>944.0</ele><time>2026-05-01T12:40:01.999Z</time></trkpt><trkpt lat="46.19820801815235" lon="6.694180723977881"><ele>944.0</ele><time>2026-05-01T12:40:02.999Z</time></trkpt><trkpt lat="46.19832897440125" lon="6.694132755441819"><ele>944.0</ele><time>2026-05-01T12:40:03.999Z</time></trkpt><trkpt lat="46.19843962558157" lon="6.6940729175651885"><ele>944.0</ele><time>2026-05-01T12:40:04.999Z</time></trkpt><trkpt lat="46.198542964011445" lon="6.694020814808213"><ele>944.0</ele><time>2026-05-01T12:40:05.999Z</time></trkpt><trkpt lat="46.198634836621544" lon="6.693965523201241"><ele>944.0</ele><time>2026-05-01T12:40:06.999Z</time></trkpt><trkpt lat="46.198721365362246" lon="6.693919682637676"><ele>944.0000000000001</ele><time>2026-05-01T12:40:07.999Z</time></trkpt><trkpt lat="46.198811325158296" lon="6.693905522554781"><ele>944.0000000000001</ele><time>2026-05-01T12:40:08.999Z</time></trkpt><trkpt lat="46.19889953302664" lon="6.693921362033631"><ele>944.0</ele><time>2026-05-01T12:40:09.999Z</time></trkpt><trkpt lat="46.198998360859825" lon="6.693966464374321"><ele>944.0</ele><time>2026-05-01T12:40:10.999Z</time></trkpt><trkpt lat="46.199075840465326" lon="6.6940362854507764"><ele>943.25</ele><time>2026-05-01T12:40:11.999Z</time></trkpt><trkpt lat="46.19914098614491" lon="6.694146043664583"><ele>942.5</ele><time>2026-05-01T12:40:12.999Z</time></trkpt><trkpt lat="46.199192483440896" lon="6.694300757255563"><ele>941.75</ele><time>2026-05-01T12:40:13.999Z</time></trkpt><trkpt lat="46.19925033161171" lon="6.694493824647089"><ele>941.0</ele><time>2026-05-01T12:40:14.999Z</time></trkpt><trkpt lat="46.19932612027829" lon="6.694703153699384"><ele>941.0</ele><time>2026-05-01T12:40:15.999Z</time></trkpt><trkpt lat="46.19940842882137" lon="6.694926161022773"><ele>941.0</ele><time>2026-05-01T12:40:16.999Z</time></trkpt><trkpt lat="46.19948966616923" lon="6.695131052408417"><ele>941.0</ele><time>2026-05-01T12:40:17.999Z</time></trkpt><trkpt lat="46.19956192215832" lon="6.695317832244699"><ele>941.0</ele><time>2026-05-01T12:40:18.999Z</time></trkpt><trkpt lat="46.199636313950634" lon="6.695508909594891"><ele>941.0</ele><time>2026-05-01T12:40:19.999Z</time></trkpt><trkpt lat="46.199699525850455" lon="6.695681151803037"><ele>941.0</ele><time>2026-05-01T12:40:20.999Z</time></trkpt><trkpt lat="46.199761242287735" lon="6.695849599215816"><ele>941.0</ele><time>2026-05-01T12:40:21.999Z</time></trkpt><trkpt lat="46.19981394904148" lon="6.695995601957353"><ele>942.8</ele><time>2026-05-01T12:40:22.999Z</time></trkpt><trkpt lat="46.199862830020024" lon="6.6961313392259285"><ele>944.5999999999999</ele><time>2026-05-01T12:40:23.999Z</time></trkpt><trkpt lat="46.19991448512235" lon="6.696265920174283"><ele>946.4</ele><time>2026-05-01T12:40:24.999Z</time></trkpt><trkpt lat="46.19995823151663" lon="6.696388739069051"><ele>948.2</ele><time>2026-05-01T12:40:25.999Z</time></trkpt><trkpt lat="46.20000255851932" lon="6.696533599261074"><ele>950.0</ele><time>2026-05-01T12:40:26.999Z</time></trkpt><trkpt lat="46.20004474529508" lon="6.696686642017484"><ele>950.0</ele><time>2026-05-01T12:40:27.999Z</time></trkpt><trkpt lat="46.200103043322784" lon="6.696837323876529"><ele>950.0</ele><time>2026-05-01T12:40:29Z</time></trkpt><trkpt lat="46.2001880426378" lon="6.696993173425816"><ele>950.0</ele><time>2026-05-01T12:40:30Z</time></trkpt><trkpt lat="46.2002790951977" lon="6.697191430336831"><ele>950.0</ele><time>2026-05-01T12:40:31Z</time></trkpt><trkpt lat="46.200370782546614" lon="6.697436124105024"><ele>951.6666666666667</ele><time>2026-05-01T12:40:32Z</time></trkpt><trkpt lat="46.20046775411162" lon="6.697691158718193"><ele>953.3333333333333</ele><time>2026-05-01T12:40:33Z</time></trkpt><trkpt lat="46.200571593331354" lon="6.697970564413757"><ele>955.0</ele><time>2026-05-01T12:40:34Z</time></trkpt><trkpt lat="46.20068648311759" lon="6.698273121378657"><ele>960.0</ele><time>2026-05-01T12:40:35Z</time></trkpt><trkpt lat="46.200812612091966" lon="6.698593250659731"><ele>965.0</ele><time>2026-05-01T12:40:36Z</time></trkpt><trkpt lat="46.20093600026407" lon="6.698902141236054"><ele>965.0</ele><time>2026-05-01T12:40:37Z</time></trkpt><trkpt lat="46.201040979395785" lon="6.699180356518756"><ele>965.0</ele><time>2026-05-01T12:40:38Z</time></trkpt><trkpt lat="46.20114549529645" lon="6.699448486301017"><ele>965.0</ele><time>2026-05-01T12:40:39Z</time></trkpt><trkpt lat="46.20124263249071" lon="6.699753450462918"><ele>969.0</ele><time>2026-05-01T12:40:40Z</time></trkpt><trkpt lat="46.201364862687626" lon="6.700074868011502"><ele>973.0</ele><time>2026-05-01T12:40:41Z</time></trkpt><trkpt lat="46.20148512031154" lon="6.700402253053379"><ele>972.3333333333333</ele><time>2026-05-01T12:40:42Z</time></trkpt><trkpt lat="46.201586909934626" lon="6.700701675843521"><ele>971.6666666666667</ele><time>2026-05-01T12:40:43Z</time></trkpt><trkpt lat="46.20165819147274" lon="6.700995567617406"><ele>971.0</ele><time>2026-05-01T12:40:44Z</time></trkpt><trkpt lat="46.201723557651334" lon="6.70132964968079"><ele>975.0</ele><time>2026-05-01T12:40:45Z</time></trkpt><trkpt lat="46.20179973738251" lon="6.7016717093930005"><ele>979.0</ele><time>2026-05-01T12:40:46Z</time></trkpt><trkpt lat="46.201865143856466" lon="6.70198628209077"><ele>983.0</ele><time>2026-05-01T12:40:47Z</time></trkpt><trkpt lat="46.20194292063887" lon="6.7022623737523945"><ele>987.0</ele><time>2026-05-01T12:40:48Z</time></trkpt><trkpt lat="46.20202293601843" lon="6.702492001638003"><ele>991.0</ele><time>2026-05-01T12:40:49Z</time></trkpt><trkpt lat="46.20208996605827" lon="6.702723043570267"><ele>996.3333333333333</ele><time>2026-05-01T12:40:50Z</time></trkpt><trkpt lat="46.20212928617317" lon="6.702963509108618"><ele>1001.6666666666667</ele><time>2026-05-01T12:40:51Z</time></trkpt><trkpt lat="46.202134959172106" lon="6.703218200748448"><ele>1007.0</ele><time>2026-05-01T12:40:52Z</time></trkpt><trkpt lat="46.20214425102629" lon="6.703490410329472"><ele>1013.0</ele><time>2026-05-01T12:40:53Z</time></trkpt><trkpt lat="46.20218463962517" lon="6.703739107807712"><ele>1019.0</ele><time>2026-05-01T12:40:54Z</time></trkpt><trkpt lat="46.20225409681153" lon="6.703985267996006"><ele>1025.0</ele><time>2026-05-01T12:40:55Z</time></trkpt><trkpt lat="46.20237084793873" lon="6.704202946300238"><ele>1022.0</ele><time>2026-05-01T12:40:56Z</time></trkpt><trkpt lat="46.20249948048149" lon="6.7044176808738385"><ele>1019.0</ele><time>2026-05-01T12:40:57Z</time></trkpt><trkpt lat="46.20262734944554" lon="6.704671454169545"><ele>1016.0</ele><time>2026-05-01T12:40:58Z</time></trkpt><trkpt lat="46.20276799233657" lon="6.704937017706583"><ele>1016.0</ele><time>2026-05-01T12:40:59Z</time></trkpt><trkpt lat="46.20291481128343" lon="6.70522895635557"><ele>1016.0</ele><time>2026-05-01T12:41:00Z</time></trkpt><trkpt lat="46.203068994296125" lon="6.705543318247681"><ele>1020.5</ele><time>2026-05-01T12:41:01Z</time></trkpt><trkpt lat="46.20320578189618" lon="6.7058270957992985"><ele>1025.0</ele><time>2026-05-01T12:41:02Z</time></trkpt><trkpt lat="46.203325580485014" lon="6.706081934437293"><ele>1025.0</ele><time>2026-05-01T12:41:03Z</time></trkpt><trkpt lat="46.20342531216685" lon="6.706324884869569"><ele>1025.0</ele><time>2026-05-01T12:41:04Z</time></trkpt><trkpt lat="46.203507909298764" lon="6.706578738785126"><ele>1025.0</ele><time>2026-05-01T12:41:05Z</time></trkpt><trkpt lat="46.203566083651374" lon="6.706857356067994"><ele>1029.6666666666667</ele><time>2026-05-01T12:41:06Z</time></trkpt><trkpt lat="46.20364185160137" lon="6.707132786254268"><ele>1034.3333333333333</ele><time>2026-05-01T12:41:07Z</time></trkpt><trkpt lat="46.20372662395895" lon="6.707408353462878"><ele>1039.0</ele><time>2026-05-01T12:41:08Z</time></trkpt><trkpt lat="46.20378444442116" lon="6.707704532776411"><ele>1048.5</ele><time>2026-05-01T12:41:09Z</time></trkpt><trkpt lat="46.20383809025854" lon="6.7080198420570865"><ele>1058.0</ele><time>2026-05-01T12:41:10Z</time></trkpt><trkpt lat="46.20391117011097" lon="6.708346500564923"><ele>1042.0</ele><time>2026-05-01T12:41:11Z</time></trkpt><trkpt lat="46.2040062892761" lon="6.708688167399002"><ele>1026.0</ele><time>2026-05-01T12:41:11.999Z</time></trkpt><trkpt lat="46.20410085357662" lon="6.708983682028928"><ele>1026.0</ele><time>2026-05-01T12:41:12.999Z</time></trkpt><trkpt lat="46.20418697638108" lon="6.709238382932838"><ele>1026.0</ele><time>2026-05-01T12:41:13.999Z</time></trkpt><trkpt lat="46.20427927519164" lon="6.709511348762747"><ele>1026.0</ele><time>2026-05-01T12:41:14.999Z</time></trkpt><trkpt lat="46.20438037037622" lon="6.709810327795556"><ele>1032.3333333333333</ele><time>2026-05-01T12:41:15.999Z</time></trkpt><trkpt lat="46.204483513093976" lon="6.710103973251182"><ele>1038.6666666666665</ele><time>2026-05-01T12:41:16.999Z</time></trkpt><trkpt lat="46.20458899457956" lon="6.710367101019031"><ele>1045.0</ele><time>2026-05-01T12:41:17.999Z</time></trkpt><trkpt lat="46.20467577784886" lon="6.710592138936904"><ele>1054.0</ele><time>2026-05-01T12:41:18.999Z</time></trkpt><trkpt lat="46.20473032864721" lon="6.710817427196058"><ele>1063.0</ele><time>2026-05-01T12:41:19.999Z</time></trkpt><trkpt lat="46.204760465857575" lon="6.711075498028607"><ele>1072.0</ele><time>2026-05-01T12:41:20.999Z</time></trkpt><trkpt lat="46.20478079725728" lon="6.711365580361902"><ele>1079.6666666666665</ele><time>2026-05-01T12:41:21.999Z</time></trkpt><trkpt lat="46.20480731308533" lon="6.711654161174601"><ele>1087.3333333333333</ele><time>2026-05-01T12:41:22.999Z</time></trkpt><trkpt lat="46.20484735890339" lon="6.711874905094686"><ele>1095.0</ele><time>2026-05-01T12:41:23.999Z</time></trkpt><trkpt lat="46.20490138500164" lon="6.712112895900965"><ele>1087.6666666666667</ele><time>2026-05-01T12:41:24.999Z</time></trkpt><trkpt lat="46.205008318198196" lon="6.712329994713942"><ele>1080.3333333333335</ele><time>2026-05-01T12:41:25.999Z</time></trkpt><trkpt lat="46.20512523319044" lon="6.7125645628544515"><ele>1073.0</ele><time>2026-05-01T12:41:26.999Z</time></trkpt><trkpt lat="46.20525215920564" lon="6.712816358246209"><ele>1073.0</ele><time>2026-05-01T12:41:27.999Z</time></trkpt><trkpt lat="46.20537400781435" lon="6.713058080554234"><ele>1073.0</ele><time>2026-05-01T12:41:28.999Z</time></trkpt><trkpt lat="46.20547678152746" lon="6.7132619622339575"><ele>1073.0</ele><time>2026-05-01T12:41:29.999Z</time></trkpt><trkpt lat="46.205572161556944" lon="6.713447160347411"><ele>1065.0</ele><time>2026-05-01T12:41:30.999Z</time></trkpt><trkpt lat="46.20568191291865" lon="6.7136056419931505"><ele>1057.0</ele><time>2026-05-01T12:41:31.999Z</time></trkpt><trkpt lat="46.20577481583396" lon="6.713815687774723"><ele>1049.0</ele><time>2026-05-01T12:41:32.999Z</time></trkpt><trkpt lat="46.20585306926884" lon="6.714054196416627"><ele>1049.0</ele><time>2026-05-01T12:41:33.999Z</time></trkpt><trkpt lat="46.20590778322674" lon="6.714298527864498"><ele>1049.0</ele><time>2026-05-01T12:41:34.999Z</time></trkpt><trkpt lat="46.205975641898775" lon="6.71453746126771"><ele>1049.0</ele><time>2026-05-01T12:41:35.999Z</time></trkpt><trkpt lat="46.206066756736426" lon="6.7147544548016525"><ele>1055.3333333333335</ele><time>2026-05-01T12:41:36.999Z</time></trkpt><trkpt lat="46.2061645205505" lon="6.714937040842446"><ele>1061.6666666666667</ele><time>2026-05-01T12:41:37.999Z</time></trkpt><trkpt lat="46.20632578583281" lon="6.715135924893658"><ele>1068.0</ele><time>2026-05-01T12:41:38.999Z</time></trkpt><trkpt lat="46.20644345696836" lon="6.715330724668012"><ele>1065.0</ele><time>2026-05-01T12:41:39.999Z</time></trkpt><trkpt lat="46.206559097932235" lon="6.715560977027003"><ele>1062.0</ele><time>2026-05-01T12:41:40.999Z</time></trkpt><trkpt lat="46.20663029699193" lon="6.715791928298789"><ele>1059.0</ele><time>2026-05-01T12:41:41.999Z</time></trkpt><trkpt lat="46.206694254444145" lon="6.715997725553017"><ele>1062.0</ele><time>2026-05-01T12:41:42.999Z</time></trkpt><trkpt lat="46.20678176230109" lon="6.7161735174834325"><ele>1065.0</ele><time>2026-05-01T12:41:43.999Z</time></trkpt><trkpt lat="46.20688751778208" lon="6.716308108931567"><ele>1068.0</ele><time>2026-05-01T12:41:44.999Z</time></trkpt><trkpt lat="46.207005445960405" lon="6.716394938173621"><ele>1071.0</ele><time>2026-05-01T12:41:45.999Z</time></trkpt><trkpt lat="46.20714631196969" lon="6.716462089849251"><ele>1071.0</ele><time>2026-05-01T12:41:46.999Z</time></trkpt><trkpt lat="46.2073071330179" lon="6.716520055304601"><ele>1071.0</ele><time>2026-05-01T12:41:47.999Z</time></trkpt><trkpt lat="46.207452925204635" lon="6.716575572629146"><ele>1071.0</ele><time>2026-05-01T12:41:48.999Z</time></trkpt><trkpt lat="46.20757743709633" lon="6.716625672652672"><ele>1071.0</ele><time>2026-05-01T12:41:49.999Z</time></trkpt><trkpt lat="46.2076872065976" lon="6.716656567754865"><ele>1072.5</ele><time>2026-05-01T12:41:50.999Z</time></trkpt><trkpt lat="46.20780943561142" lon="6.716685174015111"><ele>1074.0</ele><time>2026-05-01T12:41:51.999Z</time></trkpt><trkpt lat="46.2079538241944" lon="6.716699729661377"><ele>1075.5</ele><time>2026-05-01T12:41:52.999Z</time></trkpt><trkpt lat="46.20807616959631" lon="6.716737734176066"><ele>1077.0</ele><time>2026-05-01T12:41:53.999Z</time></trkpt><trkpt lat="46.208186625795705" lon="6.716841322048931"><ele>1077.5</ele><time>2026-05-01T12:41:54.999Z</time></trkpt><trkpt lat="46.208278272926655" lon="6.716991439915649"><ele>1078.0</ele><time>2026-05-01T12:41:55.999Z</time></trkpt><trkpt lat="46.20833534696366" lon="6.717153155737303"><ele>1078.5</ele><time>2026-05-01T12:41:56.999Z</time></trkpt><trkpt lat="46.20835681124565" lon="6.7173208490242935"><ele>1079.0</ele><time>2026-05-01T12:41:57.999Z</time></trkpt><trkpt lat="46.208360187061736" lon="6.717498313851677"><ele>1079.0</ele><time>2026-05-01T12:41:58.999Z</time></trkpt><trkpt lat="46.208362441771456" lon="6.717650022068017"><ele>1079.0</ele><time>2026-05-01T12:41:59.999Z</time></trkpt><trkpt lat="46.20839449284069" lon="6.717781279342547"><ele>1079.0</ele><time>2026-05-01T12:42:00.999Z</time></trkpt><trkpt lat="46.2084626439005" lon="6.717876836332969"><ele>1079.0</ele><time>2026-05-01T12:42:01.999Z</time></trkpt><trkpt lat="46.2085417573171" lon="6.717964050180109"><ele>1079.0</ele><time>2026-05-01T12:42:02.999Z</time></trkpt><trkpt lat="46.20862592068837" lon="6.718050268839062"><ele>1080.0</ele><time>2026-05-01T12:42:03.999Z</time></trkpt><trkpt lat="46.20868742796873" lon="6.718147992509304"><ele>1081.0</ele><time>2026-05-01T12:42:04.999Z</time></trkpt><trkpt lat="46.2087193599937" lon="6.718264824027105"><ele>1082.0</ele><time>2026-05-01T12:42:05.999Z</time></trkpt><trkpt lat="46.208740129116016" lon="6.718390471072108"><ele>1083.0</ele><time>2026-05-01T12:42:06.999Z</time></trkpt><trkpt lat="46.20875295848495" lon="6.718503396926377"><ele>1084.0</ele><time>2026-05-01T12:42:07.999Z</time></trkpt><trkpt lat="46.20876733611938" lon="6.718609310379208"><ele>1085.0</ele><time>2026-05-01T12:42:08.999Z</time></trkpt><trkpt lat="46.20878144042798" lon="6.718703985607377"><ele>1086.3333333333335</ele><time>2026-05-01T12:42:09.999Z</time></trkpt><trkpt lat="46.20879348199972" lon="6.718798398528557"><ele>1087.6666666666667</ele><time>2026-05-01T12:42:10.999Z</time></trkpt><trkpt lat="46.20881234799688" lon="6.718898478337334"><ele>1089.0</ele><time>2026-05-01T12:42:11.999Z</time></trkpt><trkpt lat="46.20882773236267" lon="6.719000250778588"><ele>1090.3333333333333</ele><time>2026-05-01T12:42:12.999Z</time></trkpt><trkpt lat="46.208840992521964" lon="6.719091828431839"><ele>1091.6666666666665</ele><time>2026-05-01T12:42:13.999Z</time></trkpt><trkpt lat="46.20886392345071" lon="6.719249722377001"><ele>1093.0</ele><time>2026-05-01T12:42:15.999Z</time></trkpt><trkpt lat="46.20888018910834" lon="6.719374833031551"><ele>1091.1666666666665</ele><time>2026-05-01T12:42:17.999Z</time></trkpt><trkpt lat="46.20885354795843" lon="6.71946345452099"><ele>1089.3333333333333</ele><time>2026-05-01T12:42:24.999Z</time></trkpt><trkpt lat="46.20887459785126" lon="6.7195505016571255"><ele>1087.5</ele><time>2026-05-01T12:42:27.999Z</time></trkpt><trkpt lat="46.208926249862614" lon="6.719704159882947"><ele>1085.6666666666667</ele><time>2026-05-01T12:42:29.999Z</time></trkpt><trkpt lat="46.20895090464494" lon="6.719825860287437"><ele>1083.8333333333335</ele><time>2026-05-01T12:42:30.999Z</time></trkpt><trkpt lat="46.20896663313789" lon="6.719925496898065"><ele>1082.0</ele><time>2026-05-01T12:42:31.999Z</time></trkpt><trkpt lat="46.208989217603076" lon="6.720013652453475"><ele>1083.1666666666667</ele><time>2026-05-01T12:42:32.999Z</time></trkpt><trkpt lat="46.20901124903765" lon="6.720104708706"><ele>1084.3333333333335</ele><time>2026-05-01T12:42:33.999Z</time></trkpt><trkpt lat="46.209038501750705" lon="6.7201917333612196"><ele>1085.5</ele><time>2026-05-01T12:42:34.999Z</time></trkpt><trkpt lat="46.20906261000247" lon="6.720281289632627"><ele>1086.6666666666667</ele><time>2026-05-01T12:42:35.999Z</time></trkpt><trkpt lat="46.209082493724196" lon="6.72043688211883"><ele>1087.8333333333333</ele><time>2026-05-01T12:42:37.999Z</time></trkpt><trkpt lat="46.20910854233509" lon="6.720574154200442"><ele>1089.0</ele><time>2026-05-01T12:42:39.999Z</time></trkpt><trkpt lat="46.2091639470909" lon="6.720649877166925"><ele>1086.2</ele><time>2026-05-01T12:42:41.999Z</time></trkpt><trkpt lat="46.20923881484512" lon="6.720619412320857"><ele>1083.4</ele><time>2026-05-01T12:42:44.999Z</time></trkpt><trkpt lat="46.20930706617619" lon="6.720599293983284"><ele>1080.6</ele><time>2026-05-01T12:43:29.999Z</time></trkpt><trkpt lat="46.209423242051585" lon="6.720655757717873"><ele>1077.8</ele><time>2026-05-01T12:43:33.999Z</time></trkpt><trkpt lat="46.209503979839916" lon="6.720705865248364"><ele>1075.0</ele><time>2026-05-01T12:43:34.999Z</time></trkpt><trkpt lat="46.20959645696087" lon="6.7207632584885015"><ele>1075.0</ele><time>2026-05-01T12:43:35.999Z</time></trkpt><trkpt lat="46.209719780226166" lon="6.720822191996962"><ele>1075.0</ele><time>2026-05-01T12:43:36.999Z</time></trkpt><trkpt lat="46.20982950013021" lon="6.720919620539009"><ele>1075.0</ele><time>2026-05-01T12:43:37.999Z</time></trkpt><trkpt lat="46.20994410980736" lon="6.720989488921248"><ele>1075.0</ele><time>2026-05-01T12:43:38.999Z</time></trkpt><trkpt lat="46.2100523939535" lon="6.721095662610552"><ele>1076.25</ele><time>2026-05-01T12:43:39.999Z</time></trkpt><trkpt lat="46.2101471361481" lon="6.721215717202172"><ele>1077.5</ele><time>2026-05-01T12:43:40.999Z</time></trkpt><trkpt lat="46.210236005766575" lon="6.721316241717115"><ele>1078.75</ele><time>2026-05-01T12:43:41.999Z</time></trkpt><trkpt lat="46.210300557704215" lon="6.721448355786085"><ele>1080.0</ele><time>2026-05-01T12:43:42.999Z</time></trkpt><trkpt lat="46.210351193899506" lon="6.721594263631194"><ele>1080.0</ele><time>2026-05-01T12:43:43.999Z</time></trkpt><trkpt lat="46.21038371437142" lon="6.721723401981264"><ele>1080.0</ele><time>2026-05-01T12:43:44.999Z</time></trkpt><trkpt lat="46.2103989522771" lon="6.721816373756735"><ele>1080.0</ele><time>2026-05-01T12:43:45.999Z</time></trkpt><trkpt lat="46.2104113977524" lon="6.721906931643804"><ele>1080.0</ele><time>2026-05-01T12:43:47.999Z</time></trkpt><trkpt lat="46.21039303802318" lon="6.721998191875149"><ele>1080.0</ele><time>2026-05-01T12:44:48.999Z</time></trkpt><trkpt lat="46.21038473724433" lon="6.722098277066588"><ele>1080.0</ele><time>2026-05-01T12:46:11.999Z</time></trkpt><trkpt lat="46.21037328152246" lon="6.722192044990901"><ele>1080.0</ele><time>2026-05-01T12:46:23.999Z</time></trkpt><trkpt lat="46.21038987199304" lon="6.722284358213321"><ele>1070.0</ele><time>2026-05-01T12:46:34.999Z</time></trkpt><trkpt lat="46.21033770158525" lon="6.722348573995211"><ele>1070.0</ele><time>2026-05-01T12:46:44.999Z</time></trkpt><trkpt lat="46.21028634225928" lon="6.722401681728856"><ele>1070.0</ele><time>2026-05-01T12:46:53.999Z</time></trkpt><trkpt lat="46.2102644913801" lon="6.722505777940143"><ele>1070.0</ele><time>2026-05-01T12:47:58.999Z</time></trkpt></trkseg><trkseg><trkpt lat="46.210391971037986" lon="6.721981047936267"><ele>1070.0</ele><time>2026-05-01T14:23:55.999Z</time></trkpt><trkpt lat="46.21045905444175" lon="6.72211249721423"><ele>1070.0</ele><time>2026-05-01T14:25:43.999Z</time></trkpt><trkpt lat="46.21050221120461" lon="6.722215794456249"><ele>1070.0</ele><time>2026-05-01T14:25:44.999Z</time></trkpt><trkpt lat="46.21054304672217" lon="6.722338902134424"><ele>1070.0</ele><time>2026-05-01T14:25:45.999Z</time></trkpt><trkpt lat="46.21057433828157" lon="6.722450184079103"><ele>1070.0</ele><time>2026-05-01T14:25:46.999Z</time></trkpt><trkpt lat="46.21060351208562" lon="6.722568230961933"><ele>1070.0</ele><time>2026-05-01T14:25:47.999Z</time></trkpt><trkpt lat="46.21063706527412" lon="6.722703536669118"><ele>1070.0</ele><time>2026-05-01T14:25:48.999Z</time></trkpt><trkpt lat="46.210654262077576" lon="6.722868319989362"><ele>1070.0</ele><time>2026-05-01T14:25:49.999Z</time></trkpt><trkpt lat="46.210645081193064" lon="6.723072261826574"><ele>1070.0</ele><time>2026-05-01T14:25:50.999Z</time></trkpt><trkpt lat="46.21059796254923" lon="6.723318183325324"><ele>1069.6666666666667</ele><time>2026-05-01T14:25:51.999Z</time></trkpt><trkpt lat="46.21053735729925" lon="6.723574039805598"><ele>1069.3333333333333</ele><time>2026-05-01T14:25:52.999Z</time></trkpt><trkpt lat="46.21048117537181" lon="6.723778049904566"><ele>1069.0</ele><time>2026-05-01T14:25:53.999Z</time></trkpt><trkpt lat="46.21042750570284" lon="6.7240040313110665"><ele>1069.0</ele><time>2026-05-01T14:25:54.999Z</time></trkpt><trkpt lat="46.210384070729305" lon="6.7242455911738075"><ele>1069.0</ele><time>2026-05-01T14:25:55.999Z</time></trkpt><trkpt lat="46.21036725274483" lon="6.7244966607428"><ele>1069.0</ele><time>2026-05-01T14:25:56.999Z</time></trkpt><trkpt lat="46.21036021820362" lon="6.724762106108008"><ele>1069.3333333333333</ele><time>2026-05-01T14:25:57.999Z</time></trkpt><trkpt lat="46.210359481950476" lon="6.725035230503149"><ele>1069.6666666666667</ele><time>2026-05-01T14:25:58.999Z</time></trkpt><trkpt lat="46.2103587909241" lon="6.725292309064398"><ele>1070.0</ele><time>2026-05-01T14:25:59.999Z</time></trkpt><trkpt lat="46.21035691280717" lon="6.725549936239616"><ele>1070.0</ele><time>2026-05-01T14:26:00.999Z</time></trkpt><trkpt lat="46.210341807457816" lon="6.725807096350527"><ele>1070.0</ele><time>2026-05-01T14:26:01.999Z</time></trkpt><trkpt lat="46.21030769186521" lon="6.726058794655875"><ele>1070.0</ele><time>2026-05-01T14:26:02.999Z</time></trkpt><trkpt lat="46.21029422450971" lon="6.726318574925773"><ele>1070.6666666666667</ele><time>2026-05-01T14:26:03.999Z</time></trkpt><trkpt lat="46.21031010888291" lon="6.726583313595235"><ele>1071.3333333333333</ele><time>2026-05-01T14:26:04.999Z</time></trkpt><trkpt lat="46.210341901966196" lon="6.726858495475972"><ele>1072.0</ele><time>2026-05-01T14:26:05.999Z</time></trkpt><trkpt lat="46.21036928506008" lon="6.727135910281539"><ele>1072.6666666666665</ele><time>2026-05-01T14:26:06.999Z</time></trkpt><trkpt lat="46.2103860761138" lon="6.727395003001027"><ele>1073.3333333333333</ele><time>2026-05-01T14:26:07.999Z</time></trkpt><trkpt lat="46.210389353859846" lon="6.72764869856548"><ele>1074.0</ele><time>2026-05-01T14:26:08.999Z</time></trkpt><trkpt lat="46.210377901737644" lon="6.727910068905781"><ele>1074.0</ele><time>2026-05-01T14:26:09.999Z</time></trkpt><trkpt lat="46.21037040472761" lon="6.7281745657402245"><ele>1074.0</ele><time>2026-05-01T14:26:10.999Z</time></trkpt><trkpt lat="46.21037171594471" lon="6.72843630884647"><ele>1074.0</ele><time>2026-05-01T14:26:11.999Z</time></trkpt><trkpt lat="46.21038421850029" lon="6.728701186052123"><ele>1073.0</ele><time>2026-05-01T14:26:12.999Z</time></trkpt><trkpt lat="46.210403960349026" lon="6.728975627163635"><ele>1072.0</ele><time>2026-05-01T14:26:13.999Z</time></trkpt><trkpt lat="46.21043136438742" lon="6.729267403477789"><ele>1071.0</ele><time>2026-05-01T14:26:14.999Z</time></trkpt><trkpt lat="46.21046048219225" lon="6.729563881745212"><ele>1071.0</ele><time>2026-05-01T14:26:15.999Z</time></trkpt><trkpt lat="46.210487649808485" lon="6.729861828132322"><ele>1071.0</ele><time>2026-05-01T14:26:16.999Z</time></trkpt><trkpt lat="46.21050098045455" lon="6.730132458241368"><ele>1071.0</ele><time>2026-05-01T14:26:17.999Z</time></trkpt><trkpt lat="46.21050193352034" lon="6.730378648297435"><ele>1072.0</ele><time>2026-05-01T14:26:18.999Z</time></trkpt><trkpt lat="46.21048695078262" lon="6.730613311586394"><ele>1073.0</ele><time>2026-05-01T14:26:19.999Z</time></trkpt><trkpt lat="46.21044936281354" lon="6.730853203030829"><ele>1074.0</ele><time>2026-05-01T14:26:20.999Z</time></trkpt><trkpt lat="46.21039287353407" lon="6.731106155040002"><ele>1075.0</ele><time>2026-05-01T14:26:21.999Z</time></trkpt><trkpt lat="46.21035388210289" lon="6.731353509104586"><ele>1076.0</ele><time>2026-05-01T14:26:22.999Z</time></trkpt><trkpt lat="46.21034459602729" lon="6.731594562734525"><ele>1077.0</ele><time>2026-05-01T14:26:23.999Z</time></trkpt><trkpt lat="46.21036692144055" lon="6.731838651911789"><ele>1074.3333333333333</ele><time>2026-05-01T14:26:24.999Z</time></trkpt><trkpt lat="46.21041323116272" lon="6.732088524107761"><ele>1071.6666666666665</ele><time>2026-05-01T14:26:25.999Z</time></trkpt><trkpt lat="46.21047100602835" lon="6.73235865988455"><ele>1069.0</ele><time>2026-05-01T14:26:26.999Z</time></trkpt><trkpt lat="46.21052554089342" lon="6.732644620777844"><ele>1068.6666666666665</ele><time>2026-05-01T14:26:27.999Z</time></trkpt><trkpt lat="46.21058377497862" lon="6.732941757058834"><ele>1068.3333333333333</ele><time>2026-05-01T14:26:28.999Z</time></trkpt><trkpt lat="46.210643833424854" lon="6.733229172013066"><ele>1068.0</ele><time>2026-05-01T14:26:29.999Z</time></trkpt><trkpt lat="46.210698982497135" lon="6.733491666126146"><ele>1078.3333333333333</ele><time>2026-05-01T14:26:30.999Z</time></trkpt><trkpt lat="46.21074471783679" lon="6.733727908642112"><ele>1088.6666666666665</ele><time>2026-05-01T14:26:31.999Z</time></trkpt><trkpt lat="46.21078262921183" lon="6.733975967066489"><ele>1099.0</ele><time>2026-05-01T14:26:32.999Z</time></trkpt><trkpt lat="46.21081476470433" lon="6.734238811697611"><ele>1097.3333333333333</ele><time>2026-05-01T14:26:33.999Z</time></trkpt><trkpt lat="46.21083983318641" lon="6.73451314810527"><ele>1095.6666666666667</ele><time>2026-05-01T14:26:34.999Z</time></trkpt><trkpt lat="46.21085887523778" lon="6.734784607922555"><ele>1094.0</ele><time>2026-05-01T14:26:35.999Z</time></trkpt><trkpt lat="46.210873369158854" lon="6.735060567682"><ele>1093.3333333333335</ele><time>2026-05-01T14:26:36.999Z</time></trkpt><trkpt lat="46.210893983943784" lon="6.735350610940773"><ele>1092.6666666666667</ele><time>2026-05-01T14:26:37.999Z</time></trkpt><trkpt lat="46.210927914667835" lon="6.73563799763097"><ele>1092.0</ele><time>2026-05-01T14:26:38.999Z</time></trkpt><trkpt lat="46.2109711807188" lon="6.735930520241253"><ele>1091.3333333333333</ele><time>2026-05-01T14:26:39.999Z</time></trkpt><trkpt lat="46.21102236134688" lon="6.736211207566951"><ele>1090.6666666666665</ele><time>2026-05-01T14:26:40.999Z</time></trkpt><trkpt lat="46.21107555456422" lon="6.736467468160347"><ele>1090.0</ele><time>2026-05-01T14:26:41.999Z</time></trkpt><trkpt lat="46.211126668522446" lon="6.736734770969266"><ele>1091.0</ele><time>2026-05-01T14:26:42.999Z</time></trkpt><trkpt lat="46.21114349054722" lon="6.737041646256313"><ele>1092.0</ele><time>2026-05-01T14:26:43.999Z</time></trkpt><trkpt lat="46.21112016811244" lon="6.737331681016217"><ele>1093.0</ele><time>2026-05-01T14:26:44.999Z</time></trkpt><trkpt lat="46.21111368342128" lon="6.737501339820513"><ele>1093.0</ele><time>2026-05-01T14:26:45.999Z</time></trkpt><trkpt lat="46.21114546269884" lon="6.737712455362566"><ele>1093.0</ele><time>2026-05-01T14:26:46.999Z</time></trkpt><trkpt lat="46.211202356650645" lon="6.737980164004912"><ele>1093.0</ele><time>2026-05-01T14:26:47.999Z</time></trkpt><trkpt lat="46.211299367990236" lon="6.738230563866752"><ele>1092.6666666666665</ele><time>2026-05-01T14:26:48.999Z</time></trkpt><trkpt lat="46.21138176172604" lon="6.738502907262861"><ele>1092.3333333333333</ele><time>2026-05-01T14:26:49.999Z</time></trkpt><trkpt lat="46.21141554511582" lon="6.738788073185702"><ele>1092.0</ele><time>2026-05-01T14:26:50.999Z</time></trkpt><trkpt lat="46.2114289504034" lon="6.739099825682816"><ele>1093.3333333333333</ele><time>2026-05-01T14:26:51.999Z</time></trkpt><trkpt lat="46.211456867098875" lon="6.739421948418181"><ele>1094.6666666666665</ele><time>2026-05-01T14:26:52.999Z</time></trkpt><trkpt lat="46.21149423603589" lon="6.739742142910587"><ele>1096.0</ele><time>2026-05-01T14:26:53.999Z</time></trkpt><trkpt lat="46.21154743344346" lon="6.74004338401524"><ele>1103.0</ele><time>2026-05-01T14:26:54.999Z</time></trkpt><trkpt lat="46.21160557112023" lon="6.740318021090356"><ele>1110.0</ele><time>2026-05-01T14:26:55.999Z</time></trkpt><trkpt lat="46.21165613639542" lon="6.740585930433141"><ele>1117.0</ele><time>2026-05-01T14:26:56.999Z</time></trkpt><trkpt lat="46.21170414359542" lon="6.740867204590373"><ele>1118.0</ele><time>2026-05-01T14:26:57.999Z</time></trkpt><trkpt lat="46.21174129204112" lon="6.741141271774096"><ele>1119.0</ele><time>2026-05-01T14:26:58.999Z</time></trkpt><trkpt lat="46.21175284340665" lon="6.741411884812588"><ele>1120.0</ele><time>2026-05-01T14:26:59.999Z</time></trkpt><trkpt lat="46.21176362641546" lon="6.741680009981697"><ele>1118.0</ele><time>2026-05-01T14:27:00.999Z</time></trkpt><trkpt lat="46.21178672148268" lon="6.741946757656205"><ele>1116.0</ele><time>2026-05-01T14:27:01.999Z</time></trkpt><trkpt lat="46.21181584461786" lon="6.742183737538445"><ele>1114.0</ele><time>2026-05-01T14:27:02.999Z</time></trkpt><trkpt lat="46.21185051347091" lon="6.742396769630295"><ele>1114.0</ele><time>2026-05-01T14:27:03.999Z</time></trkpt><trkpt lat="46.21190898208749" lon="6.742578540847104"><ele>1114.0</ele><time>2026-05-01T14:27:04.999Z</time></trkpt><trkpt lat="46.21200294040024" lon="6.742725803941186"><ele>1114.0</ele><time>2026-05-01T14:27:05.999Z</time></trkpt><trkpt lat="46.21212592386855" lon="6.742836480127012"><ele>1114.0</ele><time>2026-05-01T14:27:06.999Z</time></trkpt><trkpt lat="46.21225073167596" lon="6.742929113737896"><ele>1121.0</ele><time>2026-05-01T14:27:07.999Z</time></trkpt><trkpt lat="46.21234219171208" lon="6.743063104899522"><ele>1128.0</ele><time>2026-05-01T14:27:08.999Z</time></trkpt><trkpt lat="46.21238989053435" lon="6.743251229677152"><ele>1135.0</ele><time>2026-05-01T14:27:09.999Z</time></trkpt><trkpt lat="46.21240821353084" lon="6.743483197228394"><ele>1142.0</ele><time>2026-05-01T14:27:10.999Z</time></trkpt><trkpt lat="46.21240724097901" lon="6.743709818476774"><ele>1142.0</ele><time>2026-05-01T14:27:11.999Z</time></trkpt><trkpt lat="46.21243842215965" lon="6.743931474850515"><ele>1142.0</ele><time>2026-05-01T14:27:12.999Z</time></trkpt><trkpt lat="46.212506451005034" lon="6.744154696963144"><ele>1142.0</ele><time>2026-05-01T14:27:13.999Z</time></trkpt><trkpt lat="46.21258191682673" lon="6.744391911556817"><ele>1142.0</ele><time>2026-05-01T14:27:14.999Z</time></trkpt><trkpt lat="46.21262705324095" lon="6.744618190895314"><ele>1142.0</ele><time>2026-05-01T14:27:15.999Z</time></trkpt><trkpt lat="46.21263372752372" lon="6.744801888041557"><ele>1142.0</ele><time>2026-05-01T14:27:16.999Z</time></trkpt><trkpt lat="46.21262098804341" lon="6.744980432229171"><ele>1142.0</ele><time>2026-05-01T14:27:17.999Z</time></trkpt><trkpt lat="46.212592513285884" lon="6.745165138652588"><ele>1141.0</ele><time>2026-05-01T14:27:18.999Z</time></trkpt><trkpt lat="46.212579579437076" lon="6.745354389821372"><ele>1140.0</ele><time>2026-05-01T14:27:19.999Z</time></trkpt><trkpt lat="46.21261039618928" lon="6.745523490394577"><ele>1139.0</ele><time>2026-05-01T14:27:20.999Z</time></trkpt><trkpt lat="46.212671434328996" lon="6.74569691179068"><ele>1138.0</ele><time>2026-05-01T14:27:21.999Z</time></trkpt><trkpt lat="46.21273875863397" lon="6.745891664402718"><ele>1135.25</ele><time>2026-05-01T14:27:22.999Z</time></trkpt><trkpt lat="46.21279922549126" lon="6.7460892211628956"><ele>1132.5</ele><time>2026-05-01T14:27:23.999Z</time></trkpt><trkpt lat="46.212841800644505" lon="6.7462654242649105"><ele>1129.75</ele><time>2026-05-01T14:27:24.999Z</time></trkpt><trkpt lat="46.21287593044237" lon="6.746411698824574"><ele>1127.0</ele><time>2026-05-01T14:27:25.999Z</time></trkpt><trkpt lat="46.21291672542632" lon="6.746569451685632"><ele>1127.0</ele><time>2026-05-01T14:27:26.999Z</time></trkpt><trkpt lat="46.212966674992096" lon="6.746731790397266"><ele>1127.0</ele><time>2026-05-01T14:27:27.999Z</time></trkpt><trkpt lat="46.213026752799216" lon="6.746894844637215"><ele>1127.0</ele><time>2026-05-01T14:27:28.999Z</time></trkpt><trkpt lat="46.21312115704569" lon="6.747070946720002"><ele>1127.0</ele><time>2026-05-01T14:27:29.999Z</time></trkpt><trkpt lat="46.21325455330917" lon="6.747247775895144"><ele>1133.3333333333335</ele><time>2026-05-01T14:27:30.999Z</time></trkpt><trkpt lat="46.21341430843433" lon="6.747445189205506"><ele>1139.6666666666667</ele><time>2026-05-01T14:27:31.999Z</time></trkpt><trkpt lat="46.213590080043446" lon="6.747674918313182"><ele>1146.0</ele><time>2026-05-01T14:27:32.999Z</time></trkpt><trkpt lat="46.21374717027575" lon="6.747925889951866"><ele>1146.0</ele><time>2026-05-01T14:27:33.999Z</time></trkpt><trkpt lat="46.21387698060702" lon="6.748214749675334"><ele>1146.0</ele><time>2026-05-01T14:27:34.999Z</time></trkpt><trkpt lat="46.21399956587572" lon="6.748524153207765"><ele>1158.5</ele><time>2026-05-01T14:27:35.999Z</time></trkpt><trkpt lat="46.21413097959205" lon="6.748827754574605"><ele>1171.0</ele><time>2026-05-01T14:27:36.999Z</time></trkpt><trkpt lat="46.2142631668624" lon="6.749121846433641"><ele>1167.6666666666665</ele><time>2026-05-01T14:27:37.999Z</time></trkpt><trkpt lat="46.21437709073032" lon="6.749406004895733"><ele>1164.3333333333333</ele><time>2026-05-01T14:27:38.999Z</time></trkpt><trkpt lat="46.21445301157053" lon="6.749669586345256"><ele>1161.0</ele><time>2026-05-01T14:27:39.999Z</time></trkpt><trkpt lat="46.21450446210586" lon="6.749927306385314"><ele>1161.0</ele><time>2026-05-01T14:27:40.999Z</time></trkpt><trkpt lat="46.214576523411495" lon="6.750182655845766"><ele>1161.0</ele><time>2026-05-01T14:27:41.999Z</time></trkpt><trkpt lat="46.21468821246185" lon="6.750432861940473"><ele>1161.0</ele><time>2026-05-01T14:27:42.999Z</time></trkpt><trkpt lat="46.214821504482565" lon="6.750675475574162"><ele>1167.3333333333333</ele><time>2026-05-01T14:27:43.999Z</time></trkpt><trkpt lat="46.21494871264529" lon="6.750895525870344"><ele>1173.6666666666665</ele><time>2026-05-01T14:27:44.999Z</time></trkpt><trkpt lat="46.215052366204674" lon="6.751099198686447"><ele>1180.0</ele><time>2026-05-01T14:27:45.999Z</time></trkpt><trkpt lat="46.21514323887593" lon="6.751298621758242"><ele>1180.0</ele><time>2026-05-01T14:27:46.999Z</time></trkpt><trkpt lat="46.215217328226835" lon="6.751509174042144"><ele>1180.0</ele><time>2026-05-01T14:27:47.999Z</time></trkpt><trkpt lat="46.215298926170334" lon="6.7517324324158245"><ele>1180.0</ele><time>2026-05-01T14:27:48.999Z</time></trkpt><trkpt lat="46.215270953844914" lon="6.751999169729099"><ele>1180.3333333333333</ele><time>2026-05-01T14:27:49.999Z</time></trkpt><trkpt lat="46.21527548955466" lon="6.752255272254496"><ele>1180.6666666666667</ele><time>2026-05-01T14:27:50.999Z</time></trkpt><trkpt lat="46.215295600284215" lon="6.7525082797555385"><ele>1181.0</ele><time>2026-05-01T14:27:51.999Z</time></trkpt><trkpt lat="46.2153269850024" lon="6.752758637922987"><ele>1181.0</ele><time>2026-05-01T14:27:52.999Z</time></trkpt><trkpt lat="46.21532256035032" lon="6.75296201307261"><ele>1181.0</ele><time>2026-05-01T14:27:53.999Z</time></trkpt><trkpt lat="46.21526861559561" lon="6.753168412792905"><ele>1181.0</ele><time>2026-05-01T14:27:54.999Z</time></trkpt><trkpt lat="46.21516517069733" lon="6.753360072282164"><ele>1183.3333333333335</ele><time>2026-05-01T14:27:55.999Z</time></trkpt><trkpt lat="46.21513820059698" lon="6.753579570010161"><ele>1185.6666666666667</ele><time>2026-05-01T14:27:56.999Z</time></trkpt><trkpt lat="46.21510940004886" lon="6.753788606500443"><ele>1188.0</ele><time>2026-05-01T14:27:57.999Z</time></trkpt><trkpt lat="46.2150910814512" lon="6.754033904742569"><ele>1188.0</ele><time>2026-05-01T14:27:58.999Z</time></trkpt><trkpt lat="46.21510877294975" lon="6.754306935817971"><ele>1188.0</ele><time>2026-05-01T14:27:59.999Z</time></trkpt><trkpt lat="46.215120406080494" lon="6.7545705851730435"><ele>1188.0</ele><time>2026-05-01T14:28:00.999Z</time></trkpt><trkpt lat="46.21512433584898" lon="6.754793206696635"><ele>1191.5</ele><time>2026-05-01T14:28:01.999Z</time></trkpt><trkpt lat="46.21508852202905" lon="6.7549852554490935"><ele>1195.0</ele><time>2026-05-01T14:28:02.999Z</time></trkpt><trkpt lat="46.21500834469534" lon="6.7551529958435035"><ele>1198.5</ele><time>2026-05-01T14:28:03.999Z</time></trkpt><trkpt lat="46.21493653430047" lon="6.755359374582058"><ele>1202.0</ele><time>2026-05-01T14:28:04.999Z</time></trkpt><trkpt lat="46.21490011531103" lon="6.755613065798834"><ele>1202.3333333333335</ele><time>2026-05-01T14:28:05.999Z</time></trkpt><trkpt lat="46.21489078722559" lon="6.7558707028230645"><ele>1202.6666666666667</ele><time>2026-05-01T14:28:06.999Z</time></trkpt><trkpt lat="46.21490793401733" lon="6.756117720439025"><ele>1203.0</ele><time>2026-05-01T14:28:07.999Z</time></trkpt><trkpt lat="46.21494254954675" lon="6.75635122019155"><ele>1203.0</ele><time>2026-05-01T14:28:08.999Z</time></trkpt><trkpt lat="46.21499144766008" lon="6.756580178511225"><ele>1203.0</ele><time>2026-05-01T14:28:09.999Z</time></trkpt><trkpt lat="46.21506072844018" lon="6.7568130745152235"><ele>1203.0</ele><time>2026-05-01T14:28:10.999Z</time></trkpt><trkpt lat="46.21513347433088" lon="6.757070694835213"><ele>1202.3333333333333</ele><time>2026-05-01T14:28:11.999Z</time></trkpt><trkpt lat="46.215219350579304" lon="6.757355117823597"><ele>1201.6666666666665</ele><time>2026-05-01T14:28:12.999Z</time></trkpt><trkpt lat="46.215321369673084" lon="6.75765236234309"><ele>1201.0</ele><time>2026-05-01T14:28:13.999Z</time></trkpt><trkpt lat="46.21542816533359" lon="6.757966523167976"><ele>1201.0</ele><time>2026-05-01T14:28:14.999Z</time></trkpt><trkpt lat="46.21553492503378" lon="6.758297885112396"><ele>1201.0</ele><time>2026-05-01T14:28:15.999Z</time></trkpt><trkpt lat="46.21562286913458" lon="6.758583700088704"><ele>1209.6666666666665</ele><time>2026-05-01T14:28:16.999Z</time></trkpt><trkpt lat="46.21568830481482" lon="6.758813989114863"><ele>1218.3333333333333</ele><time>2026-05-01T14:28:17.999Z</time></trkpt><trkpt lat="46.21574385638281" lon="6.759008613390715"><ele>1227.0</ele><time>2026-05-01T14:28:18.999Z</time></trkpt><trkpt lat="46.21579386762239" lon="6.759185694260109"><ele>1227.0</ele><time>2026-05-01T14:28:19.999Z</time></trkpt><trkpt lat="46.21582942895236" lon="6.759350973651009"><ele>1227.0</ele><time>2026-05-01T14:28:20.999Z</time></trkpt><trkpt lat="46.21583951534656" lon="6.759519109755742"><ele>1227.0</ele><time>2026-05-01T14:28:21.999Z</time></trkpt><trkpt lat="46.21582911807709" lon="6.759707709945307"><ele>1227.0</ele><time>2026-05-01T14:28:22.999Z</time></trkpt><trkpt lat="46.215798179801695" lon="6.75990528102107"><ele>1229.75</ele><time>2026-05-01T14:28:23.999Z</time></trkpt><trkpt lat="46.215774985653205" lon="6.760072179767488"><ele>1232.5</ele><time>2026-05-01T14:28:24.999Z</time></trkpt><trkpt lat="46.2157601563025" lon="6.760231708904112"><ele>1235.25</ele><time>2026-05-01T14:28:25.999Z</time></trkpt><trkpt lat="46.215734298991485" lon="6.760396086256757"><ele>1238.0</ele><time>2026-05-01T14:28:26.999Z</time></trkpt><trkpt lat="46.21568003190864" lon="6.7605501297352"><ele>1235.0</ele><time>2026-05-01T14:28:27.999Z</time></trkpt><trkpt lat="46.215602704822864" lon="6.76067418136589"><ele>1232.0</ele><time>2026-05-01T14:28:28.999Z</time></trkpt><trkpt lat="46.215542434977806" lon="6.760781795855103"><ele>1229.0</ele><time>2026-05-01T14:28:29.999Z</time></trkpt><trkpt lat="46.215524255533786" lon="6.7609107325501"><ele>1226.0</ele><time>2026-05-01T14:28:30.999Z</time></trkpt><trkpt lat="46.21555799696239" lon="6.761056631084071"><ele>1223.0</ele><time>2026-05-01T14:28:31.999Z</time></trkpt><trkpt lat="46.21560501364509" lon="6.76121131248536"><ele>1223.0</ele><time>2026-05-01T14:28:32.999Z</time></trkpt><trkpt lat="46.2155782924212" lon="6.761368947276855"><ele>1223.0</ele><time>2026-05-01T14:28:33.999Z</time></trkpt><trkpt lat="46.215522204143845" lon="6.761525717496732"><ele>1223.0</ele><time>2026-05-01T14:28:34.999Z</time></trkpt><trkpt lat="46.21545787856939" lon="6.7616571996094885"><ele>1223.0</ele><time>2026-05-01T14:28:35.999Z</time></trkpt><trkpt lat="46.21540579183299" lon="6.761777676141033"><ele>1223.0</ele><time>2026-05-01T14:28:36.999Z</time></trkpt><trkpt lat="46.21535861724859" lon="6.761905706399094"><ele>1227.5</ele><time>2026-05-01T14:28:37.999Z</time></trkpt><trkpt lat="46.21531248009585" lon="6.762050091301247"><ele>1232.0</ele><time>2026-05-01T14:28:38.999Z</time></trkpt><trkpt lat="46.21527394348842" lon="6.762219851025494"><ele>1236.5</ele><time>2026-05-01T14:28:39.999Z</time></trkpt><trkpt lat="46.21525506900637" lon="6.762422106415886"><ele>1241.0</ele><time>2026-05-01T14:28:40.999Z</time></trkpt><trkpt lat="46.21523899470712" lon="6.762627949949713"><ele>1246.3333333333335</ele><time>2026-05-01T14:28:41.999Z</time></trkpt><trkpt lat="46.21518682439266" lon="6.762818951874625"><ele>1251.6666666666667</ele><time>2026-05-01T14:28:42.999Z</time></trkpt><trkpt lat="46.215117120461535" lon="6.763017267400663"><ele>1257.0</ele><time>2026-05-01T14:28:43.999Z</time></trkpt><trkpt lat="46.21504863046757" lon="6.7632316563476245"><ele>1257.0</ele><time>2026-05-01T14:28:44.999Z</time></trkpt><trkpt lat="46.21499120068047" lon="6.763442131682204"><ele>1257.0</ele><time>2026-05-01T14:28:45.999Z</time></trkpt><trkpt lat="46.214908991321714" lon="6.763561379309252"><ele>1257.0</ele><time>2026-05-01T14:28:46.999Z</time></trkpt><trkpt lat="46.21482059400165" lon="6.763659394824393"><ele>1257.0</ele><time>2026-05-01T14:28:47.999Z</time></trkpt><trkpt lat="46.21474262872014" lon="6.763760717974628"><ele>1254.75</ele><time>2026-05-01T14:28:48.999Z</time></trkpt><trkpt lat="46.21468964195319" lon="6.763880314397702"><ele>1252.5</ele><time>2026-05-01T14:28:49.999Z</time></trkpt><trkpt lat="46.214664780687556" lon="6.764019894029969"><ele>1250.25</ele><time>2026-05-01T14:28:50.999Z</time></trkpt><trkpt lat="46.21461983214492" lon="6.764185473954762"><ele>1248.0</ele><time>2026-05-01T14:28:51.999Z</time></trkpt><trkpt lat="46.21453727091043" lon="6.764342030014542"><ele>1255.6666666666667</ele><time>2026-05-01T14:28:52.999Z</time></trkpt><trkpt lat="46.21442918068053" lon="6.764503358742222"><ele>1263.3333333333335</ele><time>2026-05-01T14:28:53.999Z</time></trkpt><trkpt lat="46.214311160722374" lon="6.7646681758223135"><ele>1271.0</ele><time>2026-05-01T14:28:54.999Z</time></trkpt><trkpt lat="46.21419736226815" lon="6.764856407671406"><ele>1271.0</ele><time>2026-05-01T14:28:55.999Z</time></trkpt><trkpt lat="46.21407515689827" lon="6.765024524449954"><ele>1271.0</ele><time>2026-05-01T14:28:56.999Z</time></trkpt><trkpt lat="46.21396506282189" lon="6.765171781193703"><ele>1271.0</ele><time>2026-05-01T14:28:57.999Z</time></trkpt><trkpt lat="46.213872736185145" lon="6.76529731835415"><ele>1271.0</ele><time>2026-05-01T14:28:58.999Z</time></trkpt><trkpt lat="46.21379587578656" lon="6.765397236529082"><ele>1271.0</ele><time>2026-05-01T14:28:59.999Z</time></trkpt><trkpt lat="46.213727413183086" lon="6.765484126724911"><ele>1271.0</ele><time>2026-05-01T14:29:00.999Z</time></trkpt><trkpt lat="46.21365665926836" lon="6.765534134404092"><ele>1271.0</ele><time>2026-05-01T14:29:01.999Z</time></trkpt><trkpt lat="46.213587398212475" lon="6.765582453741457"><ele>1271.0</ele><time>2026-05-01T14:29:02.999Z</time></trkpt><trkpt lat="46.2135069099672" lon="6.765682425855401"><ele>1271.0</ele><time>2026-05-01T14:29:04.999Z</time></trkpt><trkpt lat="46.21353120157447" lon="6.7658350774765035"><ele>1271.0</ele><time>2026-05-01T14:29:06.999Z</time></trkpt><trkpt lat="46.213594277196265" lon="6.765866045322771"><ele>1271.0</ele><time>2026-05-01T14:29:07.999Z</time></trkpt><trkpt lat="46.21366682431318" lon="6.765851225135246"><ele>1271.0</ele><time>2026-05-01T14:29:08.999Z</time></trkpt><trkpt lat="46.213738778166956" lon="6.765768696467423"><ele>1271.0</ele><time>2026-05-01T14:29:09.999Z</time></trkpt><trkpt lat="46.213826947557926" lon="6.765616601059892"><ele>1271.0</ele><time>2026-05-01T14:29:10.999Z</time></trkpt><trkpt lat="46.21392974795011" lon="6.765500760870457"><ele>1271.0</ele><time>2026-05-01T14:29:11.999Z</time></trkpt><trkpt lat="46.21405606091808" lon="6.765366335206995"><ele>1271.0</ele><time>2026-05-01T14:29:12.999Z</time></trkpt><trkpt lat="46.21421000641368" lon="6.765227900385393"><ele>1271.0</ele><time>2026-05-01T14:29:13.999Z</time></trkpt><trkpt lat="46.21437096418456" lon="6.765059416441467"><ele>1271.0</ele><time>2026-05-01T14:29:14.999Z</time></trkpt><trkpt lat="46.21456771469863" lon="6.764896286776756"><ele>1271.0</ele><time>2026-05-01T14:29:15.999Z</time></trkpt><trkpt lat="46.214714427419416" lon="6.764729562294313"><ele>1271.0</ele><time>2026-05-01T14:29:16.999Z</time></trkpt><trkpt lat="46.21486290538424" lon="6.764644444848789"><ele>1273.25</ele><time>2026-05-01T14:29:17.999Z</time></trkpt><trkpt lat="46.21501383905619" lon="6.764583570760861"><ele>1275.5</ele><time>2026-05-01T14:29:18.999Z</time></trkpt><trkpt lat="46.215141080146786" lon="6.764534720909983"><ele>1277.75</ele><time>2026-05-01T14:29:19.999Z</time></trkpt><trkpt lat="46.21525049756673" lon="6.764438574286865"><ele>1280.0</ele><time>2026-05-01T14:29:20.999Z</time></trkpt><trkpt lat="46.21534317929348" lon="6.764296527067854"><ele>1280.0</ele><time>2026-05-01T14:29:21.999Z</time></trkpt><trkpt lat="46.21544330722654" lon="6.764124278971859"><ele>1280.0</ele><time>2026-05-01T14:29:22.999Z</time></trkpt><trkpt lat="46.21553097638414" lon="6.763939935756711"><ele>1280.0</ele><time>2026-05-01T14:29:23.999Z</time></trkpt><trkpt lat="46.21559417126042" lon="6.763776288860938"><ele>1280.0</ele><time>2026-05-01T14:29:24.999Z</time></trkpt><trkpt lat="46.215624769344274" lon="6.763642319765457"><ele>1280.0</ele><time>2026-05-01T14:29:25.999Z</time></trkpt><trkpt lat="46.21564855983418" lon="6.7635475056755245"><ele>1280.0</ele><time>2026-05-01T14:29:26.999Z</time></trkpt><trkpt lat="46.215743210331844" lon="6.763516378582068"><ele>1280.0</ele><time>2026-05-01T14:29:28.999Z</time></trkpt><trkpt lat="46.21578242302813" lon="6.763682769443825"><ele>1280.0</ele><time>2026-05-01T14:29:30.999Z</time></trkpt><trkpt lat="46.215743617456525" lon="6.763808049160217"><ele>1280.0</ele><time>2026-05-01T14:29:31.999Z</time></trkpt><trkpt lat="46.215675896935565" lon="6.763964244963586"><ele>1280.0</ele><time>2026-05-01T14:29:32.999Z</time></trkpt><trkpt lat="46.21559723939956" lon="6.764159018255476"><ele>1280.0</ele><time>2026-05-01T14:29:33.999Z</time></trkpt><trkpt lat="46.21552433808676" lon="6.764370684168542"><ele>1280.0</ele><time>2026-05-01T14:29:34.999Z</time></trkpt><trkpt lat="46.21545694389022" lon="6.764614103437569"><ele>1288.0</ele><time>2026-05-01T14:29:35.999Z</time></trkpt><trkpt lat="46.21537833906193" lon="6.764852621573161"><ele>1296.0</ele><time>2026-05-01T14:29:36.999Z</time></trkpt><trkpt lat="46.215320775972295" lon="6.765023006658367"><ele>1304.0</ele><time>2026-05-01T14:29:37.999Z</time></trkpt><trkpt lat="46.21528339170032" lon="6.765165089355088"><ele>1312.0</ele><time>2026-05-01T14:29:38.999Z</time></trkpt><trkpt lat="46.21522558465222" lon="6.7652590383395"><ele>1315.0</ele><time>2026-05-01T14:29:39.999Z</time></trkpt><trkpt lat="46.21515008902129" lon="6.765284717810787"><ele>1318.0</ele><time>2026-05-01T14:29:40.999Z</time></trkpt><trkpt lat="46.215061063330076" lon="6.76525927303008"><ele>1321.0</ele><time>2026-05-01T14:29:41.999Z</time></trkpt><trkpt lat="46.21497357926227" lon="6.7652200127460835"><ele>1324.0</ele><time>2026-05-01T14:29:42.999Z</time></trkpt><trkpt lat="46.214896176090264" lon="6.76523042541576"><ele>1327.0</ele><time>2026-05-01T14:29:43.999Z</time></trkpt><trkpt lat="46.21484504911523" lon="6.765303887330611"><ele>1330.0</ele><time>2026-05-01T14:29:44.999Z</time></trkpt><trkpt lat="46.2148386953388" lon="6.765397151984929"><ele>1330.0</ele><time>2026-05-01T14:29:45.999Z</time></trkpt><trkpt lat="46.21487205819759" lon="6.765490500284473"><ele>1330.0</ele><time>2026-05-01T14:29:46.999Z</time></trkpt><trkpt lat="46.21494449469316" lon="6.765568257203246"><ele>1330.0</ele><time>2026-05-01T14:29:47.999Z</time></trkpt><trkpt lat="46.215042386578965" lon="6.765633462115721"><ele>1330.0</ele><time>2026-05-01T14:29:48.999Z</time></trkpt><trkpt lat="46.21510289097285" lon="6.765714446839662"><ele>1330.0</ele><time>2026-05-01T14:29:49.999Z</time></trkpt><trkpt lat="46.21511825424916" lon="6.765828700199385"><ele>1330.0</ele><time>2026-05-01T14:29:50.999Z</time></trkpt><trkpt lat="46.21508129163675" lon="6.765925207261684"><ele>1330.0</ele><time>2026-05-01T14:29:51.999Z</time></trkpt><trkpt lat="46.21501315309349" lon="6.765970663995024"><ele>1330.0</ele><time>2026-05-01T14:29:52.999Z</time></trkpt><trkpt lat="46.21493580035824" lon="6.765941840175278"><ele>1330.0</ele><time>2026-05-01T14:29:53.999Z</time></trkpt><trkpt lat="46.214870782492625" lon="6.76585440294874"><ele>1330.0</ele><time>2026-05-01T14:29:54.999Z</time></trkpt><trkpt lat="46.214820425456246" lon="6.765718607469177"><ele>1330.0</ele><time>2026-05-01T14:29:55.999Z</time></trkpt><trkpt lat="46.21476964641536" lon="6.765584890407036"><ele>1326.1666666666665</ele><time>2026-05-01T14:29:56.999Z</time></trkpt><trkpt lat="46.214714246007176" lon="6.765502201446684"><ele>1322.3333333333333</ele><time>2026-05-01T14:29:57.999Z</time></trkpt><trkpt lat="46.21460326160505" lon="6.765531968508083"><ele>1318.5</ele><time>2026-05-01T14:29:59.999Z</time></trkpt><trkpt lat="46.21457827073511" lon="6.765621427055992"><ele>1314.6666666666667</ele><time>2026-05-01T14:30:00.999Z</time></trkpt><trkpt lat="46.21458917632435" lon="6.765713573000879"><ele>1310.8333333333335</ele><time>2026-05-01T14:30:01.999Z</time></trkpt><trkpt lat="46.21463740058346" lon="6.765793767194695"><ele>1307.0</ele><time>2026-05-01T14:30:02.999Z</time></trkpt><trkpt lat="46.2147066254904" lon="6.765861359991885"><ele>1307.0</ele><time>2026-05-01T14:30:03.999Z</time></trkpt><trkpt lat="46.214761352735216" lon="6.765954283946816"><ele>1307.0</ele><time>2026-05-01T14:30:04.999Z</time></trkpt><trkpt lat="46.21477485758125" lon="6.766072313620948"><ele>1307.0</ele><time>2026-05-01T14:30:05.999Z</time></trkpt><trkpt lat="46.21473495398336" lon="6.766214737221203"><ele>1307.0</ele><time>2026-05-01T14:30:06.999Z</time></trkpt><trkpt lat="46.214664437148514" lon="6.7663477367422935"><ele>1307.0</ele><time>2026-05-01T14:30:07.999Z</time></trkpt><trkpt lat="46.214570834047265" lon="6.766477248331441"><ele>1312.0</ele><time>2026-05-01T14:30:08.999Z</time></trkpt><trkpt lat="46.21450125456392" lon="6.766585328582417"><ele>1317.0</ele><time>2026-05-01T14:30:09.999Z</time></trkpt><trkpt lat="46.214470646711824" lon="6.766690002447904"><ele>1322.0</ele><time>2026-05-01T14:30:10.999Z</time></trkpt><trkpt lat="46.21448753270908" lon="6.766797820685526"><ele>1327.0</ele><time>2026-05-01T14:30:11.999Z</time></trkpt><trkpt lat="46.21454629590277" lon="6.766885899792"><ele>1332.0</ele><time>2026-05-01T14:30:12.999Z</time></trkpt><trkpt lat="46.21463566648179" lon="6.766961199335967"><ele>1337.0</ele><time>2026-05-01T14:30:13.999Z</time></trkpt><trkpt lat="46.21474787629782" lon="6.76701603467755"><ele>1337.6666666666667</ele><time>2026-05-01T14:30:14.999Z</time></trkpt><trkpt lat="46.21484276653224" lon="6.76706390532468"><ele>1338.3333333333335</ele><time>2026-05-01T14:30:15.999Z</time></trkpt><trkpt lat="46.214915230321836" lon="6.767121095713974"><ele>1339.0</ele><time>2026-05-01T14:30:16.999Z</time></trkpt><trkpt lat="46.21494477246064" lon="6.767224034981718"><ele>1339.6666666666667</ele><time>2026-05-01T14:30:17.999Z</time></trkpt><trkpt lat="46.214918526656355" lon="6.767320042825568"><ele>1340.3333333333333</ele><time>2026-05-01T14:30:18.999Z</time></trkpt><trkpt lat="46.21485557755274" lon="6.767393477812283"><ele>1341.0</ele><time>2026-05-01T14:30:19.999Z</time></trkpt><trkpt lat="46.21476501605058" lon="6.7674428052358735"><ele>1341.0</ele><time>2026-05-01T14:30:20.999Z</time></trkpt><trkpt lat="46.21463919175885" lon="6.7674883866819915"><ele>1341.0</ele><time>2026-05-01T14:30:21.999Z</time></trkpt><trkpt lat="46.214506817535934" lon="6.767552393585181"><ele>1341.0</ele><time>2026-05-01T14:30:22.999Z</time></trkpt><trkpt lat="46.21438729963944" lon="6.76766116507529"><ele>1341.0</ele><time>2026-05-01T14:30:23.999Z</time></trkpt><trkpt lat="46.21428508798377" lon="6.767838637239734"><ele>1343.3333333333333</ele><time>2026-05-01T14:30:24.999Z</time></trkpt><trkpt lat="46.21418956236482" lon="6.768067341843939"><ele>1345.6666666666665</ele><time>2026-05-01T14:30:25.999Z</time></trkpt><trkpt lat="46.21406788826876" lon="6.768309852982787"><ele>1348.0</ele><time>2026-05-01T14:30:26.999Z</time></trkpt><trkpt lat="46.21396236269742" lon="6.768559222841225"><ele>1351.6666666666665</ele><time>2026-05-01T14:30:27.999Z</time></trkpt><trkpt lat="46.21388864436917" lon="6.768792901537468"><ele>1355.3333333333333</ele><time>2026-05-01T14:30:28.999Z</time></trkpt><trkpt lat="46.21381227297106" lon="6.7689811047572706"><ele>1359.0</ele><time>2026-05-01T14:30:29.999Z</time></trkpt><trkpt lat="46.21371859706863" lon="6.769113027452424"><ele>1359.0</ele><time>2026-05-01T14:30:30.999Z</time></trkpt><trkpt lat="46.21365765268105" lon="6.769213628455155"><ele>1359.0</ele><time>2026-05-01T14:30:31.999Z</time></trkpt><trkpt lat="46.21360855465352" lon="6.769282131198248"><ele>1359.0</ele><time>2026-05-01T14:30:32.999Z</time></trkpt><trkpt lat="46.213643906393116" lon="6.769447756746641"><ele>1359.0</ele><time>2026-05-01T14:30:34.999Z</time></trkpt><trkpt lat="46.21378654574044" lon="6.7694172028262525"><ele>1359.0</ele><time>2026-05-01T14:30:37Z</time></trkpt><trkpt lat="46.21385730056273" lon="6.769320183376982"><ele>1359.0</ele><time>2026-05-01T14:30:38Z</time></trkpt><trkpt lat="46.21394641742136" lon="6.769211811158356"><ele>1359.0</ele><time>2026-05-01T14:30:39Z</time></trkpt><trkpt lat="46.21407653826312" lon="6.76913361998703"><ele>1359.0</ele><time>2026-05-01T14:30:40Z</time></trkpt><trkpt lat="46.21422107426007" lon="6.76902245399947"><ele>1359.0</ele><time>2026-05-01T14:30:41Z</time></trkpt><trkpt lat="46.21436240367081" lon="6.768909969841531"><ele>1362.25</ele><time>2026-05-01T14:30:42Z</time></trkpt><trkpt lat="46.2144690417355" lon="6.7688335648001265"><ele>1365.5</ele><time>2026-05-01T14:30:43Z</time></trkpt><trkpt lat="46.21455747591933" lon="6.768781894434065"><ele>1368.75</ele><time>2026-05-01T14:30:44Z</time></trkpt><trkpt lat="46.21465173211209" lon="6.768796498234971"><ele>1372.0</ele><time>2026-05-01T14:30:46Z</time></trkpt><trkpt lat="46.21458692848239" lon="6.769004680768674"><ele>1372.0</ele><time>2026-05-01T14:30:49Z</time></trkpt><trkpt lat="46.214486985098446" lon="6.769027628594963"><ele>1372.0</ele><time>2026-05-01T14:30:50Z</time></trkpt><trkpt lat="46.2143876647241" lon="6.769127535742163"><ele>1372.0</ele><time>2026-05-01T14:30:51Z</time></trkpt><trkpt lat="46.214291924357106" lon="6.769253179832306"><ele>1372.0</ele><time>2026-05-01T14:30:52Z</time></trkpt><trkpt lat="46.214209052753745" lon="6.7694340639657025"><ele>1376.5</ele><time>2026-05-01T14:30:53Z</time></trkpt><trkpt lat="46.21414694481532" lon="6.769609987035267"><ele>1381.0</ele><time>2026-05-01T14:30:54Z</time></trkpt><trkpt lat="46.21411126528782" lon="6.769794356014567"><ele>1385.5</ele><time>2026-05-01T14:30:55Z</time></trkpt><trkpt lat="46.21409743936926" lon="6.769980988776613"><ele>1390.0</ele><time>2026-05-01T14:30:56Z</time></trkpt><trkpt lat="46.21405951396731" lon="6.770132089831042"><ele>1391.6</ele><time>2026-05-01T14:30:57Z</time></trkpt><trkpt lat="46.214001697268344" lon="6.770238331365434"><ele>1393.2</ele><time>2026-05-01T14:30:58Z</time></trkpt><trkpt lat="46.21391639900411" lon="6.770297182639472"><ele>1394.8000000000002</ele><time>2026-05-01T14:30:59Z</time></trkpt><trkpt lat="46.213799939193464" lon="6.770356455025512"><ele>1396.4</ele><time>2026-05-01T14:31:00Z</time></trkpt><trkpt lat="46.213678088046315" lon="6.770437066454434"><ele>1398.0</ele><time>2026-05-01T14:31:01Z</time></trkpt><trkpt lat="46.21357434709023" lon="6.770510910009022"><ele>1398.0</ele><time>2026-05-01T14:31:02Z</time></trkpt><trkpt lat="46.21348328249812" lon="6.770630190528757"><ele>1398.0</ele><time>2026-05-01T14:31:03Z</time></trkpt><trkpt lat="46.21340483535621" lon="6.7707548567346505"><ele>1398.0</ele><time>2026-05-01T14:31:04Z</time></trkpt><trkpt lat="46.2133420681576" lon="6.770849095562596"><ele>1398.0</ele><time>2026-05-01T14:31:05Z</time></trkpt><trkpt lat="46.21329735981829" lon="6.7709759071794435"><ele>1398.0</ele><time>2026-05-01T14:31:07Z</time></trkpt><trkpt lat="46.21338106864862" lon="6.77107104347698"><ele>1398.0</ele><time>2026-05-01T14:31:09Z</time></trkpt><trkpt lat="46.21344753439509" lon="6.7710746701731"><ele>1398.0</ele><time>2026-05-01T14:31:10Z</time></trkpt><trkpt lat="46.213506740774186" lon="6.77100482146094"><ele>1398.0</ele><time>2026-05-01T14:31:11Z</time></trkpt><trkpt lat="46.21357231024672" lon="6.770891808710569"><ele>1398.0</ele><time>2026-05-01T14:31:12Z</time></trkpt><trkpt lat="46.21363890596155" lon="6.770763180556757"><ele>1398.0</ele><time>2026-05-01T14:31:13Z</time></trkpt><trkpt lat="46.213727382133435" lon="6.770691696634263"><ele>1398.0</ele><time>2026-05-01T14:31:14Z</time></trkpt><trkpt lat="46.21384723901684" lon="6.770723643433766"><ele>1398.0</ele><time>2026-05-01T14:31:15Z</time></trkpt><trkpt lat="46.21399227250063" lon="6.770709854786362"><ele>1398.0</ele><time>2026-05-01T14:31:16Z</time></trkpt><trkpt lat="46.21414900563437" lon="6.7706558233362"><ele>1398.0</ele><time>2026-05-01T14:31:17Z</time></trkpt><trkpt lat="46.214296595168165" lon="6.770589766095507"><ele>1400.5</ele><time>2026-05-01T14:31:18Z</time></trkpt><trkpt lat="46.2143977140403" lon="6.770500993319267"><ele>1403.0</ele><time>2026-05-01T14:31:19Z</time></trkpt><trkpt lat="46.21447115284032" lon="6.770470541820617"><ele>1405.5</ele><time>2026-05-01T14:31:20Z</time></trkpt><trkpt lat="46.214533315836995" lon="6.770528722731008"><ele>1408.0</ele><time>2026-05-01T14:31:22Z</time></trkpt><trkpt lat="46.21451387337238" lon="6.770617260588318"><ele>1410.5</ele><time>2026-05-01T14:31:23Z</time></trkpt><trkpt lat="46.21445979752646" lon="6.7706889398490535"><ele>1413.0</ele><time>2026-05-01T14:31:24Z</time></trkpt><trkpt lat="46.21437911710884" lon="6.770739572031102"><ele>1413.0</ele><time>2026-05-01T14:31:25Z</time></trkpt><trkpt lat="46.21427708953926" lon="6.770802076209071"><ele>1413.0</ele><time>2026-05-01T14:31:26Z</time></trkpt><trkpt lat="46.21415403710395" lon="6.770883740034526"><ele>1413.0</ele><time>2026-05-01T14:31:27Z</time></trkpt><trkpt lat="46.21401673292181" lon="6.77094043947724"><ele>1413.0</ele><time>2026-05-01T14:31:28Z</time></trkpt><trkpt lat="46.213907192950074" lon="6.771007896742743"><ele>1418.6000000000001</ele><time>2026-05-01T14:31:29Z</time></trkpt><trkpt lat="46.21381902651057" lon="6.771049138685855"><ele>1424.2</ele><time>2026-05-01T14:31:30Z</time></trkpt><trkpt lat="46.21376784348347" lon="6.771155816469021"><ele>1429.8</ele><time>2026-05-01T14:31:31Z</time></trkpt><trkpt lat="46.213719034143345" lon="6.771306782868208"><ele>1435.4</ele><time>2026-05-01T14:31:32Z</time></trkpt><trkpt lat="46.21364412300536" lon="6.77143672994952"><ele>1441.0</ele><time>2026-05-01T14:31:33Z</time></trkpt><trkpt lat="46.21352078851034" lon="6.771458603653108"><ele>1441.0</ele><time>2026-05-01T14:31:34Z</time></trkpt><trkpt lat="46.213394698133264" lon="6.771521999349918"><ele>1441.0</ele><time>2026-05-01T14:31:35Z</time></trkpt><trkpt lat="46.213251404743765" lon="6.771548362349362"><ele>1441.0</ele><time>2026-05-01T14:31:36Z</time></trkpt><trkpt lat="46.21309899226501" lon="6.771580274332051"><ele>1441.0</ele><time>2026-05-01T14:31:37Z</time></trkpt><trkpt lat="46.21295078597846" lon="6.771621690192957"><ele>1438.6666666666665</ele><time>2026-05-01T14:31:38Z</time></trkpt><trkpt lat="46.212799043683795" lon="6.771653258140863"><ele>1436.3333333333333</ele><time>2026-05-01T14:31:39Z</time></trkpt><trkpt lat="46.21264963892166" lon="6.771648549751043"><ele>1434.0</ele><time>2026-05-01T14:31:40Z</time></trkpt><trkpt lat="46.21250007353301" lon="6.771625209487599"><ele>1434.0</ele><time>2026-05-01T14:31:41Z</time></trkpt><trkpt lat="46.21233582349034" lon="6.771656118307323"><ele>1434.0</ele><time>2026-05-01T14:31:42Z</time></trkpt><trkpt lat="46.21218263267087" lon="6.771722770519257"><ele>1434.0</ele><time>2026-05-01T14:31:43Z</time></trkpt><trkpt lat="46.212054484765986" lon="6.771792258345306"><ele>1440.3333333333333</ele><time>2026-05-01T14:31:44Z</time></trkpt><trkpt lat="46.211905569934046" lon="6.771878112601264"><ele>1446.6666666666665</ele><time>2026-05-01T14:31:45Z</time></trkpt><trkpt lat="46.211771270597254" lon="6.771998543812152"><ele>1453.0</ele><time>2026-05-01T14:31:46Z</time></trkpt><trkpt lat="46.21162525204769" lon="6.7721710261782295"><ele>1452.6666666666665</ele><time>2026-05-01T14:31:47Z</time></trkpt><trkpt lat="46.211460365852574" lon="6.77237310099205"><ele>1452.3333333333333</ele><time>2026-05-01T14:31:48Z</time></trkpt><trkpt lat="46.21130402769657" lon="6.772562485510197"><ele>1452.0</ele><time>2026-05-01T14:31:49Z</time></trkpt><trkpt lat="46.21117744807277" lon="6.772723363725782"><ele>1455.1999999999998</ele><time>2026-05-01T14:31:50Z</time></trkpt><trkpt lat="46.21106757872502" lon="6.772858792427042"><ele>1458.4</ele><time>2026-05-01T14:31:51Z</time></trkpt><trkpt lat="46.21097604700275" lon="6.7729628724757625"><ele>1461.6</ele><time>2026-05-01T14:31:52Z</time></trkpt><trkpt lat="46.210893294278854" lon="6.773022267607582"><ele>1464.8000000000002</ele><time>2026-05-01T14:31:53Z</time></trkpt><trkpt lat="46.210816117126356" lon="6.773034153935615"><ele>1468.0</ele><time>2026-05-01T14:31:54Z</time></trkpt><trkpt lat="46.21074715503333" lon="6.77300438399497"><ele>1468.0</ele><time>2026-05-01T14:31:55Z</time></trkpt><trkpt lat="46.210680326390836" lon="6.772919059803886"><ele>1468.0</ele><time>2026-05-01T14:31:57Z</time></trkpt><trkpt lat="46.21059782253153" lon="6.7729376377933415"><ele>1468.0</ele><time>2026-05-01T14:32:46Z</time></trkpt><trkpt lat="46.21050201416911" lon="6.772962282392519"><ele>1468.0</ele><time>2026-05-01T14:32:48Z</time></trkpt><trkpt lat="46.21042608145388" lon="6.772973007877154"><ele>1468.0</ele><time>2026-05-01T14:32:49Z</time></trkpt><trkpt lat="46.210347142183295" lon="6.773007369926869"><ele>1468.0</ele><time>2026-05-01T14:32:50Z</time></trkpt><trkpt lat="46.21028644623979" lon="6.773044258530903"><ele>1467.4</ele><time>2026-05-01T14:32:51Z</time></trkpt><trkpt lat="46.210226321748785" lon="6.773090435227565"><ele>1466.8000000000002</ele><time>2026-05-01T14:32:52Z</time></trkpt><trkpt lat="46.21015014446664" lon="6.773155096405335"><ele>1466.2</ele><time>2026-05-01T14:32:53Z</time></trkpt><trkpt lat="46.210080978520544" lon="6.773262269027435"><ele>1465.6</ele><time>2026-05-01T14:32:55Z</time></trkpt><trkpt lat="46.21014573996233" lon="6.77343434977583"><ele>1465.0</ele><time>2026-05-01T14:32:57Z</time></trkpt><trkpt lat="46.21023265045271" lon="6.77352532108031"><ele>1467.6</ele><time>2026-05-01T14:32:58Z</time></trkpt><trkpt lat="46.21033419303358" lon="6.773583607103077"><ele>1470.2</ele><time>2026-05-01T14:32:59Z</time></trkpt><trkpt lat="46.2104053024711" lon="6.77359584731265"><ele>1472.8000000000002</ele><time>2026-05-01T14:33:00Z</time></trkpt><trkpt lat="46.2105079227122" lon="6.773608671012151"><ele>1475.4</ele><time>2026-05-01T14:33:01Z</time></trkpt><trkpt lat="46.210616433514" lon="6.773592970381033"><ele>1478.0</ele><time>2026-05-01T14:33:02Z</time></trkpt><trkpt lat="46.210707315739526" lon="6.773574244660016"><ele>1478.1666666666667</ele><time>2026-05-01T14:33:03Z</time></trkpt><trkpt lat="46.210783750824234" lon="6.773563973633367"><ele>1478.3333333333335</ele><time>2026-05-01T14:33:04Z</time></trkpt><trkpt lat="46.21085353833124" lon="6.773568231151408"><ele>1478.5</ele><time>2026-05-01T14:33:05Z</time></trkpt><trkpt lat="46.21094908822313" lon="6.7736266826383815"><ele>1478.6666666666667</ele><time>2026-05-01T14:33:07Z</time></trkpt><trkpt lat="46.21096356095766" lon="6.773740153083651"><ele>1478.8333333333333</ele><time>2026-05-01T14:33:09Z</time></trkpt><trkpt lat="46.210959898676414" lon="6.7738636130891665"><ele>1479.0</ele><time>2026-05-01T14:33:11Z</time></trkpt><trkpt lat="46.21090159544114" lon="6.773999267593576"><ele>1479.0</ele><time>2026-05-01T14:33:13Z</time></trkpt><trkpt lat="46.21084185925287" lon="6.774058891314559"><ele>1479.0</ele><time>2026-05-01T14:33:14Z</time></trkpt><trkpt lat="46.2107595352503" lon="6.774101834537608"><ele>1479.0</ele><time>2026-05-01T14:33:15Z</time></trkpt><trkpt lat="46.21067402023517" lon="6.774160718592847"><ele>1479.0</ele><time>2026-05-01T14:33:16Z</time></trkpt><trkpt lat="46.210589651678276" lon="6.774207875807328"><ele>1479.0</ele><time>2026-05-01T14:33:17Z</time></trkpt><trkpt lat="46.2104934657124" lon="6.774251990763113"><ele>1479.0</ele><time>2026-05-01T14:33:18Z</time></trkpt><trkpt lat="46.21029777000686" lon="6.774349804199442"><ele>1483.4</ele><time>2026-05-01T14:33:20Z</time></trkpt><trkpt lat="46.210222111798274" lon="6.774386747596641"><ele>1487.8000000000002</ele><time>2026-05-01T14:33:21Z</time></trkpt><trkpt lat="46.21013672239345" lon="6.774382508617093"><ele>1492.1999999999998</ele><time>2026-05-01T14:33:22Z</time></trkpt><trkpt lat="46.21005527971999" lon="6.774368485686332"><ele>1496.6</ele><time>2026-05-01T14:33:23Z</time></trkpt><trkpt lat="46.20993616622442" lon="6.774442537630966"><ele>1501.0</ele><time>2026-05-01T14:33:24Z</time></trkpt><trkpt lat="46.209843107574635" lon="6.774432001753516"><ele>1500.0</ele><time>2026-05-01T14:33:25Z</time></trkpt><trkpt lat="46.209752903668424" lon="6.774392084093042"><ele>1499.0</ele><time>2026-05-01T14:33:26Z</time></trkpt><trkpt lat="46.20967547748469" lon="6.7743536515285605"><ele>1498.0</ele><time>2026-05-01T14:33:27Z</time></trkpt><trkpt lat="46.20959859058302" lon="6.774344765877189"><ele>1497.0</ele><time>2026-05-01T14:33:28Z</time></trkpt><trkpt lat="46.20945272657281" lon="6.774423974077117"><ele>1496.0</ele><time>2026-05-01T14:33:30Z</time></trkpt><trkpt lat="46.20942655697175" lon="6.774582197102875"><ele>1496.0</ele><time>2026-05-01T14:33:31Z</time></trkpt><trkpt lat="46.209339869388714" lon="6.77469796705336"><ele>1496.0</ele><time>2026-05-01T14:33:33Z</time></trkpt><trkpt lat="46.209284703063894" lon="6.774768115358713"><ele>1496.0</ele><time>2026-05-01T14:33:34Z</time></trkpt><trkpt lat="46.20921118146123" lon="6.774817552508629"><ele>1496.0</ele><time>2026-05-01T14:33:35Z</time></trkpt><trkpt lat="46.209138397153865" lon="6.77486732114336"><ele>1496.0</ele><time>2026-05-01T14:33:36Z</time></trkpt><trkpt lat="46.209088027723716" lon="6.774927657722318"><ele>1496.0</ele><time>2026-05-01T14:33:37Z</time></trkpt><trkpt lat="46.20908391221955" lon="6.775081760837903"><ele>1496.0</ele><time>2026-05-01T14:33:39Z</time></trkpt><trkpt lat="46.20908949084633" lon="6.77518151077072"><ele>1496.0</ele><time>2026-05-01T14:33:40Z</time></trkpt><trkpt lat="46.20906820289104" lon="6.775282681734841"><ele>1496.0</ele><time>2026-05-01T14:33:41Z</time></trkpt><trkpt lat="46.2089926046448" lon="6.775331004677129"><ele>1496.0</ele><time>2026-05-01T14:33:42Z</time></trkpt><trkpt lat="46.208917817933404" lon="6.775395533202401"><ele>1496.0</ele><time>2026-05-01T14:33:43Z</time></trkpt><trkpt lat="46.20882895311071" lon="6.775458478622649"><ele>1496.0</ele><time>2026-05-01T14:33:44Z</time></trkpt><trkpt lat="46.20873526055312" lon="6.775503623413072"><ele>1496.5</ele><time>2026-05-01T14:33:45Z</time></trkpt><trkpt lat="46.208662415295024" lon="6.77554531175788"><ele>1497.0</ele><time>2026-05-01T14:33:46Z</time></trkpt><trkpt lat="46.20860139697701" lon="6.775578457293701"><ele>1497.5</ele><time>2026-05-01T14:33:47Z</time></trkpt><trkpt lat="46.20855170556917" lon="6.775636761703065"><ele>1498.0</ele><time>2026-05-01T14:33:48Z</time></trkpt><trkpt lat="46.20851221372312" lon="6.775735923683159"><ele>1498.5</ele><time>2026-05-01T14:33:49Z</time></trkpt><trkpt lat="46.20845547282681" lon="6.775839167017761"><ele>1499.0</ele><time>2026-05-01T14:33:50Z</time></trkpt><trkpt lat="46.20839281895036" lon="6.776060811619351"><ele>1499.0</ele><time>2026-05-01T14:33:51Z</time></trkpt><trkpt lat="46.208314078419114" lon="6.7762799917628955"><ele>1499.0</ele><time>2026-05-01T14:33:52Z</time></trkpt><trkpt lat="46.20823303237182" lon="6.776513082452914"><ele>1499.0</ele><time>2026-05-01T14:33:53Z</time></trkpt><trkpt lat="46.20815190575114" lon="6.776797273360188"><ele>1499.6666666666667</ele><time>2026-05-01T14:33:54Z</time></trkpt><trkpt lat="46.20806752776931" lon="6.777044297072693"><ele>1500.3333333333333</ele><time>2026-05-01T14:33:55Z</time></trkpt><trkpt lat="46.207992987273734" lon="6.777255264374634"><ele>1501.0</ele><time>2026-05-01T14:33:56Z</time></trkpt><trkpt lat="46.20791645085104" lon="6.777446273251061"><ele>1501.0</ele><time>2026-05-01T14:33:57Z</time></trkpt><trkpt lat="46.20782786454609" lon="6.777641066134785"><ele>1501.0</ele><time>2026-05-01T14:33:58Z</time></trkpt><trkpt lat="46.20776050822937" lon="6.777831299406556"><ele>1501.0</ele><time>2026-05-01T14:33:59Z</time></trkpt><trkpt lat="46.20772607753127" lon="6.778011316021351"><ele>1501.0</ele><time>2026-05-01T14:34:00Z</time></trkpt><trkpt lat="46.20768323073443" lon="6.778154638342524"><ele>1502.0</ele><time>2026-05-01T14:34:01Z</time></trkpt><trkpt lat="46.20766016701177" lon="6.778280295752768"><ele>1503.0</ele><time>2026-05-01T14:34:02Z</time></trkpt><trkpt lat="46.207629926574555" lon="6.778413990253005"><ele>1504.0</ele><time>2026-05-01T14:34:03Z</time></trkpt><trkpt lat="46.20760183457331" lon="6.778572771704071"><ele>1505.0</ele><time>2026-05-01T14:34:04Z</time></trkpt><trkpt lat="46.207588745905134" lon="6.7787132666177685"><ele>1506.0</ele><time>2026-05-01T14:34:05Z</time></trkpt><trkpt lat="46.20757290694262" lon="6.778821593093486"><ele>1507.3333333333333</ele><time>2026-05-01T14:34:06Z</time></trkpt><trkpt lat="46.20754051819514" lon="6.7789129630589455"><ele>1508.6666666666667</ele><time>2026-05-01T14:34:07Z</time></trkpt><trkpt lat="46.20751545220057" lon="6.779009307523655"><ele>1510.0</ele><time>2026-05-01T14:34:08Z</time></trkpt><trkpt lat="46.20748493088163" lon="6.779183221598732"><ele>1511.3333333333335</ele><time>2026-05-01T14:34:10Z</time></trkpt><trkpt lat="46.20745211452765" lon="6.77908414043094"><ele>1512.6666666666667</ele><time>2026-05-01T14:34:17Z</time></trkpt><trkpt lat="46.207482785071726" lon="6.779183487224648"><ele>1514.0</ele><time>2026-05-01T14:36:52.001Z</time></trkpt><trkpt lat="46.20746623866049" lon="6.779274210428407"><ele>1514.0</ele><time>2026-05-01T14:37:21.001Z</time></trkpt><trkpt lat="46.20753004416253" lon="6.779287286610086"><ele>1514.0</ele><time>2026-05-01T14:38:31Z</time></trkpt><trkpt lat="46.20747791541068" lon="6.779234681064063"><ele>1514.0</ele><time>2026-05-01T14:38:41Z</time></trkpt><trkpt lat="46.20754049443715" lon="6.779220664904107"><ele>1514.0</ele><time>2026-05-01T14:46:23Z</time></trkpt><trkpt lat="46.20748446780324" lon="6.779146931150418"><ele>1514.0</ele><time>2026-05-01T14:47:27Z</time></trkpt><trkpt lat="46.207519326512575" lon="6.779069731713923"><ele>1514.0</ele><time>2026-05-01T14:47:29Z</time></trkpt><trkpt lat="46.20755629761912" lon="6.7789806693648975"><ele>1514.0</ele><time>2026-05-01T14:47:31Z</time></trkpt><trkpt lat="46.20757686421178" lon="6.778882193269935"><ele>1514.0</ele><time>2026-05-01T14:47:33Z</time></trkpt><trkpt lat="46.20760235707466" lon="6.77877460695548"><ele>1514.0</ele><time>2026-05-01T14:47:35Z</time></trkpt><trkpt lat="46.20762228778301" lon="6.778661639658592"><ele>1514.0</ele><time>2026-05-01T14:47:37Z</time></trkpt><trkpt lat="46.20763988754449" lon="6.778526111238419"><ele>1514.0</ele><time>2026-05-01T14:47:39Z</time></trkpt><trkpt lat="46.20766753152552" lon="6.7783801457063175"><ele>1514.0</ele><time>2026-05-01T14:47:41Z</time></trkpt><trkpt lat="46.207702828690245" lon="6.778218388118403"><ele>1512.4</ele><time>2026-05-01T14:47:43Z</time></trkpt><trkpt lat="46.20773194477068" lon="6.778109625212173"><ele>1510.8000000000002</ele><time>2026-05-01T14:47:44Z</time></trkpt><trkpt lat="46.20776481515493" lon="6.777993310462942"><ele>1509.1999999999998</ele><time>2026-05-01T14:47:45Z</time></trkpt><trkpt lat="46.20779954762655" lon="6.777873131276902"><ele>1507.6</ele><time>2026-05-01T14:47:46Z</time></trkpt><trkpt lat="46.20784114576838" lon="6.7777324001506205"><ele>1506.0</ele><time>2026-05-01T14:47:47Z</time></trkpt><trkpt lat="46.20789221435098" lon="6.777578221799903"><ele>1504.75</ele><time>2026-05-01T14:47:48Z</time></trkpt><trkpt lat="46.20794847859984" lon="6.777417682970836"><ele>1503.5</ele><time>2026-05-01T14:47:49Z</time></trkpt><trkpt lat="46.20801276778289" lon="6.777267663770725"><ele>1502.25</ele><time>2026-05-01T14:47:50Z</time></trkpt><trkpt lat="46.20808156656062" lon="6.777124464208483"><ele>1501.0</ele><time>2026-05-01T14:47:51Z</time></trkpt><trkpt lat="46.20811798177242" lon="6.776957942281907"><ele>1502.1999999999998</ele><time>2026-05-01T14:47:52Z</time></trkpt><trkpt lat="46.208174855901824" lon="6.776817945990265"><ele>1503.3999999999999</ele><time>2026-05-01T14:47:53Z</time></trkpt><trkpt lat="46.20822077999481" lon="6.77668528730402"><ele>1504.6</ele><time>2026-05-01T14:47:54Z</time></trkpt><trkpt lat="46.20826478265059" lon="6.77654999555906"><ele>1505.8</ele><time>2026-05-01T14:47:55Z</time></trkpt><trkpt lat="46.208302495619165" lon="6.7764094104736685"><ele>1507.0</ele><time>2026-05-01T14:47:56Z</time></trkpt><trkpt lat="46.20834686478559" lon="6.77627743589603"><ele>1507.0</ele><time>2026-05-01T14:47:57Z</time></trkpt><trkpt lat="46.20839609513731" lon="6.776153076027439"><ele>1507.0</ele><time>2026-05-01T14:47:58Z</time></trkpt><trkpt lat="46.208441530259634" lon="6.776028694030901"><ele>1507.0</ele><time>2026-05-01T14:47:59Z</time></trkpt><trkpt lat="46.20848746696671" lon="6.775898646243751"><ele>1507.0</ele><time>2026-05-01T14:48:00Z</time></trkpt><trkpt lat="46.20853510309282" lon="6.775768457105002"><ele>1507.0</ele><time>2026-05-01T14:48:01Z</time></trkpt><trkpt lat="46.20857894902189" lon="6.775664166343576"><ele>1508.1666666666665</ele><time>2026-05-01T14:48:02Z</time></trkpt><trkpt lat="46.20863176998642" lon="6.77558280202643"><ele>1509.3333333333333</ele><time>2026-05-01T14:48:03Z</time></trkpt><trkpt lat="46.20869581442379" lon="6.775534833575381"><ele>1510.5</ele><time>2026-05-01T14:48:04Z</time></trkpt><trkpt lat="46.20877155705461" lon="6.775495215419526"><ele>1511.6666666666667</ele><time>2026-05-01T14:48:05Z</time></trkpt><trkpt lat="46.20887002479225" lon="6.775452678491277"><ele>1512.8333333333335</ele><time>2026-05-01T14:48:06Z</time></trkpt><trkpt lat="46.208973742644424" lon="6.775397388647903"><ele>1514.0</ele><time>2026-05-01T14:48:07Z</time></trkpt><trkpt lat="46.209051372823005" lon="6.7753251127627445"><ele>1514.0</ele><time>2026-05-01T14:48:08Z</time></trkpt><trkpt lat="46.20910381627598" lon="6.7752576709927625"><ele>1514.0</ele><time>2026-05-01T14:48:09Z</time></trkpt><trkpt lat="46.209132230345794" lon="6.775164406365705"><ele>1514.0</ele><time>2026-05-01T14:48:10Z</time></trkpt><trkpt lat="46.209133282128995" lon="6.775058467185772"><ele>1514.0</ele><time>2026-05-01T14:48:11Z</time></trkpt><trkpt lat="46.20912310494009" lon="6.774955774458319"><ele>1514.0</ele><time>2026-05-01T14:48:12Z</time></trkpt><trkpt lat="46.20919869751354" lon="6.774815651213281"><ele>1514.0</ele><time>2026-05-01T14:48:14Z</time></trkpt><trkpt lat="46.209274707774306" lon="6.774764994632758"><ele>1510.4</ele><time>2026-05-01T14:48:15Z</time></trkpt><trkpt lat="46.20935336289828" lon="6.774711047551658"><ele>1506.8000000000002</ele><time>2026-05-01T14:48:16Z</time></trkpt><trkpt lat="46.20941765992374" lon="6.774658984449765"><ele>1503.1999999999998</ele><time>2026-05-01T14:48:17Z</time></trkpt><trkpt lat="46.2095181594953" lon="6.774570728262054"><ele>1499.6</ele><time>2026-05-01T14:48:19Z</time></trkpt><trkpt lat="46.20962476968445" lon="6.774480862216582"><ele>1496.0</ele><time>2026-05-01T14:48:21Z</time></trkpt><trkpt lat="46.20973624134947" lon="6.7744424601678155"><ele>1497.0</ele><time>2026-05-01T14:48:23Z</time></trkpt><trkpt lat="46.20985149800264" lon="6.774457763482156"><ele>1498.0</ele><time>2026-05-01T14:48:25Z</time></trkpt><trkpt lat="46.209935317517754" lon="6.774456461401544"><ele>1499.0</ele><time>2026-05-01T14:48:26Z</time></trkpt><trkpt lat="46.21002890050238" lon="6.774450282961452"><ele>1500.0</ele><time>2026-05-01T14:48:27Z</time></trkpt><trkpt lat="46.210132044702185" lon="6.7744345595588635"><ele>1501.0</ele><time>2026-05-01T14:48:28Z</time></trkpt><trkpt lat="46.210234210488544" lon="6.774401953566852"><ele>1501.0</ele><time>2026-05-01T14:48:29Z</time></trkpt><trkpt lat="46.21033908312842" lon="6.774366109980936"><ele>1501.0</ele><time>2026-05-01T14:48:30Z</time></trkpt><trkpt lat="46.21043875762127" lon="6.77432031915475"><ele>1501.0</ele><time>2026-05-01T14:48:31Z</time></trkpt><trkpt lat="46.210534467814426" lon="6.774269804475196"><ele>1501.0</ele><time>2026-05-01T14:48:32Z</time></trkpt><trkpt lat="46.21061269783086" lon="6.774225444868027"><ele>1501.0</ele><time>2026-05-01T14:48:33Z</time></trkpt><trkpt lat="46.21069448857225" lon="6.774174319639133"><ele>1497.3333333333333</ele><time>2026-05-01T14:48:34Z</time></trkpt><trkpt lat="46.21076970124713" lon="6.774118159085022"><ele>1493.6666666666665</ele><time>2026-05-01T14:48:35Z</time></trkpt><trkpt lat="46.21082911555541" lon="6.7740703601496595"><ele>1490.0</ele><time>2026-05-01T14:48:36Z</time></trkpt><trkpt lat="46.21088433515751" lon="6.7740216273163725"><ele>1486.3333333333333</ele><time>2026-05-01T14:48:37Z</time></trkpt><trkpt lat="46.210969316846594" lon="6.7738946219140574"><ele>1482.6666666666667</ele><time>2026-05-01T14:48:39Z</time></trkpt><trkpt lat="46.211004967889636" lon="6.77378419565486"><ele>1479.0</ele><time>2026-05-01T14:48:41Z</time></trkpt><trkpt lat="46.21097069992178" lon="6.773653248516384"><ele>1479.0</ele><time>2026-05-01T14:48:43Z</time></trkpt><trkpt lat="46.210890489415554" lon="6.773556881652686"><ele>1479.0</ele><time>2026-05-01T14:48:45Z</time></trkpt><trkpt lat="46.21079090111759" lon="6.7735234591452596"><ele>1479.0</ele><time>2026-05-01T14:48:47Z</time></trkpt><trkpt lat="46.210722034301135" lon="6.7735300422753575"><ele>1479.0</ele><time>2026-05-01T14:48:48Z</time></trkpt><trkpt lat="46.210646914511216" lon="6.773536769083584"><ele>1479.0</ele><time>2026-05-01T14:48:48.999Z</time></trkpt><trkpt lat="46.21056568435827" lon="6.773548683910869"><ele>1479.0</ele><time>2026-05-01T14:48:49.999Z</time></trkpt><trkpt lat="46.21047781962205" lon="6.773556124506063"><ele>1478.8333333333333</ele><time>2026-05-01T14:48:50.999Z</time></trkpt><trkpt lat="46.21039869475564" lon="6.773561768746083"><ele>1478.6666666666667</ele><time>2026-05-01T14:48:51.999Z</time></trkpt><trkpt lat="46.21031682644551" lon="6.773545098743796"><ele>1478.5</ele><time>2026-05-01T14:48:52.999Z</time></trkpt><trkpt lat="46.210241981524156" lon="6.773497570798298"><ele>1478.3333333333335</ele><time>2026-05-01T14:48:53.999Z</time></trkpt><trkpt lat="46.21017164969045" lon="6.773433144848433"><ele>1478.1666666666667</ele><time>2026-05-01T14:48:54.999Z</time></trkpt><trkpt lat="46.21012222134499" lon="6.773369586798316"><ele>1478.0</ele><time>2026-05-01T14:48:55.999Z</time></trkpt><trkpt lat="46.21009433519675" lon="6.773244842329633"><ele>1475.4</ele><time>2026-05-01T14:48:57.999Z</time></trkpt><trkpt lat="46.2101532535878" lon="6.773135647689169"><ele>1472.8000000000002</ele><time>2026-05-01T14:48:59.999Z</time></trkpt><trkpt lat="46.21021773884798" lon="6.773098451971606"><ele>1470.2</ele><time>2026-05-01T14:49:00.999Z</time></trkpt><trkpt lat="46.210299551771385" lon="6.77305682353836"><ele>1467.6</ele><time>2026-05-01T14:49:01.999Z</time></trkpt><trkpt lat="46.21040315703637" lon="6.773005903080394"><ele>1465.0</ele><time>2026-05-01T14:49:02.999Z</time></trkpt><trkpt lat="46.210506725407804" lon="6.772968697897925"><ele>1465.0</ele><time>2026-05-01T14:49:03.999Z</time></trkpt><trkpt lat="46.210598428518715" lon="6.772971328059209"><ele>1465.0</ele><time>2026-05-01T14:49:04.999Z</time></trkpt><trkpt lat="46.21068871473585" lon="6.772987344561921"><ele>1465.0</ele><time>2026-05-01T14:49:05.999Z</time></trkpt><trkpt lat="46.21077641891147" lon="6.773011864045249"><ele>1465.0</ele><time>2026-05-01T14:49:06.999Z</time></trkpt><trkpt lat="46.210858745758394" lon="6.773022129475906"><ele>1465.0</ele><time>2026-05-01T14:49:07.999Z</time></trkpt><trkpt lat="46.210944876256036" lon="6.77299706864364"><ele>1465.0</ele><time>2026-05-01T14:49:08.999Z</time></trkpt><trkpt lat="46.2110259571542" lon="6.772938787162466"><ele>1465.75</ele><time>2026-05-01T14:49:09.999Z</time></trkpt><trkpt lat="46.21109895898706" lon="6.772836479871252"><ele>1466.5</ele><time>2026-05-01T14:49:10.999Z</time></trkpt><trkpt lat="46.211181854285726" lon="6.772726793626436"><ele>1467.25</ele><time>2026-05-01T14:49:11.999Z</time></trkpt><trkpt lat="46.21127799685605" lon="6.772595060364883"><ele>1468.0</ele><time>2026-05-01T14:49:12.999Z</time></trkpt><trkpt lat="46.21137222243748" lon="6.772482255743322"><ele>1464.25</ele><time>2026-05-01T14:49:13.999Z</time></trkpt><trkpt lat="46.21146456267995" lon="6.772385428113171"><ele>1460.5</ele><time>2026-05-01T14:49:14.999Z</time></trkpt><trkpt lat="46.21155147532821" lon="6.77228488598688"><ele>1456.75</ele><time>2026-05-01T14:49:15.999Z</time></trkpt><trkpt lat="46.21163818883965" lon="6.77218206589198"><ele>1453.0</ele><time>2026-05-01T14:49:16.999Z</time></trkpt><trkpt lat="46.21172675367338" lon="6.772072256158374"><ele>1453.0</ele><time>2026-05-01T14:49:17.999Z</time></trkpt><trkpt lat="46.21181859277841" lon="6.771980395060169"><ele>1453.0</ele><time>2026-05-01T14:49:19Z</time></trkpt><trkpt lat="46.211913828520814" lon="6.771897736794651"><ele>1453.0</ele><time>2026-05-01T14:49:20Z</time></trkpt><trkpt lat="46.212013702574204" lon="6.771833816294555"><ele>1453.0</ele><time>2026-05-01T14:49:21Z</time></trkpt><trkpt lat="46.21212748051195" lon="6.77177763420991"><ele>1448.25</ele><time>2026-05-01T14:49:22Z</time></trkpt><trkpt lat="46.212257008671465" lon="6.771728220559461"><ele>1443.5</ele><time>2026-05-01T14:49:23Z</time></trkpt><trkpt lat="46.212385166619235" lon="6.77168576530733"><ele>1438.75</ele><time>2026-05-01T14:49:24Z</time></trkpt><trkpt lat="46.21250461951653" lon="6.771662085428365"><ele>1434.0</ele><time>2026-05-01T14:49:25Z</time></trkpt><trkpt lat="46.212625554285715" lon="6.771650588086869"><ele>1434.0</ele><time>2026-05-01T14:49:26Z</time></trkpt><trkpt lat="46.212739419331626" lon="6.771656089588917"><ele>1434.0</ele><time>2026-05-01T14:49:27Z</time></trkpt><trkpt lat="46.21285248971268" lon="6.7716579420008225"><ele>1434.0</ele><time>2026-05-01T14:49:28Z</time></trkpt><trkpt lat="46.212990797102556" lon="6.771649570782596"><ele>1434.0</ele><time>2026-05-01T14:49:29Z</time></trkpt><trkpt lat="46.21311895304573" lon="6.77161377903715"><ele>1435.75</ele><time>2026-05-01T14:49:30Z</time></trkpt><trkpt lat="46.21325282551848" lon="6.771569049317796"><ele>1437.5</ele><time>2026-05-01T14:49:31Z</time></trkpt><trkpt lat="46.21336940616224" lon="6.771531766371172"><ele>1439.25</ele><time>2026-05-01T14:49:32Z</time></trkpt><trkpt lat="46.21347781391925" lon="6.771498962705326"><ele>1441.0</ele><time>2026-05-01T14:49:33Z</time></trkpt><trkpt lat="46.213580580141496" lon="6.7714496463389064"><ele>1441.0</ele><time>2026-05-01T14:49:34Z</time></trkpt><trkpt lat="46.213669075707635" lon="6.771388474048098"><ele>1441.0</ele><time>2026-05-01T14:49:35Z</time></trkpt><trkpt lat="46.213745431293994" lon="6.771296940114706"><ele>1441.0</ele><time>2026-05-01T14:49:36Z</time></trkpt><trkpt lat="46.21380505864501" lon="6.771185410436093"><ele>1441.0</ele><time>2026-05-01T14:49:37Z</time></trkpt><trkpt lat="46.213854772276534" lon="6.771070279010165"><ele>1441.0</ele><time>2026-05-01T14:49:38Z</time></trkpt><trkpt lat="46.213917374211974" lon="6.77099002639993"><ele>1435.4</ele><time>2026-05-01T14:49:39Z</time></trkpt><trkpt lat="46.21399996880788" lon="6.770947650417842"><ele>1429.8</ele><time>2026-05-01T14:49:40Z</time></trkpt><trkpt lat="46.214100675328574" lon="6.77092269549844"><ele>1424.2</ele><time>2026-05-01T14:49:41Z</time></trkpt><trkpt lat="46.21419727971311" lon="6.770879597812917"><ele>1418.6000000000001</ele><time>2026-05-01T14:49:42Z</time></trkpt><trkpt lat="46.21429018545579" lon="6.770810335951304"><ele>1413.0</ele><time>2026-05-01T14:49:43Z</time></trkpt><trkpt lat="46.214371399496926" lon="6.770756364165924"><ele>1413.0</ele><time>2026-05-01T14:49:44Z</time></trkpt><trkpt lat="46.2144477858309" lon="6.770717625993431"><ele>1413.0</ele><time>2026-05-01T14:49:45Z</time></trkpt><trkpt lat="46.21450981821042" lon="6.770674047833699"><ele>1413.0</ele><time>2026-05-01T14:49:46Z</time></trkpt><trkpt lat="46.21455911855608" lon="6.770538580127953"><ele>1413.0</ele><time>2026-05-01T14:49:48Z</time></trkpt><trkpt lat="46.214507300534244" lon="6.770423887446043"><ele>1413.0</ele><time>2026-05-01T14:49:50Z</time></trkpt><trkpt lat="46.21439315248971" lon="6.77042405743738"><ele>1413.0</ele><time>2026-05-01T14:49:52Z</time></trkpt><trkpt lat="46.21427236726197" lon="6.770532824637331"><ele>1413.0</ele><time>2026-05-01T14:49:54Z</time></trkpt><trkpt lat="46.21416428738872" lon="6.770609335846152"><ele>1413.0</ele><time>2026-05-01T14:49:55Z</time></trkpt><trkpt lat="46.2140250282622" lon="6.770662414253"><ele>1413.0</ele><time>2026-05-01T14:49:56Z</time></trkpt><trkpt lat="46.213884397564" lon="6.770676782296352"><ele>1410.5</ele><time>2026-05-01T14:49:57Z</time></trkpt><trkpt lat="46.21376088068611" lon="6.770683120098088"><ele>1408.0</ele><time>2026-05-01T14:49:58Z</time></trkpt><trkpt lat="46.213671506054595" lon="6.7707042196773575"><ele>1405.5</ele><time>2026-05-01T14:49:59Z</time></trkpt><trkpt lat="46.213602037224355" lon="6.770745084949572"><ele>1403.0</ele><time>2026-05-01T14:50:00Z</time></trkpt><trkpt lat="46.21354838782416" lon="6.770816920406228"><ele>1400.5</ele><time>2026-05-01T14:50:01Z</time></trkpt><trkpt lat="46.213506617684715" lon="6.770910148800392"><ele>1398.0</ele><time>2026-05-01T14:50:02Z</time></trkpt><trkpt lat="46.21347201270657" lon="6.770994116994684"><ele>1398.0</ele><time>2026-05-01T14:50:03Z</time></trkpt><trkpt lat="46.21337730053594" lon="6.771023306554756"><ele>1398.0</ele><time>2026-05-01T14:50:05Z</time></trkpt><trkpt lat="46.21333716572302" lon="6.770881721871283"><ele>1398.0</ele><time>2026-05-01T14:50:07Z</time></trkpt><trkpt lat="46.21337618256681" lon="6.770801037840363"><ele>1398.0</ele><time>2026-05-01T14:50:08Z</time></trkpt><trkpt lat="46.213443242283866" lon="6.770720434332576"><ele>1398.0</ele><time>2026-05-01T14:50:09Z</time></trkpt><trkpt lat="46.213526711044324" lon="6.770620900386787"><ele>1398.0</ele><time>2026-05-01T14:50:10Z</time></trkpt><trkpt lat="46.21362016588236" lon="6.770501605069354"><ele>1398.0</ele><time>2026-05-01T14:50:11Z</time></trkpt><trkpt lat="46.213722446144345" lon="6.770418627383397"><ele>1398.0</ele><time>2026-05-01T14:50:11.999Z</time></trkpt><trkpt lat="46.213829491478364" lon="6.770372144469803"><ele>1398.0</ele><time>2026-05-01T14:50:12.999Z</time></trkpt><trkpt lat="46.21392957206213" lon="6.770316642209088"><ele>1396.4</ele><time>2026-05-01T14:50:13.999Z</time></trkpt><trkpt lat="46.21401389837242" lon="6.7702370113858805"><ele>1394.8000000000002</ele><time>2026-05-01T14:50:14.999Z</time></trkpt><trkpt lat="46.21407586969512" lon="6.770135048805961"><ele>1393.2</ele><time>2026-05-01T14:50:15.999Z</time></trkpt><trkpt lat="46.214112055005295" lon="6.770020644549394"><ele>1391.6</ele><time>2026-05-01T14:50:16.999Z</time></trkpt><trkpt lat="46.2141344269006" lon="6.769897598100074"><ele>1390.0</ele><time>2026-05-01T14:50:17.999Z</time></trkpt><trkpt lat="46.21414842608763" lon="6.769768681130295"><ele>1390.0</ele><time>2026-05-01T14:50:18.999Z</time></trkpt><trkpt lat="46.21416569861818" lon="6.769638928127491"><ele>1390.0</ele><time>2026-05-01T14:50:19.999Z</time></trkpt><trkpt lat="46.214210865743574" lon="6.769502472216492"><ele>1390.0</ele><time>2026-05-01T14:50:20.999Z</time></trkpt><trkpt lat="46.21427787946979" lon="6.769360407437914"><ele>1390.0</ele><time>2026-05-01T14:50:21.999Z</time></trkpt><trkpt lat="46.21435217906314" lon="6.769229907903139"><ele>1390.0</ele><time>2026-05-01T14:50:22.999Z</time></trkpt><trkpt lat="46.214428919625995" lon="6.769120831804943"><ele>1386.4</ele><time>2026-05-01T14:50:23.999Z</time></trkpt><trkpt lat="46.21451002414516" lon="6.769043254545005"><ele>1382.8</ele><time>2026-05-01T14:50:24.999Z</time></trkpt><trkpt lat="46.214586413967325" lon="6.769006758657987"><ele>1379.1999999999998</ele><time>2026-05-01T14:50:25.999Z</time></trkpt><trkpt lat="46.21464941267779" lon="6.768977784602373"><ele>1375.6</ele><time>2026-05-01T14:50:26.999Z</time></trkpt><trkpt lat="46.214688177678305" lon="6.768849915909114"><ele>1372.0</ele><time>2026-05-01T14:50:28.999Z</time></trkpt><trkpt lat="46.214605991202795" lon="6.7687334261308"><ele>1372.0</ele><time>2026-05-01T14:50:30.999Z</time></trkpt><trkpt lat="46.21447629737506" lon="6.768776000990761"><ele>1372.0</ele><time>2026-05-01T14:50:32.999Z</time></trkpt><trkpt lat="46.214382171672504" lon="6.768852650926125"><ele>1372.0</ele><time>2026-05-01T14:50:33.999Z</time></trkpt><trkpt lat="46.21426867339042" lon="6.768941297525989"><ele>1372.0</ele><time>2026-05-01T14:50:34.999Z</time></trkpt><trkpt lat="46.21415962922303" lon="6.7690156833705855"><ele>1372.0</ele><time>2026-05-01T14:50:35.999Z</time></trkpt><trkpt lat="46.214064088286314" lon="6.76909541704207"><ele>1372.0</ele><time>2026-05-01T14:50:36.999Z</time></trkpt><trkpt lat="46.21396338009908" lon="6.76917948444528"><ele>1372.0</ele><time>2026-05-01T14:50:37.999Z</time></trkpt><trkpt lat="46.21387801447964" lon="6.769261392377982"><ele>1372.0</ele><time>2026-05-01T14:50:38.999Z</time></trkpt><trkpt lat="46.21381692352907" lon="6.769332637838293"><ele>1372.0</ele><time>2026-05-01T14:50:39.999Z</time></trkpt><trkpt lat="46.21372735572491" lon="6.769437854779062"><ele>1372.0</ele><time>2026-05-01T14:50:41.999Z</time></trkpt><trkpt lat="46.21363524660209" lon="6.76938355156362"><ele>1372.0</ele><time>2026-05-01T14:50:43.999Z</time></trkpt><trkpt lat="46.21361364483831" lon="6.769297339938534"><ele>1372.0</ele><time>2026-05-01T14:50:44.999Z</time></trkpt><trkpt lat="46.21364502518412" lon="6.76917990147763"><ele>1372.0</ele><time>2026-05-01T14:50:45.999Z</time></trkpt><trkpt lat="46.21371392134519" lon="6.7690997150441925"><ele>1372.0</ele><time>2026-05-01T14:50:46.999Z</time></trkpt><trkpt lat="46.21379513968443" lon="6.76900253458828"><ele>1372.0</ele><time>2026-05-01T14:50:47.999Z</time></trkpt><trkpt lat="46.213859117973506" lon="6.768893232969237"><ele>1372.0</ele><time>2026-05-01T14:50:48.999Z</time></trkpt><trkpt lat="46.21392682815328" lon="6.7687573127531575"><ele>1372.0</ele><time>2026-05-01T14:50:49.999Z</time></trkpt><trkpt lat="46.21399360943027" lon="6.768581507399429"><ele>1372.0</ele><time>2026-05-01T14:50:50.999Z</time></trkpt><trkpt lat="46.21407152994976" lon="6.76838605780183"><ele>1372.0</ele><time>2026-05-01T14:50:51.999Z</time></trkpt><trkpt lat="46.21415383981743" lon="6.7681948717633755"><ele>1366.0</ele><time>2026-05-01T14:50:52.999Z</time></trkpt><trkpt lat="46.2142328329166" lon="6.768025332279741"><ele>1360.0</ele><time>2026-05-01T14:50:53.999Z</time></trkpt><trkpt lat="46.21431257114455" lon="6.76786482213705"><ele>1354.0</ele><time>2026-05-01T14:50:54.999Z</time></trkpt><trkpt lat="46.214388035115284" lon="6.767714627474876"><ele>1348.0</ele><time>2026-05-01T14:50:55.999Z</time></trkpt><trkpt lat="46.214463847914104" lon="6.767602976931406"><ele>1346.6000000000001</ele><time>2026-05-01T14:50:56.999Z</time></trkpt><trkpt lat="46.21454844688081" lon="6.767518344614887"><ele>1345.2</ele><time>2026-05-01T14:50:57.999Z</time></trkpt><trkpt lat="46.21465380436653" lon="6.767480198568957"><ele>1343.8</ele><time>2026-05-01T14:50:58.999Z</time></trkpt><trkpt lat="46.214746714879325" lon="6.767437904263511"><ele>1342.4</ele><time>2026-05-01T14:50:59.999Z</time></trkpt><trkpt lat="46.21482927312245" lon="6.767396947721069"><ele>1341.0</ele><time>2026-05-01T14:51:00.999Z</time></trkpt><trkpt lat="46.21489041003288" lon="6.767356052159702"><ele>1341.0</ele><time>2026-05-01T14:51:01.999Z</time></trkpt><trkpt lat="46.21495367584423" lon="6.76723814299637"><ele>1341.0</ele><time>2026-05-01T14:51:03.999Z</time></trkpt><trkpt lat="46.21490547855236" lon="6.767080514477335"><ele>1341.0</ele><time>2026-05-01T14:51:05.999Z</time></trkpt><trkpt lat="46.21484141717908" lon="6.767031774011559"><ele>1341.0</ele><time>2026-05-01T14:51:06.999Z</time></trkpt><trkpt lat="46.21475907459169" lon="6.767007261628219"><ele>1341.0</ele><time>2026-05-01T14:51:07.999Z</time></trkpt><trkpt lat="46.214669240024" lon="6.766968644840538"><ele>1341.0</ele><time>2026-05-01T14:51:08.999Z</time></trkpt><trkpt lat="46.21458951346979" lon="6.7669039730853315"><ele>1341.0</ele><time>2026-05-01T14:51:09.999Z</time></trkpt><trkpt lat="46.214530062059445" lon="6.7668167208949415"><ele>1341.0</ele><time>2026-05-01T14:51:10.999Z</time></trkpt><trkpt lat="46.21449998063096" lon="6.7667148797943115"><ele>1341.0</ele><time>2026-05-01T14:51:11.999Z</time></trkpt><trkpt lat="46.21450175254894" lon="6.766612420588719"><ele>1341.0</ele><time>2026-05-01T14:51:12.999Z</time></trkpt><trkpt lat="46.2145421399243" lon="6.766510703802055"><ele>1341.0</ele><time>2026-05-01T14:51:13.999Z</time></trkpt><trkpt lat="46.21461975771947" lon="6.766417740975066"><ele>1340.3333333333333</ele><time>2026-05-01T14:51:14.999Z</time></trkpt><trkpt lat="46.21470037473168" lon="6.766311795094877"><ele>1339.6666666666667</ele><time>2026-05-01T14:51:15.999Z</time></trkpt><trkpt lat="46.21475552502596" lon="6.76620815604804"><ele>1339.0</ele><time>2026-05-01T14:51:16.999Z</time></trkpt><trkpt lat="46.21479011988829" lon="6.766102928049314"><ele>1338.3333333333335</ele><time>2026-05-01T14:51:17.999Z</time></trkpt><trkpt lat="46.21479555400604" lon="6.7659927564007125"><ele>1337.6666666666667</ele><time>2026-05-01T14:51:18.999Z</time></trkpt><trkpt lat="46.21477776053349" lon="6.765887102758952"><ele>1337.0</ele><time>2026-05-01T14:51:19.999Z</time></trkpt><trkpt lat="46.21473316433643" lon="6.765800699670235"><ele>1335.8333333333335</ele><time>2026-05-01T14:51:20.999Z</time></trkpt><trkpt lat="46.214671248372326" lon="6.765734605200626"><ele>1334.6666666666667</ele><time>2026-05-01T14:51:21.999Z</time></trkpt><trkpt lat="46.21461988029277" lon="6.76562084907792"><ele>1333.5</ele><time>2026-05-01T14:51:24Z</time></trkpt><trkpt lat="46.21470965984525" lon="6.765547428838478"><ele>1332.3333333333333</ele><time>2026-05-01T14:51:26Z</time></trkpt><trkpt lat="46.21477231100643" lon="6.765594611623504"><ele>1331.1666666666665</ele><time>2026-05-01T14:51:27Z</time></trkpt><trkpt lat="46.214824003024944" lon="6.765696958335428"><ele>1330.0</ele><time>2026-05-01T14:51:28Z</time></trkpt><trkpt lat="46.21486944878116" lon="6.765821043797647"><ele>1330.0</ele><time>2026-05-01T14:51:29Z</time></trkpt><trkpt lat="46.21491430186066" lon="6.765922736738615"><ele>1330.0</ele><time>2026-05-01T14:51:30Z</time></trkpt><trkpt lat="46.21496292324995" lon="6.765982709393347"><ele>1330.0</ele><time>2026-05-01T14:51:31Z</time></trkpt><trkpt lat="46.21507173747904" lon="6.7659729426379185"><ele>1330.0</ele><time>2026-05-01T14:51:33Z</time></trkpt><trkpt lat="46.215117871796075" lon="6.765902599873344"><ele>1330.0</ele><time>2026-05-01T14:51:34Z</time></trkpt><trkpt lat="46.21513417983772" lon="6.765814691195559"><ele>1330.0</ele><time>2026-05-01T14:51:35Z</time></trkpt><trkpt lat="46.2150573553268" lon="6.765648039911786"><ele>1330.0</ele><time>2026-05-01T14:51:37Z</time></trkpt><trkpt lat="46.21497252897416" lon="6.765588028117769"><ele>1330.0</ele><time>2026-05-01T14:51:38Z</time></trkpt><trkpt lat="46.21489855048035" lon="6.765522650683097"><ele>1330.0</ele><time>2026-05-01T14:51:39Z</time></trkpt><trkpt lat="46.21486158491187" lon="6.76544105055636"><ele>1330.0</ele><time>2026-05-01T14:51:40Z</time></trkpt><trkpt lat="46.21486019729153" lon="6.765339251769751"><ele>1330.0</ele><time>2026-05-01T14:51:41Z</time></trkpt><trkpt lat="46.21490278508427" lon="6.7652633298934"><ele>1330.0</ele><time>2026-05-01T14:51:42Z</time></trkpt><trkpt lat="46.2149746696262" lon="6.765231287726499"><ele>1330.0</ele><time>2026-05-01T14:51:43Z</time></trkpt><trkpt lat="46.21505473809866" lon="6.765253122608647"><ele>1330.0</ele><time>2026-05-01T14:51:44Z</time></trkpt><trkpt lat="46.215145842151664" lon="6.765280887330869"><ele>1330.0</ele><time>2026-05-01T14:51:45Z</time></trkpt><trkpt lat="46.21522540865843" lon="6.765272903648908"><ele>1330.0</ele><time>2026-05-01T14:51:46Z</time></trkpt><trkpt lat="46.21528884709832" lon="6.76521374778116"><ele>1330.0</ele><time>2026-05-01T14:51:47Z</time></trkpt><trkpt lat="46.21534216037923" lon="6.765121457324374"><ele>1330.0</ele><time>2026-05-01T14:51:48Z</time></trkpt><trkpt lat="46.21537564011481" lon="6.764972238388106"><ele>1324.0</ele><time>2026-05-01T14:51:49Z</time></trkpt><trkpt lat="46.21542521703049" lon="6.764750177027288"><ele>1318.0</ele><time>2026-05-01T14:51:50Z</time></trkpt><trkpt lat="46.215500046111416" lon="6.764539251271842"><ele>1312.0</ele><time>2026-05-01T14:51:51Z</time></trkpt><trkpt lat="46.215571135869055" lon="6.764330697970991"><ele>1315.8</ele><time>2026-05-01T14:51:52Z</time></trkpt><trkpt lat="46.21563953523621" lon="6.764152449702775"><ele>1319.6</ele><time>2026-05-01T14:51:53Z</time></trkpt><trkpt lat="46.21569969893194" lon="6.763991824276556"><ele>1323.3999999999999</ele><time>2026-05-01T14:51:54Z</time></trkpt><trkpt lat="46.21574367550252" lon="6.763858776850556"><ele>1327.1999999999998</ele><time>2026-05-01T14:51:55Z</time></trkpt><trkpt lat="46.215785108825436" lon="6.763760770151834"><ele>1331.0</ele><time>2026-05-01T14:51:56Z</time></trkpt><trkpt lat="46.21581899151461" lon="6.763601222702541"><ele>1325.1999999999998</ele><time>2026-05-01T14:51:58Z</time></trkpt><trkpt lat="46.21574733203153" lon="6.7634992574512385"><ele>1319.3999999999999</ele><time>2026-05-01T14:52:00Z</time></trkpt><trkpt lat="46.21563914515338" lon="6.763566249311677"><ele>1313.6</ele><time>2026-05-01T14:52:02Z</time></trkpt><trkpt lat="46.2156041395591" lon="6.763657602507399"><ele>1307.8</ele><time>2026-05-01T14:52:03Z</time></trkpt><trkpt lat="46.215580524466155" lon="6.763788627724482"><ele>1302.0</ele><time>2026-05-01T14:52:04Z</time></trkpt><trkpt lat="46.21552988577094" lon="6.763942730834783"><ele>1304.5</ele><time>2026-05-01T14:52:05Z</time></trkpt><trkpt lat="46.21544764729751" lon="6.76409799786162"><ele>1307.0</ele><time>2026-05-01T14:52:06Z</time></trkpt><trkpt lat="46.215358633501516" lon="6.764251625227435"><ele>1309.5</ele><time>2026-05-01T14:52:07Z</time></trkpt><trkpt lat="46.21526860667164" lon="6.764380395988781"><ele>1312.0</ele><time>2026-05-01T14:52:08Z</time></trkpt><trkpt lat="46.21517744752233" lon="6.764492393382088"><ele>1312.0</ele><time>2026-05-01T14:52:09Z</time></trkpt><trkpt lat="46.215069053195" lon="6.764559665414808"><ele>1312.0</ele><time>2026-05-01T14:52:10Z</time></trkpt><trkpt lat="46.21494600486058" lon="6.764608879195107"><ele>1312.0</ele><time>2026-05-01T14:52:11Z</time></trkpt><trkpt lat="46.21481079497088" lon="6.7646506436341065"><ele>1312.0</ele><time>2026-05-01T14:52:12Z</time></trkpt><trkpt lat="46.2146664417131" lon="6.764751534148745"><ele>1298.3333333333333</ele><time>2026-05-01T14:52:13Z</time></trkpt><trkpt lat="46.21451504788779" lon="6.764896226056512"><ele>1284.6666666666667</ele><time>2026-05-01T14:52:14Z</time></trkpt><trkpt lat="46.21435763767773" lon="6.765051081922187"><ele>1271.0</ele><time>2026-05-01T14:52:15Z</time></trkpt><trkpt lat="46.21422503283118" lon="6.765186463202521"><ele>1271.0</ele><time>2026-05-01T14:52:16Z</time></trkpt><trkpt lat="46.21409314422187" lon="6.765302488961707"><ele>1271.0</ele><time>2026-05-01T14:52:17Z</time></trkpt><trkpt lat="46.213980043661294" lon="6.765408880754833"><ele>1271.0</ele><time>2026-05-01T14:52:18Z</time></trkpt><trkpt lat="46.213875323699526" lon="6.765537732804357"><ele>1271.0</ele><time>2026-05-01T14:52:19Z</time></trkpt><trkpt lat="46.21379088247952" lon="6.765652354947567"><ele>1271.0</ele><time>2026-05-01T14:52:20Z</time></trkpt><trkpt lat="46.21372982306347" lon="6.76574729263989"><ele>1271.0</ele><time>2026-05-01T14:52:21Z</time></trkpt><trkpt lat="46.2136781087793" lon="6.765821228928491"><ele>1271.0</ele><time>2026-05-01T14:52:22Z</time></trkpt><trkpt lat="46.21357364173772" lon="6.765828390802316"><ele>1271.0</ele><time>2026-05-01T14:52:23.999Z</time></trkpt><trkpt lat="46.21352490925603" lon="6.765680628944413"><ele>1271.0</ele><time>2026-05-01T14:52:25.999Z</time></trkpt><trkpt lat="46.213574775220735" lon="6.7655993556215375"><ele>1271.0</ele><time>2026-05-01T14:52:26.999Z</time></trkpt><trkpt lat="46.21365699025656" lon="6.76553225824909"><ele>1271.0</ele><time>2026-05-01T14:52:27.999Z</time></trkpt><trkpt lat="46.21376712548637" lon="6.765443606869749"><ele>1271.0</ele><time>2026-05-01T14:52:28.999Z</time></trkpt><trkpt lat="46.213887512344655" lon="6.765295736922665"><ele>1271.0</ele><time>2026-05-01T14:52:29.999Z</time></trkpt><trkpt lat="46.21400879573353" lon="6.76512145586267"><ele>1271.0</ele><time>2026-05-01T14:52:30.999Z</time></trkpt><trkpt lat="46.21412125683605" lon="6.7649628578145"><ele>1271.0</ele><time>2026-05-01T14:52:31.999Z</time></trkpt><trkpt lat="46.21422690078126" lon="6.764818387475233"><ele>1271.0</ele><time>2026-05-01T14:52:32.999Z</time></trkpt><trkpt lat="46.21431866453254" lon="6.764676233175462"><ele>1271.0</ele><time>2026-05-01T14:52:33.999Z</time></trkpt><trkpt lat="46.21440987200498" lon="6.764537386042631"><ele>1271.0</ele><time>2026-05-01T14:52:34.999Z</time></trkpt><trkpt lat="46.214495232999" lon="6.764394373026822"><ele>1271.0</ele><time>2026-05-01T14:52:35.999Z</time></trkpt><trkpt lat="46.214577155683884" lon="6.764237236239536"><ele>1271.0</ele><time>2026-05-01T14:52:36.999Z</time></trkpt><trkpt lat="46.21464828187391" lon="6.764066012761423"><ele>1271.0</ele><time>2026-05-01T14:52:37.999Z</time></trkpt><trkpt lat="46.21471476823873" lon="6.763894397557376"><ele>1273.25</ele><time>2026-05-01T14:52:38.999Z</time></trkpt><trkpt lat="46.214777625897376" lon="6.763732449891028"><ele>1275.5</ele><time>2026-05-01T14:52:39.999Z</time></trkpt><trkpt lat="46.214859865984145" lon="6.763619394253044"><ele>1277.75</ele><time>2026-05-01T14:52:40.999Z</time></trkpt><trkpt lat="46.21494203294409" lon="6.763471298736133"><ele>1280.0</ele><time>2026-05-01T14:52:41.999Z</time></trkpt><trkpt lat="46.215034169097855" lon="6.763290265929564"><ele>1274.25</ele><time>2026-05-01T14:52:42.999Z</time></trkpt><trkpt lat="46.215110453919436" lon="6.76311582756242"><ele>1268.5</ele><time>2026-05-01T14:52:43.999Z</time></trkpt><trkpt lat="46.21515442822391" lon="6.762935062948311"><ele>1262.75</ele><time>2026-05-01T14:52:44.999Z</time></trkpt><trkpt lat="46.2152033808733" lon="6.762746978664529"><ele>1257.0</ele><time>2026-05-01T14:52:45.999Z</time></trkpt><trkpt lat="46.21523649338427" lon="6.762569776755372"><ele>1253.0</ele><time>2026-05-01T14:52:46.999Z</time></trkpt><trkpt lat="46.21525261774751" lon="6.762393117843054"><ele>1249.0</ele><time>2026-05-01T14:52:47.999Z</time></trkpt><trkpt lat="46.21527265811153" lon="6.762214873535717"><ele>1245.0</ele><time>2026-05-01T14:52:48.999Z</time></trkpt><trkpt lat="46.21531746797739" lon="6.762051460249625"><ele>1241.0</ele><time>2026-05-01T14:52:49.999Z</time></trkpt><trkpt lat="46.21539828725881" lon="6.761880490269652"><ele>1236.5</ele><time>2026-05-01T14:52:50.999Z</time></trkpt><trkpt lat="46.21546519276415" lon="6.761718024313971"><ele>1232.0</ele><time>2026-05-01T14:52:51.999Z</time></trkpt><trkpt lat="46.21552034334656" lon="6.761557387118063"><ele>1227.5</ele><time>2026-05-01T14:52:52.999Z</time></trkpt><trkpt lat="46.21557594393374" lon="6.761412097530737"><ele>1223.0</ele><time>2026-05-01T14:52:53.999Z</time></trkpt><trkpt lat="46.21560489325777" lon="6.761257139309383"><ele>1223.0</ele><time>2026-05-01T14:52:54.999Z</time></trkpt><trkpt lat="46.21560528919087" lon="6.761119886165131"><ele>1223.0</ele><time>2026-05-01T14:52:55.999Z</time></trkpt><trkpt lat="46.21557540019579" lon="6.760979321613854"><ele>1223.0</ele><time>2026-05-01T14:52:56.999Z</time></trkpt><trkpt lat="46.21553858967802" lon="6.760861974977629"><ele>1223.0</ele><time>2026-05-01T14:52:57.999Z</time></trkpt><trkpt lat="46.21556519226271" lon="6.760742738305192"><ele>1223.0</ele><time>2026-05-01T14:52:58.999Z</time></trkpt><trkpt lat="46.21561164348564" lon="6.760645274814824"><ele>1226.75</ele><time>2026-05-01T14:52:59.999Z</time></trkpt><trkpt lat="46.215683944193906" lon="6.760534603322145"><ele>1230.5</ele><time>2026-05-01T14:53:00.999Z</time></trkpt><trkpt lat="46.215725229274284" lon="6.760378452616295"><ele>1234.25</ele><time>2026-05-01T14:53:01.999Z</time></trkpt><trkpt lat="46.215766919077474" lon="6.7601887302804045"><ele>1238.0</ele><time>2026-05-01T14:53:02.999Z</time></trkpt><trkpt lat="46.21578818379299" lon="6.759963717739356"><ele>1238.0</ele><time>2026-05-01T14:53:03.999Z</time></trkpt><trkpt lat="46.2158086598181" lon="6.759740104609762"><ele>1238.0</ele><time>2026-05-01T14:53:04.999Z</time></trkpt><trkpt lat="46.21582437976057" lon="6.759537062278968"><ele>1238.0</ele><time>2026-05-01T14:53:05.999Z</time></trkpt><trkpt lat="46.21583949440733" lon="6.75932330195212"><ele>1238.0</ele><time>2026-05-01T14:53:06.999Z</time></trkpt><trkpt lat="46.21578345847336" lon="6.759092403649976"><ele>1234.3333333333335</ele><time>2026-05-01T14:53:07.999Z</time></trkpt><trkpt lat="46.21571125824205" lon="6.758853231958162"><ele>1230.6666666666667</ele><time>2026-05-01T14:53:08.999Z</time></trkpt><trkpt lat="46.21561910143135" lon="6.758558147067957"><ele>1227.0</ele><time>2026-05-01T14:53:09.999Z</time></trkpt><trkpt lat="46.21552351362505" lon="6.758243066052673"><ele>1218.3333333333333</ele><time>2026-05-01T14:53:10.999Z</time></trkpt><trkpt lat="46.2154268996726" lon="6.757942790238855"><ele>1209.6666666666665</ele><time>2026-05-01T14:53:11.999Z</time></trkpt><trkpt lat="46.21534095550172" lon="6.7576803651731066"><ele>1201.0</ele><time>2026-05-01T14:53:12.999Z</time></trkpt><trkpt lat="46.215256024616174" lon="6.757418211837155"><ele>1201.0</ele><time>2026-05-01T14:53:13.999Z</time></trkpt><trkpt lat="46.21517258927805" lon="6.757148789648843"><ele>1201.0</ele><time>2026-05-01T14:53:14.999Z</time></trkpt><trkpt lat="46.21508562435452" lon="6.756878455145731"><ele>1201.0</ele><time>2026-05-01T14:53:15.999Z</time></trkpt><trkpt lat="46.215020608557445" lon="6.756620841080213"><ele>1201.6666666666665</ele><time>2026-05-01T14:53:16.999Z</time></trkpt><trkpt lat="46.21497110245946" lon="6.756409040802327"><ele>1202.3333333333333</ele><time>2026-05-01T14:53:17.999Z</time></trkpt><trkpt lat="46.21493483725864" lon="6.756196027287061"><ele>1203.0</ele><time>2026-05-01T14:53:18.999Z</time></trkpt><trkpt lat="46.214910794344064" lon="6.755959799600985"><ele>1204.6666666666667</ele><time>2026-05-01T14:53:19.999Z</time></trkpt><trkpt lat="46.21490488891592" lon="6.7557044548531575"><ele>1206.3333333333335</ele><time>2026-05-01T14:53:20.999Z</time></trkpt><trkpt lat="46.21491978136915" lon="6.755465163391675"><ele>1208.0</ele><time>2026-05-01T14:53:21.999Z</time></trkpt><trkpt lat="46.21496494830154" lon="6.755220103323819"><ele>1206.0</ele><time>2026-05-01T14:53:22.999Z</time></trkpt><trkpt lat="46.21504821336265" lon="6.755009149633367"><ele>1204.0</ele><time>2026-05-01T14:53:23.999Z</time></trkpt><trkpt lat="46.21510240873301" lon="6.754808693852754"><ele>1202.0</ele><time>2026-05-01T14:53:24.999Z</time></trkpt><trkpt lat="46.21522336080946" lon="6.754660381875595"><ele>1202.0</ele><time>2026-05-01T14:53:25.999Z</time></trkpt><trkpt lat="46.21514653583845" lon="6.754399248608835"><ele>1202.0</ele><time>2026-05-01T14:53:26.999Z</time></trkpt><trkpt lat="46.21513116840635" lon="6.754159902569593"><ele>1202.0</ele><time>2026-05-01T14:53:27.999Z</time></trkpt><trkpt lat="46.21512343241567" lon="6.753941104728572"><ele>1198.5</ele><time>2026-05-01T14:53:28.999Z</time></trkpt><trkpt lat="46.21513078453228" lon="6.7537422536097385"><ele>1195.0</ele><time>2026-05-01T14:53:30Z</time></trkpt><trkpt lat="46.21516335782192" lon="6.753558417463998"><ele>1191.5</ele><time>2026-05-01T14:53:31Z</time></trkpt><trkpt lat="46.21521744613118" lon="6.753371402534542"><ele>1188.0</ele><time>2026-05-01T14:53:32Z</time></trkpt><trkpt lat="46.21528041678877" lon="6.753168365731192"><ele>1186.6666666666667</ele><time>2026-05-01T14:53:33Z</time></trkpt><trkpt lat="46.21531334564474" lon="6.752925671610949"><ele>1185.3333333333335</ele><time>2026-05-01T14:53:34Z</time></trkpt><trkpt lat="46.21531028610888" lon="6.752681593977514"><ele>1184.0</ele><time>2026-05-01T14:53:35Z</time></trkpt><trkpt lat="46.21529039166886" lon="6.752417293004277"><ele>1184.0</ele><time>2026-05-01T14:53:36Z</time></trkpt><trkpt lat="46.21527200264427" lon="6.75213456414135"><ele>1184.0</ele><time>2026-05-01T14:53:37Z</time></trkpt><trkpt lat="46.21526839274902" lon="6.751863762207247"><ele>1184.0</ele><time>2026-05-01T14:53:38Z</time></trkpt><trkpt lat="46.21528538483487" lon="6.751603841042553"><ele>1182.6666666666667</ele><time>2026-05-01T14:53:39Z</time></trkpt><trkpt lat="46.21522075685348" lon="6.751347901432551"><ele>1181.3333333333333</ele><time>2026-05-01T14:53:40Z</time></trkpt><trkpt lat="46.21511333242562" lon="6.7510567995941875"><ele>1180.0</ele><time>2026-05-01T14:53:41Z</time></trkpt><trkpt lat="46.21493569622313" lon="6.750790006410826"><ele>1169.0</ele><time>2026-05-01T14:53:42Z</time></trkpt><trkpt lat="46.21479029376195" lon="6.750528093788797"><ele>1158.0</ele><time>2026-05-01T14:53:43Z</time></trkpt><trkpt lat="46.214654308291095" lon="6.750275360619964"><ele>1159.0</ele><time>2026-05-01T14:53:44Z</time></trkpt><trkpt lat="46.21453662182875" lon="6.750023432544442"><ele>1160.0</ele><time>2026-05-01T14:53:45Z</time></trkpt><trkpt lat="46.214472955868565" lon="6.749736253417432"><ele>1161.0</ele><time>2026-05-01T14:53:46Z</time></trkpt><trkpt lat="46.21439950963403" lon="6.749453519337734"><ele>1166.0</ele><time>2026-05-01T14:53:47Z</time></trkpt><trkpt lat="46.21431098226861" lon="6.749167840385402"><ele>1171.0</ele><time>2026-05-01T14:53:48Z</time></trkpt><trkpt lat="46.21417764637846" lon="6.748879164452655"><ele>1171.0</ele><time>2026-05-01T14:53:49Z</time></trkpt><trkpt lat="46.214037075947346" lon="6.7485771658550515"><ele>1171.0</ele><time>2026-05-01T14:53:50Z</time></trkpt><trkpt lat="46.21391456603723" lon="6.748303540322959"><ele>1166.0</ele><time>2026-05-01T14:53:51Z</time></trkpt><trkpt lat="46.2138114330155" lon="6.748072277490634"><ele>1161.0</ele><time>2026-05-01T14:53:52Z</time></trkpt><trkpt lat="46.2137185928073" lon="6.74786532106163"><ele>1156.0</ele><time>2026-05-01T14:53:53Z</time></trkpt><trkpt lat="46.21360169893102" lon="6.747669567150097"><ele>1156.0</ele><time>2026-05-01T14:53:54Z</time></trkpt><trkpt lat="46.213466857647205" lon="6.7474832810366525"><ele>1156.0</ele><time>2026-05-01T14:53:55Z</time></trkpt><trkpt lat="46.213332182113476" lon="6.7473289394443094"><ele>1156.0</ele><time>2026-05-01T14:53:56Z</time></trkpt><trkpt lat="46.213209580580305" lon="6.747199992436192"><ele>1146.3333333333333</ele><time>2026-05-01T14:53:57Z</time></trkpt><trkpt lat="46.213114333040366" lon="6.7470246314664335"><ele>1136.6666666666667</ele><time>2026-05-01T14:53:58Z</time></trkpt><trkpt lat="46.21302543480795" lon="6.746855538227971"><ele>1127.0</ele><time>2026-05-01T14:53:59Z</time></trkpt><trkpt lat="46.21295796462725" lon="6.74660640466492"><ele>1127.0</ele><time>2026-05-01T14:54:00Z</time></trkpt><trkpt lat="46.21286931593101" lon="6.746335682910261"><ele>1127.0</ele><time>2026-05-01T14:54:01Z</time></trkpt><trkpt lat="46.21279848402661" lon="6.746052481920409"><ele>1127.0</ele><time>2026-05-01T14:54:02Z</time></trkpt><trkpt lat="46.212732239063925" lon="6.7457904527667"><ele>1129.75</ele><time>2026-05-01T14:54:03Z</time></trkpt><trkpt lat="46.21266813888668" lon="6.74557139391292"><ele>1132.5</ele><time>2026-05-01T14:54:04Z</time></trkpt><trkpt lat="46.21262091638152" lon="6.7454013096826495"><ele>1135.25</ele><time>2026-05-01T14:54:05Z</time></trkpt><trkpt lat="46.21259362047345" lon="6.745250830435008"><ele>1138.0</ele><time>2026-05-01T14:54:06Z</time></trkpt><trkpt lat="46.21261813407832" lon="6.74509057743302"><ele>1139.0</ele><time>2026-05-01T14:54:07Z</time></trkpt><trkpt lat="46.21263516229223" lon="6.744917205375715"><ele>1140.0</ele><time>2026-05-01T14:54:08Z</time></trkpt><trkpt lat="46.21263905297354" lon="6.744730455126683"><ele>1141.0</ele><time>2026-05-01T14:54:09Z</time></trkpt><trkpt lat="46.21262128807348" lon="6.744512322036483"><ele>1142.0</ele><time>2026-05-01T14:54:10Z</time></trkpt><trkpt lat="46.21257723032081" lon="6.744275722653657"><ele>1142.0</ele><time>2026-05-01T14:54:11Z</time></trkpt><trkpt lat="46.21250702156841" lon="6.744048146935065"><ele>1142.0</ele><time>2026-05-01T14:54:12Z</time></trkpt><trkpt lat="46.21243989814156" lon="6.743845518946242"><ele>1142.0</ele><time>2026-05-01T14:54:13Z</time></trkpt><trkpt lat="46.21242550785491" lon="6.743646218299358"><ele>1143.75</ele><time>2026-05-01T14:54:14Z</time></trkpt><trkpt lat="46.21241074293313" lon="6.743454174883804"><ele>1145.5</ele><time>2026-05-01T14:54:15Z</time></trkpt><trkpt lat="46.21239186917305" lon="6.743264338326142"><ele>1147.25</ele><time>2026-05-01T14:54:16Z</time></trkpt><trkpt lat="46.21235214305265" lon="6.743096433914401"><ele>1149.0</ele><time>2026-05-01T14:54:17Z</time></trkpt><trkpt lat="46.212307547206414" lon="6.742934457367006"><ele>1140.25</ele><time>2026-05-01T14:54:18Z</time></trkpt><trkpt lat="46.2122064022683" lon="6.742820156310842"><ele>1131.5</ele><time>2026-05-01T14:54:19Z</time></trkpt><trkpt lat="46.21210164502311" lon="6.742728462168033"><ele>1122.75</ele><time>2026-05-01T14:54:20Z</time></trkpt><trkpt lat="46.21199479016086" lon="6.742653438124476"><ele>1114.0</ele><time>2026-05-01T14:54:21Z</time></trkpt><trkpt lat="46.21191007044911" lon="6.74252971299681"><ele>1114.0</ele><time>2026-05-01T14:54:22Z</time></trkpt><trkpt lat="46.21187617347373" lon="6.742334781454894"><ele>1114.0</ele><time>2026-05-01T14:54:23Z</time></trkpt><trkpt lat="46.211839899617054" lon="6.742112270422805"><ele>1114.0</ele><time>2026-05-01T14:54:24Z</time></trkpt><trkpt lat="46.21180988766012" lon="6.741833023265872"><ele>1117.0</ele><time>2026-05-01T14:54:25Z</time></trkpt><trkpt lat="46.211769005993865" lon="6.741516571893481"><ele>1120.0</ele><time>2026-05-01T14:54:26Z</time></trkpt><trkpt lat="46.21174035885208" lon="6.741168878284049"><ele>1118.5</ele><time>2026-05-01T14:54:27Z</time></trkpt><trkpt lat="46.21170104788535" lon="6.740833716788386"><ele>1117.0</ele><time>2026-05-01T14:54:28Z</time></trkpt><trkpt lat="46.211665327086095" lon="6.740514621256991"><ele>1117.0</ele><time>2026-05-01T14:54:29Z</time></trkpt><trkpt lat="46.211606692739316" lon="6.740197442587764"><ele>1117.0</ele><time>2026-05-01T14:54:30Z</time></trkpt><trkpt lat="46.211539038112264" lon="6.739836714996769"><ele>1106.5</ele><time>2026-05-01T14:54:31Z</time></trkpt><trkpt lat="46.2114879902423" lon="6.7394708624731"><ele>1096.0</ele><time>2026-05-01T14:54:32Z</time></trkpt><trkpt lat="46.21145501157697" lon="6.7391198802526135"><ele>1094.6666666666665</ele><time>2026-05-01T14:54:33Z</time></trkpt><trkpt lat="46.21142906914526" lon="6.738803680156193"><ele>1093.3333333333333</ele><time>2026-05-01T14:54:34Z</time></trkpt><trkpt lat="46.21140318406646" lon="6.738516750315859"><ele>1092.0</ele><time>2026-05-01T14:54:35Z</time></trkpt><trkpt lat="46.21135091891021" lon="6.738248576250829"><ele>1092.0</ele><time>2026-05-01T14:54:36Z</time></trkpt><trkpt lat="46.21126934482968" lon="6.738003732759345"><ele>1092.0</ele><time>2026-05-01T14:54:37Z</time></trkpt><trkpt lat="46.21118650382052" lon="6.737790932203054"><ele>1092.0</ele><time>2026-05-01T14:54:38Z</time></trkpt><trkpt lat="46.21114935634143" lon="6.737567521884292"><ele>1092.25</ele><time>2026-05-01T14:54:39Z</time></trkpt><trkpt lat="46.21114354664737" lon="6.737391927693279"><ele>1092.5</ele><time>2026-05-01T14:54:40Z</time></trkpt><trkpt lat="46.21115033650559" lon="6.737185862267698"><ele>1092.75</ele><time>2026-05-01T14:54:41Z</time></trkpt><trkpt lat="46.21114874534999" lon="6.736958343327206"><ele>1093.0</ele><time>2026-05-01T14:54:42Z</time></trkpt><trkpt lat="46.21113935769425" lon="6.73670294368225"><ele>1092.6666666666665</ele><time>2026-05-01T14:54:43Z</time></trkpt><trkpt lat="46.21109434253164" lon="6.736427621609774"><ele>1092.3333333333333</ele><time>2026-05-01T14:54:44Z</time></trkpt><trkpt lat="46.211037380517595" lon="6.736130988263865"><ele>1092.0</ele><time>2026-05-01T14:54:45Z</time></trkpt><trkpt lat="46.210983466035145" lon="6.735821941937091"><ele>1092.0</ele><time>2026-05-01T14:54:46Z</time></trkpt><trkpt lat="46.210930294658866" lon="6.73550017580485"><ele>1092.0</ele><time>2026-05-01T14:54:47Z</time></trkpt><trkpt lat="46.21090991732725" lon="6.735159528383974"><ele>1093.0</ele><time>2026-05-01T14:54:48Z</time></trkpt><trkpt lat="46.21087590416861" lon="6.734816680676303"><ele>1094.0</ele><time>2026-05-01T14:54:49Z</time></trkpt><trkpt lat="46.210860156382694" lon="6.734504969122101"><ele>1095.6666666666667</ele><time>2026-05-01T14:54:50Z</time></trkpt><trkpt lat="46.21083496892435" lon="6.734216175796766"><ele>1097.3333333333333</ele><time>2026-05-01T14:54:51Z</time></trkpt><trkpt lat="46.210798490927054" lon="6.733944423194629"><ele>1099.0</ele><time>2026-05-01T14:54:52Z</time></trkpt><trkpt lat="46.210746183699506" lon="6.733643733074051"><ele>1100.0</ele><time>2026-05-01T14:54:53Z</time></trkpt><trkpt lat="46.21068014548641" lon="6.733308182761588"><ele>1101.0</ele><time>2026-05-01T14:54:54Z</time></trkpt><trkpt lat="46.2106067276622" lon="6.732940565671822"><ele>1085.0</ele><time>2026-05-01T14:54:55Z</time></trkpt><trkpt lat="46.21053668349251" lon="6.732603226776345"><ele>1069.0</ele><time>2026-05-01T14:54:56Z</time></trkpt><trkpt lat="46.210476483316086" lon="6.732309862952562"><ele>1069.0</ele><time>2026-05-01T14:54:57Z</time></trkpt><trkpt lat="46.21042606246563" lon="6.732042381981643"><ele>1069.0</ele><time>2026-05-01T14:54:58Z</time></trkpt><trkpt lat="46.210388089904136" lon="6.731778251781164"><ele>1069.0</ele><time>2026-05-01T14:54:59Z</time></trkpt><trkpt lat="46.210368641007285" lon="6.731527239547265"><ele>1070.6666666666665</ele><time>2026-05-01T14:55:00Z</time></trkpt><trkpt lat="46.21037740044295" lon="6.731260169502412"><ele>1072.3333333333333</ele><time>2026-05-01T14:55:01Z</time></trkpt><trkpt lat="46.21042093529133" lon="6.730972664656783"><ele>1074.0</ele><time>2026-05-01T14:55:02Z</time></trkpt><trkpt lat="46.210478278017554" lon="6.730682303852346"><ele>1074.0</ele><time>2026-05-01T14:55:03Z</time></trkpt><trkpt lat="46.210513921613774" lon="6.730390970772892"><ele>1074.0</ele><time>2026-05-01T14:55:04Z</time></trkpt><trkpt lat="46.21051889536781" lon="6.730071966344373"><ele>1074.0</ele><time>2026-05-01T14:55:05Z</time></trkpt><trkpt lat="46.210502759581175" lon="6.729741830365452"><ele>1073.0</ele><time>2026-05-01T14:55:06Z</time></trkpt><trkpt lat="46.21047295774373" lon="6.729417635601862"><ele>1072.0</ele><time>2026-05-01T14:55:07Z</time></trkpt><trkpt lat="46.21043329946095" lon="6.729104126122977"><ele>1071.0</ele><time>2026-05-01T14:55:08Z</time></trkpt><trkpt lat="46.21040164146134" lon="6.728791472489334"><ele>1072.5</ele><time>2026-05-01T14:55:08.999Z</time></trkpt><trkpt lat="46.21038892393765" lon="6.72845315210428"><ele>1074.0</ele><time>2026-05-01T14:55:09.999Z</time></trkpt><trkpt lat="46.21039226848552" lon="6.728058684948937"><ele>1074.5</ele><time>2026-05-01T14:55:10.999Z</time></trkpt><trkpt lat="46.21039761106574" lon="6.727683079482198"><ele>1075.0</ele><time>2026-05-01T14:55:11.999Z</time></trkpt><trkpt lat="46.210397862529106" lon="6.727346727964391"><ele>1075.0</ele><time>2026-05-01T14:55:12.999Z</time></trkpt><trkpt lat="46.210377893925376" lon="6.727036471250271"><ele>1075.0</ele><time>2026-05-01T14:55:13.999Z</time></trkpt><trkpt lat="46.210346378576276" lon="6.726741948515903"><ele>1075.0</ele><time>2026-05-01T14:55:14.999Z</time></trkpt><trkpt lat="46.21031984857219" lon="6.726476932164607"><ele>1074.0</ele><time>2026-05-01T14:55:15.999Z</time></trkpt><trkpt lat="46.210313733373816" lon="6.726223430191404"><ele>1073.0</ele><time>2026-05-01T14:55:16.999Z</time></trkpt><trkpt lat="46.21033010891199" lon="6.725927865140498"><ele>1072.0</ele><time>2026-05-01T14:55:17.999Z</time></trkpt><trkpt lat="46.21036639128379" lon="6.7255911240420305"><ele>1071.0</ele><time>2026-05-01T14:55:18.999Z</time></trkpt><trkpt lat="46.210392832218524" lon="6.7252451536869655"><ele>1070.0</ele><time>2026-05-01T14:55:19.999Z</time></trkpt><trkpt lat="46.21039365782646" lon="6.724937558648679"><ele>1070.0</ele><time>2026-05-01T14:55:20.999Z</time></trkpt><trkpt lat="46.21039268355851" lon="6.724654690360319"><ele>1070.0</ele><time>2026-05-01T14:55:21.999Z</time></trkpt><trkpt lat="46.21039742954259" lon="6.724411653284751"><ele>1070.0</ele><time>2026-05-01T14:55:22.999Z</time></trkpt><trkpt lat="46.210422045862856" lon="6.7241634971083375"><ele>1069.6666666666667</ele><time>2026-05-01T14:55:23.999Z</time></trkpt><trkpt lat="46.210469759250145" lon="6.723897263788672"><ele>1069.3333333333333</ele><time>2026-05-01T14:55:24.999Z</time></trkpt><trkpt lat="46.2105244450825" lon="6.723651480181355"><ele>1069.0</ele><time>2026-05-01T14:55:25.999Z</time></trkpt><trkpt lat="46.21057342503068" lon="6.723430744057556"><ele>1069.25</ele><time>2026-05-01T14:55:26.999Z</time></trkpt><trkpt lat="46.210610730212295" lon="6.723253292378594"><ele>1069.5</ele><time>2026-05-01T14:55:27.999Z</time></trkpt><trkpt lat="46.2106380199397" lon="6.723085258950939"><ele>1069.75</ele><time>2026-05-01T14:55:28.999Z</time></trkpt><trkpt lat="46.210656337871015" lon="6.722899748742639"><ele>1070.0</ele><time>2026-05-01T14:55:29.999Z</time></trkpt><trkpt lat="46.2106506613893" lon="6.722693517464663"><ele>1070.0</ele><time>2026-05-01T14:55:30.999Z</time></trkpt><trkpt lat="46.21061014376663" lon="6.722502016262385"><ele>1070.0</ele><time>2026-05-01T14:55:31.999Z</time></trkpt><trkpt lat="46.21055400955658" lon="6.722339770695377"><ele>1070.0</ele><time>2026-05-01T14:55:32.999Z</time></trkpt><trkpt lat="46.21049758205369" lon="6.722187291898198"><ele>1070.0</ele><time>2026-05-01T14:55:33.999Z</time></trkpt><trkpt lat="46.2104626827949" lon="6.7220502281807075"><ele>1070.0</ele><time>2026-05-01T14:55:34.999Z</time></trkpt><trkpt lat="46.21045056300164" lon="6.721938525942544"><ele>1070.0</ele><time>2026-05-01T14:55:36Z</time></trkpt><trkpt lat="46.210433518433106" lon="6.7217635102756965"><ele>1070.0</ele><time>2026-05-01T14:55:38Z</time></trkpt><trkpt lat="46.21041649892029" lon="6.721675147412037"><ele>1070.0</ele><time>2026-05-01T14:55:39Z</time></trkpt><trkpt lat="46.210371361338076" lon="6.721515158847097"><ele>1070.0</ele><time>2026-05-01T14:55:41Z</time></trkpt><trkpt lat="46.210342445652394" lon="6.721427421239318"><ele>1072.0</ele><time>2026-05-01T14:55:43Z</time></trkpt><trkpt lat="46.210318422295956" lon="6.721333507247882"><ele>1074.0</ele><time>2026-05-01T14:55:46Z</time></trkpt><trkpt lat="46.21022701926365" lon="6.721226718770305"><ele>1076.0</ele><time>2026-05-01T14:56:19Z</time></trkpt><trkpt lat="46.2101534787368" lon="6.721150792210407"><ele>1078.0</ele><time>2026-05-01T14:56:20Z</time></trkpt><trkpt lat="46.21006294743125" lon="6.721053101154216"><ele>1080.0</ele><time>2026-05-01T14:56:21Z</time></trkpt><trkpt lat="46.20996477080052" lon="6.720955302973431"><ele>1078.75</ele><time>2026-05-01T14:56:22Z</time></trkpt><trkpt lat="46.20985302753561" lon="6.720870907696162"><ele>1077.5</ele><time>2026-05-01T14:56:23Z</time></trkpt><trkpt lat="46.209735538459675" lon="6.720791761295818"><ele>1076.25</ele><time>2026-05-01T14:56:24Z</time></trkpt><trkpt lat="46.20961394362953" lon="6.720714186167359"><ele>1075.0</ele><time>2026-05-01T14:56:25Z</time></trkpt><trkpt lat="46.209495468649315" lon="6.720642087343345"><ele>1075.0</ele><time>2026-05-01T14:56:26Z</time></trkpt><trkpt lat="46.209359020874416" lon="6.720552259490446"><ele>1075.0</ele><time>2026-05-01T14:56:27Z</time></trkpt><trkpt lat="46.20923168493961" lon="6.720452789221912"><ele>1075.0</ele><time>2026-05-01T14:56:28Z</time></trkpt><trkpt lat="46.209119809751186" lon="6.720333777120452"><ele>1075.0</ele><time>2026-05-01T14:56:29Z</time></trkpt><trkpt lat="46.20903061820316" lon="6.720185998186636"><ele>1077.3333333333333</ele><time>2026-05-01T14:56:30Z</time></trkpt><trkpt lat="46.20897723919254" lon="6.720016967433025"><ele>1079.6666666666667</ele><time>2026-05-01T14:56:31Z</time></trkpt><trkpt lat="46.20894063492672" lon="6.719812829206573"><ele>1082.0</ele><time>2026-05-01T14:56:32Z</time></trkpt><trkpt lat="46.20890169883077" lon="6.719552108603427"><ele>1085.6666666666667</ele><time>2026-05-01T14:56:33Z</time></trkpt><trkpt lat="46.208882853785234" lon="6.719269205035819"><ele>1089.3333333333333</ele><time>2026-05-01T14:56:34Z</time></trkpt><trkpt lat="46.20883646296239" lon="6.718963994133682"><ele>1093.0</ele><time>2026-05-01T14:56:35Z</time></trkpt><trkpt lat="46.208784084104224" lon="6.718688440309216"><ele>1091.0</ele><time>2026-05-01T14:56:36Z</time></trkpt><trkpt lat="46.20875573198362" lon="6.71848614282116"><ele>1089.0</ele><time>2026-05-01T14:56:37Z</time></trkpt><trkpt lat="46.208737257094114" lon="6.718326946796575"><ele>1087.0</ele><time>2026-05-01T14:56:38Z</time></trkpt><trkpt lat="46.2087173850423" lon="6.718202927844487"><ele>1085.0</ele><time>2026-05-01T14:56:39Z</time></trkpt><trkpt lat="46.20866391555184" lon="6.71805952377744"><ele>1085.0</ele><time>2026-05-01T14:56:40Z</time></trkpt><trkpt lat="46.20858713455372" lon="6.717930756647563"><ele>1085.0</ele><time>2026-05-01T14:56:41Z</time></trkpt><trkpt lat="46.208492248044415" lon="6.71782202092068"><ele>1085.0</ele><time>2026-05-01T14:56:42Z</time></trkpt><trkpt lat="46.208402311664216" lon="6.7177089355273"><ele>1085.0</ele><time>2026-05-01T14:56:43Z</time></trkpt><trkpt lat="46.20838008254817" lon="6.717549437470216"><ele>1083.5</ele><time>2026-05-01T14:56:44Z</time></trkpt><trkpt lat="46.208341703107074" lon="6.717368694339398"><ele>1082.0</ele><time>2026-05-01T14:56:45Z</time></trkpt><trkpt lat="46.20833870503284" lon="6.717187284468743"><ele>1080.5</ele><time>2026-05-01T14:56:46Z</time></trkpt><trkpt lat="46.20830435769604" lon="6.7170166980068"><ele>1079.0</ele><time>2026-05-01T14:56:47Z</time></trkpt><trkpt lat="46.2082283987319" lon="6.7168701846933905"><ele>1074.25</ele><time>2026-05-01T14:56:48Z</time></trkpt><trkpt lat="46.20811904162749" lon="6.716746712228901"><ele>1069.5</ele><time>2026-05-01T14:56:49Z</time></trkpt><trkpt lat="46.20799923233762" lon="6.716662315887748"><ele>1064.75</ele><time>2026-05-01T14:56:50Z</time></trkpt><trkpt lat="46.20784706960923" lon="6.716627982828505"><ele>1060.0</ele><time>2026-05-01T14:56:51Z</time></trkpt><trkpt lat="46.207669997920455" lon="6.716602662909022"><ele>1060.0</ele><time>2026-05-01T14:56:52Z</time></trkpt><trkpt lat="46.20746472561599" lon="6.716560905215141"><ele>1060.0</ele><time>2026-05-01T14:56:53Z</time></trkpt><trkpt lat="46.20727909830507" lon="6.7164800085432566"><ele>1060.0</ele><time>2026-05-01T14:56:54Z</time></trkpt><trkpt lat="46.20711431424251" lon="6.716400712791904"><ele>1059.6666666666665</ele><time>2026-05-01T14:56:55Z</time></trkpt><trkpt lat="46.206958691498144" lon="6.716323610362102"><ele>1059.3333333333333</ele><time>2026-05-01T14:56:56Z</time></trkpt><trkpt lat="46.206825564803935" lon="6.716215336301943"><ele>1059.0</ele><time>2026-05-01T14:56:57Z</time></trkpt><trkpt lat="46.20671659841493" lon="6.716052730168846"><ele>1059.0</ele><time>2026-05-01T14:56:58Z</time></trkpt><trkpt lat="46.20663850337303" lon="6.71580356511207"><ele>1059.0</ele><time>2026-05-01T14:56:59Z</time></trkpt><trkpt lat="46.20652530359481" lon="6.715512068758318"><ele>1059.0</ele><time>2026-05-01T14:57:00Z</time></trkpt><trkpt lat="46.20639633352683" lon="6.715262135803888"><ele>1062.0</ele><time>2026-05-01T14:57:01Z</time></trkpt><trkpt lat="46.206270238203665" lon="6.715040872831256"><ele>1065.0</ele><time>2026-05-01T14:57:02Z</time></trkpt><trkpt lat="46.206131078422736" lon="6.71483112308266"><ele>1068.0</ele><time>2026-05-01T14:57:03Z</time></trkpt><trkpt lat="46.20601206925737" lon="6.714612487316478"><ele>1061.6666666666667</ele><time>2026-05-01T14:57:04Z</time></trkpt><trkpt lat="46.20593581789484" lon="6.714391238980367"><ele>1055.3333333333335</ele><time>2026-05-01T14:57:05Z</time></trkpt><trkpt lat="46.20586510570991" lon="6.714132410876403"><ele>1049.0</ele><time>2026-05-01T14:57:06Z</time></trkpt><trkpt lat="46.205799332248816" lon="6.7138363846743845"><ele>1040.0</ele><time>2026-05-01T14:57:07Z</time></trkpt><trkpt lat="46.20568776029767" lon="6.713547385184742"><ele>1031.0</ele><time>2026-05-01T14:57:08Z</time></trkpt><trkpt lat="46.20553820670864" lon="6.713254673346193"><ele>1039.5</ele><time>2026-05-01T14:57:09Z</time></trkpt><trkpt lat="46.205374663309385" lon="6.712969499112829"><ele>1048.0</ele><time>2026-05-01T14:57:10Z</time></trkpt><trkpt lat="46.20523682592539" lon="6.712709460429973"><ele>1048.0</ele><time>2026-05-01T14:57:11Z</time></trkpt><trkpt lat="46.2051056339109" lon="6.7124531661966484"><ele>1048.0</ele><time>2026-05-01T14:57:12Z</time></trkpt><trkpt lat="46.20498355883367" lon="6.712205780095096"><ele>1048.0</ele><time>2026-05-01T14:57:13Z</time></trkpt><trkpt lat="46.20488209854135" lon="6.711971239486082"><ele>1040.6666666666665</ele><time>2026-05-01T14:57:14Z</time></trkpt><trkpt lat="46.20484616308659" lon="6.7117113546937555"><ele>1033.3333333333333</ele><time>2026-05-01T14:57:15Z</time></trkpt><trkpt lat="46.20481937810027" lon="6.7114447290505"><ele>1026.0</ele><time>2026-05-01T14:57:16Z</time></trkpt><trkpt lat="46.20479301728259" lon="6.711132066460135"><ele>1032.3333333333333</ele><time>2026-05-01T14:57:17Z</time></trkpt><trkpt lat="46.20477017168366" lon="6.71082038474839"><ele>1038.6666666666665</ele><time>2026-05-01T14:57:18Z</time></trkpt><trkpt lat="46.20470330748633" lon="6.7105247424219"><ele>1045.0</ele><time>2026-05-01T14:57:19Z</time></trkpt><trkpt lat="46.204605804684014" lon="6.710234283824541"><ele>1045.0</ele><time>2026-05-01T14:57:20Z</time></trkpt><trkpt lat="46.20447744460839" lon="6.709943713032532"><ele>1045.0</ele><time>2026-05-01T14:57:21Z</time></trkpt><trkpt lat="46.204344017009994" lon="6.70961750630657"><ele>1035.5</ele><time>2026-05-01T14:57:22Z</time></trkpt><trkpt lat="46.2042374336136" lon="6.709303384182931"><ele>1026.0</ele><time>2026-05-01T14:57:23Z</time></trkpt><trkpt lat="46.204142464558274" lon="6.709009594451529"><ele>1026.0</ele><time>2026-05-01T14:57:24Z</time></trkpt><trkpt lat="46.20405279028907" lon="6.7087248190659245"><ele>1026.0</ele><time>2026-05-01T14:57:25Z</time></trkpt><trkpt lat="46.203964904355864" lon="6.708452512381704"><ele>1026.0</ele><time>2026-05-01T14:57:26Z</time></trkpt><trkpt lat="46.2038984106594" lon="6.7081740797058735"><ele>1030.3333333333333</ele><time>2026-05-01T14:57:27Z</time></trkpt><trkpt lat="46.20384118811019" lon="6.707873172882021"><ele>1034.6666666666665</ele><time>2026-05-01T14:57:28Z</time></trkpt><trkpt lat="46.203783714003066" lon="6.707553813871651"><ele>1039.0</ele><time>2026-05-01T14:57:29Z</time></trkpt><trkpt lat="46.20372856806443" lon="6.70727635680839"><ele>1039.0</ele><time>2026-05-01T14:57:30Z</time></trkpt><trkpt lat="46.20364823029698" lon="6.707012901560616"><ele>1039.0</ele><time>2026-05-01T14:57:31Z</time></trkpt><trkpt lat="46.20357368981724" lon="6.706756645840183"><ele>1039.0</ele><time>2026-05-01T14:57:31.999Z</time></trkpt><trkpt lat="46.20351982343545" lon="6.706499867784045"><ele>1043.0</ele><time>2026-05-01T14:57:32.999Z</time></trkpt><trkpt lat="46.203446076767314" lon="6.706234492824494"><ele>1047.0</ele><time>2026-05-01T14:57:33.999Z</time></trkpt><trkpt lat="46.203317664203176" lon="6.705956847587698"><ele>1051.0</ele><time>2026-05-01T14:57:34.999Z</time></trkpt><trkpt lat="46.203159309426525" lon="6.705651761432074"><ele>1051.0</ele><time>2026-05-01T14:57:35.999Z</time></trkpt><trkpt lat="46.20299632179453" lon="6.705311957504102"><ele>1051.0</ele><time>2026-05-01T14:57:36.999Z</time></trkpt><trkpt lat="46.2028338767726" lon="6.704984962010901"><ele>1033.5</ele><time>2026-05-01T14:57:37.999Z</time></trkpt><trkpt lat="46.20267659969344" lon="6.704684098898294"><ele>1016.0</ele><time>2026-05-01T14:57:38.999Z</time></trkpt><trkpt lat="46.20251325158069" lon="6.704396302978388"><ele>1019.0</ele><time>2026-05-01T14:57:39.999Z</time></trkpt><trkpt lat="46.20238993649549" lon="6.704176186372222"><ele>1022.0</ele><time>2026-05-01T14:57:40.999Z</time></trkpt><trkpt lat="46.20228546696336" lon="6.70398785039419"><ele>1025.0</ele><time>2026-05-01T14:57:42Z</time></trkpt><trkpt lat="46.20222086939516" lon="6.703751229612853"><ele>1019.0</ele><time>2026-05-01T14:57:43Z</time></trkpt><trkpt lat="46.2021762291142" lon="6.703480527791996"><ele>1013.0</ele><time>2026-05-01T14:57:44Z</time></trkpt><trkpt lat="46.20216824081306" lon="6.703173695424455"><ele>1007.0</ele><time>2026-05-01T14:57:45Z</time></trkpt><trkpt lat="46.202147888332775" lon="6.702861782541712"><ele>1001.6666666666667</ele><time>2026-05-01T14:57:46Z</time></trkpt><trkpt lat="46.20211480833541" lon="6.702578089788013"><ele>996.3333333333333</ele><time>2026-05-01T14:57:47Z</time></trkpt><trkpt lat="46.202005169177596" lon="6.702291205623125"><ele>991.0</ele><time>2026-05-01T14:57:48Z</time></trkpt><trkpt lat="46.20189656804524" lon="6.701990046300156"><ele>985.0</ele><time>2026-05-01T14:57:49Z</time></trkpt><trkpt lat="46.201795240191416" lon="6.701639409381405"><ele>979.0</ele><time>2026-05-01T14:57:50Z</time></trkpt><trkpt lat="46.20173048704535" lon="6.701261953074517"><ele>975.0</ele><time>2026-05-01T14:57:51Z</time></trkpt><trkpt lat="46.2016694023459" lon="6.700908305833116"><ele>971.0</ele><time>2026-05-01T14:57:52Z</time></trkpt><trkpt lat="46.20159196993745" lon="6.700605000708377"><ele>971.6666666666667</ele><time>2026-05-01T14:57:53Z</time></trkpt><trkpt lat="46.20149589635595" lon="6.700314576842821"><ele>972.3333333333333</ele><time>2026-05-01T14:57:54Z</time></trkpt><trkpt lat="46.20138611899115" lon="6.700036657100643"><ele>973.0</ele><time>2026-05-01T14:57:55Z</time></trkpt><trkpt lat="46.201277735378575" lon="6.699763362872278"><ele>973.0</ele><time>2026-05-01T14:57:56Z</time></trkpt><trkpt lat="46.201168301544044" lon="6.699484922792988"><ele>973.0</ele><time>2026-05-01T14:57:57Z</time></trkpt><trkpt lat="46.20104646123074" lon="6.699167139129475"><ele>969.0</ele><time>2026-05-01T14:57:58Z</time></trkpt><trkpt lat="46.20093143848286" lon="6.6988587230986525"><ele>965.0</ele><time>2026-05-01T14:57:59Z</time></trkpt><trkpt lat="46.200821377433634" lon="6.698569889818486"><ele>961.6666666666667</ele><time>2026-05-01T14:58:00Z</time></trkpt><trkpt lat="46.20071575233884" lon="6.69830424294834"><ele>958.3333333333333</ele><time>2026-05-01T14:58:01Z</time></trkpt><trkpt lat="46.20061598199438" lon="6.698044897830759"><ele>955.0</ele><time>2026-05-01T14:58:02Z</time></trkpt><trkpt lat="46.20052410469266" lon="6.697801486734281"><ele>956.6666666666666</ele><time>2026-05-01T14:58:03Z</time></trkpt><trkpt lat="46.200439209082084" lon="6.697577451302615"><ele>958.3333333333333</ele><time>2026-05-01T14:58:04Z</time></trkpt><trkpt lat="46.20036037224114" lon="6.697376866277988"><ele>960.0</ele><time>2026-05-01T14:58:05Z</time></trkpt><trkpt lat="46.20028857748272" lon="6.69718559019095"><ele>960.0</ele><time>2026-05-01T14:58:06Z</time></trkpt><trkpt lat="46.20022259102435" lon="6.697007522087062"><ele>960.0</ele><time>2026-05-01T14:58:07Z</time></trkpt><trkpt lat="46.20017203960159" lon="6.696842993953568"><ele>960.0</ele><time>2026-05-01T14:58:08Z</time></trkpt><trkpt lat="46.20012452989557" lon="6.696658734036882"><ele>960.0</ele><time>2026-05-01T14:58:09Z</time></trkpt><trkpt lat="46.20006403476436" lon="6.69648271387013"><ele>956.6666666666667</ele><time>2026-05-01T14:58:10Z</time></trkpt><trkpt lat="46.19998254585235" lon="6.696302125261222"><ele>953.3333333333334</ele><time>2026-05-01T14:58:11Z</time></trkpt><trkpt lat="46.19988722036203" lon="6.6960990510184875"><ele>950.0</ele><time>2026-05-01T14:58:12Z</time></trkpt><trkpt lat="46.199792720404375" lon="6.695872967770099"><ele>947.0</ele><time>2026-05-01T14:58:13Z</time></trkpt><trkpt lat="46.19969566829963" lon="6.695623894051471"><ele>944.0</ele><time>2026-05-01T14:58:14Z</time></trkpt><trkpt lat="46.19960949043229" lon="6.695372657786238"><ele>941.0</ele><time>2026-05-01T14:58:15Z</time></trkpt><trkpt lat="46.19951839195024" lon="6.695145655706064"><ele>941.0</ele><time>2026-05-01T14:58:16Z</time></trkpt><trkpt lat="46.199435192569034" lon="6.694931579401575"><ele>941.0</ele><time>2026-05-01T14:58:17Z</time></trkpt><trkpt lat="46.199355955791724" lon="6.69473512421467"><ele>941.0</ele><time>2026-05-01T14:58:18Z</time></trkpt><trkpt lat="46.199283910114104" lon="6.694544884111052"><ele>941.0</ele><time>2026-05-01T14:58:19Z</time></trkpt><trkpt lat="46.199226170911466" lon="6.6943763805701435"><ele>940.9999999999999</ele><time>2026-05-01T14:58:20Z</time></trkpt><trkpt lat="46.199175143828555" lon="6.694223523859402"><ele>940.9999999999999</ele><time>2026-05-01T14:58:21Z</time></trkpt><trkpt lat="46.1991213715054" lon="6.69408248042991"><ele>941.0</ele><time>2026-05-01T14:58:22Z</time></trkpt><trkpt lat="46.19907772165931" lon="6.6939758187898954"><ele>941.0</ele><time>2026-05-01T14:58:23Z</time></trkpt><trkpt lat="46.199025161861265" lon="6.693871874474753"><ele>941.5999999999999</ele><time>2026-05-01T14:58:25Z</time></trkpt><trkpt lat="46.19898497378834" lon="6.693767755703216"><ele>942.1999999999999</ele><time>2026-05-01T14:58:29Z</time></trkpt><trkpt lat="46.19890540105571" lon="6.69368149387037"><ele>942.8000000000001</ele><time>2026-05-01T14:58:31Z</time></trkpt><trkpt lat="46.19879469362707" lon="6.693731479128268"><ele>943.4000000000001</ele><time>2026-05-01T14:58:33Z</time></trkpt><trkpt lat="46.198718436556014" lon="6.693827886406164"><ele>944.0</ele><time>2026-05-01T14:58:34Z</time></trkpt><trkpt lat="46.198618458040535" lon="6.6939312779731495"><ele>944.0</ele><time>2026-05-01T14:58:35Z</time></trkpt><trkpt lat="46.198493791059036" lon="6.694006646562388"><ele>944.0</ele><time>2026-05-01T14:58:36Z</time></trkpt><trkpt lat="46.19833661788804" lon="6.694072702936167"><ele>944.0</ele><time>2026-05-01T14:58:37Z</time></trkpt><trkpt lat="46.19817695531693" lon="6.694131040359082"><ele>944.25</ele><time>2026-05-01T14:58:38Z</time></trkpt><trkpt lat="46.19803608092478" lon="6.694178653558767"><ele>944.5</ele><time>2026-05-01T14:58:39Z</time></trkpt><trkpt lat="46.19791324080022" lon="6.694203690834419"><ele>944.75</ele><time>2026-05-01T14:58:40Z</time></trkpt><trkpt lat="46.197796359681824" lon="6.694201911552846"><ele>945.0</ele><time>2026-05-01T14:58:41Z</time></trkpt><trkpt lat="46.19768908636717" lon="6.69418969132043"><ele>945.0</ele><time>2026-05-01T14:58:42Z</time></trkpt><trkpt lat="46.19759170538077" lon="6.694187021083448"><ele>945.0</ele><time>2026-05-01T14:58:43Z</time></trkpt><trkpt lat="46.19749913454996" lon="6.694187052121781"><ele>945.0</ele><time>2026-05-01T14:58:44Z</time></trkpt><trkpt lat="46.19741124568446" lon="6.6941931834780215"><ele>945.0</ele><time>2026-05-01T14:58:45Z</time></trkpt><trkpt lat="46.19734109338261" lon="6.6942009700841005"><ele>945.0</ele><time>2026-05-01T14:58:46Z</time></trkpt><trkpt lat="46.19727162725214" lon="6.694204432587623"><ele>945.0</ele><time>2026-05-01T14:58:47Z</time></trkpt><trkpt lat="46.19719468744659" lon="6.694141780056807"><ele>944.6</ele><time>2026-05-01T14:58:49Z</time></trkpt><trkpt lat="46.19717572262419" lon="6.694033953816"><ele>944.2</ele><time>2026-05-01T14:58:52Z</time></trkpt><trkpt lat="46.19717703583854" lon="6.6939083649420965"><ele>943.8</ele><time>2026-05-01T14:59:02Z</time></trkpt><trkpt lat="46.19722708718709" lon="6.6937856480681885"><ele>943.4</ele><time>2026-05-01T14:59:03Z</time></trkpt><trkpt lat="46.19728154319514" lon="6.693662315275288"><ele>943.0</ele><time>2026-05-01T14:59:04Z</time></trkpt><trkpt lat="46.19734019844119" lon="6.693494716766756"><ele>941.0</ele><time>2026-05-01T14:59:05Z</time></trkpt><trkpt lat="46.197401158366276" lon="6.693326318352541"><ele>939.0</ele><time>2026-05-01T14:59:06Z</time></trkpt><trkpt lat="46.19747660777596" lon="6.693129410890925"><ele>937.0</ele><time>2026-05-01T14:59:07Z</time></trkpt><trkpt lat="46.197552125351855" lon="6.692932805186415"><ele>935.0</ele><time>2026-05-01T14:59:08Z</time></trkpt><trkpt lat="46.19764479282222" lon="6.692732546122556"><ele>932.0</ele><time>2026-05-01T14:59:09Z</time></trkpt><trkpt lat="46.19775116999997" lon="6.692526378161844"><ele>929.0</ele><time>2026-05-01T14:59:10Z</time></trkpt><trkpt lat="46.19787040083796" lon="6.692322836823543"><ele>926.0</ele><time>2026-05-01T14:59:11Z</time></trkpt><trkpt lat="46.197991235855056" lon="6.692092945344632"><ele>926.6666666666667</ele><time>2026-05-01T14:59:12Z</time></trkpt><trkpt lat="46.19810440754351" lon="6.691887166026161"><ele>927.3333333333333</ele><time>2026-05-01T14:59:13Z</time></trkpt><trkpt lat="46.19820665581735" lon="6.691674382178224"><ele>928.0</ele><time>2026-05-01T14:59:14Z</time></trkpt><trkpt lat="46.19828863153512" lon="6.691453598201848"><ele>928.0</ele><time>2026-05-01T14:59:15Z</time></trkpt><trkpt lat="46.198383396608044" lon="6.691251707830054"><ele>928.0</ele><time>2026-05-01T14:59:16Z</time></trkpt><trkpt lat="46.19847092616621" lon="6.691069119746842"><ele>928.0</ele><time>2026-05-01T14:59:17Z</time></trkpt><trkpt lat="46.198570940232976" lon="6.690923172748589"><ele>923.75</ele><time>2026-05-01T14:59:18Z</time></trkpt><trkpt lat="46.198665870487545" lon="6.6907809968939835"><ele>919.5</ele><time>2026-05-01T14:59:19Z</time></trkpt><trkpt lat="46.19875924610588" lon="6.6906298009829905"><ele>915.25</ele><time>2026-05-01T14:59:20Z</time></trkpt><trkpt lat="46.198829103226444" lon="6.690461293390095"><ele>911.0</ele><time>2026-05-01T14:59:21Z</time></trkpt><trkpt lat="46.19890087648739" lon="6.6902972702230965"><ele>910.5</ele><time>2026-05-01T14:59:22Z</time></trkpt><trkpt lat="46.19896550970387" lon="6.690145355540557"><ele>910.0</ele><time>2026-05-01T14:59:23Z</time></trkpt><trkpt lat="46.19902482566989" lon="6.690000021912427"><ele>909.5</ele><time>2026-05-01T14:59:24Z</time></trkpt><trkpt lat="46.19908594515856" lon="6.6898698027241466"><ele>909.0</ele><time>2026-05-01T14:59:25Z</time></trkpt><trkpt lat="46.19918477044693" lon="6.689806647404857"><ele>909.0</ele><time>2026-05-01T14:59:26Z</time></trkpt><trkpt lat="46.19926778674059" lon="6.689700922065193"><ele>909.0000000000001</ele><time>2026-05-01T14:59:26.999Z</time></trkpt><trkpt lat="46.19934702207496" lon="6.689594458928068"><ele>909.0000000000001</ele><time>2026-05-01T14:59:27.999Z</time></trkpt><trkpt lat="46.199404571380846" lon="6.689500519514919"><ele>909.0</ele><time>2026-05-01T14:59:28.999Z</time></trkpt><trkpt lat="46.19946829856326" lon="6.689416139873397"><ele>909.0</ele><time>2026-05-01T14:59:29.999Z</time></trkpt><trkpt lat="46.19954737858443" lon="6.6893840451981434"><ele>909.0</ele><time>2026-05-01T14:59:30.999Z</time></trkpt><trkpt lat="46.19961726586431" lon="6.689346178693017"><ele>909.0000000000001</ele><time>2026-05-01T14:59:31.999Z</time></trkpt><trkpt lat="46.19969846608209" lon="6.689435734491198"><ele>909.0000000000001</ele><time>2026-05-01T14:59:32.999Z</time></trkpt><trkpt lat="46.1997990776919" lon="6.689490445554073"><ele>909.0</ele><time>2026-05-01T14:59:33.999Z</time></trkpt><trkpt lat="46.199910121101794" lon="6.689532328184039"><ele>909.0</ele><time>2026-05-01T14:59:34.999Z</time></trkpt><trkpt lat="46.20001199577065" lon="6.689572702243496"><ele>907.6</ele><time>2026-05-01T14:59:35.999Z</time></trkpt><trkpt lat="46.200100293527235" lon="6.689606374455094"><ele>906.2</ele><time>2026-05-01T14:59:36.999Z</time></trkpt><trkpt lat="46.200186772618856" lon="6.689593625317068"><ele>904.8000000000001</ele><time>2026-05-01T14:59:37.999Z</time></trkpt><trkpt lat="46.200274342565876" lon="6.689503725988103"><ele>903.4000000000001</ele><time>2026-05-01T14:59:38.999Z</time></trkpt><trkpt lat="46.200315415668506" lon="6.689312937715932"><ele>902.0</ele><time>2026-05-01T14:59:39.999Z</time></trkpt><trkpt lat="46.20034497059205" lon="6.68913493513426"><ele>900.3333333333334</ele><time>2026-05-01T14:59:40.999Z</time></trkpt><trkpt lat="46.20034726511333" lon="6.688922083989654"><ele>898.6666666666667</ele><time>2026-05-01T14:59:41.999Z</time></trkpt><trkpt lat="46.20036977804443" lon="6.688671422698593"><ele>897.0</ele><time>2026-05-01T14:59:42.999Z</time></trkpt><trkpt lat="46.20044653158926" lon="6.688400539854407"><ele>896.0</ele><time>2026-05-01T14:59:43.999Z</time></trkpt><trkpt lat="46.200532596015925" lon="6.688119526458929"><ele>895.0</ele><time>2026-05-01T14:59:44.999Z</time></trkpt><trkpt lat="46.20059290342647" lon="6.6878771278618885"><ele>894.0</ele><time>2026-05-01T14:59:45.999Z</time></trkpt><trkpt lat="46.20062699071366" lon="6.687638663143147"><ele>894.0</ele><time>2026-05-01T14:59:46.999Z</time></trkpt><trkpt lat="46.2006594793672" lon="6.68742914184251"><ele>894.0</ele><time>2026-05-01T14:59:48Z</time></trkpt><trkpt lat="46.20069233392093" lon="6.6872373691298375"><ele>894.0</ele><time>2026-05-01T14:59:49Z</time></trkpt><trkpt lat="46.2007345753854" lon="6.687018726727501"><ele>894.0</ele><time>2026-05-01T14:59:50Z</time></trkpt><trkpt lat="46.200771490450954" lon="6.686796928911006"><ele>894.0</ele><time>2026-05-01T14:59:51Z</time></trkpt><trkpt lat="46.20081295233676" lon="6.686584533929369"><ele>894.0</ele><time>2026-05-01T14:59:52Z</time></trkpt><trkpt lat="46.200850487197116" lon="6.686345968809839"><ele>894.0</ele><time>2026-05-01T14:59:53Z</time></trkpt><trkpt lat="46.20088677897094" lon="6.686124166249219"><ele>893.75</ele><time>2026-05-01T14:59:54Z</time></trkpt><trkpt lat="46.200926161582665" lon="6.685916830189162"><ele>893.5</ele><time>2026-05-01T14:59:55Z</time></trkpt><trkpt lat="46.200962549143" lon="6.685725486555467"><ele>893.25</ele><time>2026-05-01T14:59:56Z</time></trkpt><trkpt lat="46.20099702758145" lon="6.6855432157457"><ele>893.0</ele><time>2026-05-01T14:59:57Z</time></trkpt><trkpt lat="46.201032555740305" lon="6.68538018245758"><ele>893.5</ele><time>2026-05-01T14:59:58Z</time></trkpt><trkpt lat="46.201066811168545" lon="6.685220433954606"><ele>894.0</ele><time>2026-05-01T14:59:59Z</time></trkpt><trkpt lat="46.20110673128741" lon="6.6850522953023335"><ele>894.5</ele><time>2026-05-01T15:00:00Z</time></trkpt><trkpt lat="46.201154302110496" lon="6.684896875676844"><ele>895.0</ele><time>2026-05-01T15:00:01Z</time></trkpt><trkpt lat="46.20120647900286" lon="6.684749995977586"><ele>895.0</ele><time>2026-05-01T15:00:02Z</time></trkpt><trkpt lat="46.20125333531428" lon="6.684612312378681"><ele>895.0</ele><time>2026-05-01T15:00:03Z</time></trkpt><trkpt lat="46.20129074472585" lon="6.6844694151512245"><ele>895.0</ele><time>2026-05-01T15:00:04Z</time></trkpt><trkpt lat="46.201336023655564" lon="6.684313968047735"><ele>895.0</ele><time>2026-05-01T15:00:05Z</time></trkpt><trkpt lat="46.20139004255077" lon="6.684168784278126"><ele>895.0</ele><time>2026-05-01T15:00:06Z</time></trkpt><trkpt lat="46.201454612993885" lon="6.684049032430169"><ele>895.25</ele><time>2026-05-01T15:00:07Z</time></trkpt><trkpt lat="46.20154107233104" lon="6.68394348901634"><ele>895.5</ele><time>2026-05-01T15:00:08Z</time></trkpt><trkpt lat="46.201645001533564" lon="6.683856801334894"><ele>895.75</ele><time>2026-05-01T15:00:09Z</time></trkpt><trkpt lat="46.201741015313274" lon="6.683775114634049"><ele>896.0</ele><time>2026-05-01T15:00:10Z</time></trkpt><trkpt lat="46.201819879235345" lon="6.683672596280409"><ele>894.8</ele><time>2026-05-01T15:00:11Z</time></trkpt><trkpt lat="46.201885860862966" lon="6.683566483304892"><ele>893.5999999999999</ele><time>2026-05-01T15:00:12Z</time></trkpt><trkpt lat="46.20195623897506" lon="6.683457092477309"><ele>892.4</ele><time>2026-05-01T15:00:13Z</time></trkpt><trkpt lat="46.20204549548592" lon="6.683366125540348"><ele>891.2</ele><time>2026-05-01T15:00:14Z</time></trkpt><trkpt lat="46.202143420101635" lon="6.683273309200061"><ele>890.0</ele><time>2026-05-01T15:00:15Z</time></trkpt><trkpt lat="46.202236493149556" lon="6.683199546538741"><ele>890.0</ele><time>2026-05-01T15:00:16Z</time></trkpt><trkpt lat="46.20232262192411" lon="6.683115983720781"><ele>890.0</ele><time>2026-05-01T15:00:17Z</time></trkpt><trkpt lat="46.20240244630225" lon="6.682990823096482"><ele>890.0</ele><time>2026-05-01T15:00:18Z</time></trkpt><trkpt lat="46.2024673625802" lon="6.682839267275389"><ele>890.0</ele><time>2026-05-01T15:00:19Z</time></trkpt><trkpt lat="46.20250364526845" lon="6.682647469291157"><ele>890.6666666666667</ele><time>2026-05-01T15:00:20Z</time></trkpt><trkpt lat="46.20251746862709" lon="6.6824409950121275"><ele>891.3333333333333</ele><time>2026-05-01T15:00:21Z</time></trkpt><trkpt lat="46.20253521331621" lon="6.6822165544093535"><ele>892.0</ele><time>2026-05-01T15:00:22Z</time></trkpt><trkpt lat="46.20257713467405" lon="6.681972770314417"><ele>892.0</ele><time>2026-05-01T15:00:23Z</time></trkpt><trkpt lat="46.20262524072966" lon="6.681724278868984"><ele>892.0</ele><time>2026-05-01T15:00:24Z</time></trkpt><trkpt lat="46.20267285400049" lon="6.681469107283576"><ele>892.0</ele><time>2026-05-01T15:00:25Z</time></trkpt><trkpt lat="46.202712947271145" lon="6.6812352164210775"><ele>892.0</ele><time>2026-05-01T15:00:26Z</time></trkpt><trkpt lat="46.20275825222344" lon="6.680998863416621"><ele>892.0</ele><time>2026-05-01T15:00:27Z</time></trkpt><trkpt lat="46.20280281386347" lon="6.6807708472114955"><ele>892.0</ele><time>2026-05-01T15:00:28Z</time></trkpt><trkpt lat="46.20284352393417" lon="6.680552745250694"><ele>892.0</ele><time>2026-05-01T15:00:29Z</time></trkpt><trkpt lat="46.20286992976757" lon="6.680339442686776"><ele>892.0</ele><time>2026-05-01T15:00:30Z</time></trkpt><trkpt lat="46.20286828329494" lon="6.680090313954407"><ele>892.0</ele><time>2026-05-01T15:00:31Z</time></trkpt><trkpt lat="46.20285433150967" lon="6.679829083744704"><ele>891.6666666666666</ele><time>2026-05-01T15:00:32Z</time></trkpt><trkpt lat="46.20285138918594" lon="6.679573396748656"><ele>891.3333333333333</ele><time>2026-05-01T15:00:33Z</time></trkpt><trkpt lat="46.20291405871739" lon="6.67934436056024"><ele>891.0</ele><time>2026-05-01T15:00:34Z</time></trkpt><trkpt lat="46.20297339181944" lon="6.679101002298698"><ele>890.3333333333333</ele><time>2026-05-01T15:00:35Z</time></trkpt><trkpt lat="46.20302634314831" lon="6.678873556068657"><ele>889.6666666666666</ele><time>2026-05-01T15:00:36Z</time></trkpt><trkpt lat="46.203131034539155" lon="6.678688550453006"><ele>889.0</ele><time>2026-05-01T15:00:37Z</time></trkpt><trkpt lat="46.20326173269521" lon="6.67851516338972"><ele>890.3333333333333</ele><time>2026-05-01T15:00:38Z</time></trkpt><trkpt lat="46.203421485994284" lon="6.678354877612772"><ele>891.6666666666667</ele><time>2026-05-01T15:00:39Z</time></trkpt><trkpt lat="46.20355991743432" lon="6.678194281749386"><ele>893.0</ele><time>2026-05-01T15:00:40Z</time></trkpt><trkpt lat="46.2036762767267" lon="6.678046340317434"><ele>893.0</ele><time>2026-05-01T15:00:41Z</time></trkpt><trkpt lat="46.20375705435369" lon="6.677862893583175"><ele>893.0</ele><time>2026-05-01T15:00:42Z</time></trkpt><trkpt lat="46.2038053364767" lon="6.677644162343055"><ele>893.0</ele><time>2026-05-01T15:00:43Z</time></trkpt><trkpt lat="46.20381357923341" lon="6.677419989883418"><ele>891.5</ele><time>2026-05-01T15:00:44Z</time></trkpt><trkpt lat="46.203811894562975" lon="6.677207934034557"><ele>890.0</ele><time>2026-05-01T15:00:45Z</time></trkpt><trkpt lat="46.20384682705667" lon="6.6770136753022955"><ele>888.5</ele><time>2026-05-01T15:00:46Z</time></trkpt><trkpt lat="46.203924170564676" lon="6.676817748760182"><ele>887.0</ele><time>2026-05-01T15:00:47Z</time></trkpt><trkpt lat="46.204046228076955" lon="6.676639092157698"><ele>887.0</ele><time>2026-05-01T15:00:48Z</time></trkpt><trkpt lat="46.20420325518461" lon="6.676530436292386"><ele>887.0</ele><time>2026-05-01T15:00:49Z</time></trkpt><trkpt lat="46.204384281405474" lon="6.676424056470209"><ele>887.0</ele><time>2026-05-01T15:00:50Z</time></trkpt><trkpt lat="46.20457241082476" lon="6.67628545607851"><ele>887.0</ele><time>2026-05-01T15:00:51Z</time></trkpt><trkpt lat="46.204788351190324" lon="6.676161797121121"><ele>887.0</ele><time>2026-05-01T15:00:52Z</time></trkpt><trkpt lat="46.20500663226579" lon="6.6760308061124105"><ele>883.0</ele><time>2026-05-01T15:00:53Z</time></trkpt><trkpt lat="46.20523318357894" lon="6.6758933929717195"><ele>879.0</ele><time>2026-05-01T15:00:54Z</time></trkpt><trkpt lat="46.20544511928855" lon="6.675762534067822"><ele>879.0</ele><time>2026-05-01T15:00:55Z</time></trkpt><trkpt lat="46.20563510156248" lon="6.675640955854625"><ele>879.0</ele><time>2026-05-01T15:00:56Z</time></trkpt><trkpt lat="46.205811428146774" lon="6.675522938158776"><ele>879.0</ele><time>2026-05-01T15:00:57Z</time></trkpt><trkpt lat="46.20597453811451" lon="6.675414834738257"><ele>879.6666666666667</ele><time>2026-05-01T15:00:58Z</time></trkpt><trkpt lat="46.20611907424209" lon="6.6753150125363465"><ele>880.3333333333334</ele><time>2026-05-01T15:00:59Z</time></trkpt><trkpt lat="46.206263716135986" lon="6.675216897440227"><ele>881.0</ele><time>2026-05-01T15:01:00Z</time></trkpt><trkpt lat="46.2063993828349" lon="6.675125682442757"><ele>878.75</ele><time>2026-05-01T15:01:01Z</time></trkpt><trkpt lat="46.20653959656698" lon="6.675037541318951"><ele>876.5</ele><time>2026-05-01T15:01:02Z</time></trkpt><trkpt lat="46.20667317886654" lon="6.674948135580258"><ele>874.25</ele><time>2026-05-01T15:01:03Z</time></trkpt><trkpt lat="46.206799057312814" lon="6.674869705347866"><ele>872.0</ele><time>2026-05-01T15:01:04Z</time></trkpt><trkpt lat="46.206910685916334" lon="6.6747969960328435"><ele>872.0</ele><time>2026-05-01T15:01:05Z</time></trkpt><trkpt lat="46.207014668421614" lon="6.674735389905006"><ele>872.0</ele><time>2026-05-01T15:01:06Z</time></trkpt><trkpt lat="46.20711364007671" lon="6.674688790447925"><ele>872.0</ele><time>2026-05-01T15:01:07Z</time></trkpt><trkpt lat="46.20721430596301" lon="6.674674388401677"><ele>872.0</ele><time>2026-05-01T15:01:08Z</time></trkpt><trkpt lat="46.20730298464383" lon="6.674638715596914"><ele>872.0</ele><time>2026-05-01T15:01:09Z</time></trkpt><trkpt lat="46.20738671417216" lon="6.674549071789549"><ele>870.75</ele><time>2026-05-01T15:01:10Z</time></trkpt><trkpt lat="46.207476159155476" lon="6.674432796439972"><ele>869.5</ele><time>2026-05-01T15:01:11Z</time></trkpt><trkpt lat="46.20759328986349" lon="6.674338864173264"><ele>868.25</ele><time>2026-05-01T15:01:12Z</time></trkpt><trkpt lat="46.20772182520885" lon="6.674264209118621"><ele>867.0</ele><time>2026-05-01T15:01:13Z</time></trkpt><trkpt lat="46.207859183600576" lon="6.6741693908864645"><ele>867.0</ele><time>2026-05-01T15:01:14Z</time></trkpt><trkpt lat="46.2079984663974" lon="6.674063514904398"><ele>867.0</ele><time>2026-05-01T15:01:15Z</time></trkpt><trkpt lat="46.20814927973973" lon="6.673947976747299"><ele>867.0</ele><time>2026-05-01T15:01:16Z</time></trkpt><trkpt lat="46.20830078919253" lon="6.673830832953694"><ele>866.6666666666667</ele><time>2026-05-01T15:01:17Z</time></trkpt><trkpt lat="46.208451970719004" lon="6.673709877369084"><ele>866.3333333333334</ele><time>2026-05-01T15:01:17.999Z</time></trkpt><trkpt lat="46.208593186777655" lon="6.6736026046855015"><ele>866.0</ele><time>2026-05-01T15:01:18.999Z</time></trkpt><trkpt lat="46.20873357011869" lon="6.6734974379996865"><ele>865.0</ele><time>2026-05-01T15:01:19.999Z</time></trkpt><trkpt lat="46.20886732010757" lon="6.673425457478964"><ele>864.0</ele><time>2026-05-01T15:01:20.999Z</time></trkpt><trkpt lat="46.209001377190816" lon="6.673333409744704"><ele>863.0</ele><time>2026-05-01T15:01:21.999Z</time></trkpt><trkpt lat="46.209155921983545" lon="6.673238015069292"><ele>863.0</ele><time>2026-05-01T15:01:22.999Z</time></trkpt><trkpt lat="46.2093191427809" lon="6.673142723158041"><ele>863.0</ele><time>2026-05-01T15:01:23.999Z</time></trkpt><trkpt lat="46.20947597573959" lon="6.673028455223594"><ele>863.0</ele><time>2026-05-01T15:01:24.999Z</time></trkpt><trkpt lat="46.20964029735879" lon="6.672940672643158"><ele>863.0</ele><time>2026-05-01T15:01:25.999Z</time></trkpt><trkpt lat="46.20979366471345" lon="6.672848941551603"><ele>863.0</ele><time>2026-05-01T15:01:26.999Z</time></trkpt><trkpt lat="46.20993911862267" lon="6.67275866298492"><ele>863.0</ele><time>2026-05-01T15:01:27.999Z</time></trkpt><trkpt lat="46.210069499506204" lon="6.6726702652707415"><ele>862.3333333333334</ele><time>2026-05-01T15:01:28.999Z</time></trkpt><trkpt lat="46.21020867773143" lon="6.672581744338373"><ele>861.6666666666667</ele><time>2026-05-01T15:01:29.999Z</time></trkpt><trkpt lat="46.21035914508972" lon="6.672481127338568"><ele>861.0</ele><time>2026-05-01T15:01:30.999Z</time></trkpt><trkpt lat="46.21051081840717" lon="6.6724034713585105"><ele>861.0</ele><time>2026-05-01T15:01:31.999Z</time></trkpt><trkpt lat="46.21064506479658" lon="6.672294200416999"><ele>861.0</ele><time>2026-05-01T15:01:32.999Z</time></trkpt><trkpt lat="46.21080452391737" lon="6.672198104037327"><ele>861.0</ele><time>2026-05-01T15:01:33.999Z</time></trkpt><trkpt lat="46.21097017202205" lon="6.672100230746049"><ele>860.6666666666667</ele><time>2026-05-01T15:01:34.999Z</time></trkpt><trkpt lat="46.21112212131958" lon="6.6720105603513105"><ele>860.3333333333334</ele><time>2026-05-01T15:01:35.999Z</time></trkpt><trkpt lat="46.2112647516416" lon="6.671929117002031"><ele>860.0</ele><time>2026-05-01T15:01:36.999Z</time></trkpt><trkpt lat="46.21139481821681" lon="6.6718517883452435"><ele>860.2</ele><time>2026-05-01T15:01:37.999Z</time></trkpt><trkpt lat="46.21151163378622" lon="6.671779164904191"><ele>860.4</ele><time>2026-05-01T15:01:38.999Z</time></trkpt><trkpt lat="46.21161749310044" lon="6.6717119845733635"><ele>860.5999999999999</ele><time>2026-05-01T15:01:39.999Z</time></trkpt><trkpt lat="46.211713032889044" lon="6.671645942139322"><ele>860.8</ele><time>2026-05-01T15:01:40.999Z</time></trkpt><trkpt lat="46.21179182622294" lon="6.671607306665727"><ele>861.0</ele><time>2026-05-01T15:01:41.999Z</time></trkpt><trkpt lat="46.211856708933695" lon="6.671615838449827"><ele>861.0</ele><time>2026-05-01T15:01:42.999Z</time></trkpt><trkpt lat="46.21195287103673" lon="6.6717445386912315"><ele>860.9999999999999</ele><time>2026-05-01T15:01:44.999Z</time></trkpt><trkpt lat="46.21194117427145" lon="6.671861478461886"><ele>860.9999999999999</ele><time>2026-05-01T15:01:45.999Z</time></trkpt><trkpt lat="46.21190158791036" lon="6.671957758421547"><ele>861.0</ele><time>2026-05-01T15:01:46.999Z</time></trkpt><trkpt lat="46.211834328430704" lon="6.672008538672095"><ele>861.0</ele><time>2026-05-01T15:01:47.999Z</time></trkpt><trkpt lat="46.21172741027343" lon="6.671982409725024"><ele>860.75</ele><time>2026-05-01T15:01:48.999Z</time></trkpt><trkpt lat="46.21161383745667" lon="6.671949930785295"><ele>860.5</ele><time>2026-05-01T15:01:49.999Z</time></trkpt><trkpt lat="46.21148280070839" lon="6.6719658606346"><ele>860.25</ele><time>2026-05-01T15:01:50.999Z</time></trkpt><trkpt lat="46.2113385595019" lon="6.672002991759083"><ele>860.0</ele><time>2026-05-01T15:01:51.999Z</time></trkpt><trkpt lat="46.21122517041943" lon="6.672079357074195"><ele>860.0</ele><time>2026-05-01T15:01:52.999Z</time></trkpt><trkpt lat="46.21111921560949" lon="6.672126944437322"><ele>860.0</ele><time>2026-05-01T15:01:54Z</time></trkpt><trkpt lat="46.21101682159472" lon="6.672177197897462"><ele>860.0</ele><time>2026-05-01T15:01:55Z</time></trkpt><trkpt lat="46.210920885716774" lon="6.672227281305119"><ele>860.0</ele><time>2026-05-01T15:01:56Z</time></trkpt><trkpt lat="46.21084070070181" lon="6.672273299722254"><ele>860.0</ele><time>2026-05-01T15:01:57Z</time></trkpt><trkpt lat="46.210768630379754" lon="6.672347816336918"><ele>860.0</ele><time>2026-05-01T15:01:58Z</time></trkpt><trkpt lat="46.210705010125615" lon="6.672389513626362"><ele>860.0</ele><time>2026-05-01T15:01:59Z</time></trkpt><trkpt lat="46.21063921923989" lon="6.672408290962648"><ele>860.0</ele><time>2026-05-01T15:02:00Z</time></trkpt><trkpt lat="46.21058609301331" lon="6.672472399536941"><ele>860.0</ele><time>2026-05-01T15:02:01Z</time></trkpt><trkpt lat="46.210597146995134" lon="6.672702215791807"><ele>860.0</ele><time>2026-05-01T15:02:04Z</time></trkpt><trkpt lat="46.21066640869588" lon="6.67280035998233"><ele>860.0</ele><time>2026-05-01T15:02:06Z</time></trkpt><trkpt lat="46.21072641562618" lon="6.672867556812438"><ele>860.0</ele><time>2026-05-01T15:02:09Z</time></trkpt><trkpt lat="46.21081828459236" lon="6.6727188096732934"><ele>860.0</ele><time>2026-05-01T15:02:10Z</time></trkpt><trkpt lat="46.21083924431438" lon="6.672589682637507"><ele>860.0</ele><time>2026-05-01T15:03:45.999Z</time></trkpt><trkpt lat="46.210830536040575" lon="6.672438344641856"><ele>860.0</ele><time>2026-05-01T15:03:47.999Z</time></trkpt><trkpt lat="46.210835058253615" lon="6.6723195763093095"><ele>860.0</ele><time>2026-05-01T15:03:51.999Z</time></trkpt><trkpt lat="46.2109208304889" lon="6.672257098702496"><ele>860.0</ele><time>2026-05-01T15:03:56.999Z</time></trkpt><trkpt lat="46.21099152006397" lon="6.672221410089797"><ele>860.0</ele><time>2026-05-01T15:03:57.999Z</time></trkpt><trkpt lat="46.21107754913835" lon="6.672182201062753"><ele>860.0</ele><time>2026-05-01T15:03:58.999Z</time></trkpt><trkpt lat="46.21116258857137" lon="6.672135319228487"><ele>860.0</ele><time>2026-05-01T15:04:00Z</time></trkpt><trkpt lat="46.211269132848464" lon="6.6720856066777525"><ele>860.0</ele><time>2026-05-01T15:04:01Z</time></trkpt><trkpt lat="46.21138197827066" lon="6.672037823410095"><ele>860.0</ele><time>2026-05-01T15:04:02Z</time></trkpt><trkpt lat="46.21150979715051" lon="6.672013083712978"><ele>860.0</ele><time>2026-05-01T15:04:03Z</time></trkpt><trkpt lat="46.21163409321734" lon="6.6720089842071655"><ele>860.0</ele><time>2026-05-01T15:04:04Z</time></trkpt><trkpt lat="46.21174070087226" lon="6.672009672747435"><ele>860.1666666666667</ele><time>2026-05-01T15:04:05Z</time></trkpt><trkpt lat="46.21183630351531" lon="6.672018537299736"><ele>860.3333333333334</ele><time>2026-05-01T15:04:06Z</time></trkpt><trkpt lat="46.21191331740493" lon="6.671998396217538"><ele>860.5</ele><time>2026-05-01T15:04:07Z</time></trkpt><trkpt lat="46.211966335611436" lon="6.671916140002821"><ele>860.6666666666667</ele><time>2026-05-01T15:04:08Z</time></trkpt><trkpt lat="46.21199599935669" lon="6.6718358157881426"><ele>860.8333333333334</ele><time>2026-05-01T15:04:09Z</time></trkpt><trkpt lat="46.211997623416856" lon="6.671742536809348"><ele>861.0</ele><time>2026-05-01T15:04:10Z</time></trkpt><trkpt lat="46.21195465418199" lon="6.671581302708246"><ele>861.0</ele><time>2026-05-01T15:04:12Z</time></trkpt><trkpt lat="46.21205904542411" lon="6.671404434691866"><ele>861.0</ele><time>2026-05-01T15:04:14Z</time></trkpt><trkpt lat="46.212155796111915" lon="6.6713288062025295"><ele>861.0</ele><time>2026-05-01T15:04:15Z</time></trkpt><trkpt lat="46.2123188473612" lon="6.67122679302201"><ele>861.0</ele><time>2026-05-01T15:04:16Z</time></trkpt><trkpt lat="46.21249240947364" lon="6.671099407668399"><ele>862.6666666666667</ele><time>2026-05-01T15:04:17Z</time></trkpt><trkpt lat="46.21267276210807" lon="6.670962907007713"><ele>864.3333333333334</ele><time>2026-05-01T15:04:18Z</time></trkpt><trkpt lat="46.21286489169894" lon="6.67082854071129"><ele>866.0</ele><time>2026-05-01T15:04:19Z</time></trkpt><trkpt lat="46.21308594653627" lon="6.670705571739143"><ele>869.6666666666667</ele><time>2026-05-01T15:04:20Z</time></trkpt><trkpt lat="46.21327703263347" lon="6.670555337641137"><ele>873.3333333333333</ele><time>2026-05-01T15:04:21Z</time></trkpt><trkpt lat="46.21346217495789" lon="6.670440500645911"><ele>877.0</ele><time>2026-05-01T15:04:22Z</time></trkpt><trkpt lat="46.21363562241135" lon="6.670326700345055"><ele>874.6666666666666</ele><time>2026-05-01T15:04:23Z</time></trkpt><trkpt lat="46.2138129192442" lon="6.670221808330007"><ele>872.3333333333333</ele><time>2026-05-01T15:04:24Z</time></trkpt><trkpt lat="46.21400647545393" lon="6.670149868805193"><ele>870.0</ele><time>2026-05-01T15:04:25Z</time></trkpt><trkpt lat="46.21420819954521" lon="6.670080236951576"><ele>870.0</ele><time>2026-05-01T15:04:26Z</time></trkpt><trkpt lat="46.21442019545695" lon="6.6699996946901665"><ele>870.0</ele><time>2026-05-01T15:04:27Z</time></trkpt><trkpt lat="46.214636275529735" lon="6.669946632162821"><ele>870.0</ele><time>2026-05-01T15:04:28Z</time></trkpt><trkpt lat="46.214843720464444" lon="6.669874277179322"><ele>872.3333333333333</ele><time>2026-05-01T15:04:29Z</time></trkpt><trkpt lat="46.21502856859609" lon="6.66975673232752"><ele>874.6666666666666</ele><time>2026-05-01T15:04:30Z</time></trkpt><trkpt lat="46.215198499027686" lon="6.669616553078734"><ele>877.0</ele><time>2026-05-01T15:04:31Z</time></trkpt><trkpt lat="46.215365010504854" lon="6.669451313880575"><ele>875.6666666666666</ele><time>2026-05-01T15:04:32Z</time></trkpt><trkpt lat="46.21552946101888" lon="6.66930524306694"><ele>874.3333333333333</ele><time>2026-05-01T15:04:33Z</time></trkpt><trkpt lat="46.2156830307801" lon="6.6691657514074425"><ele>873.0</ele><time>2026-05-01T15:04:34Z</time></trkpt><trkpt lat="46.2158319287516" lon="6.669034374017274"><ele>873.0</ele><time>2026-05-01T15:04:35Z</time></trkpt><trkpt lat="46.21598969673655" lon="6.668893972513874"><ele>873.0</ele><time>2026-05-01T15:04:36Z</time></trkpt><trkpt lat="46.216149599887146" lon="6.668757846873911"><ele>873.0</ele><time>2026-05-01T15:04:37Z</time></trkpt><trkpt lat="46.216302310474425" lon="6.668625557877989"><ele>871.3333333333333</ele><time>2026-05-01T15:04:38Z</time></trkpt><trkpt lat="46.21643066541667" lon="6.668472600289085"><ele>869.6666666666666</ele><time>2026-05-01T15:04:39Z</time></trkpt><trkpt lat="46.21655281727516" lon="6.668293609897537"><ele>868.0</ele><time>2026-05-01T15:04:40Z</time></trkpt><trkpt lat="46.21667337523679" lon="6.668081762970632"><ele>868.0</ele><time>2026-05-01T15:04:41Z</time></trkpt><trkpt lat="46.21679790672614" lon="6.667859272560552"><ele>868.0</ele><time>2026-05-01T15:04:42Z</time></trkpt><trkpt lat="46.216925341223934" lon="6.667654869482706"><ele>868.0</ele><time>2026-05-01T15:04:43Z</time></trkpt><trkpt lat="46.21705728710802" lon="6.667476076281538"><ele>866.6666666666666</ele><time>2026-05-01T15:04:44Z</time></trkpt><trkpt lat="46.217203930614865" lon="6.667318376558825"><ele>865.3333333333333</ele><time>2026-05-01T15:04:45Z</time></trkpt><trkpt lat="46.21737381858327" lon="6.66715206786975"><ele>864.0</ele><time>2026-05-01T15:04:46Z</time></trkpt><trkpt lat="46.21754524803369" lon="6.666982724929112"><ele>862.0</ele><time>2026-05-01T15:04:47Z</time></trkpt><trkpt lat="46.21771087669877" lon="6.666829272678894"><ele>860.0</ele><time>2026-05-01T15:04:48Z</time></trkpt><trkpt lat="46.217875753570176" lon="6.6666943036013055"><ele>858.0</ele><time>2026-05-01T15:04:49Z</time></trkpt><trkpt lat="46.2180517145628" lon="6.666563879448002"><ele>859.6666666666667</ele><time>2026-05-01T15:04:50Z</time></trkpt><trkpt lat="46.21824838322884" lon="6.666442264631996"><ele>861.3333333333334</ele><time>2026-05-01T15:04:51Z</time></trkpt><trkpt lat="46.218447341108046" lon="6.666366558815056"><ele>863.0</ele><time>2026-05-01T15:04:52Z</time></trkpt><trkpt lat="46.21862549466909" lon="6.666259153916312"><ele>863.0</ele><time>2026-05-01T15:04:53Z</time></trkpt><trkpt lat="46.21879775008654" lon="6.666185049647997"><ele>863.0</ele><time>2026-05-01T15:04:54Z</time></trkpt><trkpt lat="46.218963056943906" lon="6.6660656229199855"><ele>863.0</ele><time>2026-05-01T15:04:55Z</time></trkpt><trkpt lat="46.21912054608994" lon="6.665959670545486"><ele>860.0</ele><time>2026-05-01T15:04:56Z</time></trkpt><trkpt lat="46.21927428193558" lon="6.665849320692816"><ele>857.0</ele><time>2026-05-01T15:04:57Z</time></trkpt><trkpt lat="46.21942708871631" lon="6.665753770544048"><ele>854.0</ele><time>2026-05-01T15:04:58Z</time></trkpt><trkpt lat="46.21959657311997" lon="6.665684820780015"><ele>854.0</ele><time>2026-05-01T15:04:59Z</time></trkpt><trkpt lat="46.21977533984747" lon="6.6656693851293225"><ele>854.0</ele><time>2026-05-01T15:05:00Z</time></trkpt><trkpt lat="46.21997404759076" lon="6.66564257794643"><ele>854.0</ele><time>2026-05-01T15:05:01Z</time></trkpt><trkpt lat="46.22016982026148" lon="6.66561609929912"><ele>856.0</ele><time>2026-05-01T15:05:02Z</time></trkpt><trkpt lat="46.22035508302997" lon="6.665582803441098"><ele>858.0</ele><time>2026-05-01T15:05:03Z</time></trkpt><trkpt lat="46.220530258769266" lon="6.665565289607388"><ele>860.0</ele><time>2026-05-01T15:05:04Z</time></trkpt><trkpt lat="46.220689044504574" lon="6.6655381055439085"><ele>860.0</ele><time>2026-05-01T15:05:05Z</time></trkpt><trkpt lat="46.22083923421675" lon="6.6654960031194435"><ele>860.0</ele><time>2026-05-01T15:05:06Z</time></trkpt><trkpt lat="46.22100344140643" lon="6.665416298062223"><ele>860.0</ele><time>2026-05-01T15:05:07Z</time></trkpt><trkpt lat="46.221162545665656" lon="6.66528304418566"><ele>860.0</ele><time>2026-05-01T15:05:08Z</time></trkpt><trkpt lat="46.221298660387" lon="6.6651138221671085"><ele>860.0</ele><time>2026-05-01T15:05:09Z</time></trkpt><trkpt lat="46.22142370270252" lon="6.664917584887451"><ele>860.0</ele><time>2026-05-01T15:05:10Z</time></trkpt><trkpt lat="46.221546590997974" lon="6.664717552739689"><ele>860.0</ele><time>2026-05-01T15:05:11Z</time></trkpt><trkpt lat="46.22167101957735" lon="6.664534804440399"><ele>860.0</ele><time>2026-05-01T15:05:12Z</time></trkpt><trkpt lat="46.22178717566301" lon="6.664369388037523"><ele>860.0</ele><time>2026-05-01T15:05:13Z</time></trkpt><trkpt lat="46.22190133380901" lon="6.664209803116665"><ele>854.0</ele><time>2026-05-01T15:05:14Z</time></trkpt><trkpt lat="46.22201286785953" lon="6.664060077338855"><ele>848.0</ele><time>2026-05-01T15:05:15Z</time></trkpt><trkpt lat="46.22213065075937" lon="6.663913632838091"><ele>842.0</ele><time>2026-05-01T15:05:15.999Z</time></trkpt><trkpt lat="46.222253629614" lon="6.663771132449118"><ele>840.75</ele><time>2026-05-01T15:05:16.999Z</time></trkpt><trkpt lat="46.222380983036444" lon="6.6636429368462595"><ele>839.5</ele><time>2026-05-01T15:05:17.999Z</time></trkpt><trkpt lat="46.22252143529372" lon="6.663591596116558"><ele>838.25</ele><time>2026-05-01T15:05:18.999Z</time></trkpt><trkpt lat="46.22266545497605" lon="6.663562651225089"><ele>837.0</ele><time>2026-05-01T15:05:19.999Z</time></trkpt><trkpt lat="46.22282473064379" lon="6.663515808218944"><ele>837.0</ele><time>2026-05-01T15:05:20.999Z</time></trkpt><trkpt lat="46.22299632138645" lon="6.663489406255062"><ele>837.0</ele><time>2026-05-01T15:05:21.999Z</time></trkpt><trkpt lat="46.22314997508677" lon="6.66345620934314"><ele>837.0</ele><time>2026-05-01T15:05:22.999Z</time></trkpt><trkpt lat="46.22329894545427" lon="6.663413000582387"><ele>839.3333333333333</ele><time>2026-05-01T15:05:23.999Z</time></trkpt><trkpt lat="46.22343815349602" lon="6.663334172675296"><ele>841.6666666666666</ele><time>2026-05-01T15:05:24.999Z</time></trkpt><trkpt lat="46.223551458029924" lon="6.663190657901751"><ele>844.0</ele><time>2026-05-01T15:05:25.999Z</time></trkpt><trkpt lat="46.22366390388641" lon="6.663010939064095"><ele>844.0</ele><time>2026-05-01T15:05:26.999Z</time></trkpt><trkpt lat="46.22376891320121" lon="6.662791112245062"><ele>844.0</ele><time>2026-05-01T15:05:27.999Z</time></trkpt><trkpt lat="46.22389741545688" lon="6.662575372496369"><ele>844.0</ele><time>2026-05-01T15:05:28.999Z</time></trkpt><trkpt lat="46.2240658315142" lon="6.66238043202247"><ele>842.3333333333333</ele><time>2026-05-01T15:05:29.999Z</time></trkpt><trkpt lat="46.22423656382527" lon="6.662190358816714"><ele>840.6666666666667</ele><time>2026-05-01T15:05:30.999Z</time></trkpt><trkpt lat="46.224399404302275" lon="6.6619727505688315"><ele>839.0</ele><time>2026-05-01T15:05:31.999Z</time></trkpt><trkpt lat="46.22454375182352" lon="6.661726979475705"><ele>834.0</ele><time>2026-05-01T15:05:32.999Z</time></trkpt><trkpt lat="46.2246773555347" lon="6.661490995502535"><ele>829.0</ele><time>2026-05-01T15:05:33.999Z</time></trkpt><trkpt lat="46.22479759143281" lon="6.66126743367036"><ele>824.0</ele><time>2026-05-01T15:05:34.999Z</time></trkpt><trkpt lat="46.224921765926915" lon="6.661046153812686"><ele>822.6666666666667</ele><time>2026-05-01T15:05:35.999Z</time></trkpt><trkpt lat="46.225060185793794" lon="6.660870708755695"><ele>821.3333333333333</ele><time>2026-05-01T15:05:36.999Z</time></trkpt><trkpt lat="46.225190394666996" lon="6.660680157827717"><ele>820.0</ele><time>2026-05-01T15:05:37.999Z</time></trkpt><trkpt lat="46.2253626611309" lon="6.6605408456293"><ele>820.0</ele><time>2026-05-01T15:05:38.999Z</time></trkpt><trkpt lat="46.22553423227274" lon="6.6603933801021435"><ele>820.0</ele><time>2026-05-01T15:05:39.999Z</time></trkpt><trkpt lat="46.225700577665954" lon="6.660258066725517"><ele>820.0</ele><time>2026-05-01T15:05:40.999Z</time></trkpt><trkpt lat="46.22586326651468" lon="6.660124134875408"><ele>818.0</ele><time>2026-05-01T15:05:41.999Z</time></trkpt><trkpt lat="46.22604200949406" lon="6.660024031322384"><ele>816.0</ele><time>2026-05-01T15:05:42.999Z</time></trkpt><trkpt lat="46.22622337864258" lon="6.659921322958257"><ele>814.0</ele><time>2026-05-01T15:05:43.999Z</time></trkpt><trkpt lat="46.22638858743013" lon="6.659828280283239"><ele>816.3333333333333</ele><time>2026-05-01T15:05:44.999Z</time></trkpt><trkpt lat="46.22654083258447" lon="6.659736761995548"><ele>818.6666666666667</ele><time>2026-05-01T15:05:45.999Z</time></trkpt><trkpt lat="46.22669210146872" lon="6.659651731227713"><ele>821.0</ele><time>2026-05-01T15:05:46.999Z</time></trkpt><trkpt lat="46.2268370946018" lon="6.65958706949513"><ele>821.0</ele><time>2026-05-01T15:05:47.999Z</time></trkpt><trkpt lat="46.226969011549514" lon="6.65951153241635"><ele>821.0</ele><time>2026-05-01T15:05:48.999Z</time></trkpt><trkpt lat="46.227099929823574" lon="6.659434080936768"><ele>821.0</ele><time>2026-05-01T15:05:49.999Z</time></trkpt><trkpt lat="46.22722007606684" lon="6.6593657475800105"><ele>821.0</ele><time>2026-05-01T15:05:50.999Z</time></trkpt><trkpt lat="46.22734182050037" lon="6.659302530480163"><ele>819.0</ele><time>2026-05-01T15:05:51.999Z</time></trkpt><trkpt lat="46.22747137000901" lon="6.659244881230397"><ele>817.0</ele><time>2026-05-01T15:05:52.999Z</time></trkpt><trkpt lat="46.22761627821184" lon="6.6591980819781735"><ele>815.0</ele><time>2026-05-01T15:05:53.999Z</time></trkpt><trkpt lat="46.2277809874955" lon="6.659191377867895"><ele>813.0</ele><time>2026-05-01T15:05:54.999Z</time></trkpt><trkpt lat="46.22797472607886" lon="6.659197979210618"><ele>813.6666666666667</ele><time>2026-05-01T15:05:55.999Z</time></trkpt><trkpt lat="46.22819446952658" lon="6.659209141573757"><ele>814.3333333333334</ele><time>2026-05-01T15:05:56.999Z</time></trkpt><trkpt lat="46.22840838110006" lon="6.6591921540870525"><ele>815.0</ele><time>2026-05-01T15:05:57.999Z</time></trkpt><trkpt lat="46.22860105426907" lon="6.6591613226922375"><ele>815.0</ele><time>2026-05-01T15:05:58.999Z</time></trkpt><trkpt lat="46.22879941862348" lon="6.659094743964132"><ele>815.0</ele><time>2026-05-01T15:05:59.999Z</time></trkpt><trkpt lat="46.22901429828447" lon="6.659003705995931"><ele>815.0</ele><time>2026-05-01T15:06:00.999Z</time></trkpt><trkpt lat="46.22922490891366" lon="6.658900232442059"><ele>814.0</ele><time>2026-05-01T15:06:01.999Z</time></trkpt><trkpt lat="46.22944788042563" lon="6.658787438232887"><ele>813.0</ele><time>2026-05-01T15:06:02.999Z</time></trkpt><trkpt lat="46.2296454825215" lon="6.658667085174807"><ele>812.6666666666667</ele><time>2026-05-01T15:06:03.999Z</time></trkpt><trkpt lat="46.229818430942046" lon="6.658522827665107"><ele>812.3333333333334</ele><time>2026-05-01T15:06:04.999Z</time></trkpt><trkpt lat="46.22997835736258" lon="6.658338468256546"><ele>812.0</ele><time>2026-05-01T15:06:06Z</time></trkpt><trkpt lat="46.230130274632444" lon="6.658112809031586"><ele>812.0</ele><time>2026-05-01T15:06:07Z</time></trkpt><trkpt lat="46.23028270969959" lon="6.657859665535875"><ele>812.0</ele><time>2026-05-01T15:06:08Z</time></trkpt><trkpt lat="46.230432521077645" lon="6.657609117186962"><ele>811.3333333333334</ele><time>2026-05-01T15:06:09Z</time></trkpt><trkpt lat="46.230572410832295" lon="6.6573774229258245"><ele>810.6666666666667</ele><time>2026-05-01T15:06:10Z</time></trkpt><trkpt lat="46.230702745177595" lon="6.657164155412693"><ele>810.0</ele><time>2026-05-01T15:06:11Z</time></trkpt><trkpt lat="46.230831212455314" lon="6.6569735365243154"><ele>809.3333333333333</ele><time>2026-05-01T15:06:12Z</time></trkpt><trkpt lat="46.23097547840132" lon="6.65684376705934"><ele>808.6666666666666</ele><time>2026-05-01T15:06:13Z</time></trkpt><trkpt lat="46.23110487519412" lon="6.6567071775800635"><ele>808.0</ele><time>2026-05-01T15:06:14Z</time></trkpt><trkpt lat="46.23125172043252" lon="6.6566161634163805"><ele>808.0</ele><time>2026-05-01T15:06:15Z</time></trkpt><trkpt lat="46.23141089916787" lon="6.6565399744579015"><ele>808.0</ele><time>2026-05-01T15:06:16Z</time></trkpt><trkpt lat="46.23158165378879" lon="6.656478102100601"><ele>808.0</ele><time>2026-05-01T15:06:17Z</time></trkpt><trkpt lat="46.23175224044835" lon="6.656417634702714"><ele>809.0</ele><time>2026-05-01T15:06:18Z</time></trkpt><trkpt lat="46.2319142370028" lon="6.656361364674075"><ele>810.0</ele><time>2026-05-01T15:06:19Z</time></trkpt><trkpt lat="46.23206207609664" lon="6.65630817062485"><ele>811.0</ele><time>2026-05-01T15:06:20Z</time></trkpt><trkpt lat="46.23221704403213" lon="6.656280098413396"><ele>810.75</ele><time>2026-05-01T15:06:21Z</time></trkpt><trkpt lat="46.23236121347408" lon="6.656235238689095"><ele>810.5</ele><time>2026-05-01T15:06:22Z</time></trkpt><trkpt lat="46.232502904494325" lon="6.656191148132956"><ele>810.25</ele><time>2026-05-01T15:06:23Z</time></trkpt><trkpt lat="46.232641765073765" lon="6.656150456640013"><ele>810.0</ele><time>2026-05-01T15:06:24Z</time></trkpt><trkpt lat="46.232774139704745" lon="6.65612041551491"><ele>808.25</ele><time>2026-05-01T15:06:25Z</time></trkpt><trkpt lat="46.23290682640272" lon="6.65607987186112"><ele>806.5</ele><time>2026-05-01T15:06:26Z</time></trkpt><trkpt lat="46.233036375985236" lon="6.656076128516427"><ele>804.75</ele><time>2026-05-01T15:06:27Z</time></trkpt><trkpt lat="46.23317584774465" lon="6.656069741154926"><ele>803.0</ele><time>2026-05-01T15:06:28Z</time></trkpt><trkpt lat="46.23329991918902" lon="6.65607680600629"><ele>803.0</ele><time>2026-05-01T15:06:29Z</time></trkpt><trkpt lat="46.23342515911976" lon="6.6561104145922085"><ele>803.0</ele><time>2026-05-01T15:06:30Z</time></trkpt><trkpt lat="46.23354367420967" lon="6.656108870454719"><ele>803.0</ele><time>2026-05-01T15:06:31Z</time></trkpt><trkpt lat="46.233652526389605" lon="6.656105782451774"><ele>803.0</ele><time>2026-05-01T15:06:32Z</time></trkpt><trkpt lat="46.23376059270454" lon="6.656101893490187"><ele>803.0</ele><time>2026-05-01T15:06:33Z</time></trkpt><trkpt lat="46.23386982050362" lon="6.656082159937837"><ele>803.0</ele><time>2026-05-01T15:06:34Z</time></trkpt><trkpt lat="46.23396776746044" lon="6.656039481122727"><ele>803.0</ele><time>2026-05-01T15:06:35Z</time></trkpt><trkpt lat="46.23406200577488" lon="6.656015885874128"><ele>803.0</ele><time>2026-05-01T15:06:36Z</time></trkpt><trkpt lat="46.23414768619253" lon="6.6560103717922185"><ele>803.0</ele><time>2026-05-01T15:06:37Z</time></trkpt><trkpt lat="46.234228659818946" lon="6.655979702247475"><ele>803.0</ele><time>2026-05-01T15:06:38Z</time></trkpt><trkpt lat="46.23432139386574" lon="6.655914373331081"><ele>803.0</ele><time>2026-05-01T15:06:39Z</time></trkpt><trkpt lat="46.23441992303939" lon="6.65589136044158"><ele>803.0</ele><time>2026-05-01T15:06:40Z</time></trkpt><trkpt lat="46.23454787999605" lon="6.655819239511025"><ele>803.0</ele><time>2026-05-01T15:06:41Z</time></trkpt><trkpt lat="46.23468267219155" lon="6.655729515787097"><ele>803.0</ele><time>2026-05-01T15:06:42Z</time></trkpt><trkpt lat="46.23479460327013" lon="6.6556231893757145"><ele>803.0</ele><time>2026-05-01T15:06:43Z</time></trkpt><trkpt lat="46.23490302841632" lon="6.655535223575222"><ele>803.0</ele><time>2026-05-01T15:06:44Z</time></trkpt><trkpt lat="46.235006834481666" lon="6.65545511132522"><ele>803.0</ele><time>2026-05-01T15:06:45Z</time></trkpt><trkpt lat="46.235094149336646" lon="6.655364842209379"><ele>802.4</ele><time>2026-05-01T15:06:46Z</time></trkpt><trkpt lat="46.235160657742995" lon="6.655268460866484"><ele>801.8</ele><time>2026-05-01T15:06:47Z</time></trkpt><trkpt lat="46.23524322181074" lon="6.655205505520506"><ele>801.2</ele><time>2026-05-01T15:06:48Z</time></trkpt><trkpt lat="46.2353033570461" lon="6.655106132462379"><ele>800.6</ele><time>2026-05-01T15:06:49Z</time></trkpt><trkpt lat="46.23537509923343" lon="6.655003790308229"><ele>800.0</ele><time>2026-05-01T15:06:50Z</time></trkpt><trkpt lat="46.23544415778738" lon="6.654893732438356"><ele>800.0</ele><time>2026-05-01T15:06:51Z</time></trkpt><trkpt lat="46.235509675375845" lon="6.654785466641107"><ele>800.0</ele><time>2026-05-01T15:06:52Z</time></trkpt><trkpt lat="46.235574852888206" lon="6.654674748742224"><ele>800.0</ele><time>2026-05-01T15:06:53Z</time></trkpt><trkpt lat="46.23564265510161" lon="6.654563610842983"><ele>800.0</ele><time>2026-05-01T15:06:54Z</time></trkpt><trkpt lat="46.23571424951845" lon="6.654456240001744"><ele>800.0</ele><time>2026-05-01T15:06:55Z</time></trkpt><trkpt lat="46.23579227069584" lon="6.654371944453744"><ele>799.6666666666667</ele><time>2026-05-01T15:06:56Z</time></trkpt><trkpt lat="46.235871643515345" lon="6.6543113446341255"><ele>799.3333333333334</ele><time>2026-05-01T15:06:57Z</time></trkpt><trkpt lat="46.235954564008054" lon="6.654257514852739"><ele>799.0</ele><time>2026-05-01T15:06:58Z</time></trkpt><trkpt lat="46.23603493001978" lon="6.654199951352134"><ele>798.6666666666667</ele><time>2026-05-01T15:06:59Z</time></trkpt><trkpt lat="46.236116037766024" lon="6.65415657709343"><ele>798.3333333333334</ele><time>2026-05-01T15:07:00Z</time></trkpt><trkpt lat="46.236195298227166" lon="6.654113834366944"><ele>798.0</ele><time>2026-05-01T15:07:01Z</time></trkpt><trkpt lat="46.23627798678944" lon="6.65406787509458"><ele>798.0</ele><time>2026-05-01T15:07:02Z</time></trkpt><trkpt lat="46.23636318618127" lon="6.6540245363901125"><ele>798.0</ele><time>2026-05-01T15:07:03Z</time></trkpt><trkpt lat="46.23646949220091" lon="6.653957634360415"><ele>798.0</ele><time>2026-05-01T15:07:04Z</time></trkpt><trkpt lat="46.23659896364892" lon="6.653854547093525"><ele>798.0</ele><time>2026-05-01T15:07:04.999Z</time></trkpt><trkpt lat="46.236720911320106" lon="6.653732584607675"><ele>797.0</ele><time>2026-05-01T15:07:05.999Z</time></trkpt><trkpt lat="46.236827926694744" lon="6.653624264871384"><ele>796.0</ele><time>2026-05-01T15:07:06.999Z</time></trkpt><trkpt lat="46.236933434031684" lon="6.653528815270998"><ele>795.0</ele><time>2026-05-01T15:07:07.999Z</time></trkpt><trkpt lat="46.23704630557088" lon="6.653457566543382"><ele>794.0</ele><time>2026-05-01T15:07:08.999Z</time></trkpt><trkpt lat="46.23714799865667" lon="6.653365051866699"><ele>794.0</ele><time>2026-05-01T15:07:09.999Z</time></trkpt><trkpt lat="46.237248238232866" lon="6.653295679897366"><ele>794.0</ele><time>2026-05-01T15:07:10.999Z</time></trkpt><trkpt lat="46.23733739506295" lon="6.653192849228539"><ele>794.0</ele><time>2026-05-01T15:07:11.999Z</time></trkpt><trkpt lat="46.23740000138432" lon="6.653057161656365"><ele>794.0</ele><time>2026-05-01T15:07:12.999Z</time></trkpt><trkpt lat="46.23743156582057" lon="6.652885850845648"><ele>794.25</ele><time>2026-05-01T15:07:13.999Z</time></trkpt><trkpt lat="46.237436904411055" lon="6.6526869056027165"><ele>794.5</ele><time>2026-05-01T15:07:14.999Z</time></trkpt><trkpt lat="46.23742656906545" lon="6.652481878767773"><ele>794.75</ele><time>2026-05-01T15:07:15.999Z</time></trkpt><trkpt lat="46.23742596246561" lon="6.652263951322362"><ele>795.0</ele><time>2026-05-01T15:07:16.999Z</time></trkpt><trkpt lat="46.23744060352778" lon="6.652057683084349"><ele>792.75</ele><time>2026-05-01T15:07:17.999Z</time></trkpt><trkpt lat="46.237478168644536" lon="6.651876761108619"><ele>790.5</ele><time>2026-05-01T15:07:18.999Z</time></trkpt><trkpt lat="46.23753856221726" lon="6.651715330572642"><ele>788.25</ele><time>2026-05-01T15:07:19.999Z</time></trkpt><trkpt lat="46.23763440400146" lon="6.651575066305595"><ele>786.0</ele><time>2026-05-01T15:07:20.999Z</time></trkpt><trkpt lat="46.237749102034" lon="6.6514595703724035"><ele>786.0</ele><time>2026-05-01T15:07:21.999Z</time></trkpt><trkpt lat="46.237876677369094" lon="6.6513712560391065"><ele>786.0</ele><time>2026-05-01T15:07:22.999Z</time></trkpt><trkpt lat="46.23801421507411" lon="6.651287162090606"><ele>786.0</ele><time>2026-05-01T15:07:23.999Z</time></trkpt><trkpt lat="46.23816173256106" lon="6.6511977306415835"><ele>785.5</ele><time>2026-05-01T15:07:24.999Z</time></trkpt><trkpt lat="46.238295146704125" lon="6.651114618358338"><ele>785.0</ele><time>2026-05-01T15:07:25.999Z</time></trkpt><trkpt lat="46.238419141011896" lon="6.651041865909553"><ele>784.5</ele><time>2026-05-01T15:07:26.999Z</time></trkpt><trkpt lat="46.23854346321042" lon="6.650968228049668"><ele>784.0</ele><time>2026-05-01T15:07:27.999Z</time></trkpt><trkpt lat="46.23867769348312" lon="6.650884638720666"><ele>784.0</ele><time>2026-05-01T15:07:28.999Z</time></trkpt><trkpt lat="46.23882488975192" lon="6.650792621512669"><ele>784.0</ele><time>2026-05-01T15:07:29.999Z</time></trkpt><trkpt lat="46.23897681334817" lon="6.6506989076635525"><ele>784.0</ele><time>2026-05-01T15:07:30.999Z</time></trkpt><trkpt lat="46.23912232513865" lon="6.650608998216178"><ele>782.75</ele><time>2026-05-01T15:07:31.999Z</time></trkpt><trkpt lat="46.23925170167995" lon="6.6505282349460035"><ele>781.5</ele><time>2026-05-01T15:07:32.999Z</time></trkpt><trkpt lat="46.23938396966591" lon="6.650450143511796"><ele>780.25</ele><time>2026-05-01T15:07:33.999Z</time></trkpt><trkpt lat="46.23951020874756" lon="6.6503677486128945"><ele>779.0</ele><time>2026-05-01T15:07:34.999Z</time></trkpt><trkpt lat="46.23965313666661" lon="6.650279652798315"><ele>779.0</ele><time>2026-05-01T15:07:35.999Z</time></trkpt><trkpt lat="46.239794757391955" lon="6.650160013945795"><ele>779.0</ele><time>2026-05-01T15:07:36.999Z</time></trkpt><trkpt lat="46.239917526899944" lon="6.6500295682187485"><ele>779.0</ele><time>2026-05-01T15:07:37.999Z</time></trkpt><trkpt lat="46.24003054718524" lon="6.6498714531951455"><ele>779.0</ele><time>2026-05-01T15:07:38.999Z</time></trkpt><trkpt lat="46.2401377381401" lon="6.649674479349206"><ele>779.0</ele><time>2026-05-01T15:07:39.999Z</time></trkpt><trkpt lat="46.240235222572295" lon="6.649457403416119"><ele>779.0</ele><time>2026-05-01T15:07:40.999Z</time></trkpt><trkpt lat="46.24032240485397" lon="6.649225038353783"><ele>779.0</ele><time>2026-05-01T15:07:41.999Z</time></trkpt><trkpt lat="46.24041233251776" lon="6.648978176114527"><ele>779.0</ele><time>2026-05-01T15:07:42.999Z</time></trkpt><trkpt lat="46.24050944904274" lon="6.6487343842494"><ele>779.0</ele><time>2026-05-01T15:07:43.999Z</time></trkpt><trkpt lat="46.24060809653232" lon="6.648472349803722"><ele>780.6666666666667</ele><time>2026-05-01T15:07:44.999Z</time></trkpt><trkpt lat="46.240702213709326" lon="6.648238043412045"><ele>782.3333333333333</ele><time>2026-05-01T15:07:45.999Z</time></trkpt><trkpt lat="46.24079927042484" lon="6.64801141346816"><ele>784.0</ele><time>2026-05-01T15:07:46.999Z</time></trkpt><trkpt lat="46.2409066947835" lon="6.647777236069747"><ele>784.0</ele><time>2026-05-01T15:07:47.999Z</time></trkpt><trkpt lat="46.241021843096554" lon="6.647535969753263"><ele>784.0</ele><time>2026-05-01T15:07:48.999Z</time></trkpt><trkpt lat="46.24113330452638" lon="6.647306962478085"><ele>784.0</ele><time>2026-05-01T15:07:49.999Z</time></trkpt><trkpt lat="46.24124710004439" lon="6.647080990400015"><ele>783.0</ele><time>2026-05-01T15:07:50.999Z</time></trkpt><trkpt lat="46.241366398101356" lon="6.646857279525174"><ele>782.0</ele><time>2026-05-01T15:07:51.999Z</time></trkpt><trkpt lat="46.24148330157473" lon="6.64664960716139"><ele>781.0</ele><time>2026-05-01T15:07:52.999Z</time></trkpt><trkpt lat="46.241604471556336" lon="6.646440828490646"><ele>781.3333333333333</ele><time>2026-05-01T15:07:53.999Z</time></trkpt><trkpt lat="46.24173886890758" lon="6.646206611209918"><ele>781.6666666666667</ele><time>2026-05-01T15:07:54.999Z</time></trkpt><trkpt lat="46.241876540442945" lon="6.645968293776221"><ele>782.0</ele><time>2026-05-01T15:07:55.999Z</time></trkpt><trkpt lat="46.24202098568315" lon="6.645725591645412"><ele>782.0</ele><time>2026-05-01T15:07:56.999Z</time></trkpt><trkpt lat="46.242169436487025" lon="6.645471297694173"><ele>782.0</ele><time>2026-05-01T15:07:57.999Z</time></trkpt><trkpt lat="46.24231829020494" lon="6.645219996842671"><ele>779.5</ele><time>2026-05-01T15:07:58.999Z</time></trkpt><trkpt lat="46.24246653454115" lon="6.64496783728521"><ele>777.0</ele><time>2026-05-01T15:07:59.999Z</time></trkpt><trkpt lat="46.242606631792846" lon="6.644717833795594"><ele>777.0</ele><time>2026-05-01T15:08:00.999Z</time></trkpt><trkpt lat="46.242735502144555" lon="6.644474420462264"><ele>777.0</ele><time>2026-05-01T15:08:01.999Z</time></trkpt><trkpt lat="46.242858377889554" lon="6.644228445307327"><ele>777.0</ele><time>2026-05-01T15:08:02.999Z</time></trkpt><trkpt lat="46.24297333363083" lon="6.643992261524116"><ele>774.6666666666667</ele><time>2026-05-01T15:08:03.999Z</time></trkpt><trkpt lat="46.24307950022084" lon="6.643768086989945"><ele>772.3333333333334</ele><time>2026-05-01T15:08:04.999Z</time></trkpt><trkpt lat="46.24317752744293" lon="6.643558091531308"><ele>770.0</ele><time>2026-05-01T15:08:05.999Z</time></trkpt><trkpt lat="46.24326912421537" lon="6.643360903818263"><ele>770.0</ele><time>2026-05-01T15:08:06.999Z</time></trkpt><trkpt lat="46.24336350280073" lon="6.643178618227953"><ele>770.0</ele><time>2026-05-01T15:08:07.999Z</time></trkpt><trkpt lat="46.24345761690545" lon="6.642997934371496"><ele>770.0</ele><time>2026-05-01T15:08:08.999Z</time></trkpt><trkpt lat="46.24355637515785" lon="6.642805212570994"><ele>769.3333333333334</ele><time>2026-05-01T15:08:09.999Z</time></trkpt><trkpt lat="46.243655796256434" lon="6.642635720017067"><ele>768.6666666666667</ele><time>2026-05-01T15:08:10.999Z</time></trkpt><trkpt lat="46.24377071615578" lon="6.6424807323616735"><ele>768.0</ele><time>2026-05-01T15:08:12Z</time></trkpt><trkpt lat="46.24391000585599" lon="6.642339398544254"><ele>768.3333333333333</ele><time>2026-05-01T15:08:13Z</time></trkpt><trkpt lat="46.2440676909004" lon="6.642223727005945"><ele>768.6666666666666</ele><time>2026-05-01T15:08:14Z</time></trkpt><trkpt lat="46.24422652474101" lon="6.642138073345169"><ele>769.0</ele><time>2026-05-01T15:08:15Z</time></trkpt><trkpt lat="46.24439422882177" lon="6.642091574991005"><ele>769.0</ele><time>2026-05-01T15:08:16Z</time></trkpt><trkpt lat="46.24456886909192" lon="6.642071933402567"><ele>769.0</ele><time>2026-05-01T15:08:17Z</time></trkpt><trkpt lat="46.244746588999305" lon="6.642085635961169"><ele>769.0</ele><time>2026-05-01T15:08:18Z</time></trkpt><trkpt lat="46.24491340993044" lon="6.642116104167404"><ele>768.6666666666666</ele><time>2026-05-01T15:08:19Z</time></trkpt><trkpt lat="46.245070194428564" lon="6.642143336613994"><ele>768.3333333333333</ele><time>2026-05-01T15:08:20Z</time></trkpt><trkpt lat="46.24522540642243" lon="6.642136602489145"><ele>768.0</ele><time>2026-05-01T15:08:21Z</time></trkpt><trkpt lat="46.24538704640418" lon="6.642073738813418"><ele>767.3333333333334</ele><time>2026-05-01T15:08:22Z</time></trkpt><trkpt lat="46.24553473587905" lon="6.6419552397186195"><ele>766.6666666666667</ele><time>2026-05-01T15:08:23Z</time></trkpt><trkpt lat="46.24566358444948" lon="6.641802795977176"><ele>766.0</ele><time>2026-05-01T15:08:24Z</time></trkpt><trkpt lat="46.24577405201463" lon="6.6416117289004175"><ele>766.0</ele><time>2026-05-01T15:08:25Z</time></trkpt><trkpt lat="46.245854240351306" lon="6.641378828688524"><ele>766.0</ele><time>2026-05-01T15:08:26Z</time></trkpt><trkpt lat="46.24590429102543" lon="6.641125800233131"><ele>766.0</ele><time>2026-05-01T15:08:27Z</time></trkpt><trkpt lat="46.24591575123663" lon="6.640883190179214"><ele>763.3333333333334</ele><time>2026-05-01T15:08:28Z</time></trkpt><trkpt lat="46.2459028018378" lon="6.640647117978976"><ele>760.6666666666666</ele><time>2026-05-01T15:08:29Z</time></trkpt><trkpt lat="46.245924124007466" lon="6.640411878710131"><ele>758.0</ele><time>2026-05-01T15:08:30Z</time></trkpt><trkpt lat="46.24597841980719" lon="6.640190532650406"><ele>756.3333333333333</ele><time>2026-05-01T15:08:31Z</time></trkpt><trkpt lat="46.24606372539636" lon="6.639992524914785"><ele>754.6666666666666</ele><time>2026-05-01T15:08:32Z</time></trkpt><trkpt lat="46.24617457249289" lon="6.639799912857943"><ele>753.0</ele><time>2026-05-01T15:08:33Z</time></trkpt><trkpt lat="46.246283728145215" lon="6.639599980050046"><ele>752.6666666666666</ele><time>2026-05-01T15:08:34Z</time></trkpt><trkpt lat="46.24640508708933" lon="6.639410287754266"><ele>752.3333333333333</ele><time>2026-05-01T15:08:35Z</time></trkpt><trkpt lat="46.24650559736007" lon="6.639197486152704"><ele>752.0</ele><time>2026-05-01T15:08:36Z</time></trkpt><trkpt lat="46.24657873662367" lon="6.638946463859966"><ele>752.3333333333333</ele><time>2026-05-01T15:08:37Z</time></trkpt><trkpt lat="46.24663402143645" lon="6.638663653179771"><ele>752.6666666666666</ele><time>2026-05-01T15:08:38Z</time></trkpt><trkpt lat="46.246677478761704" lon="6.638393511961385"><ele>753.0</ele><time>2026-05-01T15:08:39Z</time></trkpt><trkpt lat="46.246725660706616" lon="6.638142873655122"><ele>753.0</ele><time>2026-05-01T15:08:40Z</time></trkpt><trkpt lat="46.246773588097234" lon="6.6378934100704"><ele>753.0</ele><time>2026-05-01T15:08:41Z</time></trkpt><trkpt lat="46.24682061548565" lon="6.637638221804448"><ele>753.0</ele><time>2026-05-01T15:08:42Z</time></trkpt><trkpt lat="46.246869039894065" lon="6.63737895030528"><ele>755.6666666666666</ele><time>2026-05-01T15:08:43Z</time></trkpt><trkpt lat="46.24691399714961" lon="6.63714584986102"><ele>758.3333333333333</ele><time>2026-05-01T15:08:44Z</time></trkpt><trkpt lat="46.24696014384641" lon="6.636947863272754"><ele>761.0</ele><time>2026-05-01T15:08:45Z</time></trkpt><trkpt lat="46.24702394162412" lon="6.636769558197263"><ele>766.25</ele><time>2026-05-01T15:08:46Z</time></trkpt><trkpt lat="46.247120704432874" lon="6.636623025211773"><ele>771.5</ele><time>2026-05-01T15:08:47Z</time></trkpt><trkpt lat="46.24721835957969" lon="6.636499257928771"><ele>776.75</ele><time>2026-05-01T15:08:48Z</time></trkpt><trkpt lat="46.24732538511525" lon="6.6364141841354245"><ele>782.0</ele><time>2026-05-01T15:08:49Z</time></trkpt><trkpt lat="46.24739056225473" lon="6.636372960996466"><ele>782.6666666666667</ele><time>2026-05-01T15:08:50Z</time></trkpt><trkpt lat="46.247474799802674" lon="6.636323950660126"><ele>783.3333333333333</ele><time>2026-05-01T15:08:51Z</time></trkpt><trkpt lat="46.24754055273966" lon="6.63628946260949"><ele>784.0</ele><time>2026-05-01T15:08:52Z</time></trkpt><trkpt lat="46.2479519342538" lon="6.636051263774488"><ele>786.0</ele><time>2026-05-01T15:08:53.999Z</time></trkpt><trkpt lat="46.248113784893036" lon="6.635702001553444"><ele>788.0</ele><time>2026-05-01T15:08:54.999Z</time></trkpt><trkpt lat="46.248177611656715" lon="6.635496688210482"><ele>790.0</ele><time>2026-05-01T15:08:55.999Z</time></trkpt><trkpt lat="46.24825482600569" lon="6.635279713081693"><ele>784.3333333333333</ele><time>2026-05-01T15:08:56.999Z</time></trkpt><trkpt lat="46.248347362517045" lon="6.635050102196467"><ele>778.6666666666667</ele><time>2026-05-01T15:08:57.999Z</time></trkpt><trkpt lat="46.24845279057011" lon="6.634802394608391"><ele>773.0</ele><time>2026-05-01T15:08:58.999Z</time></trkpt><trkpt lat="46.24856618837549" lon="6.634543955012994"><ele>778.6666666666667</ele><time>2026-05-01T15:08:59.999Z</time></trkpt><trkpt lat="46.24868045335955" lon="6.634330027376116"><ele>784.3333333333333</ele><time>2026-05-01T15:09:00.999Z</time></trkpt><trkpt lat="46.24881924995189" lon="6.6341145807994755"><ele>790.0</ele><time>2026-05-01T15:09:01.999Z</time></trkpt><trkpt lat="46.24897666223726" lon="6.633847691669443"><ele>779.0</ele><time>2026-05-01T15:09:02.999Z</time></trkpt><trkpt lat="46.249123954354154" lon="6.633521631636778"><ele>768.0</ele><time>2026-05-01T15:09:03.999Z</time></trkpt><trkpt lat="46.24927458023995" lon="6.633170068352676"><ele>768.0</ele><time>2026-05-01T15:09:04.999Z</time></trkpt><trkpt lat="46.24942051534524" lon="6.63283183588401"><ele>768.0</ele><time>2026-05-01T15:09:05.999Z</time></trkpt><trkpt lat="46.2495545814415" lon="6.632534230640606"><ele>768.0</ele><time>2026-05-01T15:09:06.999Z</time></trkpt><trkpt lat="46.24967865709156" lon="6.632296438018788"><ele>768.0</ele><time>2026-05-01T15:09:07.999Z</time></trkpt><trkpt lat="46.249815306961324" lon="6.6321076450965055"><ele>768.0</ele><time>2026-05-01T15:09:08.999Z</time></trkpt><trkpt lat="46.24997165029423" lon="6.631960778544161"><ele>762.3333333333334</ele><time>2026-05-01T15:09:09.999Z</time></trkpt><trkpt lat="46.250164275975926" lon="6.6318262159509525"><ele>756.6666666666667</ele><time>2026-05-01T15:09:10.999Z</time></trkpt><trkpt lat="46.250374518840644" lon="6.631691675047641"><ele>751.0</ele><time>2026-05-01T15:09:11.999Z</time></trkpt><trkpt lat="46.2505885444811" lon="6.6315877218473815"><ele>752.6666666666667</ele><time>2026-05-01T15:09:12.999Z</time></trkpt><trkpt lat="46.250786113494215" lon="6.6315348736365385"><ele>754.3333333333334</ele><time>2026-05-01T15:09:13.999Z</time></trkpt><trkpt lat="46.25096317062795" lon="6.6314923002653625"><ele>756.0</ele><time>2026-05-01T15:09:14.999Z</time></trkpt><trkpt lat="46.251122175290305" lon="6.631441154612199"><ele>756.0</ele><time>2026-05-01T15:09:15.999Z</time></trkpt><trkpt lat="46.25126451073777" lon="6.631341802359108"><ele>756.0</ele><time>2026-05-01T15:09:16.999Z</time></trkpt><trkpt lat="46.251407995907584" lon="6.6311907757005395"><ele>756.0</ele><time>2026-05-01T15:09:17.999Z</time></trkpt><trkpt lat="46.25155769927213" lon="6.631026957969179"><ele>751.6666666666666</ele><time>2026-05-01T15:09:18.999Z</time></trkpt><trkpt lat="46.251708745606194" lon="6.630847159332234"><ele>747.3333333333333</ele><time>2026-05-01T15:09:19.999Z</time></trkpt><trkpt lat="46.25186376701004" lon="6.6306616516410575"><ele>743.0</ele><time>2026-05-01T15:09:20.999Z</time></trkpt><trkpt lat="46.25201376229953" lon="6.630515233565235"><ele>743.0</ele><time>2026-05-01T15:09:21.999Z</time></trkpt><trkpt lat="46.25220427054925" lon="6.630437715365311"><ele>743.0</ele><time>2026-05-01T15:09:22.999Z</time></trkpt><trkpt lat="46.25242191103403" lon="6.630346971026555"><ele>743.0</ele><time>2026-05-01T15:09:23.999Z</time></trkpt><trkpt lat="46.25266319252655" lon="6.630235688321852"><ele>740.0</ele><time>2026-05-01T15:09:24.999Z</time></trkpt><trkpt lat="46.25291537798295" lon="6.630073517059894"><ele>737.0</ele><time>2026-05-01T15:09:25.999Z</time></trkpt><trkpt lat="46.25315336136199" lon="6.629851822879387"><ele>736.3333333333333</ele><time>2026-05-01T15:09:26.999Z</time></trkpt><trkpt lat="46.2533661789562" lon="6.629665174619173"><ele>735.6666666666666</ele><time>2026-05-01T15:09:27.999Z</time></trkpt><trkpt lat="46.25353512615737" lon="6.629523080925469"><ele>735.0</ele><time>2026-05-01T15:09:28.999Z</time></trkpt><trkpt lat="46.25371287734469" lon="6.629473226636058"><ele>733.3333333333334</ele><time>2026-05-01T15:09:29.999Z</time></trkpt><trkpt lat="46.2538996439585" lon="6.629435029368983"><ele>731.6666666666667</ele><time>2026-05-01T15:09:30.999Z</time></trkpt><trkpt lat="46.25411583833168" lon="6.6294274229451355"><ele>730.0</ele><time>2026-05-01T15:09:31.999Z</time></trkpt><trkpt lat="46.254338655057474" lon="6.629402668440007"><ele>730.0</ele><time>2026-05-01T15:09:32.999Z</time></trkpt><trkpt lat="46.25453578587842" lon="6.629403514587635"><ele>730.0</ele><time>2026-05-01T15:09:33.999Z</time></trkpt><trkpt lat="46.25473536736399" lon="6.629371784692146"><ele>730.0</ele><time>2026-05-01T15:09:34.999Z</time></trkpt><trkpt lat="46.25493846902112" lon="6.62929261935577"><ele>729.3333333333334</ele><time>2026-05-01T15:09:35.999Z</time></trkpt><trkpt lat="46.255122821793435" lon="6.62919265633233"><ele>728.6666666666666</ele><time>2026-05-01T15:09:36.999Z</time></trkpt><trkpt lat="46.25528226146181" lon="6.6290527725320345"><ele>728.0</ele><time>2026-05-01T15:09:37.999Z</time></trkpt><trkpt lat="46.255423805977564" lon="6.628878752845197"><ele>728.0</ele><time>2026-05-01T15:09:38.999Z</time></trkpt><trkpt lat="46.2555576625975" lon="6.628651073917403"><ele>728.0</ele><time>2026-05-01T15:09:39.999Z</time></trkpt><trkpt lat="46.25568985358616" lon="6.6284040687821735"><ele>728.0</ele><time>2026-05-01T15:09:40.999Z</time></trkpt><trkpt lat="46.25582396020382" lon="6.628163834295267"><ele>726.0</ele><time>2026-05-01T15:09:41.999Z</time></trkpt><trkpt lat="46.255950475857524" lon="6.627953100621164"><ele>724.0</ele><time>2026-05-01T15:09:42.999Z</time></trkpt><trkpt lat="46.25606198873421" lon="6.6277553909173825"><ele>722.0</ele><time>2026-05-01T15:09:43.999Z</time></trkpt><trkpt lat="46.25615189691996" lon="6.627567718781426"><ele>721.3333333333333</ele><time>2026-05-01T15:09:44.999Z</time></trkpt><trkpt lat="46.25624007811875" lon="6.627417177209235"><ele>720.6666666666666</ele><time>2026-05-01T15:09:45.999Z</time></trkpt><trkpt lat="46.25621066959287" lon="6.627177000215738"><ele>720.0</ele><time>2026-05-01T15:09:46.999Z</time></trkpt><trkpt lat="46.25618615018408" lon="6.626968552642391"><ele>724.0</ele><time>2026-05-01T15:09:47.999Z</time></trkpt><trkpt lat="46.2561204033333" lon="6.6267463006065634"><ele>728.0</ele><time>2026-05-01T15:09:48.999Z</time></trkpt><trkpt lat="46.2560548588982" lon="6.626546560981123"><ele>732.0</ele><time>2026-05-01T15:09:49.999Z</time></trkpt><trkpt lat="46.25601191376732" lon="6.626347860093189"><ele>732.0</ele><time>2026-05-01T15:09:50.999Z</time></trkpt><trkpt lat="46.25600053716406" lon="6.626165211977082"><ele>732.0</ele><time>2026-05-01T15:09:51.999Z</time></trkpt><trkpt lat="46.25601410949333" lon="6.625988530196115"><ele>732.0</ele><time>2026-05-01T15:09:52.999Z</time></trkpt><trkpt lat="46.25606028709978" lon="6.625828096440581"><ele>732.0</ele><time>2026-05-01T15:09:53.999Z</time></trkpt><trkpt lat="46.25614636533169" lon="6.6256874407957564"><ele>732.6666666666666</ele><time>2026-05-01T15:09:54.999Z</time></trkpt><trkpt lat="46.25627371113762" lon="6.625583230245508"><ele>733.3333333333333</ele><time>2026-05-01T15:09:55.999Z</time></trkpt><trkpt lat="46.25643210232161" lon="6.625495600610702"><ele>734.0</ele><time>2026-05-01T15:09:56.999Z</time></trkpt><trkpt lat="46.25661441140532" lon="6.62543671046471"><ele>734.0</ele><time>2026-05-01T15:09:57.999Z</time></trkpt><trkpt lat="46.25678510925495" lon="6.62540262878972"><ele>734.0</ele><time>2026-05-01T15:09:58.999Z</time></trkpt><trkpt lat="46.25694911841201" lon="6.625404686352775"><ele>734.0</ele><time>2026-05-01T15:09:59.999Z</time></trkpt><trkpt lat="46.25711934058095" lon="6.625446117603709"><ele>734.0</ele><time>2026-05-01T15:10:00.999Z</time></trkpt><trkpt lat="46.257271566107" lon="6.62552172799907"><ele>734.0</ele><time>2026-05-01T15:10:01.999Z</time></trkpt><trkpt lat="46.257414644923195" lon="6.625628917023831"><ele>734.0</ele><time>2026-05-01T15:10:02.999Z</time></trkpt><trkpt lat="46.2575534902172" lon="6.625718271320482"><ele>733.25</ele><time>2026-05-01T15:10:03.999Z</time></trkpt><trkpt lat="46.25769620236982" lon="6.6257430263247565"><ele>732.5</ele><time>2026-05-01T15:10:04.999Z</time></trkpt><trkpt lat="46.25782810469687" lon="6.62572277682629"><ele>731.75</ele><time>2026-05-01T15:10:05.999Z</time></trkpt><trkpt lat="46.25795920017756" lon="6.625625323538591"><ele>731.0</ele><time>2026-05-01T15:10:06.999Z</time></trkpt><trkpt lat="46.25809074584766" lon="6.625466081756081"><ele>726.6666666666666</ele><time>2026-05-01T15:10:07.999Z</time></trkpt><trkpt lat="46.25821159981976" lon="6.625242465955735"><ele>722.3333333333334</ele><time>2026-05-01T15:10:08.999Z</time></trkpt><trkpt lat="46.258336945100794" lon="6.624981333868914"><ele>718.0</ele><time>2026-05-01T15:10:09.999Z</time></trkpt><trkpt lat="46.25845511585835" lon="6.624733858329681"><ele>718.0</ele><time>2026-05-01T15:10:10.999Z</time></trkpt><trkpt lat="46.258587678786306" lon="6.624531887154466"><ele>718.0</ele><time>2026-05-01T15:10:11.999Z</time></trkpt><trkpt lat="46.258775492773886" lon="6.624351679830352"><ele>718.0</ele><time>2026-05-01T15:10:12.999Z</time></trkpt><trkpt lat="46.25898624290675" lon="6.624155418221457"><ele>718.5</ele><time>2026-05-01T15:10:13.999Z</time></trkpt><trkpt lat="46.25920727952615" lon="6.623899220803159"><ele>719.0</ele><time>2026-05-01T15:10:14.999Z</time></trkpt><trkpt lat="46.25940289802941" lon="6.623614279855639"><ele>719.0</ele><time>2026-05-01T15:10:15.999Z</time></trkpt><trkpt lat="46.2595631319453" lon="6.623365983609585"><ele>719.0</ele><time>2026-05-01T15:10:16.999Z</time></trkpt><trkpt lat="46.25971271326049" lon="6.623151040030008"><ele>719.0</ele><time>2026-05-01T15:10:18Z</time></trkpt><trkpt lat="46.25985311689159" lon="6.622978372673356"><ele>718.5</ele><time>2026-05-01T15:10:19Z</time></trkpt><trkpt lat="46.259983963951385" lon="6.622836858403639"><ele>718.0</ele><time>2026-05-01T15:10:20Z</time></trkpt><trkpt lat="46.26010863755129" lon="6.622727482357861"><ele>717.5</ele><time>2026-05-01T15:10:21Z</time></trkpt><trkpt lat="46.26023697621264" lon="6.6226791748111795"><ele>717.0</ele><time>2026-05-01T15:10:22Z</time></trkpt><trkpt lat="46.260371044095336" lon="6.622684095568745"><ele>717.0</ele><time>2026-05-01T15:10:23Z</time></trkpt><trkpt lat="46.26049761885366" lon="6.622760666210017"><ele>717.0</ele><time>2026-05-01T15:10:24Z</time></trkpt><trkpt lat="46.260609429974814" lon="6.622910351434057"><ele>717.0</ele><time>2026-05-01T15:10:25Z</time></trkpt><trkpt lat="46.260713487839055" lon="6.623108478977553"><ele>715.0</ele><time>2026-05-01T15:10:26Z</time></trkpt><trkpt lat="46.26083203610796" lon="6.623330387199922"><ele>713.0</ele><time>2026-05-01T15:10:27Z</time></trkpt><trkpt lat="46.260970963863734" lon="6.62351020627365"><ele>711.0</ele><time>2026-05-01T15:10:28Z</time></trkpt><trkpt lat="46.261111745309435" lon="6.623634264793666"><ele>712.0</ele><time>2026-05-01T15:10:29Z</time></trkpt><trkpt lat="46.261263369376806" lon="6.623709460019827"><ele>713.0</ele><time>2026-05-01T15:10:30Z</time></trkpt><trkpt lat="46.26143565841358" lon="6.623730248214836"><ele>714.0</ele><time>2026-05-01T15:10:31Z</time></trkpt><trkpt lat="46.26162867358201" lon="6.623680304328656"><ele>710.0</ele><time>2026-05-01T15:10:32Z</time></trkpt><trkpt lat="46.26184469908555" lon="6.623600220193175"><ele>706.0</ele><time>2026-05-01T15:10:33Z</time></trkpt><trkpt lat="46.26207511344818" lon="6.623519624780842"><ele>705.0</ele><time>2026-05-01T15:10:34Z</time></trkpt><trkpt lat="46.26230861997706" lon="6.6234186629001925"><ele>704.0</ele><time>2026-05-01T15:10:35Z</time></trkpt><trkpt lat="46.26251993903528" lon="6.623268423748225"><ele>704.0</ele><time>2026-05-01T15:10:36Z</time></trkpt><trkpt lat="46.26269065501876" lon="6.623081575982598"><ele>704.0</ele><time>2026-05-01T15:10:37Z</time></trkpt><trkpt lat="46.26288230906752" lon="6.622914205106878"><ele>704.0</ele><time>2026-05-01T15:10:38Z</time></trkpt><trkpt lat="46.263083071649625" lon="6.622780606597151"><ele>703.6666666666666</ele><time>2026-05-01T15:10:39Z</time></trkpt><trkpt lat="46.26325532187566" lon="6.622623318516526"><ele>703.3333333333334</ele><time>2026-05-01T15:10:40Z</time></trkpt><trkpt lat="46.26341479579231" lon="6.622418908837537"><ele>703.0</ele><time>2026-05-01T15:10:41Z</time></trkpt><trkpt lat="46.263558537328606" lon="6.622186015920315"><ele>705.6666666666667</ele><time>2026-05-01T15:10:42Z</time></trkpt><trkpt lat="46.26368056167844" lon="6.621972555993132"><ele>708.3333333333334</ele><time>2026-05-01T15:10:43Z</time></trkpt><trkpt lat="46.26377879365472" lon="6.62177283598743"><ele>711.0</ele><time>2026-05-01T15:10:44Z</time></trkpt><trkpt lat="46.26384990333677" lon="6.621569790503306"><ele>711.0</ele><time>2026-05-01T15:10:45Z</time></trkpt><trkpt lat="46.263900560143746" lon="6.621350807143457"><ele>711.0</ele><time>2026-05-01T15:10:46Z</time></trkpt><trkpt lat="46.263946737610944" lon="6.621117317263521"><ele>711.0</ele><time>2026-05-01T15:10:47Z</time></trkpt><trkpt lat="46.263987052699484" lon="6.620901625075049"><ele>711.5</ele><time>2026-05-01T15:10:48Z</time></trkpt><trkpt lat="46.26403988742124" lon="6.6207302028977395"><ele>712.0</ele><time>2026-05-01T15:10:49Z</time></trkpt><trkpt lat="46.26412742394593" lon="6.620615305464487"><ele>712.5</ele><time>2026-05-01T15:10:50Z</time></trkpt><trkpt lat="46.26425610279257" lon="6.620540850932344"><ele>713.0</ele><time>2026-05-01T15:10:51Z</time></trkpt><trkpt lat="46.26440365435461" lon="6.62050473098689"><ele>713.0</ele><time>2026-05-01T15:10:52Z</time></trkpt><trkpt lat="46.26456410018162" lon="6.620492260005036"><ele>713.0</ele><time>2026-05-01T15:10:53Z</time></trkpt><trkpt lat="46.2647334555073" lon="6.620531514145312"><ele>713.0</ele><time>2026-05-01T15:10:53.999Z</time></trkpt><trkpt lat="46.26488387617024" lon="6.620545973939683"><ele>716.0</ele><time>2026-05-01T15:10:54.999Z</time></trkpt><trkpt lat="46.26502094165561" lon="6.620557131733621"><ele>719.0</ele><time>2026-05-01T15:10:55.999Z</time></trkpt><trkpt lat="46.265157466247565" lon="6.62059830854911"><ele>722.0</ele><time>2026-05-01T15:10:56.999Z</time></trkpt><trkpt lat="46.265296608516216" lon="6.6206723971137516"><ele>725.0</ele><time>2026-05-01T15:10:57.999Z</time></trkpt><trkpt lat="46.2654569414183" lon="6.620739594577111"><ele>725.0</ele><time>2026-05-01T15:10:58.999Z</time></trkpt><trkpt lat="46.265597721362106" lon="6.620875877328286"><ele>725.0</ele><time>2026-05-01T15:10:59.999Z</time></trkpt><trkpt lat="46.265755928706035" lon="6.621020294356116"><ele>725.0</ele><time>2026-05-01T15:11:00.999Z</time></trkpt><trkpt lat="46.265927718192046" lon="6.62119406851646"><ele>722.0</ele><time>2026-05-01T15:11:01.999Z</time></trkpt><trkpt lat="46.26611876759507" lon="6.621394551452253"><ele>719.0</ele><time>2026-05-01T15:11:02.999Z</time></trkpt><trkpt lat="46.26632812714846" lon="6.62160921397578"><ele>706.5</ele><time>2026-05-01T15:11:03.999Z</time></trkpt><trkpt lat="46.26652530322398" lon="6.621796481783584"><ele>694.0</ele><time>2026-05-01T15:11:04.999Z</time></trkpt><trkpt lat="46.266733598492706" lon="6.621931819246729"><ele>699.0</ele><time>2026-05-01T15:11:05.999Z</time></trkpt><trkpt lat="46.266939909791674" lon="6.622084902834836"><ele>704.0</ele><time>2026-05-01T15:11:06.999Z</time></trkpt><trkpt lat="46.26717371095577" lon="6.622174607265518"><ele>700.0</ele><time>2026-05-01T15:11:07.999Z</time></trkpt><trkpt lat="46.26740952001935" lon="6.622217222970278"><ele>696.0</ele><time>2026-05-01T15:11:08.999Z</time></trkpt><trkpt lat="46.26764231366969" lon="6.62226954346389"><ele>696.0</ele><time>2026-05-01T15:11:09.999Z</time></trkpt><trkpt lat="46.26786813742808" lon="6.6222422443217575"><ele>696.0</ele><time>2026-05-01T15:11:10.999Z</time></trkpt><trkpt lat="46.268101192859675" lon="6.622216006422011"><ele>691.5</ele><time>2026-05-01T15:11:11.999Z</time></trkpt><trkpt lat="46.26833754221132" lon="6.622148984363037"><ele>687.0</ele><time>2026-05-01T15:11:12.999Z</time></trkpt><trkpt lat="46.268582482129176" lon="6.622049640357003"><ele>686.5</ele><time>2026-05-01T15:11:13.999Z</time></trkpt><trkpt lat="46.26884690358025" lon="6.621930876221283"><ele>686.0</ele><time>2026-05-01T15:11:14.999Z</time></trkpt><trkpt lat="46.26913222510074" lon="6.62180962491382"><ele>687.0</ele><time>2026-05-01T15:11:15.999Z</time></trkpt><trkpt lat="46.269416592058036" lon="6.621689943330574"><ele>688.0</ele><time>2026-05-01T15:11:16.999Z</time></trkpt><trkpt lat="46.26968808626826" lon="6.621576370868627"><ele>686.0</ele><time>2026-05-01T15:11:17.999Z</time></trkpt><trkpt lat="46.269948702811625" lon="6.621468522639738"><ele>684.0</ele><time>2026-05-01T15:11:18.999Z</time></trkpt><trkpt lat="46.27020770297751" lon="6.6213682907885305"><ele>684.0</ele><time>2026-05-01T15:11:19.999Z</time></trkpt><trkpt lat="46.27044366869421" lon="6.621271657935586"><ele>684.0</ele><time>2026-05-01T15:11:20.999Z</time></trkpt><trkpt lat="46.27067911056242" lon="6.621174370562037"><ele>683.5</ele><time>2026-05-01T15:11:21.999Z</time></trkpt><trkpt lat="46.27090972026074" lon="6.621077975956461"><ele>683.0</ele><time>2026-05-01T15:11:22.999Z</time></trkpt><trkpt lat="46.271141456143745" lon="6.620984720046875"><ele>683.0</ele><time>2026-05-01T15:11:23.999Z</time></trkpt><trkpt lat="46.27136973190047" lon="6.620893414161938"><ele>683.0</ele><time>2026-05-01T15:11:24.999Z</time></trkpt><trkpt lat="46.27159715463704" lon="6.620798869596559"><ele>683.0</ele><time>2026-05-01T15:11:25.999Z</time></trkpt><trkpt lat="46.27182259341774" lon="6.620703171142963"><ele>683.0</ele><time>2026-05-01T15:11:26.999Z</time></trkpt><trkpt lat="46.272048117576894" lon="6.620607648212456"><ele>683.0</ele><time>2026-05-01T15:11:27.999Z</time></trkpt><trkpt lat="46.2722718218265" lon="6.620511541797345"><ele>683.0</ele><time>2026-05-01T15:11:28.999Z</time></trkpt><trkpt lat="46.272494458390035" lon="6.6204214780595985"><ele>682.0</ele><time>2026-05-01T15:11:29.999Z</time></trkpt><trkpt lat="46.272721118670106" lon="6.620330654398804"><ele>681.0</ele><time>2026-05-01T15:11:30.999Z</time></trkpt><trkpt lat="46.27294914061891" lon="6.620240794475352"><ele>681.0</ele><time>2026-05-01T15:11:31.999Z</time></trkpt><trkpt lat="46.273177717959214" lon="6.620147073593043"><ele>681.0</ele><time>2026-05-01T15:11:32.999Z</time></trkpt><trkpt lat="46.27339971931082" lon="6.620055313142311"><ele>681.0</ele><time>2026-05-01T15:11:33.999Z</time></trkpt><trkpt lat="46.27362453514994" lon="6.619965822018844"><ele>681.0</ele><time>2026-05-01T15:11:34.999Z</time></trkpt><trkpt lat="46.27385116832022" lon="6.619875074826582"><ele>680.5</ele><time>2026-05-01T15:11:35.999Z</time></trkpt><trkpt lat="46.27407992942231" lon="6.619781460966392"><ele>680.0</ele><time>2026-05-01T15:11:36.999Z</time></trkpt><trkpt lat="46.27430440127827" lon="6.619685819048063"><ele>680.0</ele><time>2026-05-01T15:11:37.999Z</time></trkpt><trkpt lat="46.274532021561285" lon="6.6195923747075085"><ele>680.0</ele><time>2026-05-01T15:11:38.999Z</time></trkpt><trkpt lat="46.274767288291514" lon="6.619497643540797"><ele>678.0</ele><time>2026-05-01T15:11:39.999Z</time></trkpt><trkpt lat="46.275003577715495" lon="6.619405907529114"><ele>676.0</ele><time>2026-05-01T15:11:40.999Z</time></trkpt><trkpt lat="46.27523953063064" lon="6.619311094954072"><ele>676.0</ele><time>2026-05-01T15:11:41.999Z</time></trkpt><trkpt lat="46.27548776690108" lon="6.619213305857603"><ele>676.0</ele><time>2026-05-01T15:11:42.999Z</time></trkpt><trkpt lat="46.27573126312017" lon="6.619114537137187"><ele>675.0</ele><time>2026-05-01T15:11:43.999Z</time></trkpt><trkpt lat="46.27598117967403" lon="6.6190150865708315"><ele>674.0</ele><time>2026-05-01T15:11:44.999Z</time></trkpt><trkpt lat="46.27623348853566" lon="6.618913310940476"><ele>676.0</ele><time>2026-05-01T15:11:45.999Z</time></trkpt><trkpt lat="46.27650170104594" lon="6.618800767357234"><ele>678.0</ele><time>2026-05-01T15:11:46.999Z</time></trkpt><trkpt lat="46.27678777378254" lon="6.618686728183652"><ele>676.0</ele><time>2026-05-01T15:11:47.999Z</time></trkpt><trkpt lat="46.27708645320941" lon="6.618565011597867"><ele>674.0</ele><time>2026-05-01T15:11:48.999Z</time></trkpt><trkpt lat="46.27739512271438" lon="6.618445315555744"><ele>673.5</ele><time>2026-05-01T15:11:49.999Z</time></trkpt><trkpt lat="46.27771461080616" lon="6.6183198945277155"><ele>673.0</ele><time>2026-05-01T15:11:50.999Z</time></trkpt><trkpt lat="46.27802203272407" lon="6.618195548264788"><ele>674.5</ele><time>2026-05-01T15:11:51.999Z</time></trkpt><trkpt lat="46.27830442539472" lon="6.618085289237789"><ele>676.0</ele><time>2026-05-01T15:11:52.999Z</time></trkpt><trkpt lat="46.278567964931185" lon="6.617981463076706"><ele>676.0</ele><time>2026-05-01T15:11:53.999Z</time></trkpt><trkpt lat="46.278825132773115" lon="6.617880800981024"><ele>676.0</ele><time>2026-05-01T15:11:54.999Z</time></trkpt><trkpt lat="46.279097371919505" lon="6.617777576844164"><ele>673.0</ele><time>2026-05-01T15:11:55.999Z</time></trkpt><trkpt lat="46.27937200463834" lon="6.617680446487748"><ele>670.0</ele><time>2026-05-01T15:11:56.999Z</time></trkpt><trkpt lat="46.27962000767405" lon="6.61760384742981"><ele>672.5</ele><time>2026-05-01T15:11:57.999Z</time></trkpt><trkpt lat="46.27985584458385" lon="6.617541107933087"><ele>675.0</ele><time>2026-05-01T15:11:58.999Z</time></trkpt><trkpt lat="46.280087944326795" lon="6.61748980742267"><ele>675.0</ele><time>2026-05-01T15:11:59.999Z</time></trkpt><trkpt lat="46.2803374007324" lon="6.617440119763131"><ele>675.0</ele><time>2026-05-01T15:12:00.999Z</time></trkpt><trkpt lat="46.280601889206096" lon="6.617380130100881"><ele>674.5</ele><time>2026-05-01T15:12:01.999Z</time></trkpt><trkpt lat="46.28086316105221" lon="6.617322979381767"><ele>674.0</ele><time>2026-05-01T15:12:02.999Z</time></trkpt><trkpt lat="46.28110370374315" lon="6.617274792880257"><ele>674.0</ele><time>2026-05-01T15:12:03.999Z</time></trkpt><trkpt lat="46.28135233893465" lon="6.6172231325380935"><ele>674.0</ele><time>2026-05-01T15:12:04.999Z</time></trkpt><trkpt lat="46.281615377063375" lon="6.617162397011736"><ele>674.5</ele><time>2026-05-01T15:12:05.999Z</time></trkpt><trkpt lat="46.281872573844794" lon="6.61710727585364"><ele>675.0</ele><time>2026-05-01T15:12:06.999Z</time></trkpt><trkpt lat="46.282111523718264" lon="6.617054581892203"><ele>676.0</ele><time>2026-05-01T15:12:07.999Z</time></trkpt><trkpt lat="46.28233434157645" lon="6.61700807966504"><ele>677.0</ele><time>2026-05-01T15:12:08.999Z</time></trkpt><trkpt lat="46.28253886812898" lon="6.616961398082445"><ele>678.0</ele><time>2026-05-01T15:12:09.999Z</time></trkpt><trkpt lat="46.28272772213528" lon="6.616909213933856"><ele>674.6666666666666</ele><time>2026-05-01T15:12:10.999Z</time></trkpt><trkpt lat="46.28289204905802" lon="6.6168428339310195"><ele>671.3333333333333</ele><time>2026-05-01T15:12:11.999Z</time></trkpt><trkpt lat="46.28304737753082" lon="6.616748588328345"><ele>668.0</ele><time>2026-05-01T15:12:12.999Z</time></trkpt><trkpt lat="46.283174038466186" lon="6.616616890046887"><ele>668.0</ele><time>2026-05-01T15:12:13.999Z</time></trkpt><trkpt lat="46.28328884599018" lon="6.61645905855974"><ele>668.0</ele><time>2026-05-01T15:12:14.999Z</time></trkpt><trkpt lat="46.283404456169" lon="6.616294007693787"><ele>668.0</ele><time>2026-05-01T15:12:15.999Z</time></trkpt><trkpt lat="46.28352486161765" lon="6.616151587025037"><ele>671.0</ele><time>2026-05-01T15:12:16.999Z</time></trkpt><trkpt lat="46.2836703254204" lon="6.616062248456937"><ele>674.0</ele><time>2026-05-01T15:12:17.999Z</time></trkpt><trkpt lat="46.28383999395908" lon="6.616027907527458"><ele>677.0</ele><time>2026-05-01T15:12:18.999Z</time></trkpt><trkpt lat="46.284028281314846" lon="6.616030692555258"><ele>677.0</ele><time>2026-05-01T15:12:19.999Z</time></trkpt><trkpt lat="46.284223118043215" lon="6.616007686305218"><ele>677.0</ele><time>2026-05-01T15:12:20.999Z</time></trkpt><trkpt lat="46.284413250687955" lon="6.615940532859473"><ele>677.0</ele><time>2026-05-01T15:12:21.999Z</time></trkpt><trkpt lat="46.284597206532595" lon="6.6158076536909185"><ele>674.3333333333333</ele><time>2026-05-01T15:12:23Z</time></trkpt><trkpt lat="46.28476738329892" lon="6.61564604366325"><ele>671.6666666666666</ele><time>2026-05-01T15:12:24Z</time></trkpt><trkpt lat="46.28494746232058" lon="6.615481213598196"><ele>669.0</ele><time>2026-05-01T15:12:25Z</time></trkpt><trkpt lat="46.28515263678967" lon="6.615351984380586"><ele>672.5</ele><time>2026-05-01T15:12:26Z</time></trkpt><trkpt lat="46.285385069076156" lon="6.6152560573941415"><ele>676.0</ele><time>2026-05-01T15:12:27Z</time></trkpt><trkpt lat="46.28561165043937" lon="6.615167806268879"><ele>676.0</ele><time>2026-05-01T15:12:28Z</time></trkpt><trkpt lat="46.28582136467053" lon="6.6151147969953525"><ele>676.0</ele><time>2026-05-01T15:12:29Z</time></trkpt><trkpt lat="46.28604080323189" lon="6.6151004617399645"><ele>676.0</ele><time>2026-05-01T15:12:30Z</time></trkpt><trkpt lat="46.28627150068501" lon="6.615136461098232"><ele>673.6666666666667</ele><time>2026-05-01T15:12:31Z</time></trkpt><trkpt lat="46.28649526310236" lon="6.615175741436644"><ele>671.3333333333334</ele><time>2026-05-01T15:12:32Z</time></trkpt><trkpt lat="46.286715344457555" lon="6.615214279195367"><ele>669.0</ele><time>2026-05-01T15:12:33Z</time></trkpt><trkpt lat="46.28694154148724" lon="6.615245591668499"><ele>669.0</ele><time>2026-05-01T15:12:34Z</time></trkpt><trkpt lat="46.28717812769197" lon="6.615239511030137"><ele>669.0</ele><time>2026-05-01T15:12:35Z</time></trkpt><trkpt lat="46.287423334382375" lon="6.61519400752317"><ele>669.5</ele><time>2026-05-01T15:12:36Z</time></trkpt><trkpt lat="46.28767768188486" lon="6.615124566668746"><ele>670.0</ele><time>2026-05-01T15:12:37Z</time></trkpt><trkpt lat="46.28794433347442" lon="6.615032485193318"><ele>670.5</ele><time>2026-05-01T15:12:38Z</time></trkpt><trkpt lat="46.288173146499034" lon="6.614933115618842"><ele>671.0</ele><time>2026-05-01T15:12:39Z</time></trkpt><trkpt lat="46.28838730492803" lon="6.614826304650782"><ele>671.0</ele><time>2026-05-01T15:12:40Z</time></trkpt><trkpt lat="46.28859058413862" lon="6.614698401208684"><ele>671.0</ele><time>2026-05-01T15:12:41Z</time></trkpt><trkpt lat="46.2887713013374" lon="6.614585156830488"><ele>671.0</ele><time>2026-05-01T15:12:42Z</time></trkpt><trkpt lat="46.28895331270915" lon="6.614504779243686"><ele>675.3333333333333</ele><time>2026-05-01T15:12:43Z</time></trkpt><trkpt lat="46.28914187420786" lon="6.614454994875723"><ele>679.6666666666666</ele><time>2026-05-01T15:12:44Z</time></trkpt><trkpt lat="46.289330287693765" lon="6.61443215143033"><ele>684.0</ele><time>2026-05-01T15:12:45Z</time></trkpt><trkpt lat="46.28951291201114" lon="6.614440060466482"><ele>679.0</ele><time>2026-05-01T15:12:46Z</time></trkpt><trkpt lat="46.28969929324058" lon="6.614490592322525"><ele>674.0</ele><time>2026-05-01T15:12:47Z</time></trkpt><trkpt lat="46.28987269873486" lon="6.614578102937209"><ele>669.0</ele><time>2026-05-01T15:12:48Z</time></trkpt><trkpt lat="46.290020946985706" lon="6.614714563904904"><ele>669.0</ele><time>2026-05-01T15:12:49Z</time></trkpt><trkpt lat="46.290148499884765" lon="6.614895362878902"><ele>669.0</ele><time>2026-05-01T15:12:50Z</time></trkpt><trkpt lat="46.2902867794243" lon="6.6150653716015855"><ele>669.0</ele><time>2026-05-01T15:12:51Z</time></trkpt><trkpt lat="46.29045721334662" lon="6.61519243789498"><ele>667.3333333333334</ele><time>2026-05-01T15:12:52Z</time></trkpt><trkpt lat="46.29064145053779" lon="6.615292420151218"><ele>665.6666666666667</ele><time>2026-05-01T15:12:53Z</time></trkpt><trkpt lat="46.2908311437739" lon="6.61535757693993"><ele>664.0</ele><time>2026-05-01T15:12:54Z</time></trkpt><trkpt lat="46.2910253532346" lon="6.615380561279353"><ele>664.0</ele><time>2026-05-01T15:12:55Z</time></trkpt><trkpt lat="46.29123886458546" lon="6.6153627811783915"><ele>664.0</ele><time>2026-05-01T15:12:56Z</time></trkpt><trkpt lat="46.291463658159" lon="6.615348754336932"><ele>664.0</ele><time>2026-05-01T15:12:57Z</time></trkpt><trkpt lat="46.29170474685547" lon="6.615339614356248"><ele>665.0</ele><time>2026-05-01T15:12:58Z</time></trkpt><trkpt lat="46.29193831647329" lon="6.615334574783829"><ele>666.0</ele><time>2026-05-01T15:12:59Z</time></trkpt><trkpt lat="46.29215357310983" lon="6.615331247553685"><ele>667.0</ele><time>2026-05-01T15:13:00Z</time></trkpt><trkpt lat="46.292351303504" lon="6.615321006203756"><ele>672.0</ele><time>2026-05-01T15:13:00.999Z</time></trkpt><trkpt lat="46.29253642454993" lon="6.615286023346047"><ele>677.0</ele><time>2026-05-01T15:13:01.999Z</time></trkpt><trkpt lat="46.292730413720484" lon="6.6152168313879995"><ele>682.0</ele><time>2026-05-01T15:13:02.999Z</time></trkpt><trkpt lat="46.29292166699366" lon="6.615115626990013"><ele>679.6666666666667</ele><time>2026-05-01T15:13:03.999Z</time></trkpt><trkpt lat="46.293095358694444" lon="6.615030202234887"><ele>677.3333333333334</ele><time>2026-05-01T15:13:04.999Z</time></trkpt><trkpt lat="46.293267813243915" lon="6.614983793243222"><ele>675.0</ele><time>2026-05-01T15:13:05.999Z</time></trkpt><trkpt lat="46.29342235456382" lon="6.614943827915271"><ele>675.0</ele><time>2026-05-01T15:13:06.999Z</time></trkpt><trkpt lat="46.29356282412689" lon="6.614864952789262"><ele>675.0</ele><time>2026-05-01T15:13:07.999Z</time></trkpt><trkpt lat="46.29368372178085" lon="6.614741158799649"><ele>675.0</ele><time>2026-05-01T15:13:08.999Z</time></trkpt><trkpt lat="46.29378966750512" lon="6.614589720948545"><ele>675.0</ele><time>2026-05-01T15:13:09.999Z</time></trkpt><trkpt lat="46.29389278442295" lon="6.61441202049783"><ele>675.5</ele><time>2026-05-01T15:13:10.999Z</time></trkpt><trkpt lat="46.29399318902157" lon="6.614244671221665"><ele>676.0</ele><time>2026-05-01T15:13:11.999Z</time></trkpt><trkpt lat="46.29410796240746" lon="6.614130894925082"><ele>676.5</ele><time>2026-05-01T15:13:12.999Z</time></trkpt><trkpt lat="46.29424125055262" lon="6.614071245539543"><ele>677.0</ele><time>2026-05-01T15:13:13.999Z</time></trkpt><trkpt lat="46.294391435148654" lon="6.614097467939951"><ele>677.0</ele><time>2026-05-01T15:13:14.999Z</time></trkpt><trkpt lat="46.2945612192279" lon="6.6141451767954775"><ele>677.0</ele><time>2026-05-01T15:13:15.999Z</time></trkpt><trkpt lat="46.294752679825095" lon="6.614184018971711"><ele>677.0</ele><time>2026-05-01T15:13:16.999Z</time></trkpt><trkpt lat="46.29495408924861" lon="6.614255255125013"><ele>679.0</ele><time>2026-05-01T15:13:17.999Z</time></trkpt><trkpt lat="46.29516892406027" lon="6.614323912952134"><ele>681.0</ele><time>2026-05-01T15:13:18.999Z</time></trkpt><trkpt lat="46.29537708946807" lon="6.6143914474435395"><ele>683.0</ele><time>2026-05-01T15:13:19.999Z</time></trkpt><trkpt lat="46.29556070966931" lon="6.614472884332534"><ele>680.3333333333333</ele><time>2026-05-01T15:13:20.999Z</time></trkpt><trkpt lat="46.295724203693304" lon="6.614595750018708"><ele>677.6666666666666</ele><time>2026-05-01T15:13:21.999Z</time></trkpt><trkpt lat="46.295881777115355" lon="6.6147451719453105"><ele>675.0</ele><time>2026-05-01T15:13:22.999Z</time></trkpt><trkpt lat="46.29602023882329" lon="6.614899617843656"><ele>675.0</ele><time>2026-05-01T15:13:23.999Z</time></trkpt><trkpt lat="46.296160856589815" lon="6.615029273383163"><ele>675.0</ele><time>2026-05-01T15:13:24.999Z</time></trkpt><trkpt lat="46.296292671947825" lon="6.615115557916991"><ele>675.0</ele><time>2026-05-01T15:13:25.999Z</time></trkpt><trkpt lat="46.29643784384591" lon="6.615166663416119"><ele>678.6666666666666</ele><time>2026-05-01T15:13:26.999Z</time></trkpt><trkpt lat="46.296591553056054" lon="6.61517398914479"><ele>682.3333333333333</ele><time>2026-05-01T15:13:27.999Z</time></trkpt><trkpt lat="46.29677605332309" lon="6.615159512118003"><ele>686.0</ele><time>2026-05-01T15:13:28.999Z</time></trkpt><trkpt lat="46.29697255939451" lon="6.615137673037403"><ele>686.0</ele><time>2026-05-01T15:13:29.999Z</time></trkpt><trkpt lat="46.29714848368532" lon="6.615122244422454"><ele>686.0</ele><time>2026-05-01T15:13:30.999Z</time></trkpt><trkpt lat="46.29730368102848" lon="6.615123775787431"><ele>686.0</ele><time>2026-05-01T15:13:31.999Z</time></trkpt><trkpt lat="46.29744025961184" lon="6.61512235294469"><ele>687.25</ele><time>2026-05-01T15:13:32.999Z</time></trkpt><trkpt lat="46.29758117506527" lon="6.615125356498886"><ele>688.5</ele><time>2026-05-01T15:13:33.999Z</time></trkpt><trkpt lat="46.29771499157019" lon="6.61513421810564"><ele>689.75</ele><time>2026-05-01T15:13:34.999Z</time></trkpt><trkpt lat="46.29784597003806" lon="6.615170995071213"><ele>691.0</ele><time>2026-05-01T15:13:35.999Z</time></trkpt><trkpt lat="46.29796548408744" lon="6.615237419195059"><ele>685.25</ele><time>2026-05-01T15:13:36.999Z</time></trkpt><trkpt lat="46.29807519405119" lon="6.615330522986003"><ele>679.5</ele><time>2026-05-01T15:13:37.999Z</time></trkpt><trkpt lat="46.29818911771475" lon="6.615418361506658"><ele>673.75</ele><time>2026-05-01T15:13:38.999Z</time></trkpt><trkpt lat="46.298309879745375" lon="6.615479353561177"><ele>668.0</ele><time>2026-05-01T15:13:39.999Z</time></trkpt><trkpt lat="46.29844590821953" lon="6.615499168743577"><ele>668.0</ele><time>2026-05-01T15:13:40.999Z</time></trkpt><trkpt lat="46.29858926106788" lon="6.61550119738198"><ele>668.0</ele><time>2026-05-01T15:13:41.999Z</time></trkpt><trkpt lat="46.29872881184497" lon="6.615471941152013"><ele>668.0</ele><time>2026-05-01T15:13:42.999Z</time></trkpt><trkpt lat="46.29886129250493" lon="6.615448977545435"><ele>668.0</ele><time>2026-05-01T15:13:43.999Z</time></trkpt><trkpt lat="46.29897737615933" lon="6.615483871896463"><ele>669.0</ele><time>2026-05-01T15:13:44.999Z</time></trkpt><trkpt lat="46.299070964792776" lon="6.615598988951328"><ele>670.0</ele><time>2026-05-01T15:13:45.999Z</time></trkpt><trkpt lat="46.299166211967545" lon="6.615681085367794"><ele>671.0</ele><time>2026-05-01T15:13:46.999Z</time></trkpt><trkpt lat="46.29926476562007" lon="6.615783999962628"><ele>672.0</ele><time>2026-05-01T15:13:47.999Z</time></trkpt><trkpt lat="46.299382632455085" lon="6.615880568526158"><ele>672.0</ele><time>2026-05-01T15:13:48.999Z</time></trkpt><trkpt lat="46.29950451641436" lon="6.615933514903339"><ele>672.0</ele><time>2026-05-01T15:13:49.999Z</time></trkpt><trkpt lat="46.29966773237497" lon="6.615929869966403"><ele>672.0</ele><time>2026-05-01T15:13:50.999Z</time></trkpt><trkpt lat="46.299786701066196" lon="6.61591759462109"><ele>672.0</ele><time>2026-05-01T15:13:51.999Z</time></trkpt><trkpt lat="46.29993058312798" lon="6.615865947164177"><ele>671.75</ele><time>2026-05-01T15:13:52.999Z</time></trkpt><trkpt lat="46.30004546569691" lon="6.615802727449473"><ele>671.5</ele><time>2026-05-01T15:13:53.999Z</time></trkpt><trkpt lat="46.30016749684801" lon="6.61569445595361"><ele>671.25</ele><time>2026-05-01T15:13:54.999Z</time></trkpt><trkpt lat="46.300263390314555" lon="6.615525520220363"><ele>671.0</ele><time>2026-05-01T15:13:55.999Z</time></trkpt><trkpt lat="46.30036773145382" lon="6.615326966371359"><ele>677.3333333333333</ele><time>2026-05-01T15:13:56.999Z</time></trkpt><trkpt lat="46.30048033723707" lon="6.615145294854816"><ele>683.6666666666666</ele><time>2026-05-01T15:13:57.999Z</time></trkpt><trkpt lat="46.300571214026306" lon="6.614971169369386"><ele>690.0</ele><time>2026-05-01T15:13:58.999Z</time></trkpt><trkpt lat="46.30066039332603" lon="6.614814646506897"><ele>690.0</ele><time>2026-05-01T15:13:59.999Z</time></trkpt><trkpt lat="46.30076248458906" lon="6.614696884310972"><ele>690.0</ele><time>2026-05-01T15:14:00.999Z</time></trkpt><trkpt lat="46.30088215168485" lon="6.614608482638926"><ele>690.0</ele><time>2026-05-01T15:14:01.999Z</time></trkpt><trkpt lat="46.30104467798348" lon="6.614535594671084"><ele>690.0</ele><time>2026-05-01T15:14:02.999Z</time></trkpt><trkpt lat="46.301236621097544" lon="6.6145097226231995"><ele>691.0</ele><time>2026-05-01T15:14:03.999Z</time></trkpt><trkpt lat="46.301450261005236" lon="6.614476102482322"><ele>692.0</ele><time>2026-05-01T15:14:04.999Z</time></trkpt><trkpt lat="46.30166847019954" lon="6.6144416841948885"><ele>693.0</ele><time>2026-05-01T15:14:05.999Z</time></trkpt><trkpt lat="46.301866657609295" lon="6.614414449989254"><ele>693.0</ele><time>2026-05-01T15:14:06.999Z</time></trkpt><trkpt lat="46.3020304258119" lon="6.614412009492984"><ele>693.0</ele><time>2026-05-01T15:14:07.999Z</time></trkpt><trkpt lat="46.302172169861755" lon="6.614457928124423"><ele>693.0</ele><time>2026-05-01T15:14:08.999Z</time></trkpt><trkpt lat="46.302306123989204" lon="6.614538077364645"><ele>693.3333333333334</ele><time>2026-05-01T15:14:09.999Z</time></trkpt><trkpt lat="46.30244798135317" lon="6.614670741253346"><ele>693.6666666666667</ele><time>2026-05-01T15:14:10.999Z</time></trkpt><trkpt lat="46.30259973087567" lon="6.614807613426878"><ele>694.0</ele><time>2026-05-01T15:14:11.999Z</time></trkpt><trkpt lat="46.30274662302405" lon="6.614916989509056"><ele>694.0</ele><time>2026-05-01T15:14:12.999Z</time></trkpt><trkpt lat="46.30287749186754" lon="6.615035868032257"><ele>694.0</ele><time>2026-05-01T15:14:13.999Z</time></trkpt><trkpt lat="46.303006911484594" lon="6.6151556696481775"><ele>694.0</ele><time>2026-05-01T15:14:14.999Z</time></trkpt><trkpt lat="46.303142716126594" lon="6.615283635029363"><ele>693.6666666666667</ele><time>2026-05-01T15:14:15.999Z</time></trkpt><trkpt lat="46.30327942746028" lon="6.615412290279371"><ele>693.3333333333334</ele><time>2026-05-01T15:14:16.999Z</time></trkpt><trkpt lat="46.30340256830239" lon="6.61553178022852"><ele>693.0</ele><time>2026-05-01T15:14:17.999Z</time></trkpt><trkpt lat="46.303525852893245" lon="6.615649449743452"><ele>693.0</ele><time>2026-05-01T15:14:18.999Z</time></trkpt><trkpt lat="46.30363871685205" lon="6.6157369150575835"><ele>693.0</ele><time>2026-05-01T15:14:19.999Z</time></trkpt><trkpt lat="46.30374812419068" lon="6.6157975135256955"><ele>693.0</ele><time>2026-05-01T15:14:20.999Z</time></trkpt><trkpt lat="46.303856773825245" lon="6.615835131870631"><ele>693.0</ele><time>2026-05-01T15:14:21.999Z</time></trkpt><trkpt lat="46.30396853619506" lon="6.615844387745292"><ele>693.5</ele><time>2026-05-01T15:14:22.999Z</time></trkpt><trkpt lat="46.30408523552363" lon="6.6158314644557485"><ele>694.0</ele><time>2026-05-01T15:14:23.999Z</time></trkpt><trkpt lat="46.304209561818645" lon="6.615804279163245"><ele>694.5</ele><time>2026-05-01T15:14:24.999Z</time></trkpt><trkpt lat="46.30433570107372" lon="6.6157551155140055"><ele>695.0</ele><time>2026-05-01T15:14:25.999Z</time></trkpt><trkpt lat="46.30446332540442" lon="6.615698543820593"><ele>695.0</ele><time>2026-05-01T15:14:26.999Z</time></trkpt><trkpt lat="46.304572439554335" lon="6.61558138007626"><ele>695.0</ele><time>2026-05-01T15:14:27.999Z</time></trkpt><trkpt lat="46.3046949101324" lon="6.615467225531681"><ele>695.0</ele><time>2026-05-01T15:14:29Z</time></trkpt><trkpt lat="46.304815625108844" lon="6.615358941259869"><ele>695.0</ele><time>2026-05-01T15:14:30Z</time></trkpt><trkpt lat="46.30494008691446" lon="6.615250851222617"><ele>697.75</ele><time>2026-05-01T15:14:31Z</time></trkpt><trkpt lat="46.305057274169236" lon="6.615151363169416"><ele>700.5</ele><time>2026-05-01T15:14:32Z</time></trkpt><trkpt lat="46.30517943085541" lon="6.615049307626806"><ele>703.25</ele><time>2026-05-01T15:14:33Z</time></trkpt><trkpt lat="46.30531109531217" lon="6.614933932867782"><ele>706.0</ele><time>2026-05-01T15:14:34Z</time></trkpt><trkpt lat="46.305454660492465" lon="6.614815525413947"><ele>705.75</ele><time>2026-05-01T15:14:35Z</time></trkpt><trkpt lat="46.30558743169185" lon="6.614701100863447"><ele>705.5</ele><time>2026-05-01T15:14:36Z</time></trkpt><trkpt lat="46.30570494281372" lon="6.614595534713282"><ele>705.25</ele><time>2026-05-01T15:14:37Z</time></trkpt><trkpt lat="46.30580564222445" lon="6.614495617704607"><ele>705.0</ele><time>2026-05-01T15:14:38Z</time></trkpt><trkpt lat="46.30588325176262" lon="6.614396375738501"><ele>705.0</ele><time>2026-05-01T15:14:39Z</time></trkpt><trkpt lat="46.305947226940766" lon="6.6142859056830465"><ele>705.0</ele><time>2026-05-01T15:14:40Z</time></trkpt><trkpt lat="46.30599764330288" lon="6.614166904791241"><ele>705.0</ele><time>2026-05-01T15:14:41Z</time></trkpt><trkpt lat="46.30604545587437" lon="6.614046224152719"><ele>705.0</ele><time>2026-05-01T15:14:42Z</time></trkpt><trkpt lat="46.30610161057855" lon="6.613945594588075"><ele>705.0</ele><time>2026-05-01T15:14:43Z</time></trkpt><trkpt lat="46.306129700732036" lon="6.613843595430494"><ele>705.0</ele><time>2026-05-01T15:14:44Z</time></trkpt><trkpt lat="46.30619284460703" lon="6.613780871498575"><ele>705.0</ele><time>2026-05-01T15:14:45Z</time></trkpt><trkpt lat="46.30624473154472" lon="6.613707578274959"><ele>705.0</ele><time>2026-05-01T15:14:46Z</time></trkpt><trkpt lat="46.306328184710345" lon="6.613653311066144"><ele>705.0</ele><time>2026-05-01T15:14:48Z</time></trkpt><trkpt lat="46.30641454767777" lon="6.613625972426248"><ele>705.0</ele><time>2026-05-01T15:14:50Z</time></trkpt><trkpt lat="46.30650407683477" lon="6.613636133967043"><ele>705.0</ele><time>2026-05-01T15:14:52Z</time></trkpt><trkpt lat="46.306554553250244" lon="6.613405307367364"><ele>707.4</ele><time>2026-05-01T15:14:53Z</time></trkpt><trkpt lat="46.30662570204435" lon="6.613386243076441"><ele>709.8</ele><time>2026-05-01T15:14:54Z</time></trkpt><trkpt lat="46.30671398249054" lon="6.613419768708516"><ele>712.2</ele><time>2026-05-01T15:14:55Z</time></trkpt><trkpt lat="46.30679738677139" lon="6.613464883563563"><ele>714.6</ele><time>2026-05-01T15:14:56Z</time></trkpt><trkpt lat="46.30689856086262" lon="6.61347050044683"><ele>717.0</ele><time>2026-05-01T15:14:57Z</time></trkpt><trkpt lat="46.30698584532996" lon="6.613385175434287"><ele>717.0</ele><time>2026-05-01T15:14:58Z</time></trkpt><trkpt lat="46.30704929530664" lon="6.6132570593457745"><ele>717.0</ele><time>2026-05-01T15:14:59Z</time></trkpt><trkpt lat="46.307089749428066" lon="6.613086705901568"><ele>717.0</ele><time>2026-05-01T15:15:00Z</time></trkpt><trkpt lat="46.307129626761444" lon="6.612870117001523"><ele>717.0</ele><time>2026-05-01T15:15:01Z</time></trkpt><trkpt lat="46.30721879398206" lon="6.6126806544323715"><ele>713.6666666666666</ele><time>2026-05-01T15:15:02Z</time></trkpt><trkpt lat="46.30733175907812" lon="6.612498917849879"><ele>710.3333333333333</ele><time>2026-05-01T15:15:03Z</time></trkpt><trkpt lat="46.30743022458502" lon="6.612325259122656"><ele>707.0</ele><time>2026-05-01T15:15:04Z</time></trkpt><trkpt lat="46.3075138305026" lon="6.612103832934709"><ele>713.0</ele><time>2026-05-01T15:15:05Z</time></trkpt><trkpt lat="46.307622645476904" lon="6.611905716257857"><ele>719.0</ele><time>2026-05-01T15:15:06Z</time></trkpt><trkpt lat="46.307762336983714" lon="6.611704127883813"><ele>725.0</ele><time>2026-05-01T15:15:07Z</time></trkpt><trkpt lat="46.307954633628" lon="6.611493314731338"><ele>728.0</ele><time>2026-05-01T15:15:08Z</time></trkpt><trkpt lat="46.30810504510836" lon="6.6113016143555425"><ele>731.0</ele><time>2026-05-01T15:15:09Z</time></trkpt><trkpt lat="46.308231287632005" lon="6.6111154518575415"><ele>734.0</ele><time>2026-05-01T15:15:10Z</time></trkpt><trkpt lat="46.308347335472604" lon="6.6109452671429105"><ele>734.0</ele><time>2026-05-01T15:15:11Z</time></trkpt><trkpt lat="46.30847233938556" lon="6.610827545932162"><ele>734.0</ele><time>2026-05-01T15:15:11.999Z</time></trkpt><trkpt lat="46.308593638372" lon="6.610758679285124"><ele>734.0</ele><time>2026-05-01T15:15:12.999Z</time></trkpt><trkpt lat="46.30872302408375" lon="6.610693435680074"><ele>734.0</ele><time>2026-05-01T15:15:13.999Z</time></trkpt><trkpt lat="46.30886262091015" lon="6.610655140654689"><ele>735.5</ele><time>2026-05-01T15:15:14.999Z</time></trkpt><trkpt lat="46.30897115598431" lon="6.610577821505363"><ele>737.0</ele><time>2026-05-01T15:15:15.999Z</time></trkpt><trkpt lat="46.30907918100897" lon="6.610479729150714"><ele>738.5</ele><time>2026-05-01T15:15:16.999Z</time></trkpt><trkpt lat="46.3091928582548" lon="6.610369760907606"><ele>740.0</ele><time>2026-05-01T15:15:17.999Z</time></trkpt><trkpt lat="46.30930325931272" lon="6.610263364178858"><ele>740.0</ele><time>2026-05-01T15:15:18.999Z</time></trkpt><trkpt lat="46.30939409391511" lon="6.610165156857214"><ele>740.0</ele><time>2026-05-01T15:15:19.999Z</time></trkpt><trkpt lat="46.309462311573654" lon="6.610049604746605"><ele>740.0</ele><time>2026-05-01T15:15:20.999Z</time></trkpt><trkpt lat="46.3094909490537" lon="6.609912657892232"><ele>740.0</ele><time>2026-05-01T15:15:21.999Z</time></trkpt><trkpt lat="46.30948739782021" lon="6.609767111098679"><ele>740.0</ele><time>2026-05-01T15:15:22.999Z</time></trkpt><trkpt lat="46.30946970903488" lon="6.60959315332521"><ele>745.25</ele><time>2026-05-01T15:15:23.999Z</time></trkpt><trkpt lat="46.30944793617429" lon="6.609434080043411"><ele>750.5</ele><time>2026-05-01T15:15:24.999Z</time></trkpt><trkpt lat="46.30943721962722" lon="6.609273225244415"><ele>755.75</ele><time>2026-05-01T15:15:25.999Z</time></trkpt><trkpt lat="46.309455405129086" lon="6.609093645349259"><ele>761.0</ele><time>2026-05-01T15:15:26.999Z</time></trkpt><trkpt lat="46.309496629236925" lon="6.608915345893463"><ele>761.0</ele><time>2026-05-01T15:15:27.999Z</time></trkpt><trkpt lat="46.309581339029414" lon="6.608780605283367"><ele>761.0</ele><time>2026-05-01T15:15:28.999Z</time></trkpt><trkpt lat="46.30965795930163" lon="6.6086682429707295"><ele>761.0</ele><time>2026-05-01T15:15:29.999Z</time></trkpt><trkpt lat="46.30971802245578" lon="6.60856535282735"><ele>761.0</ele><time>2026-05-01T15:15:30.999Z</time></trkpt><trkpt lat="46.30977086084472" lon="6.608488731351865"><ele>761.0</ele><time>2026-05-01T15:15:31.999Z</time></trkpt><trkpt lat="46.30983094314803" lon="6.608442782597265"><ele>758.5</ele><time>2026-05-01T15:15:32.999Z</time></trkpt><trkpt lat="46.30992765424934" lon="6.608447417737775"><ele>756.0</ele><time>2026-05-01T15:15:33.999Z</time></trkpt><trkpt lat="46.31003454748708" lon="6.608480382001991"><ele>753.5</ele><time>2026-05-01T15:15:34.999Z</time></trkpt><trkpt lat="46.31015582976546" lon="6.608518287000707"><ele>751.0</ele><time>2026-05-01T15:15:35.999Z</time></trkpt><trkpt lat="46.31029680117193" lon="6.608527970036017"><ele>751.0</ele><time>2026-05-01T15:15:36.999Z</time></trkpt><trkpt lat="46.310442236544446" lon="6.608532415024243"><ele>751.0</ele><time>2026-05-01T15:15:37.999Z</time></trkpt><trkpt lat="46.310586678706024" lon="6.6085407970822105"><ele>751.0</ele><time>2026-05-01T15:15:38.999Z</time></trkpt><trkpt lat="46.310713795846716" lon="6.608502934488341"><ele>751.0</ele><time>2026-05-01T15:15:39.999Z</time></trkpt><trkpt lat="46.310821286542776" lon="6.608451625672664"><ele>750.0</ele><time>2026-05-01T15:15:40.999Z</time></trkpt><trkpt lat="46.31093096036864" lon="6.608384678400648"><ele>749.0</ele><time>2026-05-01T15:15:41.999Z</time></trkpt><trkpt lat="46.31104560265237" lon="6.608297364888558"><ele>748.0</ele><time>2026-05-01T15:15:42.999Z</time></trkpt><trkpt lat="46.31114810191403" lon="6.608195106242102"><ele>747.0</ele><time>2026-05-01T15:15:43.999Z</time></trkpt><trkpt lat="46.31123839886128" lon="6.608061707251007"><ele>747.0</ele><time>2026-05-01T15:15:44.999Z</time></trkpt><trkpt lat="46.31131539848262" lon="6.60794588128962"><ele>747.0</ele><time>2026-05-01T15:15:45.999Z</time></trkpt><trkpt lat="46.31140955310408" lon="6.60787959476135"><ele>747.0</ele><time>2026-05-01T15:15:46.999Z</time></trkpt><trkpt lat="46.31152384313048" lon="6.607845044441722"><ele>747.0</ele><time>2026-05-01T15:15:47.999Z</time></trkpt><trkpt lat="46.311637045731494" lon="6.607817504340589"><ele>747.0</ele><time>2026-05-01T15:15:48.999Z</time></trkpt><trkpt lat="46.3117445657112" lon="6.607753852887306"><ele>749.0</ele><time>2026-05-01T15:15:49.999Z</time></trkpt><trkpt lat="46.311827039568726" lon="6.60764856569822"><ele>751.0</ele><time>2026-05-01T15:15:50.999Z</time></trkpt><trkpt lat="46.31188335423928" lon="6.60751065375469"><ele>753.0</ele><time>2026-05-01T15:15:51.999Z</time></trkpt><trkpt lat="46.311901848222504" lon="6.607357409641665"><ele>755.0</ele><time>2026-05-01T15:15:52.999Z</time></trkpt><trkpt lat="46.31187699456758" lon="6.607185407802303"><ele>757.0</ele><time>2026-05-01T15:15:53.999Z</time></trkpt><trkpt lat="46.31184923965398" lon="6.606978847115303"><ele>762.6666666666667</ele><time>2026-05-01T15:15:54.999Z</time></trkpt><trkpt lat="46.31184819413478" lon="6.606754487819167"><ele>768.3333333333334</ele><time>2026-05-01T15:15:55.999Z</time></trkpt><trkpt lat="46.311874735418854" lon="6.606496223496305"><ele>774.0</ele><time>2026-05-01T15:15:56.999Z</time></trkpt><trkpt lat="46.311905011556625" lon="6.606258233331733"><ele>778.25</ele><time>2026-05-01T15:15:57.999Z</time></trkpt><trkpt lat="46.3119520043876" lon="6.606079645796105"><ele>782.5</ele><time>2026-05-01T15:15:58.999Z</time></trkpt><trkpt lat="46.312015372812766" lon="6.605932391716351"><ele>786.75</ele><time>2026-05-01T15:15:59.999Z</time></trkpt><trkpt lat="46.312116011197425" lon="6.605839389190911"><ele>791.0</ele><time>2026-05-01T15:16:00.999Z</time></trkpt><trkpt lat="46.31216898801625" lon="6.605726390288093"><ele>791.0</ele><time>2026-05-01T15:16:01.999Z</time></trkpt><trkpt lat="46.31219307122373" lon="6.605617240251835"><ele>791.0</ele><time>2026-05-01T15:16:02.999Z</time></trkpt><trkpt lat="46.31220038358134" lon="6.605475147079193"><ele>791.0</ele><time>2026-05-01T15:16:03.999Z</time></trkpt><trkpt lat="46.31217278949389" lon="6.605320857644957"><ele>791.0</ele><time>2026-05-01T15:16:04.999Z</time></trkpt><trkpt lat="46.31210474334804" lon="6.6051728716832"><ele>791.0</ele><time>2026-05-01T15:16:05.999Z</time></trkpt><trkpt lat="46.31202746734649" lon="6.605034832076998"><ele>794.0</ele><time>2026-05-01T15:16:06.999Z</time></trkpt><trkpt lat="46.31196933916366" lon="6.604898168718597"><ele>797.0</ele><time>2026-05-01T15:16:07.999Z</time></trkpt><trkpt lat="46.31195268384561" lon="6.604746486289477"><ele>800.0</ele><time>2026-05-01T15:16:08.999Z</time></trkpt><trkpt lat="46.3119885662037" lon="6.604570500306041"><ele>803.0</ele><time>2026-05-01T15:16:09.999Z</time></trkpt><trkpt lat="46.3120328217523" lon="6.604363850408564"><ele>807.5</ele><time>2026-05-01T15:16:10.999Z</time></trkpt><trkpt lat="46.31207517482938" lon="6.60414812991312"><ele>812.0</ele><time>2026-05-01T15:16:11.999Z</time></trkpt><trkpt lat="46.312108868079896" lon="6.6039425466297645"><ele>816.5</ele><time>2026-05-01T15:16:12.999Z</time></trkpt><trkpt lat="46.312133899511664" lon="6.603740954951732"><ele>821.0</ele><time>2026-05-01T15:16:13.999Z</time></trkpt><trkpt lat="46.31218289658623" lon="6.6035167035772355"><ele>807.0</ele><time>2026-05-01T15:16:14.999Z</time></trkpt><trkpt lat="46.31225951640688" lon="6.60330611784748"><ele>793.0</ele><time>2026-05-01T15:16:15.999Z</time></trkpt><trkpt lat="46.312340434774285" lon="6.60310928314833"><ele>779.0</ele><time>2026-05-01T15:16:16.999Z</time></trkpt><trkpt lat="46.31241847568728" lon="6.602913972712866"><ele>782.0</ele><time>2026-05-01T15:16:17.999Z</time></trkpt><trkpt lat="46.31250589286093" lon="6.602728798007976"><ele>785.0</ele><time>2026-05-01T15:16:18.999Z</time></trkpt><trkpt lat="46.31260111050498" lon="6.602576418176438"><ele>788.0</ele><time>2026-05-01T15:16:19.999Z</time></trkpt><trkpt lat="46.312692312766444" lon="6.602427076109204"><ele>791.0</ele><time>2026-05-01T15:16:20.999Z</time></trkpt><trkpt lat="46.31277000212724" lon="6.602239836276987"><ele>791.0</ele><time>2026-05-01T15:16:21.999Z</time></trkpt><trkpt lat="46.31282803344018" lon="6.602040219693443"><ele>791.0</ele><time>2026-05-01T15:16:22.999Z</time></trkpt><trkpt lat="46.312868165537964" lon="6.601848942155499"><ele>791.0</ele><time>2026-05-01T15:16:23.999Z</time></trkpt><trkpt lat="46.312897074260064" lon="6.601660401663349"><ele>791.0</ele><time>2026-05-01T15:16:24.999Z</time></trkpt><trkpt lat="46.312921314756935" lon="6.601450138829773"><ele>794.0</ele><time>2026-05-01T15:16:25.999Z</time></trkpt><trkpt lat="46.31293223630776" lon="6.6012052116823705"><ele>797.0</ele><time>2026-05-01T15:16:26.999Z</time></trkpt><trkpt lat="46.31291300403523" lon="6.60093178168222"><ele>800.0</ele><time>2026-05-01T15:16:27.999Z</time></trkpt><trkpt lat="46.31287043857798" lon="6.600634499219291"><ele>799.0</ele><time>2026-05-01T15:16:28.999Z</time></trkpt><trkpt lat="46.31281013133005" lon="6.6003187297461015"><ele>798.0</ele><time>2026-05-01T15:16:29.999Z</time></trkpt><trkpt lat="46.31275164836369" lon="6.600000089026173"><ele>798.0</ele><time>2026-05-01T15:16:30.999Z</time></trkpt><trkpt lat="46.31272368886235" lon="6.5996530107498135"><ele>798.0</ele><time>2026-05-01T15:16:31.999Z</time></trkpt><trkpt lat="46.31267144589666" lon="6.599284155715895"><ele>797.6666666666667</ele><time>2026-05-01T15:16:32.999Z</time></trkpt><trkpt lat="46.312602052719726" lon="6.598953853262148"><ele>797.3333333333334</ele><time>2026-05-01T15:16:33.999Z</time></trkpt><trkpt lat="46.31251939390796" lon="6.598686104729922"><ele>797.0</ele><time>2026-05-01T15:16:35Z</time></trkpt><trkpt lat="46.31250764285931" lon="6.598449814538082"><ele>797.0</ele><time>2026-05-01T15:16:36Z</time></trkpt><trkpt lat="46.312516797073926" lon="6.598245389383385"><ele>797.0</ele><time>2026-05-01T15:16:37Z</time></trkpt><trkpt lat="46.312559746375996" lon="6.598019663534463"><ele>797.0</ele><time>2026-05-01T15:16:38Z</time></trkpt><trkpt lat="46.31260038237428" lon="6.597763122543969"><ele>798.0</ele><time>2026-05-01T15:16:39Z</time></trkpt><trkpt lat="46.31264433028064" lon="6.597498378355984"><ele>799.0</ele><time>2026-05-01T15:16:40Z</time></trkpt><trkpt lat="46.31264963326538" lon="6.597215780414194"><ele>800.0</ele><time>2026-05-01T15:16:41Z</time></trkpt><trkpt lat="46.31263656778729" lon="6.596959921725474"><ele>800.3333333333334</ele><time>2026-05-01T15:16:42Z</time></trkpt><trkpt lat="46.31263156758209" lon="6.596700070469291"><ele>800.6666666666667</ele><time>2026-05-01T15:16:43Z</time></trkpt><trkpt lat="46.312659505736555" lon="6.596427137286767"><ele>801.0</ele><time>2026-05-01T15:16:44Z</time></trkpt><trkpt lat="46.31270663653306" lon="6.59619825524472"><ele>803.25</ele><time>2026-05-01T15:16:45Z</time></trkpt><trkpt lat="46.312757742543596" lon="6.595981591038128"><ele>805.5</ele><time>2026-05-01T15:16:46Z</time></trkpt><trkpt lat="46.31281020463923" lon="6.595787361706085"><ele>807.75</ele><time>2026-05-01T15:16:47Z</time></trkpt><trkpt lat="46.31287257629413" lon="6.595599636318705"><ele>810.0</ele><time>2026-05-01T15:16:48Z</time></trkpt><trkpt lat="46.31294270799038" lon="6.595424735910663"><ele>809.6</ele><time>2026-05-01T15:16:49Z</time></trkpt><trkpt lat="46.31301203541704" lon="6.595265324375133"><ele>809.2</ele><time>2026-05-01T15:16:50Z</time></trkpt><trkpt lat="46.313090172297585" lon="6.595147865652615"><ele>808.8</ele><time>2026-05-01T15:16:51Z</time></trkpt><trkpt lat="46.31313539985672" lon="6.595028561776628"><ele>808.4</ele><time>2026-05-01T15:16:52Z</time></trkpt><trkpt lat="46.3131944744689" lon="6.594942948207989"><ele>808.0</ele><time>2026-05-01T15:16:53Z</time></trkpt><trkpt lat="46.313261301449174" lon="6.594843043323904"><ele>808.0</ele><time>2026-05-01T15:16:54Z</time></trkpt><trkpt lat="46.313334043913216" lon="6.594775654467385"><ele>808.0</ele><time>2026-05-01T15:16:55Z</time></trkpt><trkpt lat="46.3134095405698" lon="6.594736863111462"><ele>808.0</ele><time>2026-05-01T15:16:56Z</time></trkpt><trkpt lat="46.31349709473695" lon="6.594763624772993"><ele>808.0</ele><time>2026-05-01T15:16:57Z</time></trkpt><trkpt lat="46.3135883309334" lon="6.5947821130987725"><ele>808.0</ele><time>2026-05-01T15:16:58Z</time></trkpt><trkpt lat="46.313694826018626" lon="6.594810918508482"><ele>808.0</ele><time>2026-05-01T15:16:59Z</time></trkpt><trkpt lat="46.31381572138501" lon="6.594845097724629"><ele>808.0</ele><time>2026-05-01T15:17:00Z</time></trkpt><trkpt lat="46.31394794730806" lon="6.594831794337567"><ele>808.0</ele><time>2026-05-01T15:17:01Z</time></trkpt><trkpt lat="46.31408406377175" lon="6.5948037398940444"><ele>808.0</ele><time>2026-05-01T15:17:02Z</time></trkpt><trkpt lat="46.314213177795004" lon="6.594810615104654"><ele>806.6666666666666</ele><time>2026-05-01T15:17:03Z</time></trkpt><trkpt lat="46.314316347873984" lon="6.5948055662931955"><ele>805.3333333333333</ele><time>2026-05-01T15:17:04Z</time></trkpt><trkpt lat="46.31440185517463" lon="6.5948342095505"><ele>804.0</ele><time>2026-05-01T15:17:05Z</time></trkpt><trkpt lat="46.31447744461975" lon="6.59485976946809"><ele>802.6666666666667</ele><time>2026-05-01T15:17:06Z</time></trkpt><trkpt lat="46.31454320220161" lon="6.5948818435670615"><ele>801.3333333333334</ele><time>2026-05-01T15:17:07Z</time></trkpt><trkpt lat="46.31460784061833" lon="6.594894464939274"><ele>800.0</ele><time>2026-05-01T15:17:08Z</time></trkpt><trkpt lat="46.3146751564144" lon="6.594897971279092"><ele>801.0000000000001</ele><time>2026-05-01T15:17:09Z</time></trkpt><trkpt lat="46.31474116246769" lon="6.5949058907547515"><ele>802.0</ele><time>2026-05-01T15:17:10Z</time></trkpt><trkpt lat="46.31480407691743" lon="6.594923483062914"><ele>803.0</ele><time>2026-05-01T15:17:11Z</time></trkpt><trkpt lat="46.31488609031942" lon="6.59492419138091"><ele>804.0</ele><time>2026-05-01T15:17:13Z</time></trkpt><trkpt lat="46.31496565319448" lon="6.594904030473655"><ele>805.0</ele><time>2026-05-01T15:17:16Z</time></trkpt><trkpt lat="46.31503294575675" lon="6.594934989123281"><ele>806.0000000000001</ele><time>2026-05-01T15:17:18Z</time></trkpt><trkpt lat="46.31510768783513" lon="6.59491666081407"><ele>807.0</ele><time>2026-05-01T15:17:20Z</time></trkpt><trkpt lat="46.31519475221179" lon="6.594863621497227"><ele>807.0</ele><time>2026-05-01T15:17:22Z</time></trkpt><trkpt lat="46.315276187577" lon="6.5947552430134415"><ele>807.0</ele><time>2026-05-01T15:17:23.999Z</time></trkpt><trkpt lat="46.31538921693245" lon="6.594608183296808"><ele>807.0</ele><time>2026-05-01T15:17:25.999Z</time></trkpt><trkpt lat="46.31545597220361" lon="6.594523201816547"><ele>807.0</ele><time>2026-05-01T15:17:26.999Z</time></trkpt><trkpt lat="46.31552253018757" lon="6.594435926433412"><ele>807.0</ele><time>2026-05-01T15:17:27.999Z</time></trkpt><trkpt lat="46.315589991795484" lon="6.594342047652997"><ele>806.8</ele><time>2026-05-01T15:17:28.999Z</time></trkpt><trkpt lat="46.31563418743249" lon="6.594221998299029"><ele>806.6</ele><time>2026-05-01T15:17:29.999Z</time></trkpt><trkpt lat="46.315687746615886" lon="6.59412295543263"><ele>806.4</ele><time>2026-05-01T15:17:30.999Z</time></trkpt><trkpt lat="46.31574157943364" lon="6.594005553734632"><ele>806.1999999999999</ele><time>2026-05-01T15:17:31.999Z</time></trkpt><trkpt lat="46.31580193778174" lon="6.593875901228364"><ele>806.0</ele><time>2026-05-01T15:17:32.999Z</time></trkpt><trkpt lat="46.3158770689506" lon="6.593748871777236"><ele>804.1999999999999</ele><time>2026-05-01T15:17:33.999Z</time></trkpt><trkpt lat="46.3159312024674" lon="6.59362761721075"><ele>802.4</ele><time>2026-05-01T15:17:34.999Z</time></trkpt><trkpt lat="46.31599107669889" lon="6.593515003972974"><ele>800.6</ele><time>2026-05-01T15:17:35.999Z</time></trkpt><trkpt lat="46.316057024925406" lon="6.593421818371813"><ele>798.8</ele><time>2026-05-01T15:17:36.999Z</time></trkpt><trkpt lat="46.316127301186604" lon="6.59333132373611"><ele>797.0</ele><time>2026-05-01T15:17:37.999Z</time></trkpt><trkpt lat="46.31620304204517" lon="6.59327248467727"><ele>797.0</ele><time>2026-05-01T15:17:38.999Z</time></trkpt><trkpt lat="46.31627675260274" lon="6.59320467363538"><ele>797.0</ele><time>2026-05-01T15:17:39.999Z</time></trkpt><trkpt lat="46.31636108770546" lon="6.593131154276438"><ele>797.0</ele><time>2026-05-01T15:17:40.999Z</time></trkpt><trkpt lat="46.316452161246126" lon="6.593063365907928"><ele>797.0</ele><time>2026-05-01T15:17:41.999Z</time></trkpt><trkpt lat="46.31654495440212" lon="6.5929691430558774"><ele>797.0</ele><time>2026-05-01T15:17:42.999Z</time></trkpt><trkpt lat="46.31666716122381" lon="6.59290682473971"><ele>796.75</ele><time>2026-05-01T15:17:43.999Z</time></trkpt><trkpt lat="46.31679005600132" lon="6.5928428085929"><ele>796.5</ele><time>2026-05-01T15:17:44.999Z</time></trkpt><trkpt lat="46.31690198585506" lon="6.592776934441717"><ele>796.25</ele><time>2026-05-01T15:17:45.999Z</time></trkpt><trkpt lat="46.31701349177871" lon="6.59272318523158"><ele>796.0</ele><time>2026-05-01T15:17:46.999Z</time></trkpt><trkpt lat="46.31712108998448" lon="6.5926825299721905"><ele>793.4</ele><time>2026-05-01T15:17:47.999Z</time></trkpt><trkpt lat="46.31723111097671" lon="6.5926283550520095"><ele>790.8</ele><time>2026-05-01T15:17:48.999Z</time></trkpt><trkpt lat="46.31733211148661" lon="6.592581917132561"><ele>788.1999999999999</ele><time>2026-05-01T15:17:49.999Z</time></trkpt><trkpt lat="46.31743622099426" lon="6.592541084931672"><ele>785.5999999999999</ele><time>2026-05-01T15:17:50.999Z</time></trkpt><trkpt lat="46.31755112367628" lon="6.592526747272434"><ele>783.0</ele><time>2026-05-01T15:17:51.999Z</time></trkpt><trkpt lat="46.31765647889562" lon="6.592579738095584"><ele>782.0</ele><time>2026-05-01T15:17:52.999Z</time></trkpt><trkpt lat="46.31772871038006" lon="6.592604749820632"><ele>781.0</ele><time>2026-05-01T15:17:53.999Z</time></trkpt><trkpt lat="46.31780814872186" lon="6.592614112490044"><ele>780.0</ele><time>2026-05-01T15:17:54.999Z</time></trkpt><trkpt lat="46.317876597456056" lon="6.5926279810688895"><ele>779.0</ele><time>2026-05-01T15:17:55.999Z</time></trkpt><trkpt lat="46.31795197797861" lon="6.592551595614958"><ele>778.0</ele><time>2026-05-01T15:17:57.999Z</time></trkpt><trkpt lat="46.3179552351106" lon="6.592426420874539"><ele>777.0</ele><time>2026-05-01T15:17:59.999Z</time></trkpt><trkpt lat="46.31786948437017" lon="6.592287014328474"><ele>777.0</ele><time>2026-05-01T15:18:01.999Z</time></trkpt><trkpt lat="46.317783295251594" lon="6.592231875687882"><ele>777.0</ele><time>2026-05-01T15:18:03.999Z</time></trkpt><trkpt lat="46.31770834356122" lon="6.5921900308413255"><ele>777.0</ele><time>2026-05-01T15:18:07.999Z</time></trkpt><trkpt lat="46.31765180150091" lon="6.592147294979749"><ele>777.0</ele><time>2026-05-01T15:18:10.999Z</time></trkpt><trkpt lat="46.31756151682131" lon="6.592073364733414"><ele>777.0</ele><time>2026-05-01T15:18:24.999Z</time></trkpt><trkpt lat="46.31751100306238" lon="6.592005189518369"><ele>777.0</ele><time>2026-05-01T15:18:25.999Z</time></trkpt><trkpt lat="46.317453925529776" lon="6.591923433659171"><ele>775.4000000000001</ele><time>2026-05-01T15:18:26.999Z</time></trkpt><trkpt lat="46.317388373780304" lon="6.591828022319832"><ele>773.8000000000001</ele><time>2026-05-01T15:18:27.999Z</time></trkpt><trkpt lat="46.317313635577875" lon="6.591725936766386"><ele>772.2</ele><time>2026-05-01T15:18:28.999Z</time></trkpt><trkpt lat="46.31724359183312" lon="6.591638943636542"><ele>770.6</ele><time>2026-05-01T15:18:29.999Z</time></trkpt><trkpt lat="46.31716460046843" lon="6.591548560009901"><ele>769.0</ele><time>2026-05-01T15:18:30.999Z</time></trkpt><trkpt lat="46.31708279641159" lon="6.591485771032097"><ele>768.9999999999999</ele><time>2026-05-01T15:18:31.999Z</time></trkpt><trkpt lat="46.31698986072708" lon="6.591453866334664"><ele>769.0</ele><time>2026-05-01T15:18:32.999Z</time></trkpt><trkpt lat="46.31690860057746" lon="6.591454940318467"><ele>769.0</ele><time>2026-05-01T15:18:33.999Z</time></trkpt><trkpt lat="46.31684145704904" lon="6.591440238813531"><ele>769.0</ele><time>2026-05-01T15:18:34.999Z</time></trkpt><trkpt lat="46.31673163389813" lon="6.591422467886432"><ele>768.9999999999999</ele><time>2026-05-01T15:18:36.999Z</time></trkpt><trkpt lat="46.31667785033097" lon="6.591319642112974"><ele>769.0</ele><time>2026-05-01T15:18:38.999Z</time></trkpt><trkpt lat="46.31671404611241" lon="6.5912357300819675"><ele>769.0</ele><time>2026-05-01T15:18:39.999Z</time></trkpt><trkpt lat="46.316793038655874" lon="6.591187625653695"><ele>769.0</ele><time>2026-05-01T15:18:41Z</time></trkpt><trkpt lat="46.31689965358507" lon="6.591220491148376"><ele>769.0</ele><time>2026-05-01T15:18:42Z</time></trkpt><trkpt lat="46.31701888515777" lon="6.591190922275038"><ele>769.0</ele><time>2026-05-01T15:18:43Z</time></trkpt><trkpt lat="46.31713066278307" lon="6.591140510244899"><ele>769.0</ele><time>2026-05-01T15:18:44Z</time></trkpt><trkpt lat="46.31723030424273" lon="6.591091339820951"><ele>767.25</ele><time>2026-05-01T15:18:45Z</time></trkpt><trkpt lat="46.31732759636648" lon="6.591068671598301"><ele>765.5</ele><time>2026-05-01T15:18:46Z</time></trkpt><trkpt lat="46.31742192750774" lon="6.591141548223267"><ele>763.75</ele><time>2026-05-01T15:18:47Z</time></trkpt><trkpt lat="46.317528732936324" lon="6.591207007729109"><ele>762.0</ele><time>2026-05-01T15:18:48Z</time></trkpt><trkpt lat="46.31765918297552" lon="6.591267208593712"><ele>762.0</ele><time>2026-05-01T15:18:49Z</time></trkpt><trkpt lat="46.317794116749184" lon="6.591347107777149"><ele>762.0</ele><time>2026-05-01T15:18:50Z</time></trkpt><trkpt lat="46.317924014288145" lon="6.591424657029819"><ele>762.0</ele><time>2026-05-01T15:18:51Z</time></trkpt><trkpt lat="46.318051436015054" lon="6.59150176442611"><ele>762.0</ele><time>2026-05-01T15:18:52Z</time></trkpt><trkpt lat="46.3181663860688" lon="6.591616410127527"><ele>757.75</ele><time>2026-05-01T15:18:53Z</time></trkpt><trkpt lat="46.31828773090591" lon="6.59172663081136"><ele>753.5</ele><time>2026-05-01T15:18:54Z</time></trkpt><trkpt lat="46.3184236190555" lon="6.5918108320518645"><ele>749.25</ele><time>2026-05-01T15:18:55Z</time></trkpt><trkpt lat="46.31857366211927" lon="6.591807621659562"><ele>745.0</ele><time>2026-05-01T15:18:56Z</time></trkpt><trkpt lat="46.318709134195174" lon="6.59183194055904"><ele>745.0</ele><time>2026-05-01T15:18:57Z</time></trkpt><trkpt lat="46.31883266009702" lon="6.591917791279409"><ele>745.0</ele><time>2026-05-01T15:18:58Z</time></trkpt><trkpt lat="46.31894547171409" lon="6.592005589765504"><ele>745.0</ele><time>2026-05-01T15:18:59Z</time></trkpt><trkpt lat="46.319057248447564" lon="6.592107819734543"><ele>745.0</ele><time>2026-05-01T15:19:00Z</time></trkpt><trkpt lat="46.319183050135045" lon="6.592227150408665"><ele>746.75</ele><time>2026-05-01T15:19:01Z</time></trkpt><trkpt lat="46.31930278957941" lon="6.592346817873161"><ele>748.5</ele><time>2026-05-01T15:19:02Z</time></trkpt><trkpt lat="46.3194207294707" lon="6.592460554095302"><ele>750.25</ele><time>2026-05-01T15:19:03Z</time></trkpt><trkpt lat="46.31953135034622" lon="6.59253450033011"><ele>752.0</ele><time>2026-05-01T15:19:04Z</time></trkpt><trkpt lat="46.31962126315451" lon="6.5926484561753504"><ele>752.0</ele><time>2026-05-01T15:19:05Z</time></trkpt><trkpt lat="46.31972600200086" lon="6.592749567094058"><ele>752.0</ele><time>2026-05-01T15:19:06Z</time></trkpt><trkpt lat="46.31982331743598" lon="6.592862194243411"><ele>752.0</ele><time>2026-05-01T15:19:07Z</time></trkpt><trkpt lat="46.31990512568081" lon="6.59299010904837"><ele>752.0</ele><time>2026-05-01T15:19:08Z</time></trkpt><trkpt lat="46.3199802991759" lon="6.593114950436403"><ele>750.6666666666666</ele><time>2026-05-01T15:19:09Z</time></trkpt><trkpt lat="46.320049184169754" lon="6.5932159918222055"><ele>749.3333333333333</ele><time>2026-05-01T15:19:10Z</time></trkpt><trkpt lat="46.320078713074764" lon="6.593318394768734"><ele>748.0</ele><time>2026-05-01T15:19:11Z</time></trkpt><trkpt lat="46.320098661255585" lon="6.593408087867864"><ele>746.6666666666666</ele><time>2026-05-01T15:19:12Z</time></trkpt><trkpt lat="46.32016405622495" lon="6.593495567262002"><ele>745.3333333333334</ele><time>2026-05-01T15:19:14Z</time></trkpt><trkpt lat="46.32026817845828" lon="6.5934378463684675"><ele>744.0</ele><time>2026-05-01T15:19:16Z</time></trkpt><trkpt lat="46.32029960025102" lon="6.593355975246146"><ele>744.0</ele><time>2026-05-01T15:19:17Z</time></trkpt><trkpt lat="46.320281670242736" lon="6.59325103365002"><ele>744.0</ele><time>2026-05-01T15:19:18Z</time></trkpt><trkpt lat="46.32021448578346" lon="6.593158307478395"><ele>744.0</ele><time>2026-05-01T15:19:19Z</time></trkpt><trkpt lat="46.32016474594484" lon="6.593052863425127"><ele>744.0</ele><time>2026-05-01T15:19:20Z</time></trkpt><trkpt lat="46.320098218048656" lon="6.592937137323861"><ele>744.0</ele><time>2026-05-01T15:19:21Z</time></trkpt><trkpt lat="46.32005471676715" lon="6.592796221779827"><ele>739.75</ele><time>2026-05-01T15:19:22Z</time></trkpt><trkpt lat="46.32000499962456" lon="6.592646923990675"><ele>735.5</ele><time>2026-05-01T15:19:23Z</time></trkpt><trkpt lat="46.31996091855" lon="6.592487016518558"><ele>731.25</ele><time>2026-05-01T15:19:24Z</time></trkpt><trkpt lat="46.31993200271914" lon="6.592316444590076"><ele>727.0</ele><time>2026-05-01T15:19:25Z</time></trkpt><trkpt lat="46.31994510432635" lon="6.59213460623607"><ele>723.5</ele><time>2026-05-01T15:19:25.999Z</time></trkpt><trkpt lat="46.319959701996325" lon="6.591920687434933"><ele>720.0</ele><time>2026-05-01T15:19:26.999Z</time></trkpt><trkpt lat="46.31995989965472" lon="6.591704386670575"><ele>716.5</ele><time>2026-05-01T15:19:27.999Z</time></trkpt><trkpt lat="46.31998004511665" lon="6.591514514118713"><ele>713.0</ele><time>2026-05-01T15:19:28.999Z</time></trkpt><trkpt lat="46.319994492598845" lon="6.5913196238768235"><ele>711.2</ele><time>2026-05-01T15:19:29.999Z</time></trkpt><trkpt lat="46.32000347049025" lon="6.5911509143339675"><ele>709.4</ele><time>2026-05-01T15:19:30.999Z</time></trkpt><trkpt lat="46.32000017576965" lon="6.59100677662696"><ele>707.6</ele><time>2026-05-01T15:19:31.999Z</time></trkpt><trkpt lat="46.319976000696016" lon="6.59087683296274"><ele>705.8000000000001</ele><time>2026-05-01T15:19:32.999Z</time></trkpt><trkpt lat="46.31993734474992" lon="6.590768506963824"><ele>704.0</ele><time>2026-05-01T15:19:33.999Z</time></trkpt><trkpt lat="46.319917472179014" lon="6.590666574775425"><ele>704.0</ele><time>2026-05-01T15:19:34.999Z</time></trkpt><trkpt lat="46.319947629367185" lon="6.590493782003235"><ele>704.0</ele><time>2026-05-01T15:19:36.999Z</time></trkpt><trkpt lat="46.32002729102613" lon="6.590459853443698"><ele>704.0</ele><time>2026-05-01T15:19:37.999Z</time></trkpt><trkpt lat="46.32010634289875" lon="6.590478300597462"><ele>704.0</ele><time>2026-05-01T15:19:38.999Z</time></trkpt><trkpt lat="46.32018502320731" lon="6.59055288567074"><ele>704.0</ele><time>2026-05-01T15:19:39.999Z</time></trkpt><trkpt lat="46.32024891190542" lon="6.590628140006493"><ele>704.0</ele><time>2026-05-01T15:19:40.999Z</time></trkpt><trkpt lat="46.32029825613154" lon="6.590697844911067"><ele>704.0</ele><time>2026-05-01T15:19:41.999Z</time></trkpt><trkpt lat="46.32033883970792" lon="6.590799051112502"><ele>704.0</ele><time>2026-05-01T15:19:42.999Z</time></trkpt><trkpt lat="46.32037253179361" lon="6.590915095037821"><ele>704.0</ele><time>2026-05-01T15:19:43.999Z</time></trkpt><trkpt lat="46.320379654202924" lon="6.59106768779714"><ele>704.0</ele><time>2026-05-01T15:19:44.999Z</time></trkpt><trkpt lat="46.32037905450449" lon="6.591241270205124"><ele>706.25</ele><time>2026-05-01T15:19:45.999Z</time></trkpt><trkpt lat="46.32037486235954" lon="6.591418449690267"><ele>708.5</ele><time>2026-05-01T15:19:46.999Z</time></trkpt><trkpt lat="46.3204427246364" lon="6.591592264731308"><ele>710.75</ele><time>2026-05-01T15:19:47.999Z</time></trkpt><trkpt lat="46.32052395575706" lon="6.591763211555712"><ele>713.0</ele><time>2026-05-01T15:19:48.999Z</time></trkpt><trkpt lat="46.32061043341414" lon="6.591970608990366"><ele>707.6666666666666</ele><time>2026-05-01T15:19:49.999Z</time></trkpt><trkpt lat="46.320718135179256" lon="6.592195861494877"><ele>702.3333333333334</ele><time>2026-05-01T15:19:50.999Z</time></trkpt><trkpt lat="46.320821551151994" lon="6.592421350669164"><ele>697.0</ele><time>2026-05-01T15:19:51.999Z</time></trkpt><trkpt lat="46.32091676818903" lon="6.592633313560251"><ele>702.0</ele><time>2026-05-01T15:19:52.999Z</time></trkpt><trkpt lat="46.32100880431216" lon="6.592841764960676"><ele>707.0</ele><time>2026-05-01T15:19:53.999Z</time></trkpt><trkpt lat="46.321114128100746" lon="6.59302495653822"><ele>712.0</ele><time>2026-05-01T15:19:54.999Z</time></trkpt><trkpt lat="46.32119299981609" lon="6.593199258376898"><ele>712.0</ele><time>2026-05-01T15:19:55.999Z</time></trkpt><trkpt lat="46.32126234425567" lon="6.593351463742507"><ele>712.0</ele><time>2026-05-01T15:19:56.999Z</time></trkpt><trkpt lat="46.32129902051473" lon="6.5934862403822505"><ele>712.0</ele><time>2026-05-01T15:19:57.999Z</time></trkpt><trkpt lat="46.32133308397823" lon="6.593606198778344"><ele>712.0</ele><time>2026-05-01T15:19:58.999Z</time></trkpt><trkpt lat="46.321398755000104" lon="6.593692683728628"><ele>712.0</ele><time>2026-05-01T15:20:00.999Z</time></trkpt><trkpt lat="46.32152089076363" lon="6.593670309196577"><ele>712.0</ele><time>2026-05-01T15:20:02.999Z</time></trkpt><trkpt lat="46.32154908458796" lon="6.593563491655363"><ele>712.0</ele><time>2026-05-01T15:20:03.999Z</time></trkpt><trkpt lat="46.32153417320654" lon="6.593446093258395"><ele>712.0</ele><time>2026-05-01T15:20:04.999Z</time></trkpt><trkpt lat="46.32146853725096" lon="6.593336271650144"><ele>712.0</ele><time>2026-05-01T15:20:05.999Z</time></trkpt><trkpt lat="46.32141750052074" lon="6.59324341881474"><ele>712.0</ele><time>2026-05-01T15:20:06.999Z</time></trkpt><trkpt lat="46.32134994306058" lon="6.59311380605678"><ele>712.0</ele><time>2026-05-01T15:20:07.999Z</time></trkpt><trkpt lat="46.321286202097276" lon="6.592921392303472"><ele>712.0</ele><time>2026-05-01T15:20:08.999Z</time></trkpt><trkpt lat="46.321245435913916" lon="6.592757979885243"><ele>712.0</ele><time>2026-05-01T15:20:09.999Z</time></trkpt><trkpt lat="46.32124046026135" lon="6.592612352319389"><ele>712.0</ele><time>2026-05-01T15:20:10.999Z</time></trkpt><trkpt lat="46.32122517753201" lon="6.592502089617782"><ele>712.0</ele><time>2026-05-01T15:20:11.999Z</time></trkpt><trkpt lat="46.32129138605072" lon="6.592375670820315"><ele>709.0</ele><time>2026-05-01T15:20:13.999Z</time></trkpt><trkpt lat="46.32135616874976" lon="6.592370325955273"><ele>706.0</ele><time>2026-05-01T15:20:14.999Z</time></trkpt><trkpt lat="46.321433852187894" lon="6.592430794919012"><ele>703.0</ele><time>2026-05-01T15:20:15.999Z</time></trkpt><trkpt lat="46.32148459210591" lon="6.592571082609936"><ele>700.0</ele><time>2026-05-01T15:20:16.999Z</time></trkpt><trkpt lat="46.32156737018456" lon="6.592708516561953"><ele>697.0</ele><time>2026-05-01T15:20:17.999Z</time></trkpt><trkpt lat="46.32167021172548" lon="6.59286084858655"><ele>692.6</ele><time>2026-05-01T15:20:18.999Z</time></trkpt><trkpt lat="46.321762818433214" lon="6.593018398716461"><ele>688.2</ele><time>2026-05-01T15:20:19.999Z</time></trkpt><trkpt lat="46.321836288610356" lon="6.59314389996325"><ele>683.8</ele><time>2026-05-01T15:20:20.999Z</time></trkpt><trkpt lat="46.32189610134627" lon="6.593253769891705"><ele>679.4</ele><time>2026-05-01T15:20:21.999Z</time></trkpt><trkpt lat="46.32194101881814" lon="6.593330999654044"><ele>675.0</ele><time>2026-05-01T15:20:22.999Z</time></trkpt><trkpt lat="46.322056969378174" lon="6.593384800335632"><ele>675.0</ele><time>2026-05-01T15:20:24.999Z</time></trkpt><trkpt lat="46.32211685424016" lon="6.5933335728936155"><ele>675.0</ele><time>2026-05-01T15:20:25.999Z</time></trkpt><trkpt lat="46.32214963665971" lon="6.593230053234413"><ele>675.0</ele><time>2026-05-01T15:20:26.999Z</time></trkpt><trkpt lat="46.322150757621436" lon="6.593130199703723"><ele>675.0</ele><time>2026-05-01T15:20:27.999Z</time></trkpt><trkpt lat="46.32213150996555" lon="6.5929851340050805"><ele>675.0</ele><time>2026-05-01T15:20:28.999Z</time></trkpt><trkpt lat="46.3221386936318" lon="6.592810977448589"><ele>675.0</ele><time>2026-05-01T15:20:29.999Z</time></trkpt><trkpt lat="46.32218792196448" lon="6.5926585272536355"><ele>672.4</ele><time>2026-05-01T15:20:30.999Z</time></trkpt><trkpt lat="46.32224010908552" lon="6.592500014546664"><ele>669.8</ele><time>2026-05-01T15:20:31.999Z</time></trkpt><trkpt lat="46.322273852694956" lon="6.592360906668891"><ele>667.2</ele><time>2026-05-01T15:20:32.999Z</time></trkpt><trkpt lat="46.32228142673477" lon="6.592222659753056"><ele>664.6</ele><time>2026-05-01T15:20:33.999Z</time></trkpt><trkpt lat="46.32225514105934" lon="6.592088178433507"><ele>662.0</ele><time>2026-05-01T15:20:34.999Z</time></trkpt><trkpt lat="46.322190749532346" lon="6.591944092826856"><ele>662.0</ele><time>2026-05-01T15:20:35.999Z</time></trkpt><trkpt lat="46.32210098305939" lon="6.591769805085447"><ele>662.0</ele><time>2026-05-01T15:20:36.999Z</time></trkpt><trkpt lat="46.32200204131034" lon="6.591579614248276"><ele>662.0</ele><time>2026-05-01T15:20:37.999Z</time></trkpt><trkpt lat="46.321940130360616" lon="6.591331683448634"><ele>658.6666666666666</ele><time>2026-05-01T15:20:38.999Z</time></trkpt><trkpt lat="46.32189224731871" lon="6.591079629937251"><ele>655.3333333333334</ele><time>2026-05-01T15:20:39.999Z</time></trkpt><trkpt lat="46.32186411189793" lon="6.59083428652284"><ele>652.0</ele><time>2026-05-01T15:20:40.999Z</time></trkpt><trkpt lat="46.3218383252942" lon="6.590606280600047"><ele>652.0</ele><time>2026-05-01T15:20:41.999Z</time></trkpt><trkpt lat="46.321816997266716" lon="6.59043059041997"><ele>652.0</ele><time>2026-05-01T15:20:42.999Z</time></trkpt><trkpt lat="46.32179928118824" lon="6.590297766799599"><ele>652.0</ele><time>2026-05-01T15:20:43.999Z</time></trkpt><trkpt lat="46.32179267455244" lon="6.590197801567402"><ele>652.0</ele><time>2026-05-01T15:20:44.999Z</time></trkpt><trkpt lat="46.32182504768397" lon="6.59007870840546"><ele>652.0</ele><time>2026-05-01T15:20:47Z</time></trkpt><trkpt lat="46.32193601645861" lon="6.590114454280586"><ele>652.0</ele><time>2026-05-01T15:20:49Z</time></trkpt><trkpt lat="46.32199556993164" lon="6.5901849597728805"><ele>652.0</ele><time>2026-05-01T15:20:50Z</time></trkpt><trkpt lat="46.322002002150484" lon="6.5903482904834005"><ele>652.0</ele><time>2026-05-01T15:20:51Z</time></trkpt><trkpt lat="46.32201668286847" lon="6.590491202555474"><ele>652.0</ele><time>2026-05-01T15:20:52Z</time></trkpt><trkpt lat="46.32202427124424" lon="6.590620600704904"><ele>652.0</ele><time>2026-05-01T15:20:53Z</time></trkpt><trkpt lat="46.32202566260196" lon="6.59075519035051"><ele>652.0</ele><time>2026-05-01T15:20:54Z</time></trkpt><trkpt lat="46.32203509707178" lon="6.590871851818449"><ele>652.0</ele><time>2026-05-01T15:20:55Z</time></trkpt><trkpt lat="46.322036824698124" lon="6.590963812744122"><ele>652.0</ele><time>2026-05-01T15:20:56Z</time></trkpt><trkpt lat="46.32214743469888" lon="6.591049108614034"><ele>652.0</ele><time>2026-05-01T15:20:58Z</time></trkpt><trkpt lat="46.32221618861704" lon="6.591008506242792"><ele>652.0</ele><time>2026-05-01T15:20:59Z</time></trkpt><trkpt lat="46.32225628596655" lon="6.5909157098621325"><ele>652.0</ele><time>2026-05-01T15:21:00Z</time></trkpt><trkpt lat="46.32226798263005" lon="6.590772165003783"><ele>648.3333333333334</ele><time>2026-05-01T15:21:01Z</time></trkpt><trkpt lat="46.32224914650412" lon="6.590639958287358"><ele>644.6666666666667</ele><time>2026-05-01T15:21:02Z</time></trkpt><trkpt lat="46.32223664139879" lon="6.590490045463507"><ele>641.0</ele><time>2026-05-01T15:21:03Z</time></trkpt><trkpt lat="46.322255373554434" lon="6.590401420569071"><ele>637.3333333333334</ele><time>2026-05-01T15:21:04Z</time></trkpt><trkpt lat="46.322324945770816" lon="6.590372575080925"><ele>633.6666666666666</ele><time>2026-05-01T15:21:05Z</time></trkpt><trkpt lat="46.3223864446673" lon="6.590400112575509"><ele>630.0</ele><time>2026-05-01T15:21:06Z</time></trkpt><trkpt lat="46.32242550729571" lon="6.5904823046082806"><ele>630.0</ele><time>2026-05-01T15:21:07Z</time></trkpt><trkpt lat="46.32242100009188" lon="6.590600945954326"><ele>630.0</ele><time>2026-05-01T15:21:08Z</time></trkpt><trkpt lat="46.32238762544469" lon="6.59073421029998"><ele>630.0</ele><time>2026-05-01T15:21:09Z</time></trkpt><trkpt lat="46.32236483125824" lon="6.590867102042922"><ele>630.0</ele><time>2026-05-01T15:21:10Z</time></trkpt><trkpt lat="46.32238727748848" lon="6.590979827251639"><ele>630.0</ele><time>2026-05-01T15:21:11Z</time></trkpt><trkpt lat="46.32244122398331" lon="6.591049014321646"><ele>630.0</ele><time>2026-05-01T15:21:12Z</time></trkpt><trkpt lat="46.322509764018086" lon="6.591091394518852"><ele>630.0</ele><time>2026-05-01T15:21:13Z</time></trkpt><trkpt lat="46.32257595259829" lon="6.59106471741111"><ele>630.0</ele><time>2026-05-01T15:21:14Z</time></trkpt><trkpt lat="46.3226369246824" lon="6.591003185613834"><ele>630.0</ele><time>2026-05-01T15:21:15Z</time></trkpt><trkpt lat="46.322653717485146" lon="6.590850509169425"><ele>630.0</ele><time>2026-05-01T15:21:16Z</time></trkpt><trkpt lat="46.322669470886474" lon="6.590689380093583"><ele>630.0</ele><time>2026-05-01T15:21:17Z</time></trkpt><trkpt lat="46.322672253904095" lon="6.5905049555355655"><ele>630.0</ele><time>2026-05-01T15:21:18Z</time></trkpt><trkpt lat="46.32265008544298" lon="6.5903472067155535"><ele>630.0</ele><time>2026-05-01T15:21:19Z</time></trkpt><trkpt lat="46.32259388556851" lon="6.590227976960703"><ele>630.0</ele><time>2026-05-01T15:21:19.999Z</time></trkpt><trkpt lat="46.3225245993219" lon="6.590132948777175"><ele>630.0</ele><time>2026-05-01T15:21:20.999Z</time></trkpt><trkpt lat="46.322447276682524" lon="6.59005872054859"><ele>630.0</ele><time>2026-05-01T15:21:21.999Z</time></trkpt><trkpt lat="46.32236589673838" lon="6.589992841623379"><ele>627.8</ele><time>2026-05-01T15:21:22.999Z</time></trkpt><trkpt lat="46.322321221795484" lon="6.589913325264717"><ele>625.6</ele><time>2026-05-01T15:21:23.999Z</time></trkpt><trkpt lat="46.32229749424957" lon="6.589755685480871"><ele>623.4</ele><time>2026-05-01T15:21:25.999Z</time></trkpt><trkpt lat="46.322368818680246" lon="6.589708078547481"><ele>621.2</ele><time>2026-05-01T15:21:26.999Z</time></trkpt><trkpt lat="46.322488399005294" lon="6.589768537993914"><ele>619.0</ele><time>2026-05-01T15:21:28.999Z</time></trkpt><trkpt lat="46.32253598563472" lon="6.589900147598913"><ele>619.0</ele><time>2026-05-01T15:21:29.999Z</time></trkpt><trkpt lat="46.322625348129286" lon="6.590032322563789"><ele>619.0</ele><time>2026-05-01T15:21:30.999Z</time></trkpt><trkpt lat="46.3227151148649" lon="6.5901664544103555"><ele>619.0</ele><time>2026-05-01T15:21:31.999Z</time></trkpt><trkpt lat="46.32279071436781" lon="6.590282772850255"><ele>619.0</ele><time>2026-05-01T15:21:32.999Z</time></trkpt><trkpt lat="46.32287107723148" lon="6.590412069299525"><ele>621.2</ele><time>2026-05-01T15:21:33.999Z</time></trkpt><trkpt lat="46.32297875998625" lon="6.5905392409765895"><ele>623.4</ele><time>2026-05-01T15:21:34.999Z</time></trkpt><trkpt lat="46.32308444521763" lon="6.590646142509729"><ele>625.6</ele><time>2026-05-01T15:21:35.999Z</time></trkpt><trkpt lat="46.323149071509796" lon="6.59076454604576"><ele>627.8</ele><time>2026-05-01T15:21:36.999Z</time></trkpt><trkpt lat="46.32319295728087" lon="6.590852889578109"><ele>630.0</ele><time>2026-05-01T15:21:37.999Z</time></trkpt><trkpt lat="46.32322764767483" lon="6.590943495142161"><ele>623.8</ele><time>2026-05-01T15:21:38.999Z</time></trkpt><trkpt lat="46.32320643307021" lon="6.591103114104087"><ele>617.6</ele><time>2026-05-01T15:21:40.999Z</time></trkpt><trkpt lat="46.32314844560795" lon="6.591176575136185"><ele>611.4</ele><time>2026-05-01T15:21:41.999Z</time></trkpt><trkpt lat="46.32312653910167" lon="6.591264603897953"><ele>605.2</ele><time>2026-05-01T15:21:42.999Z</time></trkpt><trkpt lat="46.32318203400214" lon="6.591494794448161"><ele>599.0</ele><time>2026-05-01T15:21:44.999Z</time></trkpt><trkpt lat="46.32321612733005" lon="6.5916517162244"><ele>599.0</ele><time>2026-05-01T15:21:45.999Z</time></trkpt><trkpt lat="46.32321499433438" lon="6.591799561140145"><ele>599.0</ele><time>2026-05-01T15:21:46.999Z</time></trkpt><trkpt lat="46.32317942418881" lon="6.591949677037277"><ele>599.0</ele><time>2026-05-01T15:21:47.999Z</time></trkpt><trkpt lat="46.32316484646606" lon="6.59212204652912"><ele>599.0</ele><time>2026-05-01T15:21:48.999Z</time></trkpt><trkpt lat="46.32317081927174" lon="6.592306864058008"><ele>599.25</ele><time>2026-05-01T15:21:49.999Z</time></trkpt><trkpt lat="46.32321918703958" lon="6.592510175542687"><ele>599.5</ele><time>2026-05-01T15:21:50.999Z</time></trkpt><trkpt lat="46.32324965872839" lon="6.59271363782368"><ele>599.75</ele><time>2026-05-01T15:21:51.999Z</time></trkpt><trkpt lat="46.32324830174272" lon="6.592908471674938"><ele>600.0</ele><time>2026-05-01T15:21:52.999Z</time></trkpt><trkpt lat="46.32325132290147" lon="6.593097993902959"><ele>600.0</ele><time>2026-05-01T15:21:53.999Z</time></trkpt><trkpt lat="46.32326034423187" lon="6.593290305359258"><ele>600.0</ele><time>2026-05-01T15:21:54.999Z</time></trkpt><trkpt lat="46.323298163773586" lon="6.593474720188397"><ele>600.0</ele><time>2026-05-01T15:21:55.999Z</time></trkpt><trkpt lat="46.32333993416507" lon="6.593693022391881"><ele>600.0</ele><time>2026-05-01T15:21:56.999Z</time></trkpt><trkpt lat="46.32339845233896" lon="6.593927154945511"><ele>601.75</ele><time>2026-05-01T15:21:57.999Z</time></trkpt><trkpt lat="46.32345917290355" lon="6.594145520331203"><ele>603.5</ele><time>2026-05-01T15:21:58.999Z</time></trkpt><trkpt lat="46.323512785305724" lon="6.594328883235409"><ele>605.25</ele><time>2026-05-01T15:21:59.999Z</time></trkpt><trkpt lat="46.32355841966135" lon="6.594482590455566"><ele>607.0</ele><time>2026-05-01T15:22:00.999Z</time></trkpt><trkpt lat="46.32359388812038" lon="6.594595135769457"><ele>609.5</ele><time>2026-05-01T15:22:01.999Z</time></trkpt><trkpt lat="46.3236278392708" lon="6.59469698049476"><ele>612.0</ele><time>2026-05-01T15:22:02.999Z</time></trkpt><trkpt lat="46.32365939653691" lon="6.594780858775284"><ele>614.5</ele><time>2026-05-01T15:22:03.999Z</time></trkpt><trkpt lat="46.323759496809544" lon="6.594847108720233"><ele>617.0</ele><time>2026-05-01T15:22:05.999Z</time></trkpt><trkpt lat="46.32382054724035" lon="6.59480294768973"><ele>619.5</ele><time>2026-05-01T15:22:06.999Z</time></trkpt><trkpt lat="46.3238564201972" lon="6.594720304101028"><ele>622.0</ele><time>2026-05-01T15:22:07.999Z</time></trkpt><trkpt lat="46.323868643310405" lon="6.594598910713827"><ele>619.0</ele><time>2026-05-01T15:22:08.999Z</time></trkpt><trkpt lat="46.32384613560137" lon="6.594479831899732"><ele>616.0</ele><time>2026-05-01T15:22:09.999Z</time></trkpt><trkpt lat="46.32379698559086" lon="6.5943349086479675"><ele>613.0</ele><time>2026-05-01T15:22:10.999Z</time></trkpt><trkpt lat="46.323745408321095" lon="6.594176279117294"><ele>610.0</ele><time>2026-05-01T15:22:11.999Z</time></trkpt><trkpt lat="46.323718476364554" lon="6.594005409479991"><ele>607.0</ele><time>2026-05-01T15:22:12.999Z</time></trkpt><trkpt lat="46.323755939498795" lon="6.593832643853592"><ele>607.0</ele><time>2026-05-01T15:22:13.999Z</time></trkpt><trkpt lat="46.32381330900921" lon="6.593674432388572"><ele>607.0</ele><time>2026-05-01T15:22:14.999Z</time></trkpt><trkpt lat="46.32387784779415" lon="6.593497890568463"><ele>607.0</ele><time>2026-05-01T15:22:15.999Z</time></trkpt><trkpt lat="46.323906718546674" lon="6.593334366603224"><ele>607.0</ele><time>2026-05-01T15:22:16.999Z</time></trkpt><trkpt lat="46.32391680071115" lon="6.593166774060521"><ele>596.4</ele><time>2026-05-01T15:22:17.999Z</time></trkpt><trkpt lat="46.32391194410267" lon="6.593004878234976"><ele>585.8000000000001</ele><time>2026-05-01T15:22:18.999Z</time></trkpt><trkpt lat="46.323927817123604" lon="6.592842963447132"><ele>575.2</ele><time>2026-05-01T15:22:19.999Z</time></trkpt><trkpt lat="46.323911927033" lon="6.592690793839923"><ele>564.6</ele><time>2026-05-01T15:22:20.999Z</time></trkpt><trkpt lat="46.32391651501428" lon="6.592530167092671"><ele>554.0</ele><time>2026-05-01T15:22:21.999Z</time></trkpt><trkpt lat="46.32391828201792" lon="6.592378369045902"><ele>554.0</ele><time>2026-05-01T15:22:22.999Z</time></trkpt><trkpt lat="46.32394484208206" lon="6.592239772862854"><ele>554.0</ele><time>2026-05-01T15:22:23.999Z</time></trkpt><trkpt lat="46.32396686174665" lon="6.592132216696043"><ele>554.0</ele><time>2026-05-01T15:22:24.999Z</time></trkpt><trkpt lat="46.323978812865036" lon="6.592042279334644"><ele>554.0</ele><time>2026-05-01T15:22:25.999Z</time></trkpt><trkpt lat="46.324072717086445" lon="6.591993259488171"><ele>554.0</ele><time>2026-05-01T15:22:27.999Z</time></trkpt><trkpt lat="46.32414738207597" lon="6.592075890285114"><ele>554.0</ele><time>2026-05-01T15:22:29.999Z</time></trkpt><trkpt lat="46.32413920844036" lon="6.592226242276129"><ele>553.1666666666666</ele><time>2026-05-01T15:22:31.999Z</time></trkpt><trkpt lat="46.3240736276775" lon="6.592285970901347"><ele>552.3333333333333</ele><time>2026-05-01T15:22:32.999Z</time></trkpt><trkpt lat="46.324040488578675" lon="6.592368453534895"><ele>551.5</ele><time>2026-05-01T15:22:33.999Z</time></trkpt><trkpt lat="46.324034883414285" lon="6.592516723065527"><ele>550.6666666666666</ele><time>2026-05-01T15:22:35.999Z</time></trkpt><trkpt lat="46.32410468907755" lon="6.592631793668167"><ele>549.8333333333334</ele><time>2026-05-01T15:22:37.999Z</time></trkpt><trkpt lat="46.32417840565877" lon="6.59265214708767"><ele>549.0</ele><time>2026-05-01T15:22:39.999Z</time></trkpt><trkpt lat="46.32424675463441" lon="6.592549062114882"><ele>549.0</ele><time>2026-05-01T15:22:42.999Z</time></trkpt><trkpt lat="46.32427763419907" lon="6.592404628452986"><ele>549.0</ele><time>2026-05-01T15:22:43.999Z</time></trkpt><trkpt lat="46.3243003026766" lon="6.592246021159775"><ele>549.0</ele><time>2026-05-01T15:22:44.999Z</time></trkpt><trkpt lat="46.32433600228497" lon="6.592042441804407"><ele>549.0</ele><time>2026-05-01T15:22:45.999Z</time></trkpt><trkpt lat="46.3243827315121" lon="6.591826984444154"><ele>550.6666666666666</ele><time>2026-05-01T15:22:46.999Z</time></trkpt><trkpt lat="46.32441297127049" lon="6.591611633532178"><ele>552.3333333333333</ele><time>2026-05-01T15:22:47.999Z</time></trkpt><trkpt lat="46.32441310854575" lon="6.591359282269181"><ele>554.0</ele><time>2026-05-01T15:22:48.999Z</time></trkpt><trkpt lat="46.32438459804303" lon="6.591067554887981"><ele>556.0</ele><time>2026-05-01T15:22:49.999Z</time></trkpt><trkpt lat="46.32433256241292" lon="6.5907495849807525"><ele>558.0</ele><time>2026-05-01T15:22:50.999Z</time></trkpt><trkpt lat="46.324256044178426" lon="6.590396759550791"><ele>560.0</ele><time>2026-05-01T15:22:51.999Z</time></trkpt><trkpt lat="46.32419125561995" lon="6.590058113174407"><ele>562.0</ele><time>2026-05-01T15:22:53Z</time></trkpt><trkpt lat="46.32414007601564" lon="6.589760941346585"><ele>559.3333333333334</ele><time>2026-05-01T15:22:54Z</time></trkpt><trkpt lat="46.324095600161556" lon="6.589495990555257"><ele>556.6666666666666</ele><time>2026-05-01T15:22:55Z</time></trkpt><trkpt lat="46.32406083391325" lon="6.589245760003678"><ele>554.0</ele><time>2026-05-01T15:22:56Z</time></trkpt><trkpt lat="46.32404179129758" lon="6.588994467121879"><ele>554.0</ele><time>2026-05-01T15:22:57Z</time></trkpt><trkpt lat="46.32404801598376" lon="6.588754069945054"><ele>554.0</ele><time>2026-05-01T15:22:58Z</time></trkpt><trkpt lat="46.3240753883549" lon="6.5885284208292125"><ele>554.0</ele><time>2026-05-01T15:22:59Z</time></trkpt><trkpt lat="46.3241210346069" lon="6.588331712651234"><ele>553.0</ele><time>2026-05-01T15:23:00Z</time></trkpt><trkpt lat="46.324180184019966" lon="6.588143377382383"><ele>552.0</ele><time>2026-05-01T15:23:01Z</time></trkpt><trkpt lat="46.324254374789014" lon="6.5879699773422375"><ele>551.0</ele><time>2026-05-01T15:23:02Z</time></trkpt><trkpt lat="46.324338400550545" lon="6.587827824383321"><ele>550.0</ele><time>2026-05-01T15:23:03Z</time></trkpt><trkpt lat="46.324434199806035" lon="6.587738679713096"><ele>549.2</ele><time>2026-05-01T15:23:04Z</time></trkpt><trkpt lat="46.3245294388577" lon="6.5876680738541715"><ele>548.4</ele><time>2026-05-01T15:23:05Z</time></trkpt><trkpt lat="46.32459492679587" lon="6.587572756896533"><ele>547.6</ele><time>2026-05-01T15:23:06Z</time></trkpt><trkpt lat="46.32462816988481" lon="6.587436820569175"><ele>546.8</ele><time>2026-05-01T15:23:07Z</time></trkpt><trkpt lat="46.324631706193834" lon="6.587282427217871"><ele>546.0</ele><time>2026-05-01T15:23:08Z</time></trkpt><trkpt lat="46.324642853387374" lon="6.587102631648445"><ele>543.6666666666666</ele><time>2026-05-01T15:23:09Z</time></trkpt><trkpt lat="46.324700280463034" lon="6.58691769553062"><ele>541.3333333333333</ele><time>2026-05-01T15:23:10Z</time></trkpt><trkpt lat="46.32479369347756" lon="6.586702638484008"><ele>539.0</ele><time>2026-05-01T15:23:11Z</time></trkpt><trkpt lat="46.32488687560285" lon="6.586484262034548"><ele>537.0</ele><time>2026-05-01T15:23:12Z</time></trkpt><trkpt lat="46.32496926586418" lon="6.586296793107741"><ele>535.0</ele><time>2026-05-01T15:23:13Z</time></trkpt><trkpt lat="46.32505410705403" lon="6.586135223144244"><ele>533.0</ele><time>2026-05-01T15:23:14Z</time></trkpt><trkpt lat="46.32516589929915" lon="6.5860183688154095"><ele>531.0</ele><time>2026-05-01T15:23:15Z</time></trkpt><trkpt lat="46.32530870707572" lon="6.585931733679292"><ele>538.3333333333334</ele><time>2026-05-01T15:23:16Z</time></trkpt><trkpt lat="46.32547059545616" lon="6.585858279006695"><ele>545.6666666666667</ele><time>2026-05-01T15:23:16.999Z</time></trkpt><trkpt lat="46.32562994430377" lon="6.585785344710942"><ele>553.0</ele><time>2026-05-01T15:23:17.999Z</time></trkpt><trkpt lat="46.325803618396044" lon="6.585703837169548"><ele>553.3333333333334</ele><time>2026-05-01T15:23:18.999Z</time></trkpt><trkpt lat="46.325977621591655" lon="6.585608013271796"><ele>553.6666666666666</ele><time>2026-05-01T15:23:19.999Z</time></trkpt><trkpt lat="46.326124504574906" lon="6.585475511423505"><ele>554.0</ele><time>2026-05-01T15:23:20.999Z</time></trkpt><trkpt lat="46.32626087040451" lon="6.585332054325428"><ele>558.0</ele><time>2026-05-01T15:23:21.999Z</time></trkpt><trkpt lat="46.326395524141056" lon="6.585177585621121"><ele>562.0</ele><time>2026-05-01T15:23:22.999Z</time></trkpt><trkpt lat="46.32653787230745" lon="6.58503095934669"><ele>566.0</ele><time>2026-05-01T15:23:23.999Z</time></trkpt><trkpt lat="46.32667908414849" lon="6.584876641946278"><ele>566.0</ele><time>2026-05-01T15:23:24.999Z</time></trkpt><trkpt lat="46.326824983666256" lon="6.584699234566967"><ele>566.0</ele><time>2026-05-01T15:23:26.073Z</time></trkpt><trkpt lat="46.326938113913826" lon="6.584565194321043"><ele>566.0</ele><time>2026-05-01T15:23:27.054Z</time></trkpt><trkpt lat="46.32705045780504" lon="6.584440162402396"><ele>555.5</ele><time>2026-05-01T15:23:28.057Z</time></trkpt><trkpt lat="46.32718750845451" lon="6.584301456396708"><ele>545.0</ele><time>2026-05-01T15:23:29.054Z</time></trkpt><trkpt lat="46.32799845539541" lon="6.584050983150579"><ele>548.5</ele><time>2026-05-01T15:23:30.999Z</time></trkpt><trkpt lat="46.32817215144056" lon="6.583823612990443"><ele>552.0</ele><time>2026-05-01T15:23:31.999Z</time></trkpt><trkpt lat="46.32822935446282" lon="6.583323064427108"><ele>547.0</ele><time>2026-05-01T15:23:32.999Z</time></trkpt><trkpt lat="46.328392007963636" lon="6.583073975851336"><ele>542.0</ele><time>2026-05-01T15:23:33.999Z</time></trkpt><trkpt lat="46.328538867897386" lon="6.5827548593198015"><ele>542.0</ele><time>2026-05-01T15:23:34.999Z</time></trkpt><trkpt lat="46.328692425680984" lon="6.582482755679012"><ele>542.0</ele><time>2026-05-01T15:23:35.999Z</time></trkpt><trkpt lat="46.32878192578052" lon="6.582312926989192"><ele>542.0</ele><time>2026-05-01T15:23:36.999Z</time></trkpt><trkpt lat="46.32892227363217" lon="6.582162291436978"><ele>540.0</ele><time>2026-05-01T15:23:37.999Z</time></trkpt><trkpt lat="46.32904570428726" lon="6.582096452293931"><ele>538.0</ele><time>2026-05-01T15:23:38.999Z</time></trkpt><trkpt lat="46.32918118061789" lon="6.582043310689013"><ele>536.0</ele><time>2026-05-01T15:23:39.999Z</time></trkpt><trkpt lat="46.32932265453665" lon="6.582003457022705"><ele>534.0</ele><time>2026-05-01T15:23:40.999Z</time></trkpt><trkpt lat="46.329470573780235" lon="6.582035803656825"><ele>534.0</ele><time>2026-05-01T15:23:41.999Z</time></trkpt><trkpt lat="46.32962234785259" lon="6.582034604770003"><ele>534.0</ele><time>2026-05-01T15:23:42.999Z</time></trkpt><trkpt lat="46.329778858180426" lon="6.5819699834936"><ele>534.0</ele><time>2026-05-01T15:23:43.999Z</time></trkpt><trkpt lat="46.32986439008459" lon="6.581863979815017"><ele>534.0</ele><time>2026-05-01T15:23:44.999Z</time></trkpt><trkpt lat="46.329965215051864" lon="6.581718828617097"><ele>538.0</ele><time>2026-05-01T15:23:45.999Z</time></trkpt><trkpt lat="46.33005097023763" lon="6.581525177545879"><ele>542.0</ele><time>2026-05-01T15:23:46.999Z</time></trkpt><trkpt lat="46.33017245360038" lon="6.581331450854023"><ele>546.0</ele><time>2026-05-01T15:23:47.999Z</time></trkpt><trkpt lat="46.330282643801624" lon="6.581185087344788"><ele>544.6666666666666</ele><time>2026-05-01T15:23:48.999Z</time></trkpt><trkpt lat="46.33042173514087" lon="6.581115308742336"><ele>543.3333333333333</ele><time>2026-05-01T15:23:49.999Z</time></trkpt><trkpt lat="46.33058560118529" lon="6.581123530685637"><ele>542.0</ele><time>2026-05-01T15:23:50.999Z</time></trkpt><trkpt lat="46.33075890314066" lon="6.581146162512173"><ele>542.0</ele><time>2026-05-01T15:23:51.999Z</time></trkpt><trkpt lat="46.33088033041078" lon="6.581140145759295"><ele>542.0</ele><time>2026-05-01T15:23:52.999Z</time></trkpt><trkpt lat="46.331026840091575" lon="6.581174109732018"><ele>542.0</ele><time>2026-05-01T15:23:53.999Z</time></trkpt><trkpt lat="46.33115419171185" lon="6.581186936463551"><ele>542.0</ele><time>2026-05-01T15:23:54.999Z</time></trkpt><trkpt lat="46.33128907539778" lon="6.58109481122344"><ele>544.5</ele><time>2026-05-01T15:23:55.999Z</time></trkpt><trkpt lat="46.33140775284295" lon="6.580992468545456"><ele>547.0</ele><time>2026-05-01T15:23:56.999Z</time></trkpt><trkpt lat="46.33149183028183" lon="6.580876364990282"><ele>549.5</ele><time>2026-05-01T15:23:57.999Z</time></trkpt><trkpt lat="46.33156435295899" lon="6.580644890486261"><ele>552.0</ele><time>2026-05-01T15:23:58.999Z</time></trkpt><trkpt lat="46.3316022778358" lon="6.580408876335638"><ele>545.6666666666666</ele><time>2026-05-01T15:23:59.999Z</time></trkpt><trkpt lat="46.331616174469104" lon="6.5801575280602105"><ele>539.3333333333333</ele><time>2026-05-01T15:24:00.999Z</time></trkpt><trkpt lat="46.33160788021138" lon="6.579893656857083"><ele>533.0</ele><time>2026-05-01T15:24:01.999Z</time></trkpt><trkpt lat="46.331617818083586" lon="6.579631793765517"><ele>537.0</ele><time>2026-05-01T15:24:02.999Z</time></trkpt><trkpt lat="46.331676826264136" lon="6.5793656705792865"><ele>541.0</ele><time>2026-05-01T15:24:03.999Z</time></trkpt><trkpt lat="46.331748303307684" lon="6.579099620508779"><ele>545.0</ele><time>2026-05-01T15:24:04.999Z</time></trkpt><trkpt lat="46.33184773323478" lon="6.578903077848023"><ele>545.0</ele><time>2026-05-01T15:24:05.999Z</time></trkpt><trkpt lat="46.331959787502534" lon="6.578739551537057"><ele>545.0</ele><time>2026-05-01T15:24:06.999Z</time></trkpt><trkpt lat="46.33208760670623" lon="6.578611964019674"><ele>545.0</ele><time>2026-05-01T15:24:07.999Z</time></trkpt><trkpt lat="46.33223600001037" lon="6.578503547307893"><ele>547.3333333333333</ele><time>2026-05-01T15:24:08.999Z</time></trkpt><trkpt lat="46.33241229200337" lon="6.578436298644433"><ele>549.6666666666666</ele><time>2026-05-01T15:24:09.999Z</time></trkpt><trkpt lat="46.33259562267947" lon="6.578383965666858"><ele>552.0</ele><time>2026-05-01T15:24:10.999Z</time></trkpt><trkpt lat="46.33277023520309" lon="6.5783295895265725"><ele>552.0</ele><time>2026-05-01T15:24:11.999Z</time></trkpt><trkpt lat="46.33294430086537" lon="6.578259576245205"><ele>552.0</ele><time>2026-05-01T15:24:12.999Z</time></trkpt><trkpt lat="46.333112022680254" lon="6.578156500256283"><ele>552.0</ele><time>2026-05-01T15:24:13.999Z</time></trkpt><trkpt lat="46.333267897607875" lon="6.578042019440059"><ele>552.0</ele><time>2026-05-01T15:24:14.999Z</time></trkpt><trkpt lat="46.33342935919181" lon="6.577910065549707"><ele>552.0</ele><time>2026-05-01T15:24:16.077Z</time></trkpt><trkpt lat="46.33402850814649" lon="6.577698240459348"><ele>543.6666666666666</ele><time>2026-05-01T15:24:17.999Z</time></trkpt><trkpt lat="46.33413995915472" lon="6.577408531059506"><ele>535.3333333333333</ele><time>2026-05-01T15:24:18.999Z</time></trkpt><trkpt lat="46.33432125179047" lon="6.577238908540974"><ele>527.0</ele><time>2026-05-01T15:24:19.999Z</time></trkpt><trkpt lat="46.334464050060355" lon="6.577047580179019"><ele>529.3333333333333</ele><time>2026-05-01T15:24:20.999Z</time></trkpt><trkpt lat="46.334570208106165" lon="6.576823316496636"><ele>531.6666666666666</ele><time>2026-05-01T15:24:21.999Z</time></trkpt><trkpt lat="46.33467392300133" lon="6.5765785614403764"><ele>534.0</ele><time>2026-05-01T15:24:22.999Z</time></trkpt><trkpt lat="46.3347465324652" lon="6.576322699306008"><ele>531.6666666666666</ele><time>2026-05-01T15:24:23.999Z</time></trkpt><trkpt lat="46.334852995667376" lon="6.576088882681642"><ele>529.3333333333333</ele><time>2026-05-01T15:24:24.999Z</time></trkpt><trkpt lat="46.33498911595028" lon="6.575872518169621"><ele>527.0</ele><time>2026-05-01T15:24:25.999Z</time></trkpt><trkpt lat="46.335135550553346" lon="6.575680212542627"><ele>527.0</ele><time>2026-05-01T15:24:26.999Z</time></trkpt><trkpt lat="46.33531508435906" lon="6.575544551110503"><ele>527.0</ele><time>2026-05-01T15:24:27.999Z</time></trkpt><trkpt lat="46.33547986092276" lon="6.5753841378486815"><ele>527.0</ele><time>2026-05-01T15:24:28.999Z</time></trkpt><trkpt lat="46.335643890828" lon="6.5752543350505235"><ele>531.6666666666666</ele><time>2026-05-01T15:24:29.999Z</time></trkpt><trkpt lat="46.33579020271514" lon="6.575130126908328"><ele>536.3333333333334</ele><time>2026-05-01T15:24:30.999Z</time></trkpt><trkpt lat="46.33591590547306" lon="6.5749807500329664"><ele>541.0</ele><time>2026-05-01T15:24:31.999Z</time></trkpt><trkpt lat="46.3360110890094" lon="6.5747982618639895"><ele>541.0</ele><time>2026-05-01T15:24:32.999Z</time></trkpt><trkpt lat="46.33607780983088" lon="6.574570959799817"><ele>541.0</ele><time>2026-05-01T15:24:33.999Z</time></trkpt><trkpt lat="46.33611276062688" lon="6.574349873270818"><ele>541.0</ele><time>2026-05-01T15:24:34.999Z</time></trkpt><trkpt lat="46.33615726163288" lon="6.574142620152814"><ele>532.3333333333334</ele><time>2026-05-01T15:24:35.999Z</time></trkpt><trkpt lat="46.33624201173323" lon="6.5739587300752484"><ele>523.6666666666666</ele><time>2026-05-01T15:24:36.999Z</time></trkpt><trkpt lat="46.33636716671851" lon="6.573784864873313"><ele>515.0</ele><time>2026-05-01T15:24:37.999Z</time></trkpt><trkpt lat="46.33654509660787" lon="6.573622401124453"><ele>515.0</ele><time>2026-05-01T15:24:38.999Z</time></trkpt><trkpt lat="46.33674298311153" lon="6.573452724621728"><ele>515.0</ele><time>2026-05-01T15:24:39.999Z</time></trkpt><trkpt lat="46.33694940551129" lon="6.573252124398581"><ele>515.0</ele><time>2026-05-01T15:24:40.999Z</time></trkpt><trkpt lat="46.337138505022104" lon="6.573080428284289"><ele>515.0</ele><time>2026-05-01T15:24:41.999Z</time></trkpt><trkpt lat="46.3373172589178" lon="6.572945975512608"><ele>515.0</ele><time>2026-05-01T15:24:42.999Z</time></trkpt><trkpt lat="46.33749515254911" lon="6.572834313900425"><ele>515.3333333333333</ele><time>2026-05-01T15:24:43.999Z</time></trkpt><trkpt lat="46.33765982947484" lon="6.572714181767603"><ele>515.6666666666666</ele><time>2026-05-01T15:24:44.999Z</time></trkpt><trkpt lat="46.33780493973882" lon="6.5725723338775826"><ele>516.0</ele><time>2026-05-01T15:24:45.999Z</time></trkpt><trkpt lat="46.337919756789944" lon="6.5724323868126415"><ele>516.0</ele><time>2026-05-01T15:24:46.999Z</time></trkpt><trkpt lat="46.33801943350546" lon="6.572286843330347"><ele>516.0</ele><time>2026-05-01T15:24:47.999Z</time></trkpt><trkpt lat="46.338096219277304" lon="6.572136708261318"><ele>516.0</ele><time>2026-05-01T15:24:48.999Z</time></trkpt><trkpt lat="46.33814233622563" lon="6.571963232948188"><ele>516.0</ele><time>2026-05-01T15:24:49.999Z</time></trkpt><trkpt lat="46.33814651214675" lon="6.5717644542558"><ele>517.0</ele><time>2026-05-01T15:24:50.999Z</time></trkpt><trkpt lat="46.33811222175193" lon="6.571547450084948"><ele>518.0</ele><time>2026-05-01T15:24:51.999Z</time></trkpt><trkpt lat="46.33803891205132" lon="6.571305040937971"><ele>519.0</ele><time>2026-05-01T15:24:52.999Z</time></trkpt><trkpt lat="46.33796357603207" lon="6.571022674460158"><ele>519.5</ele><time>2026-05-01T15:24:53.999Z</time></trkpt><trkpt lat="46.337949447109395" lon="6.5706926833461425"><ele>520.0</ele><time>2026-05-01T15:24:54.999Z</time></trkpt><trkpt lat="46.3379146716131" lon="6.570301088717495"><ele>520.0</ele><time>2026-05-01T15:24:55.998Z</time></trkpt><trkpt lat="46.33783557548545" lon="6.569940704452287"><ele>520.0</ele><time>2026-05-01T15:24:56.998Z</time></trkpt><trkpt lat="46.33781020770695" lon="6.569610558087979"><ele>519.6666666666667</ele><time>2026-05-01T15:24:57.998Z</time></trkpt><trkpt lat="46.33783218567833" lon="6.569316143380746"><ele>519.3333333333334</ele><time>2026-05-01T15:24:59Z</time></trkpt><trkpt lat="46.33787176807925" lon="6.569004623082054"><ele>519.0</ele><time>2026-05-01T15:25:00Z</time></trkpt><trkpt lat="46.33786073341857" lon="6.568690105847359"><ele>519.0</ele><time>2026-05-01T15:25:00.999Z</time></trkpt><trkpt lat="46.337810747070684" lon="6.568351528333447"><ele>519.0</ele><time>2026-05-01T15:25:02Z</time></trkpt><trkpt lat="46.33773624407222" lon="6.5680026164033"><ele>518.3333333333334</ele><time>2026-05-01T15:25:03Z</time></trkpt><trkpt lat="46.33769868907143" lon="6.56767959571711"><ele>517.6666666666667</ele><time>2026-05-01T15:25:03.999Z</time></trkpt><trkpt lat="46.337660381720376" lon="6.567413597908004"><ele>517.0</ele><time>2026-05-01T15:25:04.999Z</time></trkpt><trkpt lat="46.33765037674592" lon="6.567185680146003"><ele>515.0</ele><time>2026-05-01T15:25:06Z</time></trkpt><trkpt lat="46.33767601933471" lon="6.566964597492561"><ele>513.0</ele><time>2026-05-01T15:25:06.999Z</time></trkpt><trkpt lat="46.33775373552073" lon="6.566747378314412"><ele>511.0</ele><time>2026-05-01T15:25:08Z</time></trkpt><trkpt lat="46.33787875380287" lon="6.566526135800316"><ele>511.0</ele><time>2026-05-01T15:25:09Z</time></trkpt><trkpt lat="46.33802395191461" lon="6.566279725229836"><ele>511.0</ele><time>2026-05-01T15:25:10Z</time></trkpt><trkpt lat="46.33816840645632" lon="6.566007508651481"><ele>511.5</ele><time>2026-05-01T15:25:11Z</time></trkpt><trkpt lat="46.33831500500573" lon="6.56575432362685"><ele>512.0</ele><time>2026-05-01T15:25:12Z</time></trkpt><trkpt lat="46.33844030241116" lon="6.565489944484786"><ele>507.3333333333333</ele><time>2026-05-01T15:25:13Z</time></trkpt><trkpt lat="46.338531664260756" lon="6.565195978061019"><ele>502.66666666666663</ele><time>2026-05-01T15:25:14Z</time></trkpt><trkpt lat="46.33859252953039" lon="6.5648844520393235"><ele>498.0</ele><time>2026-05-01T15:25:15Z</time></trkpt><trkpt lat="46.33862185319143" lon="6.564558616842782"><ele>497.66666666666663</ele><time>2026-05-01T15:25:15.999Z</time></trkpt><trkpt lat="46.338668332540415" lon="6.564264204992377"><ele>497.3333333333333</ele><time>2026-05-01T15:25:16.999Z</time></trkpt><trkpt lat="46.33872749161336" lon="6.563950637878942"><ele>497.0</ele><time>2026-05-01T15:25:17.999Z</time></trkpt><trkpt lat="46.338824723500124" lon="6.563619653278364"><ele>497.5</ele><time>2026-05-01T15:25:18.999Z</time></trkpt><trkpt lat="46.338949828157915" lon="6.5632361309503775"><ele>498.0</ele><time>2026-05-01T15:25:19.999Z</time></trkpt><trkpt lat="46.339038905084266" lon="6.56280375053464"><ele>498.0</ele><time>2026-05-01T15:25:20.999Z</time></trkpt><trkpt lat="46.339139840721494" lon="6.562407519184017"><ele>498.0</ele><time>2026-05-01T15:25:21.999Z</time></trkpt><trkpt lat="46.33926140364949" lon="6.562075784486529"><ele>496.33333333333337</ele><time>2026-05-01T15:25:22.999Z</time></trkpt><trkpt lat="46.33934578951495" lon="6.561772874112177"><ele>494.6666666666667</ele><time>2026-05-01T15:25:23.999Z</time></trkpt><trkpt lat="46.339397091817496" lon="6.561458918317785"><ele>493.0</ele><time>2026-05-01T15:25:24.999Z</time></trkpt><trkpt lat="46.339414005794424" lon="6.561121208244812"><ele>492.5</ele><time>2026-05-01T15:25:25.999Z</time></trkpt><trkpt lat="46.33943012692114" lon="6.560747998879519"><ele>492.0</ele><time>2026-05-01T15:25:26.999Z</time></trkpt><trkpt lat="46.33947316980012" lon="6.5603975982873095"><ele>491.5</ele><time>2026-05-01T15:25:27.999Z</time></trkpt><trkpt lat="46.339546472221386" lon="6.560088591974341"><ele>491.0</ele><time>2026-05-01T15:25:28.999Z</time></trkpt><trkpt lat="46.33963691209334" lon="6.559784817495839"><ele>495.0</ele><time>2026-05-01T15:25:29.999Z</time></trkpt><trkpt lat="46.339734940868674" lon="6.55948215847413"><ele>499.0</ele><time>2026-05-01T15:25:30.999Z</time></trkpt><trkpt lat="46.33983770077904" lon="6.559169679641089"><ele>499.0</ele><time>2026-05-01T15:25:31.999Z</time></trkpt><trkpt lat="46.339947361902844" lon="6.558865039592242"><ele>499.0</ele><time>2026-05-01T15:25:32.999Z</time></trkpt><trkpt lat="46.340063551718615" lon="6.558546193212174"><ele>491.0</ele><time>2026-05-01T15:25:33.999Z</time></trkpt><trkpt lat="46.3402195594179" lon="6.558244430290172"><ele>483.0</ele><time>2026-05-01T15:25:34.999Z</time></trkpt><trkpt lat="46.34038084979694" lon="6.5579283053437285"><ele>489.5</ele><time>2026-05-01T15:25:35.999Z</time></trkpt><trkpt lat="46.34056724715947" lon="6.557648376225571"><ele>496.0</ele><time>2026-05-01T15:25:36.999Z</time></trkpt><trkpt lat="46.340722128643584" lon="6.557384379435686"><ele>496.0</ele><time>2026-05-01T15:25:37.999Z</time></trkpt><trkpt lat="46.34086599259589" lon="6.557118225923665"><ele>496.0</ele><time>2026-05-01T15:25:38.999Z</time></trkpt><trkpt lat="46.34100461029802" lon="6.556875004592168"><ele>491.6666666666667</ele><time>2026-05-01T15:25:39.999Z</time></trkpt><trkpt lat="46.34114243787836" lon="6.556675369567707"><ele>487.33333333333337</ele><time>2026-05-01T15:25:40.999Z</time></trkpt><trkpt lat="46.34128405800513" lon="6.5565059258952125"><ele>483.0</ele><time>2026-05-01T15:25:41.999Z</time></trkpt><trkpt lat="46.34141237046772" lon="6.55636361477151"><ele>485.66666666666663</ele><time>2026-05-01T15:25:42.999Z</time></trkpt><trkpt lat="46.34151947583889" lon="6.556191639319189"><ele>488.3333333333333</ele><time>2026-05-01T15:25:43.999Z</time></trkpt><trkpt lat="46.34159883089372" lon="6.555965436301081"><ele>491.0</ele><time>2026-05-01T15:25:44.999Z</time></trkpt><trkpt lat="46.34165205298146" lon="6.555679517514078"><ele>485.0</ele><time>2026-05-01T15:25:45.999Z</time></trkpt><trkpt lat="46.34167863379689" lon="6.555343701698867"><ele>479.0</ele><time>2026-05-01T15:25:46.999Z</time></trkpt><trkpt lat="46.34171176749191" lon="6.554994761082451"><ele>479.0</ele><time>2026-05-01T15:25:47.999Z</time></trkpt><trkpt lat="46.34175985976017" lon="6.55467827484088"><ele>479.0</ele><time>2026-05-01T15:25:48.999Z</time></trkpt><trkpt lat="46.341809544391744" lon="6.554396692952784"><ele>479.0</ele><time>2026-05-01T15:25:49.999Z</time></trkpt><trkpt lat="46.34185468584415" lon="6.5541256963410195"><ele>479.0</ele><time>2026-05-01T15:25:50.999Z</time></trkpt><trkpt lat="46.34191071142737" lon="6.553864164789582"><ele>479.0</ele><time>2026-05-01T15:25:51.999Z</time></trkpt><trkpt lat="46.34199388986888" lon="6.5535912506826755"><ele>479.0</ele><time>2026-05-01T15:25:52.999Z</time></trkpt><trkpt lat="46.34211640608794" lon="6.553299793059491"><ele>487.5</ele><time>2026-05-01T15:25:53.999Z</time></trkpt><trkpt lat="46.34225273699854" lon="6.5529817500311385"><ele>496.0</ele><time>2026-05-01T15:25:54.999Z</time></trkpt><trkpt lat="46.34237118007701" lon="6.552670318943754"><ele>496.0</ele><time>2026-05-01T15:25:55.999Z</time></trkpt><trkpt lat="46.34245671396955" lon="6.552362806648218"><ele>496.0</ele><time>2026-05-01T15:25:56.999Z</time></trkpt><trkpt lat="46.34253369892379" lon="6.552041209036316"><ele>492.0</ele><time>2026-05-01T15:25:57.999Z</time></trkpt><trkpt lat="46.34260644984481" lon="6.551692231864294"><ele>488.0</ele><time>2026-05-01T15:25:58.999Z</time></trkpt><trkpt lat="46.34267255548831" lon="6.551380136547084"><ele>490.66666666666663</ele><time>2026-05-01T15:25:59.999Z</time></trkpt><trkpt lat="46.34272696729953" lon="6.551119355755556"><ele>493.33333333333337</ele><time>2026-05-01T15:26:00.999Z</time></trkpt><trkpt lat="46.34277316244864" lon="6.55090164484498"><ele>496.0</ele><time>2026-05-01T15:26:01.999Z</time></trkpt><trkpt lat="46.342822103098314" lon="6.550696538979098"><ele>496.0</ele><time>2026-05-01T15:26:02.999Z</time></trkpt><trkpt lat="46.342895413500656" lon="6.5504983517515685"><ele>496.0</ele><time>2026-05-01T15:26:03.999Z</time></trkpt><trkpt lat="46.342981559630026" lon="6.550327680811155"><ele>496.0</ele><time>2026-05-01T15:26:04.999Z</time></trkpt><trkpt lat="46.34309746340999" lon="6.550148115058129"><ele>492.6666666666667</ele><time>2026-05-01T15:26:05.999Z</time></trkpt><trkpt lat="46.34323506540361" lon="6.549963163808071"><ele>489.33333333333337</ele><time>2026-05-01T15:26:06.999Z</time></trkpt><trkpt lat="46.343392894752185" lon="6.549786322959004"><ele>486.0</ele><time>2026-05-01T15:26:07.999Z</time></trkpt><trkpt lat="46.343552755696365" lon="6.54960630240724"><ele>487.0</ele><time>2026-05-01T15:26:08.999Z</time></trkpt><trkpt lat="46.3437078608006" lon="6.5494590241702975"><ele>488.0</ele><time>2026-05-01T15:26:09.999Z</time></trkpt><trkpt lat="46.34386678912442" lon="6.549366663603072"><ele>489.0</ele><time>2026-05-01T15:26:10.999Z</time></trkpt><trkpt lat="46.34402464545493" lon="6.549300407160001"><ele>484.66666666666663</ele><time>2026-05-01T15:26:11.999Z</time></trkpt><trkpt lat="46.34417366765578" lon="6.549217179694158"><ele>480.3333333333333</ele><time>2026-05-01T15:26:12.999Z</time></trkpt><trkpt lat="46.344321392807075" lon="6.5490886871927625"><ele>476.0</ele><time>2026-05-01T15:26:13.999Z</time></trkpt><trkpt lat="46.344462834978486" lon="6.548913838398971"><ele>476.0</ele><time>2026-05-01T15:26:14.999Z</time></trkpt><trkpt lat="46.344579936056924" lon="6.548717569539651"><ele>476.0</ele><time>2026-05-01T15:26:15.999Z</time></trkpt><trkpt lat="46.34467096335882" lon="6.548511667091796"><ele>476.0</ele><time>2026-05-01T15:26:16.999Z</time></trkpt><trkpt lat="46.344744141747924" lon="6.54829436743189"><ele>474.25</ele><time>2026-05-01T15:26:17.999Z</time></trkpt><trkpt lat="46.34478861832141" lon="6.548079296310379"><ele>472.5</ele><time>2026-05-01T15:26:18.999Z</time></trkpt><trkpt lat="46.344790784275204" lon="6.547883420758549"><ele>470.75</ele><time>2026-05-01T15:26:19.999Z</time></trkpt><trkpt lat="46.34476175858709" lon="6.547689085425278"><ele>469.0</ele><time>2026-05-01T15:26:20.999Z</time></trkpt><trkpt lat="46.34469974145835" lon="6.54748943631395"><ele>469.0</ele><time>2026-05-01T15:26:21.999Z</time></trkpt><trkpt lat="46.34461344423952" lon="6.547281775832893"><ele>469.0</ele><time>2026-05-01T15:26:22.999Z</time></trkpt><trkpt lat="46.34449631595037" lon="6.547046850794323"><ele>469.0</ele><time>2026-05-01T15:26:23.999Z</time></trkpt><trkpt lat="46.34437641512598" lon="6.546787469464814"><ele>471.6666666666667</ele><time>2026-05-01T15:26:24.999Z</time></trkpt><trkpt lat="46.344270418711645" lon="6.546515149630223"><ele>474.33333333333337</ele><time>2026-05-01T15:26:25.999Z</time></trkpt><trkpt lat="46.344185013505744" lon="6.5462756021042106"><ele>477.0</ele><time>2026-05-01T15:26:26.999Z</time></trkpt><trkpt lat="46.34412846314712" lon="6.546027638804973"><ele>477.0</ele><time>2026-05-01T15:26:27.999Z</time></trkpt><trkpt lat="46.34409495851341" lon="6.545751767190599"><ele>477.0</ele><time>2026-05-01T15:26:28.999Z</time></trkpt><trkpt lat="46.34408904311108" lon="6.545452888447612"><ele>477.0</ele><time>2026-05-01T15:26:29.999Z</time></trkpt><trkpt lat="46.344108471340576" lon="6.545144832002043"><ele>477.0</ele><time>2026-05-01T15:26:30.999Z</time></trkpt><trkpt lat="46.34415018718871" lon="6.544821518897793"><ele>477.0</ele><time>2026-05-01T15:26:31.999Z</time></trkpt><trkpt lat="46.34421736588551" lon="6.544493819980054"><ele>477.0</ele><time>2026-05-01T15:26:32.999Z</time></trkpt><trkpt lat="46.34432159364975" lon="6.544149477552929"><ele>477.0</ele><time>2026-05-01T15:26:33.999Z</time></trkpt><trkpt lat="46.34446763216312" lon="6.5437766505692485"><ele>479.5</ele><time>2026-05-01T15:26:34.999Z</time></trkpt><trkpt lat="46.34461859051125" lon="6.54336533570267"><ele>482.0</ele><time>2026-05-01T15:26:35.999Z</time></trkpt><trkpt lat="46.3447616221986" lon="6.542924665117571"><ele>483.5</ele><time>2026-05-01T15:26:36.999Z</time></trkpt><trkpt lat="46.34489090211942" lon="6.542486559455998"><ele>485.0</ele><time>2026-05-01T15:26:37.999Z</time></trkpt><trkpt lat="46.344997723516904" lon="6.542038180766176"><ele>485.0</ele><time>2026-05-01T15:26:38.999Z</time></trkpt><trkpt lat="46.345091478030966" lon="6.541631141134429"><ele>485.0</ele><time>2026-05-01T15:26:39.999Z</time></trkpt><trkpt lat="46.3451790760874" lon="6.541246505955652"><ele>487.5</ele><time>2026-05-01T15:26:40.999Z</time></trkpt><trkpt lat="46.345259904710545" lon="6.540892015002931"><ele>490.0</ele><time>2026-05-01T15:26:41.999Z</time></trkpt><trkpt lat="46.34534201325967" lon="6.540562098063397"><ele>493.0</ele><time>2026-05-01T15:26:42.999Z</time></trkpt><trkpt lat="46.34540916020694" lon="6.540217222040414"><ele>496.0</ele><time>2026-05-01T15:26:43.999Z</time></trkpt><trkpt lat="46.34546432190428" lon="6.539910140229012"><ele>496.0</ele><time>2026-05-01T15:26:44.999Z</time></trkpt><trkpt lat="46.34550597190707" lon="6.539609519608385"><ele>496.0</ele><time>2026-05-01T15:26:45.999Z</time></trkpt><trkpt lat="46.34553979122767" lon="6.539315444367719"><ele>496.0</ele><time>2026-05-01T15:26:46.999Z</time></trkpt><trkpt lat="46.345576649055694" lon="6.539023397976307"><ele>498.33333333333337</ele><time>2026-05-01T15:26:47.999Z</time></trkpt><trkpt lat="46.34561450859624" lon="6.538727623660162"><ele>500.66666666666663</ele><time>2026-05-01T15:26:48.999Z</time></trkpt><trkpt lat="46.345635420102056" lon="6.538435248484791"><ele>503.0</ele><time>2026-05-01T15:26:49.999Z</time></trkpt><trkpt lat="46.34563827694795" lon="6.538172011631355"><ele>504.0</ele><time>2026-05-01T15:26:50.999Z</time></trkpt><trkpt lat="46.34563035286544" lon="6.537926784918462"><ele>505.0</ele><time>2026-05-01T15:26:51.999Z</time></trkpt><trkpt lat="46.34562983014429" lon="6.5377027130417105"><ele>506.0</ele><time>2026-05-01T15:26:52.999Z</time></trkpt><trkpt lat="46.345621495995914" lon="6.537475650803117"><ele>502.3333333333333</ele><time>2026-05-01T15:26:53.999Z</time></trkpt><trkpt lat="46.345658117924444" lon="6.53727070035934"><ele>498.66666666666663</ele><time>2026-05-01T15:26:54.999Z</time></trkpt><trkpt lat="46.345763497361034" lon="6.537065360621986"><ele>495.0</ele><time>2026-05-01T15:26:55.999Z</time></trkpt><trkpt lat="46.34587140668574" lon="6.536825655498319"><ele>494.33333333333337</ele><time>2026-05-01T15:26:56.999Z</time></trkpt><trkpt lat="46.345968291750175" lon="6.53657898282438"><ele>493.6666666666667</ele><time>2026-05-01T15:26:57.999Z</time></trkpt><trkpt lat="46.34603785991146" lon="6.536350628479996"><ele>493.0</ele><time>2026-05-01T15:26:58.998Z</time></trkpt><trkpt lat="46.34613132928583" lon="6.536149529860967"><ele>493.0</ele><time>2026-05-01T15:26:59.998Z</time></trkpt><trkpt lat="46.346259103999955" lon="6.53598674216763"><ele>493.0</ele><time>2026-05-01T15:27:00.998Z</time></trkpt><trkpt lat="46.34642128657628" lon="6.535827246572073"><ele>493.0</ele><time>2026-05-01T15:27:01.998Z</time></trkpt><trkpt lat="46.34660674612193" lon="6.535682547395722"><ele>487.0</ele><time>2026-05-01T15:27:02.998Z</time></trkpt><trkpt lat="46.34677995190117" lon="6.535552570644911"><ele>481.0</ele><time>2026-05-01T15:27:03.998Z</time></trkpt><trkpt lat="46.34696949943215" lon="6.535443843976964"><ele>475.0</ele><time>2026-05-01T15:27:04.999Z</time></trkpt><trkpt lat="46.34718490341503" lon="6.53537231561474"><ele>467.5</ele><time>2026-05-01T15:27:05.999Z</time></trkpt><trkpt lat="46.34741769978988" lon="6.53533634173889"><ele>460.0</ele><time>2026-05-01T15:27:06.999Z</time></trkpt><trkpt lat="46.34765672409441" lon="6.535339627802574"><ele>460.0</ele><time>2026-05-01T15:27:07.999Z</time></trkpt><trkpt lat="46.34791283464703" lon="6.53538436921076"><ele>460.0</ele><time>2026-05-01T15:27:08.999Z</time></trkpt><trkpt lat="46.348163056729085" lon="6.535405830414114"><ele>463.5</ele><time>2026-05-01T15:27:09.999Z</time></trkpt><trkpt lat="46.34841001794601" lon="6.535369122278824"><ele>467.0</ele><time>2026-05-01T15:27:10.999Z</time></trkpt><trkpt lat="46.34864941649091" lon="6.535332672976228"><ele>467.0</ele><time>2026-05-01T15:27:11.999Z</time></trkpt><trkpt lat="46.34886176544998" lon="6.535288055636844"><ele>467.0</ele><time>2026-05-01T15:27:12.999Z</time></trkpt><trkpt lat="46.34906870135025" lon="6.535219745519201"><ele>467.0</ele><time>2026-05-01T15:27:13.999Z</time></trkpt><trkpt lat="46.349283534647064" lon="6.535099647222691"><ele>464.5</ele><time>2026-05-01T15:27:14.999Z</time></trkpt><trkpt lat="46.34949824687025" lon="6.534925091439562"><ele>462.0</ele><time>2026-05-01T15:27:15.999Z</time></trkpt><trkpt lat="46.34970163998651" lon="6.534692594473103"><ele>461.0</ele><time>2026-05-01T15:27:16.999Z</time></trkpt><trkpt lat="46.34989722701212" lon="6.53442759992098"><ele>460.0</ele><time>2026-05-01T15:27:17.999Z</time></trkpt><trkpt lat="46.3500718764497" lon="6.534191790083586"><ele>460.0</ele><time>2026-05-01T15:27:18.999Z</time></trkpt><trkpt lat="46.35025160365679" lon="6.533973511426408"><ele>460.0</ele><time>2026-05-01T15:27:19.999Z</time></trkpt><trkpt lat="46.35039252879844" lon="6.5336812723399795"><ele>456.0</ele><time>2026-05-01T15:27:20.999Z</time></trkpt><trkpt lat="46.350507650246776" lon="6.533387495561345"><ele>452.0</ele><time>2026-05-01T15:27:21.999Z</time></trkpt><trkpt lat="46.35060112685509" lon="6.533077268515608"><ele>455.0</ele><time>2026-05-01T15:27:22.999Z</time></trkpt><trkpt lat="46.35068485459343" lon="6.532787221617036"><ele>458.0</ele><time>2026-05-01T15:27:23.999Z</time></trkpt><trkpt lat="46.35083180342729" lon="6.532543835401739"><ele>461.0</ele><time>2026-05-01T15:27:24.999Z</time></trkpt><trkpt lat="46.351004206760706" lon="6.532297173930445"><ele>461.0</ele><time>2026-05-01T15:27:25.999Z</time></trkpt><trkpt lat="46.351213524150864" lon="6.532071579286851"><ele>461.0</ele><time>2026-05-01T15:27:26.999Z</time></trkpt><trkpt lat="46.351432644581124" lon="6.531866070086894"><ele>464.5</ele><time>2026-05-01T15:27:27.999Z</time></trkpt><trkpt lat="46.35160964196617" lon="6.531630884505443"><ele>468.0</ele><time>2026-05-01T15:27:28.999Z</time></trkpt><trkpt lat="46.35177719969384" lon="6.531366916093158"><ele>458.5</ele><time>2026-05-01T15:27:29.999Z</time></trkpt><trkpt lat="46.351946018348166" lon="6.531045355666128"><ele>449.0</ele><time>2026-05-01T15:27:30.999Z</time></trkpt><trkpt lat="46.352122819938046" lon="6.5307028517923875"><ele>451.5</ele><time>2026-05-01T15:27:31.999Z</time></trkpt><trkpt lat="46.35231102625771" lon="6.53033359521096"><ele>454.0</ele><time>2026-05-01T15:27:32.999Z</time></trkpt><trkpt lat="46.352510197807064" lon="6.529933474805272"><ele>447.5</ele><time>2026-05-01T15:27:33.999Z</time></trkpt><trkpt lat="46.35272737325307" lon="6.529535867347781"><ele>441.0</ele><time>2026-05-01T15:27:34.999Z</time></trkpt><trkpt lat="46.35293633259688" lon="6.529148248283631"><ele>443.0</ele><time>2026-05-01T15:27:35.999Z</time></trkpt><trkpt lat="46.353115477272645" lon="6.528801203291688"><ele>445.0</ele><time>2026-05-01T15:27:36.999Z</time></trkpt><trkpt lat="46.353278342193015" lon="6.528488952217355"><ele>445.0</ele><time>2026-05-01T15:27:37.999Z</time></trkpt><trkpt lat="46.353420487478985" lon="6.528212332471424"><ele>445.0</ele><time>2026-05-01T15:27:38.999Z</time></trkpt><trkpt lat="46.353554712624636" lon="6.5279557439899545"><ele>445.0</ele><time>2026-05-01T15:27:39.999Z</time></trkpt><trkpt lat="46.35370187730383" lon="6.527726604358188"><ele>445.0</ele><time>2026-05-01T15:27:40.999Z</time></trkpt><trkpt lat="46.353868705906166" lon="6.527532465058694"><ele>445.0</ele><time>2026-05-01T15:27:41.999Z</time></trkpt><trkpt lat="46.35406231878758" lon="6.5273463828378695"><ele>446.5</ele><time>2026-05-01T15:27:42.999Z</time></trkpt><trkpt lat="46.35427303055015" lon="6.527192316078073"><ele>448.0</ele><time>2026-05-01T15:27:43.999Z</time></trkpt><trkpt lat="46.35450694833036" lon="6.527070284916174"><ele>445.0</ele><time>2026-05-01T15:27:44.999Z</time></trkpt><trkpt lat="46.354759074339235" lon="6.526953935736733"><ele>442.0</ele><time>2026-05-01T15:27:45.999Z</time></trkpt><trkpt lat="46.355034416020835" lon="6.526841456345367"><ele>442.0</ele><time>2026-05-01T15:27:46.999Z</time></trkpt><trkpt lat="46.35530740917968" lon="6.526721497224084"><ele>442.0</ele><time>2026-05-01T15:27:47.999Z</time></trkpt><trkpt lat="46.355561668074834" lon="6.526603075532195"><ele>444.5</ele><time>2026-05-01T15:27:48.999Z</time></trkpt><trkpt lat="46.355803081595624" lon="6.526498323313678"><ele>447.0</ele><time>2026-05-01T15:27:49.999Z</time></trkpt><trkpt lat="46.356038360494374" lon="6.526404235241076"><ele>447.0</ele><time>2026-05-01T15:27:50.999Z</time></trkpt><trkpt lat="46.356264718043825" lon="6.526310153838868"><ele>447.0</ele><time>2026-05-01T15:27:51.999Z</time></trkpt><trkpt lat="46.35646417972105" lon="6.526219323215422"><ele>447.0</ele><time>2026-05-01T15:27:52.999Z</time></trkpt><trkpt lat="46.35665883469655" lon="6.526107988156788"><ele>445.5</ele><time>2026-05-01T15:27:53.999Z</time></trkpt><trkpt lat="46.3568594412624" lon="6.525954952797365"><ele>444.0</ele><time>2026-05-01T15:27:54.999Z</time></trkpt><trkpt lat="46.35705693210141" lon="6.525768220431214"><ele>445.0</ele><time>2026-05-01T15:27:55.999Z</time></trkpt><trkpt lat="46.357224373416194" lon="6.52557652932888"><ele>446.0</ele><time>2026-05-01T15:27:56.999Z</time></trkpt><trkpt lat="46.3573851733151" lon="6.525406740649632"><ele>447.0</ele><time>2026-05-01T15:27:57.999Z</time></trkpt><trkpt lat="46.35752687028538" lon="6.525247346089175"><ele>447.0</ele><time>2026-05-01T15:27:58.999Z</time></trkpt><trkpt lat="46.35765748203252" lon="6.525059743519275"><ele>447.0</ele><time>2026-05-01T15:27:59.999Z</time></trkpt><trkpt lat="46.35777672346755" lon="6.52482598503069"><ele>447.0</ele><time>2026-05-01T15:28:00.999Z</time></trkpt><trkpt lat="46.357874947655006" lon="6.524539718742401"><ele>442.5</ele><time>2026-05-01T15:28:01.999Z</time></trkpt><trkpt lat="46.35795932844075" lon="6.5242083122348635"><ele>438.0</ele><time>2026-05-01T15:28:02.999Z</time></trkpt><trkpt lat="46.358037832152036" lon="6.5238704509675935"><ele>444.5</ele><time>2026-05-01T15:28:03.999Z</time></trkpt><trkpt lat="46.35813910902476" lon="6.523579828957394"><ele>451.0</ele><time>2026-05-01T15:28:04.999Z</time></trkpt><trkpt lat="46.35827814588528" lon="6.5233234230616866"><ele>451.0</ele><time>2026-05-01T15:28:05.999Z</time></trkpt><trkpt lat="46.35845704457307" lon="6.523089009587883"><ele>451.0</ele><time>2026-05-01T15:28:06.999Z</time></trkpt><trkpt lat="46.35866945399814" lon="6.5228687191569685"><ele>452.0</ele><time>2026-05-01T15:28:07.999Z</time></trkpt><trkpt lat="46.358902077178975" lon="6.522636917682795"><ele>453.0</ele><time>2026-05-01T15:28:08.999Z</time></trkpt><trkpt lat="46.359151854022656" lon="6.5224008441541175"><ele>453.0</ele><time>2026-05-01T15:28:09.999Z</time></trkpt><trkpt lat="46.359412548214216" lon="6.522128615789677"><ele>453.0</ele><time>2026-05-01T15:28:10.999Z</time></trkpt><trkpt lat="46.35968999585375" lon="6.521835780958629"><ele>451.0</ele><time>2026-05-01T15:28:11.999Z</time></trkpt><trkpt lat="46.35998735399804" lon="6.521526797285698"><ele>449.0</ele><time>2026-05-01T15:28:12.999Z</time></trkpt><trkpt lat="46.36030078274455" lon="6.521206819423104"><ele>447.0</ele><time>2026-05-01T15:28:13.999Z</time></trkpt><trkpt lat="46.36062006813676" lon="6.5208722605352385"><ele>445.0</ele><time>2026-05-01T15:28:14.999Z</time></trkpt><trkpt lat="46.360920248684536" lon="6.520556960483111"><ele>439.0</ele><time>2026-05-01T15:28:15.999Z</time></trkpt><trkpt lat="46.36120886785718" lon="6.520271668671963"><ele>433.0</ele><time>2026-05-01T15:28:16.999Z</time></trkpt><trkpt lat="46.36148455446253" lon="6.520007245989115"><ele>433.0</ele><time>2026-05-01T15:28:17.999Z</time></trkpt><trkpt lat="46.361743248231626" lon="6.519757864951987"><ele>433.0</ele><time>2026-05-01T15:28:18.999Z</time></trkpt><trkpt lat="46.361972396800795" lon="6.519525059164909"><ele>431.0</ele><time>2026-05-01T15:28:19.999Z</time></trkpt><trkpt lat="46.36218736961827" lon="6.519318605447462"><ele>429.0</ele><time>2026-05-01T15:28:20.999Z</time></trkpt><trkpt lat="46.36239548321035" lon="6.519121945450916"><ele>434.0</ele><time>2026-05-01T15:28:21.999Z</time></trkpt><trkpt lat="46.36260099796782" lon="6.518919979511322"><ele>439.0</ele><time>2026-05-01T15:28:22.999Z</time></trkpt><trkpt lat="46.36278667108339" lon="6.518735350520092"><ele>437.6666666666667</ele><time>2026-05-01T15:28:23.999Z</time></trkpt><trkpt lat="46.36296250224287" lon="6.518559788361791"><ele>436.33333333333337</ele><time>2026-05-01T15:28:24.999Z</time></trkpt><trkpt lat="46.36314069909964" lon="6.518379115751545"><ele>435.0</ele><time>2026-05-01T15:28:25.999Z</time></trkpt><trkpt lat="46.36332437962256" lon="6.518197097243709"><ele>435.0</ele><time>2026-05-01T15:28:26.999Z</time></trkpt><trkpt lat="46.36349717706597" lon="6.518033765166515"><ele>435.0</ele><time>2026-05-01T15:28:27.999Z</time></trkpt><trkpt lat="46.36367368323672" lon="6.517863271883283"><ele>435.0</ele><time>2026-05-01T15:28:28.999Z</time></trkpt><trkpt lat="46.363838297782515" lon="6.517703317621788"><ele>437.0</ele><time>2026-05-01T15:28:29.999Z</time></trkpt><trkpt lat="46.36398989695481" lon="6.517544474119292"><ele>439.0</ele><time>2026-05-01T15:28:30.999Z</time></trkpt><trkpt lat="46.36412074283662" lon="6.5173696752223735"><ele>441.0</ele><time>2026-05-01T15:28:31.999Z</time></trkpt><trkpt lat="46.36422494301962" lon="6.517182609116465"><ele>438.0</ele><time>2026-05-01T15:28:32.999Z</time></trkpt><trkpt lat="46.36430174286453" lon="6.5169731877051"><ele>435.0</ele><time>2026-05-01T15:28:33.999Z</time></trkpt><trkpt lat="46.36436296857151" lon="6.516722040595022"><ele>432.0</ele><time>2026-05-01T15:28:34.999Z</time></trkpt><trkpt lat="46.36439935899164" lon="6.516416534312745"><ele>428.5</ele><time>2026-05-01T15:28:35.999Z</time></trkpt><trkpt lat="46.36440525368608" lon="6.5160842971064685"><ele>425.0</ele><time>2026-05-01T15:28:36.999Z</time></trkpt><trkpt lat="46.36438734405054" lon="6.5157242076014334"><ele>423.5</ele><time>2026-05-01T15:28:37.999Z</time></trkpt><trkpt lat="46.364364619764146" lon="6.515352152680727"><ele>422.0</ele><time>2026-05-01T15:28:38.999Z</time></trkpt><trkpt lat="46.36434909608285" lon="6.514964943101096"><ele>425.5</ele><time>2026-05-01T15:28:39.999Z</time></trkpt><trkpt lat="46.36433541075747" lon="6.514551687920767"><ele>429.0</ele><time>2026-05-01T15:28:40.999Z</time></trkpt><trkpt lat="46.364320907780495" lon="6.514123084221232"><ele>431.5</ele><time>2026-05-01T15:28:41.999Z</time></trkpt><trkpt lat="46.36430605672514" lon="6.513712457656228"><ele>434.0</ele><time>2026-05-01T15:28:42.999Z</time></trkpt><trkpt lat="46.36429177547534" lon="6.513365799293448"><ele>434.0</ele><time>2026-05-01T15:28:43.999Z</time></trkpt><trkpt lat="46.36428105746275" lon="6.5130715432192865"><ele>434.0</ele><time>2026-05-01T15:28:44.999Z</time></trkpt><trkpt lat="46.36426698140533" lon="6.512794343391187"><ele>434.0</ele><time>2026-05-01T15:28:45.999Z</time></trkpt><trkpt lat="46.364264360021025" lon="6.512516414390028"><ele>436.66666666666663</ele><time>2026-05-01T15:28:46.999Z</time></trkpt><trkpt lat="46.364282845586054" lon="6.512208874331434"><ele>439.33333333333337</ele><time>2026-05-01T15:28:47.999Z</time></trkpt><trkpt lat="46.364354198407014" lon="6.511886558521725"><ele>442.0</ele><time>2026-05-01T15:28:48.999Z</time></trkpt><trkpt lat="46.36443020094739" lon="6.511545082566489"><ele>458.5</ele><time>2026-05-01T15:28:49.999Z</time></trkpt><trkpt lat="46.36451361083258" lon="6.5111772591773045"><ele>475.0</ele><time>2026-05-01T15:28:50.999Z</time></trkpt><trkpt lat="46.36458163001116" lon="6.510790083455161"><ele>480.0</ele><time>2026-05-01T15:28:51.999Z</time></trkpt><trkpt lat="46.36460337619073" lon="6.510378479023073"><ele>485.0</ele><time>2026-05-01T15:28:52.999Z</time></trkpt><trkpt lat="46.36464627629661" lon="6.510031899157725"><ele>460.0</ele><time>2026-05-01T15:28:53.999Z</time></trkpt><trkpt lat="46.36470750941739" lon="6.509700343642039"><ele>435.0</ele><time>2026-05-01T15:28:54.999Z</time></trkpt><trkpt lat="46.364827891112654" lon="6.509418154083238"><ele>435.0</ele><time>2026-05-01T15:28:55.999Z</time></trkpt><trkpt lat="46.3649321114345" lon="6.509114237879655"><ele>435.0</ele><time>2026-05-01T15:28:56.999Z</time></trkpt><trkpt lat="46.365025546981606" lon="6.508803301386923"><ele>439.0</ele><time>2026-05-01T15:28:57.999Z</time></trkpt><trkpt lat="46.365081982853354" lon="6.508461354865002"><ele>443.0</ele><time>2026-05-01T15:28:58.999Z</time></trkpt><trkpt lat="46.365106515692744" lon="6.508086396283096"><ele>444.0</ele><time>2026-05-01T15:28:59.999Z</time></trkpt><trkpt lat="46.365122460620476" lon="6.507685714492645"><ele>445.0</ele><time>2026-05-01T15:29:00.999Z</time></trkpt><trkpt lat="46.36515059494774" lon="6.507323605664652"><ele>451.5</ele><time>2026-05-01T15:29:01.999Z</time></trkpt><trkpt lat="46.36518318149244" lon="6.506994527308844"><ele>458.0</ele><time>2026-05-01T15:29:02.999Z</time></trkpt><trkpt lat="46.3652231856959" lon="6.506677783907727"><ele>458.0</ele><time>2026-05-01T15:29:03.999Z</time></trkpt><trkpt lat="46.36529125583772" lon="6.506351239660323"><ele>458.0</ele><time>2026-05-01T15:29:04.998Z</time></trkpt><trkpt lat="46.36538032556241" lon="6.506028500046113"><ele>462.0</ele><time>2026-05-01T15:29:05.998Z</time></trkpt><trkpt lat="46.36548275558086" lon="6.505745252836436"><ele>466.0</ele><time>2026-05-01T15:29:06.998Z</time></trkpt><trkpt lat="46.36559237663138" lon="6.50550112935904"><ele>470.0</ele><time>2026-05-01T15:29:07.998Z</time></trkpt><trkpt lat="46.3657357963408" lon="6.505318095818473"><ele>462.0</ele><time>2026-05-01T15:29:08.998Z</time></trkpt><trkpt lat="46.365903680336494" lon="6.50515782378432"><ele>454.0</ele><time>2026-05-01T15:29:09.998Z</time></trkpt><trkpt lat="46.36609491959514" lon="6.504988704378103"><ele>446.0</ele><time>2026-05-01T15:29:11Z</time></trkpt><trkpt lat="46.366259866472376" lon="6.504804523108433"><ele>445.3333333333333</ele><time>2026-05-01T15:29:12Z</time></trkpt><trkpt lat="46.36641767811145" lon="6.504639385409437"><ele>444.66666666666663</ele><time>2026-05-01T15:29:13Z</time></trkpt><trkpt lat="46.366558131536" lon="6.504448874708707"><ele>444.0</ele><time>2026-05-01T15:29:14Z</time></trkpt><trkpt lat="46.3667218159024" lon="6.504245970590538"><ele>444.0</ele><time>2026-05-01T15:29:15Z</time></trkpt><trkpt lat="46.366880382960105" lon="6.5040552533575555"><ele>444.0</ele><time>2026-05-01T15:29:16Z</time></trkpt><trkpt lat="46.36702658732279" lon="6.503887135508664"><ele>444.0</ele><time>2026-05-01T15:29:17Z</time></trkpt><trkpt lat="46.36716050274783" lon="6.5037367169445055"><ele>442.0</ele><time>2026-05-01T15:29:18Z</time></trkpt><trkpt lat="46.36729317447949" lon="6.50357700428754"><ele>440.0</ele><time>2026-05-01T15:29:19Z</time></trkpt><trkpt lat="46.36741831153636" lon="6.503435191242715"><ele>438.0</ele><time>2026-05-01T15:29:20Z</time></trkpt><trkpt lat="46.367518427489" lon="6.503295095955452"><ele>438.0</ele><time>2026-05-01T15:29:21Z</time></trkpt><trkpt lat="46.36760060247535" lon="6.503158322737376"><ele>437.99999999999994</ele><time>2026-05-01T15:29:22Z</time></trkpt><trkpt lat="46.36766913340665" lon="6.503020811416461"><ele>437.99999999999994</ele><time>2026-05-01T15:29:23Z</time></trkpt><trkpt lat="46.36772539457234" lon="6.502891217698164"><ele>438.0</ele><time>2026-05-01T15:29:24Z</time></trkpt><trkpt lat="46.367792084391105" lon="6.502791332738284"><ele>438.0</ele><time>2026-05-01T15:29:25Z</time></trkpt><trkpt lat="46.36786928902673" lon="6.502733517099617"><ele>439.2</ele><time>2026-05-01T15:29:26Z</time></trkpt><trkpt lat="46.36794966539127" lon="6.502640298723314"><ele>440.4</ele><time>2026-05-01T15:29:28Z</time></trkpt><trkpt lat="46.36794101923343" lon="6.5024929841473895"><ele>441.59999999999997</ele><time>2026-05-01T15:31:12.999Z</time></trkpt><trkpt lat="46.36791555547722" lon="6.502402707696346"><ele>442.79999999999995</ele><time>2026-05-01T15:31:13.999Z</time></trkpt><trkpt lat="46.367896108905796" lon="6.502272154828822"><ele>444.0</ele><time>2026-05-01T15:31:14.999Z</time></trkpt><trkpt lat="46.367910271685496" lon="6.502125031577363"><ele>445.0</ele><time>2026-05-01T15:31:15.998Z</time></trkpt><trkpt lat="46.367944925819685" lon="6.501965944700527"><ele>446.0</ele><time>2026-05-01T15:31:16.999Z</time></trkpt><trkpt lat="46.36797347135213" lon="6.5017620346677765"><ele>447.0</ele><time>2026-05-01T15:31:17.999Z</time></trkpt><trkpt lat="46.367992315436595" lon="6.501538255553046"><ele>448.0</ele><time>2026-05-01T15:31:18.999Z</time></trkpt><trkpt lat="46.368003299725956" lon="6.501340736359129"><ele>447.75</ele><time>2026-05-01T15:31:19.999Z</time></trkpt><trkpt lat="46.368008167573386" lon="6.501145871656504"><ele>447.5</ele><time>2026-05-01T15:31:20.999Z</time></trkpt><trkpt lat="46.36799245331514" lon="6.500961510443987"><ele>447.25</ele><time>2026-05-01T15:31:21.999Z</time></trkpt><trkpt lat="46.3679474010269" lon="6.500768516975604"><ele>447.0</ele><time>2026-05-01T15:31:22.999Z</time></trkpt><trkpt lat="46.3678843606854" lon="6.50057041169383"><ele>447.25</ele><time>2026-05-01T15:31:23.999Z</time></trkpt><trkpt lat="46.36781073978882" lon="6.500378643772735"><ele>447.5</ele><time>2026-05-01T15:31:24.999Z</time></trkpt><trkpt lat="46.36773532662265" lon="6.5002150811944865"><ele>447.75</ele><time>2026-05-01T15:31:25.999Z</time></trkpt><trkpt lat="46.36764223278252" lon="6.5000967007448285"><ele>448.0</ele><time>2026-05-01T15:31:26.999Z</time></trkpt><trkpt lat="46.367527313840384" lon="6.500025895979356"><ele>448.0</ele><time>2026-05-01T15:31:27.999Z</time></trkpt><trkpt lat="46.36739285299149" lon="6.499995210006613"><ele>448.0</ele><time>2026-05-01T15:31:28.999Z</time></trkpt><trkpt lat="46.367237498127075" lon="6.500010675714199"><ele>448.0</ele><time>2026-05-01T15:31:29.999Z</time></trkpt><trkpt lat="46.36706664112061" lon="6.500048263649914"><ele>448.0</ele><time>2026-05-01T15:31:30.999Z</time></trkpt><trkpt lat="46.36689337846006" lon="6.500050012269059"><ele>448.0</ele><time>2026-05-01T15:31:31.999Z</time></trkpt><trkpt lat="46.36673194325638" lon="6.499999562398607"><ele>448.0</ele><time>2026-05-01T15:31:32.999Z</time></trkpt><trkpt lat="46.36658737571025" lon="6.499883188335606"><ele>448.0</ele><time>2026-05-01T15:31:33.999Z</time></trkpt><trkpt lat="46.36645171815686" lon="6.499705032607849"><ele>448.0</ele><time>2026-05-01T15:31:34.999Z</time></trkpt><trkpt lat="46.36631220091882" lon="6.499490831080835"><ele>448.0</ele><time>2026-05-01T15:31:35.999Z</time></trkpt><trkpt lat="46.366162994729834" lon="6.49925976377646"><ele>449.0</ele><time>2026-05-01T15:31:36.999Z</time></trkpt><trkpt lat="46.36601389037579" lon="6.4990347825407175"><ele>450.0</ele><time>2026-05-01T15:31:37.999Z</time></trkpt><trkpt lat="46.36585456697225" lon="6.4988095125626195"><ele>451.0</ele><time>2026-05-01T15:31:38.999Z</time></trkpt><trkpt lat="46.36568298260914" lon="6.498585279509435"><ele>461.0</ele><time>2026-05-01T15:31:39.999Z</time></trkpt><trkpt lat="46.36550960161838" lon="6.498354090573751"><ele>471.0</ele><time>2026-05-01T15:31:40.999Z</time></trkpt><trkpt lat="46.36531500757801" lon="6.498110095314729"><ele>469.0</ele><time>2026-05-01T15:31:41.999Z</time></trkpt><trkpt lat="46.365105826572716" lon="6.497832916164312"><ele>467.0</ele><time>2026-05-01T15:31:42.999Z</time></trkpt><trkpt lat="46.36488980382746" lon="6.497514993937335"><ele>471.0</ele><time>2026-05-01T15:31:43.999Z</time></trkpt><trkpt lat="46.36467461650085" lon="6.497188989650151"><ele>475.0</ele><time>2026-05-01T15:31:44.999Z</time></trkpt><trkpt lat="46.36446208145883" lon="6.496871259848732"><ele>475.0</ele><time>2026-05-01T15:31:45.999Z</time></trkpt><trkpt lat="46.36424395066646" lon="6.4965546062862005"><ele>475.0</ele><time>2026-05-01T15:31:46.999Z</time></trkpt><trkpt lat="46.364028511975164" lon="6.496238858536714"><ele>476.0</ele><time>2026-05-01T15:31:47.999Z</time></trkpt><trkpt lat="46.36381659528105" lon="6.495920653969275"><ele>477.0</ele><time>2026-05-01T15:31:48.999Z</time></trkpt><trkpt lat="46.3636133153227" lon="6.495584589602947"><ele>473.5</ele><time>2026-05-01T15:31:49.999Z</time></trkpt><trkpt lat="46.363427864695204" lon="6.495219003247301"><ele>470.0</ele><time>2026-05-01T15:31:50.999Z</time></trkpt><trkpt lat="46.36325797326738" lon="6.494828743580721"><ele>474.0</ele><time>2026-05-01T15:31:51.999Z</time></trkpt><trkpt lat="46.363107974770905" lon="6.4944083125395515"><ele>478.0</ele><time>2026-05-01T15:31:52.999Z</time></trkpt><trkpt lat="46.36297359511828" lon="6.4939593919100025"><ele>480.0</ele><time>2026-05-01T15:31:53.999Z</time></trkpt><trkpt lat="46.36284728187612" lon="6.493496552206939"><ele>482.0</ele><time>2026-05-01T15:31:54.999Z</time></trkpt><trkpt lat="46.362716388336544" lon="6.4930190893518605"><ele>482.5</ele><time>2026-05-01T15:31:55.999Z</time></trkpt><trkpt lat="46.362575636464406" lon="6.492552251576102"><ele>483.0</ele><time>2026-05-01T15:31:56.999Z</time></trkpt><trkpt lat="46.36241763073283" lon="6.492111977134796"><ele>481.0</ele><time>2026-05-01T15:31:57.999Z</time></trkpt><trkpt lat="46.36223651277937" lon="6.49168269814154"><ele>479.0</ele><time>2026-05-01T15:31:58.999Z</time></trkpt><trkpt lat="46.36203907153894" lon="6.491256759882682"><ele>481.5</ele><time>2026-05-01T15:31:59.999Z</time></trkpt><trkpt lat="46.361821393690505" lon="6.490835164856493"><ele>484.0</ele><time>2026-05-01T15:32:00.999Z</time></trkpt><trkpt lat="46.36158653017886" lon="6.490417719437697"><ele>486.5</ele><time>2026-05-01T15:32:01.999Z</time></trkpt><trkpt lat="46.361342298779626" lon="6.490024769809043"><ele>489.0</ele><time>2026-05-01T15:32:02.999Z</time></trkpt><trkpt lat="46.36110048930299" lon="6.489686218014865"><ele>488.0</ele><time>2026-05-01T15:32:03.999Z</time></trkpt><trkpt lat="46.360864363576525" lon="6.4893751665974175"><ele>487.0</ele><time>2026-05-01T15:32:04.999Z</time></trkpt><trkpt lat="46.36061741649019" lon="6.48908784477345"><ele>487.5</ele><time>2026-05-01T15:32:05.999Z</time></trkpt><trkpt lat="46.36035459339858" lon="6.488822807771066"><ele>488.0</ele><time>2026-05-01T15:32:06.999Z</time></trkpt><trkpt lat="46.36007439847819" lon="6.4885722320176225"><ele>487.5</ele><time>2026-05-01T15:32:07.999Z</time></trkpt><trkpt lat="46.359815573168056" lon="6.4883431124691455"><ele>487.0</ele><time>2026-05-01T15:32:08.999Z</time></trkpt><trkpt lat="46.359572132010136" lon="6.48812142795075"><ele>487.0</ele><time>2026-05-01T15:32:09.999Z</time></trkpt><trkpt lat="46.35933030767874" lon="6.487900388204838"><ele>487.0</ele><time>2026-05-01T15:32:10.999Z</time></trkpt><trkpt lat="46.35907841563161" lon="6.4876712436765"><ele>486.5</ele><time>2026-05-01T15:32:11.999Z</time></trkpt><trkpt lat="46.35882809790863" lon="6.487419951300378"><ele>486.0</ele><time>2026-05-01T15:32:12.999Z</time></trkpt><trkpt lat="46.358590445327316" lon="6.487138917712642"><ele>486.0</ele><time>2026-05-01T15:32:13.999Z</time></trkpt><trkpt lat="46.3583549463145" lon="6.486847091913852"><ele>486.0</ele><time>2026-05-01T15:32:14.999Z</time></trkpt><trkpt lat="46.35811900642807" lon="6.486540393583149"><ele>485.0</ele><time>2026-05-01T15:32:15.999Z</time></trkpt><trkpt lat="46.35789983067302" lon="6.48619986356335"><ele>484.0</ele><time>2026-05-01T15:32:16.999Z</time></trkpt><trkpt lat="46.35769409254828" lon="6.48581970495182"><ele>483.5</ele><time>2026-05-01T15:32:17.999Z</time></trkpt><trkpt lat="46.357496787283296" lon="6.485403178250649"><ele>483.0</ele><time>2026-05-01T15:32:18.999Z</time></trkpt><trkpt lat="46.357302988704824" lon="6.484969061027036"><ele>483.0</ele><time>2026-05-01T15:32:19.999Z</time></trkpt><trkpt lat="46.3570926126317" lon="6.4845232715560535"><ele>483.0</ele><time>2026-05-01T15:32:20.999Z</time></trkpt><trkpt lat="46.35687441716803" lon="6.484091729673454"><ele>483.0</ele><time>2026-05-01T15:32:21.999Z</time></trkpt><trkpt lat="46.35667079657803" lon="6.483700151876612"><ele>483.0</ele><time>2026-05-01T15:32:22.999Z</time></trkpt><trkpt lat="46.35647449082383" lon="6.483338837188479"><ele>482.5</ele><time>2026-05-01T15:32:23.999Z</time></trkpt><trkpt lat="46.35626670056504" lon="6.482981128528314"><ele>482.0</ele><time>2026-05-01T15:32:24.999Z</time></trkpt><trkpt lat="46.356035023496574" lon="6.482626584180388"><ele>481.5</ele><time>2026-05-01T15:32:25.999Z</time></trkpt><trkpt lat="46.35577887617164" lon="6.482277939890586"><ele>481.0</ele><time>2026-05-01T15:32:26.999Z</time></trkpt><trkpt lat="46.35552647444126" lon="6.48195044182995"><ele>480.5</ele><time>2026-05-01T15:32:27.999Z</time></trkpt><trkpt lat="46.35529180122838" lon="6.481650423002068"><ele>480.0</ele><time>2026-05-01T15:32:28.999Z</time></trkpt><trkpt lat="46.35506315684404" lon="6.481362078769515"><ele>481.0</ele><time>2026-05-01T15:32:29.999Z</time></trkpt><trkpt lat="46.35482312844728" lon="6.481069401568555"><ele>482.0</ele><time>2026-05-01T15:32:30.999Z</time></trkpt><trkpt lat="46.354572800623885" lon="6.480762994898399"><ele>482.0</ele><time>2026-05-01T15:32:31.999Z</time></trkpt><trkpt lat="46.354327346558236" lon="6.480443088535155"><ele>482.0</ele><time>2026-05-01T15:32:32.999Z</time></trkpt><trkpt lat="46.35409165784826" lon="6.480106925685893"><ele>481.5</ele><time>2026-05-01T15:32:33.999Z</time></trkpt><trkpt lat="46.353874114936126" lon="6.479754929516418"><ele>481.0</ele><time>2026-05-01T15:32:34.999Z</time></trkpt><trkpt lat="46.35368917560648" lon="6.479370294617809"><ele>480.5</ele><time>2026-05-01T15:32:35.999Z</time></trkpt><trkpt lat="46.35352642591632" lon="6.47897096658999"><ele>480.0</ele><time>2026-05-01T15:32:36.999Z</time></trkpt><trkpt lat="46.353400239367716" lon="6.478566594406368"><ele>480.0</ele><time>2026-05-01T15:32:37.999Z</time></trkpt><trkpt lat="46.353295505019425" lon="6.478169468169506"><ele>480.0</ele><time>2026-05-01T15:32:38.999Z</time></trkpt><trkpt lat="46.353208744001" lon="6.477762744137075"><ele>480.0</ele><time>2026-05-01T15:32:39.999Z</time></trkpt><trkpt lat="46.353140710781744" lon="6.477346436286856"><ele>480.0</ele><time>2026-05-01T15:32:40.999Z</time></trkpt><trkpt lat="46.353098335640105" lon="6.476921710832566"><ele>479.5</ele><time>2026-05-01T15:32:41.999Z</time></trkpt><trkpt lat="46.353077760949624" lon="6.476487157181274"><ele>479.0</ele><time>2026-05-01T15:32:42.999Z</time></trkpt><trkpt lat="46.353081840362634" lon="6.4760610614497205"><ele>478.0</ele><time>2026-05-01T15:32:43.999Z</time></trkpt><trkpt lat="46.35310741220301" lon="6.475641163859079"><ele>477.0</ele><time>2026-05-01T15:32:44.999Z</time></trkpt><trkpt lat="46.3531570712646" lon="6.475221190924984"><ele>477.0</ele><time>2026-05-01T15:32:45.999Z</time></trkpt><trkpt lat="46.35323017442628" lon="6.474802707811665"><ele>477.0</ele><time>2026-05-01T15:32:46.999Z</time></trkpt><trkpt lat="46.35332395972919" lon="6.474376001570998"><ele>475.5</ele><time>2026-05-01T15:32:47.999Z</time></trkpt><trkpt lat="46.3534439393137" lon="6.473955143663332"><ele>474.0</ele><time>2026-05-01T15:32:48.999Z</time></trkpt><trkpt lat="46.353582932027344" lon="6.473540867173901"><ele>472.0</ele><time>2026-05-01T15:32:49.999Z</time></trkpt><trkpt lat="46.35372319975456" lon="6.473140231556689"><ele>470.0</ele><time>2026-05-01T15:32:50.999Z</time></trkpt><trkpt lat="46.35385191964583" lon="6.472756776959771"><ele>469.0</ele><time>2026-05-01T15:32:51.999Z</time></trkpt><trkpt lat="46.35397105534518" lon="6.472381830287292"><ele>468.0</ele><time>2026-05-01T15:32:52.999Z</time></trkpt><trkpt lat="46.354082761358015" lon="6.471988962625817"><ele>465.0</ele><time>2026-05-01T15:32:53.999Z</time></trkpt><trkpt lat="46.35419003005375" lon="6.4715717540456295"><ele>462.0</ele><time>2026-05-01T15:32:54.999Z</time></trkpt><trkpt lat="46.354289538711235" lon="6.471149799988839"><ele>462.0</ele><time>2026-05-01T15:32:55.999Z</time></trkpt><trkpt lat="46.354376001591774" lon="6.470718031786725"><ele>462.0</ele><time>2026-05-01T15:32:56.999Z</time></trkpt><trkpt lat="46.35445498041972" lon="6.470276266086725"><ele>462.0</ele><time>2026-05-01T15:32:57.999Z</time></trkpt><trkpt lat="46.354524178625205" lon="6.46981264335888"><ele>462.0</ele><time>2026-05-01T15:32:58.999Z</time></trkpt><trkpt lat="46.354583237084576" lon="6.469339845225417"><ele>461.5</ele><time>2026-05-01T15:32:59.999Z</time></trkpt><trkpt lat="46.35461936548597" lon="6.468852430518587"><ele>461.0</ele><time>2026-05-01T15:33:00.999Z</time></trkpt><trkpt lat="46.35465063393489" lon="6.468359108596409"><ele>460.5</ele><time>2026-05-01T15:33:01.999Z</time></trkpt><trkpt lat="46.354669867210674" lon="6.467861740392195"><ele>460.0</ele><time>2026-05-01T15:33:02.999Z</time></trkpt><trkpt lat="46.35468001589299" lon="6.467363421531974"><ele>460.0</ele><time>2026-05-01T15:33:03.999Z</time></trkpt><trkpt lat="46.35467735045424" lon="6.4668618205018396"><ele>460.0</ele><time>2026-05-01T15:33:04.999Z</time></trkpt><trkpt lat="46.35465828044332" lon="6.466357755374961"><ele>460.5</ele><time>2026-05-01T15:33:05.999Z</time></trkpt><trkpt lat="46.354615496661225" lon="6.465850430079994"><ele>461.0</ele><time>2026-05-01T15:33:06.999Z</time></trkpt><trkpt lat="46.354550628324034" lon="6.46534259604176"><ele>461.0</ele><time>2026-05-01T15:33:07.999Z</time></trkpt><trkpt lat="46.35447260970077" lon="6.464830458867584"><ele>461.0</ele><time>2026-05-01T15:33:08.999Z</time></trkpt><trkpt lat="46.354379896754956" lon="6.464320247039924"><ele>461.0</ele><time>2026-05-01T15:33:09.998Z</time></trkpt><trkpt lat="46.35427784284825" lon="6.463858592046791"><ele>461.0</ele><time>2026-05-01T15:33:10.998Z</time></trkpt><trkpt lat="46.35417098035626" lon="6.46342214967724"><ele>462.0</ele><time>2026-05-01T15:33:11.998Z</time></trkpt><trkpt lat="46.35405265594515" lon="6.46299596510501"><ele>463.0</ele><time>2026-05-01T15:33:12.998Z</time></trkpt><trkpt lat="46.35392631900297" lon="6.4625838051903495"><ele>461.0</ele><time>2026-05-01T15:33:13.998Z</time></trkpt><trkpt lat="46.35380514443754" lon="6.462196819403439"><ele>459.0</ele><time>2026-05-01T15:33:14.998Z</time></trkpt><trkpt lat="46.35368839789531" lon="6.461846578001661"><ele>458.5</ele><time>2026-05-01T15:33:15.998Z</time></trkpt><trkpt lat="46.35357006322642" lon="6.461518717300743"><ele>458.0</ele><time>2026-05-01T15:33:16.998Z</time></trkpt><trkpt lat="46.35345615885559" lon="6.46120229715995"><ele>458.0</ele><time>2026-05-01T15:33:17.998Z</time></trkpt><trkpt lat="46.353345234928256" lon="6.460912500625904"><ele>458.0</ele><time>2026-05-01T15:33:18.998Z</time></trkpt><trkpt lat="46.353241840118955" lon="6.460645148233453"><ele>458.0</ele><time>2026-05-01T15:33:19.998Z</time></trkpt><trkpt lat="46.35314936773854" lon="6.460405325202127"><ele>458.3333333333333</ele><time>2026-05-01T15:33:20.998Z</time></trkpt><trkpt lat="46.35305879703038" lon="6.460183876182303"><ele>458.66666666666663</ele><time>2026-05-01T15:33:21.998Z</time></trkpt><trkpt lat="46.35297080736852" lon="6.459977009265945"><ele>459.0</ele><time>2026-05-01T15:33:22.999Z</time></trkpt><trkpt lat="46.35289477083327" lon="6.459793389377231"><ele>459.0</ele><time>2026-05-01T15:33:23.999Z</time></trkpt><trkpt lat="46.3528262396806" lon="6.459614265564489"><ele>459.0</ele><time>2026-05-01T15:33:24.999Z</time></trkpt><trkpt lat="46.35277201881233" lon="6.459451478075967"><ele>459.0</ele><time>2026-05-01T15:33:25.999Z</time></trkpt><trkpt lat="46.35272627328333" lon="6.459291077023111"><ele>459.0</ele><time>2026-05-01T15:33:26.999Z</time></trkpt><trkpt lat="46.35269786115301" lon="6.45915006025842"><ele>459.0</ele><time>2026-05-01T15:33:27.999Z</time></trkpt><trkpt lat="46.35268782501037" lon="6.4590271336302285"><ele>459.0</ele><time>2026-05-01T15:33:28.999Z</time></trkpt><trkpt lat="46.35269556666921" lon="6.458922712476594"><ele>459.0</ele><time>2026-05-01T15:33:29.999Z</time></trkpt><trkpt lat="46.35272363422321" lon="6.458804579608615"><ele>459.0</ele><time>2026-05-01T15:33:30.999Z</time></trkpt><trkpt lat="46.352743370896036" lon="6.4586995682502755"><ele>459.0</ele><time>2026-05-01T15:33:31.999Z</time></trkpt><trkpt lat="46.35271964284487" lon="6.458607208328381"><ele>459.0</ele><time>2026-05-01T15:33:32.999Z</time></trkpt><trkpt lat="46.35266120084369" lon="6.4585586389830985"><ele>459.0</ele><time>2026-05-01T15:33:33.999Z</time></trkpt><trkpt lat="46.352593704322054" lon="6.458566191826761"><ele>459.0</ele><time>2026-05-01T15:33:34.999Z</time></trkpt><trkpt lat="46.352530892413164" lon="6.458625948294368"><ele>459.0</ele><time>2026-05-01T15:33:35.999Z</time></trkpt><trkpt lat="46.35247707473951" lon="6.458730336130293"><ele>459.0</ele><time>2026-05-01T15:33:36.999Z</time></trkpt><trkpt lat="46.35241138818977" lon="6.458873632533384"><ele>459.0</ele><time>2026-05-01T15:33:37.999Z</time></trkpt><trkpt lat="46.352308721010985" lon="6.458990041637882"><ele>459.0</ele><time>2026-05-01T15:33:38.999Z</time></trkpt><trkpt lat="46.35217322142666" lon="6.459093125651979"><ele>459.0</ele><time>2026-05-01T15:33:39.999Z</time></trkpt><trkpt lat="46.35204317812912" lon="6.459181994239858"><ele>459.0</ele><time>2026-05-01T15:33:40.999Z</time></trkpt><trkpt lat="46.351934342409585" lon="6.4592624762125865"><ele>459.0</ele><time>2026-05-01T15:33:41.999Z</time></trkpt><trkpt lat="46.351829845376585" lon="6.459323583815523"><ele>459.0</ele><time>2026-05-01T15:33:42.999Z</time></trkpt><trkpt lat="46.35173022707653" lon="6.459335021752581"><ele>459.0</ele><time>2026-05-01T15:33:43.999Z</time></trkpt><trkpt lat="46.35162855310984" lon="6.4593303033464595"><ele>459.0</ele><time>2026-05-01T15:33:44.999Z</time></trkpt><trkpt lat="46.351530718657614" lon="6.459324312992005"><ele>459.0</ele><time>2026-05-01T15:33:45.999Z</time></trkpt><trkpt lat="46.3514691229189" lon="6.459376950924163"><ele>459.0</ele><time>2026-05-01T15:33:46.999Z</time></trkpt><trkpt lat="46.351410625290924" lon="6.459476818712851"><ele>459.0</ele><time>2026-05-01T15:33:47.999Z</time></trkpt><trkpt lat="46.351358324668176" lon="6.459608446817907"><ele>459.0</ele><time>2026-05-01T15:33:48.999Z</time></trkpt><trkpt lat="46.35127346692021" lon="6.459738616866797"><ele>459.0</ele><time>2026-05-01T15:33:49.999Z</time></trkpt><trkpt lat="46.35113898396384" lon="6.459779463884534"><ele>459.0</ele><time>2026-05-01T15:33:50.999Z</time></trkpt><trkpt lat="46.35098756355047" lon="6.459821425757351"><ele>459.0</ele><time>2026-05-01T15:33:51.999Z</time></trkpt><trkpt lat="46.350817845831415" lon="6.459794019720295"><ele>459.0</ele><time>2026-05-01T15:33:52.999Z</time></trkpt><trkpt lat="46.35066847209876" lon="6.459774590646328"><ele>459.0</ele><time>2026-05-01T15:33:53.999Z</time></trkpt><trkpt lat="46.35054000374026" lon="6.459803356230632"><ele>459.25</ele><time>2026-05-01T15:33:54.999Z</time></trkpt><trkpt lat="46.35041682434219" lon="6.45987686656969"><ele>459.5</ele><time>2026-05-01T15:33:55.999Z</time></trkpt><trkpt lat="46.35030833172091" lon="6.4599923633191265"><ele>459.75</ele><time>2026-05-01T15:33:56.999Z</time></trkpt><trkpt lat="46.35022838526544" lon="6.460137211070032"><ele>460.0</ele><time>2026-05-01T15:33:57.999Z</time></trkpt><trkpt lat="46.350174932293974" lon="6.460312953326078"><ele>460.0</ele><time>2026-05-01T15:33:58.999Z</time></trkpt><trkpt lat="46.35014075491803" lon="6.460534232601732"><ele>460.0</ele><time>2026-05-01T15:33:59.999Z</time></trkpt><trkpt lat="46.35013289776781" lon="6.460814521636233"><ele>460.0</ele><time>2026-05-01T15:34:00.999Z</time></trkpt><trkpt lat="46.3501280374344" lon="6.461111825976618"><ele>460.0</ele><time>2026-05-01T15:34:01.999Z</time></trkpt><trkpt lat="46.35012118105636" lon="6.461406733435915"><ele>460.0</ele><time>2026-05-01T15:34:02.999Z</time></trkpt><trkpt lat="46.35009797887069" lon="6.46167751986985"><ele>460.0</ele><time>2026-05-01T15:34:03.999Z</time></trkpt><trkpt lat="46.35008080716665" lon="6.46192704888443"><ele>461.0</ele><time>2026-05-01T15:34:04.999Z</time></trkpt><trkpt lat="46.3500911479874" lon="6.462162176172162"><ele>462.0</ele><time>2026-05-01T15:34:05.999Z</time></trkpt><trkpt lat="46.35013009356452" lon="6.462410274956284"><ele>463.0</ele><time>2026-05-01T15:34:06.999Z</time></trkpt><trkpt lat="46.35019615711946" lon="6.462663385990084"><ele>463.0</ele><time>2026-05-01T15:34:07.999Z</time></trkpt><trkpt lat="46.35027986478321" lon="6.462915604090543"><ele>463.0</ele><time>2026-05-01T15:34:08.999Z</time></trkpt><trkpt lat="46.35034123169105" lon="6.463156551476641"><ele>463.0</ele><time>2026-05-01T15:34:09.999Z</time></trkpt><trkpt lat="46.35042147650425" lon="6.463369431771389"><ele>462.0</ele><time>2026-05-01T15:34:10.999Z</time></trkpt><trkpt lat="46.35048148114738" lon="6.463574322507511"><ele>461.0</ele><time>2026-05-01T15:34:11.999Z</time></trkpt><trkpt lat="46.3505372942097" lon="6.463798642196387"><ele>460.0</ele><time>2026-05-01T15:34:12.999Z</time></trkpt><trkpt lat="46.35057848882242" lon="6.46403640632577"><ele>460.0</ele><time>2026-05-01T15:34:13.999Z</time></trkpt><trkpt lat="46.35063138703863" lon="6.464271301877783"><ele>460.0</ele><time>2026-05-01T15:34:14.999Z</time></trkpt><trkpt lat="46.35067440411369" lon="6.464520536985526"><ele>460.0</ele><time>2026-05-01T15:34:15.999Z</time></trkpt><trkpt lat="46.35070766551159" lon="6.464773375013841"><ele>460.6666666666667</ele><time>2026-05-01T15:34:16.999Z</time></trkpt><trkpt lat="46.3507510981483" lon="6.465003351754696"><ele>461.33333333333337</ele><time>2026-05-01T15:34:17.999Z</time></trkpt><trkpt lat="46.35079004666507" lon="6.465212109986172"><ele>462.0</ele><time>2026-05-01T15:34:18.999Z</time></trkpt><trkpt lat="46.350830999341746" lon="6.465437389467546"><ele>463.66666666666663</ele><time>2026-05-01T15:34:19.999Z</time></trkpt><trkpt lat="46.35091947967464" lon="6.465645786007419"><ele>465.3333333333333</ele><time>2026-05-01T15:34:20.999Z</time></trkpt><trkpt lat="46.35099053369667" lon="6.465861591749963"><ele>467.0</ele><time>2026-05-01T15:34:21.999Z</time></trkpt><trkpt lat="46.35109388579695" lon="6.466018342531565"><ele>467.0</ele><time>2026-05-01T15:34:22.999Z</time></trkpt><trkpt lat="46.35120672216511" lon="6.466133576307777"><ele>467.0</ele><time>2026-05-01T15:34:23.999Z</time></trkpt><trkpt lat="46.351304549490855" lon="6.466254418867517"><ele>467.0</ele><time>2026-05-01T15:34:24.999Z</time></trkpt><trkpt lat="46.35139619352709" lon="6.466379709504715"><ele>467.0</ele><time>2026-05-01T15:34:25.999Z</time></trkpt><trkpt lat="46.35145667813242" lon="6.466521514551017"><ele>466.3333333333333</ele><time>2026-05-01T15:34:26.999Z</time></trkpt><trkpt lat="46.351495445339104" lon="6.466633788158899"><ele>465.66666666666663</ele><time>2026-05-01T15:34:27.999Z</time></trkpt><trkpt lat="46.35152592018479" lon="6.466753132189508"><ele>465.0</ele><time>2026-05-01T15:34:28.999Z</time></trkpt><trkpt lat="46.351553615285056" lon="6.46685203302192"><ele>464.33333333333337</ele><time>2026-05-01T15:34:29.999Z</time></trkpt><trkpt lat="46.35156003238545" lon="6.466959379148585"><ele>463.6666666666667</ele><time>2026-05-01T15:34:30.999Z</time></trkpt><trkpt lat="46.35155414116439" lon="6.4670746858978685"><ele>463.0</ele><time>2026-05-01T15:34:31.999Z</time></trkpt><trkpt lat="46.351545772234374" lon="6.4671669980511535"><ele>462.75</ele><time>2026-05-01T15:34:32.999Z</time></trkpt><trkpt lat="46.3515032655697" lon="6.467317192997444"><ele>462.5</ele><time>2026-05-01T15:34:34.999Z</time></trkpt><trkpt lat="46.351433517298624" lon="6.467398465566191"><ele>462.25</ele><time>2026-05-01T15:34:35.999Z</time></trkpt><trkpt lat="46.35135639434096" lon="6.467480956198936"><ele>462.0</ele><time>2026-05-01T15:34:36.998Z</time></trkpt><trkpt lat="46.351203672024724" lon="6.467430715448707"><ele>465.0</ele><time>2026-05-01T15:34:37.998Z</time></trkpt><trkpt lat="46.35107051162825" lon="6.467334890205623"><ele>468.0</ele><time>2026-05-01T15:34:38.998Z</time></trkpt><trkpt lat="46.350913139525304" lon="6.467293349449642"><ele>471.0</ele><time>2026-05-01T15:34:39.998Z</time></trkpt><trkpt lat="46.35071883287188" lon="6.467250656884024"><ele>469.5</ele><time>2026-05-01T15:34:40.998Z</time></trkpt><trkpt lat="46.350500088819786" lon="6.467199335569253"><ele>468.0</ele><time>2026-05-01T15:34:41.998Z</time></trkpt><trkpt lat="46.350272807067526" lon="6.467165178990083"><ele>467.66666666666663</ele><time>2026-05-01T15:34:42.998Z</time></trkpt><trkpt lat="46.35004543038357" lon="6.467085656370692"><ele>467.3333333333333</ele><time>2026-05-01T15:34:43.998Z</time></trkpt><trkpt lat="46.3498496597214" lon="6.467001460972813"><ele>467.0</ele><time>2026-05-01T15:34:44.998Z</time></trkpt><trkpt lat="46.34967907456861" lon="6.466918336535474"><ele>467.0</ele><time>2026-05-01T15:34:45.998Z</time></trkpt><trkpt lat="46.34950430944573" lon="6.46683265994557"><ele>467.0</ele><time>2026-05-01T15:34:46.998Z</time></trkpt><trkpt lat="46.34933662398907" lon="6.466736195006189"><ele>467.0</ele><time>2026-05-01T15:34:47.998Z</time></trkpt><trkpt lat="46.3491554502139" lon="6.466643082657345"><ele>467.0</ele><time>2026-05-01T15:34:48.998Z</time></trkpt><trkpt lat="46.348973510023626" lon="6.466515708585752"><ele>467.0</ele><time>2026-05-01T15:34:49.998Z</time></trkpt><trkpt lat="46.34876174929793" lon="6.466387628852441"><ele>467.0</ele><time>2026-05-01T15:34:50.998Z</time></trkpt><trkpt lat="46.34854244981825" lon="6.466239044251037"><ele>468.0</ele><time>2026-05-01T15:34:51.998Z</time></trkpt><trkpt lat="46.34833629489123" lon="6.466080011447165"><ele>469.0</ele><time>2026-05-01T15:34:52.998Z</time></trkpt><trkpt lat="46.348151330014666" lon="6.465936502597274"><ele>470.0</ele><time>2026-05-01T15:34:53.998Z</time></trkpt><trkpt lat="46.34796781027694" lon="6.465818222805104"><ele>470.0</ele><time>2026-05-01T15:34:54.998Z</time></trkpt><trkpt lat="46.34780371242109" lon="6.465691447590104"><ele>470.0</ele><time>2026-05-01T15:34:55.998Z</time></trkpt><trkpt lat="46.34766082866144" lon="6.465549325143049"><ele>470.0</ele><time>2026-05-01T15:34:56.998Z</time></trkpt><trkpt lat="46.34750898535562" lon="6.4654542434379865"><ele>471.0</ele><time>2026-05-01T15:34:57.998Z</time></trkpt><trkpt lat="46.347368439562494" lon="6.465343011782019"><ele>472.0</ele><time>2026-05-01T15:34:58.998Z</time></trkpt><trkpt lat="46.347209933898995" lon="6.465230836788065"><ele>473.0</ele><time>2026-05-01T15:34:59.998Z</time></trkpt><trkpt lat="46.347041419676216" lon="6.465122154386537"><ele>473.3333333333333</ele><time>2026-05-01T15:35:00.998Z</time></trkpt><trkpt lat="46.346855633872366" lon="6.465005786028801"><ele>473.66666666666663</ele><time>2026-05-01T15:35:01.998Z</time></trkpt><trkpt lat="46.346630342678324" lon="6.464904121694948"><ele>474.0</ele><time>2026-05-01T15:35:02.998Z</time></trkpt><trkpt lat="46.34637357320951" lon="6.4648142672827635"><ele>475.0</ele><time>2026-05-01T15:35:03.998Z</time></trkpt><trkpt lat="46.34609682934313" lon="6.46476508474642"><ele>476.0</ele><time>2026-05-01T15:35:04.998Z</time></trkpt><trkpt lat="46.34581923322567" lon="6.464700180209819"><ele>476.0</ele><time>2026-05-01T15:35:05.998Z</time></trkpt><trkpt lat="46.34557319068715" lon="6.464679033351302"><ele>476.0</ele><time>2026-05-01T15:35:06.998Z</time></trkpt><trkpt lat="46.345347891034905" lon="6.464671526726534"><ele>477.0</ele><time>2026-05-01T15:35:07.998Z</time></trkpt><trkpt lat="46.345137427126986" lon="6.464670259983919"><ele>478.0</ele><time>2026-05-01T15:35:08.998Z</time></trkpt><trkpt lat="46.344933846846835" lon="6.46466041066579"><ele>479.0</ele><time>2026-05-01T15:35:09.998Z</time></trkpt><trkpt lat="46.34472585936756" lon="6.464643124733349"><ele>480.0</ele><time>2026-05-01T15:35:10.998Z</time></trkpt><trkpt lat="46.3444989387522" lon="6.464617016279378"><ele>481.0</ele><time>2026-05-01T15:35:11.998Z</time></trkpt><trkpt lat="46.34426561481324" lon="6.464584513307056"><ele>478.5</ele><time>2026-05-01T15:35:12.998Z</time></trkpt><trkpt lat="46.34402664000512" lon="6.464544710351911"><ele>476.0</ele><time>2026-05-01T15:35:13.998Z</time></trkpt><trkpt lat="46.34379309401617" lon="6.464493901504594"><ele>476.0</ele><time>2026-05-01T15:35:14.998Z</time></trkpt><trkpt lat="46.34357572282273" lon="6.464430554283829"><ele>476.0</ele><time>2026-05-01T15:35:15.998Z</time></trkpt><trkpt lat="46.34337663675029" lon="6.464358040816837"><ele>476.0</ele><time>2026-05-01T15:35:16.998Z</time></trkpt><trkpt lat="46.34318118870063" lon="6.464273548609871"><ele>479.3333333333333</ele><time>2026-05-01T15:35:17.998Z</time></trkpt><trkpt lat="46.34297511270132" lon="6.464167044681049"><ele>482.66666666666663</ele><time>2026-05-01T15:35:18.998Z</time></trkpt><trkpt lat="46.3427886658712" lon="6.4640507906496065"><ele>486.0</ele><time>2026-05-01T15:35:19.998Z</time></trkpt><trkpt lat="46.34262582849215" lon="6.463924967890602"><ele>486.0</ele><time>2026-05-01T15:35:20.998Z</time></trkpt><trkpt lat="46.34246828733139" lon="6.46378528323153"><ele>486.0</ele><time>2026-05-01T15:35:21.998Z</time></trkpt><trkpt lat="46.342301089472286" lon="6.463627343539579"><ele>486.0</ele><time>2026-05-01T15:35:22.998Z</time></trkpt><trkpt lat="46.34213536177241" lon="6.463464553702456"><ele>484.66666666666663</ele><time>2026-05-01T15:35:23.998Z</time></trkpt><trkpt lat="46.341994569427406" lon="6.4633171163787"><ele>483.3333333333333</ele><time>2026-05-01T15:35:24.998Z</time></trkpt><trkpt lat="46.3418713033954" lon="6.463170670245789"><ele>482.0</ele><time>2026-05-01T15:35:25.998Z</time></trkpt><trkpt lat="46.34175045196199" lon="6.46300309316629"><ele>481.3333333333333</ele><time>2026-05-01T15:35:26.998Z</time></trkpt><trkpt lat="46.34163289593145" lon="6.462828099951192"><ele>480.66666666666663</ele><time>2026-05-01T15:35:27.998Z</time></trkpt><trkpt lat="46.34153441313153" lon="6.462674080271125"><ele>480.0</ele><time>2026-05-01T15:35:28.999Z</time></trkpt><trkpt lat="46.34143305995224" lon="6.462494879412076"><ele>482.0</ele><time>2026-05-01T15:35:29.999Z</time></trkpt><trkpt lat="46.34134183141518" lon="6.462323979218977"><ele>484.0</ele><time>2026-05-01T15:35:30.999Z</time></trkpt><trkpt lat="46.34125502107168" lon="6.462153843502685"><ele>486.0</ele><time>2026-05-01T15:35:31.999Z</time></trkpt><trkpt lat="46.34116684167181" lon="6.461983680528152"><ele>488.0</ele><time>2026-05-01T15:35:32.999Z</time></trkpt><trkpt lat="46.34108651402982" lon="6.461808529340877"><ele>488.0</ele><time>2026-05-01T15:35:33.999Z</time></trkpt><trkpt lat="46.34102179625953" lon="6.461643362093622"><ele>488.0</ele><time>2026-05-01T15:35:34.999Z</time></trkpt><trkpt lat="46.34095974198274" lon="6.461474391847274"><ele>488.0</ele><time>2026-05-01T15:35:35.999Z</time></trkpt><trkpt lat="46.34089250612007" lon="6.461294928829241"><ele>488.0</ele><time>2026-05-01T15:35:36.999Z</time></trkpt><trkpt lat="46.340822118419084" lon="6.461096068290147"><ele>488.0</ele><time>2026-05-01T15:35:37.999Z</time></trkpt><trkpt lat="46.34075232079958" lon="6.46088742399016"><ele>488.0</ele><time>2026-05-01T15:35:38.999Z</time></trkpt><trkpt lat="46.34068066015749" lon="6.460664994344582"><ele>488.0</ele><time>2026-05-01T15:35:39.999Z</time></trkpt><trkpt lat="46.34060673292001" lon="6.460443996803573"><ele>491.3333333333333</ele><time>2026-05-01T15:35:40.999Z</time></trkpt><trkpt lat="46.34052933615391" lon="6.460222942611255"><ele>494.66666666666663</ele><time>2026-05-01T15:35:41.999Z</time></trkpt><trkpt lat="46.340445373775" lon="6.459994228001118"><ele>498.0</ele><time>2026-05-01T15:35:42.999Z</time></trkpt><trkpt lat="46.34036277594702" lon="6.459768234108779"><ele>497.66666666666663</ele><time>2026-05-01T15:35:43.999Z</time></trkpt><trkpt lat="46.34025215871759" lon="6.459541172582909"><ele>497.3333333333333</ele><time>2026-05-01T15:35:44.999Z</time></trkpt><trkpt lat="46.34013861093608" lon="6.459271580340695"><ele>497.0</ele><time>2026-05-01T15:35:45.999Z</time></trkpt><trkpt lat="46.34001029989438" lon="6.4589752988045674"><ele>496.0</ele><time>2026-05-01T15:35:46.999Z</time></trkpt><trkpt lat="46.33980365988512" lon="6.458726287261235"><ele>495.0</ele><time>2026-05-01T15:35:47.999Z</time></trkpt><trkpt lat="46.33961140467007" lon="6.458439385851972"><ele>501.0</ele><time>2026-05-01T15:35:48.999Z</time></trkpt><trkpt lat="46.339412087183234" lon="6.458175000364716"><ele>507.0</ele><time>2026-05-01T15:35:49.999Z</time></trkpt><trkpt lat="46.33920607583005" lon="6.457938167356743"><ele>507.0</ele><time>2026-05-01T15:35:50.999Z</time></trkpt><trkpt lat="46.33899621236031" lon="6.457717393305435"><ele>507.0</ele><time>2026-05-01T15:35:51.999Z</time></trkpt><trkpt lat="46.33878668661292" lon="6.457528536702967"><ele>507.0</ele><time>2026-05-01T15:35:52.999Z</time></trkpt><trkpt lat="46.338587682752966" lon="6.457367794626462"><ele>507.0</ele><time>2026-05-01T15:35:53.999Z</time></trkpt><trkpt lat="46.33839903109654" lon="6.457224796936631"><ele>507.0</ele><time>2026-05-01T15:35:54.999Z</time></trkpt><trkpt lat="46.33822840324002" lon="6.457084077334072"><ele>507.0</ele><time>2026-05-01T15:35:55.999Z</time></trkpt><trkpt lat="46.33806518940552" lon="6.4569440328584395"><ele>507.0</ele><time>2026-05-01T15:35:56.999Z</time></trkpt><trkpt lat="46.33791477979833" lon="6.45680766330746"><ele>507.0</ele><time>2026-05-01T15:35:57.999Z</time></trkpt><trkpt lat="46.337775898542795" lon="6.456671659314613"><ele>508.0</ele><time>2026-05-01T15:35:58.999Z</time></trkpt><trkpt lat="46.337623050727736" lon="6.45651115640722"><ele>509.0</ele><time>2026-05-01T15:35:59.999Z</time></trkpt><trkpt lat="46.33745268722072" lon="6.45631992519483"><ele>510.0</ele><time>2026-05-01T15:36:00.999Z</time></trkpt><trkpt lat="46.337276316688296" lon="6.456094371536244"><ele>512.5</ele><time>2026-05-01T15:36:01.999Z</time></trkpt><trkpt lat="46.33710016008467" lon="6.455851164268309"><ele>515.0</ele><time>2026-05-01T15:36:02.999Z</time></trkpt><trkpt lat="46.33692390109058" lon="6.455604941257124"><ele>515.3333333333333</ele><time>2026-05-01T15:36:03.999Z</time></trkpt><trkpt lat="46.336772242548044" lon="6.45538114840869"><ele>515.6666666666666</ele><time>2026-05-01T15:36:04.999Z</time></trkpt><trkpt lat="46.336622696720625" lon="6.455157418954435"><ele>516.0</ele><time>2026-05-01T15:36:05.999Z</time></trkpt><trkpt lat="46.33646993520689" lon="6.454942329125154"><ele>519.5</ele><time>2026-05-01T15:36:06.999Z</time></trkpt><trkpt lat="46.3363082236618" lon="6.454713807478032"><ele>523.0</ele><time>2026-05-01T15:36:07.999Z</time></trkpt><trkpt lat="46.33615048373918" lon="6.4544834357564325"><ele>523.3333333333334</ele><time>2026-05-01T15:36:08.999Z</time></trkpt><trkpt lat="46.336008200669724" lon="6.454281172260746"><ele>523.6666666666666</ele><time>2026-05-01T15:36:09.999Z</time></trkpt><trkpt lat="46.335866634573605" lon="6.454081101771961"><ele>524.0</ele><time>2026-05-01T15:36:10.999Z</time></trkpt><trkpt lat="46.335712280864996" lon="6.453866026904885"><ele>527.5</ele><time>2026-05-01T15:36:11.999Z</time></trkpt><trkpt lat="46.33554036400062" lon="6.453635302213628"><ele>531.0</ele><time>2026-05-01T15:36:12.999Z</time></trkpt><trkpt lat="46.33537464001352" lon="6.453390501157936"><ele>531.0</ele><time>2026-05-01T15:36:13.999Z</time></trkpt><trkpt lat="46.3352227541249" lon="6.453156809184093"><ele>531.0</ele><time>2026-05-01T15:36:14.999Z</time></trkpt><trkpt lat="46.335077687435586" lon="6.452944602944457"><ele>531.0</ele><time>2026-05-01T15:36:15.999Z</time></trkpt><trkpt lat="46.33493710411373" lon="6.452743679636258"><ele>531.3333333333334</ele><time>2026-05-01T15:36:16.999Z</time></trkpt><trkpt lat="46.334804698965456" lon="6.452560619293773"><ele>531.6666666666667</ele><time>2026-05-01T15:36:17.999Z</time></trkpt><trkpt lat="46.33468081758381" lon="6.452385496907406"><ele>532.0</ele><time>2026-05-01T15:36:18.999Z</time></trkpt><trkpt lat="46.33455202242329" lon="6.452193715525282"><ele>533.0</ele><time>2026-05-01T15:36:19.999Z</time></trkpt><trkpt lat="46.33441800550031" lon="6.452008361941929"><ele>534.0</ele><time>2026-05-01T15:36:20.999Z</time></trkpt><trkpt lat="46.33428268818136" lon="6.451817571362744"><ele>535.0</ele><time>2026-05-01T15:36:21.999Z</time></trkpt><trkpt lat="46.334142624391816" lon="6.451622050402613"><ele>535.0</ele><time>2026-05-01T15:36:22.999Z</time></trkpt><trkpt lat="46.33400422640848" lon="6.451422679284006"><ele>535.0</ele><time>2026-05-01T15:36:23.999Z</time></trkpt><trkpt lat="46.333863631494175" lon="6.451232569980837"><ele>535.0</ele><time>2026-05-01T15:36:24.999Z</time></trkpt><trkpt lat="46.3337192025482" lon="6.451047545540358"><ele>535.6666666666667</ele><time>2026-05-01T15:36:25.999Z</time></trkpt><trkpt lat="46.33356335308976" lon="6.45086503802653"><ele>536.3333333333334</ele><time>2026-05-01T15:36:26.999Z</time></trkpt><trkpt lat="46.33339226470572" lon="6.450683204173673"><ele>537.0</ele><time>2026-05-01T15:36:27.999Z</time></trkpt><trkpt lat="46.333192462174445" lon="6.4505025616089435"><ele>537.0</ele><time>2026-05-01T15:36:28.999Z</time></trkpt><trkpt lat="46.332985285584" lon="6.450323958610292"><ele>537.0</ele><time>2026-05-01T15:36:29.999Z</time></trkpt><trkpt lat="46.3327732372328" lon="6.450166237581686"><ele>537.0</ele><time>2026-05-01T15:36:30.999Z</time></trkpt><trkpt lat="46.33255377680023" lon="6.450022609336017"><ele>537.0</ele><time>2026-05-01T15:36:31.999Z</time></trkpt><trkpt lat="46.332316049684806" lon="6.4498783995156055"><ele>534.5</ele><time>2026-05-01T15:36:32.999Z</time></trkpt><trkpt lat="46.332067161129814" lon="6.44971226948585"><ele>532.0</ele><time>2026-05-01T15:36:33.999Z</time></trkpt><trkpt lat="46.331839623273936" lon="6.4495445588054885"><ele>532.0</ele><time>2026-05-01T15:36:34.999Z</time></trkpt><trkpt lat="46.33163124820337" lon="6.44937301018131"><ele>532.0</ele><time>2026-05-01T15:36:35.999Z</time></trkpt><trkpt lat="46.33143449325692" lon="6.449203294916911"><ele>531.6666666666667</ele><time>2026-05-01T15:36:37Z</time></trkpt><trkpt lat="46.33124571017651" lon="6.449031780877856"><ele>531.3333333333334</ele><time>2026-05-01T15:36:38Z</time></trkpt><trkpt lat="46.331077572557824" lon="6.448856074001113"><ele>531.0</ele><time>2026-05-01T15:36:39Z</time></trkpt><trkpt lat="46.33091980122928" lon="6.448671143471116"><ele>531.0</ele><time>2026-05-01T15:36:40Z</time></trkpt><trkpt lat="46.330770672562885" lon="6.448482426590197"><ele>531.0</ele><time>2026-05-01T15:36:41Z</time></trkpt><trkpt lat="46.3306363159672" lon="6.4482957746989635"><ele>531.0</ele><time>2026-05-01T15:36:42Z</time></trkpt><trkpt lat="46.33049597629523" lon="6.448100053402676"><ele>529.6666666666666</ele><time>2026-05-01T15:36:43Z</time></trkpt><trkpt lat="46.3303485897593" lon="6.447899608414618"><ele>528.3333333333333</ele><time>2026-05-01T15:36:44Z</time></trkpt><trkpt lat="46.33020657243652" lon="6.447713473970578"><ele>527.0</ele><time>2026-05-01T15:36:45Z</time></trkpt><trkpt lat="46.33007095651014" lon="6.4475362586269975"><ele>527.0</ele><time>2026-05-01T15:36:46Z</time></trkpt><trkpt lat="46.32994039978002" lon="6.447363304454895"><ele>527.0</ele><time>2026-05-01T15:36:47Z</time></trkpt><trkpt lat="46.329808444647014" lon="6.447209503074788"><ele>527.0</ele><time>2026-05-01T15:36:48Z</time></trkpt><trkpt lat="46.32969002870973" lon="6.44706533117892"><ele>525.25</ele><time>2026-05-01T15:36:49Z</time></trkpt><trkpt lat="46.32958729804127" lon="6.446942200465417"><ele>523.5</ele><time>2026-05-01T15:36:50Z</time></trkpt><trkpt lat="46.32950435151173" lon="6.446821512550352"><ele>521.75</ele><time>2026-05-01T15:36:51Z</time></trkpt><trkpt lat="46.32943314682937" lon="6.446687891009921"><ele>520.0</ele><time>2026-05-01T15:36:52Z</time></trkpt><trkpt lat="46.32938701075087" lon="6.4465494835945885"><ele>520.0</ele><time>2026-05-01T15:36:53Z</time></trkpt><trkpt lat="46.329366529676314" lon="6.446416262053265"><ele>520.0</ele><time>2026-05-01T15:36:54Z</time></trkpt><trkpt lat="46.32932681577641" lon="6.446310712909739"><ele>520.0</ele><time>2026-05-01T15:36:55Z</time></trkpt><trkpt lat="46.329253904702455" lon="6.446252177436534"><ele>520.0</ele><time>2026-05-01T15:36:56Z</time></trkpt><trkpt lat="46.32916239309453" lon="6.446221469260897"><ele>520.0</ele><time>2026-05-01T15:36:57Z</time></trkpt><trkpt lat="46.32905047035176" lon="6.446275491821837"><ele>520.0</ele><time>2026-05-01T15:36:58Z</time></trkpt><trkpt lat="46.32892849386191" lon="6.446323242215262"><ele>520.0</ele><time>2026-05-01T15:36:59Z</time></trkpt><trkpt lat="46.32877162523423" lon="6.446304502883227"><ele>520.0</ele><time>2026-05-01T15:37:00Z</time></trkpt><trkpt lat="46.32860567788262" lon="6.446227680115657"><ele>518.0</ele><time>2026-05-01T15:37:01Z</time></trkpt><trkpt lat="46.32841138638758" lon="6.446134275833949"><ele>516.0</ele><time>2026-05-01T15:37:02Z</time></trkpt><trkpt lat="46.328202442048514" lon="6.44603253702529"><ele>514.0</ele><time>2026-05-01T15:37:03Z</time></trkpt><trkpt lat="46.32797912345164" lon="6.445930019078787"><ele>513.5</ele><time>2026-05-01T15:37:04Z</time></trkpt><trkpt lat="46.32774694785056" lon="6.445821361656633"><ele>513.0</ele><time>2026-05-01T15:37:05Z</time></trkpt><trkpt lat="46.32751979578799" lon="6.445710309920066"><ele>513.0</ele><time>2026-05-01T15:37:06Z</time></trkpt><trkpt lat="46.327306542071184" lon="6.445615136519494"><ele>513.0</ele><time>2026-05-01T15:37:07Z</time></trkpt><trkpt lat="46.327104791770275" lon="6.44551377852284"><ele>513.0</ele><time>2026-05-01T15:37:08Z</time></trkpt><trkpt lat="46.326910442641626" lon="6.445426403910442"><ele>511.0</ele><time>2026-05-01T15:37:09Z</time></trkpt><trkpt lat="46.32672721387025" lon="6.445339979167132"><ele>509.0</ele><time>2026-05-01T15:37:10Z</time></trkpt><trkpt lat="46.3265640479041" lon="6.445259918338348"><ele>507.0</ele><time>2026-05-01T15:37:11Z</time></trkpt><trkpt lat="46.32640123639384" lon="6.445169477606932"><ele>509.0</ele><time>2026-05-01T15:37:12Z</time></trkpt><trkpt lat="46.32624744449358" lon="6.445079135529284"><ele>511.0</ele><time>2026-05-01T15:37:13Z</time></trkpt><trkpt lat="46.326099200357035" lon="6.444991140105987"><ele>513.0</ele><time>2026-05-01T15:37:14Z</time></trkpt><trkpt lat="46.325962657347894" lon="6.444901756312097"><ele>513.0</ele><time>2026-05-01T15:37:15Z</time></trkpt><trkpt lat="46.32584312404678" lon="6.44481726238823"><ele>513.0</ele><time>2026-05-01T15:37:16Z</time></trkpt><trkpt lat="46.32573860058747" lon="6.444728517857607"><ele>513.0</ele><time>2026-05-01T15:37:17Z</time></trkpt><trkpt lat="46.325648189397846" lon="6.444643312786495"><ele>513.0</ele><time>2026-05-01T15:37:18Z</time></trkpt><trkpt lat="46.325557951665616" lon="6.444551095572065"><ele>511.79999999999995</ele><time>2026-05-01T15:37:19Z</time></trkpt><trkpt lat="46.325467027274755" lon="6.444462493151629"><ele>510.59999999999997</ele><time>2026-05-01T15:37:20Z</time></trkpt><trkpt lat="46.32538031966229" lon="6.4443833237887"><ele>509.40000000000003</ele><time>2026-05-01T15:37:21Z</time></trkpt><trkpt lat="46.32530561907702" lon="6.444291557391281"><ele>508.20000000000005</ele><time>2026-05-01T15:37:22Z</time></trkpt><trkpt lat="46.32524806552537" lon="6.444183253802367"><ele>507.0</ele><time>2026-05-01T15:37:23Z</time></trkpt><trkpt lat="46.325215083870035" lon="6.444078985539634"><ele>507.0</ele><time>2026-05-01T15:37:24Z</time></trkpt><trkpt lat="46.32519386587121" lon="6.443970186122601"><ele>507.0</ele><time>2026-05-01T15:37:25Z</time></trkpt><trkpt lat="46.32515409965508" lon="6.443881528897337"><ele>507.0</ele><time>2026-05-01T15:37:26Z</time></trkpt><trkpt lat="46.32508478956218" lon="6.44383543722109"><ele>507.0</ele><time>2026-05-01T15:37:27Z</time></trkpt><trkpt lat="46.32499505961978" lon="6.443819599412608"><ele>507.0</ele><time>2026-05-01T15:37:28Z</time></trkpt><trkpt lat="46.324900396883976" lon="6.443841586278452"><ele>507.0</ele><time>2026-05-01T15:37:28.999Z</time></trkpt><trkpt lat="46.324800298034305" lon="6.443867048701733"><ele>508.5</ele><time>2026-05-01T15:37:29.999Z</time></trkpt><trkpt lat="46.32468886899848" lon="6.443838679954623"><ele>510.0</ele><time>2026-05-01T15:37:30.999Z</time></trkpt><trkpt lat="46.324564865294285" lon="6.443729316158368"><ele>511.5</ele><time>2026-05-01T15:37:31.999Z</time></trkpt><trkpt lat="46.324401619119165" lon="6.443612684606528"><ele>513.0</ele><time>2026-05-01T15:37:32.999Z</time></trkpt><trkpt lat="46.32421481769389" lon="6.443483785876347"><ele>510.5</ele><time>2026-05-01T15:37:33.999Z</time></trkpt><trkpt lat="46.32399813278146" lon="6.4433429362784835"><ele>508.0</ele><time>2026-05-01T15:37:35Z</time></trkpt><trkpt lat="46.323778286986645" lon="6.443202963062057"><ele>508.0</ele><time>2026-05-01T15:37:36Z</time></trkpt><trkpt lat="46.32357798955378" lon="6.443075436083861"><ele>508.0</ele><time>2026-05-01T15:37:37Z</time></trkpt><trkpt lat="46.323382378874626" lon="6.442976622027898"><ele>508.0</ele><time>2026-05-01T15:37:38Z</time></trkpt><trkpt lat="46.3232052361415" lon="6.442839550801151"><ele>504.33333333333337</ele><time>2026-05-01T15:37:39Z</time></trkpt><trkpt lat="46.3230149955036" lon="6.44271954252766"><ele>500.66666666666663</ele><time>2026-05-01T15:37:40Z</time></trkpt><trkpt lat="46.32280559593474" lon="6.44260065294469"><ele>497.0</ele><time>2026-05-01T15:37:41Z</time></trkpt><trkpt lat="46.322575902919006" lon="6.442487997864817"><ele>497.0</ele><time>2026-05-01T15:37:42Z</time></trkpt><trkpt lat="46.32230545556777" lon="6.442382409003985"><ele>497.0</ele><time>2026-05-01T15:37:43Z</time></trkpt><trkpt lat="46.32203752795082" lon="6.44229652341521"><ele>501.5</ele><time>2026-05-01T15:37:44Z</time></trkpt><trkpt lat="46.32179258359994" lon="6.442248354922168"><ele>506.0</ele><time>2026-05-01T15:37:45Z</time></trkpt><trkpt lat="46.32153644330596" lon="6.4421702764245845"><ele>500.5</ele><time>2026-05-01T15:37:46Z</time></trkpt><trkpt lat="46.32124702595638" lon="6.442114469626343"><ele>495.0</ele><time>2026-05-01T15:37:47Z</time></trkpt><trkpt lat="46.320943101062916" lon="6.442081048020926"><ele>495.0</ele><time>2026-05-01T15:37:48Z</time></trkpt><trkpt lat="46.32063908032208" lon="6.442013147633586"><ele>495.0</ele><time>2026-05-01T15:37:49Z</time></trkpt><trkpt lat="46.3203337515895" lon="6.441962705378952"><ele>498.5</ele><time>2026-05-01T15:37:50Z</time></trkpt><trkpt lat="46.32003985634053" lon="6.441899775909919"><ele>502.0</ele><time>2026-05-01T15:37:51Z</time></trkpt><trkpt lat="46.319756064303434" lon="6.441841436587297"><ele>503.5</ele><time>2026-05-01T15:37:52Z</time></trkpt><trkpt lat="46.3194597035588" lon="6.441780307782826"><ele>505.0</ele><time>2026-05-01T15:37:53Z</time></trkpt><trkpt lat="46.319164660089314" lon="6.441723510054871"><ele>508.5</ele><time>2026-05-01T15:37:54Z</time></trkpt><trkpt lat="46.31889140906686" lon="6.441672800324647"><ele>512.0</ele><time>2026-05-01T15:37:55Z</time></trkpt><trkpt lat="46.318628116423106" lon="6.4416317251851645"><ele>512.0</ele><time>2026-05-01T15:37:56Z</time></trkpt><trkpt lat="46.31835200898301" lon="6.441601087197956"><ele>512.0</ele><time>2026-05-01T15:37:57Z</time></trkpt><trkpt lat="46.31807681106602" lon="6.441575446773476"><ele>515.5</ele><time>2026-05-01T15:37:58Z</time></trkpt><trkpt lat="46.317817820222935" lon="6.441558337906219"><ele>519.0</ele><time>2026-05-01T15:37:59Z</time></trkpt><trkpt lat="46.3175873872771" lon="6.441538914740157"><ele>519.0</ele><time>2026-05-01T15:38:00Z</time></trkpt><trkpt lat="46.31736696490767" lon="6.4415225052810925"><ele>519.0</ele><time>2026-05-01T15:38:01Z</time></trkpt><trkpt lat="46.31716535828736" lon="6.4415070173630005"><ele>519.0</ele><time>2026-05-01T15:38:02Z</time></trkpt><trkpt lat="46.31697536581341" lon="6.441486683418149"><ele>521.6666666666666</ele><time>2026-05-01T15:38:03Z</time></trkpt><trkpt lat="46.31679651748139" lon="6.44147278189215"><ele>524.3333333333333</ele><time>2026-05-01T15:38:04Z</time></trkpt><trkpt lat="46.31660690424594" lon="6.441458881725474"><ele>527.0</ele><time>2026-05-01T15:38:05Z</time></trkpt><trkpt lat="46.31642666426704" lon="6.441438946729765"><ele>526.6666666666666</ele><time>2026-05-01T15:38:06Z</time></trkpt><trkpt lat="46.316259082704406" lon="6.441421622943704"><ele>526.3333333333334</ele><time>2026-05-01T15:38:07Z</time></trkpt><trkpt lat="46.316074308401056" lon="6.441410660469816"><ele>526.0</ele><time>2026-05-01T15:38:08Z</time></trkpt><trkpt lat="46.315887604345264" lon="6.4414017858486305"><ele>526.0</ele><time>2026-05-01T15:38:09Z</time></trkpt><trkpt lat="46.315713569342485" lon="6.441378932908459"><ele>526.0</ele><time>2026-05-01T15:38:10Z</time></trkpt><trkpt lat="46.315534369741094" lon="6.441351073101927"><ele>526.0</ele><time>2026-05-01T15:38:11Z</time></trkpt><trkpt lat="46.31536268266722" lon="6.441312202335848"><ele>520.3333333333334</ele><time>2026-05-01T15:38:12Z</time></trkpt><trkpt lat="46.31520489713475" lon="6.441265019593698"><ele>514.6666666666666</ele><time>2026-05-01T15:38:13Z</time></trkpt><trkpt lat="46.315040260346514" lon="6.441191331902463"><ele>509.0</ele><time>2026-05-01T15:38:14Z</time></trkpt><trkpt lat="46.314878341610104" lon="6.441095884232079"><ele>510.0</ele><time>2026-05-01T15:38:15Z</time></trkpt><trkpt lat="46.314704348843094" lon="6.441001671431849"><ele>511.0</ele><time>2026-05-01T15:38:16Z</time></trkpt><trkpt lat="46.314524946906666" lon="6.440899533242271"><ele>512.0</ele><time>2026-05-01T15:38:17Z</time></trkpt><trkpt lat="46.314361246160004" lon="6.440799526860531"><ele>512.0</ele><time>2026-05-01T15:38:18Z</time></trkpt><trkpt lat="46.314206663847" lon="6.440707633254069"><ele>512.0</ele><time>2026-05-01T15:38:19Z</time></trkpt><trkpt lat="46.314047177325" lon="6.440611470081294"><ele>512.0</ele><time>2026-05-01T15:38:20Z</time></trkpt><trkpt lat="46.31388467962902" lon="6.440522960037331"><ele>510.0</ele><time>2026-05-01T15:38:21Z</time></trkpt><trkpt lat="46.31371966009099" lon="6.440454859360021"><ele>508.0</ele><time>2026-05-01T15:38:22Z</time></trkpt><trkpt lat="46.31355275041474" lon="6.440412966842769"><ele>506.0</ele><time>2026-05-01T15:38:23Z</time></trkpt><trkpt lat="46.31337398348349" lon="6.440384379708406"><ele>506.0</ele><time>2026-05-01T15:38:24Z</time></trkpt><trkpt lat="46.31318688333646" lon="6.440378264526443"><ele>506.0</ele><time>2026-05-01T15:38:25Z</time></trkpt><trkpt lat="46.312993472292234" lon="6.440391645777198"><ele>506.0</ele><time>2026-05-01T15:38:26Z</time></trkpt><trkpt lat="46.31280738316478" lon="6.440408945988792"><ele>506.3333333333333</ele><time>2026-05-01T15:38:27Z</time></trkpt><trkpt lat="46.31263170023215" lon="6.440432795174005"><ele>506.66666666666663</ele><time>2026-05-01T15:38:28Z</time></trkpt><trkpt lat="46.31245082811836" lon="6.440458699868608"><ele>507.0</ele><time>2026-05-01T15:38:29Z</time></trkpt><trkpt lat="46.312269150162784" lon="6.4404949246546295"><ele>511.0</ele><time>2026-05-01T15:38:30Z</time></trkpt><trkpt lat="46.31204695325196" lon="6.440545723937329"><ele>515.0</ele><time>2026-05-01T15:38:31Z</time></trkpt><trkpt lat="46.31180890800455" lon="6.440576376115513"><ele>515.0</ele><time>2026-05-01T15:38:32Z</time></trkpt><trkpt lat="46.3115750964565" lon="6.440596121880419"><ele>515.0</ele><time>2026-05-01T15:38:33Z</time></trkpt><trkpt lat="46.31138587444431" lon="6.44061561287714"><ele>515.0</ele><time>2026-05-01T15:38:34Z</time></trkpt><trkpt lat="46.31123109167177" lon="6.440627492398416"><ele>516.0</ele><time>2026-05-01T15:38:35Z</time></trkpt><trkpt lat="46.311097949026106" lon="6.440640453662519"><ele>517.0</ele><time>2026-05-01T15:38:36Z</time></trkpt><trkpt lat="46.310996174285215" lon="6.4406533198955636"><ele>518.0</ele><time>2026-05-01T15:38:37Z</time></trkpt><trkpt lat="46.310900208581096" lon="6.440667379303298"><ele>519.0</ele><time>2026-05-01T15:38:38Z</time></trkpt><trkpt lat="46.310808306501364" lon="6.440679791095292"><ele>520.0</ele><time>2026-05-01T15:38:39Z</time></trkpt><trkpt lat="46.31071716990762" lon="6.440685386738456"><ele>520.0</ele><time>2026-05-01T15:38:40Z</time></trkpt><trkpt lat="46.31061681569225" lon="6.440683978878655"><ele>520.0</ele><time>2026-05-01T15:38:41Z</time></trkpt><trkpt lat="46.31050609414846" lon="6.440673000208032"><ele>520.0</ele><time>2026-05-01T15:38:42Z</time></trkpt><trkpt lat="46.31039232101873" lon="6.440645105619906"><ele>520.0</ele><time>2026-05-01T15:38:43Z</time></trkpt><trkpt lat="46.31028417512097" lon="6.440606272158836"><ele>520.0</ele><time>2026-05-01T15:38:44Z</time></trkpt><trkpt lat="46.31017495733454" lon="6.440569143681346"><ele>521.25</ele><time>2026-05-01T15:38:45Z</time></trkpt><trkpt lat="46.310064215040306" lon="6.4405160899571055"><ele>522.5</ele><time>2026-05-01T15:38:46Z</time></trkpt><trkpt lat="46.30995455195965" lon="6.44044862234271"><ele>523.75</ele><time>2026-05-01T15:38:47Z</time></trkpt><trkpt lat="46.30984640318897" lon="6.44037094324952"><ele>525.0</ele><time>2026-05-01T15:38:48Z</time></trkpt><trkpt lat="46.309734542216155" lon="6.440291505805568"><ele>527.0</ele><time>2026-05-01T15:38:49Z</time></trkpt><trkpt lat="46.30962648051176" lon="6.440219121040619"><ele>529.0</ele><time>2026-05-01T15:38:50Z</time></trkpt><trkpt lat="46.30951949270061" lon="6.440148952916229"><ele>531.0</ele><time>2026-05-01T15:38:51Z</time></trkpt><trkpt lat="46.30940791186908" lon="6.440084362317537"><ele>533.0</ele><time>2026-05-01T15:38:52Z</time></trkpt><trkpt lat="46.30929211158827" lon="6.440021049991459"><ele>533.0</ele><time>2026-05-01T15:38:53Z</time></trkpt><trkpt lat="46.30917288163658" lon="6.439964062082511"><ele>533.0</ele><time>2026-05-01T15:38:54Z</time></trkpt><trkpt lat="46.309063116019814" lon="6.439921629952081"><ele>533.0</ele><time>2026-05-01T15:38:55Z</time></trkpt><trkpt lat="46.30896450820219" lon="6.439888612549241"><ele>533.0</ele><time>2026-05-01T15:38:56Z</time></trkpt><trkpt lat="46.308874937205545" lon="6.439860804333609"><ele>533.0</ele><time>2026-05-01T15:38:57Z</time></trkpt><trkpt lat="46.30878391025617" lon="6.439834706597295"><ele>533.6666666666666</ele><time>2026-05-01T15:38:58Z</time></trkpt><trkpt lat="46.30868428939446" lon="6.439802836253417"><ele>534.3333333333333</ele><time>2026-05-01T15:38:59Z</time></trkpt><trkpt lat="46.30859193712903" lon="6.439768976375872"><ele>535.0</ele><time>2026-05-01T15:39:00Z</time></trkpt><trkpt lat="46.308506335160054" lon="6.4397476963950355"><ele>535.6666666666666</ele><time>2026-05-01T15:39:01Z</time></trkpt><trkpt lat="46.308430001578806" lon="6.439728092362778"><ele>536.3333333333334</ele><time>2026-05-01T15:39:02Z</time></trkpt><trkpt lat="46.308354405456974" lon="6.439700759173374"><ele>537.0</ele><time>2026-05-01T15:39:03Z</time></trkpt><trkpt lat="46.308247560243" lon="6.439666979425943"><ele>537.0</ele><time>2026-05-01T15:39:05Z</time></trkpt><trkpt lat="46.30815931334443" lon="6.439646179252184"><ele>537.0</ele><time>2026-05-01T15:39:07Z</time></trkpt><trkpt lat="46.308069767657294" lon="6.4396226152930325"><ele>537.0</ele><time>2026-05-01T15:39:09Z</time></trkpt><trkpt lat="46.30798917649588" lon="6.4395994962186105"><ele>537.0</ele><time>2026-05-01T15:39:10Z</time></trkpt><trkpt lat="46.30795436880278" lon="6.439510673075463"><ele>537.0</ele><time>2026-05-01T15:39:12Z</time></trkpt><trkpt lat="46.30802686100885" lon="6.439425421643437"><ele>537.0</ele><time>2026-05-01T15:39:14Z</time></trkpt><trkpt lat="46.30809617232443" lon="6.439440855092237"><ele>538.0</ele><time>2026-05-01T15:39:15Z</time></trkpt><trkpt lat="46.308167786099325" lon="6.439383952408471"><ele>539.0</ele><time>2026-05-01T15:39:16Z</time></trkpt><trkpt lat="46.30823920621852" lon="6.439347888807495"><ele>540.0</ele><time>2026-05-01T15:39:17Z</time></trkpt><trkpt lat="46.308328476869825" lon="6.439281737788205"><ele>541.0</ele><time>2026-05-01T15:39:18Z</time></trkpt><trkpt lat="46.30843056953138" lon="6.439195067859896"><ele>542.0</ele><time>2026-05-01T15:39:19Z</time></trkpt><trkpt lat="46.30852536288714" lon="6.439099371600207"><ele>542.0</ele><time>2026-05-01T15:39:20Z</time></trkpt><trkpt lat="46.30860741059651" lon="6.439001186365424"><ele>542.0</ele><time>2026-05-01T15:39:21Z</time></trkpt><trkpt lat="46.30868857036387" lon="6.438882214686362"><ele>542.0</ele><time>2026-05-01T15:39:22Z</time></trkpt><trkpt lat="46.30875415502939" lon="6.438729811798515"><ele>542.0</ele><time>2026-05-01T15:39:23Z</time></trkpt><trkpt lat="46.308789133525636" lon="6.43857605999532"><ele>542.0</ele><time>2026-05-01T15:39:24Z</time></trkpt><trkpt lat="46.30881039977312" lon="6.438431357104829"><ele>542.0</ele><time>2026-05-01T15:39:25Z</time></trkpt><trkpt lat="46.30883154486482" lon="6.438300796655803"><ele>542.0</ele><time>2026-05-01T15:39:26Z</time></trkpt><trkpt lat="46.30887191060006" lon="6.438181200355277"><ele>542.0</ele><time>2026-05-01T15:39:27Z</time></trkpt><trkpt lat="46.30889122354542" lon="6.438064155442278"><ele>542.0</ele><time>2026-05-01T15:39:28Z</time></trkpt><trkpt lat="46.30892569459093" lon="6.437958438724177"><ele>542.0</ele><time>2026-05-01T15:39:29Z</time></trkpt><trkpt lat="46.30895867933833" lon="6.437861955732349"><ele>542.0</ele><time>2026-05-01T15:39:30Z</time></trkpt><trkpt lat="46.30899203071207" lon="6.437766680657133"><ele>542.0</ele><time>2026-05-01T15:39:31Z</time></trkpt><trkpt lat="46.30902462449468" lon="6.437678424880442"><ele>542.0</ele><time>2026-05-01T15:39:32Z</time></trkpt><trkpt lat="46.309061123776" lon="6.437567800839303"><ele>542.0</ele><time>2026-05-01T15:39:33Z</time></trkpt><trkpt lat="46.30910147881058" lon="6.43746115378633"><ele>542.0</ele><time>2026-05-01T15:39:34Z</time></trkpt><trkpt lat="46.309145166226436" lon="6.437351103393425"><ele>542.0</ele><time>2026-05-01T15:39:35Z</time></trkpt><trkpt lat="46.309181209877174" lon="6.437251059693238"><ele>542.0</ele><time>2026-05-01T15:39:36Z</time></trkpt><trkpt lat="46.30921482137047" lon="6.437155433603132"><ele>542.0</ele><time>2026-05-01T15:39:37Z</time></trkpt><trkpt lat="46.30924969227276" lon="6.437063726375936"><ele>542.0</ele><time>2026-05-01T15:39:38Z</time></trkpt><trkpt lat="46.30928133885167" lon="6.4369693515258275"><ele>542.0</ele><time>2026-05-01T15:39:39Z</time></trkpt><trkpt lat="46.3093150857932" lon="6.436876537122151"><ele>542.0</ele><time>2026-05-01T15:39:40Z</time></trkpt><trkpt lat="46.30934342177242" lon="6.436793023421612"><ele>542.0</ele><time>2026-05-01T15:39:41Z</time></trkpt><trkpt lat="46.30936944971088" lon="6.436694415844892"><ele>541.8000000000001</ele><time>2026-05-01T15:39:42Z</time></trkpt><trkpt lat="46.309413323595386" lon="6.436531314511372"><ele>541.6</ele><time>2026-05-01T15:39:44Z</time></trkpt><trkpt lat="46.30945059523437" lon="6.4363583316741595"><ele>541.4000000000001</ele><time>2026-05-01T15:39:46Z</time></trkpt><trkpt lat="46.309468054938634" lon="6.436260952321088"><ele>541.2</ele><time>2026-05-01T15:39:47Z</time></trkpt><trkpt lat="46.309487053618376" lon="6.436160989593043"><ele>541.0</ele><time>2026-05-01T15:39:48Z</time></trkpt><trkpt lat="46.30950441426353" lon="6.436068034051156"><ele>540.4</ele><time>2026-05-01T15:39:49Z</time></trkpt><trkpt lat="46.30953628025569" lon="6.435984447269674"><ele>539.8</ele><time>2026-05-01T15:39:50Z</time></trkpt><trkpt lat="46.30955810302082" lon="6.435872744168578"><ele>539.1999999999999</ele><time>2026-05-01T15:39:53Z</time></trkpt><trkpt lat="46.30957938780156" lon="6.435767085772051"><ele>538.6</ele><time>2026-05-01T15:40:01Z</time></trkpt><trkpt lat="46.30962306374511" lon="6.435622842847602"><ele>538.0</ele><time>2026-05-01T15:40:03Z</time></trkpt><trkpt lat="46.309669151326545" lon="6.435455467404555"><ele>536.8333333333334</ele><time>2026-05-01T15:40:05Z</time></trkpt><trkpt lat="46.30966853456518" lon="6.43534494126962"><ele>535.6666666666667</ele><time>2026-05-01T15:40:06Z</time></trkpt><trkpt lat="46.3096559584616" lon="6.435218266497005"><ele>534.5</ele><time>2026-05-01T15:40:07Z</time></trkpt><trkpt lat="46.309636697339975" lon="6.435092812767499"><ele>533.3333333333334</ele><time>2026-05-01T15:40:08Z</time></trkpt><trkpt lat="46.30961747125666" lon="6.434984276068748"><ele>532.1666666666666</ele><time>2026-05-01T15:40:09Z</time></trkpt><trkpt lat="46.309593840901925" lon="6.434857180593379"><ele>531.0</ele><time>2026-05-01T15:40:10Z</time></trkpt><trkpt lat="46.30957364585612" lon="6.434747449704138"><ele>530.2</ele><time>2026-05-01T15:40:11Z</time></trkpt><trkpt lat="46.30954871588857" lon="6.4346375769567965"><ele>529.4000000000001</ele><time>2026-05-01T15:40:12Z</time></trkpt><trkpt lat="46.309524804443534" lon="6.434548071414886"><ele>528.6</ele><time>2026-05-01T15:40:13Z</time></trkpt><trkpt lat="46.309473183186356" lon="6.434351577320938"><ele>527.8000000000001</ele><time>2026-05-01T15:40:15Z</time></trkpt><trkpt lat="46.309435910170365" lon="6.434237619632681"><ele>527.0</ele><time>2026-05-01T15:40:16Z</time></trkpt><trkpt lat="46.30939241776036" lon="6.434111507274876"><ele>527.0</ele><time>2026-05-01T15:40:17Z</time></trkpt><trkpt lat="46.309354917856496" lon="6.433980013693352"><ele>527.0</ele><time>2026-05-01T15:40:18Z</time></trkpt><trkpt lat="46.3093187154899" lon="6.433850412556225"><ele>527.0</ele><time>2026-05-01T15:40:19Z</time></trkpt><trkpt lat="46.30928978327142" lon="6.433718865520248"><ele>527.0</ele><time>2026-05-01T15:40:20Z</time></trkpt><trkpt lat="46.309266216627215" lon="6.4335892008419115"><ele>527.0</ele><time>2026-05-01T15:40:21Z</time></trkpt><trkpt lat="46.30924568516338" lon="6.433468120421212"><ele>526.8333333333333</ele><time>2026-05-01T15:40:22Z</time></trkpt><trkpt lat="46.30922867539911" lon="6.433346393572408"><ele>526.6666666666666</ele><time>2026-05-01T15:40:23Z</time></trkpt><trkpt lat="46.30920926660688" lon="6.43322801697378"><ele>526.5</ele><time>2026-05-01T15:40:24Z</time></trkpt><trkpt lat="46.309193298558625" lon="6.433117091209598"><ele>526.3333333333334</ele><time>2026-05-01T15:40:25Z</time></trkpt><trkpt lat="46.309152657531065" lon="6.432992304822342"><ele>526.1666666666667</ele><time>2026-05-01T15:40:26Z</time></trkpt><trkpt lat="46.309108819877096" lon="6.432863591915305"><ele>526.0</ele><time>2026-05-01T15:40:27Z</time></trkpt><trkpt lat="46.3090562400032" lon="6.43274065788167"><ele>525.2</ele><time>2026-05-01T15:40:28Z</time></trkpt><trkpt lat="46.30899711411251" lon="6.4326359416851355"><ele>524.4000000000001</ele><time>2026-05-01T15:40:29Z</time></trkpt><trkpt lat="46.30893232614145" lon="6.432537668319539"><ele>523.6</ele><time>2026-05-01T15:40:30Z</time></trkpt><trkpt lat="46.30886976284565" lon="6.432437065998882"><ele>522.8000000000001</ele><time>2026-05-01T15:40:31Z</time></trkpt><trkpt lat="46.308811453749584" lon="6.432335758406667"><ele>522.0</ele><time>2026-05-01T15:40:32Z</time></trkpt><trkpt lat="46.308745391532014" lon="6.432243252628143"><ele>521.4</ele><time>2026-05-01T15:40:33Z</time></trkpt><trkpt lat="46.308684517306" lon="6.432158130282369"><ele>520.8000000000001</ele><time>2026-05-01T15:40:34Z</time></trkpt><trkpt lat="46.30862153403689" lon="6.432070058799247"><ele>520.2</ele><time>2026-05-01T15:40:35Z</time></trkpt><trkpt lat="46.30854233776319" lon="6.43199417910693"><ele>519.6</ele><time>2026-05-01T15:40:36Z</time></trkpt><trkpt lat="46.3084740249007" lon="6.431901601593575"><ele>519.0</ele><time>2026-05-01T15:40:37Z</time></trkpt><trkpt lat="46.308391784312235" lon="6.431802959072294"><ele>519.0</ele><time>2026-05-01T15:40:38Z</time></trkpt><trkpt lat="46.30831189968278" lon="6.431712139987398"><ele>519.0</ele><time>2026-05-01T15:40:39Z</time></trkpt><trkpt lat="46.30823378476116" lon="6.431624233581423"><ele>519.0</ele><time>2026-05-01T15:40:40Z</time></trkpt><trkpt lat="46.30816590298001" lon="6.431553834444932"><ele>519.0</ele><time>2026-05-01T15:40:41Z</time></trkpt><trkpt lat="46.30808507456802" lon="6.431458235834941"><ele>519.0</ele><time>2026-05-01T15:40:42Z</time></trkpt><trkpt lat="46.30801894727313" lon="6.43138188832612"><ele>519.4</ele><time>2026-05-01T15:40:43Z</time></trkpt><trkpt lat="46.30795296554366" lon="6.431301402965337"><ele>519.8</ele><time>2026-05-01T15:40:44Z</time></trkpt><trkpt lat="46.307900787192864" lon="6.431228356630166"><ele>520.2</ele><time>2026-05-01T15:40:45Z</time></trkpt><trkpt lat="46.30785597130427" lon="6.431121171717457"><ele>520.6</ele><time>2026-05-01T15:40:47Z</time></trkpt><trkpt lat="46.30793537375147" lon="6.431001818429296"><ele>521.0</ele><time>2026-05-01T15:40:49Z</time></trkpt><trkpt lat="46.308001556090275" lon="6.430891045420871"><ele>521.0</ele><time>2026-05-01T15:40:51Z</time></trkpt><trkpt lat="46.3080360402755" lon="6.430801118256249"><ele>521.0</ele><time>2026-05-01T15:40:54Z</time></trkpt><trkpt lat="46.30794888919247" lon="6.430703446161791"><ele>521.0</ele><time>2026-05-01T15:40:55Z</time></trkpt><trkpt lat="46.30788164918445" lon="6.430624700288371"><ele>521.0</ele><time>2026-05-01T15:40:56Z</time></trkpt><trkpt lat="46.30782627601063" lon="6.430545287910691"><ele>521.0</ele><time>2026-05-01T15:40:57Z</time></trkpt><trkpt lat="46.30776854741379" lon="6.430453570408771"><ele>521.0</ele><time>2026-05-01T15:40:58Z</time></trkpt><trkpt lat="46.30772246922479" lon="6.430351359251256"><ele>521.2</ele><time>2026-05-01T15:40:59Z</time></trkpt><trkpt lat="46.307712936195614" lon="6.43024534356071"><ele>521.4000000000001</ele><time>2026-05-01T15:41:00Z</time></trkpt><trkpt lat="46.307749259643614" lon="6.430121641131922"><ele>521.6</ele><time>2026-05-01T15:41:01Z</time></trkpt><trkpt lat="46.30783306239218" lon="6.430046908898402"><ele>521.8000000000001</ele><time>2026-05-01T15:41:02Z</time></trkpt><trkpt lat="46.30791808616408" lon="6.4299490959066254"><ele>522.0</ele><time>2026-05-01T15:41:03Z</time></trkpt><trkpt lat="46.30802544531399" lon="6.429870483342162"><ele>522.0</ele><time>2026-05-01T15:41:04Z</time></trkpt><trkpt lat="46.30814887327369" lon="6.429787032037087"><ele>522.0</ele><time>2026-05-01T15:41:05Z</time></trkpt><trkpt lat="46.3082718893355" lon="6.429720726160638"><ele>522.0</ele><time>2026-05-01T15:41:06Z</time></trkpt><trkpt lat="46.3083656056062" lon="6.429679197316262"><ele>522.0</ele><time>2026-05-01T15:41:07Z</time></trkpt><trkpt lat="46.308446358754054" lon="6.429632541596597"><ele>522.3333333333334</ele><time>2026-05-01T15:41:08Z</time></trkpt><trkpt lat="46.308507031321824" lon="6.4295852497039085"><ele>522.6666666666666</ele><time>2026-05-01T15:41:09Z</time></trkpt><trkpt lat="46.30858200454789" lon="6.4295496230740605"><ele>523.0</ele><time>2026-05-01T15:41:11Z</time></trkpt><trkpt lat="46.30853288650965" lon="6.429352205542347"><ele>523.3333333333333</ele><time>2026-05-01T15:41:12Z</time></trkpt><trkpt lat="46.3084991640269" lon="6.4292736180193994"><ele>523.6666666666666</ele><time>2026-05-01T15:41:13Z</time></trkpt><trkpt lat="46.308441550924414" lon="6.429210720624122"><ele>524.0</ele><time>2026-05-01T15:41:14Z</time></trkpt><trkpt lat="46.30835949301244" lon="6.429166167811088"><ele>524.0</ele><time>2026-05-01T15:41:15Z</time></trkpt><trkpt lat="46.30825667997762" lon="6.429156553757219"><ele>524.0</ele><time>2026-05-01T15:41:16Z</time></trkpt><trkpt lat="46.30814520004889" lon="6.429159850815091"><ele>524.0</ele><time>2026-05-01T15:41:17Z</time></trkpt><trkpt lat="46.30803280001003" lon="6.429157933518254"><ele>524.0</ele><time>2026-05-01T15:41:18Z</time></trkpt><trkpt lat="46.307911047112704" lon="6.4291522447729745"><ele>524.0</ele><time>2026-05-01T15:41:19Z</time></trkpt><trkpt lat="46.30778454709457" lon="6.429142080232146"><ele>524.25</ele><time>2026-05-01T15:41:20Z</time></trkpt><trkpt lat="46.30765442128135" lon="6.429133474965697"><ele>524.5</ele><time>2026-05-01T15:41:21Z</time></trkpt><trkpt lat="46.30752892521811" lon="6.429122985209592"><ele>524.75</ele><time>2026-05-01T15:41:22Z</time></trkpt><trkpt lat="46.307412729964504" lon="6.429109918296027"><ele>525.0</ele><time>2026-05-01T15:41:23Z</time></trkpt><trkpt lat="46.30731293161922" lon="6.4290501273347855"><ele>525.5</ele><time>2026-05-01T15:41:24Z</time></trkpt><trkpt lat="46.30720231336535" lon="6.429009714799199"><ele>526.0</ele><time>2026-05-01T15:41:25Z</time></trkpt><trkpt lat="46.307080670667744" lon="6.428894267800597"><ele>526.5</ele><time>2026-05-01T15:41:26Z</time></trkpt><trkpt lat="46.30695218946973" lon="6.428775039124908"><ele>527.0</ele><time>2026-05-01T15:41:27Z</time></trkpt><trkpt lat="46.3068379892876" lon="6.428641819888268"><ele>527.2</ele><time>2026-05-01T15:41:28Z</time></trkpt><trkpt lat="46.3067320550466" lon="6.42853330165416"><ele>527.4000000000001</ele><time>2026-05-01T15:41:29Z</time></trkpt><trkpt lat="46.30664394766788" lon="6.428430918771025"><ele>527.5999999999999</ele><time>2026-05-01T15:41:30Z</time></trkpt><trkpt lat="46.30657297591759" lon="6.428346149514705"><ele>527.8</ele><time>2026-05-01T15:41:31Z</time></trkpt><trkpt lat="46.30650352963173" lon="6.428281196573534"><ele>528.0</ele><time>2026-05-01T15:41:32Z</time></trkpt><trkpt lat="46.30647636530325" lon="6.428197933169948"><ele>528.0</ele><time>2026-05-01T15:41:33Z</time></trkpt><trkpt lat="46.306515904867545" lon="6.428069044480584"><ele>528.0</ele><time>2026-05-01T15:41:34Z</time></trkpt><trkpt lat="46.30657665526935" lon="6.427987401055579"><ele>528.0</ele><time>2026-05-01T15:41:35Z</time></trkpt><trkpt lat="46.30664499722081" lon="6.427892317667331"><ele>528.0</ele><time>2026-05-01T15:41:36Z</time></trkpt><trkpt lat="46.30671710393517" lon="6.427790314824564"><ele>528.0</ele><time>2026-05-01T15:41:37Z</time></trkpt><trkpt lat="46.30680631680253" lon="6.427648481221082"><ele>529.25</ele><time>2026-05-01T15:41:38Z</time></trkpt><trkpt lat="46.30688783907818" lon="6.427483685524554"><ele>530.5</ele><time>2026-05-01T15:41:39Z</time></trkpt><trkpt lat="46.306984757967435" lon="6.427323677664336"><ele>531.75</ele><time>2026-05-01T15:41:40Z</time></trkpt><trkpt lat="46.307082096085914" lon="6.427162977697415"><ele>533.0</ele><time>2026-05-01T15:41:41Z</time></trkpt><trkpt lat="46.30717437141594" lon="6.427010776291247"><ele>531.75</ele><time>2026-05-01T15:41:42Z</time></trkpt><trkpt lat="46.30726153359374" lon="6.426871277339269"><ele>530.5</ele><time>2026-05-01T15:41:43Z</time></trkpt><trkpt lat="46.30734666189087" lon="6.426739126327686"><ele>529.25</ele><time>2026-05-01T15:41:44Z</time></trkpt><trkpt lat="46.30744015452058" lon="6.426627057947033"><ele>528.0</ele><time>2026-05-01T15:41:45Z</time></trkpt><trkpt lat="46.3075096187669" lon="6.426495146369224"><ele>528.0</ele><time>2026-05-01T15:41:46Z</time></trkpt><trkpt lat="46.3075548276527" lon="6.426375728813545"><ele>528.0</ele><time>2026-05-01T15:41:47Z</time></trkpt><trkpt lat="46.30759313970031" lon="6.4262849039811165"><ele>528.0</ele><time>2026-05-01T15:41:48Z</time></trkpt><trkpt lat="46.307581865464826" lon="6.426175009097295"><ele>528.0</ele><time>2026-05-01T15:41:49Z</time></trkpt><trkpt lat="46.307566692110214" lon="6.426066708721542"><ele>528.0</ele><time>2026-05-01T15:41:50Z</time></trkpt><trkpt lat="46.307486998019904" lon="6.425951015014305"><ele>528.0</ele><time>2026-05-01T15:41:51Z</time></trkpt><trkpt lat="46.30741295330488" lon="6.4258554676599875"><ele>528.1999999999999</ele><time>2026-05-01T15:41:52Z</time></trkpt><trkpt lat="46.30732386685117" lon="6.425752939969565"><ele>528.4</ele><time>2026-05-01T15:41:53Z</time></trkpt><trkpt lat="46.30724881797265" lon="6.42566908418074"><ele>528.5999999999999</ele><time>2026-05-01T15:41:54Z</time></trkpt><trkpt lat="46.30718481722078" lon="6.425597572996199"><ele>528.8</ele><time>2026-05-01T15:41:55Z</time></trkpt><trkpt lat="46.30711215115312" lon="6.4255163796692845"><ele>529.0</ele><time>2026-05-01T15:41:57Z</time></trkpt><trkpt lat="46.30721485902079" lon="6.425407587692674"><ele>529.0</ele><time>2026-05-01T15:41:58Z</time></trkpt><trkpt lat="46.30725271989175" lon="6.425301049827394"><ele>529.0</ele><time>2026-05-01T15:41:59Z</time></trkpt><trkpt lat="46.307312553580985" lon="6.425208977333027"><ele>529.0</ele><time>2026-05-01T15:42:00Z</time></trkpt><trkpt lat="46.30736898559146" lon="6.425106307481597"><ele>529.0</ele><time>2026-05-01T15:42:01Z</time></trkpt><trkpt lat="46.307430998125135" lon="6.424989649899273"><ele>529.0</ele><time>2026-05-01T15:42:02Z</time></trkpt><trkpt lat="46.307496189632154" lon="6.424875042101509"><ele>529.0</ele><time>2026-05-01T15:42:03Z</time></trkpt><trkpt lat="46.30755468050362" lon="6.424775015451149"><ele>529.0</ele><time>2026-05-01T15:42:04Z</time></trkpt><trkpt lat="46.30760359969118" lon="6.424695200976584"><ele>529.0</ele><time>2026-05-01T15:42:05Z</time></trkpt><trkpt lat="46.30765792214054" lon="6.424601785481051"><ele>529.0</ele><time>2026-05-01T15:42:07Z</time></trkpt><trkpt lat="46.30772190790963" lon="6.424488659881578"><ele>529.0</ele><time>2026-05-01T15:42:09Z</time></trkpt><trkpt lat="46.30776584522023" lon="6.42440391871077"><ele>529.0</ele><time>2026-05-01T15:42:10Z</time></trkpt><trkpt lat="46.30781687536283" lon="6.424310061016798"><ele>529.6</ele><time>2026-05-01T15:42:11Z</time></trkpt><trkpt lat="46.30785049717927" lon="6.424216269296447"><ele>530.2</ele><time>2026-05-01T15:42:12Z</time></trkpt><trkpt lat="46.30790014033261" lon="6.42413290839264"><ele>530.8000000000001</ele><time>2026-05-01T15:42:14Z</time></trkpt><trkpt lat="46.30776579435452" lon="6.423983418403188"><ele>531.4</ele><time>2026-05-01T15:42:16Z</time></trkpt><trkpt lat="46.30767653785752" lon="6.423877678401392"><ele>532.0</ele><time>2026-05-01T15:42:18Z</time></trkpt><trkpt lat="46.307580921293706" lon="6.423761745056161"><ele>532.0</ele><time>2026-05-01T15:42:20Z</time></trkpt><trkpt lat="46.30749736890102" lon="6.423668724382243"><ele>532.0</ele><time>2026-05-01T15:42:22Z</time></trkpt><trkpt lat="46.30743846198455" lon="6.423579734033589"><ele>532.0</ele><time>2026-05-01T15:42:24Z</time></trkpt><trkpt lat="46.307405292152595" lon="6.42349798198344"><ele>532.0</ele><time>2026-05-01T15:42:25Z</time></trkpt><trkpt lat="46.3073392901654" lon="6.423450947086718"><ele>532.0</ele><time>2026-05-01T15:42:27Z</time></trkpt><trkpt lat="46.30730552297725" lon="6.4236060845411265"><ele>532.0</ele><time>2026-05-01T15:43:26.435Z</time></trkpt><trkpt lat="46.3073625928037" lon="6.423766602783638"><ele>532.0</ele><time>2026-05-01T15:43:28.88Z</time></trkpt></trkseg></trk></gpx>